<?xml version="1.0" encoding="UTF-8" standalone="no" ?>
<gpx xmlns="http://www.topografix.com/GPX/1/1" xmlns:xsi="http://www.w3.org/2001/XMLSchema-instance" xsi:schemaLocation="http://www.topografix.com/GPX/1/1 http://www.topografix.com/GPX/1/1/gpx.xsd" version="1.1" creator="VisuGPX - https://www.visugpx.com">
  <metadata>
    <name>X-Jura By YoYo - Run</name>
  </metadata>
  <trk>
    <name><![CDATA[From Basel to Monniaz (X-Jura By YoYo - 1 way)]]></name>
    <trkseg>
      <trkpt lat="47.55663" lon="7.59148">
        <ele>267.003153</ele>
        <time>2021-07-06T16:19:43.923Z</time>
      </trkpt>
      <trkpt lat="47.55642" lon="7.59167">
        <ele>267.003153</ele>
        <time>2021-07-06T16:19:51.432Z</time>
      </trkpt>
      <trkpt lat="47.55669" lon="7.59226">
        <ele>267.003153</ele>
        <time>2021-07-06T16:20:05.464Z</time>
      </trkpt>
      <trkpt lat="47.55673" lon="7.59231">
        <ele>267.003153</ele>
        <time>2021-07-06T16:20:06.870Z</time>
      </trkpt>
      <trkpt lat="47.55688" lon="7.59253">
        <ele>266.377239</ele>
        <time>2021-07-06T16:20:13.090Z</time>
      </trkpt>
      <trkpt lat="47.55689" lon="7.59252">
        <ele>266.313998</ele>
        <time>2021-07-06T16:20:13.362Z</time>
      </trkpt>
      <trkpt lat="47.5569" lon="7.59251">
        <ele>266.255266</ele>
        <time>2021-07-06T16:20:13.614Z</time>
      </trkpt>
      <trkpt lat="47.55692" lon="7.59254">
        <ele>266.079294</ele>
        <time>2021-07-06T16:20:14.322Z</time>
      </trkpt>
      <trkpt lat="47.55692" lon="7.59254">
        <ele>266.053046</ele>
        <time>2021-07-06T16:20:14.423Z</time>
      </trkpt>
      <trkpt lat="47.55692" lon="7.59253">
        <ele>266.027534</ele>
        <time>2021-07-06T16:20:14.540Z</time>
      </trkpt>
      <trkpt lat="47.55688" lon="7.59247">
        <ele>265.641577</ele>
        <time>2021-07-06T16:20:16.261Z</time>
      </trkpt>
      <trkpt lat="47.55689" lon="7.59245">
        <ele>265.522817</ele>
        <time>2021-07-06T16:20:16.758Z</time>
      </trkpt>
      <trkpt lat="47.55701" lon="7.59261">
        <ele>264.50206</ele>
        <time>2021-07-06T16:20:21.218Z</time>
      </trkpt>
      <trkpt lat="47.55704" lon="7.59254">
        <ele>264.130856</ele>
        <time>2021-07-06T16:20:22.827Z</time>
      </trkpt>
      <trkpt lat="47.55706" lon="7.59248">
        <ele>263.85663</ele>
        <time>2021-07-06T16:20:23.947Z</time>
      </trkpt>
      <trkpt lat="47.55709" lon="7.59251">
        <ele>263.603635</ele>
        <time>2021-07-06T16:20:24.955Z</time>
      </trkpt>
      <trkpt lat="47.55699" lon="7.59279">
        <ele>262.189958</ele>
        <time>2021-07-06T16:20:31.066Z</time>
      </trkpt>
      <trkpt lat="47.55694" lon="7.59289">
        <ele>261.651455</ele>
        <time>2021-07-06T16:20:33.321Z</time>
      </trkpt>
      <trkpt lat="47.55698" lon="7.59294">
        <ele>261.299513</ele>
        <time>2021-07-06T16:20:34.716Z</time>
      </trkpt>
      <trkpt lat="47.557" lon="7.59297">
        <ele>261.086565</ele>
        <time>2021-07-06T16:20:35.652Z</time>
      </trkpt>
      <trkpt lat="47.55705" lon="7.59303">
        <ele>260.690867</ele>
        <time>2021-07-06T16:20:37.337Z</time>
      </trkpt>
      <trkpt lat="47.5581" lon="7.59435">
        <ele>253.299758</ele>
        <time>2021-07-06T16:21:16.453Z</time>
      </trkpt>
      <trkpt lat="47.55813" lon="7.59439">
        <ele>253.138229</ele>
        <time>2021-07-06T16:21:17.751Z</time>
      </trkpt>
      <trkpt lat="47.5582" lon="7.59445">
        <ele>252.842837</ele>
        <time>2021-07-06T16:21:20.192Z</time>
      </trkpt>
      <trkpt lat="47.55807" lon="7.59474">
        <ele>252.002607</ele>
        <time>2021-07-06T16:21:27.052Z</time>
      </trkpt>
      <trkpt lat="47.55802" lon="7.59478">
        <ele>251.775348</ele>
        <time>2021-07-06T16:21:29.299Z</time>
      </trkpt>
      <trkpt lat="47.5578" lon="7.59516">
        <ele>250.545086</ele>
        <time>2021-07-06T16:21:41.456Z</time>
      </trkpt>
      <trkpt lat="47.55753" lon="7.59585">
        <ele>248.697864</ele>
        <time>2021-07-06T16:22:01.543Z</time>
      </trkpt>
      <trkpt lat="47.55744" lon="7.59609">
        <ele>248.571161</ele>
        <time>2021-07-06T16:22:08.154Z</time>
      </trkpt>
      <trkpt lat="47.55728" lon="7.59657">
        <ele>248.309552</ele>
        <time>2021-07-06T16:22:22.076Z</time>
      </trkpt>
      <trkpt lat="47.55734" lon="7.59662">
        <ele>248.26032</ele>
        <time>2021-07-06T16:22:24.351Z</time>
      </trkpt>
      <trkpt lat="47.55722" lon="7.59698">
        <ele>248.0643</ele>
        <time>2021-07-06T16:22:33.195Z</time>
      </trkpt>
      <trkpt lat="47.55716" lon="7.59716">
        <ele>247.971093</ele>
        <time>2021-07-06T16:22:37.498Z</time>
      </trkpt>
      <trkpt lat="47.55714" lon="7.59723">
        <ele>247.931835</ele>
        <time>2021-07-06T16:22:39.247Z</time>
      </trkpt>
      <trkpt lat="47.55711" lon="7.59737">
        <ele>247.861102</ele>
        <time>2021-07-06T16:22:42.437Z</time>
      </trkpt>
      <trkpt lat="47.55711" lon="7.59744">
        <ele>247.827999</ele>
        <time>2021-07-06T16:22:43.937Z</time>
      </trkpt>
      <trkpt lat="47.55702" lon="7.59822">
        <ele>247.450362</ele>
        <time>2021-07-06T16:23:01.164Z</time>
      </trkpt>
      <trkpt lat="47.55697" lon="7.59881">
        <ele>247.373638</ele>
        <time>2021-07-06T16:23:14.293Z</time>
      </trkpt>
      <trkpt lat="47.55696" lon="7.59903">
        <ele>247.345724</ele>
        <time>2021-07-06T16:23:19.127Z</time>
      </trkpt>
      <trkpt lat="47.55695" lon="7.5993">
        <ele>247.31252</ele>
        <time>2021-07-06T16:23:24.906Z</time>
      </trkpt>
      <trkpt lat="47.55696" lon="7.6004">
        <ele>247.173055</ele>
        <time>2021-07-06T16:23:49.327Z</time>
      </trkpt>
      <trkpt lat="47.55697" lon="7.60083">
        <ele>247.119134</ele>
        <time>2021-07-06T16:23:58.789Z</time>
      </trkpt>
      <trkpt lat="47.55697" lon="7.60101">
        <ele>247.173015</ele>
        <time>2021-07-06T16:24:02.821Z</time>
      </trkpt>
      <trkpt lat="47.55701" lon="7.60201">
        <ele>247.621532</ele>
        <time>2021-07-06T16:24:25.255Z</time>
      </trkpt>
      <trkpt lat="47.55701" lon="7.60232">
        <ele>247.758463</ele>
        <time>2021-07-06T16:24:32.117Z</time>
      </trkpt>
      <trkpt lat="47.55702" lon="7.6025">
        <ele>247.840463</ele>
        <time>2021-07-06T16:24:36.293Z</time>
      </trkpt>
      <trkpt lat="47.55709" lon="7.60325">
        <ele>248.175756</ele>
        <time>2021-07-06T16:24:53.313Z</time>
      </trkpt>
      <trkpt lat="47.55713" lon="7.60361">
        <ele>248.44948</ele>
        <time>2021-07-06T16:25:01.942Z</time>
      </trkpt>
      <trkpt lat="47.55716" lon="7.60387">
        <ele>248.892202</ele>
        <time>2021-07-06T16:25:07.870Z</time>
      </trkpt>
      <trkpt lat="47.55719" lon="7.60414">
        <ele>249.370019</ele>
        <time>2021-07-06T16:25:14.841Z</time>
      </trkpt>
      <trkpt lat="47.55722" lon="7.60448">
        <ele>249.953654</ele>
        <time>2021-07-06T16:25:23.267Z</time>
      </trkpt>
      <trkpt lat="47.55726" lon="7.60486">
        <ele>250.618969</ele>
        <time>2021-07-06T16:25:32.851Z</time>
      </trkpt>
      <trkpt lat="47.55728" lon="7.60505">
        <ele>250.933726</ele>
        <time>2021-07-06T16:25:38.060Z</time>
      </trkpt>
      <trkpt lat="47.55731" lon="7.6052">
        <ele>251.213515</ele>
        <time>2021-07-06T16:25:42.094Z</time>
      </trkpt>
      <trkpt lat="47.5574" lon="7.60529">
        <ele>251.480726</ele>
        <time>2021-07-06T16:25:45.773Z</time>
      </trkpt>
      <trkpt lat="47.55745" lon="7.60529">
        <ele>251.608331</ele>
        <time>2021-07-06T16:25:47.607Z</time>
      </trkpt>
      <trkpt lat="47.55752" lon="7.60583">
        <ele>252.5588</ele>
        <time>2021-07-06T16:26:01.331Z</time>
      </trkpt>
      <trkpt lat="47.55751" lon="7.60595">
        <ele>252.761255</ele>
        <time>2021-07-06T16:26:04.721Z</time>
      </trkpt>
      <trkpt lat="47.55755" lon="7.60617">
        <ele>252.877981</ele>
        <time>2021-07-06T16:26:09.921Z</time>
      </trkpt>
      <trkpt lat="47.55773" lon="7.60712">
        <ele>252.863578</ele>
        <time>2021-07-06T16:26:32.997Z</time>
      </trkpt>
      <trkpt lat="47.55812" lon="7.60917">
        <ele>251.904512</ele>
        <time>2021-07-06T16:27:18.521Z</time>
      </trkpt>
      <trkpt lat="47.55815" lon="7.60936">
        <ele>251.58522</ele>
        <time>2021-07-06T16:27:22.541Z</time>
      </trkpt>
      <trkpt lat="47.55823" lon="7.60935">
        <ele>251.390393</ele>
        <time>2021-07-06T16:27:25.095Z</time>
      </trkpt>
      <trkpt lat="47.55825" lon="7.60957">
        <ele>251.04203</ele>
        <time>2021-07-06T16:27:29.705Z</time>
      </trkpt>
      <trkpt lat="47.55827" lon="7.60972">
        <ele>250.803417</ele>
        <time>2021-07-06T16:27:32.766Z</time>
      </trkpt>
      <trkpt lat="47.55829" lon="7.60995">
        <ele>250.447205</ele>
        <time>2021-07-06T16:27:37.461Z</time>
      </trkpt>
      <trkpt lat="47.55834" lon="7.61022">
        <ele>250.016139</ele>
        <time>2021-07-06T16:27:43.176Z</time>
      </trkpt>
      <trkpt lat="47.55837" lon="7.61037">
        <ele>249.763388</ele>
        <time>2021-07-06T16:27:46.513Z</time>
      </trkpt>
      <trkpt lat="47.55839" lon="7.61045">
        <ele>249.634406</ele>
        <time>2021-07-06T16:27:48.248Z</time>
      </trkpt>
      <trkpt lat="47.55849" lon="7.61083">
        <ele>249.001666</ele>
        <time>2021-07-06T16:27:56.818Z</time>
      </trkpt>
      <trkpt lat="47.55852" lon="7.61099">
        <ele>248.739119</ele>
        <time>2021-07-06T16:28:00.461Z</time>
      </trkpt>
      <trkpt lat="47.55857" lon="7.61131">
        <ele>248.636064</ele>
        <time>2021-07-06T16:28:07.358Z</time>
      </trkpt>
      <trkpt lat="47.55862" lon="7.61166">
        <ele>248.562752</ele>
        <time>2021-07-06T16:28:15.471Z</time>
      </trkpt>
      <trkpt lat="47.55872" lon="7.61197">
        <ele>248.495252</ele>
        <time>2021-07-06T16:28:22.765Z</time>
      </trkpt>
      <trkpt lat="47.55874" lon="7.61199">
        <ele>248.487534</ele>
        <time>2021-07-06T16:28:23.606Z</time>
      </trkpt>
      <trkpt lat="47.55872" lon="7.61208">
        <ele>248.466678</ele>
        <time>2021-07-06T16:28:25.957Z</time>
      </trkpt>
      <trkpt lat="47.55872" lon="7.61217">
        <ele>248.448677</ele>
        <time>2021-07-06T16:28:27.977Z</time>
      </trkpt>
      <trkpt lat="47.55872" lon="7.61221">
        <ele>248.441411</ele>
        <time>2021-07-06T16:28:28.802Z</time>
      </trkpt>
      <trkpt lat="47.55873" lon="7.61231">
        <ele>248.420474</ele>
        <time>2021-07-06T16:28:31.046Z</time>
      </trkpt>
      <trkpt lat="47.55877" lon="7.6125">
        <ele>248.381447</ele>
        <time>2021-07-06T16:28:35.263Z</time>
      </trkpt>
      <trkpt lat="47.55887" lon="7.6127">
        <ele>248.331063</ele>
        <time>2021-07-06T16:28:40.903Z</time>
      </trkpt>
      <trkpt lat="47.55891" lon="7.61273">
        <ele>248.316582</ele>
        <time>2021-07-06T16:28:42.517Z</time>
      </trkpt>
      <trkpt lat="47.55896" lon="7.61275">
        <ele>248.303793</ele>
        <time>2021-07-06T16:28:43.858Z</time>
      </trkpt>
      <trkpt lat="47.55898" lon="7.61279">
        <ele>248.291684</ele>
        <time>2021-07-06T16:28:45.181Z</time>
      </trkpt>
      <trkpt lat="47.55899" lon="7.61283">
        <ele>248.284318</ele>
        <time>2021-07-06T16:28:46.009Z</time>
      </trkpt>
      <trkpt lat="47.55921" lon="7.61352">
        <ele>248.186148</ele>
        <time>2021-07-06T16:29:03.068Z</time>
      </trkpt>
      <trkpt lat="47.55921" lon="7.61354">
        <ele>248.189239</ele>
        <time>2021-07-06T16:29:03.410Z</time>
      </trkpt>
      <trkpt lat="47.55922" lon="7.61356">
        <ele>248.194001</ele>
        <time>2021-07-06T16:29:03.903Z</time>
      </trkpt>
      <trkpt lat="47.55923" lon="7.6136">
        <ele>248.202222</ele>
        <time>2021-07-06T16:29:04.793Z</time>
      </trkpt>
      <trkpt lat="47.55932" lon="7.61392">
        <ele>248.273802</ele>
        <time>2021-07-06T16:29:12.652Z</time>
      </trkpt>
      <trkpt lat="47.55934" lon="7.61407">
        <ele>248.305685</ele>
        <time>2021-07-06T16:29:16.159Z</time>
      </trkpt>
      <trkpt lat="47.55938" lon="7.61413">
        <ele>248.32169</ele>
        <time>2021-07-06T16:29:17.940Z</time>
      </trkpt>
      <trkpt lat="47.55939" lon="7.61421">
        <ele>248.339347</ele>
        <time>2021-07-06T16:29:19.824Z</time>
      </trkpt>
      <trkpt lat="47.55959" lon="7.61546">
        <ele>248.599081</ele>
        <time>2021-07-06T16:29:48.739Z</time>
      </trkpt>
      <trkpt lat="47.55962" lon="7.61564">
        <ele>248.636511</ele>
        <time>2021-07-06T16:29:52.841Z</time>
      </trkpt>
      <trkpt lat="47.55962" lon="7.61577">
        <ele>248.664243</ele>
        <time>2021-07-06T16:29:55.834Z</time>
      </trkpt>
      <trkpt lat="47.55972" lon="7.61641">
        <ele>248.726193</ele>
        <time>2021-07-06T16:30:10.205Z</time>
      </trkpt>
      <trkpt lat="47.5598" lon="7.61692">
        <ele>248.755515</ele>
        <time>2021-07-06T16:30:21.818Z</time>
      </trkpt>
      <trkpt lat="47.55986" lon="7.61715">
        <ele>248.769574</ele>
        <time>2021-07-06T16:30:27.378Z</time>
      </trkpt>
      <trkpt lat="47.5599" lon="7.61731">
        <ele>248.779253</ele>
        <time>2021-07-06T16:30:31.234Z</time>
      </trkpt>
      <trkpt lat="47.55986" lon="7.61739">
        <ele>248.784697</ele>
        <time>2021-07-06T16:30:33.381Z</time>
      </trkpt>
      <trkpt lat="47.55989" lon="7.61763">
        <ele>248.798122</ele>
        <time>2021-07-06T16:30:38.613Z</time>
      </trkpt>
      <trkpt lat="47.55992" lon="7.61782">
        <ele>248.808887</ele>
        <time>2021-07-06T16:30:42.906Z</time>
      </trkpt>
      <trkpt lat="47.55995" lon="7.61793">
        <ele>248.815637</ele>
        <time>2021-07-06T16:30:45.590Z</time>
      </trkpt>
      <trkpt lat="47.56005" lon="7.61851">
        <ele>248.848771</ele>
        <time>2021-07-06T16:30:58.868Z</time>
      </trkpt>
      <trkpt lat="47.5601" lon="7.61881">
        <ele>248.782985</ele>
        <time>2021-07-06T16:31:05.773Z</time>
      </trkpt>
      <trkpt lat="47.56025" lon="7.61942">
        <ele>248.647051</ele>
        <time>2021-07-06T16:31:20.050Z</time>
      </trkpt>
      <trkpt lat="47.56028" lon="7.61948">
        <ele>248.629911</ele>
        <time>2021-07-06T16:31:21.754Z</time>
      </trkpt>
      <trkpt lat="47.56029" lon="7.61954">
        <ele>248.618868</ele>
        <time>2021-07-06T16:31:22.896Z</time>
      </trkpt>
      <trkpt lat="47.56034" lon="7.61973">
        <ele>248.574904</ele>
        <time>2021-07-06T16:31:27.486Z</time>
      </trkpt>
      <trkpt lat="47.56034" lon="7.61974">
        <ele>248.574005</ele>
        <time>2021-07-06T16:31:27.561Z</time>
      </trkpt>
      <trkpt lat="47.56041" lon="7.61999">
        <ele>248.51629</ele>
        <time>2021-07-06T16:31:33.488Z</time>
      </trkpt>
      <trkpt lat="47.56062" lon="7.62078">
        <ele>248.337447</ele>
        <time>2021-07-06T16:31:51.942Z</time>
      </trkpt>
      <trkpt lat="47.56064" lon="7.62071">
        <ele>248.320511</ele>
        <time>2021-07-06T16:31:53.709Z</time>
      </trkpt>
      <trkpt lat="47.56071" lon="7.62083">
        <ele>248.287247</ele>
        <time>2021-07-06T16:31:57.200Z</time>
      </trkpt>
      <trkpt lat="47.56074" lon="7.6209">
        <ele>248.291871</ele>
        <time>2021-07-06T16:31:59.020Z</time>
      </trkpt>
      <trkpt lat="47.56076" lon="7.62103">
        <ele>248.299399</ele>
        <time>2021-07-06T16:32:01.962Z</time>
      </trkpt>
      <trkpt lat="47.5607" lon="7.62103">
        <ele>248.304885</ele>
        <time>2021-07-06T16:32:04.064Z</time>
      </trkpt>
      <trkpt lat="47.56081" lon="7.62132">
        <ele>248.323588</ele>
        <time>2021-07-06T16:32:11.287Z</time>
      </trkpt>
      <trkpt lat="47.56097" lon="7.62155">
        <ele>248.342237</ele>
        <time>2021-07-06T16:32:18.682Z</time>
      </trkpt>
      <trkpt lat="47.56101" lon="7.62155">
        <ele>248.345617</ele>
        <time>2021-07-06T16:32:20.092Z</time>
      </trkpt>
      <trkpt lat="47.561" lon="7.62161">
        <ele>248.349376</ele>
        <time>2021-07-06T16:32:21.553Z</time>
      </trkpt>
      <trkpt lat="47.56121" lon="7.62262">
        <ele>248.409075</ele>
        <time>2021-07-06T16:32:45.130Z</time>
      </trkpt>
      <trkpt lat="47.56133" lon="7.62275">
        <ele>248.421585</ele>
        <time>2021-07-06T16:32:49.963Z</time>
      </trkpt>
      <trkpt lat="47.56132" lon="7.6229">
        <ele>248.430445</ele>
        <time>2021-07-06T16:32:53.347Z</time>
      </trkpt>
      <trkpt lat="47.56139" lon="7.62309">
        <ele>248.470057</ele>
        <time>2021-07-06T16:32:58.099Z</time>
      </trkpt>
      <trkpt lat="47.56142" lon="7.62316">
        <ele>248.507134</ele>
        <time>2021-07-06T16:32:59.905Z</time>
      </trkpt>
      <trkpt lat="47.56142" lon="7.62317">
        <ele>248.511218</ele>
        <time>2021-07-06T16:33:00.115Z</time>
      </trkpt>
      <trkpt lat="47.56147" lon="7.62336">
        <ele>248.60042</ele>
        <time>2021-07-06T16:33:04.423Z</time>
      </trkpt>
      <trkpt lat="47.56159" lon="7.62328">
        <ele>248.691759</ele>
        <time>2021-07-06T16:33:08.885Z</time>
      </trkpt>
      <trkpt lat="47.56187" lon="7.62428">
        <ele>249.172563</ele>
        <time>2021-07-06T16:33:33.246Z</time>
      </trkpt>
      <trkpt lat="47.56181" lon="7.62438">
        <ele>249.232221</ele>
        <time>2021-07-06T16:33:36.325Z</time>
      </trkpt>
      <trkpt lat="47.56181" lon="7.6244">
        <ele>249.239004</ele>
        <time>2021-07-06T16:33:36.688Z</time>
      </trkpt>
      <trkpt lat="47.56181" lon="7.62441">
        <ele>249.246617</ele>
        <time>2021-07-06T16:33:37.039Z</time>
      </trkpt>
      <trkpt lat="47.56182" lon="7.62448">
        <ele>249.277293</ele>
        <time>2021-07-06T16:33:38.576Z</time>
      </trkpt>
      <trkpt lat="47.56184" lon="7.62463">
        <ele>249.347507</ele>
        <time>2021-07-06T16:33:42.426Z</time>
      </trkpt>
      <trkpt lat="47.56184" lon="7.62464">
        <ele>249.349292</ele>
        <time>2021-07-06T16:33:42.494Z</time>
      </trkpt>
      <trkpt lat="47.56186" lon="7.62468">
        <ele>249.371737</ele>
        <time>2021-07-06T16:33:43.821Z</time>
      </trkpt>
      <trkpt lat="47.56194" lon="7.62487">
        <ele>249.474191</ele>
        <time>2021-07-06T16:33:50.251Z</time>
      </trkpt>
      <trkpt lat="47.56204" lon="7.62489">
        <ele>249.536391</ele>
        <time>2021-07-06T16:33:53.958Z</time>
      </trkpt>
      <trkpt lat="47.56205" lon="7.62493">
        <ele>249.554173</ele>
        <time>2021-07-06T16:33:55.000Z</time>
      </trkpt>
      <trkpt lat="47.56209" lon="7.62509">
        <ele>249.637726</ele>
        <time>2021-07-06T16:33:59.093Z</time>
      </trkpt>
      <trkpt lat="47.56229" lon="7.62583">
        <ele>250.546439</ele>
        <time>2021-07-06T16:34:17.621Z</time>
      </trkpt>
      <trkpt lat="47.56237" lon="7.62614">
        <ele>250.920422</ele>
        <time>2021-07-06T16:34:25.417Z</time>
      </trkpt>
      <trkpt lat="47.56243" lon="7.62639">
        <ele>251.220603</ele>
        <time>2021-07-06T16:34:31.537Z</time>
      </trkpt>
      <trkpt lat="47.56244" lon="7.62644">
        <ele>251.287295</ele>
        <time>2021-07-06T16:34:33.170Z</time>
      </trkpt>
      <trkpt lat="47.5624" lon="7.62647">
        <ele>251.370877</ele>
        <time>2021-07-06T16:34:34.759Z</time>
      </trkpt>
      <trkpt lat="47.56241" lon="7.62653">
        <ele>251.445603</ele>
        <time>2021-07-06T16:34:36.327Z</time>
      </trkpt>
      <trkpt lat="47.56243" lon="7.62661">
        <ele>251.542395</ele>
        <time>2021-07-06T16:34:38.409Z</time>
      </trkpt>
      <trkpt lat="47.56251" lon="7.62687">
        <ele>251.86568</ele>
        <time>2021-07-06T16:34:45.383Z</time>
      </trkpt>
      <trkpt lat="47.56268" lon="7.62777">
        <ele>252.771202</ele>
        <time>2021-07-06T16:35:07.722Z</time>
      </trkpt>
      <trkpt lat="47.5628" lon="7.62908">
        <ele>253.43086</ele>
        <time>2021-07-06T16:35:37.867Z</time>
      </trkpt>
      <trkpt lat="47.5628" lon="7.62923">
        <ele>253.506788</ele>
        <time>2021-07-06T16:35:41.311Z</time>
      </trkpt>
      <trkpt lat="47.5628" lon="7.62936">
        <ele>253.573226</ele>
        <time>2021-07-06T16:35:44.234Z</time>
      </trkpt>
      <trkpt lat="47.56276" lon="7.63003">
        <ele>253.90574</ele>
        <time>2021-07-06T16:35:59.001Z</time>
      </trkpt>
      <trkpt lat="47.56274" lon="7.63055">
        <ele>254.083604</ele>
        <time>2021-07-06T16:36:10.736Z</time>
      </trkpt>
      <trkpt lat="47.56272" lon="7.63113">
        <ele>254.237575</ele>
        <time>2021-07-06T16:36:23.400Z</time>
      </trkpt>
      <trkpt lat="47.56271" lon="7.63124">
        <ele>254.268988</ele>
        <time>2021-07-06T16:36:25.992Z</time>
      </trkpt>
      <trkpt lat="47.56268" lon="7.63181">
        <ele>254.42213</ele>
        <time>2021-07-06T16:36:38.587Z</time>
      </trkpt>
      <trkpt lat="47.56263" lon="7.63243">
        <ele>254.588698</ele>
        <time>2021-07-06T16:36:52.367Z</time>
      </trkpt>
      <trkpt lat="47.56261" lon="7.6326">
        <ele>254.636973</ele>
        <time>2021-07-06T16:36:56.305Z</time>
      </trkpt>
      <trkpt lat="47.56256" lon="7.63299">
        <ele>254.936864</ele>
        <time>2021-07-06T16:37:05.645Z</time>
      </trkpt>
      <trkpt lat="47.5625" lon="7.63332">
        <ele>255.439642</ele>
        <time>2021-07-06T16:37:13.928Z</time>
      </trkpt>
      <trkpt lat="47.56256" lon="7.63335">
        <ele>255.571004</ele>
        <time>2021-07-06T16:37:16.221Z</time>
      </trkpt>
      <trkpt lat="47.56263" lon="7.63337">
        <ele>255.717342</ele>
        <time>2021-07-06T16:37:18.556Z</time>
      </trkpt>
      <trkpt lat="47.56257" lon="7.63372">
        <ele>256.247313</ele>
        <time>2021-07-06T16:37:27.345Z</time>
      </trkpt>
      <trkpt lat="47.56256" lon="7.63373">
        <ele>256.267042</ele>
        <time>2021-07-06T16:37:27.676Z</time>
      </trkpt>
      <trkpt lat="47.56257" lon="7.63374">
        <ele>256.288816</ele>
        <time>2021-07-06T16:37:28.026Z</time>
      </trkpt>
      <trkpt lat="47.56252" lon="7.63406">
        <ele>256.779492</ele>
        <time>2021-07-06T16:37:36.020Z</time>
      </trkpt>
      <trkpt lat="47.5625" lon="7.63406">
        <ele>256.80567</ele>
        <time>2021-07-06T16:37:36.428Z</time>
      </trkpt>
      <trkpt lat="47.56251" lon="7.63408">
        <ele>256.833564</ele>
        <time>2021-07-06T16:37:36.905Z</time>
      </trkpt>
      <trkpt lat="47.5625" lon="7.63412">
        <ele>256.895998</ele>
        <time>2021-07-06T16:37:37.992Z</time>
      </trkpt>
      <trkpt lat="47.56248" lon="7.63424">
        <ele>257.079086</ele>
        <time>2021-07-06T16:37:41.216Z</time>
      </trkpt>
      <trkpt lat="47.56245" lon="7.63443">
        <ele>257.365219</ele>
        <time>2021-07-06T16:37:45.877Z</time>
      </trkpt>
      <trkpt lat="47.56251" lon="7.63452">
        <ele>257.55029</ele>
        <time>2021-07-06T16:37:48.864Z</time>
      </trkpt>
      <trkpt lat="47.56249" lon="7.63456">
        <ele>257.621452</ele>
        <time>2021-07-06T16:37:50.062Z</time>
      </trkpt>
      <trkpt lat="47.5629" lon="7.63484">
        <ele>258.589552</ele>
        <time>2021-07-06T16:38:06.313Z</time>
      </trkpt>
      <trkpt lat="47.5638" lon="7.63546">
        <ele>260.737415</ele>
        <time>2021-07-06T16:38:42.116Z</time>
      </trkpt>
      <trkpt lat="47.56414" lon="7.63575">
        <ele>261.57284</ele>
        <time>2021-07-06T16:38:56.114Z</time>
      </trkpt>
      <trkpt lat="47.56376" lon="7.63679">
        <ele>262.962697</ele>
        <time>2021-07-06T16:39:23.289Z</time>
      </trkpt>
      <trkpt lat="47.56355" lon="7.63741">
        <ele>263.571109</ele>
        <time>2021-07-06T16:39:39.450Z</time>
      </trkpt>
      <trkpt lat="47.56329" lon="7.63827">
        <ele>264.394623</ele>
        <time>2021-07-06T16:40:01.158Z</time>
      </trkpt>
      <trkpt lat="47.56316" lon="7.63855">
        <ele>264.692187</ele>
        <time>2021-07-06T16:40:08.964Z</time>
      </trkpt>
      <trkpt lat="47.56301" lon="7.63875">
        <ele>265.321921</ele>
        <time>2021-07-06T16:40:16.018Z</time>
      </trkpt>
      <trkpt lat="47.56236" lon="7.63966">
        <ele>269.235284</ele>
        <time>2021-07-06T16:40:48.258Z</time>
      </trkpt>
      <trkpt lat="47.56211" lon="7.64001">
        <ele>270.718668</ele>
        <time>2021-07-06T16:41:02.144Z</time>
      </trkpt>
      <trkpt lat="47.56192" lon="7.64028">
        <ele>271.882451</ele>
        <time>2021-07-06T16:41:14.122Z</time>
      </trkpt>
      <trkpt lat="47.56157" lon="7.64094">
        <ele>278.329051</ele>
        <time>2021-07-06T16:41:40.023Z</time>
      </trkpt>
      <trkpt lat="47.56155" lon="7.64099">
        <ele>278.919824</ele>
        <time>2021-07-06T16:41:41.831Z</time>
      </trkpt>
      <trkpt lat="47.56154" lon="7.64104">
        <ele>279.417879</ele>
        <time>2021-07-06T16:41:43.783Z</time>
      </trkpt>
      <trkpt lat="47.5615" lon="7.64108">
        <ele>280.091413</ele>
        <time>2021-07-06T16:41:48.345Z</time>
      </trkpt>
      <trkpt lat="47.56134" lon="7.64122">
        <ele>282.834397</ele>
        <time>2021-07-06T16:41:59.022Z</time>
      </trkpt>
      <trkpt lat="47.56131" lon="7.64137">
        <ele>284.375213</ele>
        <time>2021-07-06T16:42:05.258Z</time>
      </trkpt>
      <trkpt lat="47.56133" lon="7.64372">
        <ele>312.086289</ele>
        <time>2021-07-06T16:44:27.038Z</time>
      </trkpt>
      <trkpt lat="47.56133" lon="7.644">
        <ele>316.319495</ele>
        <time>2021-07-06T16:44:42.306Z</time>
      </trkpt>
      <trkpt lat="47.56135" lon="7.6441">
        <ele>317.858402</ele>
        <time>2021-07-06T16:44:48.911Z</time>
      </trkpt>
      <trkpt lat="47.56134" lon="7.64423">
        <ele>319.801119</ele>
        <time>2021-07-06T16:44:59.832Z</time>
      </trkpt>
      <trkpt lat="47.56133" lon="7.64432">
        <ele>321.221905</ele>
        <time>2021-07-06T16:45:04.927Z</time>
      </trkpt>
      <trkpt lat="47.56105" lon="7.64472">
        <ele>329.836074</ele>
        <time>2021-07-06T16:45:46.259Z</time>
      </trkpt>
      <trkpt lat="47.56091" lon="7.64512">
        <ele>336.586958</ele>
        <time>2021-07-06T16:46:21.423Z</time>
      </trkpt>
      <trkpt lat="47.56085" lon="7.6459">
        <ele>348.192318</ele>
        <time>2021-07-06T16:47:19.480Z</time>
      </trkpt>
      <trkpt lat="47.56064" lon="7.6461">
        <ele>353.677423</ele>
        <time>2021-07-06T16:47:48.515Z</time>
      </trkpt>
      <trkpt lat="47.56059" lon="7.64621">
        <ele>355.590157</ele>
        <time>2021-07-06T16:47:56.211Z</time>
      </trkpt>
      <trkpt lat="47.56058" lon="7.6464">
        <ele>358.444151</ele>
        <time>2021-07-06T16:48:10.311Z</time>
      </trkpt>
      <trkpt lat="47.56042" lon="7.64687">
        <ele>366.204914</ele>
        <time>2021-07-06T16:48:42.254Z</time>
      </trkpt>
      <trkpt lat="47.56037" lon="7.64703">
        <ele>368.753239</ele>
        <time>2021-07-06T16:48:51.102Z</time>
      </trkpt>
      <trkpt lat="47.56035" lon="7.64713">
        <ele>370.354299</ele>
        <time>2021-07-06T16:48:58.128Z</time>
      </trkpt>
      <trkpt lat="47.56018" lon="7.64778">
        <ele>379.787766</ele>
        <time>2021-07-06T16:49:38.315Z</time>
      </trkpt>
      <trkpt lat="47.56008" lon="7.64792">
        <ele>381.689163</ele>
        <time>2021-07-06T16:49:49.070Z</time>
      </trkpt>
      <trkpt lat="47.55999" lon="7.64827">
        <ele>385.347341</ele>
        <time>2021-07-06T16:50:12.177Z</time>
      </trkpt>
      <trkpt lat="47.56006" lon="7.64853">
        <ele>388.148903</ele>
        <time>2021-07-06T16:50:27.186Z</time>
      </trkpt>
      <trkpt lat="47.56013" lon="7.64856">
        <ele>389.092852</ele>
        <time>2021-07-06T16:50:33.812Z</time>
      </trkpt>
      <trkpt lat="47.56041" lon="7.6493">
        <ele>397.437144</ele>
        <time>2021-07-06T16:51:11.758Z</time>
      </trkpt>
      <trkpt lat="47.56065" lon="7.64956">
        <ele>401.82834</ele>
        <time>2021-07-06T16:51:32.279Z</time>
      </trkpt>
      <trkpt lat="47.56069" lon="7.64975">
        <ele>403.68781</ele>
        <time>2021-07-06T16:51:40.210Z</time>
      </trkpt>
      <trkpt lat="47.56073" lon="7.64981">
        <ele>404.496169</ele>
        <time>2021-07-06T16:51:46.504Z</time>
      </trkpt>
      <trkpt lat="47.56067" lon="7.6498">
        <ele>405.230081</ele>
        <time>2021-07-06T16:51:49.907Z</time>
      </trkpt>
      <trkpt lat="47.56057" lon="7.65006">
        <ele>407.657995</ele>
        <time>2021-07-06T16:52:01.700Z</time>
      </trkpt>
      <trkpt lat="47.56029" lon="7.65047">
        <ele>412.373812</ele>
        <time>2021-07-06T16:52:27.925Z</time>
      </trkpt>
      <trkpt lat="47.56016" lon="7.6507">
        <ele>414.754788</ele>
        <time>2021-07-06T16:52:41.792Z</time>
      </trkpt>
      <trkpt lat="47.56025" lon="7.65085">
        <ele>416.398577</ele>
        <time>2021-07-06T16:52:48.765Z</time>
      </trkpt>
      <trkpt lat="47.56034" lon="7.6509">
        <ele>417.506772</ele>
        <time>2021-07-06T16:52:55.957Z</time>
      </trkpt>
      <trkpt lat="47.56058" lon="7.6515">
        <ele>423.086759</ele>
        <time>2021-07-06T16:53:21.372Z</time>
      </trkpt>
      <trkpt lat="47.56057" lon="7.65181">
        <ele>425.589752</ele>
        <time>2021-07-06T16:53:32.407Z</time>
      </trkpt>
      <trkpt lat="47.56071" lon="7.65296">
        <ele>435.769061</ele>
        <time>2021-07-06T16:54:20.133Z</time>
      </trkpt>
      <trkpt lat="47.56088" lon="7.65361">
        <ele>441.904445</ele>
        <time>2021-07-06T16:54:48.536Z</time>
      </trkpt>
      <trkpt lat="47.56089" lon="7.65405">
        <ele>445.756772</ele>
        <time>2021-07-06T16:55:05.576Z</time>
      </trkpt>
      <trkpt lat="47.56091" lon="7.65418">
        <ele>446.941553</ele>
        <time>2021-07-06T16:55:12.171Z</time>
      </trkpt>
      <trkpt lat="47.56092" lon="7.6543">
        <ele>447.973154</ele>
        <time>2021-07-06T16:55:16.694Z</time>
      </trkpt>
      <trkpt lat="47.5612" lon="7.65462">
        <ele>451.891964</ele>
        <time>2021-07-06T16:55:40.962Z</time>
      </trkpt>
      <trkpt lat="47.56125" lon="7.65484">
        <ele>453.535635</ele>
        <time>2021-07-06T16:55:50.807Z</time>
      </trkpt>
      <trkpt lat="47.56124" lon="7.65524">
        <ele>456.436882</ele>
        <time>2021-07-06T16:56:09.997Z</time>
      </trkpt>
      <trkpt lat="47.56128" lon="7.65541">
        <ele>457.747719</ele>
        <time>2021-07-06T16:56:17.608Z</time>
      </trkpt>
      <trkpt lat="47.56209" lon="7.65688">
        <ele>469.59882</ele>
        <time>2021-07-06T16:57:34.316Z</time>
      </trkpt>
      <trkpt lat="47.56214" lon="7.65704">
        <ele>470.121726</ele>
        <time>2021-07-06T16:57:39.808Z</time>
      </trkpt>
      <trkpt lat="47.56211" lon="7.65782">
        <ele>472.531286</ele>
        <time>2021-07-06T16:58:04.299Z</time>
      </trkpt>
      <trkpt lat="47.56214" lon="7.65801">
        <ele>473.162221</ele>
        <time>2021-07-06T16:58:10.299Z</time>
      </trkpt>
      <trkpt lat="47.56258" lon="7.65869">
        <ele>476.072214</ele>
        <time>2021-07-06T16:58:37.586Z</time>
      </trkpt>
      <trkpt lat="47.5627" lon="7.65917">
        <ele>476.200925</ele>
        <time>2021-07-06T16:58:51.665Z</time>
      </trkpt>
      <trkpt lat="47.56277" lon="7.6593">
        <ele>476.085598</ele>
        <time>2021-07-06T16:58:55.779Z</time>
      </trkpt>
      <trkpt lat="47.56295" lon="7.65944">
        <ele>475.861064</ele>
        <time>2021-07-06T16:59:04.024Z</time>
      </trkpt>
      <trkpt lat="47.56366" lon="7.66059">
        <ele>474.733456</ele>
        <time>2021-07-06T16:59:43.028Z</time>
      </trkpt>
      <trkpt lat="47.56375" lon="7.66084">
        <ele>474.445702</ele>
        <time>2021-07-06T16:59:49.699Z</time>
      </trkpt>
      <trkpt lat="47.56428" lon="7.66182">
        <ele>468.845814</ele>
        <time>2021-07-06T17:00:18.954Z</time>
      </trkpt>
      <trkpt lat="47.56461" lon="7.66276">
        <ele>464.175617</ele>
        <time>2021-07-06T17:00:42.077Z</time>
      </trkpt>
      <trkpt lat="47.5647" lon="7.66329">
        <ele>461.393564</ele>
        <time>2021-07-06T17:00:53.635Z</time>
      </trkpt>
      <trkpt lat="47.56478" lon="7.66357">
        <ele>459.533556</ele>
        <time>2021-07-06T17:00:59.920Z</time>
      </trkpt>
      <trkpt lat="47.56511" lon="7.66416">
        <ele>454.930048</ele>
        <time>2021-07-06T17:01:15.738Z</time>
      </trkpt>
      <trkpt lat="47.56533" lon="7.66445">
        <ele>452.257083</ele>
        <time>2021-07-06T17:01:25.150Z</time>
      </trkpt>
      <trkpt lat="47.56534" lon="7.66451">
        <ele>451.895703</ele>
        <time>2021-07-06T17:01:26.402Z</time>
      </trkpt>
      <trkpt lat="47.56517" lon="7.66515">
        <ele>447.76836</ele>
        <time>2021-07-06T17:01:39.017Z</time>
      </trkpt>
      <trkpt lat="47.56509" lon="7.66553">
        <ele>446.276339</ele>
        <time>2021-07-06T17:01:46.468Z</time>
      </trkpt>
      <trkpt lat="47.56509" lon="7.6656">
        <ele>446.143031</ele>
        <time>2021-07-06T17:01:48.005Z</time>
      </trkpt>
      <trkpt lat="47.56509" lon="7.66567">
        <ele>446.015432</ele>
        <time>2021-07-06T17:01:49.485Z</time>
      </trkpt>
      <trkpt lat="47.5651" lon="7.66574">
        <ele>445.898612</ele>
        <time>2021-07-06T17:01:50.796Z</time>
      </trkpt>
      <trkpt lat="47.5652" lon="7.66598">
        <ele>445.395406</ele>
        <time>2021-07-06T17:01:56.460Z</time>
      </trkpt>
      <trkpt lat="47.56526" lon="7.66618">
        <ele>445.006485</ele>
        <time>2021-07-06T17:02:00.940Z</time>
      </trkpt>
      <trkpt lat="47.56553" lon="7.66688">
        <ele>443.578113</ele>
        <time>2021-07-06T17:02:17.346Z</time>
      </trkpt>
      <trkpt lat="47.56564" lon="7.66802">
        <ele>442.101838</ele>
        <time>2021-07-06T17:02:43.453Z</time>
      </trkpt>
      <trkpt lat="47.56596" lon="7.66874">
        <ele>442.75603</ele>
        <time>2021-07-06T17:03:05.088Z</time>
      </trkpt>
      <trkpt lat="47.56607" lon="7.66916">
        <ele>443.093604</ele>
        <time>2021-07-06T17:03:15.932Z</time>
      </trkpt>
      <trkpt lat="47.56609" lon="7.66934">
        <ele>443.228783</ele>
        <time>2021-07-06T17:03:20.069Z</time>
      </trkpt>
      <trkpt lat="47.56654" lon="7.66891">
        <ele>443.824593</ele>
        <time>2021-07-06T17:03:41.492Z</time>
      </trkpt>
      <trkpt lat="47.56674" lon="7.66843">
        <ele>442.677943</ele>
        <time>2021-07-06T17:03:56.107Z</time>
      </trkpt>
      <trkpt lat="47.56811" lon="7.66922">
        <ele>436.085414</ele>
        <time>2021-07-06T17:04:46.258Z</time>
      </trkpt>
      <trkpt lat="47.56889" lon="7.66989">
        <ele>431.606778</ele>
        <time>2021-07-06T17:05:15.019Z</time>
      </trkpt>
      <trkpt lat="47.56909" lon="7.67006">
        <ele>430.467951</ele>
        <time>2021-07-06T17:05:21.539Z</time>
      </trkpt>
      <trkpt lat="47.5692" lon="7.67002">
        <ele>429.915314</ele>
        <time>2021-07-06T17:05:24.564Z</time>
      </trkpt>
      <trkpt lat="47.56939" lon="7.66978">
        <ele>428.631939</ele>
        <time>2021-07-06T17:05:32.132Z</time>
      </trkpt>
      <trkpt lat="47.56947" lon="7.66973">
        <ele>428.240003</ele>
        <time>2021-07-06T17:05:34.207Z</time>
      </trkpt>
      <trkpt lat="47.56939" lon="7.66989">
        <ele>427.57341</ele>
        <time>2021-07-06T17:05:38.382Z</time>
      </trkpt>
      <trkpt lat="47.5697" lon="7.67023">
        <ele>429.220951</ele>
        <time>2021-07-06T17:05:54.380Z</time>
      </trkpt>
      <trkpt lat="47.56967" lon="7.67031">
        <ele>429.784411</ele>
        <time>2021-07-06T17:05:58.538Z</time>
      </trkpt>
      <trkpt lat="47.56969" lon="7.67034">
        <ele>430.081629</ele>
        <time>2021-07-06T17:06:00.810Z</time>
      </trkpt>
      <trkpt lat="47.56962" lon="7.67044">
        <ele>430.983148</ele>
        <time>2021-07-06T17:06:03.777Z</time>
      </trkpt>
      <trkpt lat="47.56967" lon="7.67049">
        <ele>431.505285</ele>
        <time>2021-07-06T17:06:06.225Z</time>
      </trkpt>
      <trkpt lat="47.56975" lon="7.67048">
        <ele>432.28183</ele>
        <time>2021-07-06T17:06:09.334Z</time>
      </trkpt>
      <trkpt lat="47.57017" lon="7.67004">
        <ele>437.068144</ele>
        <time>2021-07-06T17:06:38.121Z</time>
      </trkpt>
      <trkpt lat="47.57034" lon="7.66984">
        <ele>439.165007</ele>
        <time>2021-07-06T17:06:49.728Z</time>
      </trkpt>
      <trkpt lat="47.57041" lon="7.66994">
        <ele>440.068964</ele>
        <time>2021-07-06T17:06:59.887Z</time>
      </trkpt>
      <trkpt lat="47.57036" lon="7.671">
        <ele>448.602026</ele>
        <time>2021-07-06T17:07:54.656Z</time>
      </trkpt>
      <trkpt lat="47.57048" lon="7.67192">
        <ele>457.987331</ele>
        <time>2021-07-06T17:08:42.495Z</time>
      </trkpt>
      <trkpt lat="47.57066" lon="7.67223">
        <ele>462.092783</ele>
        <time>2021-07-06T17:09:01.545Z</time>
      </trkpt>
      <trkpt lat="47.57128" lon="7.67307">
        <ele>473.371907</ele>
        <time>2021-07-06T17:09:52.013Z</time>
      </trkpt>
      <trkpt lat="47.57162" lon="7.67341">
        <ele>477.72466</ele>
        <time>2021-07-06T17:10:15.361Z</time>
      </trkpt>
      <trkpt lat="47.57197" lon="7.67391">
        <ele>482.85714</ele>
        <time>2021-07-06T17:10:40.374Z</time>
      </trkpt>
      <trkpt lat="47.57207" lon="7.67417">
        <ele>485.017419</ele>
        <time>2021-07-06T17:10:51.018Z</time>
      </trkpt>
      <trkpt lat="47.57236" lon="7.67494">
        <ele>490.679157</ele>
        <time>2021-07-06T17:11:19.228Z</time>
      </trkpt>
      <trkpt lat="47.57271" lon="7.67566">
        <ele>494.83158</ele>
        <time>2021-07-06T17:11:46.741Z</time>
      </trkpt>
      <trkpt lat="47.5727" lon="7.67622">
        <ele>497.460773</ele>
        <time>2021-07-06T17:12:03.885Z</time>
      </trkpt>
      <trkpt lat="47.57276" lon="7.6768">
        <ele>500.208358</ele>
        <time>2021-07-06T17:12:20.570Z</time>
      </trkpt>
      <trkpt lat="47.57291" lon="7.67737">
        <ele>502.503187</ele>
        <time>2021-07-06T17:12:37.026Z</time>
      </trkpt>
      <trkpt lat="47.57305" lon="7.67815">
        <ele>504.312924</ele>
        <time>2021-07-06T17:12:58.392Z</time>
      </trkpt>
      <trkpt lat="47.57308" lon="7.67876">
        <ele>505.674235</ele>
        <time>2021-07-06T17:13:13.508Z</time>
      </trkpt>
      <trkpt lat="47.57311" lon="7.67901">
        <ele>506.229163</ele>
        <time>2021-07-06T17:13:19.511Z</time>
      </trkpt>
      <trkpt lat="47.57283" lon="7.67942">
        <ele>507.533214</ele>
        <time>2021-07-06T17:13:33.182Z</time>
      </trkpt>
      <trkpt lat="47.57289" lon="7.67946">
        <ele>507.748852</ele>
        <time>2021-07-06T17:13:35.709Z</time>
      </trkpt>
      <trkpt lat="47.573" lon="7.67954">
        <ele>508.014323</ele>
        <time>2021-07-06T17:13:39.847Z</time>
      </trkpt>
      <trkpt lat="47.5731" lon="7.67986">
        <ele>508.3007</ele>
        <time>2021-07-06T17:13:48.455Z</time>
      </trkpt>
      <trkpt lat="47.57312" lon="7.67988">
        <ele>508.331494</ele>
        <time>2021-07-06T17:13:49.693Z</time>
      </trkpt>
      <trkpt lat="47.57313" lon="7.68">
        <ele>508.426163</ele>
        <time>2021-07-06T17:13:52.143Z</time>
      </trkpt>
      <trkpt lat="47.57313" lon="7.68002">
        <ele>508.44675</ele>
        <time>2021-07-06T17:13:52.693Z</time>
      </trkpt>
      <trkpt lat="47.57306" lon="7.68002">
        <ele>508.534207</ele>
        <time>2021-07-06T17:13:55.248Z</time>
      </trkpt>
      <trkpt lat="47.57303" lon="7.68002">
        <ele>508.563343</ele>
        <time>2021-07-06T17:13:56.134Z</time>
      </trkpt>
      <trkpt lat="47.57306" lon="7.68002">
        <ele>508.592478</ele>
        <time>2021-07-06T17:13:57.023Z</time>
      </trkpt>
      <trkpt lat="47.57313" lon="7.68002">
        <ele>508.679935</ele>
        <time>2021-07-06T17:13:59.704Z</time>
      </trkpt>
      <trkpt lat="47.57313" lon="7.68">
        <ele>508.700522</ele>
        <time>2021-07-06T17:14:00.393Z</time>
      </trkpt>
      <trkpt lat="47.57312" lon="7.67988">
        <ele>508.795191</ele>
        <time>2021-07-06T17:14:03.441Z</time>
      </trkpt>
      <trkpt lat="47.5731" lon="7.67986">
        <ele>508.825985</ele>
        <time>2021-07-06T17:14:04.159Z</time>
      </trkpt>
      <trkpt lat="47.573" lon="7.67954">
        <ele>509.112362</ele>
        <time>2021-07-06T17:14:12.322Z</time>
      </trkpt>
      <trkpt lat="47.57289" lon="7.67946">
        <ele>509.26455</ele>
        <time>2021-07-06T17:14:16.671Z</time>
      </trkpt>
      <trkpt lat="47.57283" lon="7.67942">
        <ele>509.343531</ele>
        <time>2021-07-06T17:14:18.675Z</time>
      </trkpt>
      <trkpt lat="47.57311" lon="7.67901">
        <ele>509.821165</ele>
        <time>2021-07-06T17:14:32.131Z</time>
      </trkpt>
      <trkpt lat="47.57317" lon="7.67912">
        <ele>509.939156</ele>
        <time>2021-07-06T17:14:35.595Z</time>
      </trkpt>
      <trkpt lat="47.57333" lon="7.67928">
        <ele>510.034997</ele>
        <time>2021-07-06T17:14:41.942Z</time>
      </trkpt>
      <trkpt lat="47.57338" lon="7.67933">
        <ele>509.962674</ele>
        <time>2021-07-06T17:14:43.732Z</time>
      </trkpt>
      <trkpt lat="47.57348" lon="7.67943">
        <ele>509.804207</ele>
        <time>2021-07-06T17:14:47.969Z</time>
      </trkpt>
      <trkpt lat="47.57351" lon="7.67947">
        <ele>509.750116</ele>
        <time>2021-07-06T17:14:49.380Z</time>
      </trkpt>
      <trkpt lat="47.57361" lon="7.67955">
        <ele>509.600453</ele>
        <time>2021-07-06T17:14:52.878Z</time>
      </trkpt>
      <trkpt lat="47.57405" lon="7.68023">
        <ele>508.785046</ele>
        <time>2021-07-06T17:15:12.815Z</time>
      </trkpt>
      <trkpt lat="47.57417" lon="7.68082">
        <ele>508.247484</ele>
        <time>2021-07-06T17:15:25.887Z</time>
      </trkpt>
      <trkpt lat="47.57431" lon="7.6812">
        <ele>507.870685</ele>
        <time>2021-07-06T17:15:35.028Z</time>
      </trkpt>
      <trkpt lat="47.57453" lon="7.68159">
        <ele>507.402439</ele>
        <time>2021-07-06T17:15:45.319Z</time>
      </trkpt>
      <trkpt lat="47.57466" lon="7.68169">
        <ele>507.18724</ele>
        <time>2021-07-06T17:15:49.939Z</time>
      </trkpt>
      <trkpt lat="47.57477" lon="7.68172">
        <ele>507.024018</ele>
        <time>2021-07-06T17:15:53.646Z</time>
      </trkpt>
      <trkpt lat="47.57489" lon="7.68173">
        <ele>506.852975</ele>
        <time>2021-07-06T17:15:57.400Z</time>
      </trkpt>
      <trkpt lat="47.57492" lon="7.6818">
        <ele>506.780288</ele>
        <time>2021-07-06T17:15:58.987Z</time>
      </trkpt>
      <trkpt lat="47.57492" lon="7.68208">
        <ele>506.507191</ele>
        <time>2021-07-06T17:16:05.185Z</time>
      </trkpt>
      <trkpt lat="47.57483" lon="7.68242">
        <ele>506.165534</ele>
        <time>2021-07-06T17:16:12.740Z</time>
      </trkpt>
      <trkpt lat="47.57443" lon="7.68321">
        <ele>505.203147</ele>
        <time>2021-07-06T17:16:34.391Z</time>
      </trkpt>
      <trkpt lat="47.57408" lon="7.68328">
        <ele>504.645658</ele>
        <time>2021-07-06T17:16:45.645Z</time>
      </trkpt>
      <trkpt lat="47.57393" lon="7.68323">
        <ele>504.397072</ele>
        <time>2021-07-06T17:16:50.699Z</time>
      </trkpt>
      <trkpt lat="47.57369" lon="7.68339">
        <ele>503.970112</ele>
        <time>2021-07-06T17:16:59.068Z</time>
      </trkpt>
      <trkpt lat="47.57363" lon="7.68358">
        <ele>503.751467</ele>
        <time>2021-07-06T17:17:03.454Z</time>
      </trkpt>
      <trkpt lat="47.57366" lon="7.68403">
        <ele>503.262649</ele>
        <time>2021-07-06T17:17:12.940Z</time>
      </trkpt>
      <trkpt lat="47.57361" lon="7.68434">
        <ele>502.914628</ele>
        <time>2021-07-06T17:17:19.772Z</time>
      </trkpt>
      <trkpt lat="47.57353" lon="7.68457">
        <ele>502.635372</ele>
        <time>2021-07-06T17:17:25.125Z</time>
      </trkpt>
      <trkpt lat="47.57328" lon="7.68516">
        <ele>501.625644</ele>
        <time>2021-07-06T17:17:39.712Z</time>
      </trkpt>
      <trkpt lat="47.5732" lon="7.68534">
        <ele>501.268204</ele>
        <time>2021-07-06T17:17:44.645Z</time>
      </trkpt>
      <trkpt lat="47.57305" lon="7.68571">
        <ele>500.561646</ele>
        <time>2021-07-06T17:17:54.937Z</time>
      </trkpt>
      <trkpt lat="47.57286" lon="7.68664">
        <ele>498.943996</ele>
        <time>2021-07-06T17:18:18.521Z</time>
      </trkpt>
      <trkpt lat="47.57267" lon="7.68703">
        <ele>498.151693</ele>
        <time>2021-07-06T17:18:30.618Z</time>
      </trkpt>
      <trkpt lat="47.57267" lon="7.68716">
        <ele>497.926139</ele>
        <time>2021-07-06T17:18:33.871Z</time>
      </trkpt>
      <trkpt lat="47.57248" lon="7.68771">
        <ele>497.668129</ele>
        <time>2021-07-06T17:18:49.621Z</time>
      </trkpt>
      <trkpt lat="47.57244" lon="7.68797">
        <ele>497.556488</ele>
        <time>2021-07-06T17:18:57.082Z</time>
      </trkpt>
      <trkpt lat="47.57246" lon="7.68834">
        <ele>497.403335</ele>
        <time>2021-07-06T17:19:06.715Z</time>
      </trkpt>
      <trkpt lat="47.57238" lon="7.68877">
        <ele>497.216546</ele>
        <time>2021-07-06T17:19:18.333Z</time>
      </trkpt>
      <trkpt lat="47.57228" lon="7.689">
        <ele>497.103252</ele>
        <time>2021-07-06T17:19:25.600Z</time>
      </trkpt>
      <trkpt lat="47.5721" lon="7.68916">
        <ele>496.975172</ele>
        <time>2021-07-06T17:19:33.484Z</time>
      </trkpt>
      <trkpt lat="47.57148" lon="7.68961">
        <ele>495.354902</ele>
        <time>2021-07-06T17:19:58.677Z</time>
      </trkpt>
      <trkpt lat="47.57136" lon="7.68963">
        <ele>494.939413</ele>
        <time>2021-07-06T17:20:03.141Z</time>
      </trkpt>
      <trkpt lat="47.57125" lon="7.68957">
        <ele>494.533247</ele>
        <time>2021-07-06T17:20:07.286Z</time>
      </trkpt>
      <trkpt lat="47.57073" lon="7.6892">
        <ele>492.512554</ele>
        <time>2021-07-06T17:20:27.962Z</time>
      </trkpt>
      <trkpt lat="47.57061" lon="7.6891">
        <ele>492.045726</ele>
        <time>2021-07-06T17:20:32.460Z</time>
      </trkpt>
      <trkpt lat="47.57058" lon="7.68919">
        <ele>491.802686</ele>
        <time>2021-07-06T17:20:35.020Z</time>
      </trkpt>
      <trkpt lat="47.57049" lon="7.68915">
        <ele>491.462038</ele>
        <time>2021-07-06T17:20:37.798Z</time>
      </trkpt>
      <trkpt lat="47.56984" lon="7.68904">
        <ele>489.454452</ele>
        <time>2021-07-06T17:20:56.702Z</time>
      </trkpt>
      <trkpt lat="47.56928" lon="7.68861">
        <ele>487.658085</ele>
        <time>2021-07-06T17:21:15.550Z</time>
      </trkpt>
      <trkpt lat="47.5688" lon="7.68863">
        <ele>486.288383</ele>
        <time>2021-07-06T17:21:30.834Z</time>
      </trkpt>
      <trkpt lat="47.5687" lon="7.68857">
        <ele>485.990784</ele>
        <time>2021-07-06T17:21:33.947Z</time>
      </trkpt>
      <trkpt lat="47.56874" lon="7.68883">
        <ele>485.491746</ele>
        <time>2021-07-06T17:21:41.491Z</time>
      </trkpt>
      <trkpt lat="47.56873" lon="7.68912">
        <ele>485.400564</ele>
        <time>2021-07-06T17:21:48.875Z</time>
      </trkpt>
      <trkpt lat="47.56864" lon="7.68962">
        <ele>485.249981</ele>
        <time>2021-07-06T17:22:02.458Z</time>
      </trkpt>
      <trkpt lat="47.56867" lon="7.69012">
        <ele>485.104586</ele>
        <time>2021-07-06T17:22:15.526Z</time>
      </trkpt>
      <trkpt lat="47.5687" lon="7.69029">
        <ele>485.05289</ele>
        <time>2021-07-06T17:22:20.743Z</time>
      </trkpt>
      <trkpt lat="47.56856" lon="7.69037">
        <ele>484.985522</ele>
        <time>2021-07-06T17:22:26.679Z</time>
      </trkpt>
      <trkpt lat="47.56818" lon="7.69045">
        <ele>484.819556</ele>
        <time>2021-07-06T17:22:41.246Z</time>
      </trkpt>
      <trkpt lat="47.56805" lon="7.69049">
        <ele>484.764027</ele>
        <time>2021-07-06T17:22:46.162Z</time>
      </trkpt>
      <trkpt lat="47.5681" lon="7.69092">
        <ele>483.766106</ele>
        <time>2021-07-06T17:22:56.815Z</time>
      </trkpt>
      <trkpt lat="47.56746" lon="7.69129">
        <ele>479.751061</ele>
        <time>2021-07-06T17:23:20.793Z</time>
      </trkpt>
      <trkpt lat="47.56672" lon="7.6914">
        <ele>475.362927</ele>
        <time>2021-07-06T17:23:44.887Z</time>
      </trkpt>
      <trkpt lat="47.56614" lon="7.69168">
        <ele>469.837674</ele>
        <time>2021-07-06T17:24:03.880Z</time>
      </trkpt>
      <trkpt lat="47.56509" lon="7.69241">
        <ele>457.491807</ele>
        <time>2021-07-06T17:24:38.936Z</time>
      </trkpt>
      <trkpt lat="47.5647" lon="7.69256">
        <ele>453.283301</ele>
        <time>2021-07-06T17:24:51.275Z</time>
      </trkpt>
      <trkpt lat="47.56365" lon="7.6922">
        <ele>442.778671</ele>
        <time>2021-07-06T17:25:24.356Z</time>
      </trkpt>
      <trkpt lat="47.56294" lon="7.69251">
        <ele>435.948048</ele>
        <time>2021-07-06T17:25:48.163Z</time>
      </trkpt>
      <trkpt lat="47.56076" lon="7.69191">
        <ele>419.294371</ele>
        <time>2021-07-06T17:27:01.050Z</time>
      </trkpt>
      <trkpt lat="47.56045" lon="7.6917">
        <ele>416.456829</ele>
        <time>2021-07-06T17:27:12.071Z</time>
      </trkpt>
      <trkpt lat="47.56026" lon="7.69175">
        <ele>414.850246</ele>
        <time>2021-07-06T17:27:18.230Z</time>
      </trkpt>
      <trkpt lat="47.5599" lon="7.69219">
        <ele>410.960427</ele>
        <time>2021-07-06T17:27:32.965Z</time>
      </trkpt>
      <trkpt lat="47.55964" lon="7.69261">
        <ele>407.123032</ele>
        <time>2021-07-06T17:27:44.809Z</time>
      </trkpt>
      <trkpt lat="47.55945" lon="7.69272">
        <ele>404.730353</ele>
        <time>2021-07-06T17:27:51.049Z</time>
      </trkpt>
      <trkpt lat="47.55886" lon="7.69256">
        <ele>397.672431</ele>
        <time>2021-07-06T17:28:09.282Z</time>
      </trkpt>
      <trkpt lat="47.55767" lon="7.69289">
        <ele>382.320389</ele>
        <time>2021-07-06T17:28:45.679Z</time>
      </trkpt>
      <trkpt lat="47.5569" lon="7.69295">
        <ele>370.919739</ele>
        <time>2021-07-06T17:29:08.963Z</time>
      </trkpt>
      <trkpt lat="47.55629" lon="7.69285">
        <ele>361.942534</ele>
        <time>2021-07-06T17:29:27.219Z</time>
      </trkpt>
      <trkpt lat="47.55601" lon="7.69289">
        <ele>358.123073</ele>
        <time>2021-07-06T17:29:35.646Z</time>
      </trkpt>
      <trkpt lat="47.55569" lon="7.69291">
        <ele>353.694529</ele>
        <time>2021-07-06T17:29:45.492Z</time>
      </trkpt>
      <trkpt lat="47.55533" lon="7.69283">
        <ele>348.847226</ele>
        <time>2021-07-06T17:29:56.253Z</time>
      </trkpt>
      <trkpt lat="47.55513" lon="7.69267">
        <ele>345.711737</ele>
        <time>2021-07-06T17:30:03.230Z</time>
      </trkpt>
      <trkpt lat="47.55508" lon="7.69294">
        <ele>343.145909</ele>
        <time>2021-07-06T17:30:08.984Z</time>
      </trkpt>
      <trkpt lat="47.55507" lon="7.69327">
        <ele>340.157501</ele>
        <time>2021-07-06T17:30:15.692Z</time>
      </trkpt>
      <trkpt lat="47.55483" lon="7.69341">
        <ele>336.984882</ele>
        <time>2021-07-06T17:30:23.539Z</time>
      </trkpt>
      <trkpt lat="47.55455" lon="7.69341">
        <ele>334.653032</ele>
        <time>2021-07-06T17:30:32.561Z</time>
      </trkpt>
      <trkpt lat="47.55456" lon="7.69353">
        <ele>333.979923</ele>
        <time>2021-07-06T17:30:35.036Z</time>
      </trkpt>
      <trkpt lat="47.55471" lon="7.69384">
        <ele>331.864156</ele>
        <time>2021-07-06T17:30:43.362Z</time>
      </trkpt>
      <trkpt lat="47.55474" lon="7.69397">
        <ele>331.11273</ele>
        <time>2021-07-06T17:30:46.155Z</time>
      </trkpt>
      <trkpt lat="47.55471" lon="7.69402">
        <ele>330.744497</ele>
        <time>2021-07-06T17:30:47.509Z</time>
      </trkpt>
      <trkpt lat="47.55441" lon="7.69352">
        <ele>327.051653</ele>
        <time>2021-07-06T17:31:02.658Z</time>
      </trkpt>
      <trkpt lat="47.5543" lon="7.69336">
        <ele>325.792878</ele>
        <time>2021-07-06T17:31:08.195Z</time>
      </trkpt>
      <trkpt lat="47.55426" lon="7.6932">
        <ele>324.88689</ele>
        <time>2021-07-06T17:31:11.672Z</time>
      </trkpt>
      <trkpt lat="47.5543" lon="7.69286">
        <ele>322.978507</ele>
        <time>2021-07-06T17:31:19.862Z</time>
      </trkpt>
      <trkpt lat="47.5541" lon="7.69237">
        <ele>319.682822</ele>
        <time>2021-07-06T17:31:32.364Z</time>
      </trkpt>
      <trkpt lat="47.55401" lon="7.69236">
        <ele>318.854204</ele>
        <time>2021-07-06T17:31:35.402Z</time>
      </trkpt>
      <trkpt lat="47.5539" lon="7.69259">
        <ele>317.292894</ele>
        <time>2021-07-06T17:31:41.036Z</time>
      </trkpt>
      <trkpt lat="47.55385" lon="7.69251">
        <ele>316.642265</ele>
        <time>2021-07-06T17:31:43.699Z</time>
      </trkpt>
      <trkpt lat="47.55373" lon="7.69261">
        <ele>315.518499</ele>
        <time>2021-07-06T17:31:47.826Z</time>
      </trkpt>
      <trkpt lat="47.55371" lon="7.69264">
        <ele>315.25418</ele>
        <time>2021-07-06T17:31:48.751Z</time>
      </trkpt>
      <trkpt lat="47.55372" lon="7.69273">
        <ele>314.714428</ele>
        <time>2021-07-06T17:31:50.525Z</time>
      </trkpt>
      <trkpt lat="47.55362" lon="7.69289">
        <ele>313.47091</ele>
        <time>2021-07-06T17:31:55.097Z</time>
      </trkpt>
      <trkpt lat="47.55344" lon="7.69269">
        <ele>311.564367</ele>
        <time>2021-07-06T17:32:00.928Z</time>
      </trkpt>
      <trkpt lat="47.55318" lon="7.69257">
        <ele>309.216886</ele>
        <time>2021-07-06T17:32:08.311Z</time>
      </trkpt>
      <trkpt lat="47.5531" lon="7.69258">
        <ele>308.569313</ele>
        <time>2021-07-06T17:32:10.289Z</time>
      </trkpt>
      <trkpt lat="47.55306" lon="7.69257">
        <ele>308.199183</ele>
        <time>2021-07-06T17:32:11.370Z</time>
      </trkpt>
      <trkpt lat="47.5522" lon="7.6924">
        <ele>301.853345</ele>
        <time>2021-07-06T17:32:35.563Z</time>
      </trkpt>
      <trkpt lat="47.552" lon="7.69229">
        <ele>300.335973</ele>
        <time>2021-07-06T17:32:41.257Z</time>
      </trkpt>
      <trkpt lat="47.55162" lon="7.69209">
        <ele>297.480292</ele>
        <time>2021-07-06T17:32:52.633Z</time>
      </trkpt>
      <trkpt lat="47.55147" lon="7.69272">
        <ele>294.353405</ele>
        <time>2021-07-06T17:33:05.612Z</time>
      </trkpt>
      <trkpt lat="47.55141" lon="7.69285">
        <ele>293.767126</ele>
        <time>2021-07-06T17:33:08.889Z</time>
      </trkpt>
      <trkpt lat="47.55076" lon="7.69345">
        <ele>289.735309</ele>
        <time>2021-07-06T17:33:31.108Z</time>
      </trkpt>
      <trkpt lat="47.55042" lon="7.69302">
        <ele>287.368864</ele>
        <time>2021-07-06T17:33:44.410Z</time>
      </trkpt>
      <trkpt lat="47.54985" lon="7.69376">
        <ele>283.643697</ele>
        <time>2021-07-06T17:34:05.997Z</time>
      </trkpt>
      <trkpt lat="47.54976" lon="7.69379">
        <ele>283.195204</ele>
        <time>2021-07-06T17:34:08.841Z</time>
      </trkpt>
      <trkpt lat="47.54897" lon="7.693">
        <ele>278.888151</ele>
        <time>2021-07-06T17:34:36.210Z</time>
      </trkpt>
      <trkpt lat="47.54878" lon="7.69347">
        <ele>277.216435</ele>
        <time>2021-07-06T17:34:47.489Z</time>
      </trkpt>
      <trkpt lat="47.54864" lon="7.69404">
        <ele>276.349563</ele>
        <time>2021-07-06T17:35:00.332Z</time>
      </trkpt>
      <trkpt lat="47.54859" lon="7.69432">
        <ele>276.02607</ele>
        <time>2021-07-06T17:35:06.496Z</time>
      </trkpt>
      <trkpt lat="47.54845" lon="7.69515">
        <ele>275.077063</ele>
        <time>2021-07-06T17:35:24.449Z</time>
      </trkpt>
      <trkpt lat="47.54843" lon="7.69543">
        <ele>274.75039</ele>
        <time>2021-07-06T17:35:30.853Z</time>
      </trkpt>
      <trkpt lat="47.54832" lon="7.69542">
        <ele>274.578678</ele>
        <time>2021-07-06T17:35:34.063Z</time>
      </trkpt>
      <trkpt lat="47.54817" lon="7.69555">
        <ele>274.284998</ele>
        <time>2021-07-06T17:35:39.778Z</time>
      </trkpt>
      <trkpt lat="47.54794" lon="7.69559">
        <ele>273.916911</ele>
        <time>2021-07-06T17:35:47.203Z</time>
      </trkpt>
      <trkpt lat="47.54786" lon="7.69556">
        <ele>273.827958</ele>
        <time>2021-07-06T17:35:49.921Z</time>
      </trkpt>
      <trkpt lat="47.54775" lon="7.69532">
        <ele>273.624474</ele>
        <time>2021-07-06T17:35:56.065Z</time>
      </trkpt>
      <trkpt lat="47.54762" lon="7.69528">
        <ele>273.488668</ele>
        <time>2021-07-06T17:36:00.114Z</time>
      </trkpt>
      <trkpt lat="47.54745" lon="7.69611">
        <ele>272.866252</ele>
        <time>2021-07-06T17:36:18.702Z</time>
      </trkpt>
      <trkpt lat="47.54767" lon="7.69626">
        <ele>272.608049</ele>
        <time>2021-07-06T17:36:26.359Z</time>
      </trkpt>
      <trkpt lat="47.54773" lon="7.69638">
        <ele>272.497645</ele>
        <time>2021-07-06T17:36:29.661Z</time>
      </trkpt>
      <trkpt lat="47.54772" lon="7.69662">
        <ele>272.329596</ele>
        <time>2021-07-06T17:36:34.657Z</time>
      </trkpt>
      <trkpt lat="47.54759" lon="7.69709">
        <ele>271.992131</ele>
        <time>2021-07-06T17:36:45.510Z</time>
      </trkpt>
      <trkpt lat="47.54739" lon="7.69793">
        <ele>271.586168</ele>
        <time>2021-07-06T17:37:04.875Z</time>
      </trkpt>
      <trkpt lat="47.54643" lon="7.69742">
        <ele>270.899317</ele>
        <time>2021-07-06T17:37:37.752Z</time>
      </trkpt>
      <trkpt lat="47.54632" lon="7.69785">
        <ele>270.748464</ele>
        <time>2021-07-06T17:37:49.544Z</time>
      </trkpt>
      <trkpt lat="47.54613" lon="7.69904">
        <ele>270.438157</ele>
        <time>2021-07-06T17:38:21.030Z</time>
      </trkpt>
      <trkpt lat="47.5459" lon="7.70123">
        <ele>269.972879</ele>
        <time>2021-07-06T17:39:18.577Z</time>
      </trkpt>
      <trkpt lat="47.54581" lon="7.70129">
        <ele>269.948198</ele>
        <time>2021-07-06T17:39:22.499Z</time>
      </trkpt>
      <trkpt lat="47.54502" lon="7.7009">
        <ele>269.748127</ele>
        <time>2021-07-06T17:39:54.231Z</time>
      </trkpt>
      <trkpt lat="47.54497" lon="7.70134">
        <ele>269.642061</ele>
        <time>2021-07-06T17:40:04.106Z</time>
      </trkpt>
      <trkpt lat="47.54463" lon="7.70367">
        <ele>268.92964</ele>
        <time>2021-07-06T17:40:56.195Z</time>
      </trkpt>
      <trkpt lat="47.5446" lon="7.70403">
        <ele>268.859217</ele>
        <time>2021-07-06T17:41:04.115Z</time>
      </trkpt>
      <trkpt lat="47.54477" lon="7.70409">
        <ele>268.812388</ele>
        <time>2021-07-06T17:41:09.745Z</time>
      </trkpt>
      <trkpt lat="47.54506" lon="7.70428">
        <ele>268.728315</ele>
        <time>2021-07-06T17:41:19.926Z</time>
      </trkpt>
      <trkpt lat="47.54506" lon="7.70434">
        <ele>268.718258</ele>
        <time>2021-07-06T17:41:21.125Z</time>
      </trkpt>
      <trkpt lat="47.54492" lon="7.70432">
        <ele>268.678896</ele>
        <time>2021-07-06T17:41:25.902Z</time>
      </trkpt>
      <trkpt lat="47.54443" lon="7.70432">
        <ele>268.549497</ele>
        <time>2021-07-06T17:41:41.572Z</time>
      </trkpt>
      <trkpt lat="47.54373" lon="7.70443">
        <ele>268.349853</ele>
        <time>2021-07-06T17:42:04.555Z</time>
      </trkpt>
      <trkpt lat="47.54356" lon="7.7045">
        <ele>268.29533</ele>
        <time>2021-07-06T17:42:10.367Z</time>
      </trkpt>
      <trkpt lat="47.54348" lon="7.70454">
        <ele>268.269157</ele>
        <time>2021-07-06T17:42:13.149Z</time>
      </trkpt>
      <trkpt lat="47.54322" lon="7.70473">
        <ele>268.181934</ele>
        <time>2021-07-06T17:42:22.472Z</time>
      </trkpt>
      <trkpt lat="47.54315" lon="7.70476">
        <ele>268.159867</ele>
        <time>2021-07-06T17:42:24.811Z</time>
      </trkpt>
      <trkpt lat="47.54317" lon="7.70486">
        <ele>268.138724</ele>
        <time>2021-07-06T17:42:27.053Z</time>
      </trkpt>
      <trkpt lat="47.54318" lon="7.70499">
        <ele>268.113326</ele>
        <time>2021-07-06T17:42:29.793Z</time>
      </trkpt>
      <trkpt lat="47.54319" lon="7.70511">
        <ele>268.087929</ele>
        <time>2021-07-06T17:42:32.508Z</time>
      </trkpt>
      <trkpt lat="47.54328" lon="7.70589">
        <ele>267.924095</ele>
        <time>2021-07-06T17:42:49.949Z</time>
      </trkpt>
      <trkpt lat="47.54336" lon="7.70666">
        <ele>267.558877</ele>
        <time>2021-07-06T17:43:07.022Z</time>
      </trkpt>
      <trkpt lat="47.54334" lon="7.70737">
        <ele>267.173264</ele>
        <time>2021-07-06T17:43:22.353Z</time>
      </trkpt>
      <trkpt lat="47.54308" lon="7.7091">
        <ele>265.94358</ele>
        <time>2021-07-06T17:44:00.749Z</time>
      </trkpt>
      <trkpt lat="47.54289" lon="7.70963">
        <ele>265.245654</ele>
        <time>2021-07-06T17:44:13.550Z</time>
      </trkpt>
      <trkpt lat="47.5428" lon="7.70976">
        <ele>265.035412</ele>
        <time>2021-07-06T17:44:17.381Z</time>
      </trkpt>
      <trkpt lat="47.54251" lon="7.70976">
        <ele>264.544036</ele>
        <time>2021-07-06T17:44:26.215Z</time>
      </trkpt>
      <trkpt lat="47.54195" lon="7.70972">
        <ele>263.582204</ele>
        <time>2021-07-06T17:44:43.686Z</time>
      </trkpt>
      <trkpt lat="47.54167" lon="7.70961">
        <ele>263.090884</ele>
        <time>2021-07-06T17:44:52.900Z</time>
      </trkpt>
      <trkpt lat="47.54146" lon="7.70948">
        <ele>262.73017</ele>
        <time>2021-07-06T17:44:59.754Z</time>
      </trkpt>
      <trkpt lat="47.54141" lon="7.70956">
        <ele>262.602692</ele>
        <time>2021-07-06T17:45:02.261Z</time>
      </trkpt>
      <trkpt lat="47.54137" lon="7.70965">
        <ele>262.485007</ele>
        <time>2021-07-06T17:45:04.569Z</time>
      </trkpt>
      <trkpt lat="47.54124" lon="7.70967">
        <ele>262.269067</ele>
        <time>2021-07-06T17:45:08.636Z</time>
      </trkpt>
      <trkpt lat="47.5411" lon="7.70997">
        <ele>261.872606</ele>
        <time>2021-07-06T17:45:16.366Z</time>
      </trkpt>
      <trkpt lat="47.54091" lon="7.7099">
        <ele>261.548301</ele>
        <time>2021-07-06T17:45:22.618Z</time>
      </trkpt>
      <trkpt lat="47.5407" lon="7.70978">
        <ele>261.193934</ele>
        <time>2021-07-06T17:45:29.560Z</time>
      </trkpt>
      <trkpt lat="47.54043" lon="7.71017">
        <ele>260.5764</ele>
        <time>2021-07-06T17:45:41.653Z</time>
      </trkpt>
      <trkpt lat="47.54043" lon="7.71028">
        <ele>260.454001</ele>
        <time>2021-07-06T17:45:44.022Z</time>
      </trkpt>
      <trkpt lat="47.54023" lon="7.71017">
        <ele>260.352618</ele>
        <time>2021-07-06T17:45:50.875Z</time>
      </trkpt>
      <trkpt lat="47.53965" lon="7.70959">
        <ele>260.086909</ele>
        <time>2021-07-06T17:46:13.630Z</time>
      </trkpt>
      <trkpt lat="47.53902" lon="7.70856">
        <ele>259.739085</ele>
        <time>2021-07-06T17:46:44.128Z</time>
      </trkpt>
      <trkpt lat="47.53869" lon="7.7077">
        <ele>259.620189</ele>
        <time>2021-07-06T17:47:06.077Z</time>
      </trkpt>
      <trkpt lat="47.53866" lon="7.70748">
        <ele>259.593317</ele>
        <time>2021-07-06T17:47:11.038Z</time>
      </trkpt>
      <trkpt lat="47.5384" lon="7.70679">
        <ele>259.499286</ele>
        <time>2021-07-06T17:47:28.274Z</time>
      </trkpt>
      <trkpt lat="47.53824" lon="7.70691">
        <ele>259.46674</ele>
        <time>2021-07-06T17:47:34.227Z</time>
      </trkpt>
      <trkpt lat="47.53824" lon="7.70691">
        <ele>259.46674</ele>
        <time>2021-07-06T17:47:34.250Z</time>
      </trkpt>
      <trkpt lat="47.53655" lon="7.70833">
        <ele>259.709553</ele>
        <time>2021-07-06T17:48:37.566Z</time>
      </trkpt>
      <trkpt lat="47.53651" lon="7.70838">
        <ele>259.718915</ele>
        <time>2021-07-06T17:48:39.534Z</time>
      </trkpt>
      <trkpt lat="47.53624" lon="7.7086">
        <ele>260.281188</ele>
        <time>2021-07-06T17:48:49.694Z</time>
      </trkpt>
      <trkpt lat="47.53687" lon="7.71025">
        <ele>262.905193</ele>
        <time>2021-07-06T17:49:35.664Z</time>
      </trkpt>
      <trkpt lat="47.53665" lon="7.71043">
        <ele>263.405013</ele>
        <time>2021-07-06T17:49:44.487Z</time>
      </trkpt>
      <trkpt lat="47.5365" lon="7.71056">
        <ele>263.742085</ele>
        <time>2021-07-06T17:49:50.791Z</time>
      </trkpt>
      <trkpt lat="47.53643" lon="7.71063">
        <ele>263.904913</ele>
        <time>2021-07-06T17:49:53.862Z</time>
      </trkpt>
      <trkpt lat="47.5367" lon="7.71123">
        <ele>264.846225</ele>
        <time>2021-07-06T17:50:14.356Z</time>
      </trkpt>
      <trkpt lat="47.53681" lon="7.71139">
        <ele>265.138327</ele>
        <time>2021-07-06T17:50:20.767Z</time>
      </trkpt>
      <trkpt lat="47.537" lon="7.71178">
        <ele>265.762779</ele>
        <time>2021-07-06T17:50:34.271Z</time>
      </trkpt>
      <trkpt lat="47.53708" lon="7.71203">
        <ele>266.117894</ele>
        <time>2021-07-06T17:50:41.959Z</time>
      </trkpt>
      <trkpt lat="47.53691" lon="7.71217">
        <ele>266.478059</ele>
        <time>2021-07-06T17:50:49.620Z</time>
      </trkpt>
      <trkpt lat="47.53694" lon="7.71226">
        <ele>266.609955</ele>
        <time>2021-07-06T17:50:51.966Z</time>
      </trkpt>
      <trkpt lat="47.53697" lon="7.71261">
        <ele>266.951983</ele>
        <time>2021-07-06T17:51:00.040Z</time>
      </trkpt>
      <trkpt lat="47.53691" lon="7.71257">
        <ele>266.992362</ele>
        <time>2021-07-06T17:51:02.045Z</time>
      </trkpt>
      <trkpt lat="47.53692" lon="7.71264">
        <ele>267.022166</ele>
        <time>2021-07-06T17:51:03.520Z</time>
      </trkpt>
      <trkpt lat="47.53692" lon="7.71269">
        <ele>267.04487</ele>
        <time>2021-07-06T17:51:04.684Z</time>
      </trkpt>
      <trkpt lat="47.53684" lon="7.71271">
        <ele>267.096328</ele>
        <time>2021-07-06T17:51:07.247Z</time>
      </trkpt>
      <trkpt lat="47.53687" lon="7.71282">
        <ele>267.146142</ele>
        <time>2021-07-06T17:51:10.217Z</time>
      </trkpt>
      <trkpt lat="47.53709" lon="7.71364">
        <ele>267.541973</ele>
        <time>2021-07-06T17:51:33.697Z</time>
      </trkpt>
      <trkpt lat="47.53704" lon="7.71383">
        <ele>267.632212</ele>
        <time>2021-07-06T17:51:39.076Z</time>
      </trkpt>
      <trkpt lat="47.53697" lon="7.71387">
        <ele>267.680857</ele>
        <time>2021-07-06T17:51:42.034Z</time>
      </trkpt>
      <trkpt lat="47.53697" lon="7.71394">
        <ele>267.715307</ele>
        <time>2021-07-06T17:51:44.026Z</time>
      </trkpt>
      <trkpt lat="47.53698" lon="7.71404">
        <ele>267.759279</ele>
        <time>2021-07-06T17:51:46.637Z</time>
      </trkpt>
      <trkpt lat="47.53696" lon="7.7142">
        <ele>267.832917</ele>
        <time>2021-07-06T17:51:50.957Z</time>
      </trkpt>
      <trkpt lat="47.5365" lon="7.7145">
        <ele>268.11929</ele>
        <time>2021-07-06T17:52:07.760Z</time>
      </trkpt>
      <trkpt lat="47.53569" lon="7.71495">
        <ele>268.393277</ele>
        <time>2021-07-06T17:52:36.604Z</time>
      </trkpt>
      <trkpt lat="47.53567" lon="7.71487">
        <ele>268.411337</ele>
        <time>2021-07-06T17:52:38.480Z</time>
      </trkpt>
      <trkpt lat="47.53533" lon="7.71497">
        <ele>268.520142</ele>
        <time>2021-07-06T17:52:49.993Z</time>
      </trkpt>
      <trkpt lat="47.53527" lon="7.71492">
        <ele>268.543052</ele>
        <time>2021-07-06T17:52:52.456Z</time>
      </trkpt>
      <trkpt lat="47.53525" lon="7.71534">
        <ele>268.630918</ele>
        <time>2021-07-06T17:53:01.560Z</time>
      </trkpt>
      <trkpt lat="47.53531" lon="7.71613">
        <ele>268.206603</ele>
        <time>2021-07-06T17:53:19.151Z</time>
      </trkpt>
      <trkpt lat="47.53516" lon="7.71619">
        <ele>268.068518</ele>
        <time>2021-07-06T17:53:24.089Z</time>
      </trkpt>
      <trkpt lat="47.53508" lon="7.71624">
        <ele>267.990642</ele>
        <time>2021-07-06T17:53:26.883Z</time>
      </trkpt>
      <trkpt lat="47.53501" lon="7.71607">
        <ele>267.868255</ele>
        <time>2021-07-06T17:53:31.207Z</time>
      </trkpt>
      <trkpt lat="47.53486" lon="7.7157">
        <ele>267.610045</ele>
        <time>2021-07-06T17:53:40.421Z</time>
      </trkpt>
      <trkpt lat="47.53476" lon="7.71581">
        <ele>267.498844</ele>
        <time>2021-07-06T17:53:44.328Z</time>
      </trkpt>
      <trkpt lat="47.53447" lon="7.71537">
        <ele>267.125988</ele>
        <time>2021-07-06T17:53:57.586Z</time>
      </trkpt>
      <trkpt lat="47.53435" lon="7.71521">
        <ele>266.993524</ele>
        <time>2021-07-06T17:54:02.656Z</time>
      </trkpt>
      <trkpt lat="47.53413" lon="7.7155">
        <ele>266.780773</ele>
        <time>2021-07-06T17:54:11.933Z</time>
      </trkpt>
      <trkpt lat="47.53404" lon="7.71558">
        <ele>266.701344</ele>
        <time>2021-07-06T17:54:15.364Z</time>
      </trkpt>
      <trkpt lat="47.53383" lon="7.71573">
        <ele>266.536163</ele>
        <time>2021-07-06T17:54:22.627Z</time>
      </trkpt>
      <trkpt lat="47.53288" lon="7.7163">
        <ele>265.787242</ele>
        <time>2021-07-06T17:54:55.734Z</time>
      </trkpt>
      <trkpt lat="47.53248" lon="7.71633">
        <ele>265.747284</ele>
        <time>2021-07-06T17:55:08.775Z</time>
      </trkpt>
      <trkpt lat="47.53237" lon="7.71625">
        <ele>265.754303</ele>
        <time>2021-07-06T17:55:12.904Z</time>
      </trkpt>
      <trkpt lat="47.5322" lon="7.71616">
        <ele>265.764001</ele>
        <time>2021-07-06T17:55:18.719Z</time>
      </trkpt>
      <trkpt lat="47.53175" lon="7.71581">
        <ele>265.792397</ele>
        <time>2021-07-06T17:55:35.432Z</time>
      </trkpt>
      <trkpt lat="47.53096" lon="7.71521">
        <ele>265.945391</ele>
        <time>2021-07-06T17:56:04.834Z</time>
      </trkpt>
      <trkpt lat="47.53076" lon="7.71512">
        <ele>266.050176</ele>
        <time>2021-07-06T17:56:11.517Z</time>
      </trkpt>
      <trkpt lat="47.53052" lon="7.71505">
        <ele>266.173739</ele>
        <time>2021-07-06T17:56:19.425Z</time>
      </trkpt>
      <trkpt lat="47.53023" lon="7.71501">
        <ele>266.32453</ele>
        <time>2021-07-06T17:56:29.166Z</time>
      </trkpt>
      <trkpt lat="47.53002" lon="7.71504">
        <ele>266.435665</ele>
        <time>2021-07-06T17:56:36.402Z</time>
      </trkpt>
      <trkpt lat="47.52982" lon="7.71515">
        <ele>266.542974</ele>
        <time>2021-07-06T17:56:43.385Z</time>
      </trkpt>
      <trkpt lat="47.52943" lon="7.71557">
        <ele>266.867049</ele>
        <time>2021-07-06T17:56:59.785Z</time>
      </trkpt>
      <trkpt lat="47.52886" lon="7.71642">
        <ele>268.086209</ele>
        <time>2021-07-06T17:57:27.579Z</time>
      </trkpt>
      <trkpt lat="47.52833" lon="7.71709">
        <ele>269.146021</ele>
        <time>2021-07-06T17:57:52.199Z</time>
      </trkpt>
      <trkpt lat="47.52783" lon="7.71752">
        <ele>270.079184</ele>
        <time>2021-07-06T17:58:12.245Z</time>
      </trkpt>
      <trkpt lat="47.52756" lon="7.71761">
        <ele>270.553094</ele>
        <time>2021-07-06T17:58:21.916Z</time>
      </trkpt>
      <trkpt lat="47.52731" lon="7.71766">
        <ele>270.983979</ele>
        <time>2021-07-06T17:58:30.766Z</time>
      </trkpt>
      <trkpt lat="47.52701" lon="7.71773">
        <ele>271.507101</ele>
        <time>2021-07-06T17:58:41.425Z</time>
      </trkpt>
      <trkpt lat="47.52682" lon="7.71767">
        <ele>271.844596</ele>
        <time>2021-07-06T17:58:48.258Z</time>
      </trkpt>
      <trkpt lat="47.52625" lon="7.71752">
        <ele>272.788257</ele>
        <time>2021-07-06T17:59:08.149Z</time>
      </trkpt>
      <trkpt lat="47.52592" lon="7.71756">
        <ele>273.283923</ele>
        <time>2021-07-06T17:59:19.581Z</time>
      </trkpt>
      <trkpt lat="47.52531" lon="7.71787">
        <ele>274.260576</ele>
        <time>2021-07-06T17:59:42.235Z</time>
      </trkpt>
      <trkpt lat="47.52458" lon="7.71844">
        <ele>275.373175</ele>
        <time>2021-07-06T18:00:10.637Z</time>
      </trkpt>
      <trkpt lat="47.52445" lon="7.71852">
        <ele>275.480148</ele>
        <time>2021-07-06T18:00:15.417Z</time>
      </trkpt>
      <trkpt lat="47.52432" lon="7.71864">
        <ele>275.59466</ele>
        <time>2021-07-06T18:00:20.486Z</time>
      </trkpt>
      <trkpt lat="47.52308" lon="7.71918">
        <ele>276.59882</ele>
        <time>2021-07-06T18:01:04.179Z</time>
      </trkpt>
      <trkpt lat="47.52249" lon="7.71963">
        <ele>276.718371</ele>
        <time>2021-07-06T18:01:25.748Z</time>
      </trkpt>
      <trkpt lat="47.52214" lon="7.71982">
        <ele>276.76992</ele>
        <time>2021-07-06T18:01:37.551Z</time>
      </trkpt>
      <trkpt lat="47.52171" lon="7.71993">
        <ele>276.832406</ele>
        <time>2021-07-06T18:01:51.890Z</time>
      </trkpt>
      <trkpt lat="47.52127" lon="7.71973">
        <ele>277.222</ele>
        <time>2021-07-06T18:02:07.252Z</time>
      </trkpt>
      <trkpt lat="47.52119" lon="7.71967">
        <ele>277.537447</ele>
        <time>2021-07-06T18:02:10.274Z</time>
      </trkpt>
      <trkpt lat="47.52095" lon="7.71987">
        <ele>278.495618</ele>
        <time>2021-07-06T18:02:20.094Z</time>
      </trkpt>
      <trkpt lat="47.52034" lon="7.71983">
        <ele>280.670279</ele>
        <time>2021-07-06T18:02:42.707Z</time>
      </trkpt>
      <trkpt lat="47.52019" lon="7.71984">
        <ele>281.203669</ele>
        <time>2021-07-06T18:02:48.864Z</time>
      </trkpt>
      <trkpt lat="47.52019" lon="7.71978">
        <ele>281.360924</ele>
        <time>2021-07-06T18:02:50.610Z</time>
      </trkpt>
      <trkpt lat="47.52008" lon="7.71955">
        <ele>282.024443</ele>
        <time>2021-07-06T18:02:58.125Z</time>
      </trkpt>
      <trkpt lat="47.52004" lon="7.71952">
        <ele>282.210618</ele>
        <time>2021-07-06T18:03:00.513Z</time>
      </trkpt>
      <trkpt lat="47.52005" lon="7.71924">
        <ele>282.87875</ele>
        <time>2021-07-06T18:03:09.453Z</time>
      </trkpt>
      <trkpt lat="47.52004" lon="7.71914">
        <ele>283.121293</ele>
        <time>2021-07-06T18:03:12.679Z</time>
      </trkpt>
      <trkpt lat="47.51995" lon="7.71906">
        <ele>283.668088</ele>
        <time>2021-07-06T18:03:18.228Z</time>
      </trkpt>
      <trkpt lat="47.51971" lon="7.71894">
        <ele>285.174084</ele>
        <time>2021-07-06T18:03:30.382Z</time>
      </trkpt>
      <trkpt lat="47.51962" lon="7.71877">
        <ele>286.040557</ele>
        <time>2021-07-06T18:03:37.842Z</time>
      </trkpt>
      <trkpt lat="47.5196" lon="7.71863">
        <ele>286.64841</ele>
        <time>2021-07-06T18:03:43.036Z</time>
      </trkpt>
      <trkpt lat="47.51942" lon="7.71836">
        <ele>288.153538</ele>
        <time>2021-07-06T18:03:55.642Z</time>
      </trkpt>
      <trkpt lat="47.51892" lon="7.718">
        <ele>291.49665</ele>
        <time>2021-07-06T18:04:24.132Z</time>
      </trkpt>
      <trkpt lat="47.51863" lon="7.71791">
        <ele>293.282397</ele>
        <time>2021-07-06T18:04:39.091Z</time>
      </trkpt>
      <trkpt lat="47.5185" lon="7.71793">
        <ele>294.034026</ele>
        <time>2021-07-06T18:04:44.934Z</time>
      </trkpt>
      <trkpt lat="47.51829" lon="7.71768">
        <ele>294.916417</ele>
        <time>2021-07-06T18:04:57.833Z</time>
      </trkpt>
      <trkpt lat="47.51805" lon="7.71758">
        <ele>295.756831</ele>
        <time>2021-07-06T18:05:09.623Z</time>
      </trkpt>
      <trkpt lat="47.51789" lon="7.71739">
        <ele>296.425379</ele>
        <time>2021-07-06T18:05:18.339Z</time>
      </trkpt>
      <trkpt lat="47.51781" lon="7.7173">
        <ele>296.764827</ele>
        <time>2021-07-06T18:05:23.256Z</time>
      </trkpt>
      <trkpt lat="47.51759" lon="7.71725">
        <ele>297.482019</ele>
        <time>2021-07-06T18:05:32.355Z</time>
      </trkpt>
      <trkpt lat="47.51737" lon="7.7171">
        <ele>298.290214</ele>
        <time>2021-07-06T18:05:43.050Z</time>
      </trkpt>
      <trkpt lat="47.51719" lon="7.7169">
        <ele>299.030814</ele>
        <time>2021-07-06T18:05:52.490Z</time>
      </trkpt>
      <trkpt lat="47.51708" lon="7.71683">
        <ele>299.402019</ele>
        <time>2021-07-06T18:05:57.193Z</time>
      </trkpt>
      <trkpt lat="47.51697" lon="7.71674">
        <ele>299.824253</ele>
        <time>2021-07-06T18:06:02.326Z</time>
      </trkpt>
      <trkpt lat="47.51663" lon="7.71649">
        <ele>300.219405</ele>
        <time>2021-07-06T18:06:17.503Z</time>
      </trkpt>
      <trkpt lat="47.51651" lon="7.71647">
        <ele>300.333105</ele>
        <time>2021-07-06T18:06:22.962Z</time>
      </trkpt>
      <trkpt lat="47.51645" lon="7.71633">
        <ele>300.433995</ele>
        <time>2021-07-06T18:06:27.474Z</time>
      </trkpt>
      <trkpt lat="47.5163" lon="7.71639">
        <ele>300.563888</ele>
        <time>2021-07-06T18:06:33.077Z</time>
      </trkpt>
      <trkpt lat="47.51577" lon="7.71629">
        <ele>301.036982</ele>
        <time>2021-07-06T18:06:53.973Z</time>
      </trkpt>
      <trkpt lat="47.51542" lon="7.71664">
        <ele>301.410996</ele>
        <time>2021-07-06T18:07:10.701Z</time>
      </trkpt>
      <trkpt lat="47.51504" lon="7.71654">
        <ele>302.039995</ele>
        <time>2021-07-06T18:07:25.701Z</time>
      </trkpt>
      <trkpt lat="47.51484" lon="7.71638">
        <ele>302.479272</ele>
        <time>2021-07-06T18:07:34.789Z</time>
      </trkpt>
      <trkpt lat="47.51463" lon="7.71621">
        <ele>302.950244</ele>
        <time>2021-07-06T18:07:44.725Z</time>
      </trkpt>
      <trkpt lat="47.51457" lon="7.71626">
        <ele>303.077268</ele>
        <time>2021-07-06T18:07:47.000Z</time>
      </trkpt>
      <trkpt lat="47.51453" lon="7.71627">
        <ele>303.154135</ele>
        <time>2021-07-06T18:07:48.389Z</time>
      </trkpt>
      <trkpt lat="47.51444" lon="7.71598">
        <ele>303.559922</ele>
        <time>2021-07-06T18:07:55.792Z</time>
      </trkpt>
      <trkpt lat="47.51417" lon="7.71586">
        <ele>304.109764</ele>
        <time>2021-07-06T18:08:05.991Z</time>
      </trkpt>
      <trkpt lat="47.51402" lon="7.71549">
        <ele>304.665992</ele>
        <time>2021-07-06T18:08:16.679Z</time>
      </trkpt>
      <trkpt lat="47.51405" lon="7.71531">
        <ele>304.912745</ele>
        <time>2021-07-06T18:08:21.499Z</time>
      </trkpt>
      <trkpt lat="47.51412" lon="7.71519">
        <ele>305.285991</ele>
        <time>2021-07-06T18:08:25.340Z</time>
      </trkpt>
      <trkpt lat="47.5141" lon="7.715">
        <ele>305.816047</ele>
        <time>2021-07-06T18:08:31.337Z</time>
      </trkpt>
      <trkpt lat="47.51401" lon="7.71477">
        <ele>306.556176</ele>
        <time>2021-07-06T18:08:39.414Z</time>
      </trkpt>
      <trkpt lat="47.51381" lon="7.71484">
        <ele>307.372172</ele>
        <time>2021-07-06T18:08:48.589Z</time>
      </trkpt>
      <trkpt lat="47.51324" lon="7.7152">
        <ele>309.894467</ele>
        <time>2021-07-06T18:09:16.576Z</time>
      </trkpt>
      <trkpt lat="47.51309" lon="7.7153">
        <ele>310.5595</ele>
        <time>2021-07-06T18:09:24.347Z</time>
      </trkpt>
      <trkpt lat="47.51242" lon="7.71547">
        <ele>313.274394</ele>
        <time>2021-07-06T18:09:55.793Z</time>
      </trkpt>
      <trkpt lat="47.5119" lon="7.71544">
        <ele>315.271474</ele>
        <time>2021-07-06T18:10:19.598Z</time>
      </trkpt>
      <trkpt lat="47.51091" lon="7.7152">
        <ele>319.114028</ele>
        <time>2021-07-06T18:11:04.076Z</time>
      </trkpt>
      <trkpt lat="47.51038" lon="7.71548">
        <ele>320.336861</ele>
        <time>2021-07-06T18:11:28.245Z</time>
      </trkpt>
      <trkpt lat="47.50997" lon="7.71542">
        <ele>321.211675</ele>
        <time>2021-07-06T18:11:45.488Z</time>
      </trkpt>
      <trkpt lat="47.5091" lon="7.71485">
        <ele>323.130198</ele>
        <time>2021-07-06T18:12:24.480Z</time>
      </trkpt>
      <trkpt lat="47.50822" lon="7.71497">
        <ele>323.985299</ele>
        <time>2021-07-06T18:12:59.146Z</time>
      </trkpt>
      <trkpt lat="47.50807" lon="7.7148">
        <ele>324.167128</ele>
        <time>2021-07-06T18:13:06.479Z</time>
      </trkpt>
      <trkpt lat="47.50799" lon="7.71423">
        <ele>324.556986</ele>
        <time>2021-07-06T18:13:22.491Z</time>
      </trkpt>
      <trkpt lat="47.50793" lon="7.71382">
        <ele>324.888878</ele>
        <time>2021-07-06T18:13:33.739Z</time>
      </trkpt>
      <trkpt lat="47.5079" lon="7.71366">
        <ele>325.104046</ele>
        <time>2021-07-06T18:13:38.207Z</time>
      </trkpt>
      <trkpt lat="47.50781" lon="7.71358">
        <ele>325.300772</ele>
        <time>2021-07-06T18:13:41.834Z</time>
      </trkpt>
      <trkpt lat="47.50762" lon="7.7136">
        <ele>325.655254</ele>
        <time>2021-07-06T18:13:48.062Z</time>
      </trkpt>
      <trkpt lat="47.50739" lon="7.71374">
        <ele>326.142652</ele>
        <time>2021-07-06T18:13:56.884Z</time>
      </trkpt>
      <trkpt lat="47.50696" lon="7.714">
        <ele>327.032579</ele>
        <time>2021-07-06T18:14:16.111Z</time>
      </trkpt>
      <trkpt lat="47.50655" lon="7.71443">
        <ele>327.990715</ele>
        <time>2021-07-06T18:14:37.395Z</time>
      </trkpt>
      <trkpt lat="47.50619" lon="7.71475">
        <ele>328.832183</ele>
        <time>2021-07-06T18:14:55.294Z</time>
      </trkpt>
      <trkpt lat="47.50595" lon="7.71494">
        <ele>329.386451</ele>
        <time>2021-07-06T18:15:05.110Z</time>
      </trkpt>
      <trkpt lat="47.50578" lon="7.71508">
        <ele>329.785696</ele>
        <time>2021-07-06T18:15:12.246Z</time>
      </trkpt>
      <trkpt lat="47.50574" lon="7.71511">
        <ele>329.88829</ele>
        <time>2021-07-06T18:15:13.999Z</time>
      </trkpt>
      <trkpt lat="47.50552" lon="7.715">
        <ele>330.363425</ele>
        <time>2021-07-06T18:15:23.746Z</time>
      </trkpt>
      <trkpt lat="47.50542" lon="7.71485">
        <ele>330.652473</ele>
        <time>2021-07-06T18:15:29.598Z</time>
      </trkpt>
      <trkpt lat="47.50527" lon="7.71479">
        <ele>330.962437</ele>
        <time>2021-07-06T18:15:35.791Z</time>
      </trkpt>
      <trkpt lat="47.50514" lon="7.71489">
        <ele>331.269301</ele>
        <time>2021-07-06T18:15:42.078Z</time>
      </trkpt>
      <trkpt lat="47.50498" lon="7.71485">
        <ele>331.605623</ele>
        <time>2021-07-06T18:15:48.745Z</time>
      </trkpt>
      <trkpt lat="47.50494" lon="7.7149">
        <ele>331.704989</ele>
        <time>2021-07-06T18:15:50.724Z</time>
      </trkpt>
      <trkpt lat="47.5049" lon="7.71504">
        <ele>331.897768</ele>
        <time>2021-07-06T18:15:54.920Z</time>
      </trkpt>
      <trkpt lat="47.50473" lon="7.71497">
        <ele>331.903174</ele>
        <time>2021-07-06T18:16:00.664Z</time>
      </trkpt>
      <trkpt lat="47.5046" lon="7.71492">
        <ele>331.907428</ele>
        <time>2021-07-06T18:16:05.256Z</time>
      </trkpt>
      <trkpt lat="47.50452" lon="7.71489">
        <ele>331.910016</ele>
        <time>2021-07-06T18:16:08.024Z</time>
      </trkpt>
      <trkpt lat="47.50433" lon="7.71481">
        <ele>331.916306</ele>
        <time>2021-07-06T18:16:14.569Z</time>
      </trkpt>
      <trkpt lat="47.5039" lon="7.71463">
        <ele>331.930432</ele>
        <time>2021-07-06T18:16:29.080Z</time>
      </trkpt>
      <trkpt lat="47.50382" lon="7.7146">
        <ele>331.933014</ele>
        <time>2021-07-06T18:16:31.730Z</time>
      </trkpt>
      <trkpt lat="47.5038" lon="7.71459">
        <ele>331.933735</ele>
        <time>2021-07-06T18:16:32.435Z</time>
      </trkpt>
      <trkpt lat="47.50346" lon="7.71485">
        <ele>331.945938</ele>
        <time>2021-07-06T18:16:44.766Z</time>
      </trkpt>
      <trkpt lat="47.50339" lon="7.71486">
        <ele>331.948152</ele>
        <time>2021-07-06T18:16:47.004Z</time>
      </trkpt>
      <trkpt lat="47.50335" lon="7.71499">
        <ele>331.951046</ele>
        <time>2021-07-06T18:16:49.991Z</time>
      </trkpt>
      <trkpt lat="47.50331" lon="7.7151">
        <ele>331.953725</ele>
        <time>2021-07-06T18:16:52.824Z</time>
      </trkpt>
      <trkpt lat="47.50323" lon="7.71513">
        <ele>332.040913</ele>
        <time>2021-07-06T18:16:55.535Z</time>
      </trkpt>
      <trkpt lat="47.50317" lon="7.71504">
        <ele>332.155998</ele>
        <time>2021-07-06T18:16:58.170Z</time>
      </trkpt>
      <trkpt lat="47.50305" lon="7.71508">
        <ele>332.33215</ele>
        <time>2021-07-06T18:17:02.347Z</time>
      </trkpt>
      <trkpt lat="47.50295" lon="7.71505">
        <ele>332.468489</ele>
        <time>2021-07-06T18:17:05.633Z</time>
      </trkpt>
      <trkpt lat="47.50288" lon="7.71512">
        <ele>332.582388</ele>
        <time>2021-07-06T18:17:08.302Z</time>
      </trkpt>
      <trkpt lat="47.50284" lon="7.71517">
        <ele>332.651028</ele>
        <time>2021-07-06T18:17:09.908Z</time>
      </trkpt>
      <trkpt lat="47.50263" lon="7.71498">
        <ele>332.984042</ele>
        <time>2021-07-06T18:17:18.111Z</time>
      </trkpt>
      <trkpt lat="47.50257" lon="7.71502">
        <ele>333.076833</ele>
        <time>2021-07-06T18:17:20.341Z</time>
      </trkpt>
      <trkpt lat="47.50254" lon="7.715">
        <ele>333.117442</ele>
        <time>2021-07-06T18:17:21.290Z</time>
      </trkpt>
      <trkpt lat="47.5025" lon="7.71497">
        <ele>333.189322</ele>
        <time>2021-07-06T18:17:23.074Z</time>
      </trkpt>
      <trkpt lat="47.50248" lon="7.71496">
        <ele>333.210681</ele>
        <time>2021-07-06T18:17:23.607Z</time>
      </trkpt>
      <trkpt lat="47.50247" lon="7.715">
        <ele>333.25105</ele>
        <time>2021-07-06T18:17:24.634Z</time>
      </trkpt>
      <trkpt lat="47.50235" lon="7.71492">
        <ele>333.434773</ele>
        <time>2021-07-06T18:17:29.361Z</time>
      </trkpt>
      <trkpt lat="47.50231" lon="7.71487">
        <ele>333.50276</ele>
        <time>2021-07-06T18:17:31.097Z</time>
      </trkpt>
      <trkpt lat="47.50227" lon="7.71484">
        <ele>333.557481</ele>
        <time>2021-07-06T18:17:32.469Z</time>
      </trkpt>
      <trkpt lat="47.50224" lon="7.7148">
        <ele>333.616246</ele>
        <time>2021-07-06T18:17:33.946Z</time>
      </trkpt>
      <trkpt lat="47.5022" lon="7.71475">
        <ele>333.689725</ele>
        <time>2021-07-06T18:17:35.823Z</time>
      </trkpt>
      <trkpt lat="47.50206" lon="7.7146">
        <ele>333.928354</ele>
        <time>2021-07-06T18:17:41.919Z</time>
      </trkpt>
      <trkpt lat="47.50177" lon="7.71433">
        <ele>334.395611</ele>
        <time>2021-07-06T18:17:54.511Z</time>
      </trkpt>
      <trkpt lat="47.50153" lon="7.71412">
        <ele>335.474566</ele>
        <time>2021-07-06T18:18:05.123Z</time>
      </trkpt>
      <trkpt lat="47.50147" lon="7.71406">
        <ele>335.771462</ele>
        <time>2021-07-06T18:18:07.674Z</time>
      </trkpt>
      <trkpt lat="47.5012" lon="7.71384">
        <ele>337.022596</ele>
        <time>2021-07-06T18:18:20.274Z</time>
      </trkpt>
      <trkpt lat="47.50088" lon="7.71368">
        <ele>338.439296</ele>
        <time>2021-07-06T18:18:34.240Z</time>
      </trkpt>
      <trkpt lat="47.50077" lon="7.71382">
        <ele>339.008502</ele>
        <time>2021-07-06T18:18:39.264Z</time>
      </trkpt>
      <trkpt lat="47.50066" lon="7.71374">
        <ele>339.515892</ele>
        <time>2021-07-06T18:18:44.697Z</time>
      </trkpt>
      <trkpt lat="47.50036" lon="7.7135">
        <ele>340.908086</ele>
        <time>2021-07-06T18:18:57.757Z</time>
      </trkpt>
      <trkpt lat="47.50016" lon="7.71343">
        <ele>341.755633</ele>
        <time>2021-07-06T18:19:04.994Z</time>
      </trkpt>
      <trkpt lat="47.50004" lon="7.71344">
        <ele>341.961981</ele>
        <time>2021-07-06T18:19:10.232Z</time>
      </trkpt>
      <trkpt lat="47.49973" lon="7.71388">
        <ele>342.634143</ele>
        <time>2021-07-06T18:19:26.365Z</time>
      </trkpt>
      <trkpt lat="47.49967" lon="7.71396">
        <ele>342.750804</ele>
        <time>2021-07-06T18:19:28.936Z</time>
      </trkpt>
      <trkpt lat="47.4996" lon="7.71406">
        <ele>342.903588</ele>
        <time>2021-07-06T18:19:32.180Z</time>
      </trkpt>
      <trkpt lat="47.49952" lon="7.71417">
        <ele>343.07273</ele>
        <time>2021-07-06T18:19:36.797Z</time>
      </trkpt>
      <trkpt lat="47.49947" lon="7.71419">
        <ele>343.147977</ele>
        <time>2021-07-06T18:19:38.479Z</time>
      </trkpt>
      <trkpt lat="47.49941" lon="7.71421">
        <ele>343.252141</ele>
        <time>2021-07-06T18:19:40.693Z</time>
      </trkpt>
      <trkpt lat="47.49925" lon="7.71425">
        <ele>343.489898</ele>
        <time>2021-07-06T18:19:46.720Z</time>
      </trkpt>
      <trkpt lat="47.49906" lon="7.71429">
        <ele>343.796001</ele>
        <time>2021-07-06T18:19:54.693Z</time>
      </trkpt>
      <trkpt lat="47.49845" lon="7.7143">
        <ele>344.465725</ele>
        <time>2021-07-06T18:20:18.014Z</time>
      </trkpt>
      <trkpt lat="47.49808" lon="7.71433">
        <ele>344.148559</ele>
        <time>2021-07-06T18:20:31.580Z</time>
      </trkpt>
      <trkpt lat="47.49786" lon="7.71435">
        <ele>343.954944</ele>
        <time>2021-07-06T18:20:39.890Z</time>
      </trkpt>
      <trkpt lat="47.49667" lon="7.71463">
        <ele>342.878399</ele>
        <time>2021-07-06T18:21:25.210Z</time>
      </trkpt>
      <trkpt lat="47.49474" lon="7.7156">
        <ele>340.74473</ele>
        <time>2021-07-06T18:22:41.525Z</time>
      </trkpt>
      <trkpt lat="47.49387" lon="7.71611">
        <ele>339.801428</ele>
        <time>2021-07-06T18:23:16.881Z</time>
      </trkpt>
      <trkpt lat="47.49344" lon="7.71638">
        <ele>339.333061</ele>
        <time>2021-07-06T18:23:34.393Z</time>
      </trkpt>
      <trkpt lat="47.49314" lon="7.71655">
        <ele>338.857171</ele>
        <time>2021-07-06T18:23:46.274Z</time>
      </trkpt>
      <trkpt lat="47.49257" lon="7.71665">
        <ele>337.937416</ele>
        <time>2021-07-06T18:24:07.605Z</time>
      </trkpt>
      <trkpt lat="47.49214" lon="7.71652">
        <ele>337.246472</ele>
        <time>2021-07-06T18:24:23.501Z</time>
      </trkpt>
      <trkpt lat="47.49181" lon="7.7164">
        <ele>336.710902</ele>
        <time>2021-07-06T18:24:35.852Z</time>
      </trkpt>
      <trkpt lat="47.49167" lon="7.71639">
        <ele>336.483479</ele>
        <time>2021-07-06T18:24:40.399Z</time>
      </trkpt>
      <trkpt lat="47.49161" lon="7.71639">
        <ele>336.514448</ele>
        <time>2021-07-06T18:24:42.168Z</time>
      </trkpt>
      <trkpt lat="47.49151" lon="7.7165">
        <ele>337.002804</ele>
        <time>2021-07-06T18:24:46.232Z</time>
      </trkpt>
      <trkpt lat="47.4914" lon="7.71666">
        <ele>337.596568</ele>
        <time>2021-07-06T18:24:51.216Z</time>
      </trkpt>
      <trkpt lat="47.49131" lon="7.71676">
        <ele>338.028073</ele>
        <time>2021-07-06T18:24:54.833Z</time>
      </trkpt>
      <trkpt lat="47.49126" lon="7.71692">
        <ele>338.479776</ele>
        <time>2021-07-06T18:24:58.612Z</time>
      </trkpt>
      <trkpt lat="47.49116" lon="7.71727">
        <ele>339.458114</ele>
        <time>2021-07-06T18:25:07.290Z</time>
      </trkpt>
      <trkpt lat="47.49102" lon="7.71762">
        <ele>340.514183</ele>
        <time>2021-07-06T18:25:17.314Z</time>
      </trkpt>
      <trkpt lat="47.49013" lon="7.71712">
        <ele>346.309641</ele>
        <time>2021-07-06T18:26:01.473Z</time>
      </trkpt>
      <trkpt lat="47.48987" lon="7.71717">
        <ele>350.099323</ele>
        <time>2021-07-06T18:26:17.406Z</time>
      </trkpt>
      <trkpt lat="47.48987" lon="7.7171">
        <ele>350.806616</ele>
        <time>2021-07-06T18:26:20.254Z</time>
      </trkpt>
      <trkpt lat="47.48988" lon="7.71704">
        <ele>351.411821</ele>
        <time>2021-07-06T18:26:22.734Z</time>
      </trkpt>
      <trkpt lat="47.48994" lon="7.71554">
        <ele>365.767196</ele>
        <time>2021-07-06T18:27:29.489Z</time>
      </trkpt>
      <trkpt lat="47.48993" lon="7.71508">
        <ele>370.105782</ele>
        <time>2021-07-06T18:27:51.061Z</time>
      </trkpt>
      <trkpt lat="47.49004" lon="7.71449">
        <ele>375.904184</ele>
        <time>2021-07-06T18:28:19.341Z</time>
      </trkpt>
      <trkpt lat="47.49004" lon="7.71412">
        <ele>379.370435</ele>
        <time>2021-07-06T18:28:35.721Z</time>
      </trkpt>
      <trkpt lat="47.49003" lon="7.71295">
        <ele>390.459374</ele>
        <time>2021-07-06T18:29:22.581Z</time>
      </trkpt>
      <trkpt lat="47.48988" lon="7.71154">
        <ele>400.507064</ele>
        <time>2021-07-06T18:30:14.003Z</time>
      </trkpt>
      <trkpt lat="47.48992" lon="7.71106">
        <ele>403.552229</ele>
        <time>2021-07-06T18:30:30.077Z</time>
      </trkpt>
      <trkpt lat="47.4898" lon="7.71043">
        <ele>407.640241</ele>
        <time>2021-07-06T18:30:51.294Z</time>
      </trkpt>
      <trkpt lat="47.48983" lon="7.70995">
        <ele>410.602686</ele>
        <time>2021-07-06T18:31:06.287Z</time>
      </trkpt>
      <trkpt lat="47.48976" lon="7.7092">
        <ele>414.108361</ele>
        <time>2021-07-06T18:31:28.656Z</time>
      </trkpt>
      <trkpt lat="47.48983" lon="7.70888">
        <ele>415.668825</ele>
        <time>2021-07-06T18:31:38.213Z</time>
      </trkpt>
      <trkpt lat="47.48985" lon="7.70827">
        <ele>418.502436</ele>
        <time>2021-07-06T18:31:56.069Z</time>
      </trkpt>
      <trkpt lat="47.48996" lon="7.7076">
        <ele>421.67436</ele>
        <time>2021-07-06T18:32:15.997Z</time>
      </trkpt>
      <trkpt lat="47.49001" lon="7.70653">
        <ele>427.587846</ele>
        <time>2021-07-06T18:32:48.362Z</time>
      </trkpt>
      <trkpt lat="47.49001" lon="7.70641">
        <ele>428.264657</ele>
        <time>2021-07-06T18:32:52.845Z</time>
      </trkpt>
      <trkpt lat="47.48945" lon="7.7082">
        <ele>439.92553</ele>
        <time>2021-07-06T18:34:09.301Z</time>
      </trkpt>
      <trkpt lat="47.48932" lon="7.70876">
        <ele>443.961952</ele>
        <time>2021-07-06T18:34:35.041Z</time>
      </trkpt>
      <trkpt lat="47.48918" lon="7.70962">
        <ele>450.057885</ele>
        <time>2021-07-06T18:35:12.515Z</time>
      </trkpt>
      <trkpt lat="47.48901" lon="7.71047">
        <ele>456.123316</ele>
        <time>2021-07-06T18:35:50.147Z</time>
      </trkpt>
      <trkpt lat="47.48885" lon="7.71125">
        <ele>460.863841</ele>
        <time>2021-07-06T18:36:23.704Z</time>
      </trkpt>
      <trkpt lat="47.48875" lon="7.7104">
        <ele>465.826183</ele>
        <time>2021-07-06T18:36:56.788Z</time>
      </trkpt>
      <trkpt lat="47.4886" lon="7.70935">
        <ele>471.937051</ele>
        <time>2021-07-06T18:37:35.097Z</time>
      </trkpt>
      <trkpt lat="47.48859" lon="7.70874">
        <ele>474.561324</ele>
        <time>2021-07-06T18:37:56.396Z</time>
      </trkpt>
      <trkpt lat="47.4885" lon="7.70843">
        <ele>476.015419</ele>
        <time>2021-07-06T18:38:08.199Z</time>
      </trkpt>
      <trkpt lat="47.48821" lon="7.70798">
        <ele>478.687452</ele>
        <time>2021-07-06T18:38:28.752Z</time>
      </trkpt>
      <trkpt lat="47.48813" lon="7.70767">
        <ele>480.102047</ele>
        <time>2021-07-06T18:38:39.597Z</time>
      </trkpt>
      <trkpt lat="47.4881" lon="7.70751">
        <ele>480.801897</ele>
        <time>2021-07-06T18:38:44.757Z</time>
      </trkpt>
      <trkpt lat="47.48803" lon="7.70742">
        <ele>481.427062</ele>
        <time>2021-07-06T18:38:48.766Z</time>
      </trkpt>
      <trkpt lat="47.48795" lon="7.70734">
        <ele>482.044879</ele>
        <time>2021-07-06T18:38:52.730Z</time>
      </trkpt>
      <trkpt lat="47.48786" lon="7.70734">
        <ele>482.571727</ele>
        <time>2021-07-06T18:38:56.345Z</time>
      </trkpt>
      <trkpt lat="47.48775" lon="7.70748">
        <ele>483.559571</ele>
        <time>2021-07-06T18:39:02.549Z</time>
      </trkpt>
      <trkpt lat="47.48768" lon="7.70758">
        <ele>484.229117</ele>
        <time>2021-07-06T18:39:06.542Z</time>
      </trkpt>
      <trkpt lat="47.48762" lon="7.70759">
        <ele>484.705582</ele>
        <time>2021-07-06T18:39:10.311Z</time>
      </trkpt>
      <trkpt lat="47.48658" lon="7.70713">
        <ele>492.452634</ele>
        <time>2021-07-06T18:40:07.895Z</time>
      </trkpt>
      <trkpt lat="47.4865" lon="7.70707">
        <ele>493.062746</ele>
        <time>2021-07-06T18:40:12.831Z</time>
      </trkpt>
      <trkpt lat="47.48654" lon="7.70684">
        <ele>494.202832</ele>
        <time>2021-07-06T18:40:20.387Z</time>
      </trkpt>
      <trkpt lat="47.4865" lon="7.70653">
        <ele>495.723905</ele>
        <time>2021-07-06T18:40:32.747Z</time>
      </trkpt>
      <trkpt lat="47.4862" lon="7.70561">
        <ele>500.300904</ele>
        <time>2021-07-06T18:41:08.482Z</time>
      </trkpt>
      <trkpt lat="47.4854" lon="7.70407">
        <ele>508.513454</ele>
        <time>2021-07-06T18:42:14.935Z</time>
      </trkpt>
      <trkpt lat="47.48476" lon="7.703">
        <ele>512.316084</ele>
        <time>2021-07-06T18:43:00.784Z</time>
      </trkpt>
      <trkpt lat="47.48296" lon="7.70042">
        <ele>515.274268</ele>
        <time>2021-07-06T18:44:42.251Z</time>
      </trkpt>
      <trkpt lat="47.48282" lon="7.70026">
        <ele>513.471069</ele>
        <time>2021-07-06T18:44:48.512Z</time>
      </trkpt>
      <trkpt lat="47.48282" lon="7.70025">
        <ele>513.464451</ele>
        <time>2021-07-06T18:44:48.689Z</time>
      </trkpt>
      <trkpt lat="47.48264" lon="7.70023">
        <ele>511.755615</ele>
        <time>2021-07-06T18:44:54.368Z</time>
      </trkpt>
      <trkpt lat="47.48252" lon="7.70024">
        <ele>510.530546</ele>
        <time>2021-07-06T18:44:58.343Z</time>
      </trkpt>
      <trkpt lat="47.48245" lon="7.70028">
        <ele>509.788496</ele>
        <time>2021-07-06T18:45:00.630Z</time>
      </trkpt>
      <trkpt lat="47.48232" lon="7.70025">
        <ele>508.506547</ele>
        <time>2021-07-06T18:45:04.737Z</time>
      </trkpt>
      <trkpt lat="47.48216" lon="7.70013">
        <ele>506.822</ele>
        <time>2021-07-06T18:45:09.951Z</time>
      </trkpt>
      <trkpt lat="47.48168" lon="7.69954">
        <ele>500.63395</ele>
        <time>2021-07-06T18:45:29.011Z</time>
      </trkpt>
      <trkpt lat="47.48153" lon="7.69943">
        <ele>499.070861</ele>
        <time>2021-07-06T18:45:33.807Z</time>
      </trkpt>
      <trkpt lat="47.48137" lon="7.69935">
        <ele>497.433714</ele>
        <time>2021-07-06T18:45:39.088Z</time>
      </trkpt>
      <trkpt lat="47.48127" lon="7.69945">
        <ele>496.406378</ele>
        <time>2021-07-06T18:45:42.123Z</time>
      </trkpt>
      <trkpt lat="47.48095" lon="7.69961">
        <ele>493.537046</ele>
        <time>2021-07-06T18:45:50.666Z</time>
      </trkpt>
      <trkpt lat="47.48065" lon="7.69976">
        <ele>490.78604</ele>
        <time>2021-07-06T18:45:59.184Z</time>
      </trkpt>
      <trkpt lat="47.47985" lon="7.7004">
        <ele>482.954821</ele>
        <time>2021-07-06T18:46:24.569Z</time>
      </trkpt>
      <trkpt lat="47.47973" lon="7.70055">
        <ele>482.291067</ele>
        <time>2021-07-06T18:46:29.300Z</time>
      </trkpt>
      <trkpt lat="47.47968" lon="7.70068">
        <ele>482.083267</ele>
        <time>2021-07-06T18:46:32.708Z</time>
      </trkpt>
      <trkpt lat="47.47958" lon="7.70088">
        <ele>481.765154</ele>
        <time>2021-07-06T18:46:37.826Z</time>
      </trkpt>
      <trkpt lat="47.4795" lon="7.70111">
        <ele>481.429966</ele>
        <time>2021-07-06T18:46:43.303Z</time>
      </trkpt>
      <trkpt lat="47.47948" lon="7.70118">
        <ele>481.328884</ele>
        <time>2021-07-06T18:46:45.075Z</time>
      </trkpt>
      <trkpt lat="47.4794" lon="7.70118">
        <ele>481.179191</ele>
        <time>2021-07-06T18:46:48.049Z</time>
      </trkpt>
      <trkpt lat="47.47915" lon="7.70139">
        <ele>480.622027</ele>
        <time>2021-07-06T18:46:58.933Z</time>
      </trkpt>
      <trkpt lat="47.47851" lon="7.70223">
        <ele>478.91561</ele>
        <time>2021-07-06T18:47:31.426Z</time>
      </trkpt>
      <trkpt lat="47.47821" lon="7.70236">
        <ele>477.849975</ele>
        <time>2021-07-06T18:47:42.843Z</time>
      </trkpt>
      <trkpt lat="47.47768" lon="7.70291">
        <ele>475.682514</ele>
        <time>2021-07-06T18:48:04.785Z</time>
      </trkpt>
      <trkpt lat="47.47729" lon="7.7036">
        <ele>473.605542</ele>
        <time>2021-07-06T18:48:26.196Z</time>
      </trkpt>
      <trkpt lat="47.47683" lon="7.70391">
        <ele>472.134219</ele>
        <time>2021-07-06T18:48:44.635Z</time>
      </trkpt>
      <trkpt lat="47.4767" lon="7.70416">
        <ele>471.592529</ele>
        <time>2021-07-06T18:48:52.817Z</time>
      </trkpt>
      <trkpt lat="47.4766" lon="7.70456">
        <ele>470.84633</ele>
        <time>2021-07-06T18:49:04.326Z</time>
      </trkpt>
      <trkpt lat="47.47659" lon="7.70481">
        <ele>470.401307</ele>
        <time>2021-07-06T18:49:10.110Z</time>
      </trkpt>
      <trkpt lat="47.47663" lon="7.70503">
        <ele>469.997266</ele>
        <time>2021-07-06T18:49:16.103Z</time>
      </trkpt>
      <trkpt lat="47.47684" lon="7.70555">
        <ele>468.924602</ele>
        <time>2021-07-06T18:49:30.685Z</time>
      </trkpt>
      <trkpt lat="47.47694" lon="7.70596">
        <ele>467.965505</ele>
        <time>2021-07-06T18:49:40.985Z</time>
      </trkpt>
      <trkpt lat="47.47704" lon="7.70654">
        <ele>464.254109</ele>
        <time>2021-07-06T18:49:55.266Z</time>
      </trkpt>
      <trkpt lat="47.47694" lon="7.70653">
        <ele>463.373924</ele>
        <time>2021-07-06T18:49:58.179Z</time>
      </trkpt>
      <trkpt lat="47.47638" lon="7.7054">
        <ele>454.759843</ele>
        <time>2021-07-06T18:50:28.373Z</time>
      </trkpt>
      <trkpt lat="47.47617" lon="7.70528">
        <ele>452.692996</ele>
        <time>2021-07-06T18:50:35.179Z</time>
      </trkpt>
      <trkpt lat="47.47593" lon="7.70539">
        <ele>449.696021</ele>
        <time>2021-07-06T18:50:42.638Z</time>
      </trkpt>
      <trkpt lat="47.47471" lon="7.70639">
        <ele>430.637175</ele>
        <time>2021-07-06T18:51:24.567Z</time>
      </trkpt>
      <trkpt lat="47.47452" lon="7.70662">
        <ele>427.264821</ele>
        <time>2021-07-06T18:51:32.048Z</time>
      </trkpt>
      <trkpt lat="47.47429" lon="7.707">
        <ele>423.393778</ele>
        <time>2021-07-06T18:51:42.574Z</time>
      </trkpt>
      <trkpt lat="47.47397" lon="7.70781">
        <ele>416.362674</ele>
        <time>2021-07-06T18:52:01.894Z</time>
      </trkpt>
      <trkpt lat="47.47359" lon="7.70767">
        <ele>412.0029</ele>
        <time>2021-07-06T18:52:13.842Z</time>
      </trkpt>
      <trkpt lat="47.47305" lon="7.70774">
        <ele>405.826466</ele>
        <time>2021-07-06T18:52:30.307Z</time>
      </trkpt>
      <trkpt lat="47.47277" lon="7.70785">
        <ele>402.258323</ele>
        <time>2021-07-06T18:52:38.915Z</time>
      </trkpt>
      <trkpt lat="47.4722" lon="7.70829">
        <ele>394.138745</ele>
        <time>2021-07-06T18:52:58.504Z</time>
      </trkpt>
      <trkpt lat="47.47101" lon="7.70906">
        <ele>379.719524</ele>
        <time>2021-07-06T18:53:37.542Z</time>
      </trkpt>
      <trkpt lat="47.47071" lon="7.70936">
        <ele>376.363825</ele>
        <time>2021-07-06T18:53:48.633Z</time>
      </trkpt>
      <trkpt lat="47.47052" lon="7.70971">
        <ele>373.592772</ele>
        <time>2021-07-06T18:53:57.952Z</time>
      </trkpt>
      <trkpt lat="47.47051" lon="7.70965">
        <ele>373.238612</ele>
        <time>2021-07-06T18:53:59.172Z</time>
      </trkpt>
      <trkpt lat="47.47055" lon="7.70942">
        <ele>371.731097</ele>
        <time>2021-07-06T18:54:04.814Z</time>
      </trkpt>
      <trkpt lat="47.47052" lon="7.70926">
        <ele>370.743982</ele>
        <time>2021-07-06T18:54:08.505Z</time>
      </trkpt>
      <trkpt lat="47.47048" lon="7.70925">
        <ele>370.385114</ele>
        <time>2021-07-06T18:54:09.818Z</time>
      </trkpt>
      <trkpt lat="47.47041" lon="7.70928">
        <ele>369.707985</ele>
        <time>2021-07-06T18:54:11.921Z</time>
      </trkpt>
      <trkpt lat="47.47036" lon="7.70936">
        <ele>369.033749</ele>
        <time>2021-07-06T18:54:14.198Z</time>
      </trkpt>
      <trkpt lat="47.47029" lon="7.70942">
        <ele>368.308172</ele>
        <time>2021-07-06T18:54:16.644Z</time>
      </trkpt>
      <trkpt lat="47.47022" lon="7.70948">
        <ele>368.415507</ele>
        <time>2021-07-06T18:54:19.123Z</time>
      </trkpt>
      <trkpt lat="47.47025" lon="7.70933">
        <ele>368.763233</ele>
        <time>2021-07-06T18:54:22.441Z</time>
      </trkpt>
      <trkpt lat="47.47007" lon="7.70931">
        <ele>369.374387</ele>
        <time>2021-07-06T18:54:28.958Z</time>
      </trkpt>
      <trkpt lat="47.46976" lon="7.70926">
        <ele>370.401866</ele>
        <time>2021-07-06T18:54:42.007Z</time>
      </trkpt>
      <trkpt lat="47.46961" lon="7.70925">
        <ele>370.881456</ele>
        <time>2021-07-06T18:54:48.416Z</time>
      </trkpt>
      <trkpt lat="47.46955" lon="7.70925">
        <ele>371.075989</ele>
        <time>2021-07-06T18:54:50.903Z</time>
      </trkpt>
      <trkpt lat="47.46923" lon="7.70924">
        <ele>372.147852</ele>
        <time>2021-07-06T18:55:07.031Z</time>
      </trkpt>
      <trkpt lat="47.46896" lon="7.70933">
        <ele>373.05756</ele>
        <time>2021-07-06T18:55:20.227Z</time>
      </trkpt>
      <trkpt lat="47.46851" lon="7.70951">
        <ele>374.958567</ele>
        <time>2021-07-06T18:55:44.870Z</time>
      </trkpt>
      <trkpt lat="47.46843" lon="7.70923">
        <ele>376.131545</ele>
        <time>2021-07-06T18:55:55.281Z</time>
      </trkpt>
      <trkpt lat="47.4681" lon="7.70847">
        <ele>379.618278</ele>
        <time>2021-07-06T18:56:28.303Z</time>
      </trkpt>
      <trkpt lat="47.46781" lon="7.708">
        <ele>382.096722</ele>
        <time>2021-07-06T18:56:48.869Z</time>
      </trkpt>
      <trkpt lat="47.46728" lon="7.70717">
        <ele>385.732814</ele>
        <time>2021-07-06T18:57:22.183Z</time>
      </trkpt>
      <trkpt lat="47.46653" lon="7.70642">
        <ele>388.976328</ele>
        <time>2021-07-06T18:58:02.461Z</time>
      </trkpt>
      <trkpt lat="47.46491" lon="7.70544">
        <ele>394.5159</ele>
        <time>2021-07-06T18:59:20.399Z</time>
      </trkpt>
      <trkpt lat="47.4639" lon="7.70461">
        <ele>396.95154</ele>
        <time>2021-07-06T19:00:07.724Z</time>
      </trkpt>
      <trkpt lat="47.46358" lon="7.70398">
        <ele>397.591232</ele>
        <time>2021-07-06T19:00:28.542Z</time>
      </trkpt>
      <trkpt lat="47.4632" lon="7.70286">
        <ele>398.883157</ele>
        <time>2021-07-06T19:01:02.860Z</time>
      </trkpt>
      <trkpt lat="47.46317" lon="7.70269">
        <ele>399.219314</ele>
        <time>2021-07-06T19:01:07.347Z</time>
      </trkpt>
      <trkpt lat="47.46271" lon="7.70224">
        <ele>400.787117</ele>
        <time>2021-07-06T19:01:27.133Z</time>
      </trkpt>
      <trkpt lat="47.46225" lon="7.7015">
        <ele>402.743909</ele>
        <time>2021-07-06T19:01:52.686Z</time>
      </trkpt>
      <trkpt lat="47.46192" lon="7.70114">
        <ele>403.920467</ele>
        <time>2021-07-06T19:02:08.923Z</time>
      </trkpt>
      <trkpt lat="47.46158" lon="7.70092">
        <ele>404.974196</ele>
        <time>2021-07-06T19:02:23.246Z</time>
      </trkpt>
      <trkpt lat="47.46094" lon="7.70083">
        <ele>406.778425</ele>
        <time>2021-07-06T19:02:46.095Z</time>
      </trkpt>
      <trkpt lat="47.4609" lon="7.70084">
        <ele>406.886918</ele>
        <time>2021-07-06T19:02:48.452Z</time>
      </trkpt>
      <trkpt lat="47.46093" lon="7.70063">
        <ele>407.290224</ele>
        <time>2021-07-06T19:02:53.818Z</time>
      </trkpt>
      <trkpt lat="47.46087" lon="7.70023">
        <ele>408.080086</ele>
        <time>2021-07-06T19:03:06.017Z</time>
      </trkpt>
      <trkpt lat="47.46061" lon="7.69991">
        <ele>408.889414</ele>
        <time>2021-07-06T19:03:19.993Z</time>
      </trkpt>
      <trkpt lat="47.46054" lon="7.69986">
        <ele>409.030909</ele>
        <time>2021-07-06T19:03:22.935Z</time>
      </trkpt>
      <trkpt lat="47.4603" lon="7.69973">
        <ele>409.476442</ele>
        <time>2021-07-06T19:03:33.993Z</time>
      </trkpt>
      <trkpt lat="47.45984" lon="7.69961">
        <ele>410.29215</ele>
        <time>2021-07-06T19:03:52.309Z</time>
      </trkpt>
      <trkpt lat="47.45948" lon="7.69964">
        <ele>410.916343</ele>
        <time>2021-07-06T19:04:06.574Z</time>
      </trkpt>
      <trkpt lat="47.45885" lon="7.69981">
        <ele>412.377786</ele>
        <time>2021-07-06T19:04:33.664Z</time>
      </trkpt>
      <trkpt lat="47.45784" lon="7.70024">
        <ele>416.854318</ele>
        <time>2021-07-06T19:05:20.723Z</time>
      </trkpt>
      <trkpt lat="47.45693" lon="7.70041">
        <ele>420.925471</ele>
        <time>2021-07-06T19:06:05.826Z</time>
      </trkpt>
      <trkpt lat="47.45651" lon="7.70037">
        <ele>422.87368</ele>
        <time>2021-07-06T19:06:26.838Z</time>
      </trkpt>
      <trkpt lat="47.45569" lon="7.70004">
        <ele>426.87411</ele>
        <time>2021-07-06T19:07:08.135Z</time>
      </trkpt>
      <trkpt lat="47.45564" lon="7.70003">
        <ele>427.100724</ele>
        <time>2021-07-06T19:07:11.276Z</time>
      </trkpt>
      <trkpt lat="47.4556" lon="7.70002">
        <ele>427.277181</ele>
        <time>2021-07-06T19:07:13.199Z</time>
      </trkpt>
      <trkpt lat="47.45506" lon="7.69964">
        <ele>426.508119</ele>
        <time>2021-07-06T19:07:35.737Z</time>
      </trkpt>
      <trkpt lat="47.45479" lon="7.69929">
        <ele>425.433589</ele>
        <time>2021-07-06T19:07:48.070Z</time>
      </trkpt>
      <trkpt lat="47.45465" lon="7.69904">
        <ele>424.76466</ele>
        <time>2021-07-06T19:07:56.004Z</time>
      </trkpt>
      <trkpt lat="47.45449" lon="7.69875">
        <ele>423.999802</ele>
        <time>2021-07-06T19:08:04.776Z</time>
      </trkpt>
      <trkpt lat="47.45429" lon="7.69814">
        <ele>422.61856</ele>
        <time>2021-07-06T19:08:20.281Z</time>
      </trkpt>
      <trkpt lat="47.45427" lon="7.69804">
        <ele>422.443169</ele>
        <time>2021-07-06T19:08:22.735Z</time>
      </trkpt>
      <trkpt lat="47.45428" lon="7.69769">
        <ele>422.029056</ele>
        <time>2021-07-06T19:08:30.684Z</time>
      </trkpt>
      <trkpt lat="47.45434" lon="7.69726">
        <ele>421.505171</ele>
        <time>2021-07-06T19:08:39.270Z</time>
      </trkpt>
      <trkpt lat="47.45433" lon="7.69718">
        <ele>421.409745</ele>
        <time>2021-07-06T19:08:41.435Z</time>
      </trkpt>
      <trkpt lat="47.45429" lon="7.69703">
        <ele>421.217046</ele>
        <time>2021-07-06T19:08:45.327Z</time>
      </trkpt>
      <trkpt lat="47.45406" lon="7.69683">
        <ele>420.747497</ele>
        <time>2021-07-06T19:08:54.819Z</time>
      </trkpt>
      <trkpt lat="47.4535" lon="7.69671">
        <ele>419.76693</ele>
        <time>2021-07-06T19:09:16.157Z</time>
      </trkpt>
      <trkpt lat="47.45277" lon="7.69709">
        <ele>421.603211</ele>
        <time>2021-07-06T19:09:52.877Z</time>
      </trkpt>
      <trkpt lat="47.4522" lon="7.69707">
        <ele>423.995207</ele>
        <time>2021-07-06T19:10:20.788Z</time>
      </trkpt>
      <trkpt lat="47.45199" lon="7.69717">
        <ele>424.919077</ele>
        <time>2021-07-06T19:10:31.340Z</time>
      </trkpt>
      <trkpt lat="47.45182" lon="7.6973">
        <ele>425.732067</ele>
        <time>2021-07-06T19:10:40.579Z</time>
      </trkpt>
      <trkpt lat="47.45081" lon="7.69876">
        <ele>427.840586</ele>
        <time>2021-07-06T19:11:38.216Z</time>
      </trkpt>
      <trkpt lat="47.45064" lon="7.69896">
        <ele>428.017155</ele>
        <time>2021-07-06T19:11:46.192Z</time>
      </trkpt>
      <trkpt lat="47.45053" lon="7.69901">
        <ele>428.115637</ele>
        <time>2021-07-06T19:11:50.892Z</time>
      </trkpt>
      <trkpt lat="47.45045" lon="7.69901">
        <ele>428.183626</ele>
        <time>2021-07-06T19:11:53.837Z</time>
      </trkpt>
      <trkpt lat="47.4504" lon="7.69903">
        <ele>428.229197</ele>
        <time>2021-07-06T19:11:55.530Z</time>
      </trkpt>
      <trkpt lat="47.44979" lon="7.69883">
        <ele>428.432359</ele>
        <time>2021-07-06T19:12:15.431Z</time>
      </trkpt>
      <trkpt lat="47.44936" lon="7.69852">
        <ele>428.480996</ele>
        <time>2021-07-06T19:12:30.460Z</time>
      </trkpt>
      <trkpt lat="47.44894" lon="7.6982">
        <ele>428.529978</ele>
        <time>2021-07-06T19:12:45.995Z</time>
      </trkpt>
      <trkpt lat="47.44854" lon="7.6978">
        <ele>428.87824</ele>
        <time>2021-07-06T19:13:02.689Z</time>
      </trkpt>
      <trkpt lat="47.44825" lon="7.69727">
        <ele>431.198416</ele>
        <time>2021-07-06T19:13:20.585Z</time>
      </trkpt>
      <trkpt lat="47.44803" lon="7.69716">
        <ele>432.348581</ele>
        <time>2021-07-06T19:13:30.338Z</time>
      </trkpt>
      <trkpt lat="47.44792" lon="7.69726">
        <ele>432.986452</ele>
        <time>2021-07-06T19:13:35.140Z</time>
      </trkpt>
      <trkpt lat="47.44773" lon="7.69681">
        <ele>434.779102</ele>
        <time>2021-07-06T19:13:50.323Z</time>
      </trkpt>
      <trkpt lat="47.4474" lon="7.69711">
        <ele>436.697943</ele>
        <time>2021-07-06T19:14:06.777Z</time>
      </trkpt>
      <trkpt lat="47.44726" lon="7.69725">
        <ele>437.563979</ele>
        <time>2021-07-06T19:14:13.820Z</time>
      </trkpt>
      <trkpt lat="47.44723" lon="7.69727">
        <ele>437.799362</ele>
        <time>2021-07-06T19:14:16.196Z</time>
      </trkpt>
      <trkpt lat="47.44696" lon="7.69691">
        <ele>440.596611</ele>
        <time>2021-07-06T19:14:34.365Z</time>
      </trkpt>
      <trkpt lat="47.44663" lon="7.69691">
        <ele>443.128217</ele>
        <time>2021-07-06T19:14:50.251Z</time>
      </trkpt>
      <trkpt lat="47.44652" lon="7.69694">
        <ele>443.99511</ele>
        <time>2021-07-06T19:14:57.365Z</time>
      </trkpt>
      <trkpt lat="47.44638" lon="7.69691">
        <ele>445.095187</ele>
        <time>2021-07-06T19:15:03.184Z</time>
      </trkpt>
      <trkpt lat="47.4463" lon="7.69677">
        <ele>446.071124</ele>
        <time>2021-07-06T19:15:08.859Z</time>
      </trkpt>
      <trkpt lat="47.44624" lon="7.69677">
        <ele>446.50468</ele>
        <time>2021-07-06T19:15:11.855Z</time>
      </trkpt>
      <trkpt lat="47.44619" lon="7.69654">
        <ele>447.747575</ele>
        <time>2021-07-06T19:15:18.366Z</time>
      </trkpt>
      <trkpt lat="47.44591" lon="7.69584">
        <ele>452.442033</ele>
        <time>2021-07-06T19:15:45.829Z</time>
      </trkpt>
      <trkpt lat="47.44584" lon="7.69559">
        <ele>455.043001</ele>
        <time>2021-07-06T19:15:56.298Z</time>
      </trkpt>
      <trkpt lat="47.44584" lon="7.69555">
        <ele>455.489476</ele>
        <time>2021-07-06T19:15:58.286Z</time>
      </trkpt>
      <trkpt lat="47.4458" lon="7.6956">
        <ele>456.200672</ele>
        <time>2021-07-06T19:16:00.655Z</time>
      </trkpt>
      <trkpt lat="47.4456" lon="7.69528">
        <ele>460.320265</ele>
        <time>2021-07-06T19:16:18.177Z</time>
      </trkpt>
      <trkpt lat="47.44533" lon="7.69501">
        <ele>464.995512</ele>
        <time>2021-07-06T19:16:36.238Z</time>
      </trkpt>
      <trkpt lat="47.44499" lon="7.6949">
        <ele>469.913865</ele>
        <time>2021-07-06T19:16:57.164Z</time>
      </trkpt>
      <trkpt lat="47.44495" lon="7.6949">
        <ele>470.49758</ele>
        <time>2021-07-06T19:17:04.036Z</time>
      </trkpt>
      <trkpt lat="47.44266" lon="7.69472">
        <ele>510.766344</ele>
        <time>2021-07-06T19:20:22.521Z</time>
      </trkpt>
      <trkpt lat="47.44168" lon="7.69461">
        <ele>525.07056</ele>
        <time>2021-07-06T19:21:39.207Z</time>
      </trkpt>
      <trkpt lat="47.44165" lon="7.69451">
        <ele>526.162</ele>
        <time>2021-07-06T19:21:44.085Z</time>
      </trkpt>
      <trkpt lat="47.44155" lon="7.69451">
        <ele>527.713201</ele>
        <time>2021-07-06T19:21:52.857Z</time>
      </trkpt>
      <trkpt lat="47.4405" lon="7.69466">
        <ele>538.91437</ele>
        <time>2021-07-06T19:23:02.424Z</time>
      </trkpt>
      <trkpt lat="47.43925" lon="7.69454">
        <ele>545.90716</ele>
        <time>2021-07-06T19:23:59.669Z</time>
      </trkpt>
      <trkpt lat="47.43863" lon="7.69359">
        <ele>544.270422</ele>
        <time>2021-07-06T19:24:33.422Z</time>
      </trkpt>
      <trkpt lat="47.4379" lon="7.69274">
        <ele>541.759612</ele>
        <time>2021-07-06T19:25:05.114Z</time>
      </trkpt>
      <trkpt lat="47.43666" lon="7.69189">
        <ele>537.433505</ele>
        <time>2021-07-06T19:25:52.388Z</time>
      </trkpt>
      <trkpt lat="47.4363" lon="7.69178">
        <ele>536.281321</ele>
        <time>2021-07-06T19:26:05.918Z</time>
      </trkpt>
      <trkpt lat="47.43609" lon="7.69147">
        <ele>536.445386</ele>
        <time>2021-07-06T19:26:16.093Z</time>
      </trkpt>
      <trkpt lat="47.43593" lon="7.69124">
        <ele>537.252112</ele>
        <time>2021-07-06T19:26:23.821Z</time>
      </trkpt>
      <trkpt lat="47.43558" lon="7.69005">
        <ele>540.416156</ele>
        <time>2021-07-06T19:26:56.813Z</time>
      </trkpt>
      <trkpt lat="47.43543" lon="7.68972">
        <ele>541.407554</ele>
        <time>2021-07-06T19:27:08.752Z</time>
      </trkpt>
      <trkpt lat="47.43518" lon="7.68947">
        <ele>542.680371</ele>
        <time>2021-07-06T19:27:21.173Z</time>
      </trkpt>
      <trkpt lat="47.43446" lon="7.68898">
        <ele>549.505753</ele>
        <time>2021-07-06T19:27:56.348Z</time>
      </trkpt>
      <trkpt lat="47.43376" lon="7.68875">
        <ele>555.678165</ele>
        <time>2021-07-06T19:28:30.841Z</time>
      </trkpt>
      <trkpt lat="47.43367" lon="7.68871">
        <ele>556.458449</ele>
        <time>2021-07-06T19:28:36.497Z</time>
      </trkpt>
      <trkpt lat="47.43357" lon="7.68864">
        <ele>557.420389</ele>
        <time>2021-07-06T19:28:43.335Z</time>
      </trkpt>
      <trkpt lat="47.43337" lon="7.68853">
        <ele>560.304211</ele>
        <time>2021-07-06T19:28:54.163Z</time>
      </trkpt>
      <trkpt lat="47.43321" lon="7.68843">
        <ele>562.853642</ele>
        <time>2021-07-06T19:29:04.729Z</time>
      </trkpt>
      <trkpt lat="47.43272" lon="7.6883">
        <ele>570.42298</ele>
        <time>2021-07-06T19:29:35.448Z</time>
      </trkpt>
      <trkpt lat="47.43244" lon="7.68825">
        <ele>574.55271</ele>
        <time>2021-07-06T19:29:55.672Z</time>
      </trkpt>
      <trkpt lat="47.43217" lon="7.68819">
        <ele>578.759449</ele>
        <time>2021-07-06T19:30:16.166Z</time>
      </trkpt>
      <trkpt lat="47.43172" lon="7.68814">
        <ele>585.284399</ele>
        <time>2021-07-06T19:30:45.834Z</time>
      </trkpt>
      <trkpt lat="47.43159" lon="7.68805">
        <ele>586.710951</ele>
        <time>2021-07-06T19:30:54.219Z</time>
      </trkpt>
      <trkpt lat="47.43141" lon="7.68796">
        <ele>588.66048</ele>
        <time>2021-07-06T19:31:07.478Z</time>
      </trkpt>
      <trkpt lat="47.43117" lon="7.68805">
        <ele>591.180861</ele>
        <time>2021-07-06T19:31:23.495Z</time>
      </trkpt>
      <trkpt lat="47.42906" lon="7.6895">
        <ele>604.04234</ele>
        <time>2021-07-06T19:33:05.791Z</time>
      </trkpt>
      <trkpt lat="47.42902" lon="7.68962">
        <ele>604.111735</ele>
        <time>2021-07-06T19:33:08.514Z</time>
      </trkpt>
      <trkpt lat="47.42894" lon="7.6897">
        <ele>604.182835</ele>
        <time>2021-07-06T19:33:11.294Z</time>
      </trkpt>
      <trkpt lat="47.42891" lon="7.68976">
        <ele>604.222956</ele>
        <time>2021-07-06T19:33:12.650Z</time>
      </trkpt>
      <trkpt lat="47.42871" lon="7.69027">
        <ele>604.528886</ele>
        <time>2021-07-06T19:33:23.796Z</time>
      </trkpt>
      <trkpt lat="47.42866" lon="7.69047">
        <ele>602.304249</ele>
        <time>2021-07-06T19:33:27.326Z</time>
      </trkpt>
      <trkpt lat="47.42861" lon="7.69066">
        <ele>599.892438</ele>
        <time>2021-07-06T19:33:31.033Z</time>
      </trkpt>
      <trkpt lat="47.42842" lon="7.69092">
        <ele>595.6665</ele>
        <time>2021-07-06T19:33:37.461Z</time>
      </trkpt>
      <trkpt lat="47.42809" lon="7.69114">
        <ele>589.572655</ele>
        <time>2021-07-06T19:33:46.741Z</time>
      </trkpt>
      <trkpt lat="47.42798" lon="7.69128">
        <ele>587.201799</ele>
        <time>2021-07-06T19:33:50.323Z</time>
      </trkpt>
      <trkpt lat="47.42791" lon="7.69153">
        <ele>584.096131</ele>
        <time>2021-07-06T19:33:55.038Z</time>
      </trkpt>
      <trkpt lat="47.42786" lon="7.69192">
        <ele>579.562542</ele>
        <time>2021-07-06T19:34:01.905Z</time>
      </trkpt>
      <trkpt lat="47.42782" lon="7.69203">
        <ele>578.281207</ele>
        <time>2021-07-06T19:34:04.063Z</time>
      </trkpt>
      <trkpt lat="47.4272" lon="7.69288">
        <ele>565.430704</ele>
        <time>2021-07-06T19:34:25.537Z</time>
      </trkpt>
      <trkpt lat="47.42691" lon="7.69315">
        <ele>560.426613</ele>
        <time>2021-07-06T19:34:34.252Z</time>
      </trkpt>
      <trkpt lat="47.42672" lon="7.69325">
        <ele>557.395562</ele>
        <time>2021-07-06T19:34:39.523Z</time>
      </trkpt>
      <trkpt lat="47.42652" lon="7.69334">
        <ele>554.288412</ele>
        <time>2021-07-06T19:34:44.978Z</time>
      </trkpt>
      <trkpt lat="47.42634" lon="7.6933">
        <ele>551.674707</ele>
        <time>2021-07-06T19:34:49.717Z</time>
      </trkpt>
      <trkpt lat="47.42605" lon="7.69307">
        <ele>547.746353</ele>
        <time>2021-07-06T19:34:58.673Z</time>
      </trkpt>
      <trkpt lat="47.42582" lon="7.69302">
        <ele>546.637632</ele>
        <time>2021-07-06T19:35:05.154Z</time>
      </trkpt>
      <trkpt lat="47.42564" lon="7.69312">
        <ele>545.710958</ele>
        <time>2021-07-06T19:35:10.510Z</time>
      </trkpt>
      <trkpt lat="47.42554" lon="7.69335">
        <ele>544.804111</ele>
        <time>2021-07-06T19:35:15.902Z</time>
      </trkpt>
      <trkpt lat="47.42552" lon="7.6935">
        <ele>544.311034</ele>
        <time>2021-07-06T19:35:18.770Z</time>
      </trkpt>
      <trkpt lat="47.42551" lon="7.69367">
        <ele>543.740989</ele>
        <time>2021-07-06T19:35:22.216Z</time>
      </trkpt>
      <trkpt lat="47.4253" lon="7.6932">
        <ele>541.901551</ele>
        <time>2021-07-06T19:35:33.929Z</time>
      </trkpt>
      <trkpt lat="47.42512" lon="7.69288">
        <ele>540.518129</ele>
        <time>2021-07-06T19:35:42.868Z</time>
      </trkpt>
      <trkpt lat="47.42481" lon="7.69258">
        <ele>539.250745</ele>
        <time>2021-07-06T19:35:54.187Z</time>
      </trkpt>
      <trkpt lat="47.42453" lon="7.69249">
        <ele>538.811718</ele>
        <time>2021-07-06T19:36:02.984Z</time>
      </trkpt>
      <trkpt lat="47.42435" lon="7.69237">
        <ele>538.501536</ele>
        <time>2021-07-06T19:36:09.028Z</time>
      </trkpt>
      <trkpt lat="47.42392" lon="7.69222">
        <ele>537.813826</ele>
        <time>2021-07-06T19:36:22.923Z</time>
      </trkpt>
      <trkpt lat="47.42361" lon="7.69229">
        <ele>537.322333</ele>
        <time>2021-07-06T19:36:32.842Z</time>
      </trkpt>
      <trkpt lat="47.42319" lon="7.69255">
        <ele>536.834396</ele>
        <time>2021-07-06T19:36:47.362Z</time>
      </trkpt>
      <trkpt lat="47.42297" lon="7.69242">
        <ele>537.483138</ele>
        <time>2021-07-06T19:36:55.170Z</time>
      </trkpt>
      <trkpt lat="47.42267" lon="7.69189">
        <ele>538.777251</ele>
        <time>2021-07-06T19:37:11.705Z</time>
      </trkpt>
      <trkpt lat="47.42243" lon="7.69163">
        <ele>539.5924</ele>
        <time>2021-07-06T19:37:22.588Z</time>
      </trkpt>
      <trkpt lat="47.42194" lon="7.69142">
        <ele>540.981137</ele>
        <time>2021-07-06T19:37:41.917Z</time>
      </trkpt>
      <trkpt lat="47.42178" lon="7.69126">
        <ele>541.505896</ele>
        <time>2021-07-06T19:37:49.672Z</time>
      </trkpt>
      <trkpt lat="47.4216" lon="7.69089">
        <ele>542.633838</ele>
        <time>2021-07-06T19:38:02.486Z</time>
      </trkpt>
      <trkpt lat="47.42153" lon="7.68998">
        <ele>545.034622</ele>
        <time>2021-07-06T19:38:29.194Z</time>
      </trkpt>
      <trkpt lat="47.42136" lon="7.68927">
        <ele>547.014363</ele>
        <time>2021-07-06T19:38:48.638Z</time>
      </trkpt>
      <trkpt lat="47.42123" lon="7.68904">
        <ele>547.809202</ele>
        <time>2021-07-06T19:38:56.569Z</time>
      </trkpt>
      <trkpt lat="47.42107" lon="7.68897">
        <ele>548.437406</ele>
        <time>2021-07-06T19:39:01.838Z</time>
      </trkpt>
      <trkpt lat="47.42086" lon="7.68896">
        <ele>547.760834</ele>
        <time>2021-07-06T19:39:09.373Z</time>
      </trkpt>
      <trkpt lat="47.4208" lon="7.68893">
        <ele>547.491535</ele>
        <time>2021-07-06T19:39:11.261Z</time>
      </trkpt>
      <trkpt lat="47.41995" lon="7.6884">
        <ele>543.060584</ele>
        <time>2021-07-06T19:39:43.793Z</time>
      </trkpt>
      <trkpt lat="47.41928" lon="7.68778">
        <ele>539.006827</ele>
        <time>2021-07-06T19:40:08.645Z</time>
      </trkpt>
      <trkpt lat="47.419" lon="7.6874">
        <ele>536.577675</ele>
        <time>2021-07-06T19:40:20.380Z</time>
      </trkpt>
      <trkpt lat="47.41907" lon="7.68785">
        <ele>534.586528</ele>
        <time>2021-07-06T19:40:28.769Z</time>
      </trkpt>
      <trkpt lat="47.41916" lon="7.68866">
        <ele>530.963493</ele>
        <time>2021-07-06T19:40:44.731Z</time>
      </trkpt>
      <trkpt lat="47.41924" lon="7.68893">
        <ele>529.67026</ele>
        <time>2021-07-06T19:40:50.413Z</time>
      </trkpt>
      <trkpt lat="47.41911" lon="7.68873">
        <ele>528.422662</ele>
        <time>2021-07-06T19:40:56.273Z</time>
      </trkpt>
      <trkpt lat="47.41878" lon="7.68784">
        <ele>526.76646</ele>
        <time>2021-07-06T19:41:18.447Z</time>
      </trkpt>
      <trkpt lat="47.41862" lon="7.68712">
        <ele>525.59282</ele>
        <time>2021-07-06T19:41:34.473Z</time>
      </trkpt>
      <trkpt lat="47.41842" lon="7.68661">
        <ele>524.672214</ele>
        <time>2021-07-06T19:41:47.403Z</time>
      </trkpt>
      <trkpt lat="47.41826" lon="7.68633">
        <ele>523.83015</ele>
        <time>2021-07-06T19:41:55.952Z</time>
      </trkpt>
      <trkpt lat="47.41821" lon="7.68632">
        <ele>523.198016</ele>
        <time>2021-07-06T19:41:57.400Z</time>
      </trkpt>
      <trkpt lat="47.41799" lon="7.68615">
        <ele>519.953813</ele>
        <time>2021-07-06T19:42:05.541Z</time>
      </trkpt>
      <trkpt lat="47.41796" lon="7.68619">
        <ele>519.395702</ele>
        <time>2021-07-06T19:42:07.050Z</time>
      </trkpt>
      <trkpt lat="47.41806" lon="7.68665">
        <ele>515.15845</ele>
        <time>2021-07-06T19:42:16.934Z</time>
      </trkpt>
      <trkpt lat="47.4182" lon="7.68698">
        <ele>511.773784</ele>
        <time>2021-07-06T19:42:24.773Z</time>
      </trkpt>
      <trkpt lat="47.4182" lon="7.68777">
        <ele>504.771093</ele>
        <time>2021-07-06T19:42:41.057Z</time>
      </trkpt>
      <trkpt lat="47.41815" lon="7.68796">
        <ele>503.018393</ele>
        <time>2021-07-06T19:42:45.166Z</time>
      </trkpt>
      <trkpt lat="47.41814" lon="7.68849">
        <ele>498.144839</ele>
        <time>2021-07-06T19:42:55.772Z</time>
      </trkpt>
      <trkpt lat="47.4181" lon="7.68998">
        <ele>483.67739</ele>
        <time>2021-07-06T19:43:25.901Z</time>
      </trkpt>
      <trkpt lat="47.41798" lon="7.69039">
        <ele>479.342362</ele>
        <time>2021-07-06T19:43:35.074Z</time>
      </trkpt>
      <trkpt lat="47.41793" lon="7.69054">
        <ele>477.748787</ele>
        <time>2021-07-06T19:43:38.426Z</time>
      </trkpt>
      <trkpt lat="47.41793" lon="7.69068">
        <ele>476.381189</ele>
        <time>2021-07-06T19:43:41.861Z</time>
      </trkpt>
      <trkpt lat="47.41791" lon="7.69189">
        <ele>477.94359</ele>
        <time>2021-07-06T19:44:15.851Z</time>
      </trkpt>
      <trkpt lat="47.41789" lon="7.69196">
        <ele>478.150385</ele>
        <time>2021-07-06T19:44:18.169Z</time>
      </trkpt>
      <trkpt lat="47.41788" lon="7.69203">
        <ele>478.334015</ele>
        <time>2021-07-06T19:44:19.865Z</time>
      </trkpt>
      <trkpt lat="47.41778" lon="7.69257">
        <ele>479.860494</ele>
        <time>2021-07-06T19:44:38.714Z</time>
      </trkpt>
      <trkpt lat="47.4176" lon="7.69325">
        <ele>481.854388</ele>
        <time>2021-07-06T19:45:08.094Z</time>
      </trkpt>
      <trkpt lat="47.41753" lon="7.69383">
        <ele>483.784938</ele>
        <time>2021-07-06T19:45:33.371Z</time>
      </trkpt>
      <trkpt lat="47.41746" lon="7.69381">
        <ele>484.128808</ele>
        <time>2021-07-06T19:45:36.410Z</time>
      </trkpt>
      <trkpt lat="47.4169" lon="7.6936">
        <ele>487.111624</ele>
        <time>2021-07-06T19:46:03.251Z</time>
      </trkpt>
      <trkpt lat="47.41576" lon="7.69296">
        <ele>492.94476</ele>
        <time>2021-07-06T19:46:45.069Z</time>
      </trkpt>
      <trkpt lat="47.41568" lon="7.69293">
        <ele>493.254471</ele>
        <time>2021-07-06T19:46:47.166Z</time>
      </trkpt>
      <trkpt lat="47.41567" lon="7.69301">
        <ele>493.469229</ele>
        <time>2021-07-06T19:46:50.289Z</time>
      </trkpt>
      <trkpt lat="47.41546" lon="7.69297">
        <ele>494.312821</ele>
        <time>2021-07-06T19:46:57.751Z</time>
      </trkpt>
      <trkpt lat="47.41524" lon="7.69297">
        <ele>495.215181</ele>
        <time>2021-07-06T19:47:05.866Z</time>
      </trkpt>
      <trkpt lat="47.41501" lon="7.69301">
        <ele>496.13643</ele>
        <time>2021-07-06T19:47:13.872Z</time>
      </trkpt>
      <trkpt lat="47.41486" lon="7.69347">
        <ele>497.527745</ele>
        <time>2021-07-06T19:47:31.067Z</time>
      </trkpt>
      <trkpt lat="47.41451" lon="7.69411">
        <ele>502.52741</ele>
        <time>2021-07-06T19:48:03.580Z</time>
      </trkpt>
      <trkpt lat="47.41445" lon="7.69447">
        <ele>506.154816</ele>
        <time>2021-07-06T19:48:20.568Z</time>
      </trkpt>
      <trkpt lat="47.41453" lon="7.6948">
        <ele>509.628939</ele>
        <time>2021-07-06T19:48:37.655Z</time>
      </trkpt>
      <trkpt lat="47.4153" lon="7.69634">
        <ele>528.626064</ele>
        <time>2021-07-06T19:50:23.540Z</time>
      </trkpt>
      <trkpt lat="47.41534" lon="7.69653">
        <ele>530.952712</ele>
        <time>2021-07-06T19:50:33.724Z</time>
      </trkpt>
      <trkpt lat="47.41531" lon="7.69675">
        <ele>533.385698</ele>
        <time>2021-07-06T19:50:46.324Z</time>
      </trkpt>
      <trkpt lat="47.41517" lon="7.69688">
        <ele>536.042902</ele>
        <time>2021-07-06T19:50:58.100Z</time>
      </trkpt>
      <trkpt lat="47.41456" lon="7.69767">
        <ele>549.395476</ele>
        <time>2021-07-06T19:52:03.964Z</time>
      </trkpt>
      <trkpt lat="47.41392" lon="7.69809">
        <ele>558.872312</ele>
        <time>2021-07-06T19:52:56.967Z</time>
      </trkpt>
      <trkpt lat="47.41373" lon="7.69821">
        <ele>561.321838</ele>
        <time>2021-07-06T19:53:11.086Z</time>
      </trkpt>
      <trkpt lat="47.41323" lon="7.69809">
        <ele>567.37481</ele>
        <time>2021-07-06T19:53:42.342Z</time>
      </trkpt>
      <trkpt lat="47.41255" lon="7.6981">
        <ele>575.395855</ele>
        <time>2021-07-06T19:54:24.826Z</time>
      </trkpt>
      <trkpt lat="47.41199" lon="7.69796">
        <ele>580.487111</ele>
        <time>2021-07-06T19:54:59.061Z</time>
      </trkpt>
      <trkpt lat="47.41175" lon="7.69809">
        <ele>582.799758</ele>
        <time>2021-07-06T19:55:13.032Z</time>
      </trkpt>
      <trkpt lat="47.41152" lon="7.6984">
        <ele>585.592418</ele>
        <time>2021-07-06T19:55:29.561Z</time>
      </trkpt>
      <trkpt lat="47.4114" lon="7.69845">
        <ele>586.758702</ele>
        <time>2021-07-06T19:55:38.104Z</time>
      </trkpt>
      <trkpt lat="47.41137" lon="7.69844">
        <ele>587.009139</ele>
        <time>2021-07-06T19:55:40.627Z</time>
      </trkpt>
      <trkpt lat="47.41134" lon="7.6984">
        <ele>587.338456</ele>
        <time>2021-07-06T19:55:42.189Z</time>
      </trkpt>
      <trkpt lat="47.41122" lon="7.69821">
        <ele>588.904144</ele>
        <time>2021-07-06T19:55:51.315Z</time>
      </trkpt>
      <trkpt lat="47.41109" lon="7.69796">
        <ele>590.852386</ele>
        <time>2021-07-06T19:56:04.236Z</time>
      </trkpt>
      <trkpt lat="47.41106" lon="7.69822">
        <ele>592.375552</ele>
        <time>2021-07-06T19:56:14.225Z</time>
      </trkpt>
      <trkpt lat="47.41114" lon="7.69847">
        <ele>593.906331</ele>
        <time>2021-07-06T19:56:24.843Z</time>
      </trkpt>
      <trkpt lat="47.4111" lon="7.69867">
        <ele>595.105097</ele>
        <time>2021-07-06T19:56:32.626Z</time>
      </trkpt>
      <trkpt lat="47.41088" lon="7.69871">
        <ele>596.930469</ele>
        <time>2021-07-06T19:56:45.421Z</time>
      </trkpt>
      <trkpt lat="47.41078" lon="7.69888">
        <ele>598.199507</ele>
        <time>2021-07-06T19:56:53.678Z</time>
      </trkpt>
      <trkpt lat="47.41075" lon="7.69901">
        <ele>598.999166</ele>
        <time>2021-07-06T19:57:00.188Z</time>
      </trkpt>
      <trkpt lat="47.4107" lon="7.69886">
        <ele>599.996136</ele>
        <time>2021-07-06T19:57:06.511Z</time>
      </trkpt>
      <trkpt lat="47.41028" lon="7.69807">
        <ele>605.606472</ele>
        <time>2021-07-06T19:57:44.275Z</time>
      </trkpt>
      <trkpt lat="47.41012" lon="7.69754">
        <ele>608.385351</ele>
        <time>2021-07-06T19:58:04.357Z</time>
      </trkpt>
      <trkpt lat="47.40921" lon="7.69654">
        <ele>616.120715</ele>
        <time>2021-07-06T19:59:01.143Z</time>
      </trkpt>
      <trkpt lat="47.40917" lon="7.69653">
        <ele>616.392747</ele>
        <time>2021-07-06T19:59:03.102Z</time>
      </trkpt>
      <trkpt lat="47.40917" lon="7.69659">
        <ele>616.645651</ele>
        <time>2021-07-06T19:59:04.874Z</time>
      </trkpt>
      <trkpt lat="47.40928" lon="7.69701">
        <ele>618.847275</ele>
        <time>2021-07-06T19:59:21.691Z</time>
      </trkpt>
      <trkpt lat="47.40954" lon="7.6976">
        <ele>623.30367</ele>
        <time>2021-07-06T19:59:46.528Z</time>
      </trkpt>
      <trkpt lat="47.4097" lon="7.69815">
        <ele>627.077723</ele>
        <time>2021-07-06T20:00:11.169Z</time>
      </trkpt>
      <trkpt lat="47.40969" lon="7.69816">
        <ele>627.160791</ele>
        <time>2021-07-06T20:00:11.916Z</time>
      </trkpt>
      <trkpt lat="47.40968" lon="7.69816">
        <ele>627.246224</ele>
        <time>2021-07-06T20:00:14.162Z</time>
      </trkpt>
      <trkpt lat="47.40945" lon="7.69778">
        <ele>630.458166</ele>
        <time>2021-07-06T20:00:33.343Z</time>
      </trkpt>
      <trkpt lat="47.40907" lon="7.69747">
        <ele>634.485509</ele>
        <time>2021-07-06T20:01:01.572Z</time>
      </trkpt>
      <trkpt lat="47.40884" lon="7.69715">
        <ele>637.025266</ele>
        <time>2021-07-06T20:01:21.596Z</time>
      </trkpt>
      <trkpt lat="47.40872" lon="7.69711">
        <ele>637.94874</ele>
        <time>2021-07-06T20:01:27.722Z</time>
      </trkpt>
      <trkpt lat="47.40869" lon="7.69713">
        <ele>638.150092</ele>
        <time>2021-07-06T20:01:31.843Z</time>
      </trkpt>
      <trkpt lat="47.40858" lon="7.69682">
        <ele>639.91525</ele>
        <time>2021-07-06T20:01:45.562Z</time>
      </trkpt>
      <trkpt lat="47.4084" lon="7.69631">
        <ele>642.761948</ele>
        <time>2021-07-06T20:02:06.189Z</time>
      </trkpt>
      <trkpt lat="47.408" lon="7.69586">
        <ele>646.44425</ele>
        <time>2021-07-06T20:02:33.537Z</time>
      </trkpt>
      <trkpt lat="47.40779" lon="7.69523">
        <ele>647.66176</ele>
        <time>2021-07-06T20:02:55.758Z</time>
      </trkpt>
      <trkpt lat="47.40719" lon="7.69478">
        <ele>644.598509</ele>
        <time>2021-07-06T20:03:20.232Z</time>
      </trkpt>
      <trkpt lat="47.40698" lon="7.69455">
        <ele>643.397191</ele>
        <time>2021-07-06T20:03:29.290Z</time>
      </trkpt>
      <trkpt lat="47.40689" lon="7.69433">
        <ele>642.593179</ele>
        <time>2021-07-06T20:03:35.298Z</time>
      </trkpt>
      <trkpt lat="47.40683" lon="7.69418">
        <ele>642.060212</ele>
        <time>2021-07-06T20:03:39.109Z</time>
      </trkpt>
      <trkpt lat="47.40653" lon="7.69351">
        <ele>636.95277</ele>
        <time>2021-07-06T20:03:55.813Z</time>
      </trkpt>
      <trkpt lat="47.40602" lon="7.69279">
        <ele>622.536225</ele>
        <time>2021-07-06T20:04:16.642Z</time>
      </trkpt>
      <trkpt lat="47.40558" lon="7.6924">
        <ele>611.998721</ele>
        <time>2021-07-06T20:04:31.914Z</time>
      </trkpt>
      <trkpt lat="47.40535" lon="7.69212">
        <ele>605.753346</ele>
        <time>2021-07-06T20:04:41.038Z</time>
      </trkpt>
      <trkpt lat="47.40521" lon="7.692">
        <ele>602.444904</ele>
        <time>2021-07-06T20:04:46.086Z</time>
      </trkpt>
      <trkpt lat="47.40459" lon="7.69173">
        <ele>587.369113</ele>
        <time>2021-07-06T20:05:05.694Z</time>
      </trkpt>
      <trkpt lat="47.40432" lon="7.69182">
        <ele>581.074566</ele>
        <time>2021-07-06T20:05:13.818Z</time>
      </trkpt>
      <trkpt lat="47.40396" lon="7.69214">
        <ele>571.248227</ele>
        <time>2021-07-06T20:05:26.631Z</time>
      </trkpt>
      <trkpt lat="47.40355" lon="7.69203">
        <ele>561.7796</ele>
        <time>2021-07-06T20:05:38.769Z</time>
      </trkpt>
      <trkpt lat="47.40336" lon="7.69219">
        <ele>557.64571</ele>
        <time>2021-07-06T20:05:45.276Z</time>
      </trkpt>
      <trkpt lat="47.40271" lon="7.69237">
        <ele>544.981805</ele>
        <time>2021-07-06T20:06:05.127Z</time>
      </trkpt>
      <trkpt lat="47.40238" lon="7.69223">
        <ele>538.545293</ele>
        <time>2021-07-06T20:06:15.244Z</time>
      </trkpt>
      <trkpt lat="47.4023" lon="7.6922">
        <ele>536.997603</ele>
        <time>2021-07-06T20:06:17.767Z</time>
      </trkpt>
      <trkpt lat="47.40218" lon="7.69218">
        <ele>534.638099</ele>
        <time>2021-07-06T20:06:21.479Z</time>
      </trkpt>
      <trkpt lat="47.402" lon="7.69214">
        <ele>531.155007</ele>
        <time>2021-07-06T20:06:26.959Z</time>
      </trkpt>
      <trkpt lat="47.40183" lon="7.69189">
        <ele>527.076467</ele>
        <time>2021-07-06T20:06:34.133Z</time>
      </trkpt>
      <trkpt lat="47.40177" lon="7.69178">
        <ele>526.060371</ele>
        <time>2021-07-06T20:06:36.994Z</time>
      </trkpt>
      <trkpt lat="47.40167" lon="7.6917">
        <ele>524.860192</ele>
        <time>2021-07-06T20:06:39.850Z</time>
      </trkpt>
      <trkpt lat="47.40154" lon="7.69154">
        <ele>523.061327</ele>
        <time>2021-07-06T20:06:44.383Z</time>
      </trkpt>
      <trkpt lat="47.40147" lon="7.69122">
        <ele>520.628826</ele>
        <time>2021-07-06T20:06:50.206Z</time>
      </trkpt>
      <trkpt lat="47.40096" lon="7.69107">
        <ele>515.108651</ele>
        <time>2021-07-06T20:07:03.680Z</time>
      </trkpt>
      <trkpt lat="47.40085" lon="7.69097">
        <ele>513.73786</ele>
        <time>2021-07-06T20:07:06.990Z</time>
      </trkpt>
      <trkpt lat="47.40077" lon="7.69099">
        <ele>512.91134</ele>
        <time>2021-07-06T20:07:09.356Z</time>
      </trkpt>
      <trkpt lat="47.40053" lon="7.69103">
        <ele>510.325325</ele>
        <time>2021-07-06T20:07:16.124Z</time>
      </trkpt>
      <trkpt lat="47.40045" lon="7.69105">
        <ele>509.498805</ele>
        <time>2021-07-06T20:07:18.262Z</time>
      </trkpt>
      <trkpt lat="47.40036" lon="7.69106">
        <ele>508.502301</ele>
        <time>2021-07-06T20:07:21.404Z</time>
      </trkpt>
      <trkpt lat="47.40011" lon="7.69109">
        <ele>508.904602</ele>
        <time>2021-07-06T20:07:29.137Z</time>
      </trkpt>
      <trkpt lat="47.40004" lon="7.6911">
        <ele>509.019112</ele>
        <time>2021-07-06T20:07:31.554Z</time>
      </trkpt>
      <trkpt lat="47.39974" lon="7.69112">
        <ele>509.507909</ele>
        <time>2021-07-06T20:07:41.331Z</time>
      </trkpt>
      <trkpt lat="47.39962" lon="7.69111">
        <ele>509.700578</ele>
        <time>2021-07-06T20:07:45.667Z</time>
      </trkpt>
      <trkpt lat="47.39953" lon="7.69109">
        <ele>509.84782</ele>
        <time>2021-07-06T20:07:48.704Z</time>
      </trkpt>
      <trkpt lat="47.39939" lon="7.6911">
        <ele>510.087215</ele>
        <time>2021-07-06T20:07:53.723Z</time>
      </trkpt>
      <trkpt lat="47.39932" lon="7.6911">
        <ele>510.197942</ele>
        <time>2021-07-06T20:07:56.425Z</time>
      </trkpt>
      <trkpt lat="47.39896" lon="7.69118">
        <ele>510.789434</ele>
        <time>2021-07-06T20:08:10.709Z</time>
      </trkpt>
      <trkpt lat="47.39893" lon="7.69119">
        <ele>510.831085</ele>
        <time>2021-07-06T20:08:11.687Z</time>
      </trkpt>
      <trkpt lat="47.39867" lon="7.69128">
        <ele>511.269682</ele>
        <time>2021-07-06T20:08:22.468Z</time>
      </trkpt>
      <trkpt lat="47.39848" lon="7.69135">
        <ele>512.045997</ele>
        <time>2021-07-06T20:08:29.776Z</time>
      </trkpt>
      <trkpt lat="47.39832" lon="7.69146">
        <ele>513.261464</ele>
        <time>2021-07-06T20:08:37.810Z</time>
      </trkpt>
      <trkpt lat="47.39822" lon="7.69153">
        <ele>513.977978</ele>
        <time>2021-07-06T20:08:42.113Z</time>
      </trkpt>
      <trkpt lat="47.39812" lon="7.69161">
        <ele>514.692337</ele>
        <time>2021-07-06T20:08:46.259Z</time>
      </trkpt>
      <trkpt lat="47.39807" lon="7.69168">
        <ele>515.172836</ele>
        <time>2021-07-06T20:08:50.155Z</time>
      </trkpt>
      <trkpt lat="47.39795" lon="7.69181">
        <ele>516.123283</ele>
        <time>2021-07-06T20:08:56.319Z</time>
      </trkpt>
      <trkpt lat="47.39788" lon="7.69188">
        <ele>516.704945</ele>
        <time>2021-07-06T20:08:59.669Z</time>
      </trkpt>
      <trkpt lat="47.39783" lon="7.69192">
        <ele>517.056659</ele>
        <time>2021-07-06T20:09:01.946Z</time>
      </trkpt>
      <trkpt lat="47.39773" lon="7.69202">
        <ele>517.817063</ele>
        <time>2021-07-06T20:09:08.278Z</time>
      </trkpt>
      <trkpt lat="47.3977" lon="7.69203">
        <ele>518.060344</ele>
        <time>2021-07-06T20:09:09.880Z</time>
      </trkpt>
      <trkpt lat="47.39763" lon="7.69205">
        <ele>518.529462</ele>
        <time>2021-07-06T20:09:12.681Z</time>
      </trkpt>
      <trkpt lat="47.39759" lon="7.69203">
        <ele>518.804735</ele>
        <time>2021-07-06T20:09:14.385Z</time>
      </trkpt>
      <trkpt lat="47.39738" lon="7.69194">
        <ele>520.245193</ele>
        <time>2021-07-06T20:09:25.000Z</time>
      </trkpt>
      <trkpt lat="47.39717" lon="7.69184">
        <ele>521.651329</ele>
        <time>2021-07-06T20:09:33.683Z</time>
      </trkpt>
      <trkpt lat="47.39715" lon="7.69183">
        <ele>521.832989</ele>
        <time>2021-07-06T20:09:35.099Z</time>
      </trkpt>
      <trkpt lat="47.39713" lon="7.69181">
        <ele>521.967749</ele>
        <time>2021-07-06T20:09:36.286Z</time>
      </trkpt>
      <trkpt lat="47.39703" lon="7.69187">
        <ele>522.676274</ele>
        <time>2021-07-06T20:09:42.898Z</time>
      </trkpt>
      <trkpt lat="47.39677" lon="7.69194">
        <ele>524.051204</ele>
        <time>2021-07-06T20:09:54.028Z</time>
      </trkpt>
      <trkpt lat="47.39672" lon="7.69195">
        <ele>524.290154</ele>
        <time>2021-07-06T20:09:57.588Z</time>
      </trkpt>
      <trkpt lat="47.39607" lon="7.69212">
        <ele>527.261256</ele>
        <time>2021-07-06T20:10:24.098Z</time>
      </trkpt>
      <trkpt lat="47.39584" lon="7.69241">
        <ele>528.601635</ele>
        <time>2021-07-06T20:10:35.102Z</time>
      </trkpt>
      <trkpt lat="47.39574" lon="7.6926">
        <ele>529.348693</ele>
        <time>2021-07-06T20:10:42.661Z</time>
      </trkpt>
      <trkpt lat="47.39568" lon="7.69261">
        <ele>529.601555</ele>
        <time>2021-07-06T20:10:44.428Z</time>
      </trkpt>
      <trkpt lat="47.395" lon="7.69286">
        <ele>531.709816</ele>
        <time>2021-07-06T20:11:09.026Z</time>
      </trkpt>
      <trkpt lat="47.39497" lon="7.69286">
        <ele>531.74067</ele>
        <time>2021-07-06T20:11:09.777Z</time>
      </trkpt>
      <trkpt lat="47.39493" lon="7.69285">
        <ele>531.790054</ele>
        <time>2021-07-06T20:11:11.143Z</time>
      </trkpt>
      <trkpt lat="47.3949" lon="7.69283">
        <ele>531.836668</ele>
        <time>2021-07-06T20:11:12.420Z</time>
      </trkpt>
      <trkpt lat="47.39485" lon="7.6928">
        <ele>531.891955</ele>
        <time>2021-07-06T20:11:13.916Z</time>
      </trkpt>
      <trkpt lat="47.39473" lon="7.69269">
        <ele>532.068069</ele>
        <time>2021-07-06T20:11:19.408Z</time>
      </trkpt>
      <trkpt lat="47.39466" lon="7.69262">
        <ele>532.169677</ele>
        <time>2021-07-06T20:11:22.091Z</time>
      </trkpt>
      <trkpt lat="47.39448" lon="7.69274">
        <ele>532.403636</ele>
        <time>2021-07-06T20:11:28.807Z</time>
      </trkpt>
      <trkpt lat="47.39432" lon="7.69284">
        <ele>532.60766</ele>
        <time>2021-07-06T20:11:34.672Z</time>
      </trkpt>
      <trkpt lat="47.39396" lon="7.69305">
        <ele>533.059371</ele>
        <time>2021-07-06T20:11:47.336Z</time>
      </trkpt>
      <trkpt lat="47.3939" lon="7.69308">
        <ele>533.135529</ele>
        <time>2021-07-06T20:11:49.545Z</time>
      </trkpt>
      <trkpt lat="47.39387" lon="7.6931">
        <ele>533.181398</ele>
        <time>2021-07-06T20:11:50.885Z</time>
      </trkpt>
      <trkpt lat="47.39373" lon="7.69325">
        <ele>533.385874</ele>
        <time>2021-07-06T20:11:56.742Z</time>
      </trkpt>
      <trkpt lat="47.39369" lon="7.69331">
        <ele>533.446821</ele>
        <time>2021-07-06T20:11:58.381Z</time>
      </trkpt>
      <trkpt lat="47.39366" lon="7.69336">
        <ele>533.578284</ele>
        <time>2021-07-06T20:12:00.056Z</time>
      </trkpt>
      <trkpt lat="47.39363" lon="7.69343">
        <ele>533.756753</ele>
        <time>2021-07-06T20:12:01.993Z</time>
      </trkpt>
      <trkpt lat="47.39361" lon="7.69345">
        <ele>533.820384</ele>
        <time>2021-07-06T20:12:02.682Z</time>
      </trkpt>
      <trkpt lat="47.39352" lon="7.69358">
        <ele>534.229379</ele>
        <time>2021-07-06T20:12:07.047Z</time>
      </trkpt>
      <trkpt lat="47.39345" lon="7.69365">
        <ele>534.505355</ele>
        <time>2021-07-06T20:12:10.044Z</time>
      </trkpt>
      <trkpt lat="47.3934" lon="7.6937">
        <ele>534.688044</ele>
        <time>2021-07-06T20:12:12.071Z</time>
      </trkpt>
      <trkpt lat="47.39324" lon="7.69397">
        <ele>535.482862</ele>
        <time>2021-07-06T20:12:20.923Z</time>
      </trkpt>
      <trkpt lat="47.3931" lon="7.69418">
        <ele>536.118353</ele>
        <time>2021-07-06T20:12:28.365Z</time>
      </trkpt>
      <trkpt lat="47.39293" lon="7.69439">
        <ele>536.829198</ele>
        <time>2021-07-06T20:12:36.452Z</time>
      </trkpt>
      <trkpt lat="47.39176" lon="7.69518">
        <ele>542.296579</ele>
        <time>2021-07-06T20:13:27.297Z</time>
      </trkpt>
      <trkpt lat="47.39151" lon="7.69533">
        <ele>543.849638</ele>
        <time>2021-07-06T20:13:38.389Z</time>
      </trkpt>
      <trkpt lat="47.39131" lon="7.69551">
        <ele>545.187896</ele>
        <time>2021-07-06T20:13:47.738Z</time>
      </trkpt>
      <trkpt lat="47.39117" lon="7.69562">
        <ele>546.121219</ele>
        <time>2021-07-06T20:13:54.630Z</time>
      </trkpt>
      <trkpt lat="47.39096" lon="7.69582">
        <ele>547.521742</ele>
        <time>2021-07-06T20:14:04.685Z</time>
      </trkpt>
      <trkpt lat="47.39077" lon="7.69602">
        <ele>548.853101</ele>
        <time>2021-07-06T20:14:15.179Z</time>
      </trkpt>
      <trkpt lat="47.39067" lon="7.69613">
        <ele>549.646287</ele>
        <time>2021-07-06T20:14:20.847Z</time>
      </trkpt>
      <trkpt lat="47.39046" lon="7.69632">
        <ele>551.983616</ele>
        <time>2021-07-06T20:14:31.831Z</time>
      </trkpt>
      <trkpt lat="47.39039" lon="7.69638">
        <ele>552.797548</ele>
        <time>2021-07-06T20:14:35.430Z</time>
      </trkpt>
      <trkpt lat="47.3902" lon="7.69656">
        <ele>554.887871</ele>
        <time>2021-07-06T20:14:45.863Z</time>
      </trkpt>
      <trkpt lat="47.39015" lon="7.69661">
        <ele>555.507006</ele>
        <time>2021-07-06T20:14:49.319Z</time>
      </trkpt>
      <trkpt lat="47.39001" lon="7.6968">
        <ele>557.316396</ele>
        <time>2021-07-06T20:15:00.846Z</time>
      </trkpt>
      <trkpt lat="47.38984" lon="7.69704">
        <ele>559.577129</ele>
        <time>2021-07-06T20:15:13.376Z</time>
      </trkpt>
      <trkpt lat="47.38965" lon="7.69728">
        <ele>562.004469</ele>
        <time>2021-07-06T20:15:26.519Z</time>
      </trkpt>
      <trkpt lat="47.38909" lon="7.69795">
        <ele>568.418434</ele>
        <time>2021-07-06T20:16:04.614Z</time>
      </trkpt>
      <trkpt lat="47.38899" lon="7.69802">
        <ele>569.19443</ele>
        <time>2021-07-06T20:16:10.587Z</time>
      </trkpt>
      <trkpt lat="47.38895" lon="7.69805">
        <ele>569.524595</ele>
        <time>2021-07-06T20:16:14.036Z</time>
      </trkpt>
      <trkpt lat="47.38881" lon="7.69807">
        <ele>570.603178</ele>
        <time>2021-07-06T20:16:20.190Z</time>
      </trkpt>
      <trkpt lat="47.38837" lon="7.69796">
        <ele>573.84342</ele>
        <time>2021-07-06T20:16:40.995Z</time>
      </trkpt>
      <trkpt lat="47.38794" lon="7.69765">
        <ele>577.327783</ele>
        <time>2021-07-06T20:17:02.317Z</time>
      </trkpt>
      <trkpt lat="47.38768" lon="7.69755">
        <ele>579.292844</ele>
        <time>2021-07-06T20:17:12.308Z</time>
      </trkpt>
      <trkpt lat="47.38754" lon="7.69754">
        <ele>580.2153</ele>
        <time>2021-07-06T20:17:18.859Z</time>
      </trkpt>
      <trkpt lat="47.38732" lon="7.69765">
        <ele>581.486748</ele>
        <time>2021-07-06T20:17:26.560Z</time>
      </trkpt>
      <trkpt lat="47.38711" lon="7.6978">
        <ele>582.758252</ele>
        <time>2021-07-06T20:17:34.447Z</time>
      </trkpt>
      <trkpt lat="47.38703" lon="7.69787">
        <ele>583.280718</ele>
        <time>2021-07-06T20:17:37.668Z</time>
      </trkpt>
      <trkpt lat="47.38686" lon="7.69809">
        <ele>584.522303</ele>
        <time>2021-07-06T20:17:46.482Z</time>
      </trkpt>
      <trkpt lat="47.38665" lon="7.69826">
        <ele>585.786222</ele>
        <time>2021-07-06T20:17:55.526Z</time>
      </trkpt>
      <trkpt lat="47.38624" lon="7.69815">
        <ele>588.059528</ele>
        <time>2021-07-06T20:18:13.291Z</time>
      </trkpt>
      <trkpt lat="47.38598" lon="7.69817">
        <ele>589.513784</ele>
        <time>2021-07-06T20:18:25.224Z</time>
      </trkpt>
      <trkpt lat="47.38596" lon="7.69826">
        <ele>590.102713</ele>
        <time>2021-07-06T20:18:29.058Z</time>
      </trkpt>
      <trkpt lat="47.38594" lon="7.69833">
        <ele>591.061663</ele>
        <time>2021-07-06T20:18:31.938Z</time>
      </trkpt>
      <trkpt lat="47.38581" lon="7.69854">
        <ele>594.501164</ele>
        <time>2021-07-06T20:18:41.718Z</time>
      </trkpt>
      <trkpt lat="47.38577" lon="7.69861">
        <ele>595.553744</ele>
        <time>2021-07-06T20:18:45.063Z</time>
      </trkpt>
      <trkpt lat="47.38553" lon="7.6987">
        <ele>599.988307</ele>
        <time>2021-07-06T20:19:03.134Z</time>
      </trkpt>
      <trkpt lat="47.38478" lon="7.69899">
        <ele>613.715308</ele>
        <time>2021-07-06T20:20:09.256Z</time>
      </trkpt>
      <trkpt lat="47.38434" lon="7.6991">
        <ele>621.732596</ele>
        <time>2021-07-06T20:20:58.506Z</time>
      </trkpt>
      <trkpt lat="47.38426" lon="7.69927">
        <ele>625.478744</ele>
        <time>2021-07-06T20:21:15.649Z</time>
      </trkpt>
      <trkpt lat="47.38415" lon="7.69976">
        <ele>634.45323</ele>
        <time>2021-07-06T20:21:54.745Z</time>
      </trkpt>
      <trkpt lat="47.38409" lon="7.69983">
        <ele>636.591462</ele>
        <time>2021-07-06T20:22:04.035Z</time>
      </trkpt>
      <trkpt lat="47.38375" lon="7.69979">
        <ele>645.434991</ele>
        <time>2021-07-06T20:22:43.091Z</time>
      </trkpt>
      <trkpt lat="47.38308" lon="7.70004">
        <ele>663.495464</ele>
        <time>2021-07-06T20:24:05.087Z</time>
      </trkpt>
      <trkpt lat="47.38155" lon="7.69959">
        <ele>699.902789</ele>
        <time>2021-07-06T20:26:50.526Z</time>
      </trkpt>
      <trkpt lat="47.38111" lon="7.69951">
        <ele>709.966721</ele>
        <time>2021-07-06T20:27:31.856Z</time>
      </trkpt>
      <trkpt lat="47.38085" lon="7.69956">
        <ele>715.219376</ele>
        <time>2021-07-06T20:27:53.728Z</time>
      </trkpt>
      <trkpt lat="47.38067" lon="7.69945">
        <ele>719.116922</ele>
        <time>2021-07-06T20:28:10.755Z</time>
      </trkpt>
      <trkpt lat="47.38053" lon="7.69954">
        <ele>722.397726</ele>
        <time>2021-07-06T20:28:22.828Z</time>
      </trkpt>
      <trkpt lat="47.3805" lon="7.69959">
        <ele>723.270382</ele>
        <time>2021-07-06T20:28:27.363Z</time>
      </trkpt>
      <trkpt lat="47.38047" lon="7.69963">
        <ele>724.128519</ele>
        <time>2021-07-06T20:28:30.720Z</time>
      </trkpt>
      <trkpt lat="47.3804" lon="7.69972">
        <ele>725.948357</ele>
        <time>2021-07-06T20:28:37.295Z</time>
      </trkpt>
      <trkpt lat="47.38038" lon="7.69977">
        <ele>726.84016</ele>
        <time>2021-07-06T20:28:42.436Z</time>
      </trkpt>
      <trkpt lat="47.38016" lon="7.69987">
        <ele>731.515629</ele>
        <time>2021-07-06T20:29:01.020Z</time>
      </trkpt>
      <trkpt lat="47.3797" lon="7.69965">
        <ele>741.286399</ele>
        <time>2021-07-06T20:29:40.670Z</time>
      </trkpt>
      <trkpt lat="47.37944" lon="7.69976">
        <ele>746.978366</ele>
        <time>2021-07-06T20:30:03.640Z</time>
      </trkpt>
      <trkpt lat="47.37915" lon="7.69978">
        <ele>754.31932</ele>
        <time>2021-07-06T20:30:26.801Z</time>
      </trkpt>
      <trkpt lat="47.37907" lon="7.69987">
        <ele>757.093774</ele>
        <time>2021-07-06T20:30:34.906Z</time>
      </trkpt>
      <trkpt lat="47.37893" lon="7.70007">
        <ele>762.135712</ele>
        <time>2021-07-06T20:30:48.816Z</time>
      </trkpt>
      <trkpt lat="47.37886" lon="7.70019">
        <ele>764.798736</ele>
        <time>2021-07-06T20:30:58.404Z</time>
      </trkpt>
      <trkpt lat="47.37876" lon="7.70049">
        <ele>770.764651</ele>
        <time>2021-07-06T20:31:15.368Z</time>
      </trkpt>
      <trkpt lat="47.37872" lon="7.70066">
        <ele>774.076816</ele>
        <time>2021-07-06T20:31:28.082Z</time>
      </trkpt>
      <trkpt lat="47.37883" lon="7.70073">
        <ele>777.257597</ele>
        <time>2021-07-06T20:31:39.126Z</time>
      </trkpt>
      <trkpt lat="47.37911" lon="7.70084">
        <ele>784.726238</ele>
        <time>2021-07-06T20:32:09.624Z</time>
      </trkpt>
      <trkpt lat="47.37928" lon="7.70081">
        <ele>789.118479</ele>
        <time>2021-07-06T20:32:28.257Z</time>
      </trkpt>
      <trkpt lat="47.37931" lon="7.7009">
        <ele>790.900965</ele>
        <time>2021-07-06T20:32:36.817Z</time>
      </trkpt>
      <trkpt lat="47.37883" lon="7.7012">
        <ele>808.865589</ele>
        <time>2021-07-06T20:33:52.909Z</time>
      </trkpt>
      <trkpt lat="47.37879" lon="7.7012">
        <ele>810.0457</ele>
        <time>2021-07-06T20:33:57.516Z</time>
      </trkpt>
      <trkpt lat="47.37869" lon="7.70128">
        <ele>814.149886</ele>
        <time>2021-07-06T20:34:11.687Z</time>
      </trkpt>
      <trkpt lat="47.37866" lon="7.70138">
        <ele>816.916566</ele>
        <time>2021-07-06T20:34:21.384Z</time>
      </trkpt>
      <trkpt lat="47.37853" lon="7.70151">
        <ele>822.279137</ele>
        <time>2021-07-06T20:34:48.015Z</time>
      </trkpt>
      <trkpt lat="47.37836" lon="7.70162">
        <ele>828.887961</ele>
        <time>2021-07-06T20:35:10.084Z</time>
      </trkpt>
      <trkpt lat="47.3781" lon="7.70202">
        <ele>842.226206</ele>
        <time>2021-07-06T20:36:06.925Z</time>
      </trkpt>
      <trkpt lat="47.37806" lon="7.70203">
        <ele>843.839712</ele>
        <time>2021-07-06T20:36:17.436Z</time>
      </trkpt>
      <trkpt lat="47.37805" lon="7.70199">
        <ele>844.924922</ele>
        <time>2021-07-06T20:36:19.497Z</time>
      </trkpt>
      <trkpt lat="47.37805" lon="7.70196">
        <ele>845.688477</ele>
        <time>2021-07-06T20:36:25.340Z</time>
      </trkpt>
      <trkpt lat="47.37753" lon="7.70179">
        <ele>862.700665</ele>
        <time>2021-07-06T20:37:47.529Z</time>
      </trkpt>
      <trkpt lat="47.37751" lon="7.70194">
        <ele>865.397018</ele>
        <time>2021-07-06T20:38:00.637Z</time>
      </trkpt>
      <trkpt lat="47.37757" lon="7.70234">
        <ele>872.461507</ele>
        <time>2021-07-06T20:38:40.778Z</time>
      </trkpt>
      <trkpt lat="47.37744" lon="7.70219">
        <ele>876.611885</ele>
        <time>2021-07-06T20:39:05.226Z</time>
      </trkpt>
      <trkpt lat="47.37742" lon="7.70248">
        <ele>881.56019</ele>
        <time>2021-07-06T20:39:23.875Z</time>
      </trkpt>
      <trkpt lat="47.37739" lon="7.70241">
        <ele>882.97328</ele>
        <time>2021-07-06T20:39:27.932Z</time>
      </trkpt>
      <trkpt lat="47.37726" lon="7.70194">
        <ele>891.646302</ele>
        <time>2021-07-06T20:40:05.638Z</time>
      </trkpt>
      <trkpt lat="47.3771" lon="7.70161">
        <ele>898.772243</ele>
        <time>2021-07-06T20:40:26.649Z</time>
      </trkpt>
      <trkpt lat="47.37705" lon="7.70154">
        <ele>900.47954</ele>
        <time>2021-07-06T20:40:31.471Z</time>
      </trkpt>
      <trkpt lat="47.37704" lon="7.70159">
        <ele>901.47916</ele>
        <time>2021-07-06T20:40:34.561Z</time>
      </trkpt>
      <trkpt lat="47.3771" lon="7.70181">
        <ele>904.34297</ele>
        <time>2021-07-06T20:40:45.062Z</time>
      </trkpt>
      <trkpt lat="47.37714" lon="7.70213">
        <ele>906.588564</ele>
        <time>2021-07-06T20:41:01.319Z</time>
      </trkpt>
      <trkpt lat="47.37697" lon="7.70193">
        <ele>908.79537</ele>
        <time>2021-07-06T20:41:16.181Z</time>
      </trkpt>
      <trkpt lat="47.37671" lon="7.70172">
        <ele>911.908956</ele>
        <time>2021-07-06T20:41:33.516Z</time>
      </trkpt>
      <trkpt lat="47.37657" lon="7.70147">
        <ele>914.164752</ele>
        <time>2021-07-06T20:41:45.639Z</time>
      </trkpt>
      <trkpt lat="47.37629" lon="7.70119">
        <ele>917.685616</ele>
        <time>2021-07-06T20:42:04.631Z</time>
      </trkpt>
      <trkpt lat="47.37593" lon="7.70074">
        <ele>922.481481</ele>
        <time>2021-07-06T20:42:31.596Z</time>
      </trkpt>
      <trkpt lat="47.37575" lon="7.70035">
        <ele>925.07614</ele>
        <time>2021-07-06T20:42:48.402Z</time>
      </trkpt>
      <trkpt lat="47.37563" lon="7.70024">
        <ele>926.292687</ele>
        <time>2021-07-06T20:42:55.311Z</time>
      </trkpt>
      <trkpt lat="47.37547" lon="7.70021">
        <ele>927.615448</ele>
        <time>2021-07-06T20:43:02.884Z</time>
      </trkpt>
      <trkpt lat="47.37545" lon="7.70019">
        <ele>927.768572</ele>
        <time>2021-07-06T20:43:04.144Z</time>
      </trkpt>
      <trkpt lat="47.37529" lon="7.70009">
        <ele>929.180786</ele>
        <time>2021-07-06T20:43:13.349Z</time>
      </trkpt>
      <trkpt lat="47.37484" lon="7.69991">
        <ele>933.016428</ele>
        <time>2021-07-06T20:43:39.604Z</time>
      </trkpt>
      <trkpt lat="47.37477" lon="7.69989">
        <ele>933.63218</ele>
        <time>2021-07-06T20:43:43.622Z</time>
      </trkpt>
      <trkpt lat="47.37474" lon="7.69988">
        <ele>933.885397</ele>
        <time>2021-07-06T20:43:46.293Z</time>
      </trkpt>
      <trkpt lat="47.37457" lon="7.69992">
        <ele>935.309998</ele>
        <time>2021-07-06T20:43:56.381Z</time>
      </trkpt>
      <trkpt lat="47.37432" lon="7.70029">
        <ele>938.658772</ele>
        <time>2021-07-06T20:44:17.121Z</time>
      </trkpt>
      <trkpt lat="47.37406" lon="7.70047">
        <ele>941.771904</ele>
        <time>2021-07-06T20:44:33.739Z</time>
      </trkpt>
      <trkpt lat="47.37395" lon="7.70056">
        <ele>943.125927</ele>
        <time>2021-07-06T20:44:42.810Z</time>
      </trkpt>
      <trkpt lat="47.37402" lon="7.70061">
        <ele>943.976331</ele>
        <time>2021-07-06T20:44:46.509Z</time>
      </trkpt>
      <trkpt lat="47.37407" lon="7.70063">
        <ele>944.533948</ele>
        <time>2021-07-06T20:44:49.690Z</time>
      </trkpt>
      <trkpt lat="47.37414" lon="7.70065">
        <ele>945.256675</ele>
        <time>2021-07-06T20:44:52.629Z</time>
      </trkpt>
      <trkpt lat="47.3742" lon="7.70064">
        <ele>945.933443</ele>
        <time>2021-07-06T20:44:57.261Z</time>
      </trkpt>
      <trkpt lat="47.37445" lon="7.70049">
        <ele>948.816549</ele>
        <time>2021-07-06T20:45:12.444Z</time>
      </trkpt>
      <trkpt lat="47.37454" lon="7.70054">
        <ele>949.832923</ele>
        <time>2021-07-06T20:45:18.660Z</time>
      </trkpt>
      <trkpt lat="47.37486" lon="7.70147">
        <ele>957.158799</ele>
        <time>2021-07-06T20:45:56.411Z</time>
      </trkpt>
      <trkpt lat="47.37487" lon="7.70157">
        <ele>957.711556</ele>
        <time>2021-07-06T20:46:02.019Z</time>
      </trkpt>
      <trkpt lat="47.37491" lon="7.70188">
        <ele>959.513338</ele>
        <time>2021-07-06T20:46:10.823Z</time>
      </trkpt>
      <trkpt lat="47.37492" lon="7.70192">
        <ele>959.754675</ele>
        <time>2021-07-06T20:46:12.198Z</time>
      </trkpt>
      <trkpt lat="47.37494" lon="7.70196">
        <ele>960.000015</ele>
        <time>2021-07-06T20:46:14.404Z</time>
      </trkpt>
      <trkpt lat="47.37497" lon="7.702">
        <ele>960.311792</ele>
        <time>2021-07-06T20:46:17.953Z</time>
      </trkpt>
      <trkpt lat="47.37522" lon="7.70216">
        <ele>962.576122</ele>
        <time>2021-07-06T20:46:31.192Z</time>
      </trkpt>
      <trkpt lat="47.3752" lon="7.7023">
        <ele>963.41254</ele>
        <time>2021-07-06T20:46:38.925Z</time>
      </trkpt>
      <trkpt lat="47.37505" lon="7.70236">
        <ele>964.654962</ele>
        <time>2021-07-06T20:46:45.521Z</time>
      </trkpt>
      <trkpt lat="47.37484" lon="7.70232">
        <ele>966.411729</ele>
        <time>2021-07-06T20:46:58.113Z</time>
      </trkpt>
      <trkpt lat="47.37456" lon="7.70203">
        <ele>969.228918</ele>
        <time>2021-07-06T20:47:14.707Z</time>
      </trkpt>
      <trkpt lat="47.37454" lon="7.70203">
        <ele>969.344484</ele>
        <time>2021-07-06T20:47:16.645Z</time>
      </trkpt>
      <trkpt lat="47.37453" lon="7.70192">
        <ele>969.97713</ele>
        <time>2021-07-06T20:47:19.910Z</time>
      </trkpt>
      <trkpt lat="47.37449" lon="7.70179">
        <ele>970.774593</ele>
        <time>2021-07-06T20:47:24.176Z</time>
      </trkpt>
      <trkpt lat="47.37433" lon="7.70163">
        <ele>972.600755</ele>
        <time>2021-07-06T20:47:36.415Z</time>
      </trkpt>
      <trkpt lat="47.37402" lon="7.70152">
        <ele>975.743844</ele>
        <time>2021-07-06T20:47:52.472Z</time>
      </trkpt>
      <trkpt lat="47.37363" lon="7.70194">
        <ele>980.452982</ele>
        <time>2021-07-06T20:48:18.882Z</time>
      </trkpt>
      <trkpt lat="47.37336" lon="7.70251">
        <ele>984.986006</ele>
        <time>2021-07-06T20:48:47.932Z</time>
      </trkpt>
      <trkpt lat="47.37329" lon="7.70279">
        <ele>987.001985</ele>
        <time>2021-07-06T20:49:01.511Z</time>
      </trkpt>
      <trkpt lat="47.37325" lon="7.70303">
        <ele>988.615125</ele>
        <time>2021-07-06T20:49:12.569Z</time>
      </trkpt>
      <trkpt lat="47.37314" lon="7.70331">
        <ele>992.703552</ele>
        <time>2021-07-06T20:49:28.933Z</time>
      </trkpt>
      <trkpt lat="47.3728" lon="7.70407">
        <ele>1004.075285</ele>
        <time>2021-07-06T20:50:21.759Z</time>
      </trkpt>
      <trkpt lat="47.37312" lon="7.70382">
        <ele>1010.744306</ele>
        <time>2021-07-06T20:50:55.560Z</time>
      </trkpt>
      <trkpt lat="47.37306" lon="7.70434">
        <ele>1017.328919</ele>
        <time>2021-07-06T20:51:29.271Z</time>
      </trkpt>
      <trkpt lat="47.37304" lon="7.70449">
        <ele>1019.276439</ele>
        <time>2021-07-06T20:51:38.825Z</time>
      </trkpt>
      <trkpt lat="47.37302" lon="7.70464">
        <ele>1021.16274</ele>
        <time>2021-07-06T20:51:50.253Z</time>
      </trkpt>
      <trkpt lat="47.37293" lon="7.70481">
        <ele>1024.402099</ele>
        <time>2021-07-06T20:52:01.028Z</time>
      </trkpt>
      <trkpt lat="47.37287" lon="7.70533">
        <ele>1032.595861</ele>
        <time>2021-07-06T20:52:32.769Z</time>
      </trkpt>
      <trkpt lat="47.37235" lon="7.7065">
        <ele>1054.646916</ele>
        <time>2021-07-06T20:54:18.791Z</time>
      </trkpt>
      <trkpt lat="47.37192" lon="7.70697">
        <ele>1067.115075</ele>
        <time>2021-07-06T20:55:11.725Z</time>
      </trkpt>
      <trkpt lat="47.37176" lon="7.70709">
        <ele>1071.385134</ele>
        <time>2021-07-06T20:55:28.093Z</time>
      </trkpt>
      <trkpt lat="47.3718" lon="7.70714">
        <ele>1072.748878</ele>
        <time>2021-07-06T20:55:37.510Z</time>
      </trkpt>
      <trkpt lat="47.37185" lon="7.70721">
        <ele>1074.35849</ele>
        <time>2021-07-06T20:55:42.940Z</time>
      </trkpt>
      <trkpt lat="47.37177" lon="7.70727">
        <ele>1076.590413</ele>
        <time>2021-07-06T20:55:51.534Z</time>
      </trkpt>
      <trkpt lat="47.37186" lon="7.70738">
        <ele>1079.468016</ele>
        <time>2021-07-06T20:56:07.754Z</time>
      </trkpt>
      <trkpt lat="47.37175" lon="7.70744">
        <ele>1082.34441</ele>
        <time>2021-07-06T20:56:22.996Z</time>
      </trkpt>
      <trkpt lat="47.37184" lon="7.70755">
        <ele>1085.297626</ele>
        <time>2021-07-06T20:56:34.009Z</time>
      </trkpt>
      <trkpt lat="47.37175" lon="7.70762">
        <ele>1087.964728</ele>
        <time>2021-07-06T20:56:48.588Z</time>
      </trkpt>
      <trkpt lat="47.37185" lon="7.70772">
        <ele>1090.95294</ele>
        <time>2021-07-06T20:57:03.813Z</time>
      </trkpt>
      <trkpt lat="47.37168" lon="7.70778">
        <ele>1095.119716</ele>
        <time>2021-07-06T20:57:22.444Z</time>
      </trkpt>
      <trkpt lat="47.37197" lon="7.70792">
        <ele>1102.304259</ele>
        <time>2021-07-06T20:57:52.604Z</time>
      </trkpt>
      <trkpt lat="47.37227" lon="7.70818">
        <ele>1108.583865</ele>
        <time>2021-07-06T20:58:27.297Z</time>
      </trkpt>
      <trkpt lat="47.37232" lon="7.70825">
        <ele>1109.528249</ele>
        <time>2021-07-06T20:58:36.628Z</time>
      </trkpt>
      <trkpt lat="47.37232" lon="7.70825">
        <ele>1109.528249</ele>
        <time>2021-07-06T20:58:36.628Z</time>
      </trkpt>
      <trkpt lat="47.37243" lon="7.70828">
        <ele>1110.93827</ele>
        <time>2021-07-06T20:58:45.253Z</time>
      </trkpt>
      <trkpt lat="47.3727" lon="7.70821">
        <ele>1114.302796</ele>
        <time>2021-07-06T20:59:05.103Z</time>
      </trkpt>
      <trkpt lat="47.37253" lon="7.7086">
        <ele>1118.272557</ele>
        <time>2021-07-06T20:59:26.591Z</time>
      </trkpt>
      <trkpt lat="47.37271" lon="7.7086">
        <ele>1120.501131</ele>
        <time>2021-07-06T20:59:38.463Z</time>
      </trkpt>
      <trkpt lat="47.37245" lon="7.70901">
        <ele>1125.243442</ele>
        <time>2021-07-06T21:00:00.848Z</time>
      </trkpt>
      <trkpt lat="47.37264" lon="7.709">
        <ele>1127.675462</ele>
        <time>2021-07-06T21:00:10.201Z</time>
      </trkpt>
      <trkpt lat="47.37248" lon="7.70926">
        <ele>1129.638884</ele>
        <time>2021-07-06T21:00:20.944Z</time>
      </trkpt>
      <trkpt lat="47.37228" lon="7.70941">
        <ele>1130.649626</ele>
        <time>2021-07-06T21:00:29.940Z</time>
      </trkpt>
      <trkpt lat="47.3721" lon="7.70943">
        <ele>1131.494468</ele>
        <time>2021-07-06T21:00:38.471Z</time>
      </trkpt>
      <trkpt lat="47.37195" lon="7.70923">
        <ele>1132.404181</ele>
        <time>2021-07-06T21:00:46.843Z</time>
      </trkpt>
      <trkpt lat="47.37173" lon="7.70932">
        <ele>1133.398805</ele>
        <time>2021-07-06T21:00:55.575Z</time>
      </trkpt>
      <trkpt lat="47.37161" lon="7.7093">
        <ele>1133.92732</ele>
        <time>2021-07-06T21:01:01.704Z</time>
      </trkpt>
      <trkpt lat="47.37154" lon="7.70935">
        <ele>1134.285199</ele>
        <time>2021-07-06T21:01:06.310Z</time>
      </trkpt>
      <trkpt lat="47.37149" lon="7.70951">
        <ele>1134.83384</ele>
        <time>2021-07-06T21:01:14.343Z</time>
      </trkpt>
      <trkpt lat="47.37146" lon="7.70954">
        <ele>1134.982098</ele>
        <time>2021-07-06T21:01:15.321Z</time>
      </trkpt>
      <trkpt lat="47.37143" lon="7.70958">
        <ele>1135.156678</ele>
        <time>2021-07-06T21:01:17.457Z</time>
      </trkpt>
      <trkpt lat="47.37144" lon="7.70964">
        <ele>1135.332479</ele>
        <time>2021-07-06T21:01:19.458Z</time>
      </trkpt>
      <trkpt lat="47.37146" lon="7.70977">
        <ele>1135.738131</ele>
        <time>2021-07-06T21:01:24.214Z</time>
      </trkpt>
      <trkpt lat="47.37146" lon="7.70981">
        <ele>1135.858589</ele>
        <time>2021-07-06T21:01:25.727Z</time>
      </trkpt>
      <trkpt lat="47.37147" lon="7.70991">
        <ele>1136.178369</ele>
        <time>2021-07-06T21:01:30.997Z</time>
      </trkpt>
      <trkpt lat="47.37148" lon="7.70998">
        <ele>1136.381846</ele>
        <time>2021-07-06T21:01:33.187Z</time>
      </trkpt>
      <trkpt lat="47.37171" lon="7.71011">
        <ele>1137.246441</ele>
        <time>2021-07-06T21:01:44.613Z</time>
      </trkpt>
      <trkpt lat="47.37211" lon="7.71028">
        <ele>1137.818485</ele>
        <time>2021-07-06T21:02:03.465Z</time>
      </trkpt>
      <trkpt lat="47.37241" lon="7.71033">
        <ele>1138.230654</ele>
        <time>2021-07-06T21:02:14.889Z</time>
      </trkpt>
      <trkpt lat="47.3725" lon="7.71035">
        <ele>1138.359245</ele>
        <time>2021-07-06T21:02:21.228Z</time>
      </trkpt>
      <trkpt lat="47.3725" lon="7.71035">
        <ele>1138.359245</ele>
        <time>2021-07-06T21:02:21.228Z</time>
      </trkpt>
      <trkpt lat="47.37251" lon="7.71036">
        <ele>1138.370427</ele>
        <time>2021-07-06T21:02:21.520Z</time>
      </trkpt>
      <trkpt lat="47.37249" lon="7.71037">
        <ele>1138.390938</ele>
        <time>2021-07-06T21:02:22.060Z</time>
      </trkpt>
      <trkpt lat="47.37256" lon="7.71042">
        <ele>1138.490722</ele>
        <time>2021-07-06T21:02:24.339Z</time>
      </trkpt>
      <trkpt lat="47.37257" lon="7.71069">
        <ele>1138.746465</ele>
        <time>2021-07-06T21:02:31.281Z</time>
      </trkpt>
      <trkpt lat="47.37257" lon="7.71079">
        <ele>1138.841371</ele>
        <time>2021-07-06T21:02:34.898Z</time>
      </trkpt>
      <trkpt lat="47.37256" lon="7.71083">
        <ele>1138.872201</ele>
        <time>2021-07-06T21:02:35.651Z</time>
      </trkpt>
      <trkpt lat="47.37258" lon="7.71085">
        <ele>1138.898073</ele>
        <time>2021-07-06T21:02:36.308Z</time>
      </trkpt>
      <trkpt lat="47.37256" lon="7.71083">
        <ele>1138.923946</ele>
        <time>2021-07-06T21:02:37.141Z</time>
      </trkpt>
      <trkpt lat="47.37257" lon="7.71079">
        <ele>1138.954776</ele>
        <time>2021-07-06T21:02:38.227Z</time>
      </trkpt>
      <trkpt lat="47.37257" lon="7.71069">
        <ele>1139.049682</ele>
        <time>2021-07-06T21:02:40.496Z</time>
      </trkpt>
      <trkpt lat="47.37256" lon="7.71042">
        <ele>1139.305425</ele>
        <time>2021-07-06T21:02:47.975Z</time>
      </trkpt>
      <trkpt lat="47.37249" lon="7.71037">
        <ele>1139.405209</ele>
        <time>2021-07-06T21:02:52.287Z</time>
      </trkpt>
      <trkpt lat="47.37251" lon="7.71036">
        <ele>1139.42572</ele>
        <time>2021-07-06T21:02:52.988Z</time>
      </trkpt>
      <trkpt lat="47.3725" lon="7.71035">
        <ele>1139.436902</ele>
        <time>2021-07-06T21:02:53.335Z</time>
      </trkpt>
      <trkpt lat="47.3725" lon="7.71035">
        <ele>1139.436902</ele>
        <time>2021-07-06T21:02:53.335Z</time>
      </trkpt>
      <trkpt lat="47.37241" lon="7.71033">
        <ele>1139.565493</ele>
        <time>2021-07-06T21:02:56.161Z</time>
      </trkpt>
      <trkpt lat="47.37211" lon="7.71028">
        <ele>1138.567514</ele>
        <time>2021-07-06T21:03:07.781Z</time>
      </trkpt>
      <trkpt lat="47.37171" lon="7.71011">
        <ele>1136.913237</ele>
        <time>2021-07-06T21:03:22.266Z</time>
      </trkpt>
      <trkpt lat="47.37148" lon="7.70998">
        <ele>1135.924302</ele>
        <time>2021-07-06T21:03:30.843Z</time>
      </trkpt>
      <trkpt lat="47.37147" lon="7.70991">
        <ele>1135.743335</ele>
        <time>2021-07-06T21:03:32.383Z</time>
      </trkpt>
      <trkpt lat="47.37146" lon="7.70981">
        <ele>1135.458929</ele>
        <time>2021-07-06T21:03:34.542Z</time>
      </trkpt>
      <trkpt lat="47.37146" lon="7.70977">
        <ele>1135.351797</ele>
        <time>2021-07-06T21:03:35.390Z</time>
      </trkpt>
      <trkpt lat="47.37144" lon="7.70964">
        <ele>1134.991019</ele>
        <time>2021-07-06T21:03:38.350Z</time>
      </trkpt>
      <trkpt lat="47.37143" lon="7.70958">
        <ele>1134.834664</ele>
        <time>2021-07-06T21:03:39.655Z</time>
      </trkpt>
      <trkpt lat="47.37146" lon="7.70954">
        <ele>1134.679397</ele>
        <time>2021-07-06T21:03:40.926Z</time>
      </trkpt>
      <trkpt lat="47.37149" lon="7.70951">
        <ele>1134.547539</ele>
        <time>2021-07-06T21:03:43.856Z</time>
      </trkpt>
      <trkpt lat="47.37154" lon="7.70935">
        <ele>1134.05959</ele>
        <time>2021-07-06T21:03:47.567Z</time>
      </trkpt>
      <trkpt lat="47.37161" lon="7.7093">
        <ele>1133.741301</ele>
        <time>2021-07-06T21:03:50.095Z</time>
      </trkpt>
      <trkpt lat="47.37173" lon="7.70932">
        <ele>1133.271251</ele>
        <time>2021-07-06T21:03:53.955Z</time>
      </trkpt>
      <trkpt lat="47.37195" lon="7.70923">
        <ele>1132.337646</ele>
        <time>2021-07-06T21:04:02.386Z</time>
      </trkpt>
      <trkpt lat="47.3721" lon="7.70943">
        <ele>1130.872932</ele>
        <time>2021-07-06T21:04:09.854Z</time>
      </trkpt>
      <trkpt lat="47.37228" lon="7.70941">
        <ele>1129.512665</ele>
        <time>2021-07-06T21:04:16.440Z</time>
      </trkpt>
      <trkpt lat="47.37248" lon="7.70926">
        <ele>1127.885288</ele>
        <time>2021-07-06T21:04:24.938Z</time>
      </trkpt>
      <trkpt lat="47.37264" lon="7.709">
        <ele>1126.177228</ele>
        <time>2021-07-06T21:04:33.212Z</time>
      </trkpt>
      <trkpt lat="47.37245" lon="7.70901">
        <ele>1124.783529</ele>
        <time>2021-07-06T21:04:39.755Z</time>
      </trkpt>
      <trkpt lat="47.37271" lon="7.7086">
        <ele>1122.06589</ele>
        <time>2021-07-06T21:04:51.571Z</time>
      </trkpt>
      <trkpt lat="47.37253" lon="7.7086">
        <ele>1120.788778</ele>
        <time>2021-07-06T21:04:56.952Z</time>
      </trkpt>
      <trkpt lat="47.3727" lon="7.70821">
        <ele>1116.55017</ele>
        <time>2021-07-06T21:05:06.504Z</time>
      </trkpt>
      <trkpt lat="47.37243" lon="7.70828">
        <ele>1110.663091</ele>
        <time>2021-07-06T21:05:14.522Z</time>
      </trkpt>
      <trkpt lat="47.37232" lon="7.70825">
        <ele>1108.195907</ele>
        <time>2021-07-06T21:05:17.870Z</time>
      </trkpt>
      <trkpt lat="47.37232" lon="7.70825">
        <ele>1108.195907</ele>
        <time>2021-07-06T21:05:17.870Z</time>
      </trkpt>
      <trkpt lat="47.37227" lon="7.70818">
        <ele>1106.543472</ele>
        <time>2021-07-06T21:05:20.292Z</time>
      </trkpt>
      <trkpt lat="47.37197" lon="7.70792">
        <ele>1098.963278</ele>
        <time>2021-07-06T21:05:30.635Z</time>
      </trkpt>
      <trkpt lat="47.37168" lon="7.70778">
        <ele>1092.323265</ele>
        <time>2021-07-06T21:05:39.727Z</time>
      </trkpt>
      <trkpt lat="47.37185" lon="7.70772">
        <ele>1088.472297</ele>
        <time>2021-07-06T21:05:44.915Z</time>
      </trkpt>
      <trkpt lat="47.37175" lon="7.70762">
        <ele>1085.710568</ele>
        <time>2021-07-06T21:05:49.119Z</time>
      </trkpt>
      <trkpt lat="47.37184" lon="7.70755">
        <ele>1083.245611</ele>
        <time>2021-07-06T21:05:52.887Z</time>
      </trkpt>
      <trkpt lat="47.37175" lon="7.70744">
        <ele>1080.516224</ele>
        <time>2021-07-06T21:05:56.587Z</time>
      </trkpt>
      <trkpt lat="47.37186" lon="7.70738">
        <ele>1077.458726</ele>
        <time>2021-07-06T21:06:00.686Z</time>
      </trkpt>
      <trkpt lat="47.37177" lon="7.70727">
        <ele>1074.265691</ele>
        <time>2021-07-06T21:06:04.802Z</time>
      </trkpt>
      <trkpt lat="47.37185" lon="7.70721">
        <ele>1071.789113</ele>
        <time>2021-07-06T21:06:07.581Z</time>
      </trkpt>
      <trkpt lat="47.3718" lon="7.70714">
        <ele>1070.003062</ele>
        <time>2021-07-06T21:06:09.600Z</time>
      </trkpt>
      <trkpt lat="47.37176" lon="7.70709">
        <ele>1068.48983</ele>
        <time>2021-07-06T21:06:11.711Z</time>
      </trkpt>
      <trkpt lat="47.37171" lon="7.70708">
        <ele>1067.166304</ele>
        <time>2021-07-06T21:06:13.509Z</time>
      </trkpt>
      <trkpt lat="47.37127" lon="7.70695">
        <ele>1055.372443</ele>
        <time>2021-07-06T21:06:27.296Z</time>
      </trkpt>
      <trkpt lat="47.37101" lon="7.7068">
        <ele>1047.876164</ele>
        <time>2021-07-06T21:06:36.530Z</time>
      </trkpt>
      <trkpt lat="47.37084" lon="7.70632">
        <ele>1038.158836</ele>
        <time>2021-07-06T21:06:48.001Z</time>
      </trkpt>
      <trkpt lat="47.37055" lon="7.70627">
        <ele>1031.191439</ele>
        <time>2021-07-06T21:06:56.656Z</time>
      </trkpt>
      <trkpt lat="47.37039" lon="7.70614">
        <ele>1028.359861</ele>
        <time>2021-07-06T21:07:02.034Z</time>
      </trkpt>
      <trkpt lat="47.37024" lon="7.70599">
        <ele>1025.627213</ele>
        <time>2021-07-06T21:07:07.225Z</time>
      </trkpt>
      <trkpt lat="47.37025" lon="7.70589">
        <ele>1024.539318</ele>
        <time>2021-07-06T21:07:09.313Z</time>
      </trkpt>
      <trkpt lat="47.37027" lon="7.70503">
        <ele>1015.390625</ele>
        <time>2021-07-06T21:07:26.978Z</time>
      </trkpt>
      <trkpt lat="47.37026" lon="7.70487">
        <ele>1013.744387</ele>
        <time>2021-07-06T21:07:30.120Z</time>
      </trkpt>
      <trkpt lat="47.37041" lon="7.70428">
        <ele>1006.991472</ele>
        <time>2021-07-06T21:07:43.197Z</time>
      </trkpt>
      <trkpt lat="47.3707" lon="7.70344">
        <ele>1000.60596</ele>
        <time>2021-07-06T21:08:02.759Z</time>
      </trkpt>
      <trkpt lat="47.37078" lon="7.70309">
        <ele>998.670323</ele>
        <time>2021-07-06T21:08:11.194Z</time>
      </trkpt>
      <trkpt lat="47.37082" lon="7.70263">
        <ele>996.212076</ele>
        <time>2021-07-06T21:08:21.498Z</time>
      </trkpt>
      <trkpt lat="47.37077" lon="7.70259">
        <ele>995.720763</ele>
        <time>2021-07-06T21:08:23.602Z</time>
      </trkpt>
      <trkpt lat="47.37073" lon="7.70253">
        <ele>995.281734</ele>
        <time>2021-07-06T21:08:25.443Z</time>
      </trkpt>
      <trkpt lat="47.37073" lon="7.70225">
        <ele>993.824509</ele>
        <time>2021-07-06T21:08:31.722Z</time>
      </trkpt>
      <trkpt lat="47.37075" lon="7.70186">
        <ele>991.781944</ele>
        <time>2021-07-06T21:08:40.439Z</time>
      </trkpt>
      <trkpt lat="47.37074" lon="7.70144">
        <ele>989.719715</ele>
        <time>2021-07-06T21:08:49.916Z</time>
      </trkpt>
      <trkpt lat="47.37063" lon="7.69872">
        <ele>980.579379</ele>
        <time>2021-07-06T21:09:52.040Z</time>
      </trkpt>
      <trkpt lat="47.37059" lon="7.69841">
        <ele>981.133255</ele>
        <time>2021-07-06T21:10:00.142Z</time>
      </trkpt>
      <trkpt lat="47.37068" lon="7.69777">
        <ele>982.265733</ele>
        <time>2021-07-06T21:10:17.672Z</time>
      </trkpt>
      <trkpt lat="47.3707" lon="7.69738">
        <ele>982.941612</ele>
        <time>2021-07-06T21:10:28.950Z</time>
      </trkpt>
      <trkpt lat="47.37068" lon="7.69717">
        <ele>983.310997</ele>
        <time>2021-07-06T21:10:35.268Z</time>
      </trkpt>
      <trkpt lat="47.37065" lon="7.69708">
        <ele>983.48052</ele>
        <time>2021-07-06T21:10:38.951Z</time>
      </trkpt>
      <trkpt lat="47.37057" lon="7.69685">
        <ele>983.931035</ele>
        <time>2021-07-06T21:10:46.651Z</time>
      </trkpt>
      <trkpt lat="47.37056" lon="7.69655">
        <ele>984.448896</ele>
        <time>2021-07-06T21:10:57.205Z</time>
      </trkpt>
      <trkpt lat="47.37028" lon="7.69475">
        <ele>996.741634</ele>
        <time>2021-07-06T21:12:15.104Z</time>
      </trkpt>
      <trkpt lat="47.37018" lon="7.69279">
        <ele>1010.425223</ele>
        <time>2021-07-06T21:13:48.156Z</time>
      </trkpt>
      <trkpt lat="47.37021" lon="7.69246">
        <ele>1012.587393</ele>
        <time>2021-07-06T21:14:01.253Z</time>
      </trkpt>
      <trkpt lat="47.37018" lon="7.69234">
        <ele>1013.403946</ele>
        <time>2021-07-06T21:14:07.620Z</time>
      </trkpt>
      <trkpt lat="47.37016" lon="7.692">
        <ele>1015.588122</ele>
        <time>2021-07-06T21:14:19.675Z</time>
      </trkpt>
      <trkpt lat="47.37012" lon="7.69122">
        <ele>1020.638501</ele>
        <time>2021-07-06T21:14:48.544Z</time>
      </trkpt>
      <trkpt lat="47.37005" lon="7.69081">
        <ele>1021.667253</ele>
        <time>2021-07-06T21:15:02.036Z</time>
      </trkpt>
      <trkpt lat="47.37009" lon="7.69061">
        <ele>1021.676621</ele>
        <time>2021-07-06T21:15:08.486Z</time>
      </trkpt>
      <trkpt lat="47.37003" lon="7.69043">
        <ele>1021.685534</ele>
        <time>2021-07-06T21:15:14.197Z</time>
      </trkpt>
      <trkpt lat="47.36994" lon="7.69059">
        <ele>1021.694709</ele>
        <time>2021-07-06T21:15:21.384Z</time>
      </trkpt>
      <trkpt lat="47.36993" lon="7.69053">
        <ele>1021.697392</ele>
        <time>2021-07-06T21:15:23.134Z</time>
      </trkpt>
      <trkpt lat="47.3699" lon="7.69045">
        <ele>1021.701927</ele>
        <time>2021-07-06T21:15:25.828Z</time>
      </trkpt>
      <trkpt lat="47.36988" lon="7.69042">
        <ele>1021.703675</ele>
        <time>2021-07-06T21:15:26.822Z</time>
      </trkpt>
      <trkpt lat="47.36927" lon="7.68892">
        <ele>1021.810827</ele>
        <time>2021-07-06T21:16:08.768Z</time>
      </trkpt>
      <trkpt lat="47.36919" lon="7.68867">
        <ele>1021.870932</ele>
        <time>2021-07-06T21:16:15.154Z</time>
      </trkpt>
      <trkpt lat="47.36916" lon="7.6886">
        <ele>1021.890517</ele>
        <time>2021-07-06T21:16:17.315Z</time>
      </trkpt>
      <trkpt lat="47.36916" lon="7.6886">
        <ele>1021.890517</ele>
        <time>2021-07-06T21:16:17.315Z</time>
      </trkpt>
      <trkpt lat="47.36907" lon="7.68845">
        <ele>1021.935231</ele>
        <time>2021-07-06T21:16:22.547Z</time>
      </trkpt>
      <trkpt lat="47.36872" lon="7.68805">
        <ele>1022.081668</ele>
        <time>2021-07-06T21:16:40.105Z</time>
      </trkpt>
      <trkpt lat="47.3687" lon="7.68796">
        <ele>1022.10173</ele>
        <time>2021-07-06T21:16:42.139Z</time>
      </trkpt>
      <trkpt lat="47.3687" lon="7.68796">
        <ele>1022.10173</ele>
        <time>2021-07-06T21:16:42.139Z</time>
      </trkpt>
      <trkpt lat="47.36871" lon="7.68789">
        <ele>1022.118596</ele>
        <time>2021-07-06T21:16:44.130Z</time>
      </trkpt>
      <trkpt lat="47.36873" lon="7.68771">
        <ele>1022.159694</ele>
        <time>2021-07-06T21:16:49.277Z</time>
      </trkpt>
      <trkpt lat="47.3687" lon="7.68757">
        <ele>1022.191909</ele>
        <time>2021-07-06T21:16:53.873Z</time>
      </trkpt>
      <trkpt lat="47.36845" lon="7.6876">
        <ele>1022.272813</ele>
        <time>2021-07-06T21:17:03.590Z</time>
      </trkpt>
      <trkpt lat="47.36842" lon="7.6875">
        <ele>1022.296721</ele>
        <time>2021-07-06T21:17:07.033Z</time>
      </trkpt>
      <trkpt lat="47.36838" lon="7.68721">
        <ele>1022.362869</ele>
        <time>2021-07-06T21:17:15.296Z</time>
      </trkpt>
      <trkpt lat="47.36842" lon="7.68715">
        <ele>1022.881644</ele>
        <time>2021-07-06T21:17:17.732Z</time>
      </trkpt>
      <trkpt lat="47.36842" lon="7.68715">
        <ele>1022.881644</ele>
        <time>2021-07-06T21:17:17.732Z</time>
      </trkpt>
      <trkpt lat="47.36848" lon="7.68705">
        <ele>1023.884616</ele>
        <time>2021-07-06T21:17:22.548Z</time>
      </trkpt>
      <trkpt lat="47.36848" lon="7.68671">
        <ele>1026.312425</ele>
        <time>2021-07-06T21:17:32.351Z</time>
      </trkpt>
      <trkpt lat="47.36837" lon="7.68625">
        <ele>1029.797817</ele>
        <time>2021-07-06T21:17:49.813Z</time>
      </trkpt>
      <trkpt lat="47.36823" lon="7.68602">
        <ele>1032.032196</ele>
        <time>2021-07-06T21:18:05.806Z</time>
      </trkpt>
      <trkpt lat="47.36812" lon="7.6857">
        <ele>1034.535376</ele>
        <time>2021-07-06T21:18:23.917Z</time>
      </trkpt>
      <trkpt lat="47.36801" lon="7.6856">
        <ele>1035.945928</ele>
        <time>2021-07-06T21:18:32.759Z</time>
      </trkpt>
      <trkpt lat="47.36801" lon="7.6851">
        <ele>1039.47655</ele>
        <time>2021-07-06T21:18:59.274Z</time>
      </trkpt>
      <trkpt lat="47.36775" lon="7.68449">
        <ele>1045.197093</ele>
        <time>2021-07-06T21:19:32.088Z</time>
      </trkpt>
      <trkpt lat="47.36771" lon="7.68442">
        <ele>1046.053773</ele>
        <time>2021-07-06T21:19:38.293Z</time>
      </trkpt>
      <trkpt lat="47.36769" lon="7.68437">
        <ele>1046.557037</ele>
        <time>2021-07-06T21:19:42.923Z</time>
      </trkpt>
      <trkpt lat="47.36763" lon="7.68389">
        <ele>1050.68594</ele>
        <time>2021-07-06T21:20:05.435Z</time>
      </trkpt>
      <trkpt lat="47.36753" lon="7.68375">
        <ele>1052.499817</ele>
        <time>2021-07-06T21:20:15.844Z</time>
      </trkpt>
      <trkpt lat="47.36737" lon="7.6837">
        <ele>1054.500448</ele>
        <time>2021-07-06T21:20:25.415Z</time>
      </trkpt>
      <trkpt lat="47.36746" lon="7.68342">
        <ele>1057.112167</ele>
        <time>2021-07-06T21:20:41.181Z</time>
      </trkpt>
      <trkpt lat="47.36739" lon="7.68344">
        <ele>1057.997375</ele>
        <time>2021-07-06T21:20:44.759Z</time>
      </trkpt>
      <trkpt lat="47.36743" lon="7.68334">
        <ele>1058.900877</ele>
        <time>2021-07-06T21:20:49.524Z</time>
      </trkpt>
      <trkpt lat="47.36716" lon="7.68208">
        <ele>1067.729293</ele>
        <time>2021-07-06T21:21:47.869Z</time>
      </trkpt>
      <trkpt lat="47.36667" lon="7.68091">
        <ele>1075.007425</ele>
        <time>2021-07-06T21:22:35.835Z</time>
      </trkpt>
      <trkpt lat="47.36639" lon="7.68057">
        <ele>1077.857403</ele>
        <time>2021-07-06T21:22:53.615Z</time>
      </trkpt>
      <trkpt lat="47.36614" lon="7.68043">
        <ele>1079.981481</ele>
        <time>2021-07-06T21:23:06.434Z</time>
      </trkpt>
      <trkpt lat="47.36607" lon="7.68031">
        <ele>1080.758379</ele>
        <time>2021-07-06T21:23:11.101Z</time>
      </trkpt>
      <trkpt lat="47.36604" lon="7.68002">
        <ele>1082.34499</ele>
        <time>2021-07-06T21:23:21.411Z</time>
      </trkpt>
      <trkpt lat="47.36588" lon="7.67946">
        <ele>1085.517642</ele>
        <time>2021-07-06T21:23:43.333Z</time>
      </trkpt>
      <trkpt lat="47.36566" lon="7.67901">
        <ele>1088.469348</ele>
        <time>2021-07-06T21:24:05.296Z</time>
      </trkpt>
      <trkpt lat="47.36557" lon="7.67834">
        <ele>1092.03387</ele>
        <time>2021-07-06T21:24:33.385Z</time>
      </trkpt>
      <trkpt lat="47.36553" lon="7.67806">
        <ele>1093.316455</ele>
        <time>2021-07-06T21:24:44.379Z</time>
      </trkpt>
      <trkpt lat="47.36554" lon="7.67788">
        <ele>1094.110226</ele>
        <time>2021-07-06T21:24:52.348Z</time>
      </trkpt>
      <trkpt lat="47.36557" lon="7.67758">
        <ele>1095.467698</ele>
        <time>2021-07-06T21:25:03.604Z</time>
      </trkpt>
      <trkpt lat="47.36559" lon="7.67731">
        <ele>1096.725688</ele>
        <time>2021-07-06T21:25:14.997Z</time>
      </trkpt>
      <trkpt lat="47.36558" lon="7.67727">
        <ele>1096.924192</ele>
        <time>2021-07-06T21:25:17.170Z</time>
      </trkpt>
      <trkpt lat="47.36549" lon="7.67665">
        <ele>1099.745038</ele>
        <time>2021-07-06T21:25:39.021Z</time>
      </trkpt>
      <trkpt lat="47.3655" lon="7.67655">
        <ele>1100.229942</ele>
        <time>2021-07-06T21:25:42.020Z</time>
      </trkpt>
      <trkpt lat="47.3655" lon="7.67655">
        <ele>1100.229942</ele>
        <time>2021-07-06T21:25:42.020Z</time>
      </trkpt>
      <trkpt lat="47.36545" lon="7.67632">
        <ele>1101.311667</ele>
        <time>2021-07-06T21:25:51.295Z</time>
      </trkpt>
      <trkpt lat="47.3651" lon="7.67529">
        <ele>1103.050386</ele>
        <time>2021-07-06T21:26:24.158Z</time>
      </trkpt>
      <trkpt lat="47.36509" lon="7.67522">
        <ele>1102.955887</ele>
        <time>2021-07-06T21:26:26.175Z</time>
      </trkpt>
      <trkpt lat="47.36503" lon="7.67518">
        <ele>1102.826973</ele>
        <time>2021-07-06T21:26:28.225Z</time>
      </trkpt>
      <trkpt lat="47.36419" lon="7.67487">
        <ele>1101.255177</ele>
        <time>2021-07-06T21:26:54.181Z</time>
      </trkpt>
      <trkpt lat="47.36415" lon="7.67486">
        <ele>1101.181619</ele>
        <time>2021-07-06T21:26:55.219Z</time>
      </trkpt>
      <trkpt lat="47.36418" lon="7.67471">
        <ele>1100.989741</ele>
        <time>2021-07-06T21:26:58.655Z</time>
      </trkpt>
      <trkpt lat="47.36408" lon="7.67411">
        <ele>1100.046455</ele>
        <time>2021-07-06T21:27:11.033Z</time>
      </trkpt>
      <trkpt lat="47.36395" lon="7.6739">
        <ele>1099.467079</ele>
        <time>2021-07-06T21:27:16.781Z</time>
      </trkpt>
      <trkpt lat="47.36388" lon="7.67383">
        <ele>1099.233653</ele>
        <time>2021-07-06T21:27:19.675Z</time>
      </trkpt>
      <trkpt lat="47.36372" lon="7.67392">
        <ele>1098.710237</ele>
        <time>2021-07-06T21:27:26.166Z</time>
      </trkpt>
      <trkpt lat="47.36343" lon="7.67422">
        <ele>1097.667586</ele>
        <time>2021-07-06T21:27:38.855Z</time>
      </trkpt>
      <trkpt lat="47.36312" lon="7.67456">
        <ele>1096.511375</ele>
        <time>2021-07-06T21:27:53.089Z</time>
      </trkpt>
      <trkpt lat="47.36303" lon="7.67456">
        <ele>1096.243485</ele>
        <time>2021-07-06T21:27:56.624Z</time>
      </trkpt>
      <trkpt lat="47.36191" lon="7.67385">
        <ele>1087.737878</ele>
        <time>2021-07-06T21:28:39.250Z</time>
      </trkpt>
      <trkpt lat="47.36136" lon="7.67339">
        <ele>1082.13089</ele>
        <time>2021-07-06T21:28:58.622Z</time>
      </trkpt>
      <trkpt lat="47.36126" lon="7.67333">
        <ele>1081.204338</ele>
        <time>2021-07-06T21:29:01.808Z</time>
      </trkpt>
      <trkpt lat="47.3612" lon="7.67329">
        <ele>1080.619251</ele>
        <time>2021-07-06T21:29:03.818Z</time>
      </trkpt>
      <trkpt lat="47.36071" lon="7.67301">
        <ele>1072.362086</ele>
        <time>2021-07-06T21:29:19.358Z</time>
      </trkpt>
      <trkpt lat="47.36061" lon="7.67285">
        <ele>1069.611327</ele>
        <time>2021-07-06T21:29:23.783Z</time>
      </trkpt>
      <trkpt lat="47.36045" lon="7.67085">
        <ele>1044.283029</ele>
        <time>2021-07-06T21:30:04.517Z</time>
      </trkpt>
      <trkpt lat="47.36029" lon="7.66997">
        <ele>1033.480152</ele>
        <time>2021-07-06T21:30:23.017Z</time>
      </trkpt>
      <trkpt lat="47.36019" lon="7.67008">
        <ele>1031.250912</ele>
        <time>2021-07-06T21:30:26.916Z</time>
      </trkpt>
      <trkpt lat="47.3601" lon="7.67031">
        <ele>1028.219764</ele>
        <time>2021-07-06T21:30:32.123Z</time>
      </trkpt>
      <trkpt lat="47.35967" lon="7.67187">
        <ele>1011.058774</ele>
        <time>2021-07-06T21:31:06.442Z</time>
      </trkpt>
      <trkpt lat="47.35965" lon="7.67195">
        <ele>1010.488459</ele>
        <time>2021-07-06T21:31:08.304Z</time>
      </trkpt>
      <trkpt lat="47.35966" lon="7.67112">
        <ele>1005.055245</ele>
        <time>2021-07-06T21:31:25.721Z</time>
      </trkpt>
      <trkpt lat="47.35951" lon="7.66762">
        <ele>988.614509</ele>
        <time>2021-07-06T21:32:46.840Z</time>
      </trkpt>
      <trkpt lat="47.35951" lon="7.6675">
        <ele>988.155447</ele>
        <time>2021-07-06T21:32:49.571Z</time>
      </trkpt>
      <trkpt lat="47.35953" lon="7.66733">
        <ele>987.51191</ele>
        <time>2021-07-06T21:32:53.713Z</time>
      </trkpt>
      <trkpt lat="47.35952" lon="7.6673">
        <ele>987.378409</ele>
        <time>2021-07-06T21:32:54.982Z</time>
      </trkpt>
      <trkpt lat="47.35957" lon="7.66698">
        <ele>986.012038</ele>
        <time>2021-07-06T21:33:00.908Z</time>
      </trkpt>
      <trkpt lat="47.35974" lon="7.66689">
        <ele>984.845101</ele>
        <time>2021-07-06T21:33:06.069Z</time>
      </trkpt>
      <trkpt lat="47.3598" lon="7.66688">
        <ele>984.433109</ele>
        <time>2021-07-06T21:33:08.052Z</time>
      </trkpt>
      <trkpt lat="47.35984" lon="7.66688">
        <ele>984.181382</ele>
        <time>2021-07-06T21:33:09.198Z</time>
      </trkpt>
      <trkpt lat="47.35996" lon="7.66678">
        <ele>983.295892</ele>
        <time>2021-07-06T21:33:12.766Z</time>
      </trkpt>
      <trkpt lat="47.36" lon="7.66657">
        <ele>982.35649</ele>
        <time>2021-07-06T21:33:16.989Z</time>
      </trkpt>
      <trkpt lat="47.35999" lon="7.66653">
        <ele>982.149963</ele>
        <time>2021-07-06T21:33:18.131Z</time>
      </trkpt>
      <trkpt lat="47.35998" lon="7.66648">
        <ele>981.941212</ele>
        <time>2021-07-06T21:33:19.184Z</time>
      </trkpt>
      <trkpt lat="47.35951" lon="7.6655">
        <ele>976.704967</ele>
        <time>2021-07-06T21:33:42.645Z</time>
      </trkpt>
      <trkpt lat="47.35929" lon="7.66514">
        <ele>975.835441</ele>
        <time>2021-07-06T21:33:52.569Z</time>
      </trkpt>
      <trkpt lat="47.35924" lon="7.66507">
        <ele>975.88273</ele>
        <time>2021-07-06T21:33:54.710Z</time>
      </trkpt>
      <trkpt lat="47.35917" lon="7.66495">
        <ele>975.964211</ele>
        <time>2021-07-06T21:33:58.108Z</time>
      </trkpt>
      <trkpt lat="47.35911" lon="7.66482">
        <ele>976.041755</ele>
        <time>2021-07-06T21:34:01.051Z</time>
      </trkpt>
      <trkpt lat="47.35909" lon="7.66471">
        <ele>976.097846</ele>
        <time>2021-07-06T21:34:03.216Z</time>
      </trkpt>
      <trkpt lat="47.35907" lon="7.6646">
        <ele>976.155907</ele>
        <time>2021-07-06T21:34:05.874Z</time>
      </trkpt>
      <trkpt lat="47.35903" lon="7.66454">
        <ele>976.194705</ele>
        <time>2021-07-06T21:34:07.721Z</time>
      </trkpt>
      <trkpt lat="47.35906" lon="7.66446">
        <ele>976.24157</ele>
        <time>2021-07-06T21:34:10.235Z</time>
      </trkpt>
      <trkpt lat="47.35909" lon="7.66405">
        <ele>976.446388</ele>
        <time>2021-07-06T21:34:19.609Z</time>
      </trkpt>
      <trkpt lat="47.35912" lon="7.66355">
        <ele>976.699375</ele>
        <time>2021-07-06T21:34:31.778Z</time>
      </trkpt>
      <trkpt lat="47.35914" lon="7.66322">
        <ele>976.869024</ele>
        <time>2021-07-06T21:34:40.128Z</time>
      </trkpt>
      <trkpt lat="47.35918" lon="7.66291">
        <ele>977.023593</ele>
        <time>2021-07-06T21:34:48.927Z</time>
      </trkpt>
      <trkpt lat="47.3592" lon="7.66276">
        <ele>977.342849</ele>
        <time>2021-07-06T21:34:54.051Z</time>
      </trkpt>
      <trkpt lat="47.35922" lon="7.6627">
        <ele>977.485738</ele>
        <time>2021-07-06T21:34:56.066Z</time>
      </trkpt>
      <trkpt lat="47.35924" lon="7.66262">
        <ele>977.716219</ele>
        <time>2021-07-06T21:34:59.248Z</time>
      </trkpt>
      <trkpt lat="47.3592" lon="7.6625">
        <ele>978.038475</ele>
        <time>2021-07-06T21:35:03.401Z</time>
      </trkpt>
      <trkpt lat="47.35919" lon="7.66227">
        <ele>978.582169</ele>
        <time>2021-07-06T21:35:10.557Z</time>
      </trkpt>
      <trkpt lat="47.35907" lon="7.66126">
        <ele>981.07451</ele>
        <time>2021-07-06T21:35:38.324Z</time>
      </trkpt>
      <trkpt lat="47.359" lon="7.66082">
        <ele>982.189045</ele>
        <time>2021-07-06T21:35:49.140Z</time>
      </trkpt>
      <trkpt lat="47.35892" lon="7.66055">
        <ele>982.900346</ele>
        <time>2021-07-06T21:35:55.832Z</time>
      </trkpt>
      <trkpt lat="47.35885" lon="7.66024">
        <ele>983.443685</ele>
        <time>2021-07-06T21:36:02.980Z</time>
      </trkpt>
      <trkpt lat="47.35875" lon="7.65911">
        <ele>982.616632</ele>
        <time>2021-07-06T21:36:27.565Z</time>
      </trkpt>
      <trkpt lat="47.3584" lon="7.65735">
        <ele>981.553313</ele>
        <time>2021-07-06T21:37:06.787Z</time>
      </trkpt>
      <trkpt lat="47.3584" lon="7.65641">
        <ele>981.494653</ele>
        <time>2021-07-06T21:37:27.502Z</time>
      </trkpt>
      <trkpt lat="47.35827" lon="7.65458">
        <ele>981.179279</ele>
        <time>2021-07-06T21:38:09.557Z</time>
      </trkpt>
      <trkpt lat="47.35821" lon="7.65289">
        <ele>980.428069</ele>
        <time>2021-07-06T21:38:46.669Z</time>
      </trkpt>
      <trkpt lat="47.35819" lon="7.65227">
        <ele>979.712725</ele>
        <time>2021-07-06T21:38:59.680Z</time>
      </trkpt>
      <trkpt lat="47.35803" lon="7.65109">
        <ele>976.166692</ele>
        <time>2021-07-06T21:39:24.400Z</time>
      </trkpt>
      <trkpt lat="47.35773" lon="7.64968">
        <ele>971.453963</ele>
        <time>2021-07-06T21:39:53.206Z</time>
      </trkpt>
      <trkpt lat="47.35769" lon="7.64901">
        <ele>968.247725</ele>
        <time>2021-07-06T21:40:06.141Z</time>
      </trkpt>
      <trkpt lat="47.35754" lon="7.64827">
        <ele>964.565224</ele>
        <time>2021-07-06T21:40:20.770Z</time>
      </trkpt>
      <trkpt lat="47.35753" lon="7.64759">
        <ele>961.352255</ele>
        <time>2021-07-06T21:40:33.411Z</time>
      </trkpt>
      <trkpt lat="47.35761" lon="7.64699">
        <ele>958.237821</ele>
        <time>2021-07-06T21:40:44.872Z</time>
      </trkpt>
      <trkpt lat="47.35749" lon="7.64582">
        <ele>951.955732</ele>
        <time>2021-07-06T21:41:06.541Z</time>
      </trkpt>
      <trkpt lat="47.35747" lon="7.64459">
        <ele>945.462579</ele>
        <time>2021-07-06T21:41:29.452Z</time>
      </trkpt>
      <trkpt lat="47.35734" lon="7.6436">
        <ele>942.413779</ele>
        <time>2021-07-06T21:41:49.077Z</time>
      </trkpt>
      <trkpt lat="47.35729" lon="7.64346">
        <ele>941.942764</ele>
        <time>2021-07-06T21:41:51.996Z</time>
      </trkpt>
      <trkpt lat="47.35723" lon="7.64314">
        <ele>940.938156</ele>
        <time>2021-07-06T21:41:58.825Z</time>
      </trkpt>
      <trkpt lat="47.3572" lon="7.64287">
        <ele>940.092738</ele>
        <time>2021-07-06T21:42:04.399Z</time>
      </trkpt>
      <trkpt lat="47.35713" lon="7.6421">
        <ele>937.743961</ele>
        <time>2021-07-06T21:42:23.569Z</time>
      </trkpt>
      <trkpt lat="47.3571" lon="7.64185">
        <ele>937.592544</ele>
        <time>2021-07-06T21:42:29.621Z</time>
      </trkpt>
      <trkpt lat="47.35714" lon="7.64147">
        <ele>937.641004</ele>
        <time>2021-07-06T21:42:39.384Z</time>
      </trkpt>
      <trkpt lat="47.35703" lon="7.64063">
        <ele>937.749559</ele>
        <time>2021-07-06T21:43:01.704Z</time>
      </trkpt>
      <trkpt lat="47.35688" lon="7.63991">
        <ele>937.845913</ele>
        <time>2021-07-06T21:43:22.741Z</time>
      </trkpt>
      <trkpt lat="47.35656" lon="7.63905">
        <ele>938.321684</ele>
        <time>2021-07-06T21:43:50.002Z</time>
      </trkpt>
      <trkpt lat="47.35641" lon="7.63881">
        <ele>938.581313</ele>
        <time>2021-07-06T21:43:58.929Z</time>
      </trkpt>
      <trkpt lat="47.35621" lon="7.63862">
        <ele>938.872191</ele>
        <time>2021-07-06T21:44:09.086Z</time>
      </trkpt>
      <trkpt lat="47.35608" lon="7.63854">
        <ele>939.044108</ele>
        <time>2021-07-06T21:44:14.917Z</time>
      </trkpt>
      <trkpt lat="47.35567" lon="7.63849">
        <ele>939.535117</ele>
        <time>2021-07-06T21:44:31.550Z</time>
      </trkpt>
      <trkpt lat="47.35509" lon="7.63805">
        <ele>939.409352</ele>
        <time>2021-07-06T21:44:56.972Z</time>
      </trkpt>
      <trkpt lat="47.3547" lon="7.63762">
        <ele>937.896638</ele>
        <time>2021-07-06T21:45:15.153Z</time>
      </trkpt>
      <trkpt lat="47.35414" lon="7.63663">
        <ele>935.19761</ele>
        <time>2021-07-06T21:45:45.484Z</time>
      </trkpt>
      <trkpt lat="47.35386" lon="7.63628">
        <ele>933.957879</ele>
        <time>2021-07-06T21:45:57.734Z</time>
      </trkpt>
      <trkpt lat="47.35357" lon="7.63568">
        <ele>931.965484</ele>
        <time>2021-07-06T21:46:14.521Z</time>
      </trkpt>
      <trkpt lat="47.3533" lon="7.635">
        <ele>929.82949</ele>
        <time>2021-07-06T21:46:33.060Z</time>
      </trkpt>
      <trkpt lat="47.35298" lon="7.6338">
        <ele>927.849843</ele>
        <time>2021-07-06T21:47:05.059Z</time>
      </trkpt>
      <trkpt lat="47.35274" lon="7.63286">
        <ele>929.193911</ele>
        <time>2021-07-06T21:47:32.444Z</time>
      </trkpt>
      <trkpt lat="47.35268" lon="7.63273">
        <ele>929.406828</ele>
        <time>2021-07-06T21:47:37.168Z</time>
      </trkpt>
      <trkpt lat="47.35248" lon="7.63218">
        <ele>930.252773</ele>
        <time>2021-07-06T21:47:56.144Z</time>
      </trkpt>
      <trkpt lat="47.35241" lon="7.63167">
        <ele>930.965977</ele>
        <time>2021-07-06T21:48:13.712Z</time>
      </trkpt>
      <trkpt lat="47.35205" lon="7.63005">
        <ele>934.790758</ele>
        <time>2021-07-06T21:49:05.476Z</time>
      </trkpt>
      <trkpt lat="47.35195" lon="7.62964">
        <ele>935.783683</ele>
        <time>2021-07-06T21:49:18.225Z</time>
      </trkpt>
      <trkpt lat="47.35194" lon="7.62956">
        <ele>935.969942</ele>
        <time>2021-07-06T21:49:20.784Z</time>
      </trkpt>
      <trkpt lat="47.35194" lon="7.62956">
        <ele>935.969942</ele>
        <time>2021-07-06T21:49:20.784Z</time>
      </trkpt>
      <trkpt lat="47.35192" lon="7.62952">
        <ele>936.07794</ele>
        <time>2021-07-06T21:49:21.740Z</time>
      </trkpt>
      <trkpt lat="47.35169" lon="7.62914">
        <ele>937.045657</ele>
        <time>2021-07-06T21:49:36.601Z</time>
      </trkpt>
      <trkpt lat="47.35131" lon="7.62829">
        <ele>938.11046</ele>
        <time>2021-07-06T21:50:05.798Z</time>
      </trkpt>
      <trkpt lat="47.35118" lon="7.62775">
        <ele>938.704285</ele>
        <time>2021-07-06T21:50:20.887Z</time>
      </trkpt>
      <trkpt lat="47.35113" lon="7.6273">
        <ele>939.181087</ele>
        <time>2021-07-06T21:50:33.242Z</time>
      </trkpt>
      <trkpt lat="47.35097" lon="7.62686">
        <ele>939.669211</ele>
        <time>2021-07-06T21:50:47.080Z</time>
      </trkpt>
      <trkpt lat="47.3509" lon="7.6264">
        <ele>939.794162</ele>
        <time>2021-07-06T21:51:00.312Z</time>
      </trkpt>
      <trkpt lat="47.35057" lon="7.62541">
        <ele>940.084889</ele>
        <time>2021-07-06T21:51:30.310Z</time>
      </trkpt>
      <trkpt lat="47.35031" lon="7.62419">
        <ele>939.739449</ele>
        <time>2021-07-06T21:52:03.364Z</time>
      </trkpt>
      <trkpt lat="47.3501" lon="7.62372">
        <ele>938.270089</ele>
        <time>2021-07-06T21:52:17.237Z</time>
      </trkpt>
      <trkpt lat="47.34983" lon="7.62333">
        <ele>936.827223</ele>
        <time>2021-07-06T21:52:30.504Z</time>
      </trkpt>
      <trkpt lat="47.34883" lon="7.62088">
        <ele>926.573865</ele>
        <time>2021-07-06T21:53:36.359Z</time>
      </trkpt>
      <trkpt lat="47.34828" lon="7.61901">
        <ele>916.182171</ele>
        <time>2021-07-06T21:54:20.861Z</time>
      </trkpt>
      <trkpt lat="47.34766" lon="7.61728">
        <ele>906.286652</ele>
        <time>2021-07-06T21:55:01.990Z</time>
      </trkpt>
      <trkpt lat="47.34705" lon="7.61666">
        <ele>907.809424</ele>
        <time>2021-07-06T21:55:28.157Z</time>
      </trkpt>
      <trkpt lat="47.34691" lon="7.61642">
        <ele>908.254937</ele>
        <time>2021-07-06T21:55:40.159Z</time>
      </trkpt>
      <trkpt lat="47.34687" lon="7.61634">
        <ele>908.387111</ele>
        <time>2021-07-06T21:55:42.091Z</time>
      </trkpt>
      <trkpt lat="47.34682" lon="7.61635">
        <ele>908.482559</ele>
        <time>2021-07-06T21:55:44.202Z</time>
      </trkpt>
      <trkpt lat="47.34677" lon="7.61635">
        <ele>908.589943</ele>
        <time>2021-07-06T21:55:46.646Z</time>
      </trkpt>
      <trkpt lat="47.34679" lon="7.61625">
        <ele>908.728173</ele>
        <time>2021-07-06T21:55:53.875Z</time>
      </trkpt>
      <trkpt lat="47.34668" lon="7.61459">
        <ele>923.445501</ele>
        <time>2021-07-06T21:57:13.559Z</time>
      </trkpt>
      <trkpt lat="47.34654" lon="7.61366">
        <ele>936.429772</ele>
        <time>2021-07-06T21:58:22.611Z</time>
      </trkpt>
      <trkpt lat="47.34634" lon="7.61286">
        <ele>947.988149</ele>
        <time>2021-07-06T21:59:27.575Z</time>
      </trkpt>
      <trkpt lat="47.34617" lon="7.61249">
        <ele>954.264336</ele>
        <time>2021-07-06T22:00:01.303Z</time>
      </trkpt>
      <trkpt lat="47.34616" lon="7.61225">
        <ele>957.619643</ele>
        <time>2021-07-06T22:00:19.076Z</time>
      </trkpt>
      <trkpt lat="47.34586" lon="7.61143">
        <ele>970.463864</ele>
        <time>2021-07-06T22:01:20.481Z</time>
      </trkpt>
      <trkpt lat="47.34584" lon="7.6112">
        <ele>973.716597</ele>
        <time>2021-07-06T22:01:34.191Z</time>
      </trkpt>
      <trkpt lat="47.34568" lon="7.61087">
        <ele>979.386946</ele>
        <time>2021-07-06T22:01:56.333Z</time>
      </trkpt>
      <trkpt lat="47.34558" lon="7.61053">
        <ele>983.164663</ele>
        <time>2021-07-06T22:02:14.888Z</time>
      </trkpt>
      <trkpt lat="47.34547" lon="7.60957">
        <ele>987.120536</ele>
        <time>2021-07-06T22:02:54.856Z</time>
      </trkpt>
      <trkpt lat="47.34511" lon="7.60905">
        <ele>990.146083</ele>
        <time>2021-07-06T22:03:17.790Z</time>
      </trkpt>
      <trkpt lat="47.34499" lon="7.60869">
        <ele>991.787991</ele>
        <time>2021-07-06T22:03:28.816Z</time>
      </trkpt>
      <trkpt lat="47.34451" lon="7.60791">
        <ele>992.031132</ele>
        <time>2021-07-06T22:03:55.352Z</time>
      </trkpt>
      <trkpt lat="47.34386" lon="7.607">
        <ele>989.276531</ele>
        <time>2021-07-06T22:04:26.623Z</time>
      </trkpt>
      <trkpt lat="47.34368" lon="7.60688">
        <ele>988.683072</ele>
        <time>2021-07-06T22:04:33.314Z</time>
      </trkpt>
      <trkpt lat="47.34366" lon="7.60667">
        <ele>988.240802</ele>
        <time>2021-07-06T22:04:38.364Z</time>
      </trkpt>
      <trkpt lat="47.34323" lon="7.60588">
        <ele>987.025952</ele>
        <time>2021-07-06T22:05:02.730Z</time>
      </trkpt>
      <trkpt lat="47.34309" lon="7.60548">
        <ele>986.560579</ele>
        <time>2021-07-06T22:05:14.159Z</time>
      </trkpt>
      <trkpt lat="47.34296" lon="7.60538">
        <ele>986.355436</ele>
        <time>2021-07-06T22:05:19.252Z</time>
      </trkpt>
      <trkpt lat="47.34257" lon="7.60469">
        <ele>985.437215</ele>
        <time>2021-07-06T22:05:42.628Z</time>
      </trkpt>
      <trkpt lat="47.34243" lon="7.6046">
        <ele>985.202814</ele>
        <time>2021-07-06T22:05:48.723Z</time>
      </trkpt>
      <trkpt lat="47.34236" lon="7.60447">
        <ele>985.325604</ele>
        <time>2021-07-06T22:05:53.084Z</time>
      </trkpt>
      <trkpt lat="47.34209" lon="7.6035">
        <ele>986.46074</ele>
        <time>2021-07-06T22:06:22.421Z</time>
      </trkpt>
      <trkpt lat="47.34192" lon="7.6033">
        <ele>986.805208</ele>
        <time>2021-07-06T22:06:31.248Z</time>
      </trkpt>
      <trkpt lat="47.34169" lon="7.60268">
        <ele>987.56244</ele>
        <time>2021-07-06T22:06:51.056Z</time>
      </trkpt>
      <trkpt lat="47.34155" lon="7.60198">
        <ele>988.727472</ele>
        <time>2021-07-06T22:07:11.768Z</time>
      </trkpt>
      <trkpt lat="47.34143" lon="7.60177">
        <ele>989.39924</ele>
        <time>2021-07-06T22:07:19.804Z</time>
      </trkpt>
      <trkpt lat="47.34141" lon="7.6014">
        <ele>990.298916</ele>
        <time>2021-07-06T22:07:30.519Z</time>
      </trkpt>
      <trkpt lat="47.34126" lon="7.60088">
        <ele>991.635878</ele>
        <time>2021-07-06T22:07:46.657Z</time>
      </trkpt>
      <trkpt lat="47.34111" lon="7.60055">
        <ele>992.599111</ele>
        <time>2021-07-06T22:07:59.033Z</time>
      </trkpt>
      <trkpt lat="47.34096" lon="7.59977">
        <ele>994.646679</ele>
        <time>2021-07-06T22:08:24.803Z</time>
      </trkpt>
      <trkpt lat="47.34064" lon="7.59884">
        <ele>999.51592</ele>
        <time>2021-07-06T22:09:00.176Z</time>
      </trkpt>
      <trkpt lat="47.3406" lon="7.59866">
        <ele>1000.39218</ele>
        <time>2021-07-06T22:09:06.945Z</time>
      </trkpt>
      <trkpt lat="47.34052" lon="7.59831">
        <ele>1002.102716</ele>
        <time>2021-07-06T22:09:20.025Z</time>
      </trkpt>
      <trkpt lat="47.33964" lon="7.59505">
        <ele>1020.526433</ele>
        <time>2021-07-06T22:11:29.606Z</time>
      </trkpt>
      <trkpt lat="47.33963" lon="7.5948">
        <ele>1022.029079</ele>
        <time>2021-07-06T22:11:39.471Z</time>
      </trkpt>
      <trkpt lat="47.33939" lon="7.59406">
        <ele>1027.224313</ele>
        <time>2021-07-06T22:12:11.741Z</time>
      </trkpt>
      <trkpt lat="47.33927" lon="7.59354">
        <ele>1030.739224</ele>
        <time>2021-07-06T22:12:34.107Z</time>
      </trkpt>
      <trkpt lat="47.33927" lon="7.59336">
        <ele>1031.87481</ele>
        <time>2021-07-06T22:12:41.374Z</time>
      </trkpt>
      <trkpt lat="47.33922" lon="7.59315">
        <ele>1033.279161</ele>
        <time>2021-07-06T22:12:50.474Z</time>
      </trkpt>
      <trkpt lat="47.33906" lon="7.59259">
        <ele>1037.149857</ele>
        <time>2021-07-06T22:13:17.574Z</time>
      </trkpt>
      <trkpt lat="47.33872" lon="7.59096">
        <ele>1045.320491</ele>
        <time>2021-07-06T22:14:22.089Z</time>
      </trkpt>
      <trkpt lat="47.33869" lon="7.59075">
        <ele>1046.30956</ele>
        <time>2021-07-06T22:14:27.701Z</time>
      </trkpt>
      <trkpt lat="47.33872" lon="7.59062">
        <ele>1046.951213</ele>
        <time>2021-07-06T22:14:32.023Z</time>
      </trkpt>
      <trkpt lat="47.33879" lon="7.59051">
        <ele>1047.678404</ele>
        <time>2021-07-06T22:14:40.514Z</time>
      </trkpt>
      <trkpt lat="47.33868" lon="7.59032">
        <ele>1048.861209</ele>
        <time>2021-07-06T22:14:46.971Z</time>
      </trkpt>
      <trkpt lat="47.3386" lon="7.59012">
        <ele>1049.92037</ele>
        <time>2021-07-06T22:14:56.265Z</time>
      </trkpt>
      <trkpt lat="47.33844" lon="7.58972">
        <ele>1050.980049</ele>
        <time>2021-07-06T22:15:09.488Z</time>
      </trkpt>
      <trkpt lat="47.33826" lon="7.58902">
        <ele>1052.080147</ele>
        <time>2021-07-06T22:15:32.494Z</time>
      </trkpt>
      <trkpt lat="47.3382" lon="7.58891">
        <ele>1052.276933</ele>
        <time>2021-07-06T22:15:35.685Z</time>
      </trkpt>
      <trkpt lat="47.33803" lon="7.58796">
        <ele>1053.712107</ele>
        <time>2021-07-06T22:16:02.678Z</time>
      </trkpt>
      <trkpt lat="47.33791" lon="7.58758">
        <ele>1054.329953</ele>
        <time>2021-07-06T22:16:14.377Z</time>
      </trkpt>
      <trkpt lat="47.33775" lon="7.58629">
        <ele>1053.845983</ele>
        <time>2021-07-06T22:16:50.567Z</time>
      </trkpt>
      <trkpt lat="47.33728" lon="7.5847">
        <ele>1052.111206</ele>
        <time>2021-07-06T22:17:33.548Z</time>
      </trkpt>
      <trkpt lat="47.33687" lon="7.58356">
        <ele>1047.994013</ele>
        <time>2021-07-06T22:18:03.501Z</time>
      </trkpt>
      <trkpt lat="47.33661" lon="7.58308">
        <ele>1046.026221</ele>
        <time>2021-07-06T22:18:17.269Z</time>
      </trkpt>
      <trkpt lat="47.33648" lon="7.5827">
        <ele>1044.801025</ele>
        <time>2021-07-06T22:18:26.957Z</time>
      </trkpt>
      <trkpt lat="47.33614" lon="7.58224">
        <ele>1044.462358</ele>
        <time>2021-07-06T22:18:43.047Z</time>
      </trkpt>
      <trkpt lat="47.33602" lon="7.58221">
        <ele>1044.373731</ele>
        <time>2021-07-06T22:18:47.146Z</time>
      </trkpt>
      <trkpt lat="47.33602" lon="7.5821">
        <ele>1044.321282</ele>
        <time>2021-07-06T22:18:49.861Z</time>
      </trkpt>
      <trkpt lat="47.33593" lon="7.58194">
        <ele>1044.215559</ele>
        <time>2021-07-06T22:18:55.344Z</time>
      </trkpt>
      <trkpt lat="47.33584" lon="7.58182">
        <ele>1044.1288</ele>
        <time>2021-07-06T22:18:59.388Z</time>
      </trkpt>
      <trkpt lat="47.3358" lon="7.58173">
        <ele>1044.079587</ele>
        <time>2021-07-06T22:19:01.584Z</time>
      </trkpt>
      <trkpt lat="47.33562" lon="7.58156">
        <ele>1043.917978</ele>
        <time>2021-07-06T22:19:08.803Z</time>
      </trkpt>
      <trkpt lat="47.33467" lon="7.57914">
        <ele>1052.163631</ele>
        <time>2021-07-06T22:20:24.910Z</time>
      </trkpt>
      <trkpt lat="47.33447" lon="7.57882">
        <ele>1054.051241</ele>
        <time>2021-07-06T22:20:39.326Z</time>
      </trkpt>
      <trkpt lat="47.3341" lon="7.57836">
        <ele>1058.963985</ele>
        <time>2021-07-06T22:21:06.260Z</time>
      </trkpt>
      <trkpt lat="47.33355" lon="7.57807">
        <ele>1066.094144</ele>
        <time>2021-07-06T22:21:39.740Z</time>
      </trkpt>
      <trkpt lat="47.33318" lon="7.57762">
        <ele>1071.881504</ele>
        <time>2021-07-06T22:22:08.556Z</time>
      </trkpt>
      <trkpt lat="47.33297" lon="7.57737">
        <ele>1075.09839</ele>
        <time>2021-07-06T22:22:23.839Z</time>
      </trkpt>
      <trkpt lat="47.33288" lon="7.57726">
        <ele>1076.47789</ele>
        <time>2021-07-06T22:22:31.564Z</time>
      </trkpt>
      <trkpt lat="47.33271" lon="7.57682">
        <ele>1080.962672</ele>
        <time>2021-07-06T22:22:52.281Z</time>
      </trkpt>
      <trkpt lat="47.33249" lon="7.57652">
        <ele>1084.868476</ele>
        <time>2021-07-06T22:23:10.082Z</time>
      </trkpt>
      <trkpt lat="47.33187" lon="7.57596">
        <ele>1094.292144</ele>
        <time>2021-07-06T22:23:54.505Z</time>
      </trkpt>
      <trkpt lat="47.33139" lon="7.57564">
        <ele>1100.926729</ele>
        <time>2021-07-06T22:24:24.080Z</time>
      </trkpt>
      <trkpt lat="47.33095" lon="7.57514">
        <ele>1107.356258</ele>
        <time>2021-07-06T22:24:54.381Z</time>
      </trkpt>
      <trkpt lat="47.33064" lon="7.5751">
        <ele>1110.952936</ele>
        <time>2021-07-06T22:25:11.362Z</time>
      </trkpt>
      <trkpt lat="47.32946" lon="7.57527">
        <ele>1124.920245</ele>
        <time>2021-07-06T22:26:18.947Z</time>
      </trkpt>
      <trkpt lat="47.32925" lon="7.57529">
        <ele>1127.604048</ele>
        <time>2021-07-06T22:26:30.102Z</time>
      </trkpt>
      <trkpt lat="47.32913" lon="7.57529">
        <ele>1129.090365</ele>
        <time>2021-07-06T22:26:37.125Z</time>
      </trkpt>
      <trkpt lat="47.32909" lon="7.57526">
        <ele>1129.657046</ele>
        <time>2021-07-06T22:26:39.375Z</time>
      </trkpt>
      <trkpt lat="47.32908" lon="7.57524">
        <ele>1129.920837</ele>
        <time>2021-07-06T22:26:40.623Z</time>
      </trkpt>
      <trkpt lat="47.32908" lon="7.57521">
        <ele>1130.181833</ele>
        <time>2021-07-06T22:26:42.007Z</time>
      </trkpt>
      <trkpt lat="47.32911" lon="7.57507">
        <ele>1131.451163</ele>
        <time>2021-07-06T22:26:46.633Z</time>
      </trkpt>
      <trkpt lat="47.32915" lon="7.57498">
        <ele>1132.37393</ele>
        <time>2021-07-06T22:26:50.443Z</time>
      </trkpt>
      <trkpt lat="47.32923" lon="7.57485">
        <ele>1133.848264</ele>
        <time>2021-07-06T22:26:59.985Z</time>
      </trkpt>
      <trkpt lat="47.32948" lon="7.57433">
        <ele>1139.356115</ele>
        <time>2021-07-06T22:27:26.234Z</time>
      </trkpt>
      <trkpt lat="47.32993" lon="7.57313">
        <ele>1150.158213</ele>
        <time>2021-07-06T22:28:20.476Z</time>
      </trkpt>
      <trkpt lat="47.32995" lon="7.57307">
        <ele>1150.609888</ele>
        <time>2021-07-06T22:28:25.316Z</time>
      </trkpt>
      <trkpt lat="47.32996" lon="7.57302">
        <ele>1151.038974</ele>
        <time>2021-07-06T22:28:27.939Z</time>
      </trkpt>
      <trkpt lat="47.32996" lon="7.57286">
        <ele>1152.220904</ele>
        <time>2021-07-06T22:28:32.473Z</time>
      </trkpt>
      <trkpt lat="47.32988" lon="7.57282">
        <ele>1153.207491</ele>
        <time>2021-07-06T22:28:36.231Z</time>
      </trkpt>
      <trkpt lat="47.32982" lon="7.57285">
        <ele>1153.796797</ele>
        <time>2021-07-06T22:28:38.920Z</time>
      </trkpt>
      <trkpt lat="47.32975" lon="7.57291">
        <ele>1154.731768</ele>
        <time>2021-07-06T22:28:45.032Z</time>
      </trkpt>
      <trkpt lat="47.32959" lon="7.57299">
        <ele>1156.60855</ele>
        <time>2021-07-06T22:28:52.313Z</time>
      </trkpt>
      <trkpt lat="47.32874" lon="7.57297">
        <ele>1164.960517</ele>
        <time>2021-07-06T22:29:36.390Z</time>
      </trkpt>
      <trkpt lat="47.328" lon="7.5728">
        <ele>1170.123364</ele>
        <time>2021-07-06T22:30:11.157Z</time>
      </trkpt>
      <trkpt lat="47.32786" lon="7.57271">
        <ele>1171.134561</ele>
        <time>2021-07-06T22:30:16.807Z</time>
      </trkpt>
      <trkpt lat="47.32781" lon="7.57261">
        <ele>1171.74512</ele>
        <time>2021-07-06T22:30:21.390Z</time>
      </trkpt>
      <trkpt lat="47.32777" lon="7.57253">
        <ele>1172.190223</ele>
        <time>2021-07-06T22:30:23.913Z</time>
      </trkpt>
      <trkpt lat="47.3277" lon="7.57246">
        <ele>1172.766594</ele>
        <time>2021-07-06T22:30:27.095Z</time>
      </trkpt>
      <trkpt lat="47.32761" lon="7.57239">
        <ele>1173.474956</ele>
        <time>2021-07-06T22:30:30.955Z</time>
      </trkpt>
      <trkpt lat="47.32744" lon="7.57229">
        <ele>1174.734212</ele>
        <time>2021-07-06T22:30:38.831Z</time>
      </trkpt>
      <trkpt lat="47.32726" lon="7.57218">
        <ele>1175.918911</ele>
        <time>2021-07-06T22:30:46.137Z</time>
      </trkpt>
      <trkpt lat="47.32716" lon="7.57209">
        <ele>1176.303185</ele>
        <time>2021-07-06T22:30:51.171Z</time>
      </trkpt>
      <trkpt lat="47.32709" lon="7.57201">
        <ele>1176.620393</ele>
        <time>2021-07-06T22:30:55.096Z</time>
      </trkpt>
      <trkpt lat="47.32644" lon="7.57114">
        <ele>1179.685101</ele>
        <time>2021-07-06T22:31:33.791Z</time>
      </trkpt>
      <trkpt lat="47.32572" lon="7.57049">
        <ele>1182.728948</ele>
        <time>2021-07-06T22:32:09.924Z</time>
      </trkpt>
      <trkpt lat="47.3253" lon="7.56997">
        <ele>1184.918744</ele>
        <time>2021-07-06T22:32:33.839Z</time>
      </trkpt>
      <trkpt lat="47.32517" lon="7.56979">
        <ele>1185.641118</ele>
        <time>2021-07-06T22:32:42.835Z</time>
      </trkpt>
      <trkpt lat="47.32496" lon="7.56966">
        <ele>1186.569824</ele>
        <time>2021-07-06T22:32:52.791Z</time>
      </trkpt>
      <trkpt lat="47.32478" lon="7.5695">
        <ele>1187.39831</ele>
        <time>2021-07-06T22:33:02.810Z</time>
      </trkpt>
      <trkpt lat="47.32467" lon="7.56932">
        <ele>1188.061837</ele>
        <time>2021-07-06T22:33:10.123Z</time>
      </trkpt>
      <trkpt lat="47.32467" lon="7.56923">
        <ele>1188.299121</ele>
        <time>2021-07-06T22:33:14.171Z</time>
      </trkpt>
      <trkpt lat="47.32464" lon="7.56879">
        <ele>1189.233705</ele>
        <time>2021-07-06T22:33:27.355Z</time>
      </trkpt>
      <trkpt lat="47.32438" lon="7.56802">
        <ele>1189.227369</ele>
        <time>2021-07-06T22:33:55.754Z</time>
      </trkpt>
      <trkpt lat="47.32408" lon="7.56643">
        <ele>1189.21535</ele>
        <time>2021-07-06T22:34:37.707Z</time>
      </trkpt>
      <trkpt lat="47.32393" lon="7.5659">
        <ele>1184.018779</ele>
        <time>2021-07-06T22:34:50.105Z</time>
      </trkpt>
      <trkpt lat="47.32393" lon="7.5659">
        <ele>1184.018779</ele>
        <time>2021-07-06T22:34:50.105Z</time>
      </trkpt>
      <trkpt lat="47.32379" lon="7.56492">
        <ele>1174.232133</ele>
        <time>2021-07-06T22:35:10.760Z</time>
      </trkpt>
      <trkpt lat="47.32372" lon="7.56289">
        <ele>1150.167579</ele>
        <time>2021-07-06T22:35:51.782Z</time>
      </trkpt>
      <trkpt lat="47.32363" lon="7.56211">
        <ele>1138.891221</ele>
        <time>2021-07-06T22:36:07.950Z</time>
      </trkpt>
      <trkpt lat="47.3237" lon="7.56167">
        <ele>1132.404771</ele>
        <time>2021-07-06T22:36:17.024Z</time>
      </trkpt>
      <trkpt lat="47.324" lon="7.56094">
        <ele>1123.121656</ele>
        <time>2021-07-06T22:36:34.324Z</time>
      </trkpt>
      <trkpt lat="47.32426" lon="7.56066">
        <ele>1120.266533</ele>
        <time>2021-07-06T22:36:44.036Z</time>
      </trkpt>
      <trkpt lat="47.32426" lon="7.56066">
        <ele>1120.266533</ele>
        <time>2021-07-06T22:36:44.036Z</time>
      </trkpt>
      <trkpt lat="47.32445" lon="7.56045">
        <ele>1118.163507</ele>
        <time>2021-07-06T22:36:51.298Z</time>
      </trkpt>
      <trkpt lat="47.32449" lon="7.5603">
        <ele>1117.215642</ele>
        <time>2021-07-06T22:36:54.793Z</time>
      </trkpt>
      <trkpt lat="47.32454" lon="7.56026">
        <ele>1116.722551</ele>
        <time>2021-07-06T22:36:56.476Z</time>
      </trkpt>
      <trkpt lat="47.32438" lon="7.55981">
        <ele>1113.715596</ele>
        <time>2021-07-06T22:37:06.199Z</time>
      </trkpt>
      <trkpt lat="47.32431" lon="7.55949">
        <ele>1111.693938</ele>
        <time>2021-07-06T22:37:13.079Z</time>
      </trkpt>
      <trkpt lat="47.32419" lon="7.55922">
        <ele>1109.724769</ele>
        <time>2021-07-06T22:37:19.980Z</time>
      </trkpt>
      <trkpt lat="47.32402" lon="7.55881">
        <ele>1110.312539</ele>
        <time>2021-07-06T22:37:30.573Z</time>
      </trkpt>
      <trkpt lat="47.32397" lon="7.55864">
        <ele>1110.742314</ele>
        <time>2021-07-06T22:37:35.466Z</time>
      </trkpt>
      <trkpt lat="47.32388" lon="7.55836">
        <ele>1111.472792</ele>
        <time>2021-07-06T22:37:43.731Z</time>
      </trkpt>
      <trkpt lat="47.32334" lon="7.55689">
        <ele>1115.430198</ele>
        <time>2021-07-06T22:38:30.195Z</time>
      </trkpt>
      <trkpt lat="47.32312" lon="7.5565">
        <ele>1116.60899</ele>
        <time>2021-07-06T22:38:43.425Z</time>
      </trkpt>
      <trkpt lat="47.32302" lon="7.55636">
        <ele>1117.072266</ele>
        <time>2021-07-06T22:38:48.761Z</time>
      </trkpt>
      <trkpt lat="47.32295" lon="7.55624">
        <ele>1117.430803</ele>
        <time>2021-07-06T22:38:52.766Z</time>
      </trkpt>
      <trkpt lat="47.32273" lon="7.55564">
        <ele>1119.041076</ele>
        <time>2021-07-06T22:39:12.779Z</time>
      </trkpt>
      <trkpt lat="47.32265" lon="7.55498">
        <ele>1120.593386</ele>
        <time>2021-07-06T22:39:32.657Z</time>
      </trkpt>
      <trkpt lat="47.3227" lon="7.55474">
        <ele>1121.172907</ele>
        <time>2021-07-06T22:39:39.817Z</time>
      </trkpt>
      <trkpt lat="47.32315" lon="7.55402">
        <ele>1123.926778</ele>
        <time>2021-07-06T22:40:09.381Z</time>
      </trkpt>
      <trkpt lat="47.32318" lon="7.55386">
        <ele>1124.45559</ele>
        <time>2021-07-06T22:40:14.903Z</time>
      </trkpt>
      <trkpt lat="47.32316" lon="7.55368">
        <ele>1125.001432</ele>
        <time>2021-07-06T22:40:20.672Z</time>
      </trkpt>
      <trkpt lat="47.32232" lon="7.55113">
        <ele>1132.049484</ele>
        <time>2021-07-06T22:41:50.739Z</time>
      </trkpt>
      <trkpt lat="47.32223" lon="7.5508">
        <ele>1132.687111</ele>
        <time>2021-07-06T22:42:00.876Z</time>
      </trkpt>
      <trkpt lat="47.32222" lon="7.5505">
        <ele>1133.231195</ele>
        <time>2021-07-06T22:42:09.266Z</time>
      </trkpt>
      <trkpt lat="47.32212" lon="7.55016">
        <ele>1133.892586</ele>
        <time>2021-07-06T22:42:19.211Z</time>
      </trkpt>
      <trkpt lat="47.32222" lon="7.54979">
        <ele>1134.568754</ele>
        <time>2021-07-06T22:42:29.483Z</time>
      </trkpt>
      <trkpt lat="47.3222" lon="7.54929">
        <ele>1134.241221</ele>
        <time>2021-07-06T22:42:42.444Z</time>
      </trkpt>
      <trkpt lat="47.32207" lon="7.5488">
        <ele>1133.90104</ele>
        <time>2021-07-06T22:42:55.594Z</time>
      </trkpt>
      <trkpt lat="47.32156" lon="7.54763">
        <ele>1133.006728</ele>
        <time>2021-07-06T22:43:30.280Z</time>
      </trkpt>
      <trkpt lat="47.3215" lon="7.54712">
        <ele>1133.386769</ele>
        <time>2021-07-06T22:43:43.787Z</time>
      </trkpt>
      <trkpt lat="47.32144" lon="7.5458">
        <ele>1135.733655</ele>
        <time>2021-07-06T22:44:20.288Z</time>
      </trkpt>
      <trkpt lat="47.32147" lon="7.54458">
        <ele>1138.546468</ele>
        <time>2021-07-06T22:44:59.022Z</time>
      </trkpt>
      <trkpt lat="47.32137" lon="7.5431">
        <ele>1146.190577</ele>
        <time>2021-07-06T22:45:54.099Z</time>
      </trkpt>
      <trkpt lat="47.32139" lon="7.54264">
        <ele>1148.586691</ele>
        <time>2021-07-06T22:46:12.131Z</time>
      </trkpt>
      <trkpt lat="47.32138" lon="7.54167">
        <ele>1153.417977</ele>
        <time>2021-07-06T22:46:49.451Z</time>
      </trkpt>
      <trkpt lat="47.32128" lon="7.53752">
        <ele>1171.473559</ele>
        <time>2021-07-06T22:49:13.443Z</time>
      </trkpt>
      <trkpt lat="47.32115" lon="7.53659">
        <ele>1174.307214</ele>
        <time>2021-07-06T22:49:42.074Z</time>
      </trkpt>
      <trkpt lat="47.32114" lon="7.5349">
        <ele>1175.478892</ele>
        <time>2021-07-06T22:50:28.780Z</time>
      </trkpt>
      <trkpt lat="47.32117" lon="7.53397">
        <ele>1175.530375</ele>
        <time>2021-07-06T22:50:52.493Z</time>
      </trkpt>
      <trkpt lat="47.32094" lon="7.53316">
        <ele>1173.729973</ele>
        <time>2021-07-06T22:51:14.140Z</time>
      </trkpt>
      <trkpt lat="47.32064" lon="7.5312">
        <ele>1168.690982</ele>
        <time>2021-07-06T22:52:02.132Z</time>
      </trkpt>
      <trkpt lat="47.32061" lon="7.52967">
        <ele>1162.409704</ele>
        <time>2021-07-06T22:52:37.638Z</time>
      </trkpt>
      <trkpt lat="47.32066" lon="7.52944">
        <ele>1161.394633</ele>
        <time>2021-07-06T22:52:43.041Z</time>
      </trkpt>
      <trkpt lat="47.32081" lon="7.5287">
        <ele>1156.609567</ele>
        <time>2021-07-06T22:52:59.561Z</time>
      </trkpt>
      <trkpt lat="47.32075" lon="7.52866">
        <ele>1155.874879</ele>
        <time>2021-07-06T22:53:01.350Z</time>
      </trkpt>
      <trkpt lat="47.32057" lon="7.52827">
        <ele>1151.669417</ele>
        <time>2021-07-06T22:53:11.319Z</time>
      </trkpt>
      <trkpt lat="47.32054" lon="7.52811">
        <ele>1150.26962</ele>
        <time>2021-07-06T22:53:14.751Z</time>
      </trkpt>
      <trkpt lat="47.3204" lon="7.52806">
        <ele>1148.449128</ele>
        <time>2021-07-06T22:53:18.988Z</time>
      </trkpt>
      <trkpt lat="47.31969" lon="7.52781">
        <ele>1139.052164</ele>
        <time>2021-07-06T22:53:41.001Z</time>
      </trkpt>
      <trkpt lat="47.31911" lon="7.52696">
        <ele>1124.350453</ele>
        <time>2021-07-06T22:54:05.525Z</time>
      </trkpt>
      <trkpt lat="47.31854" lon="7.52673">
        <ele>1112.775006</ele>
        <time>2021-07-06T22:54:23.137Z</time>
      </trkpt>
      <trkpt lat="47.31821" lon="7.52626">
        <ele>1103.917612</ele>
        <time>2021-07-06T22:54:36.600Z</time>
      </trkpt>
      <trkpt lat="47.31813" lon="7.52623">
        <ele>1102.371702</ele>
        <time>2021-07-06T22:54:39.104Z</time>
      </trkpt>
      <trkpt lat="47.31778" lon="7.526">
        <ele>1094.352211</ele>
        <time>2021-07-06T22:54:50.610Z</time>
      </trkpt>
      <trkpt lat="47.31765" lon="7.52592">
        <ele>1091.483946</ele>
        <time>2021-07-06T22:54:54.683Z</time>
      </trkpt>
      <trkpt lat="47.31745" lon="7.52595">
        <ele>1087.276655</ele>
        <time>2021-07-06T22:55:00.883Z</time>
      </trkpt>
      <trkpt lat="47.31655" lon="7.52597">
        <ele>1068.53238</ele>
        <time>2021-07-06T22:55:27.581Z</time>
      </trkpt>
      <trkpt lat="47.31623" lon="7.52618">
        <ele>1062.756808</ele>
        <time>2021-07-06T22:55:38.263Z</time>
      </trkpt>
      <trkpt lat="47.31623" lon="7.52612">
        <ele>1062.376977</ele>
        <time>2021-07-06T22:55:39.393Z</time>
      </trkpt>
      <trkpt lat="47.31623" lon="7.52596">
        <ele>1061.445202</ele>
        <time>2021-07-06T22:55:42.154Z</time>
      </trkpt>
      <trkpt lat="47.3162" lon="7.52581">
        <ele>1060.561557</ele>
        <time>2021-07-06T22:55:44.804Z</time>
      </trkpt>
      <trkpt lat="47.31613" lon="7.5256">
        <ele>1059.197228</ele>
        <time>2021-07-06T22:55:48.974Z</time>
      </trkpt>
      <trkpt lat="47.31594" lon="7.52525">
        <ele>1056.560781</ele>
        <time>2021-07-06T22:55:57.225Z</time>
      </trkpt>
      <trkpt lat="47.31576" lon="7.52502">
        <ele>1054.548734</ele>
        <time>2021-07-06T22:56:03.788Z</time>
      </trkpt>
      <trkpt lat="47.31568" lon="7.52483">
        <ele>1053.269888</ele>
        <time>2021-07-06T22:56:07.966Z</time>
      </trkpt>
      <trkpt lat="47.31528" lon="7.52344">
        <ele>1048.551614</ele>
        <time>2021-07-06T22:56:40.239Z</time>
      </trkpt>
      <trkpt lat="47.31522" lon="7.52323">
        <ele>1048.569939</ele>
        <time>2021-07-06T22:56:45.552Z</time>
      </trkpt>
      <trkpt lat="47.31502" lon="7.52309">
        <ele>1048.596588</ele>
        <time>2021-07-06T22:56:52.661Z</time>
      </trkpt>
      <trkpt lat="47.3149" lon="7.52299">
        <ele>1048.614168</ele>
        <time>2021-07-06T22:56:58.062Z</time>
      </trkpt>
      <trkpt lat="47.31479" lon="7.5228">
        <ele>1048.634398</ele>
        <time>2021-07-06T22:57:03.473Z</time>
      </trkpt>
      <trkpt lat="47.3139" lon="7.52091">
        <ele>1048.924214</ele>
        <time>2021-07-06T22:57:56.743Z</time>
      </trkpt>
      <trkpt lat="47.3136" lon="7.51958">
        <ele>1049.005337</ele>
        <time>2021-07-06T22:58:27.473Z</time>
      </trkpt>
      <trkpt lat="47.3135" lon="7.51926">
        <ele>1048.570223</ele>
        <time>2021-07-06T22:58:35.120Z</time>
      </trkpt>
      <trkpt lat="47.31338" lon="7.51864">
        <ele>1047.769887</ele>
        <time>2021-07-06T22:58:49.071Z</time>
      </trkpt>
      <trkpt lat="47.31343" lon="7.51854">
        <ele>1047.61878</ele>
        <time>2021-07-06T22:58:51.848Z</time>
      </trkpt>
      <trkpt lat="47.31355" lon="7.51801">
        <ele>1046.922184</ele>
        <time>2021-07-06T22:59:06.010Z</time>
      </trkpt>
      <trkpt lat="47.31358" lon="7.51744">
        <ele>1046.228744</ele>
        <time>2021-07-06T22:59:20.054Z</time>
      </trkpt>
      <trkpt lat="47.31417" lon="7.51667">
        <ele>1043.816664</ele>
        <time>2021-07-06T22:59:48.836Z</time>
      </trkpt>
      <trkpt lat="47.31431" lon="7.51657">
        <ele>1043.262583</ele>
        <time>2021-07-06T22:59:54.473Z</time>
      </trkpt>
      <trkpt lat="47.31435" lon="7.5165">
        <ele>1043.060454</ele>
        <time>2021-07-06T22:59:56.715Z</time>
      </trkpt>
      <trkpt lat="47.31456" lon="7.51652">
        <ele>1042.324398</ele>
        <time>2021-07-06T23:00:04.283Z</time>
      </trkpt>
      <trkpt lat="47.31479" lon="7.5167">
        <ele>1041.427201</ele>
        <time>2021-07-06T23:00:13.427Z</time>
      </trkpt>
      <trkpt lat="47.31486" lon="7.5167">
        <ele>1041.159052</ele>
        <time>2021-07-06T23:00:16.205Z</time>
      </trkpt>
      <trkpt lat="47.31519" lon="7.51641">
        <ele>1039.814615</ele>
        <time>2021-07-06T23:00:29.870Z</time>
      </trkpt>
      <trkpt lat="47.31555" lon="7.51643">
        <ele>1036.717185</ele>
        <time>2021-07-06T23:00:41.462Z</time>
      </trkpt>
      <trkpt lat="47.31556" lon="7.51637">
        <ele>1036.267355</ele>
        <time>2021-07-06T23:00:42.886Z</time>
      </trkpt>
      <trkpt lat="47.31534" lon="7.5162">
        <ele>1033.85358</ele>
        <time>2021-07-06T23:00:50.787Z</time>
      </trkpt>
      <trkpt lat="47.31484" lon="7.51581">
        <ele>1028.257264</ele>
        <time>2021-07-06T23:01:07.993Z</time>
      </trkpt>
      <trkpt lat="47.31471" lon="7.51562">
        <ele>1026.431187</ele>
        <time>2021-07-06T23:01:13.775Z</time>
      </trkpt>
      <trkpt lat="47.31463" lon="7.51543">
        <ele>1024.920052</ele>
        <time>2021-07-06T23:01:18.399Z</time>
      </trkpt>
      <trkpt lat="47.31471" lon="7.51538">
        <ele>1024.057782</ele>
        <time>2021-07-06T23:01:20.994Z</time>
      </trkpt>
      <trkpt lat="47.31511" lon="7.51501">
        <ele>1018.785208</ele>
        <time>2021-07-06T23:01:35.498Z</time>
      </trkpt>
      <trkpt lat="47.31524" lon="7.51481">
        <ele>1016.537508</ele>
        <time>2021-07-06T23:01:41.091Z</time>
      </trkpt>
      <trkpt lat="47.31542" lon="7.51477">
        <ele>1014.28364</ele>
        <time>2021-07-06T23:01:47.012Z</time>
      </trkpt>
      <trkpt lat="47.31582" lon="7.51472">
        <ele>1009.405687</ele>
        <time>2021-07-06T23:01:59.120Z</time>
      </trkpt>
      <trkpt lat="47.31672" lon="7.51552">
        <ele>996.523207</ele>
        <time>2021-07-06T23:02:30.858Z</time>
      </trkpt>
      <trkpt lat="47.31681" lon="7.51554">
        <ele>995.412504</ele>
        <time>2021-07-06T23:02:33.597Z</time>
      </trkpt>
      <trkpt lat="47.31688" lon="7.51546">
        <ele>994.265048</ele>
        <time>2021-07-06T23:02:36.323Z</time>
      </trkpt>
      <trkpt lat="47.31681" lon="7.51481">
        <ele>988.662232</ele>
        <time>2021-07-06T23:02:50.097Z</time>
      </trkpt>
      <trkpt lat="47.31777" lon="7.51322">
        <ele>967.787069</ele>
        <time>2021-07-06T23:03:33.798Z</time>
      </trkpt>
      <trkpt lat="47.31791" lon="7.51297">
        <ele>964.157234</ele>
        <time>2021-07-06T23:03:40.090Z</time>
      </trkpt>
      <trkpt lat="47.31793" lon="7.51276">
        <ele>961.60585</ele>
        <time>2021-07-06T23:03:44.508Z</time>
      </trkpt>
      <trkpt lat="47.31783" lon="7.51217">
        <ele>954.447578</ele>
        <time>2021-07-06T23:03:56.881Z</time>
      </trkpt>
      <trkpt lat="47.31769" lon="7.51107">
        <ele>940.03269</ele>
        <time>2021-07-06T23:04:19.453Z</time>
      </trkpt>
      <trkpt lat="47.31769" lon="7.51036">
        <ele>929.513463</ele>
        <time>2021-07-06T23:04:33.773Z</time>
      </trkpt>
      <trkpt lat="47.31759" lon="7.50969">
        <ele>919.415765</ele>
        <time>2021-07-06T23:04:47.648Z</time>
      </trkpt>
      <trkpt lat="47.31715" lon="7.50846">
        <ele>898.10045</ele>
        <time>2021-07-06T23:05:15.840Z</time>
      </trkpt>
      <trkpt lat="47.31701" lon="7.50789">
        <ele>888.67092</ele>
        <time>2021-07-06T23:05:27.889Z</time>
      </trkpt>
      <trkpt lat="47.31697" lon="7.50786">
        <ele>887.567586</ele>
        <time>2021-07-06T23:05:29.137Z</time>
      </trkpt>
      <trkpt lat="47.31645" lon="7.50671">
        <ele>865.714778</ele>
        <time>2021-07-06T23:05:53.028Z</time>
      </trkpt>
      <trkpt lat="47.31668" lon="7.50619">
        <ele>855.757667</ele>
        <time>2021-07-06T23:06:04.497Z</time>
      </trkpt>
      <trkpt lat="47.31684" lon="7.5054">
        <ele>842.815622</ele>
        <time>2021-07-06T23:06:18.595Z</time>
      </trkpt>
      <trkpt lat="47.31695" lon="7.50514">
        <ele>837.872487</ele>
        <time>2021-07-06T23:06:24.091Z</time>
      </trkpt>
      <trkpt lat="47.31702" lon="7.50503">
        <ele>835.616168</ele>
        <time>2021-07-06T23:06:26.547Z</time>
      </trkpt>
      <trkpt lat="47.31701" lon="7.50484">
        <ele>832.621584</ele>
        <time>2021-07-06T23:06:29.803Z</time>
      </trkpt>
      <trkpt lat="47.31671" lon="7.50464">
        <ele>824.974927</ele>
        <time>2021-07-06T23:06:38.069Z</time>
      </trkpt>
      <trkpt lat="47.31669" lon="7.50445">
        <ele>822.009181</ele>
        <time>2021-07-06T23:06:41.469Z</time>
      </trkpt>
      <trkpt lat="47.31676" lon="7.50417">
        <ele>817.767303</ele>
        <time>2021-07-06T23:06:46.681Z</time>
      </trkpt>
      <trkpt lat="47.31591" lon="7.50221">
        <ele>785.090956</ele>
        <time>2021-07-06T23:07:26.475Z</time>
      </trkpt>
      <trkpt lat="47.31582" lon="7.50179">
        <ele>777.414548</ele>
        <time>2021-07-06T23:07:34.118Z</time>
      </trkpt>
      <trkpt lat="47.3158" lon="7.50156">
        <ele>773.361813</ele>
        <time>2021-07-06T23:07:38.154Z</time>
      </trkpt>
      <trkpt lat="47.31576" lon="7.50121">
        <ele>767.300994</ele>
        <time>2021-07-06T23:07:44.388Z</time>
      </trkpt>
      <trkpt lat="47.31583" lon="7.50061">
        <ele>756.793352</ele>
        <time>2021-07-06T23:07:55.471Z</time>
      </trkpt>
      <trkpt lat="47.3161" lon="7.49988">
        <ele>742.551887</ele>
        <time>2021-07-06T23:08:10.738Z</time>
      </trkpt>
      <trkpt lat="47.31618" lon="7.49924">
        <ele>732.803976</ele>
        <time>2021-07-06T23:08:22.679Z</time>
      </trkpt>
      <trkpt lat="47.31626" lon="7.49897">
        <ele>728.587353</ele>
        <time>2021-07-06T23:08:27.740Z</time>
      </trkpt>
      <trkpt lat="47.3163" lon="7.49881">
        <ele>726.121771</ele>
        <time>2021-07-06T23:08:31.015Z</time>
      </trkpt>
      <trkpt lat="47.31625" lon="7.4987">
        <ele>724.266094</ele>
        <time>2021-07-06T23:08:33.246Z</time>
      </trkpt>
      <trkpt lat="47.31595" lon="7.4984">
        <ele>716.500987</ele>
        <time>2021-07-06T23:08:42.521Z</time>
      </trkpt>
      <trkpt lat="47.31572" lon="7.49773">
        <ele>705.647824</ele>
        <time>2021-07-06T23:08:55.539Z</time>
      </trkpt>
      <trkpt lat="47.31536" lon="7.49597">
        <ele>684.522467</ele>
        <time>2021-07-06T23:09:27.182Z</time>
      </trkpt>
      <trkpt lat="47.31512" lon="7.49548">
        <ele>677.728756</ele>
        <time>2021-07-06T23:09:37.776Z</time>
      </trkpt>
      <trkpt lat="47.31496" lon="7.49529">
        <ele>674.442799</ele>
        <time>2021-07-06T23:09:42.861Z</time>
      </trkpt>
      <trkpt lat="47.31478" lon="7.49502">
        <ele>670.524506</ele>
        <time>2021-07-06T23:09:49.397Z</time>
      </trkpt>
      <trkpt lat="47.3146" lon="7.49448">
        <ele>664.496026</ele>
        <time>2021-07-06T23:09:59.955Z</time>
      </trkpt>
      <trkpt lat="47.31452" lon="7.49423">
        <ele>661.754887</ele>
        <time>2021-07-06T23:10:04.774Z</time>
      </trkpt>
      <trkpt lat="47.31408" lon="7.49351">
        <ele>652.250218</ele>
        <time>2021-07-06T23:10:21.405Z</time>
      </trkpt>
      <trkpt lat="47.31391" lon="7.49312">
        <ele>647.734105</ele>
        <time>2021-07-06T23:10:29.373Z</time>
      </trkpt>
      <trkpt lat="47.31337" lon="7.49273">
        <ele>642.729198</ele>
        <time>2021-07-06T23:10:44.987Z</time>
      </trkpt>
      <trkpt lat="47.3131" lon="7.49205">
        <ele>638.843386</ele>
        <time>2021-07-06T23:10:59.752Z</time>
      </trkpt>
      <trkpt lat="47.31266" lon="7.49183">
        <ele>635.488195</ele>
        <time>2021-07-06T23:11:13.069Z</time>
      </trkpt>
      <trkpt lat="47.31258" lon="7.49176">
        <ele>634.821045</ele>
        <time>2021-07-06T23:11:15.583Z</time>
      </trkpt>
      <trkpt lat="47.31267" lon="7.49168">
        <ele>634.057003</ele>
        <time>2021-07-06T23:11:18.870Z</time>
      </trkpt>
      <trkpt lat="47.31273" lon="7.49163">
        <ele>633.593085</ele>
        <time>2021-07-06T23:11:21.016Z</time>
      </trkpt>
      <trkpt lat="47.3128" lon="7.49157">
        <ele>633.791393</ele>
        <time>2021-07-06T23:11:23.556Z</time>
      </trkpt>
      <trkpt lat="47.3128" lon="7.49145">
        <ele>634.196985</ele>
        <time>2021-07-06T23:11:26.134Z</time>
      </trkpt>
      <trkpt lat="47.31283" lon="7.49133">
        <ele>634.61841</ele>
        <time>2021-07-06T23:11:28.867Z</time>
      </trkpt>
      <trkpt lat="47.31308" lon="7.49115">
        <ele>635.949875</ele>
        <time>2021-07-06T23:11:38.663Z</time>
      </trkpt>
      <trkpt lat="47.31354" lon="7.49067">
        <ele>638.652342</ele>
        <time>2021-07-06T23:12:00.569Z</time>
      </trkpt>
      <trkpt lat="47.31362" lon="7.49033">
        <ele>639.803208</ele>
        <time>2021-07-06T23:12:10.859Z</time>
      </trkpt>
      <trkpt lat="47.31362" lon="7.49017">
        <ele>640.322557</ele>
        <time>2021-07-06T23:12:17.149Z</time>
      </trkpt>
      <trkpt lat="47.31354" lon="7.48988">
        <ele>641.358267</ele>
        <time>2021-07-06T23:12:28.267Z</time>
      </trkpt>
      <trkpt lat="47.31349" lon="7.48982">
        <ele>641.662694</ele>
        <time>2021-07-06T23:12:31.766Z</time>
      </trkpt>
      <trkpt lat="47.31337" lon="7.48981">
        <ele>642.414983</ele>
        <time>2021-07-06T23:12:38.637Z</time>
      </trkpt>
      <trkpt lat="47.31315" lon="7.48979">
        <ele>644.996982</ele>
        <time>2021-07-06T23:12:50.311Z</time>
      </trkpt>
      <trkpt lat="47.31289" lon="7.48985">
        <ele>648.056087</ele>
        <time>2021-07-06T23:13:06.797Z</time>
      </trkpt>
      <trkpt lat="47.31277" lon="7.48991">
        <ele>649.490473</ele>
        <time>2021-07-06T23:13:13.013Z</time>
      </trkpt>
      <trkpt lat="47.31234" lon="7.48992">
        <ele>654.473171</ele>
        <time>2021-07-06T23:13:38.411Z</time>
      </trkpt>
      <trkpt lat="47.31205" lon="7.48987">
        <ele>657.803528</ele>
        <time>2021-07-06T23:13:54.899Z</time>
      </trkpt>
      <trkpt lat="47.31177" lon="7.48973">
        <ele>661.278822</ele>
        <time>2021-07-06T23:14:11.973Z</time>
      </trkpt>
      <trkpt lat="47.31164" lon="7.48964">
        <ele>662.891771</ele>
        <time>2021-07-06T23:14:19.100Z</time>
      </trkpt>
      <trkpt lat="47.31159" lon="7.48949">
        <ele>663.920673</ele>
        <time>2021-07-06T23:14:24.551Z</time>
      </trkpt>
      <trkpt lat="47.31161" lon="7.48943">
        <ele>664.325983</ele>
        <time>2021-07-06T23:14:29.301Z</time>
      </trkpt>
      <trkpt lat="47.31164" lon="7.48938">
        <ele>664.728268</ele>
        <time>2021-07-06T23:14:30.781Z</time>
      </trkpt>
      <trkpt lat="47.31174" lon="7.48936">
        <ele>665.659295</ele>
        <time>2021-07-06T23:14:36.167Z</time>
      </trkpt>
      <trkpt lat="47.31209" lon="7.4895">
        <ele>668.830051</ele>
        <time>2021-07-06T23:14:54.513Z</time>
      </trkpt>
      <trkpt lat="47.31225" lon="7.48941">
        <ele>670.414521</ele>
        <time>2021-07-06T23:15:03.250Z</time>
      </trkpt>
      <trkpt lat="47.31242" lon="7.48922">
        <ele>672.29085</ele>
        <time>2021-07-06T23:15:12.709Z</time>
      </trkpt>
      <trkpt lat="47.31302" lon="7.48802">
        <ele>680.772828</ele>
        <time>2021-07-06T23:15:59.499Z</time>
      </trkpt>
      <trkpt lat="47.31342" lon="7.48629">
        <ele>689.630703</ele>
        <time>2021-07-06T23:16:55.097Z</time>
      </trkpt>
      <trkpt lat="47.31366" lon="7.48542">
        <ele>693.846945</ele>
        <time>2021-07-06T23:17:22.272Z</time>
      </trkpt>
      <trkpt lat="47.31375" lon="7.48527">
        <ele>694.680286</ele>
        <time>2021-07-06T23:17:27.832Z</time>
      </trkpt>
      <trkpt lat="47.314" lon="7.4851">
        <ele>696.363279</ele>
        <time>2021-07-06T23:17:39.308Z</time>
      </trkpt>
      <trkpt lat="47.31454" lon="7.48423">
        <ele>701.207065</ele>
        <time>2021-07-06T23:18:12.341Z</time>
      </trkpt>
      <trkpt lat="47.3149" lon="7.48429">
        <ele>703.826207</ele>
        <time>2021-07-06T23:18:27.978Z</time>
      </trkpt>
      <trkpt lat="47.315" lon="7.48426">
        <ele>704.733196</ele>
        <time>2021-07-06T23:18:32.469Z</time>
      </trkpt>
      <trkpt lat="47.3151" lon="7.48416">
        <ele>705.821895</ele>
        <time>2021-07-06T23:18:37.827Z</time>
      </trkpt>
      <trkpt lat="47.3152" lon="7.48388">
        <ele>707.737915</ele>
        <time>2021-07-06T23:18:47.627Z</time>
      </trkpt>
      <trkpt lat="47.31523" lon="7.48345">
        <ele>710.355683</ele>
        <time>2021-07-06T23:19:01.452Z</time>
      </trkpt>
      <trkpt lat="47.3152" lon="7.483">
        <ele>713.100666</ele>
        <time>2021-07-06T23:19:16.700Z</time>
      </trkpt>
      <trkpt lat="47.31509" lon="7.48259">
        <ele>715.757284</ele>
        <time>2021-07-06T23:19:32.159Z</time>
      </trkpt>
      <trkpt lat="47.31399" lon="7.48052">
        <ele>734.547046</ele>
        <time>2021-07-06T23:21:13.958Z</time>
      </trkpt>
      <trkpt lat="47.31379" lon="7.48035">
        <ele>737.039885</ele>
        <time>2021-07-06T23:21:25.149Z</time>
      </trkpt>
      <trkpt lat="47.31362" lon="7.48022">
        <ele>738.735101</ele>
        <time>2021-07-06T23:21:35.295Z</time>
      </trkpt>
      <trkpt lat="47.31346" lon="7.47992">
        <ele>740.092352</ele>
        <time>2021-07-06T23:21:46.754Z</time>
      </trkpt>
      <trkpt lat="47.31335" lon="7.47963">
        <ele>741.265881</ele>
        <time>2021-07-06T23:21:56.574Z</time>
      </trkpt>
      <trkpt lat="47.31325" lon="7.47964">
        <ele>741.790474</ele>
        <time>2021-07-06T23:22:01.190Z</time>
      </trkpt>
      <trkpt lat="47.3132" lon="7.47953">
        <ele>742.269523</ele>
        <time>2021-07-06T23:22:05.942Z</time>
      </trkpt>
      <trkpt lat="47.31316" lon="7.47919">
        <ele>743.474279</ele>
        <time>2021-07-06T23:22:16.413Z</time>
      </trkpt>
      <trkpt lat="47.31317" lon="7.47907">
        <ele>743.918619</ele>
        <time>2021-07-06T23:22:20.545Z</time>
      </trkpt>
      <trkpt lat="47.31325" lon="7.47897">
        <ele>744.452107</ele>
        <time>2021-07-06T23:22:25.337Z</time>
      </trkpt>
      <trkpt lat="47.31324" lon="7.47742">
        <ele>750.673845</ele>
        <time>2021-07-06T23:23:09.999Z</time>
      </trkpt>
      <trkpt lat="47.31329" lon="7.47662">
        <ele>754.411956</ele>
        <time>2021-07-06T23:23:34.702Z</time>
      </trkpt>
      <trkpt lat="47.31337" lon="7.47636">
        <ele>755.717377</ele>
        <time>2021-07-06T23:23:44.649Z</time>
      </trkpt>
      <trkpt lat="47.31357" lon="7.47631">
        <ele>757.155632</ele>
        <time>2021-07-06T23:23:56.317Z</time>
      </trkpt>
      <trkpt lat="47.31367" lon="7.47616">
        <ele>758.111971</ele>
        <time>2021-07-06T23:24:04.924Z</time>
      </trkpt>
      <trkpt lat="47.3137" lon="7.47586">
        <ele>759.546754</ele>
        <time>2021-07-06T23:24:18.718Z</time>
      </trkpt>
      <trkpt lat="47.31358" lon="7.47485">
        <ele>771.475546</ele>
        <time>2021-07-06T23:25:10.825Z</time>
      </trkpt>
      <trkpt lat="47.31308" lon="7.47279">
        <ele>800.608508</ele>
        <time>2021-07-06T23:27:29.920Z</time>
      </trkpt>
      <trkpt lat="47.31305" lon="7.47199">
        <ele>813.773676</ele>
        <time>2021-07-06T23:28:32.202Z</time>
      </trkpt>
      <trkpt lat="47.31291" lon="7.47137">
        <ele>824.559481</ele>
        <time>2021-07-06T23:29:18.684Z</time>
      </trkpt>
      <trkpt lat="47.31295" lon="7.47121">
        <ele>827.263747</ele>
        <time>2021-07-06T23:29:28.263Z</time>
      </trkpt>
      <trkpt lat="47.31298" lon="7.47115">
        <ele>828.550614</ele>
        <time>2021-07-06T23:29:36.187Z</time>
      </trkpt>
      <trkpt lat="47.31299" lon="7.47113">
        <ele>828.867036</ele>
        <time>2021-07-06T23:29:39.707Z</time>
      </trkpt>
      <trkpt lat="47.31297" lon="7.4686">
        <ele>870.06605</ele>
        <time>2021-07-06T23:32:46.672Z</time>
      </trkpt>
      <trkpt lat="47.31292" lon="7.46843">
        <ele>873.065869</ele>
        <time>2021-07-06T23:32:58.527Z</time>
      </trkpt>
      <trkpt lat="47.31276" lon="7.46828">
        <ele>877.741457</ele>
        <time>2021-07-06T23:33:16.436Z</time>
      </trkpt>
      <trkpt lat="47.31241" lon="7.46762">
        <ele>887.923144</ele>
        <time>2021-07-06T23:34:13.197Z</time>
      </trkpt>
      <trkpt lat="47.31243" lon="7.46759">
        <ele>888.444056</ele>
        <time>2021-07-06T23:34:16.836Z</time>
      </trkpt>
      <trkpt lat="47.31262" lon="7.46724">
        <ele>893.546417</ele>
        <time>2021-07-06T23:34:38.957Z</time>
      </trkpt>
      <trkpt lat="47.31264" lon="7.46645">
        <ele>902.600179</ele>
        <time>2021-07-06T23:35:16.400Z</time>
      </trkpt>
      <trkpt lat="47.31256" lon="7.46604">
        <ele>907.377318</ele>
        <time>2021-07-06T23:35:33.288Z</time>
      </trkpt>
      <trkpt lat="47.31254" lon="7.46595">
        <ele>908.407983</ele>
        <time>2021-07-06T23:35:37.236Z</time>
      </trkpt>
      <trkpt lat="47.3124" lon="7.46541">
        <ele>910.976512</ele>
        <time>2021-07-06T23:35:55.665Z</time>
      </trkpt>
      <trkpt lat="47.31234" lon="7.46532">
        <ele>911.198031</ele>
        <time>2021-07-06T23:35:58.294Z</time>
      </trkpt>
      <trkpt lat="47.31224" lon="7.46459">
        <ele>912.559165</ele>
        <time>2021-07-06T23:36:16.847Z</time>
      </trkpt>
      <trkpt lat="47.31203" lon="7.46411">
        <ele>913.608456</ele>
        <time>2021-07-06T23:36:30.538Z</time>
      </trkpt>
      <trkpt lat="47.312" lon="7.4634">
        <ele>914.899802</ele>
        <time>2021-07-06T23:36:45.677Z</time>
      </trkpt>
      <trkpt lat="47.31184" lon="7.46226">
        <ele>914.225226</ele>
        <time>2021-07-06T23:37:09.606Z</time>
      </trkpt>
      <trkpt lat="47.31157" lon="7.46118">
        <ele>913.366735</ele>
        <time>2021-07-06T23:37:35.170Z</time>
      </trkpt>
      <trkpt lat="47.31134" lon="7.4606">
        <ele>913.008176</ele>
        <time>2021-07-06T23:37:50.637Z</time>
      </trkpt>
      <trkpt lat="47.31135" lon="7.46027">
        <ele>912.935869</ele>
        <time>2021-07-06T23:37:57.645Z</time>
      </trkpt>
      <trkpt lat="47.31135" lon="7.46019">
        <ele>912.91624</ele>
        <time>2021-07-06T23:37:59.727Z</time>
      </trkpt>
      <trkpt lat="47.31141" lon="7.45985">
        <ele>912.837661</ele>
        <time>2021-07-06T23:38:07.641Z</time>
      </trkpt>
      <trkpt lat="47.31138" lon="7.45937">
        <ele>912.731559</ele>
        <time>2021-07-06T23:38:18.261Z</time>
      </trkpt>
      <trkpt lat="47.3113" lon="7.45887">
        <ele>912.61691</ele>
        <time>2021-07-06T23:38:29.579Z</time>
      </trkpt>
      <trkpt lat="47.31132" lon="7.45855">
        <ele>912.544757</ele>
        <time>2021-07-06T23:38:36.459Z</time>
      </trkpt>
      <trkpt lat="47.31137" lon="7.45842">
        <ele>912.51156</ele>
        <time>2021-07-06T23:38:40.175Z</time>
      </trkpt>
      <trkpt lat="47.31154" lon="7.45828">
        <ele>912.415743</ele>
        <time>2021-07-06T23:38:46.060Z</time>
      </trkpt>
      <trkpt lat="47.31189" lon="7.45797">
        <ele>912.129327</ele>
        <time>2021-07-06T23:38:58.837Z</time>
      </trkpt>
      <trkpt lat="47.31215" lon="7.45703">
        <ele>911.641241</ele>
        <time>2021-07-06T23:39:20.468Z</time>
      </trkpt>
      <trkpt lat="47.31217" lon="7.45661">
        <ele>911.440483</ele>
        <time>2021-07-06T23:39:29.528Z</time>
      </trkpt>
      <trkpt lat="47.31225" lon="7.45628">
        <ele>911.272873</ele>
        <time>2021-07-06T23:39:37.559Z</time>
      </trkpt>
      <trkpt lat="47.3126" lon="7.45543">
        <ele>913.910353</ele>
        <time>2021-07-06T23:40:02.095Z</time>
      </trkpt>
      <trkpt lat="47.3126" lon="7.45515">
        <ele>914.794814</ele>
        <time>2021-07-06T23:40:09.317Z</time>
      </trkpt>
      <trkpt lat="47.31248" lon="7.45472">
        <ele>916.281282</ele>
        <time>2021-07-06T23:40:21.947Z</time>
      </trkpt>
      <trkpt lat="47.31244" lon="7.45457">
        <ele>916.769312</ele>
        <time>2021-07-06T23:40:26.530Z</time>
      </trkpt>
      <trkpt lat="47.31244" lon="7.45427">
        <ele>917.72091</ele>
        <time>2021-07-06T23:40:35.073Z</time>
      </trkpt>
      <trkpt lat="47.31251" lon="7.45375">
        <ele>919.422968</ele>
        <time>2021-07-06T23:40:51.258Z</time>
      </trkpt>
      <trkpt lat="47.31247" lon="7.45232">
        <ele>926.097376</ele>
        <time>2021-07-06T23:41:36.728Z</time>
      </trkpt>
      <trkpt lat="47.31263" lon="7.45189">
        <ele>928.417674</ele>
        <time>2021-07-06T23:41:51.398Z</time>
      </trkpt>
      <trkpt lat="47.31265" lon="7.45118">
        <ele>931.775587</ele>
        <time>2021-07-06T23:42:11.812Z</time>
      </trkpt>
      <trkpt lat="47.31278" lon="7.45073">
        <ele>933.132817</ele>
        <time>2021-07-06T23:42:25.486Z</time>
      </trkpt>
      <trkpt lat="47.31279" lon="7.4506">
        <ele>933.447558</ele>
        <time>2021-07-06T23:42:29.142Z</time>
      </trkpt>
      <trkpt lat="47.31267" lon="7.45006">
        <ele>934.768566</ele>
        <time>2021-07-06T23:42:44.000Z</time>
      </trkpt>
      <trkpt lat="47.31268" lon="7.4498">
        <ele>935.370523</ele>
        <time>2021-07-06T23:42:50.496Z</time>
      </trkpt>
      <trkpt lat="47.31312" lon="7.44894">
        <ele>937.865143</ele>
        <time>2021-07-06T23:43:15.904Z</time>
      </trkpt>
      <trkpt lat="47.31323" lon="7.44886">
        <ele>938.288732</ele>
        <time>2021-07-06T23:43:20.740Z</time>
      </trkpt>
      <trkpt lat="47.31379" lon="7.44878">
        <ele>940.015491</ele>
        <time>2021-07-06T23:43:40.646Z</time>
      </trkpt>
      <trkpt lat="47.314" lon="7.44866">
        <ele>940.699406</ele>
        <time>2021-07-06T23:43:49.561Z</time>
      </trkpt>
      <trkpt lat="47.31407" lon="7.44858">
        <ele>940.955489</ele>
        <time>2021-07-06T23:43:52.195Z</time>
      </trkpt>
      <trkpt lat="47.31407" lon="7.4485">
        <ele>941.1329</ele>
        <time>2021-07-06T23:43:54.586Z</time>
      </trkpt>
      <trkpt lat="47.31408" lon="7.44831">
        <ele>941.526619</ele>
        <time>2021-07-06T23:43:59.201Z</time>
      </trkpt>
      <trkpt lat="47.31407" lon="7.44826">
        <ele>941.622125</ele>
        <time>2021-07-06T23:44:01.529Z</time>
      </trkpt>
      <trkpt lat="47.31402" lon="7.44786">
        <ele>942.481731</ele>
        <time>2021-07-06T23:44:11.375Z</time>
      </trkpt>
      <trkpt lat="47.31388" lon="7.44729">
        <ele>943.741207</ele>
        <time>2021-07-06T23:44:26.688Z</time>
      </trkpt>
      <trkpt lat="47.31383" lon="7.44689">
        <ele>944.916133</ele>
        <time>2021-07-06T23:44:36.904Z</time>
      </trkpt>
      <trkpt lat="47.31381" lon="7.44659">
        <ele>945.848793</ele>
        <time>2021-07-06T23:44:46.651Z</time>
      </trkpt>
      <trkpt lat="47.31391" lon="7.44588">
        <ele>948.054291</ele>
        <time>2021-07-06T23:45:10.662Z</time>
      </trkpt>
      <trkpt lat="47.31406" lon="7.44525">
        <ele>950.107733</ele>
        <time>2021-07-06T23:45:31.827Z</time>
      </trkpt>
      <trkpt lat="47.31414" lon="7.44487">
        <ele>951.325715</ele>
        <time>2021-07-06T23:45:44.381Z</time>
      </trkpt>
      <trkpt lat="47.31409" lon="7.44454">
        <ele>952.652107</ele>
        <time>2021-07-06T23:45:54.605Z</time>
      </trkpt>
      <trkpt lat="47.31409" lon="7.44429">
        <ele>953.973932</ele>
        <time>2021-07-06T23:46:01.928Z</time>
      </trkpt>
      <trkpt lat="47.3141" lon="7.44418">
        <ele>954.540992</ele>
        <time>2021-07-06T23:46:05.258Z</time>
      </trkpt>
      <trkpt lat="47.31419" lon="7.44346">
        <ele>958.444362</ele>
        <time>2021-07-06T23:46:28.223Z</time>
      </trkpt>
      <trkpt lat="47.31427" lon="7.44323">
        <ele>959.776583</ele>
        <time>2021-07-06T23:46:39.777Z</time>
      </trkpt>
      <trkpt lat="47.31428" lon="7.44293">
        <ele>961.370949</ele>
        <time>2021-07-06T23:46:50.301Z</time>
      </trkpt>
      <trkpt lat="47.31399" lon="7.44178">
        <ele>969.045327</ele>
        <time>2021-07-06T23:47:45.432Z</time>
      </trkpt>
      <trkpt lat="47.314" lon="7.44164">
        <ele>970.266592</ele>
        <time>2021-07-06T23:47:53.504Z</time>
      </trkpt>
      <trkpt lat="47.31395" lon="7.44154">
        <ele>971.34394</ele>
        <time>2021-07-06T23:47:58.301Z</time>
      </trkpt>
      <trkpt lat="47.31394" lon="7.44142">
        <ele>972.347674</ele>
        <time>2021-07-06T23:48:02.413Z</time>
      </trkpt>
      <trkpt lat="47.31394" lon="7.44132">
        <ele>973.19608</ele>
        <time>2021-07-06T23:48:06.214Z</time>
      </trkpt>
      <trkpt lat="47.31392" lon="7.44121">
        <ele>974.158675</ele>
        <time>2021-07-06T23:48:14.508Z</time>
      </trkpt>
      <trkpt lat="47.31371" lon="7.44045">
        <ele>981.332824</ele>
        <time>2021-07-06T23:48:52.703Z</time>
      </trkpt>
      <trkpt lat="47.31335" lon="7.43988">
        <ele>988.046783</ele>
        <time>2021-07-06T23:49:32.305Z</time>
      </trkpt>
      <trkpt lat="47.31317" lon="7.43943">
        <ele>992.473253</ele>
        <time>2021-07-06T23:49:57.520Z</time>
      </trkpt>
      <trkpt lat="47.31313" lon="7.43862">
        <ele>999.238761</ele>
        <time>2021-07-06T23:50:27.951Z</time>
      </trkpt>
      <trkpt lat="47.31324" lon="7.43767">
        <ele>1007.344863</ele>
        <time>2021-07-06T23:51:11.954Z</time>
      </trkpt>
      <trkpt lat="47.31322" lon="7.43733">
        <ele>1010.174202</ele>
        <time>2021-07-06T23:51:27.966Z</time>
      </trkpt>
      <trkpt lat="47.31322" lon="7.43713">
        <ele>1012.164044</ele>
        <time>2021-07-06T23:51:39.992Z</time>
      </trkpt>
      <trkpt lat="47.31324" lon="7.43706">
        <ele>1013.194079</ele>
        <time>2021-07-06T23:51:46.105Z</time>
      </trkpt>
      <trkpt lat="47.31331" lon="7.4368">
        <ele>1016.86613</ele>
        <time>2021-07-06T23:51:58.121Z</time>
      </trkpt>
      <trkpt lat="47.31329" lon="7.43647">
        <ele>1021.046104</ele>
        <time>2021-07-06T23:52:17.014Z</time>
      </trkpt>
      <trkpt lat="47.31325" lon="7.43634">
        <ele>1022.942079</ele>
        <time>2021-07-06T23:52:23.908Z</time>
      </trkpt>
      <trkpt lat="47.31319" lon="7.43625">
        <ele>1024.603943</ele>
        <time>2021-07-06T23:52:33.645Z</time>
      </trkpt>
      <trkpt lat="47.31301" lon="7.43616">
        <ele>1028.301632</ele>
        <time>2021-07-06T23:52:50.290Z</time>
      </trkpt>
      <trkpt lat="47.31291" lon="7.43618">
        <ele>1030.173746</ele>
        <time>2021-07-06T23:52:58.196Z</time>
      </trkpt>
      <trkpt lat="47.31278" lon="7.43625">
        <ele>1032.946329</ele>
        <time>2021-07-06T23:53:12.247Z</time>
      </trkpt>
      <trkpt lat="47.31276" lon="7.43619">
        <ele>1033.890227</ele>
        <time>2021-07-06T23:53:18.688Z</time>
      </trkpt>
      <trkpt lat="47.31273" lon="7.43576">
        <ele>1039.4719</ele>
        <time>2021-07-06T23:53:44.351Z</time>
      </trkpt>
      <trkpt lat="47.31253" lon="7.43546">
        <ele>1044.774105</ele>
        <time>2021-07-06T23:54:12.787Z</time>
      </trkpt>
      <trkpt lat="47.3125" lon="7.43524">
        <ele>1047.821953</ele>
        <time>2021-07-06T23:54:29.619Z</time>
      </trkpt>
      <trkpt lat="47.3125" lon="7.43502">
        <ele>1050.812847</ele>
        <time>2021-07-06T23:54:42.900Z</time>
      </trkpt>
      <trkpt lat="47.31245" lon="7.43449">
        <ele>1058.134609</ele>
        <time>2021-07-06T23:55:21.747Z</time>
      </trkpt>
      <trkpt lat="47.31245" lon="7.43365">
        <ele>1069.470696</ele>
        <time>2021-07-06T23:56:14.904Z</time>
      </trkpt>
      <trkpt lat="47.3122" lon="7.43291">
        <ele>1080.729603</ele>
        <time>2021-07-06T23:57:04.598Z</time>
      </trkpt>
      <trkpt lat="47.3122" lon="7.43222">
        <ele>1086.924623</ele>
        <time>2021-07-06T23:57:38.335Z</time>
      </trkpt>
      <trkpt lat="47.31205" lon="7.4315">
        <ele>1093.259893</ele>
        <time>2021-07-06T23:58:12.370Z</time>
      </trkpt>
      <trkpt lat="47.31188" lon="7.43254">
        <ele>1102.239691</ele>
        <time>2021-07-06T23:58:55.974Z</time>
      </trkpt>
      <trkpt lat="47.31193" lon="7.43293">
        <ele>1106.202448</ele>
        <time>2021-07-06T23:59:13.430Z</time>
      </trkpt>
      <trkpt lat="47.31177" lon="7.43285">
        <ele>1109.157315</ele>
        <time>2021-07-06T23:59:26.016Z</time>
      </trkpt>
      <trkpt lat="47.31175" lon="7.433">
        <ele>1110.976233</ele>
        <time>2021-07-06T23:59:31.590Z</time>
      </trkpt>
      <trkpt lat="47.31163" lon="7.43302">
        <ele>1113.152862</ele>
        <time>2021-07-06T23:59:43.316Z</time>
      </trkpt>
      <trkpt lat="47.31151" lon="7.43314">
        <ele>1115.74696</ele>
        <time>2021-07-06T23:59:51.069Z</time>
      </trkpt>
      <trkpt lat="47.31132" lon="7.4335">
        <ele>1121.220847</ele>
        <time>2021-07-07T00:00:14.161Z</time>
      </trkpt>
      <trkpt lat="47.31129" lon="7.43368">
        <ele>1123.333293</ele>
        <time>2021-07-07T00:00:22.233Z</time>
      </trkpt>
      <trkpt lat="47.3112" lon="7.43377">
        <ele>1125.158409</ele>
        <time>2021-07-07T00:00:32.039Z</time>
      </trkpt>
      <trkpt lat="47.31114" lon="7.43366">
        <ele>1126.856212</ele>
        <time>2021-07-07T00:00:44.873Z</time>
      </trkpt>
      <trkpt lat="47.31108" lon="7.43352">
        <ele>1128.843586</ele>
        <time>2021-07-07T00:00:53.432Z</time>
      </trkpt>
      <trkpt lat="47.31103" lon="7.43336">
        <ele>1130.933935</ele>
        <time>2021-07-07T00:01:03.884Z</time>
      </trkpt>
      <trkpt lat="47.31098" lon="7.43329">
        <ele>1132.124847</ele>
        <time>2021-07-07T00:01:14.811Z</time>
      </trkpt>
      <trkpt lat="47.31089" lon="7.43322">
        <ele>1133.892339</ele>
        <time>2021-07-07T00:01:26.252Z</time>
      </trkpt>
      <trkpt lat="47.31049" lon="7.43316">
        <ele>1145.225538</ele>
        <time>2021-07-07T00:02:11.270Z</time>
      </trkpt>
      <trkpt lat="47.3105" lon="7.43287">
        <ele>1151.371027</ele>
        <time>2021-07-07T00:02:35.149Z</time>
      </trkpt>
      <trkpt lat="47.31053" lon="7.43268">
        <ele>1155.64657</ele>
        <time>2021-07-07T00:02:55.054Z</time>
      </trkpt>
      <trkpt lat="47.31023" lon="7.43288">
        <ele>1166.209968</ele>
        <time>2021-07-07T00:03:43.782Z</time>
      </trkpt>
      <trkpt lat="47.30956" lon="7.43345">
        <ele>1190.472107</ele>
        <time>2021-07-07T00:05:33.714Z</time>
      </trkpt>
      <trkpt lat="47.30955" lon="7.43331">
        <ele>1193.365286</ele>
        <time>2021-07-07T00:05:46.379Z</time>
      </trkpt>
      <trkpt lat="47.30947" lon="7.43318">
        <ele>1196.872161</ele>
        <time>2021-07-07T00:06:02.639Z</time>
      </trkpt>
      <trkpt lat="47.30934" lon="7.43326">
        <ele>1201.029601</ele>
        <time>2021-07-07T00:06:24.883Z</time>
      </trkpt>
      <trkpt lat="47.30935" lon="7.43261">
        <ele>1213.930337</ele>
        <time>2021-07-07T00:07:22.742Z</time>
      </trkpt>
      <trkpt lat="47.30902" lon="7.4326">
        <ele>1223.636806</ele>
        <time>2021-07-07T00:08:03.553Z</time>
      </trkpt>
      <trkpt lat="47.30897" lon="7.43228">
        <ele>1230.270047</ele>
        <time>2021-07-07T00:08:30.087Z</time>
      </trkpt>
      <trkpt lat="47.3089" lon="7.43235">
        <ele>1232.582266</ele>
        <time>2021-07-07T00:08:40.953Z</time>
      </trkpt>
      <trkpt lat="47.30879" lon="7.43229">
        <ele>1235.9778</ele>
        <time>2021-07-07T00:08:54.121Z</time>
      </trkpt>
      <trkpt lat="47.30865" lon="7.43172">
        <ele>1247.028878</ele>
        <time>2021-07-07T00:09:39.879Z</time>
      </trkpt>
      <trkpt lat="47.30837" lon="7.43203">
        <ele>1253.489009</ele>
        <time>2021-07-07T00:10:17.008Z</time>
      </trkpt>
      <trkpt lat="47.30828" lon="7.43168">
        <ele>1258.254552</ele>
        <time>2021-07-07T00:10:44.026Z</time>
      </trkpt>
      <trkpt lat="47.30828" lon="7.43168">
        <ele>1258.254552</ele>
        <time>2021-07-07T00:10:44.026Z</time>
      </trkpt>
      <trkpt lat="47.30825" lon="7.43156">
        <ele>1259.780389</ele>
        <time>2021-07-07T00:10:50.178Z</time>
      </trkpt>
      <trkpt lat="47.3082" lon="7.43147">
        <ele>1261.205889</ele>
        <time>2021-07-07T00:10:56.566Z</time>
      </trkpt>
      <trkpt lat="47.30815" lon="7.43134">
        <ele>1263.078251</ele>
        <time>2021-07-07T00:11:05.080Z</time>
      </trkpt>
      <trkpt lat="47.30813" lon="7.43127">
        <ele>1263.962321</ele>
        <time>2021-07-07T00:11:10.682Z</time>
      </trkpt>
      <trkpt lat="47.30802" lon="7.43083">
        <ele>1269.810708</ele>
        <time>2021-07-07T00:11:34.217Z</time>
      </trkpt>
      <trkpt lat="47.30786" lon="7.43015">
        <ele>1278.266488</ele>
        <time>2021-07-07T00:12:08.477Z</time>
      </trkpt>
      <trkpt lat="47.30783" lon="7.42995">
        <ele>1278.900996</ele>
        <time>2021-07-07T00:12:16.637Z</time>
      </trkpt>
      <trkpt lat="47.30779" lon="7.42969">
        <ele>1279.730908</ele>
        <time>2021-07-07T00:12:29.554Z</time>
      </trkpt>
      <trkpt lat="47.30766" lon="7.4289">
        <ele>1282.218355</ele>
        <time>2021-07-07T00:12:55.431Z</time>
      </trkpt>
      <trkpt lat="47.30737" lon="7.42787">
        <ele>1285.622555</ele>
        <time>2021-07-07T00:13:25.818Z</time>
      </trkpt>
      <trkpt lat="47.30731" lon="7.4277">
        <ele>1286.224095</ele>
        <time>2021-07-07T00:13:30.942Z</time>
      </trkpt>
      <trkpt lat="47.3073" lon="7.42767">
        <ele>1286.244627</ele>
        <time>2021-07-07T00:13:31.750Z</time>
      </trkpt>
      <trkpt lat="47.30711" lon="7.42719">
        <ele>1286.051828</ele>
        <time>2021-07-07T00:13:45.395Z</time>
      </trkpt>
      <trkpt lat="47.30697" lon="7.42676">
        <ele>1285.880398</ele>
        <time>2021-07-07T00:13:57.581Z</time>
      </trkpt>
      <trkpt lat="47.30676" lon="7.42634">
        <ele>1285.695721</ele>
        <time>2021-07-07T00:14:10.864Z</time>
      </trkpt>
      <trkpt lat="47.30666" lon="7.4261">
        <ele>1285.597427</ele>
        <time>2021-07-07T00:14:17.890Z</time>
      </trkpt>
      <trkpt lat="47.30655" lon="7.42597">
        <ele>1285.522973</ele>
        <time>2021-07-07T00:14:23.564Z</time>
      </trkpt>
      <trkpt lat="47.30635" lon="7.4258">
        <ele>1285.400302</ele>
        <time>2021-07-07T00:14:32.440Z</time>
      </trkpt>
      <trkpt lat="47.3065" lon="7.42625">
        <ele>1285.358342</ele>
        <time>2021-07-07T00:14:45.960Z</time>
      </trkpt>
      <trkpt lat="47.30661" lon="7.4268">
        <ele>1285.452132</ele>
        <time>2021-07-07T00:15:01.727Z</time>
      </trkpt>
      <trkpt lat="47.30663" lon="7.42689">
        <ele>1285.469196</ele>
        <time>2021-07-07T00:15:04.477Z</time>
      </trkpt>
      <trkpt lat="47.30682" lon="7.4277">
        <ele>1285.611364</ele>
        <time>2021-07-07T00:15:28.052Z</time>
      </trkpt>
      <trkpt lat="47.30691" lon="7.42807">
        <ele>1285.6757</ele>
        <time>2021-07-07T00:15:37.980Z</time>
      </trkpt>
      <trkpt lat="47.30708" lon="7.42847">
        <ele>1285.751924</ele>
        <time>2021-07-07T00:15:50.104Z</time>
      </trkpt>
      <trkpt lat="47.30713" lon="7.42863">
        <ele>1285.206956</ele>
        <time>2021-07-07T00:15:54.749Z</time>
      </trkpt>
      <trkpt lat="47.30714" lon="7.42864">
        <ele>1285.175794</ele>
        <time>2021-07-07T00:15:54.999Z</time>
      </trkpt>
      <trkpt lat="47.30714" lon="7.42865">
        <ele>1285.141815</ele>
        <time>2021-07-07T00:15:55.255Z</time>
      </trkpt>
      <trkpt lat="47.30716" lon="7.4287">
        <ele>1284.942388</ele>
        <time>2021-07-07T00:15:56.829Z</time>
      </trkpt>
      <trkpt lat="47.30717" lon="7.42874">
        <ele>1284.814942</ele>
        <time>2021-07-07T00:15:57.870Z</time>
      </trkpt>
      <trkpt lat="47.30718" lon="7.42876">
        <ele>1284.749814</ele>
        <time>2021-07-07T00:15:58.416Z</time>
      </trkpt>
      <trkpt lat="47.30718" lon="7.42876">
        <ele>1284.749814</ele>
        <time>2021-07-07T00:15:58.482Z</time>
      </trkpt>
      <trkpt lat="47.30718" lon="7.42909">
        <ele>1283.727409</ele>
        <time>2021-07-07T00:16:06.870Z</time>
      </trkpt>
      <trkpt lat="47.30719" lon="7.42965">
        <ele>1281.97401</ele>
        <time>2021-07-07T00:16:20.267Z</time>
      </trkpt>
      <trkpt lat="47.30719" lon="7.42965">
        <ele>1281.97401</ele>
        <time>2021-07-07T00:16:20.267Z</time>
      </trkpt>
      <trkpt lat="47.3072" lon="7.42979">
        <ele>1281.551189</ele>
        <time>2021-07-07T00:16:23.446Z</time>
      </trkpt>
      <trkpt lat="47.3072" lon="7.42979">
        <ele>1281.551189</ele>
        <time>2021-07-07T00:16:23.446Z</time>
      </trkpt>
      <trkpt lat="47.30723" lon="7.43023">
        <ele>1280.1535</ele>
        <time>2021-07-07T00:16:33.681Z</time>
      </trkpt>
      <trkpt lat="47.30729" lon="7.43127">
        <ele>1276.755563</ele>
        <time>2021-07-07T00:16:56.754Z</time>
      </trkpt>
      <trkpt lat="47.30738" lon="7.43152">
        <ele>1275.56722</ele>
        <time>2021-07-07T00:17:03.400Z</time>
      </trkpt>
      <trkpt lat="47.30738" lon="7.4316">
        <ele>1275.231257</ele>
        <time>2021-07-07T00:17:05.084Z</time>
      </trkpt>
      <trkpt lat="47.30738" lon="7.4316">
        <ele>1275.231257</ele>
        <time>2021-07-07T00:17:05.084Z</time>
      </trkpt>
      <trkpt lat="47.30735" lon="7.43184">
        <ele>1274.264252</ele>
        <time>2021-07-07T00:17:10.394Z</time>
      </trkpt>
      <trkpt lat="47.30744" lon="7.43266">
        <ele>1270.852319</ele>
        <time>2021-07-07T00:17:29.376Z</time>
      </trkpt>
      <trkpt lat="47.30777" lon="7.43474">
        <ele>1262.736461</ele>
        <time>2021-07-07T00:18:19.117Z</time>
      </trkpt>
      <trkpt lat="47.30814" lon="7.43848">
        <ele>1248.562894</ele>
        <time>2021-07-07T00:19:46.741Z</time>
      </trkpt>
      <trkpt lat="47.30827" lon="7.43954">
        <ele>1243.248441</ele>
        <time>2021-07-07T00:20:10.448Z</time>
      </trkpt>
      <trkpt lat="47.30841" lon="7.44033">
        <ele>1238.631718</ele>
        <time>2021-07-07T00:20:28.098Z</time>
      </trkpt>
      <trkpt lat="47.30843" lon="7.44065">
        <ele>1236.809587</ele>
        <time>2021-07-07T00:20:35.085Z</time>
      </trkpt>
      <trkpt lat="47.30843" lon="7.44065">
        <ele>1236.809587</ele>
        <time>2021-07-07T00:20:35.085Z</time>
      </trkpt>
      <trkpt lat="47.3084" lon="7.44082">
        <ele>1235.808184</ele>
        <time>2021-07-07T00:20:38.883Z</time>
      </trkpt>
      <trkpt lat="47.30834" lon="7.44107">
        <ele>1234.315574</ele>
        <time>2021-07-07T00:20:44.647Z</time>
      </trkpt>
      <trkpt lat="47.30826" lon="7.44118">
        <ele>1233.385866</ele>
        <time>2021-07-07T00:20:48.133Z</time>
      </trkpt>
      <trkpt lat="47.308" lon="7.44136">
        <ele>1231.157544</ele>
        <time>2021-07-07T00:20:57.084Z</time>
      </trkpt>
      <trkpt lat="47.30746" lon="7.44178">
        <ele>1226.653941</ele>
        <time>2021-07-07T00:21:16.401Z</time>
      </trkpt>
      <trkpt lat="47.30656" lon="7.44208">
        <ele>1219.909009</ele>
        <time>2021-07-07T00:21:46.569Z</time>
      </trkpt>
      <trkpt lat="47.30616" lon="7.44225">
        <ele>1217.30951</ele>
        <time>2021-07-07T00:22:01.198Z</time>
      </trkpt>
      <trkpt lat="47.30601" lon="7.44237">
        <ele>1216.357855</ele>
        <time>2021-07-07T00:22:07.230Z</time>
      </trkpt>
      <trkpt lat="47.3058" lon="7.44273">
        <ele>1214.607316</ele>
        <time>2021-07-07T00:22:18.242Z</time>
      </trkpt>
      <trkpt lat="47.30546" lon="7.44321">
        <ele>1211.999663</ele>
        <time>2021-07-07T00:22:34.543Z</time>
      </trkpt>
      <trkpt lat="47.30538" lon="7.44333">
        <ele>1211.368819</ele>
        <time>2021-07-07T00:22:38.370Z</time>
      </trkpt>
      <trkpt lat="47.30449" lon="7.44427">
        <ele>1201.212879</ele>
        <time>2021-07-07T00:23:14.275Z</time>
      </trkpt>
      <trkpt lat="47.30414" lon="7.44482">
        <ele>1195.15261</ele>
        <time>2021-07-07T00:23:29.780Z</time>
      </trkpt>
      <trkpt lat="47.30372" lon="7.44592">
        <ele>1183.794661</ele>
        <time>2021-07-07T00:23:55.407Z</time>
      </trkpt>
      <trkpt lat="47.30355" lon="7.4468">
        <ele>1172.807089</ele>
        <time>2021-07-07T00:24:13.879Z</time>
      </trkpt>
      <trkpt lat="47.30319" lon="7.44741">
        <ele>1163.085264</ele>
        <time>2021-07-07T00:24:30.186Z</time>
      </trkpt>
      <trkpt lat="47.30301" lon="7.44827">
        <ele>1152.909406</ele>
        <time>2021-07-07T00:24:48.386Z</time>
      </trkpt>
      <trkpt lat="47.30281" lon="7.44892">
        <ele>1145.907684</ele>
        <time>2021-07-07T00:25:02.977Z</time>
      </trkpt>
      <trkpt lat="47.30257" lon="7.45065">
        <ele>1129.233433</ele>
        <time>2021-07-07T00:25:39.163Z</time>
      </trkpt>
      <trkpt lat="47.30266" lon="7.45156">
        <ele>1124.809956</ele>
        <time>2021-07-07T00:25:58.919Z</time>
      </trkpt>
      <trkpt lat="47.30267" lon="7.45255">
        <ele>1120.07121</ele>
        <time>2021-07-07T00:26:21.395Z</time>
      </trkpt>
      <trkpt lat="47.30262" lon="7.4528">
        <ele>1118.810888</ele>
        <time>2021-07-07T00:26:27.492Z</time>
      </trkpt>
      <trkpt lat="47.30245" lon="7.45301">
        <ele>1117.247381</ele>
        <time>2021-07-07T00:26:35.472Z</time>
      </trkpt>
      <trkpt lat="47.30203" lon="7.45356">
        <ele>1116.670517</ele>
        <time>2021-07-07T00:26:55.907Z</time>
      </trkpt>
      <trkpt lat="47.30175" lon="7.4537">
        <ele>1116.460479</ele>
        <time>2021-07-07T00:27:07.128Z</time>
      </trkpt>
      <trkpt lat="47.30155" lon="7.45373">
        <ele>1116.322404</ele>
        <time>2021-07-07T00:27:14.860Z</time>
      </trkpt>
      <trkpt lat="47.30118" lon="7.45349">
        <ele>1116.033838</ele>
        <time>2021-07-07T00:27:30.945Z</time>
      </trkpt>
      <trkpt lat="47.30105" lon="7.45329">
        <ele>1115.904206</ele>
        <time>2021-07-07T00:27:38.463Z</time>
      </trkpt>
      <trkpt lat="47.30105" lon="7.45287">
        <ele>1115.629467</ele>
        <time>2021-07-07T00:27:49.930Z</time>
      </trkpt>
      <trkpt lat="47.3011" lon="7.45262">
        <ele>1115.382801</ele>
        <time>2021-07-07T00:27:56.915Z</time>
      </trkpt>
      <trkpt lat="47.30105" lon="7.45238">
        <ele>1115.134065</ele>
        <time>2021-07-07T00:28:03.639Z</time>
      </trkpt>
      <trkpt lat="47.30088" lon="7.45229">
        <ele>1114.887129</ele>
        <time>2021-07-07T00:28:10.364Z</time>
      </trkpt>
      <trkpt lat="47.30033" lon="7.45236">
        <ele>1114.100878</ele>
        <time>2021-07-07T00:28:31.010Z</time>
      </trkpt>
      <trkpt lat="47.30008" lon="7.45225">
        <ele>1113.721721</ele>
        <time>2021-07-07T00:28:40.756Z</time>
      </trkpt>
      <trkpt lat="47.29982" lon="7.45206">
        <ele>1113.310053</ele>
        <time>2021-07-07T00:28:51.109Z</time>
      </trkpt>
      <trkpt lat="47.29961" lon="7.452">
        <ele>1111.724534</ele>
        <time>2021-07-07T00:28:58.398Z</time>
      </trkpt>
      <trkpt lat="47.2994" lon="7.45197">
        <ele>1109.638533</ele>
        <time>2021-07-07T00:29:05.848Z</time>
      </trkpt>
      <trkpt lat="47.29899" lon="7.45205">
        <ele>1105.601305</ele>
        <time>2021-07-07T00:29:19.448Z</time>
      </trkpt>
      <trkpt lat="47.29815" lon="7.45165">
        <ele>1097.022464</ele>
        <time>2021-07-07T00:29:45.866Z</time>
      </trkpt>
      <trkpt lat="47.29788" lon="7.45162">
        <ele>1093.875653</ele>
        <time>2021-07-07T00:29:54.116Z</time>
      </trkpt>
      <trkpt lat="47.29762" lon="7.45171">
        <ele>1090.319414</ele>
        <time>2021-07-07T00:30:02.219Z</time>
      </trkpt>
      <trkpt lat="47.29758" lon="7.4517">
        <ele>1089.797948</ele>
        <time>2021-07-07T00:30:03.537Z</time>
      </trkpt>
      <trkpt lat="47.29755" lon="7.4519">
        <ele>1087.95351</ele>
        <time>2021-07-07T00:30:07.688Z</time>
      </trkpt>
      <trkpt lat="47.29749" lon="7.45209">
        <ele>1086.079565</ele>
        <time>2021-07-07T00:30:12.143Z</time>
      </trkpt>
      <trkpt lat="47.29737" lon="7.45218">
        <ele>1084.243965</ele>
        <time>2021-07-07T00:30:16.259Z</time>
      </trkpt>
      <trkpt lat="47.29715" lon="7.45219">
        <ele>1081.428788</ele>
        <time>2021-07-07T00:30:22.643Z</time>
      </trkpt>
      <trkpt lat="47.29712" lon="7.4524">
        <ele>1079.483519</ele>
        <time>2021-07-07T00:30:26.995Z</time>
      </trkpt>
      <trkpt lat="47.29733" lon="7.45323">
        <ele>1071.567371</ele>
        <time>2021-07-07T00:30:45.213Z</time>
      </trkpt>
      <trkpt lat="47.29753" lon="7.45351">
        <ele>1070.133994</ele>
        <time>2021-07-07T00:30:53.586Z</time>
      </trkpt>
      <trkpt lat="47.29781" lon="7.45439">
        <ele>1066.722138</ele>
        <time>2021-07-07T00:31:16.338Z</time>
      </trkpt>
      <trkpt lat="47.29809" lon="7.45485">
        <ele>1064.583368</ele>
        <time>2021-07-07T00:31:31.422Z</time>
      </trkpt>
      <trkpt lat="47.29887" lon="7.45657">
        <ele>1059.158526</ele>
        <time>2021-07-07T00:32:24.950Z</time>
      </trkpt>
      <trkpt lat="47.2992" lon="7.45697">
        <ele>1057.762626</ele>
        <time>2021-07-07T00:32:40.343Z</time>
      </trkpt>
      <trkpt lat="47.29929" lon="7.45729">
        <ele>1056.992411</ele>
        <time>2021-07-07T00:32:47.547Z</time>
      </trkpt>
      <trkpt lat="47.29928" lon="7.45748">
        <ele>1056.5804</ele>
        <time>2021-07-07T00:32:52.325Z</time>
      </trkpt>
      <trkpt lat="47.29923" lon="7.45748">
        <ele>1056.163486</ele>
        <time>2021-07-07T00:32:54.018Z</time>
      </trkpt>
      <trkpt lat="47.29919" lon="7.45741">
        <ele>1055.307513</ele>
        <time>2021-07-07T00:32:55.853Z</time>
      </trkpt>
      <trkpt lat="47.29913" lon="7.45734">
        <ele>1054.163188</ele>
        <time>2021-07-07T00:32:58.347Z</time>
      </trkpt>
      <trkpt lat="47.29907" lon="7.45731">
        <ele>1053.235386</ele>
        <time>2021-07-07T00:33:00.308Z</time>
      </trkpt>
      <trkpt lat="47.29894" lon="7.45726">
        <ele>1051.404714</ele>
        <time>2021-07-07T00:33:05.077Z</time>
      </trkpt>
      <trkpt lat="47.29887" lon="7.45704">
        <ele>1049.100882</ele>
        <time>2021-07-07T00:33:10.007Z</time>
      </trkpt>
      <trkpt lat="47.2987" lon="7.4575">
        <ele>1044.104241</ele>
        <time>2021-07-07T00:33:20.715Z</time>
      </trkpt>
      <trkpt lat="47.29841" lon="7.45779">
        <ele>1039.110883</ele>
        <time>2021-07-07T00:33:31.309Z</time>
      </trkpt>
      <trkpt lat="47.2984" lon="7.45735">
        <ele>1034.945014</ele>
        <time>2021-07-07T00:33:40.132Z</time>
      </trkpt>
      <trkpt lat="47.29833" lon="7.45722">
        <ele>1033.275593</ele>
        <time>2021-07-07T00:33:43.658Z</time>
      </trkpt>
      <trkpt lat="47.29833" lon="7.45713">
        <ele>1032.423167</ele>
        <time>2021-07-07T00:33:45.462Z</time>
      </trkpt>
      <trkpt lat="47.29812" lon="7.45692">
        <ele>1028.25919</ele>
        <time>2021-07-07T00:33:53.014Z</time>
      </trkpt>
      <trkpt lat="47.29808" lon="7.45742">
        <ele>1022.195147</ele>
        <time>2021-07-07T00:34:03.193Z</time>
      </trkpt>
      <trkpt lat="47.29802" lon="7.45761">
        <ele>1019.65047</ele>
        <time>2021-07-07T00:34:07.514Z</time>
      </trkpt>
      <trkpt lat="47.298" lon="7.45763">
        <ele>1019.25412</ele>
        <time>2021-07-07T00:34:08.369Z</time>
      </trkpt>
      <trkpt lat="47.29793" lon="7.45772">
        <ele>1017.668721</ele>
        <time>2021-07-07T00:34:11.021Z</time>
      </trkpt>
      <trkpt lat="47.29797" lon="7.45793">
        <ele>1015.012364</ele>
        <time>2021-07-07T00:34:15.526Z</time>
      </trkpt>
      <trkpt lat="47.29767" lon="7.45818">
        <ele>1008.847819</ele>
        <time>2021-07-07T00:34:25.827Z</time>
      </trkpt>
      <trkpt lat="47.29745" lon="7.45869">
        <ele>1001.575834</ele>
        <time>2021-07-07T00:34:37.988Z</time>
      </trkpt>
      <trkpt lat="47.29737" lon="7.45874">
        <ele>999.898949</ele>
        <time>2021-07-07T00:34:40.826Z</time>
      </trkpt>
      <trkpt lat="47.29737" lon="7.45824">
        <ele>992.672669</ele>
        <time>2021-07-07T00:34:51.011Z</time>
      </trkpt>
      <trkpt lat="47.29755" lon="7.45784">
        <ele>985.644909</ele>
        <time>2021-07-07T00:35:00.568Z</time>
      </trkpt>
      <trkpt lat="47.29751" lon="7.4577">
        <ele>983.491215</ele>
        <time>2021-07-07T00:35:03.503Z</time>
      </trkpt>
      <trkpt lat="47.29732" lon="7.45773">
        <ele>979.323688</ele>
        <time>2021-07-07T00:35:09.151Z</time>
      </trkpt>
      <trkpt lat="47.29727" lon="7.45741">
        <ele>974.427457</ele>
        <time>2021-07-07T00:35:15.823Z</time>
      </trkpt>
      <trkpt lat="47.29719" lon="7.45785">
        <ele>967.694859</ele>
        <time>2021-07-07T00:35:25.007Z</time>
      </trkpt>
      <trkpt lat="47.29665" lon="7.4579">
        <ele>955.703964</ele>
        <time>2021-07-07T00:35:41.144Z</time>
      </trkpt>
      <trkpt lat="47.29626" lon="7.45809">
        <ele>945.841359</ele>
        <time>2021-07-07T00:35:53.648Z</time>
      </trkpt>
      <trkpt lat="47.29627" lon="7.45724">
        <ele>932.16761</ele>
        <time>2021-07-07T00:36:11.428Z</time>
      </trkpt>
      <trkpt lat="47.29611" lon="7.45774">
        <ele>923.244111</ele>
        <time>2021-07-07T00:36:22.726Z</time>
      </trkpt>
      <trkpt lat="47.29613" lon="7.45729">
        <ele>916.190928</ele>
        <time>2021-07-07T00:36:31.843Z</time>
      </trkpt>
      <trkpt lat="47.29604" lon="7.45743">
        <ele>913.551493</ele>
        <time>2021-07-07T00:36:35.707Z</time>
      </trkpt>
      <trkpt lat="47.29602" lon="7.45734">
        <ele>912.217</ele>
        <time>2021-07-07T00:36:37.669Z</time>
      </trkpt>
      <trkpt lat="47.296" lon="7.45749">
        <ele>910.125229</ele>
        <time>2021-07-07T00:36:40.736Z</time>
      </trkpt>
      <trkpt lat="47.29596" lon="7.45748">
        <ele>909.364403</ele>
        <time>2021-07-07T00:36:41.858Z</time>
      </trkpt>
      <trkpt lat="47.29596" lon="7.4574">
        <ele>908.255144</ele>
        <time>2021-07-07T00:36:43.492Z</time>
      </trkpt>
      <trkpt lat="47.29593" lon="7.45723">
        <ele>905.811067</ele>
        <time>2021-07-07T00:36:47.092Z</time>
      </trkpt>
      <trkpt lat="47.29589" lon="7.45719">
        <ele>904.906831</ele>
        <time>2021-07-07T00:36:48.407Z</time>
      </trkpt>
      <trkpt lat="47.29578" lon="7.45752">
        <ele>899.765457</ele>
        <time>2021-07-07T00:36:56.013Z</time>
      </trkpt>
      <trkpt lat="47.29577" lon="7.45726">
        <ele>896.182398</ele>
        <time>2021-07-07T00:37:01.297Z</time>
      </trkpt>
      <trkpt lat="47.29567" lon="7.45743">
        <ele>893.116292</ele>
        <time>2021-07-07T00:37:05.861Z</time>
      </trkpt>
      <trkpt lat="47.29559" lon="7.45718">
        <ele>889.395679</ele>
        <time>2021-07-07T00:37:11.363Z</time>
      </trkpt>
      <trkpt lat="47.29554" lon="7.45758">
        <ele>883.795304</ele>
        <time>2021-07-07T00:37:19.591Z</time>
      </trkpt>
      <trkpt lat="47.29546" lon="7.45765">
        <ele>881.941166</ele>
        <time>2021-07-07T00:37:22.411Z</time>
      </trkpt>
      <trkpt lat="47.29544" lon="7.45753">
        <ele>880.194947</ele>
        <time>2021-07-07T00:37:24.926Z</time>
      </trkpt>
      <trkpt lat="47.29534" lon="7.45762">
        <ele>877.687294</ele>
        <time>2021-07-07T00:37:28.397Z</time>
      </trkpt>
      <trkpt lat="47.29517" lon="7.45758">
        <ele>873.90979</ele>
        <time>2021-07-07T00:37:33.805Z</time>
      </trkpt>
      <trkpt lat="47.29492" lon="7.45771">
        <ele>868.167601</ele>
        <time>2021-07-07T00:37:41.691Z</time>
      </trkpt>
      <trkpt lat="47.29496" lon="7.4576">
        <ele>866.262626</ele>
        <time>2021-07-07T00:37:44.327Z</time>
      </trkpt>
      <trkpt lat="47.29492" lon="7.45744">
        <ele>863.711067</ele>
        <time>2021-07-07T00:37:47.844Z</time>
      </trkpt>
      <trkpt lat="47.29509" lon="7.45724">
        <ele>858.993347</ele>
        <time>2021-07-07T00:37:54.314Z</time>
      </trkpt>
      <trkpt lat="47.2951" lon="7.45714">
        <ele>857.507912</ele>
        <time>2021-07-07T00:37:56.452Z</time>
      </trkpt>
      <trkpt lat="47.29511" lon="7.45703">
        <ele>855.934256</ele>
        <time>2021-07-07T00:37:58.631Z</time>
      </trkpt>
      <trkpt lat="47.29511" lon="7.45691">
        <ele>854.107117</ele>
        <time>2021-07-07T00:38:01.171Z</time>
      </trkpt>
      <trkpt lat="47.29502" lon="7.4569">
        <ele>852.172656</ele>
        <time>2021-07-07T00:38:04.100Z</time>
      </trkpt>
      <trkpt lat="47.29455" lon="7.45676">
        <ele>841.762709</ele>
        <time>2021-07-07T00:38:18.260Z</time>
      </trkpt>
      <trkpt lat="47.29436" lon="7.45652">
        <ele>835.230128</ele>
        <time>2021-07-07T00:38:25.656Z</time>
      </trkpt>
      <trkpt lat="47.29419" lon="7.45647">
        <ele>830.600784</ele>
        <time>2021-07-07T00:38:31.332Z</time>
      </trkpt>
      <trkpt lat="47.29316" lon="7.45697">
        <ele>802.04897</ele>
        <time>2021-07-07T00:39:05.527Z</time>
      </trkpt>
      <trkpt lat="47.29296" lon="7.45698">
        <ele>796.984892</ele>
        <time>2021-07-07T00:39:11.240Z</time>
      </trkpt>
      <trkpt lat="47.29283" lon="7.45702">
        <ele>793.32299</ele>
        <time>2021-07-07T00:39:15.458Z</time>
      </trkpt>
      <trkpt lat="47.29273" lon="7.45701">
        <ele>790.756535</ele>
        <time>2021-07-07T00:39:18.664Z</time>
      </trkpt>
      <trkpt lat="47.29238" lon="7.45685">
        <ele>780.955442</ele>
        <time>2021-07-07T00:39:30.037Z</time>
      </trkpt>
      <trkpt lat="47.29178" lon="7.45641">
        <ele>762.845623</ele>
        <time>2021-07-07T00:39:51.315Z</time>
      </trkpt>
      <trkpt lat="47.2915" lon="7.45601">
        <ele>752.3513</ele>
        <time>2021-07-07T00:40:04.006Z</time>
      </trkpt>
      <trkpt lat="47.29133" lon="7.45592">
        <ele>747.325014</ele>
        <time>2021-07-07T00:40:09.551Z</time>
      </trkpt>
      <trkpt lat="47.29118" lon="7.45589">
        <ele>744.003139</ele>
        <time>2021-07-07T00:40:13.946Z</time>
      </trkpt>
      <trkpt lat="47.29098" lon="7.45571">
        <ele>738.714618</ele>
        <time>2021-07-07T00:40:21.127Z</time>
      </trkpt>
      <trkpt lat="47.29087" lon="7.45564">
        <ele>736.241867</ele>
        <time>2021-07-07T00:40:24.565Z</time>
      </trkpt>
      <trkpt lat="47.29082" lon="7.45561">
        <ele>734.946219</ele>
        <time>2021-07-07T00:40:26.573Z</time>
      </trkpt>
      <trkpt lat="47.29048" lon="7.45552">
        <ele>727.447213</ele>
        <time>2021-07-07T00:40:36.687Z</time>
      </trkpt>
      <trkpt lat="47.29001" lon="7.45506">
        <ele>715.088665</ele>
        <time>2021-07-07T00:40:53.428Z</time>
      </trkpt>
      <trkpt lat="47.28924" lon="7.45499">
        <ele>700.336619</ele>
        <time>2021-07-07T00:41:16.392Z</time>
      </trkpt>
      <trkpt lat="47.28894" lon="7.45509">
        <ele>695.246567</ele>
        <time>2021-07-07T00:41:25.591Z</time>
      </trkpt>
      <trkpt lat="47.28848" lon="7.45514">
        <ele>687.78325</ele>
        <time>2021-07-07T00:41:39.150Z</time>
      </trkpt>
      <trkpt lat="47.28786" lon="7.45479">
        <ele>676.978334</ele>
        <time>2021-07-07T00:41:59.162Z</time>
      </trkpt>
      <trkpt lat="47.28772" lon="7.45472">
        <ele>675.492121</ele>
        <time>2021-07-07T00:42:03.509Z</time>
      </trkpt>
      <trkpt lat="47.28757" lon="7.4547">
        <ele>673.871761</ele>
        <time>2021-07-07T00:42:08.279Z</time>
      </trkpt>
      <trkpt lat="47.28691" lon="7.45463">
        <ele>667.068634</ele>
        <time>2021-07-07T00:42:28.424Z</time>
      </trkpt>
      <trkpt lat="47.28661" lon="7.45454">
        <ele>663.978862</ele>
        <time>2021-07-07T00:42:37.795Z</time>
      </trkpt>
      <trkpt lat="47.28644" lon="7.45447">
        <ele>662.192227</ele>
        <time>2021-07-07T00:42:43.258Z</time>
      </trkpt>
      <trkpt lat="47.28625" lon="7.45439">
        <ele>660.091845</ele>
        <time>2021-07-07T00:42:49.797Z</time>
      </trkpt>
      <trkpt lat="47.28598" lon="7.45428">
        <ele>658.22089</ele>
        <time>2021-07-07T00:42:58.924Z</time>
      </trkpt>
      <trkpt lat="47.28587" lon="7.45435">
        <ele>657.742031</ele>
        <time>2021-07-07T00:43:03.266Z</time>
      </trkpt>
      <trkpt lat="47.28581" lon="7.45446">
        <ele>657.361616</ele>
        <time>2021-07-07T00:43:06.504Z</time>
      </trkpt>
      <trkpt lat="47.28582" lon="7.45471">
        <ele>656.694477</ele>
        <time>2021-07-07T00:43:12.632Z</time>
      </trkpt>
      <trkpt lat="47.28579" lon="7.45486">
        <ele>656.294796</ele>
        <time>2021-07-07T00:43:16.216Z</time>
      </trkpt>
      <trkpt lat="47.28569" lon="7.45495">
        <ele>655.845847</ele>
        <time>2021-07-07T00:43:20.154Z</time>
      </trkpt>
      <trkpt lat="47.28561" lon="7.45494">
        <ele>655.559134</ele>
        <time>2021-07-07T00:43:22.761Z</time>
      </trkpt>
      <trkpt lat="47.28543" lon="7.45493">
        <ele>654.83147</ele>
        <time>2021-07-07T00:43:29.391Z</time>
      </trkpt>
      <trkpt lat="47.28536" lon="7.45493">
        <ele>654.560931</ele>
        <time>2021-07-07T00:43:31.718Z</time>
      </trkpt>
      <trkpt lat="47.28519" lon="7.4549">
        <ele>653.913681</ele>
        <time>2021-07-07T00:43:37.722Z</time>
      </trkpt>
      <trkpt lat="47.28502" lon="7.45472">
        <ele>653.106493</ele>
        <time>2021-07-07T00:43:45.220Z</time>
      </trkpt>
      <trkpt lat="47.28446" lon="7.45364">
        <ele>653.613146</ele>
        <time>2021-07-07T00:44:20.332Z</time>
      </trkpt>
      <trkpt lat="47.28439" lon="7.45321">
        <ele>654.502529</ele>
        <time>2021-07-07T00:44:32.591Z</time>
      </trkpt>
      <trkpt lat="47.28439" lon="7.45315">
        <ele>654.624867</ele>
        <time>2021-07-07T00:44:34.125Z</time>
      </trkpt>
      <trkpt lat="47.28439" lon="7.45306">
        <ele>654.810578</ele>
        <time>2021-07-07T00:44:36.816Z</time>
      </trkpt>
      <trkpt lat="47.28434" lon="7.45283">
        <ele>655.295096</ele>
        <time>2021-07-07T00:44:43.933Z</time>
      </trkpt>
      <trkpt lat="47.28425" lon="7.45272">
        <ele>655.641789</ele>
        <time>2021-07-07T00:44:48.998Z</time>
      </trkpt>
      <trkpt lat="47.28419" lon="7.45271">
        <ele>655.811547</ele>
        <time>2021-07-07T00:44:51.395Z</time>
      </trkpt>
      <trkpt lat="47.2841" lon="7.45275">
        <ele>656.093425</ele>
        <time>2021-07-07T00:44:57.738Z</time>
      </trkpt>
      <trkpt lat="47.28391" lon="7.45293">
        <ele>656.784401</ele>
        <time>2021-07-07T00:45:08.517Z</time>
      </trkpt>
      <trkpt lat="47.2836" lon="7.45369">
        <ele>662.093973</ele>
        <time>2021-07-07T00:45:42.768Z</time>
      </trkpt>
      <trkpt lat="47.28335" lon="7.45398">
        <ele>665.55222</ele>
        <time>2021-07-07T00:46:02.896Z</time>
      </trkpt>
      <trkpt lat="47.28318" lon="7.45421">
        <ele>667.99144</ele>
        <time>2021-07-07T00:46:16.334Z</time>
      </trkpt>
      <trkpt lat="47.28308" lon="7.45424">
        <ele>669.150074</ele>
        <time>2021-07-07T00:46:25.171Z</time>
      </trkpt>
      <trkpt lat="47.28274" lon="7.45459">
        <ele>673.647729</ele>
        <time>2021-07-07T00:46:52.935Z</time>
      </trkpt>
      <trkpt lat="47.28191" lon="7.45647">
        <ele>692.080105</ele>
        <time>2021-07-07T00:48:39.747Z</time>
      </trkpt>
      <trkpt lat="47.28149" lon="7.45705">
        <ele>699.084369</ele>
        <time>2021-07-07T00:49:17.836Z</time>
      </trkpt>
      <trkpt lat="47.28114" lon="7.45723">
        <ele>701.665174</ele>
        <time>2021-07-07T00:49:41.003Z</time>
      </trkpt>
      <trkpt lat="47.28074" lon="7.45719">
        <ele>704.467809</ele>
        <time>2021-07-07T00:50:03.965Z</time>
      </trkpt>
      <trkpt lat="47.28033" lon="7.45724">
        <ele>707.363021</ele>
        <time>2021-07-07T00:50:25.331Z</time>
      </trkpt>
      <trkpt lat="47.28016" lon="7.45719">
        <ele>708.508133</ele>
        <time>2021-07-07T00:50:32.782Z</time>
      </trkpt>
      <trkpt lat="47.28" lon="7.45712">
        <ele>709.680108</ele>
        <time>2021-07-07T00:50:41.175Z</time>
      </trkpt>
      <trkpt lat="47.27983" lon="7.4571">
        <ele>710.892273</ele>
        <time>2021-07-07T00:50:48.280Z</time>
      </trkpt>
      <trkpt lat="47.27925" lon="7.45721">
        <ele>711.130459</ele>
        <time>2021-07-07T00:51:12.523Z</time>
      </trkpt>
      <trkpt lat="47.27858" lon="7.45719">
        <ele>710.621159</ele>
        <time>2021-07-07T00:51:38.105Z</time>
      </trkpt>
      <trkpt lat="47.27843" lon="7.45724">
        <ele>710.503573</ele>
        <time>2021-07-07T00:51:43.585Z</time>
      </trkpt>
      <trkpt lat="47.27814" lon="7.45721">
        <ele>710.284165</ele>
        <time>2021-07-07T00:51:53.871Z</time>
      </trkpt>
      <trkpt lat="47.27738" lon="7.45709">
        <ele>707.433796</ele>
        <time>2021-07-07T00:52:20.464Z</time>
      </trkpt>
      <trkpt lat="47.27698" lon="7.45706">
        <ele>705.596035</ele>
        <time>2021-07-07T00:52:33.866Z</time>
      </trkpt>
      <trkpt lat="47.2769" lon="7.45703">
        <ele>705.181039</ele>
        <time>2021-07-07T00:52:36.812Z</time>
      </trkpt>
      <trkpt lat="47.2766" lon="7.45674">
        <ele>703.528337</ele>
        <time>2021-07-07T00:52:49.058Z</time>
      </trkpt>
      <trkpt lat="47.27654" lon="7.45668">
        <ele>703.186304</ele>
        <time>2021-07-07T00:52:51.465Z</time>
      </trkpt>
      <trkpt lat="47.27633" lon="7.45646">
        <ele>701.981724</ele>
        <time>2021-07-07T00:53:00.622Z</time>
      </trkpt>
      <trkpt lat="47.27625" lon="7.45639">
        <ele>701.624745</ele>
        <time>2021-07-07T00:53:03.686Z</time>
      </trkpt>
      <trkpt lat="47.27612" lon="7.45627">
        <ele>701.198711</ele>
        <time>2021-07-07T00:53:09.101Z</time>
      </trkpt>
      <trkpt lat="47.27595" lon="7.45614">
        <ele>700.655634</ele>
        <time>2021-07-07T00:53:15.698Z</time>
      </trkpt>
      <trkpt lat="47.27584" lon="7.45607">
        <ele>700.317687</ele>
        <time>2021-07-07T00:53:19.929Z</time>
      </trkpt>
      <trkpt lat="47.27473" lon="7.4557">
        <ele>697.132529</ele>
        <time>2021-07-07T00:54:00.159Z</time>
      </trkpt>
      <trkpt lat="47.27402" lon="7.45527">
        <ele>698.782799</ele>
        <time>2021-07-07T00:54:32.154Z</time>
      </trkpt>
      <trkpt lat="47.2739" lon="7.45523">
        <ele>699.200599</ele>
        <time>2021-07-07T00:54:37.076Z</time>
      </trkpt>
      <trkpt lat="47.27379" lon="7.45524">
        <ele>699.563981</ele>
        <time>2021-07-07T00:54:42.462Z</time>
      </trkpt>
      <trkpt lat="47.27359" lon="7.45529">
        <ele>700.234912</ele>
        <time>2021-07-07T00:54:51.147Z</time>
      </trkpt>
      <trkpt lat="47.27359" lon="7.4554">
        <ele>700.492172</ele>
        <time>2021-07-07T00:54:54.402Z</time>
      </trkpt>
      <trkpt lat="47.27344" lon="7.45566">
        <ele>701.258474</ele>
        <time>2021-07-07T00:55:05.855Z</time>
      </trkpt>
      <trkpt lat="47.27319" lon="7.45604">
        <ele>702.480837</ele>
        <time>2021-07-07T00:55:23.335Z</time>
      </trkpt>
      <trkpt lat="47.27308" lon="7.45621">
        <ele>703.131137</ele>
        <time>2021-07-07T00:55:30.481Z</time>
      </trkpt>
      <trkpt lat="47.273" lon="7.45622">
        <ele>703.549081</ele>
        <time>2021-07-07T00:55:35.909Z</time>
      </trkpt>
      <trkpt lat="47.27262" lon="7.45655">
        <ele>705.853267</ele>
        <time>2021-07-07T00:55:57.552Z</time>
      </trkpt>
      <trkpt lat="47.27225" lon="7.45697">
        <ele>708.209531</ele>
        <time>2021-07-07T00:56:20.468Z</time>
      </trkpt>
      <trkpt lat="47.27196" lon="7.45734">
        <ele>710.197247</ele>
        <time>2021-07-07T00:56:38.689Z</time>
      </trkpt>
      <trkpt lat="47.27189" lon="7.45743">
        <ele>710.678035</ele>
        <time>2021-07-07T00:56:43.146Z</time>
      </trkpt>
      <trkpt lat="47.27186" lon="7.45751">
        <ele>710.983063</ele>
        <time>2021-07-07T00:56:46.597Z</time>
      </trkpt>
      <trkpt lat="47.27184" lon="7.45757">
        <ele>711.243336</ele>
        <time>2021-07-07T00:56:48.561Z</time>
      </trkpt>
      <trkpt lat="47.27177" lon="7.45778">
        <ele>712.027917</ele>
        <time>2021-07-07T00:56:55.188Z</time>
      </trkpt>
      <trkpt lat="47.27136" lon="7.45826">
        <ele>713.546653</ele>
        <time>2021-07-07T00:57:17.432Z</time>
      </trkpt>
      <trkpt lat="47.27118" lon="7.45875">
        <ele>714.633251</ele>
        <time>2021-07-07T00:57:33.353Z</time>
      </trkpt>
      <trkpt lat="47.2711" lon="7.45896">
        <ele>715.114334</ele>
        <time>2021-07-07T00:57:40.216Z</time>
      </trkpt>
      <trkpt lat="47.27094" lon="7.45932">
        <ele>715.950147</ele>
        <time>2021-07-07T00:57:52.336Z</time>
      </trkpt>
      <trkpt lat="47.27083" lon="7.45963">
        <ele>716.642813</ele>
        <time>2021-07-07T00:58:02.859Z</time>
      </trkpt>
      <trkpt lat="47.27061" lon="7.46">
        <ele>717.755297</ele>
        <time>2021-07-07T00:58:17.499Z</time>
      </trkpt>
      <trkpt lat="47.27053" lon="7.46006">
        <ele>718.108142</ele>
        <time>2021-07-07T00:58:21.358Z</time>
      </trkpt>
      <trkpt lat="47.27045" lon="7.4601">
        <ele>718.430122</ele>
        <time>2021-07-07T00:58:24.855Z</time>
      </trkpt>
      <trkpt lat="47.27036" lon="7.46015">
        <ele>718.816994</ele>
        <time>2021-07-07T00:58:30.022Z</time>
      </trkpt>
      <trkpt lat="47.26997" lon="7.46046">
        <ele>720.540683</ele>
        <time>2021-07-07T00:58:50.165Z</time>
      </trkpt>
      <trkpt lat="47.26941" lon="7.46109">
        <ele>723.342899</ele>
        <time>2021-07-07T00:59:22.715Z</time>
      </trkpt>
      <trkpt lat="47.26905" lon="7.46149">
        <ele>724.650058</ele>
        <time>2021-07-07T00:59:42.900Z</time>
      </trkpt>
      <trkpt lat="47.26893" lon="7.46161">
        <ele>724.883059</ele>
        <time>2021-07-07T00:59:48.753Z</time>
      </trkpt>
      <trkpt lat="47.26864" lon="7.46191">
        <ele>725.477761</ele>
        <time>2021-07-07T01:00:03.674Z</time>
      </trkpt>
      <trkpt lat="47.26824" lon="7.46226">
        <ele>726.265633</ele>
        <time>2021-07-07T01:00:22.966Z</time>
      </trkpt>
      <trkpt lat="47.26777" lon="7.4625">
        <ele>727.100494</ele>
        <time>2021-07-07T01:00:42.650Z</time>
      </trkpt>
      <trkpt lat="47.26724" lon="7.46293">
        <ele>728.856505</ele>
        <time>2021-07-07T01:01:05.326Z</time>
      </trkpt>
      <trkpt lat="47.26695" lon="7.46333">
        <ele>730.137796</ele>
        <time>2021-07-07T01:01:21.045Z</time>
      </trkpt>
      <trkpt lat="47.26685" lon="7.46361">
        <ele>730.838017</ele>
        <time>2021-07-07T01:01:30.557Z</time>
      </trkpt>
      <trkpt lat="47.2668" lon="7.46365">
        <ele>731.043767</ele>
        <time>2021-07-07T01:01:33.443Z</time>
      </trkpt>
      <trkpt lat="47.26679" lon="7.46367">
        <ele>731.105414</ele>
        <time>2021-07-07T01:01:34.299Z</time>
      </trkpt>
      <trkpt lat="47.26676" lon="7.46376">
        <ele>731.307565</ele>
        <time>2021-07-07T01:01:37.142Z</time>
      </trkpt>
      <trkpt lat="47.26669" lon="7.4639">
        <ele>731.696298</ele>
        <time>2021-07-07T01:01:43.683Z</time>
      </trkpt>
      <trkpt lat="47.26632" lon="7.46438">
        <ele>733.440063</ele>
        <time>2021-07-07T01:02:09.318Z</time>
      </trkpt>
      <trkpt lat="47.26614" lon="7.4646">
        <ele>734.79869</ele>
        <time>2021-07-07T01:02:23.193Z</time>
      </trkpt>
      <trkpt lat="47.26568" lon="7.46516">
        <ele>738.359236</ele>
        <time>2021-07-07T01:02:54.576Z</time>
      </trkpt>
      <trkpt lat="47.26559" lon="7.46527">
        <ele>739.05453</ele>
        <time>2021-07-07T01:03:00.885Z</time>
      </trkpt>
      <trkpt lat="47.26538" lon="7.46548">
        <ele>740.551432</ele>
        <time>2021-07-07T01:03:12.127Z</time>
      </trkpt>
      <trkpt lat="47.26485" lon="7.46598">
        <ele>743.830255</ele>
        <time>2021-07-07T01:03:42.762Z</time>
      </trkpt>
      <trkpt lat="47.26478" lon="7.46606">
        <ele>743.840806</ele>
        <time>2021-07-07T01:03:45.998Z</time>
      </trkpt>
      <trkpt lat="47.26458" lon="7.46648">
        <ele>743.882221</ele>
        <time>2021-07-07T01:04:00.726Z</time>
      </trkpt>
      <trkpt lat="47.26451" lon="7.46674">
        <ele>743.904462</ele>
        <time>2021-07-07T01:04:08.421Z</time>
      </trkpt>
      <trkpt lat="47.26446" lon="7.46695">
        <ele>743.922892</ele>
        <time>2021-07-07T01:04:13.998Z</time>
      </trkpt>
      <trkpt lat="47.26435" lon="7.46738">
        <ele>743.960491</ele>
        <time>2021-07-07T01:04:25.633Z</time>
      </trkpt>
      <trkpt lat="47.26421" lon="7.46762">
        <ele>743.986033</ele>
        <time>2021-07-07T01:04:33.134Z</time>
      </trkpt>
      <trkpt lat="47.26405" lon="7.46772">
        <ele>744.006418</ele>
        <time>2021-07-07T01:04:39.339Z</time>
      </trkpt>
      <trkpt lat="47.2636" lon="7.46784">
        <ele>745.311478</ele>
        <time>2021-07-07T01:04:56.322Z</time>
      </trkpt>
      <trkpt lat="47.26321" lon="7.46821">
        <ele>748.060212</ele>
        <time>2021-07-07T01:05:15.144Z</time>
      </trkpt>
      <trkpt lat="47.26317" lon="7.46825">
        <ele>748.363477</ele>
        <time>2021-07-07T01:05:17.204Z</time>
      </trkpt>
      <trkpt lat="47.26314" lon="7.46828">
        <ele>748.578849</ele>
        <time>2021-07-07T01:05:18.762Z</time>
      </trkpt>
      <trkpt lat="47.2631" lon="7.4683">
        <ele>748.819237</ele>
        <time>2021-07-07T01:05:20.471Z</time>
      </trkpt>
      <trkpt lat="47.26304" lon="7.46833">
        <ele>749.169604</ele>
        <time>2021-07-07T01:05:24.157Z</time>
      </trkpt>
      <trkpt lat="47.26279" lon="7.46832">
        <ele>750.662486</ele>
        <time>2021-07-07T01:05:34.309Z</time>
      </trkpt>
      <trkpt lat="47.26266" lon="7.46825">
        <ele>751.47582</ele>
        <time>2021-07-07T01:05:40.662Z</time>
      </trkpt>
      <trkpt lat="47.26244" lon="7.46813">
        <ele>752.926563</ele>
        <time>2021-07-07T01:05:51.380Z</time>
      </trkpt>
      <trkpt lat="47.26221" lon="7.46805">
        <ele>754.303216</ele>
        <time>2021-07-07T01:06:07.401Z</time>
      </trkpt>
      <trkpt lat="47.26204" lon="7.46812">
        <ele>756.60053</ele>
        <time>2021-07-07T01:06:16.453Z</time>
      </trkpt>
      <trkpt lat="47.26201" lon="7.46815">
        <ele>757.216539</ele>
        <time>2021-07-07T01:06:21.073Z</time>
      </trkpt>
      <trkpt lat="47.26197" lon="7.46807">
        <ele>758.300383</ele>
        <time>2021-07-07T01:06:25.960Z</time>
      </trkpt>
      <trkpt lat="47.26194" lon="7.46793">
        <ele>760.011076</ele>
        <time>2021-07-07T01:06:32.101Z</time>
      </trkpt>
      <trkpt lat="47.26188" lon="7.46752">
        <ele>764.982671</ele>
        <time>2021-07-07T01:06:51.445Z</time>
      </trkpt>
      <trkpt lat="47.26179" lon="7.46756">
        <ele>766.651388</ele>
        <time>2021-07-07T01:06:59.442Z</time>
      </trkpt>
      <trkpt lat="47.26164" lon="7.46753">
        <ele>769.310339</ele>
        <time>2021-07-07T01:07:10.012Z</time>
      </trkpt>
      <trkpt lat="47.26135" lon="7.4673">
        <ele>774.952344</ele>
        <time>2021-07-07T01:07:36.828Z</time>
      </trkpt>
      <trkpt lat="47.26128" lon="7.4673">
        <ele>776.17136</ele>
        <time>2021-07-07T01:07:45.466Z</time>
      </trkpt>
      <trkpt lat="47.26123" lon="7.46731">
        <ele>777.148424</ele>
        <time>2021-07-07T01:07:51.667Z</time>
      </trkpt>
      <trkpt lat="47.26114" lon="7.46735">
        <ele>778.736404</ele>
        <time>2021-07-07T01:07:59.186Z</time>
      </trkpt>
      <trkpt lat="47.26106" lon="7.4675">
        <ele>780.98475</ele>
        <time>2021-07-07T01:08:07.979Z</time>
      </trkpt>
      <trkpt lat="47.26099" lon="7.46779">
        <ele>784.643946</ele>
        <time>2021-07-07T01:08:30.720Z</time>
      </trkpt>
      <trkpt lat="47.261" lon="7.46847">
        <ele>794.740483</ele>
        <time>2021-07-07T01:09:12.252Z</time>
      </trkpt>
      <trkpt lat="47.26109" lon="7.46901">
        <ele>803.286056</ele>
        <time>2021-07-07T01:09:46.040Z</time>
      </trkpt>
      <trkpt lat="47.26097" lon="7.46954">
        <ele>811.950762</ele>
        <time>2021-07-07T01:10:30.391Z</time>
      </trkpt>
      <trkpt lat="47.26089" lon="7.46966">
        <ele>814.665317</ele>
        <time>2021-07-07T01:10:39.361Z</time>
      </trkpt>
      <trkpt lat="47.26076" lon="7.46973">
        <ele>817.804451</ele>
        <time>2021-07-07T01:10:58.031Z</time>
      </trkpt>
      <trkpt lat="47.26039" lon="7.46967">
        <ele>826.232795</ele>
        <time>2021-07-07T01:11:37.853Z</time>
      </trkpt>
      <trkpt lat="47.25988" lon="7.47005">
        <ele>841.025591</ele>
        <time>2021-07-07T01:12:33.970Z</time>
      </trkpt>
      <trkpt lat="47.25977" lon="7.47011">
        <ele>844.065553</ele>
        <time>2021-07-07T01:12:47.394Z</time>
      </trkpt>
      <trkpt lat="47.25975" lon="7.47011">
        <ele>844.626502</ele>
        <time>2021-07-07T01:12:53.205Z</time>
      </trkpt>
      <trkpt lat="47.25943" lon="7.47017">
        <ele>852.9286</ele>
        <time>2021-07-07T01:13:21.306Z</time>
      </trkpt>
      <trkpt lat="47.25917" lon="7.47038">
        <ele>860.452289</ele>
        <time>2021-07-07T01:13:57.571Z</time>
      </trkpt>
      <trkpt lat="47.25911" lon="7.47033">
        <ele>862.380096</ele>
        <time>2021-07-07T01:14:05.540Z</time>
      </trkpt>
      <trkpt lat="47.25905" lon="7.47035">
        <ele>863.849038</ele>
        <time>2021-07-07T01:14:18.124Z</time>
      </trkpt>
      <trkpt lat="47.25902" lon="7.47028">
        <ele>865.20225</ele>
        <time>2021-07-07T01:14:21.956Z</time>
      </trkpt>
      <trkpt lat="47.25888" lon="7.46993">
        <ele>872.380546</ele>
        <time>2021-07-07T01:14:52.047Z</time>
      </trkpt>
      <trkpt lat="47.25863" lon="7.46972">
        <ele>879.786426</ele>
        <time>2021-07-07T01:15:20.522Z</time>
      </trkpt>
      <trkpt lat="47.25848" lon="7.46968">
        <ele>883.572976</ele>
        <time>2021-07-07T01:15:38.937Z</time>
      </trkpt>
      <trkpt lat="47.25841" lon="7.46964">
        <ele>885.425805</ele>
        <time>2021-07-07T01:15:44.618Z</time>
      </trkpt>
      <trkpt lat="47.25824" lon="7.46957">
        <ele>890.027961</ele>
        <time>2021-07-07T01:16:00.656Z</time>
      </trkpt>
      <trkpt lat="47.25806" lon="7.46955">
        <ele>894.525172</ele>
        <time>2021-07-07T01:16:17.028Z</time>
      </trkpt>
      <trkpt lat="47.258" lon="7.46953">
        <ele>896.080017</ele>
        <time>2021-07-07T01:16:26.780Z</time>
      </trkpt>
      <trkpt lat="47.25776" lon="7.46936">
        <ele>902.971972</ele>
        <time>2021-07-07T01:16:49.783Z</time>
      </trkpt>
      <trkpt lat="47.25712" lon="7.46912">
        <ele>919.549181</ele>
        <time>2021-07-07T01:17:48.717Z</time>
      </trkpt>
      <trkpt lat="47.25646" lon="7.46831">
        <ele>931.949775</ele>
        <time>2021-07-07T01:18:59.646Z</time>
      </trkpt>
      <trkpt lat="47.25613" lon="7.4678">
        <ele>938.869265</ele>
        <time>2021-07-07T01:19:28.294Z</time>
      </trkpt>
      <trkpt lat="47.25532" lon="7.46616">
        <ele>944.344271</ele>
        <time>2021-07-07T01:20:17.327Z</time>
      </trkpt>
      <trkpt lat="47.25514" lon="7.46529">
        <ele>943.720709</ele>
        <time>2021-07-07T01:20:35.455Z</time>
      </trkpt>
      <trkpt lat="47.25509" lon="7.46521">
        <ele>943.635816</ele>
        <time>2021-07-07T01:20:37.977Z</time>
      </trkpt>
      <trkpt lat="47.25486" lon="7.46452">
        <ele>942.31645</ele>
        <time>2021-07-07T01:20:55.978Z</time>
      </trkpt>
      <trkpt lat="47.25473" lon="7.46426">
        <ele>941.596043</ele>
        <time>2021-07-07T01:21:03.066Z</time>
      </trkpt>
      <trkpt lat="47.2547" lon="7.46424">
        <ele>941.492947</ele>
        <time>2021-07-07T01:21:04.098Z</time>
      </trkpt>
      <trkpt lat="47.25461" lon="7.46443">
        <ele>940.980936</ele>
        <time>2021-07-07T01:21:09.716Z</time>
      </trkpt>
      <trkpt lat="47.25452" lon="7.4647">
        <ele>940.299039</ele>
        <time>2021-07-07T01:21:16.387Z</time>
      </trkpt>
      <trkpt lat="47.25449" lon="7.4647">
        <ele>940.212109</ele>
        <time>2021-07-07T01:21:17.614Z</time>
      </trkpt>
      <trkpt lat="47.25439" lon="7.46482">
        <ele>939.777142</ele>
        <time>2021-07-07T01:21:22.491Z</time>
      </trkpt>
      <trkpt lat="47.25419" lon="7.46565">
        <ele>937.78536</ele>
        <time>2021-07-07T01:21:44.558Z</time>
      </trkpt>
      <trkpt lat="47.2541" lon="7.4661">
        <ele>938.543061</ele>
        <time>2021-07-07T01:21:56.982Z</time>
      </trkpt>
      <trkpt lat="47.25411" lon="7.46646">
        <ele>939.612392</ele>
        <time>2021-07-07T01:22:07.680Z</time>
      </trkpt>
      <trkpt lat="47.25404" lon="7.46676">
        <ele>940.538688</ele>
        <time>2021-07-07T01:22:18.306Z</time>
      </trkpt>
      <trkpt lat="47.254" lon="7.46685">
        <ele>940.880785</ele>
        <time>2021-07-07T01:22:21.814Z</time>
      </trkpt>
      <trkpt lat="47.25401" lon="7.46669">
        <ele>941.340437</ele>
        <time>2021-07-07T01:22:26.556Z</time>
      </trkpt>
      <trkpt lat="47.25401" lon="7.46654">
        <ele>941.785883</ele>
        <time>2021-07-07T01:22:31.178Z</time>
      </trkpt>
      <trkpt lat="47.25401" lon="7.46636">
        <ele>942.335186</ele>
        <time>2021-07-07T01:22:35.945Z</time>
      </trkpt>
      <trkpt lat="47.25394" lon="7.46663">
        <ele>943.18411</ele>
        <time>2021-07-07T01:22:46.991Z</time>
      </trkpt>
      <trkpt lat="47.25387" lon="7.4669">
        <ele>944.057873</ele>
        <time>2021-07-07T01:22:55.948Z</time>
      </trkpt>
      <trkpt lat="47.25352" lon="7.46699">
        <ele>945.718839</ele>
        <time>2021-07-07T01:23:13.006Z</time>
      </trkpt>
      <trkpt lat="47.25338" lon="7.46706">
        <ele>946.770952</ele>
        <time>2021-07-07T01:23:21.105Z</time>
      </trkpt>
      <trkpt lat="47.25334" lon="7.46705">
        <ele>947.120095</ele>
        <time>2021-07-07T01:23:23.737Z</time>
      </trkpt>
      <trkpt lat="47.25323" lon="7.46702">
        <ele>947.881896</ele>
        <time>2021-07-07T01:23:28.120Z</time>
      </trkpt>
      <trkpt lat="47.25321" lon="7.46655">
        <ele>950.216339</ele>
        <time>2021-07-07T01:23:43.741Z</time>
      </trkpt>
      <trkpt lat="47.25313" lon="7.46637">
        <ele>951.280137</ele>
        <time>2021-07-07T01:23:51.798Z</time>
      </trkpt>
      <trkpt lat="47.25308" lon="7.46612">
        <ele>952.599559</ele>
        <time>2021-07-07T01:24:04.057Z</time>
      </trkpt>
      <trkpt lat="47.25308" lon="7.46609">
        <ele>952.743116</ele>
        <time>2021-07-07T01:24:04.631Z</time>
      </trkpt>
      <trkpt lat="47.25308" lon="7.46579">
        <ele>954.220654</ele>
        <time>2021-07-07T01:24:15.578Z</time>
      </trkpt>
      <trkpt lat="47.25277" lon="7.46456">
        <ele>959.495749</ele>
        <time>2021-07-07T01:24:56.429Z</time>
      </trkpt>
      <trkpt lat="47.25271" lon="7.46442">
        <ele>959.849971</ele>
        <time>2021-07-07T01:24:59.522Z</time>
      </trkpt>
      <trkpt lat="47.25267" lon="7.46436">
        <ele>960.059153</ele>
        <time>2021-07-07T01:25:03.980Z</time>
      </trkpt>
      <trkpt lat="47.25204" lon="7.46375">
        <ele>962.638769</ele>
        <time>2021-07-07T01:25:30.314Z</time>
      </trkpt>
      <trkpt lat="47.25193" lon="7.46365">
        <ele>963.088062</ele>
        <time>2021-07-07T01:25:36.106Z</time>
      </trkpt>
      <trkpt lat="47.25191" lon="7.46359">
        <ele>963.249651</ele>
        <time>2021-07-07T01:25:37.672Z</time>
      </trkpt>
      <trkpt lat="47.25164" lon="7.46318">
        <ele>964.602953</ele>
        <time>2021-07-07T01:25:53.170Z</time>
      </trkpt>
      <trkpt lat="47.25155" lon="7.46297">
        <ele>966.304753</ele>
        <time>2021-07-07T01:26:04.090Z</time>
      </trkpt>
      <trkpt lat="47.25157" lon="7.4629">
        <ele>966.903269</ele>
        <time>2021-07-07T01:26:07.579Z</time>
      </trkpt>
      <trkpt lat="47.25193" lon="7.46261">
        <ele>971.089826</ele>
        <time>2021-07-07T01:26:26.264Z</time>
      </trkpt>
      <trkpt lat="47.25201" lon="7.46251">
        <ele>972.148824</ele>
        <time>2021-07-07T01:26:29.327Z</time>
      </trkpt>
      <trkpt lat="47.25206" lon="7.46243">
        <ele>972.960069</ele>
        <time>2021-07-07T01:26:34.874Z</time>
      </trkpt>
      <trkpt lat="47.2522" lon="7.462">
        <ele>976.290557</ele>
        <time>2021-07-07T01:26:54.472Z</time>
      </trkpt>
      <trkpt lat="47.25201" lon="7.46119">
        <ele>982.230186</ele>
        <time>2021-07-07T01:27:41.580Z</time>
      </trkpt>
      <trkpt lat="47.25202" lon="7.46096">
        <ele>985.253442</ele>
        <time>2021-07-07T01:27:53.809Z</time>
      </trkpt>
      <trkpt lat="47.25199" lon="7.46082">
        <ele>988.134337</ele>
        <time>2021-07-07T01:28:06.457Z</time>
      </trkpt>
      <trkpt lat="47.25198" lon="7.46029">
        <ele>998.794664</ele>
        <time>2021-07-07T01:28:45.497Z</time>
      </trkpt>
      <trkpt lat="47.252" lon="7.46019">
        <ele>1000.844959</ele>
        <time>2021-07-07T01:28:51.624Z</time>
      </trkpt>
      <trkpt lat="47.25202" lon="7.46018">
        <ele>1001.475503</ele>
        <time>2021-07-07T01:28:56.169Z</time>
      </trkpt>
      <trkpt lat="47.25203" lon="7.45985">
        <ele>1008.056502</ele>
        <time>2021-07-07T01:29:20.959Z</time>
      </trkpt>
      <trkpt lat="47.25191" lon="7.45734">
        <ele>1060.404768</ele>
        <time>2021-07-07T01:32:52.810Z</time>
      </trkpt>
      <trkpt lat="47.25193" lon="7.4562">
        <ele>1084.7648</ele>
        <time>2021-07-07T01:34:17.982Z</time>
      </trkpt>
      <trkpt lat="47.252" lon="7.45544">
        <ele>1099.126819</ele>
        <time>2021-07-07T01:35:11.042Z</time>
      </trkpt>
      <trkpt lat="47.25205" lon="7.45508">
        <ele>1104.862963</ele>
        <time>2021-07-07T01:35:40.412Z</time>
      </trkpt>
      <trkpt lat="47.25188" lon="7.45421">
        <ele>1118.855033</ele>
        <time>2021-07-07T01:36:46.298Z</time>
      </trkpt>
      <trkpt lat="47.25173" lon="7.45373">
        <ele>1127.063787</ele>
        <time>2021-07-07T01:37:21.772Z</time>
      </trkpt>
      <trkpt lat="47.25132" lon="7.45295">
        <ele>1137.311381</ele>
        <time>2021-07-07T01:38:14.183Z</time>
      </trkpt>
      <trkpt lat="47.25076" lon="7.45155">
        <ele>1146.125342</ele>
        <time>2021-07-07T01:39:13.015Z</time>
      </trkpt>
      <trkpt lat="47.25063" lon="7.45081">
        <ele>1148.976475</ele>
        <time>2021-07-07T01:39:33.645Z</time>
      </trkpt>
      <trkpt lat="47.25059" lon="7.45018">
        <ele>1148.97176</ele>
        <time>2021-07-07T01:39:49.349Z</time>
      </trkpt>
      <trkpt lat="47.25083" lon="7.44904">
        <ele>1148.962934</ele>
        <time>2021-07-07T01:40:18.841Z</time>
      </trkpt>
      <trkpt lat="47.2508" lon="7.44859">
        <ele>1148.959613</ele>
        <time>2021-07-07T01:40:30.527Z</time>
      </trkpt>
      <trkpt lat="47.25071" lon="7.44812">
        <ele>1150.936001</ele>
        <time>2021-07-07T01:40:46.815Z</time>
      </trkpt>
      <trkpt lat="47.25047" lon="7.44788">
        <ele>1153.349106</ele>
        <time>2021-07-07T01:40:59.869Z</time>
      </trkpt>
      <trkpt lat="47.25043" lon="7.44796">
        <ele>1153.901223</ele>
        <time>2021-07-07T01:41:06.162Z</time>
      </trkpt>
      <trkpt lat="47.2503" lon="7.44813">
        <ele>1155.303074</ele>
        <time>2021-07-07T01:41:15.409Z</time>
      </trkpt>
      <trkpt lat="47.25015" lon="7.44818">
        <ele>1156.609028</ele>
        <time>2021-07-07T01:41:23.500Z</time>
      </trkpt>
      <trkpt lat="47.24967" lon="7.448">
        <ele>1160.628495</ele>
        <time>2021-07-07T01:41:52.305Z</time>
      </trkpt>
      <trkpt lat="47.24965" lon="7.448">
        <ele>1160.788922</ele>
        <time>2021-07-07T01:41:57.195Z</time>
      </trkpt>
      <trkpt lat="47.24953" lon="7.44795">
        <ele>1161.848457</ele>
        <time>2021-07-07T01:42:02.772Z</time>
      </trkpt>
      <trkpt lat="47.24832" lon="7.44726">
        <ele>1174.287815</ele>
        <time>2021-07-07T01:43:19.112Z</time>
      </trkpt>
      <trkpt lat="47.24805" lon="7.44699">
        <ele>1177.487348</ele>
        <time>2021-07-07T01:43:34.780Z</time>
      </trkpt>
      <trkpt lat="47.24789" lon="7.44692">
        <ele>1179.141574</ele>
        <time>2021-07-07T01:43:41.523Z</time>
      </trkpt>
      <trkpt lat="47.24764" lon="7.44658">
        <ele>1181.965724</ele>
        <time>2021-07-07T01:43:54.952Z</time>
      </trkpt>
      <trkpt lat="47.24738" lon="7.4465">
        <ele>1183.332639</ele>
        <time>2021-07-07T01:44:05.319Z</time>
      </trkpt>
      <trkpt lat="47.24716" lon="7.4463">
        <ele>1184.631822</ele>
        <time>2021-07-07T01:44:15.058Z</time>
      </trkpt>
      <trkpt lat="47.24714" lon="7.44618">
        <ele>1185.062833</ele>
        <time>2021-07-07T01:44:18.183Z</time>
      </trkpt>
      <trkpt lat="47.24686" lon="7.44575">
        <ele>1187.074957</ele>
        <time>2021-07-07T01:44:32.642Z</time>
      </trkpt>
      <trkpt lat="47.24664" lon="7.44557">
        <ele>1188.34753</ele>
        <time>2021-07-07T01:44:41.601Z</time>
      </trkpt>
      <trkpt lat="47.24642" lon="7.4455">
        <ele>1189.483279</ele>
        <time>2021-07-07T01:44:52.161Z</time>
      </trkpt>
      <trkpt lat="47.24645" lon="7.44517">
        <ele>1190.815054</ele>
        <time>2021-07-07T01:45:00.956Z</time>
      </trkpt>
      <trkpt lat="47.2464" lon="7.44506">
        <ele>1192.311848</ele>
        <time>2021-07-07T01:45:06.714Z</time>
      </trkpt>
      <trkpt lat="47.24581" lon="7.44476">
        <ele>1202.106198</ele>
        <time>2021-07-07T01:45:40.553Z</time>
      </trkpt>
      <trkpt lat="47.24575" lon="7.44453">
        <ele>1204.679416</ele>
        <time>2021-07-07T01:45:52.792Z</time>
      </trkpt>
      <trkpt lat="47.24581" lon="7.44427">
        <ele>1207.60376</ele>
        <time>2021-07-07T01:46:03.551Z</time>
      </trkpt>
      <trkpt lat="47.24568" lon="7.44412">
        <ele>1210.208985</ele>
        <time>2021-07-07T01:46:17.989Z</time>
      </trkpt>
      <trkpt lat="47.24537" lon="7.44409">
        <ele>1215.057611</ele>
        <time>2021-07-07T01:46:41.089Z</time>
      </trkpt>
      <trkpt lat="47.24481" lon="7.44437">
        <ele>1228.417878</ele>
        <time>2021-07-07T01:47:33.934Z</time>
      </trkpt>
      <trkpt lat="47.24325" lon="7.44576">
        <ele>1279.781407</ele>
        <time>2021-07-07T01:50:41.277Z</time>
      </trkpt>
      <trkpt lat="47.24263" lon="7.44591">
        <ele>1299.596732</ele>
        <time>2021-07-07T01:51:56.946Z</time>
      </trkpt>
      <trkpt lat="47.24237" lon="7.44588">
        <ele>1308.038966</ele>
        <time>2021-07-07T01:52:24.714Z</time>
      </trkpt>
      <trkpt lat="47.24237" lon="7.44594">
        <ele>1309.36445</ele>
        <time>2021-07-07T01:52:34.133Z</time>
      </trkpt>
      <trkpt lat="47.24235" lon="7.44598">
        <ele>1310.438282</ele>
        <time>2021-07-07T01:52:39.540Z</time>
      </trkpt>
      <trkpt lat="47.24238" lon="7.4462">
        <ele>1315.327649</ele>
        <time>2021-07-07T01:52:59.460Z</time>
      </trkpt>
      <trkpt lat="47.24244" lon="7.44648">
        <ele>1321.62058</ele>
        <time>2021-07-07T01:53:27.622Z</time>
      </trkpt>
      <trkpt lat="47.24246" lon="7.4466">
        <ele>1324.152983</ele>
        <time>2021-07-07T01:53:38.733Z</time>
      </trkpt>
      <trkpt lat="47.24254" lon="7.44671">
        <ele>1327.5421</ele>
        <time>2021-07-07T01:53:48.964Z</time>
      </trkpt>
      <trkpt lat="47.24255" lon="7.44673">
        <ele>1328.163411</ele>
        <time>2021-07-07T01:53:50.688Z</time>
      </trkpt>
      <trkpt lat="47.24257" lon="7.44675">
        <ele>1328.984326</ele>
        <time>2021-07-07T01:53:52.892Z</time>
      </trkpt>
      <trkpt lat="47.2426" lon="7.4468">
        <ele>1330.179424</ele>
        <time>2021-07-07T01:53:56.106Z</time>
      </trkpt>
      <trkpt lat="47.24258" lon="7.4469">
        <ele>1332.52223</ele>
        <time>2021-07-07T01:54:12.755Z</time>
      </trkpt>
      <trkpt lat="47.24278" lon="7.44917">
        <ele>1380.72594</ele>
        <time>2021-07-07T01:57:46.057Z</time>
      </trkpt>
      <trkpt lat="47.24277" lon="7.44925">
        <ele>1381.557775</ele>
        <time>2021-07-07T01:57:57.412Z</time>
      </trkpt>
      <trkpt lat="47.24271" lon="7.44923">
        <ele>1382.436885</ele>
        <time>2021-07-07T01:58:07.224Z</time>
      </trkpt>
      <trkpt lat="47.24215" lon="7.44886">
        <ele>1391.339271</ele>
        <time>2021-07-07T01:59:23.667Z</time>
      </trkpt>
      <trkpt lat="47.24205" lon="7.44906">
        <ele>1393.85961</ele>
        <time>2021-07-07T01:59:52.128Z</time>
      </trkpt>
      <trkpt lat="47.24186" lon="7.4488">
        <ele>1397.637533</ele>
        <time>2021-07-07T02:00:24.779Z</time>
      </trkpt>
      <trkpt lat="47.24157" lon="7.44886">
        <ele>1401.866136</ele>
        <time>2021-07-07T02:00:49.303Z</time>
      </trkpt>
      <trkpt lat="47.2415" lon="7.44897">
        <ele>1403.389497</ele>
        <time>2021-07-07T02:01:08.473Z</time>
      </trkpt>
      <trkpt lat="47.2413" lon="7.44902">
        <ele>1406.324308</ele>
        <time>2021-07-07T02:01:23.113Z</time>
      </trkpt>
      <trkpt lat="47.2413" lon="7.44906">
        <ele>1406.751493</ele>
        <time>2021-07-07T02:01:24.594Z</time>
      </trkpt>
      <trkpt lat="47.24133" lon="7.44916">
        <ele>1407.031897</ele>
        <time>2021-07-07T02:01:27.736Z</time>
      </trkpt>
      <trkpt lat="47.24147" lon="7.44942">
        <ele>1407.337975</ele>
        <time>2021-07-07T02:01:38.804Z</time>
      </trkpt>
      <trkpt lat="47.24157" lon="7.44982">
        <ele>1407.718652</ele>
        <time>2021-07-07T02:01:51.737Z</time>
      </trkpt>
      <trkpt lat="47.2418" lon="7.45018">
        <ele>1408.166509</ele>
        <time>2021-07-07T02:02:07.251Z</time>
      </trkpt>
      <trkpt lat="47.24195" lon="7.45057">
        <ele>1408.584215</ele>
        <time>2021-07-07T02:02:21.803Z</time>
      </trkpt>
      <trkpt lat="47.24199" lon="7.45082">
        <ele>1408.812783</ele>
        <time>2021-07-07T02:02:32.376Z</time>
      </trkpt>
      <trkpt lat="47.24201" lon="7.45094">
        <ele>1408.926085</ele>
        <time>2021-07-07T02:02:34.923Z</time>
      </trkpt>
      <trkpt lat="47.24204" lon="7.45132">
        <ele>1409.274221</ele>
        <time>2021-07-07T02:02:46.991Z</time>
      </trkpt>
      <trkpt lat="47.24201" lon="7.45094">
        <ele>1409.0334</ele>
        <time>2021-07-07T02:02:55.972Z</time>
      </trkpt>
      <trkpt lat="47.24199" lon="7.45082">
        <ele>1408.882859</ele>
        <time>2021-07-07T02:03:01.885Z</time>
      </trkpt>
      <trkpt lat="47.24195" lon="7.45057">
        <ele>1408.579168</ele>
        <time>2021-07-07T02:03:08.471Z</time>
      </trkpt>
      <trkpt lat="47.2418" lon="7.45018">
        <ele>1408.024175</ele>
        <time>2021-07-07T02:03:22.407Z</time>
      </trkpt>
      <trkpt lat="47.24157" lon="7.44982">
        <ele>1407.42912</ele>
        <time>2021-07-07T02:03:37.311Z</time>
      </trkpt>
      <trkpt lat="47.24147" lon="7.44942">
        <ele>1406.923326</ele>
        <time>2021-07-07T02:03:50.178Z</time>
      </trkpt>
      <trkpt lat="47.24133" lon="7.44916">
        <ele>1406.51665</ele>
        <time>2021-07-07T02:04:00.111Z</time>
      </trkpt>
      <trkpt lat="47.2413" lon="7.44906">
        <ele>1406.388924</ele>
        <time>2021-07-07T02:04:03.552Z</time>
      </trkpt>
      <trkpt lat="47.2413" lon="7.44902">
        <ele>1406.33657</ele>
        <time>2021-07-07T02:04:08.211Z</time>
      </trkpt>
      <trkpt lat="47.2415" lon="7.44897">
        <ele>1404.510562</ele>
        <time>2021-07-07T02:04:20.491Z</time>
      </trkpt>
      <trkpt lat="47.24157" lon="7.44886">
        <ele>1402.835021</ele>
        <time>2021-07-07T02:04:25.880Z</time>
      </trkpt>
      <trkpt lat="47.24186" lon="7.4488">
        <ele>1398.183991</ele>
        <time>2021-07-07T02:04:42.399Z</time>
      </trkpt>
      <trkpt lat="47.24205" lon="7.44906">
        <ele>1394.028664</ele>
        <time>2021-07-07T02:04:55.693Z</time>
      </trkpt>
      <trkpt lat="47.24215" lon="7.44886">
        <ele>1391.256549</ele>
        <time>2021-07-07T02:05:04.393Z</time>
      </trkpt>
      <trkpt lat="47.24271" lon="7.44923">
        <ele>1381.464838</ele>
        <time>2021-07-07T02:05:35.639Z</time>
      </trkpt>
      <trkpt lat="47.24277" lon="7.44925">
        <ele>1380.497906</ele>
        <time>2021-07-07T02:05:38.683Z</time>
      </trkpt>
      <trkpt lat="47.24278" lon="7.44917">
        <ele>1379.610378</ele>
        <time>2021-07-07T02:05:41.042Z</time>
      </trkpt>
      <trkpt lat="47.24258" lon="7.4469">
        <ele>1337.177355</ele>
        <time>2021-07-07T02:06:32.498Z</time>
      </trkpt>
      <trkpt lat="47.2426" lon="7.4468">
        <ele>1335.029813</ele>
        <time>2021-07-07T02:06:35.711Z</time>
      </trkpt>
      <trkpt lat="47.24257" lon="7.44675">
        <ele>1333.934322</ele>
        <time>2021-07-07T02:06:36.685Z</time>
      </trkpt>
      <trkpt lat="47.24255" lon="7.44673">
        <ele>1333.181827</ele>
        <time>2021-07-07T02:06:37.368Z</time>
      </trkpt>
      <trkpt lat="47.24254" lon="7.44671">
        <ele>1332.6123</ele>
        <time>2021-07-07T02:06:37.882Z</time>
      </trkpt>
      <trkpt lat="47.24246" lon="7.4466">
        <ele>1329.519254</ele>
        <time>2021-07-07T02:06:40.618Z</time>
      </trkpt>
      <trkpt lat="47.24244" lon="7.44648">
        <ele>1327.247695</ele>
        <time>2021-07-07T02:06:42.975Z</time>
      </trkpt>
      <trkpt lat="47.24238" lon="7.4462">
        <ele>1325.003243</ele>
        <time>2021-07-07T02:06:49.021Z</time>
      </trkpt>
      <trkpt lat="47.24235" lon="7.44598">
        <ele>1323.935767</ele>
        <time>2021-07-07T02:06:53.631Z</time>
      </trkpt>
      <trkpt lat="47.24237" lon="7.44594">
        <ele>1323.701322</ele>
        <time>2021-07-07T02:06:54.666Z</time>
      </trkpt>
      <trkpt lat="47.24237" lon="7.44588">
        <ele>1323.411934</ele>
        <time>2021-07-07T02:06:56.146Z</time>
      </trkpt>
      <trkpt lat="47.24233" lon="7.44584">
        <ele>1323.101697</ele>
        <time>2021-07-07T02:06:57.500Z</time>
      </trkpt>
      <trkpt lat="47.24228" lon="7.44575">
        <ele>1322.518137</ele>
        <time>2021-07-07T02:07:00.191Z</time>
      </trkpt>
      <trkpt lat="47.24214" lon="7.44554">
        <ele>1321.128559</ele>
        <time>2021-07-07T02:07:06.390Z</time>
      </trkpt>
      <trkpt lat="47.24193" lon="7.44487">
        <ele>1317.659832</ele>
        <time>2021-07-07T02:07:22.713Z</time>
      </trkpt>
      <trkpt lat="47.2419" lon="7.44483">
        <ele>1317.382588</ele>
        <time>2021-07-07T02:07:23.966Z</time>
      </trkpt>
      <trkpt lat="47.24193" lon="7.44466">
        <ele>1316.563396</ele>
        <time>2021-07-07T02:07:28.832Z</time>
      </trkpt>
      <trkpt lat="47.24192" lon="7.44449">
        <ele>1315.779586</ele>
        <time>2021-07-07T02:07:35.499Z</time>
      </trkpt>
      <trkpt lat="47.24193" lon="7.44444">
        <ele>1315.500832</ele>
        <time>2021-07-07T02:07:38.651Z</time>
      </trkpt>
      <trkpt lat="47.24185" lon="7.4443">
        <ele>1314.676614</ele>
        <time>2021-07-07T02:07:43.422Z</time>
      </trkpt>
      <trkpt lat="47.24176" lon="7.44419">
        <ele>1313.851581</ele>
        <time>2021-07-07T02:07:51.477Z</time>
      </trkpt>
      <trkpt lat="47.2419" lon="7.44405">
        <ele>1315.679344</ele>
        <time>2021-07-07T02:08:03.217Z</time>
      </trkpt>
      <trkpt lat="47.24194" lon="7.4439">
        <ele>1317.294612</ele>
        <time>2021-07-07T02:08:08.468Z</time>
      </trkpt>
      <trkpt lat="47.24194" lon="7.44384">
        <ele>1317.977766</ele>
        <time>2021-07-07T02:08:13.562Z</time>
      </trkpt>
      <trkpt lat="47.24194" lon="7.44384">
        <ele>1317.977766</ele>
        <time>2021-07-07T02:08:13.562Z</time>
      </trkpt>
      <trkpt lat="47.24191" lon="7.44373">
        <ele>1319.120329</ele>
        <time>2021-07-07T02:08:20.175Z</time>
      </trkpt>
      <trkpt lat="47.24173" lon="7.44324">
        <ele>1324.963894</ele>
        <time>2021-07-07T02:08:50.233Z</time>
      </trkpt>
      <trkpt lat="47.2418" lon="7.44304">
        <ele>1327.246529</ele>
        <time>2021-07-07T02:09:01.332Z</time>
      </trkpt>
      <trkpt lat="47.2419" lon="7.44302">
        <ele>1328.747522</ele>
        <time>2021-07-07T02:09:09.971Z</time>
      </trkpt>
      <trkpt lat="47.24191" lon="7.44296">
        <ele>1329.400653</ele>
        <time>2021-07-07T02:09:14.470Z</time>
      </trkpt>
      <trkpt lat="47.24167" lon="7.44222">
        <ele>1337.846103</ele>
        <time>2021-07-07T02:10:02.594Z</time>
      </trkpt>
      <trkpt lat="47.24166" lon="7.44198">
        <ele>1340.329882</ele>
        <time>2021-07-07T02:10:17.109Z</time>
      </trkpt>
      <trkpt lat="47.24177" lon="7.4417">
        <ele>1342.909626</ele>
        <time>2021-07-07T02:10:33.624Z</time>
      </trkpt>
      <trkpt lat="47.24176" lon="7.44151">
        <ele>1344.227874</ele>
        <time>2021-07-07T02:10:42.333Z</time>
      </trkpt>
      <trkpt lat="47.24133" lon="7.44058">
        <ele>1352.445582</ele>
        <time>2021-07-07T02:11:34.420Z</time>
      </trkpt>
      <trkpt lat="47.24062" lon="7.43862">
        <ele>1361.319131</ele>
        <time>2021-07-07T02:12:49.772Z</time>
      </trkpt>
      <trkpt lat="47.24011" lon="7.43743">
        <ele>1362.668552</ele>
        <time>2021-07-07T02:13:25.345Z</time>
      </trkpt>
      <trkpt lat="47.23965" lon="7.43654">
        <ele>1360.10793</ele>
        <time>2021-07-07T02:13:51.257Z</time>
      </trkpt>
      <trkpt lat="47.23934" lon="7.43571">
        <ele>1357.657</ele>
        <time>2021-07-07T02:14:13.732Z</time>
      </trkpt>
      <trkpt lat="47.23912" lon="7.43516">
        <ele>1356.002548</ele>
        <time>2021-07-07T02:14:29.030Z</time>
      </trkpt>
      <trkpt lat="47.23912" lon="7.43516">
        <ele>1356.002548</ele>
        <time>2021-07-07T02:14:29.030Z</time>
      </trkpt>
      <trkpt lat="47.23872" lon="7.43402">
        <ele>1354.989016</ele>
        <time>2021-07-07T02:15:01.228Z</time>
      </trkpt>
      <trkpt lat="47.23803" lon="7.43257">
        <ele>1354.333802</ele>
        <time>2021-07-07T02:15:47.317Z</time>
      </trkpt>
      <trkpt lat="47.23785" lon="7.43231">
        <ele>1354.707439</ele>
        <time>2021-07-07T02:15:57.318Z</time>
      </trkpt>
      <trkpt lat="47.23776" lon="7.43215">
        <ele>1354.928115</ele>
        <time>2021-07-07T02:16:02.831Z</time>
      </trkpt>
      <trkpt lat="47.23752" lon="7.43168">
        <ele>1355.518679</ele>
        <time>2021-07-07T02:16:19.019Z</time>
      </trkpt>
      <trkpt lat="47.237" lon="7.43046">
        <ele>1356.48458</ele>
        <time>2021-07-07T02:17:01.130Z</time>
      </trkpt>
      <trkpt lat="47.23689" lon="7.43008">
        <ele>1356.253565</ele>
        <time>2021-07-07T02:17:13.034Z</time>
      </trkpt>
      <trkpt lat="47.2368" lon="7.42958">
        <ele>1355.960613</ele>
        <time>2021-07-07T02:17:27.492Z</time>
      </trkpt>
      <trkpt lat="47.23674" lon="7.42872">
        <ele>1355.476098</ele>
        <time>2021-07-07T02:17:49.491Z</time>
      </trkpt>
      <trkpt lat="47.23677" lon="7.42783">
        <ele>1351.033675</ele>
        <time>2021-07-07T02:18:10.185Z</time>
      </trkpt>
      <trkpt lat="47.23703" lon="7.42732">
        <ele>1343.574079</ele>
        <time>2021-07-07T02:18:23.836Z</time>
      </trkpt>
      <trkpt lat="47.23731" lon="7.42705">
        <ele>1337.87548</ele>
        <time>2021-07-07T02:18:33.738Z</time>
      </trkpt>
      <trkpt lat="47.23731" lon="7.42667">
        <ele>1333.418813</ele>
        <time>2021-07-07T02:18:41.647Z</time>
      </trkpt>
      <trkpt lat="47.23722" lon="7.4264">
        <ele>1329.970468</ele>
        <time>2021-07-07T02:18:47.622Z</time>
      </trkpt>
      <trkpt lat="47.23727" lon="7.42615">
        <ele>1326.933116</ele>
        <time>2021-07-07T02:18:53.084Z</time>
      </trkpt>
      <trkpt lat="47.23724" lon="7.42537">
        <ele>1315.241113</ele>
        <time>2021-07-07T02:19:08.992Z</time>
      </trkpt>
      <trkpt lat="47.23726" lon="7.42534">
        <ele>1314.524606</ele>
        <time>2021-07-07T02:19:10.597Z</time>
      </trkpt>
      <trkpt lat="47.23726" lon="7.42534">
        <ele>1314.524606</ele>
        <time>2021-07-07T02:19:10.597Z</time>
      </trkpt>
      <trkpt lat="47.23732" lon="7.42489">
        <ele>1307.116154</ele>
        <time>2021-07-07T02:19:19.739Z</time>
      </trkpt>
      <trkpt lat="47.23728" lon="7.42475">
        <ele>1304.713158</ele>
        <time>2021-07-07T02:19:23.291Z</time>
      </trkpt>
      <trkpt lat="47.23728" lon="7.42391">
        <ele>1290.873336</ele>
        <time>2021-07-07T02:19:40.545Z</time>
      </trkpt>
      <trkpt lat="47.2372" lon="7.4235">
        <ele>1283.963636</ele>
        <time>2021-07-07T02:19:49.339Z</time>
      </trkpt>
      <trkpt lat="47.23701" lon="7.423">
        <ele>1278.397157</ele>
        <time>2021-07-07T02:20:00.957Z</time>
      </trkpt>
      <trkpt lat="47.23691" lon="7.42196">
        <ele>1271.217144</ele>
        <time>2021-07-07T02:20:22.824Z</time>
      </trkpt>
      <trkpt lat="47.23668" lon="7.42154">
        <ele>1267.50776</ele>
        <time>2021-07-07T02:20:35.097Z</time>
      </trkpt>
      <trkpt lat="47.2366" lon="7.42137">
        <ele>1266.124327</ele>
        <time>2021-07-07T02:20:39.481Z</time>
      </trkpt>
      <trkpt lat="47.23658" lon="7.42127">
        <ele>1265.403759</ele>
        <time>2021-07-07T02:20:42.744Z</time>
      </trkpt>
      <trkpt lat="47.23614" lon="7.42002">
        <ele>1266.064055</ele>
        <time>2021-07-07T02:21:19.880Z</time>
      </trkpt>
      <trkpt lat="47.23606" lon="7.41944">
        <ele>1267.695496</ele>
        <time>2021-07-07T02:21:38.725Z</time>
      </trkpt>
      <trkpt lat="47.23576" lon="7.41838">
        <ele>1271.488457</ele>
        <time>2021-07-07T02:22:23.166Z</time>
      </trkpt>
      <trkpt lat="47.23552" lon="7.4177">
        <ele>1276.426861</ele>
        <time>2021-07-07T02:22:52.732Z</time>
      </trkpt>
      <trkpt lat="47.23529" lon="7.41681">
        <ele>1282.573575</ele>
        <time>2021-07-07T02:23:31.703Z</time>
      </trkpt>
      <trkpt lat="47.23531" lon="7.41662">
        <ele>1283.827373</ele>
        <time>2021-07-07T02:23:39.658Z</time>
      </trkpt>
      <trkpt lat="47.23543" lon="7.41642">
        <ele>1285.583289</ele>
        <time>2021-07-07T02:23:51.406Z</time>
      </trkpt>
      <trkpt lat="47.23546" lon="7.41614">
        <ele>1287.419281</ele>
        <time>2021-07-07T02:24:03.003Z</time>
      </trkpt>
      <trkpt lat="47.23527" lon="7.41574">
        <ele>1291.45698</ele>
        <time>2021-07-07T02:24:23.231Z</time>
      </trkpt>
      <trkpt lat="47.23521" lon="7.41536">
        <ele>1294.747319</ele>
        <time>2021-07-07T02:24:39.976Z</time>
      </trkpt>
      <trkpt lat="47.23494" lon="7.41453">
        <ele>1302.553606</ele>
        <time>2021-07-07T02:25:21.678Z</time>
      </trkpt>
      <trkpt lat="47.23482" lon="7.41439">
        <ele>1304.492487</ele>
        <time>2021-07-07T02:25:32.109Z</time>
      </trkpt>
      <trkpt lat="47.23472" lon="7.41408">
        <ele>1307.377982</ele>
        <time>2021-07-07T02:25:48.860Z</time>
      </trkpt>
      <trkpt lat="47.23437" lon="7.41303">
        <ele>1320.559855</ele>
        <time>2021-07-07T02:26:52.843Z</time>
      </trkpt>
      <trkpt lat="47.23428" lon="7.41274">
        <ele>1324.490036</ele>
        <time>2021-07-07T02:27:13.165Z</time>
      </trkpt>
      <trkpt lat="47.23421" lon="7.41259">
        <ele>1326.685379</ele>
        <time>2021-07-07T02:27:24.250Z</time>
      </trkpt>
      <trkpt lat="47.23411" lon="7.41205">
        <ele>1333.599347</ele>
        <time>2021-07-07T02:27:58.007Z</time>
      </trkpt>
      <trkpt lat="47.23404" lon="7.41162">
        <ele>1339.078802</ele>
        <time>2021-07-07T02:28:25.525Z</time>
      </trkpt>
      <trkpt lat="47.23388" lon="7.41071">
        <ele>1347.842509</ele>
        <time>2021-07-07T02:29:17.386Z</time>
      </trkpt>
      <trkpt lat="47.23388" lon="7.41071">
        <ele>1347.842509</ele>
        <time>2021-07-07T02:29:17.386Z</time>
      </trkpt>
      <trkpt lat="47.23385" lon="7.41066">
        <ele>1348.429517</ele>
        <time>2021-07-07T02:29:22.686Z</time>
      </trkpt>
      <trkpt lat="47.23376" lon="7.40996">
        <ele>1354.150416</ele>
        <time>2021-07-07T02:29:57.111Z</time>
      </trkpt>
      <trkpt lat="47.23319" lon="7.40842">
        <ele>1364.48828</ele>
        <time>2021-07-07T02:31:00.398Z</time>
      </trkpt>
      <trkpt lat="47.2331" lon="7.4077">
        <ele>1365.045571</ele>
        <time>2021-07-07T02:31:20.138Z</time>
      </trkpt>
      <trkpt lat="47.23254" lon="7.40553">
        <ele>1363.599194</ele>
        <time>2021-07-07T02:32:18.596Z</time>
      </trkpt>
      <trkpt lat="47.23205" lon="7.40408">
        <ele>1359.340803</ele>
        <time>2021-07-07T02:32:56.330Z</time>
      </trkpt>
      <trkpt lat="47.23159" lon="7.4028">
        <ele>1353.656353</ele>
        <time>2021-07-07T02:33:29.109Z</time>
      </trkpt>
      <trkpt lat="47.23126" lon="7.40171">
        <ele>1348.86036</ele>
        <time>2021-07-07T02:33:56.238Z</time>
      </trkpt>
      <trkpt lat="47.2303" lon="7.39802">
        <ele>1336.576455</ele>
        <time>2021-07-07T02:35:29.509Z</time>
      </trkpt>
      <trkpt lat="47.23018" lon="7.39752">
        <ele>1334.957795</ele>
        <time>2021-07-07T02:35:42.666Z</time>
      </trkpt>
      <trkpt lat="47.22993" lon="7.39669">
        <ele>1332.247328</ele>
        <time>2021-07-07T02:36:03.579Z</time>
      </trkpt>
      <trkpt lat="47.22962" lon="7.3959">
        <ele>1330.00042</ele>
        <time>2021-07-07T02:36:24.616Z</time>
      </trkpt>
      <trkpt lat="47.22959" lon="7.39562">
        <ele>1329.319721</ele>
        <time>2021-07-07T02:36:31.254Z</time>
      </trkpt>
      <trkpt lat="47.22946" lon="7.39568">
        <ele>1328.848774</ele>
        <time>2021-07-07T02:36:35.304Z</time>
      </trkpt>
      <trkpt lat="47.22914" lon="7.39542">
        <ele>1327.516105</ele>
        <time>2021-07-07T02:36:48.376Z</time>
      </trkpt>
      <trkpt lat="47.229" lon="7.3951">
        <ele>1326.604136</ele>
        <time>2021-07-07T02:36:58.135Z</time>
      </trkpt>
      <trkpt lat="47.22876" lon="7.39482">
        <ele>1326.223835</ele>
        <time>2021-07-07T02:37:09.617Z</time>
      </trkpt>
      <trkpt lat="47.22841" lon="7.39453">
        <ele>1328.858725</ele>
        <time>2021-07-07T02:37:26.244Z</time>
      </trkpt>
      <trkpt lat="47.22836" lon="7.3945">
        <ele>1329.265279</ele>
        <time>2021-07-07T02:37:28.512Z</time>
      </trkpt>
      <trkpt lat="47.22821" lon="7.39435">
        <ele>1330.45535</ele>
        <time>2021-07-07T02:37:35.963Z</time>
      </trkpt>
      <trkpt lat="47.22818" lon="7.39425">
        <ele>1330.907367</ele>
        <time>2021-07-07T02:37:39.107Z</time>
      </trkpt>
      <trkpt lat="47.22815" lon="7.39424">
        <ele>1331.15037</ele>
        <time>2021-07-07T02:37:42.253Z</time>
      </trkpt>
      <trkpt lat="47.22739" lon="7.39375">
        <ele>1336.592564</ele>
        <time>2021-07-07T02:38:29.285Z</time>
      </trkpt>
      <trkpt lat="47.22709" lon="7.39326">
        <ele>1341.319343</ele>
        <time>2021-07-07T02:39:02.897Z</time>
      </trkpt>
      <trkpt lat="47.22654" lon="7.39265">
        <ele>1349.97189</ele>
        <time>2021-07-07T02:39:55.563Z</time>
      </trkpt>
      <trkpt lat="47.22631" lon="7.39222">
        <ele>1354.57604</ele>
        <time>2021-07-07T02:40:21.414Z</time>
      </trkpt>
      <trkpt lat="47.22626" lon="7.39175">
        <ele>1358.623099</ele>
        <time>2021-07-07T02:40:40.027Z</time>
      </trkpt>
      <trkpt lat="47.22625" lon="7.3917">
        <ele>1359.091715</ele>
        <time>2021-07-07T02:40:44.899Z</time>
      </trkpt>
      <trkpt lat="47.22625" lon="7.3916">
        <ele>1359.969969</ele>
        <time>2021-07-07T02:40:48.629Z</time>
      </trkpt>
      <trkpt lat="47.22615" lon="7.39124">
        <ele>1360.977732</ele>
        <time>2021-07-07T02:41:02.116Z</time>
      </trkpt>
      <trkpt lat="47.2257" lon="7.39078">
        <ele>1362.784874</ele>
        <time>2021-07-07T02:41:29.488Z</time>
      </trkpt>
      <trkpt lat="47.22522" lon="7.39011">
        <ele>1364.918393</ele>
        <time>2021-07-07T02:41:57.161Z</time>
      </trkpt>
      <trkpt lat="47.22513" lon="7.38992">
        <ele>1365.448049</ele>
        <time>2021-07-07T02:42:03.085Z</time>
      </trkpt>
      <trkpt lat="47.22505" lon="7.38972">
        <ele>1365.955248</ele>
        <time>2021-07-07T02:42:08.664Z</time>
      </trkpt>
      <trkpt lat="47.22396" lon="7.38676">
        <ele>1353.751772</ele>
        <time>2021-07-07T02:43:27.538Z</time>
      </trkpt>
      <trkpt lat="47.22369" lon="7.38623">
        <ele>1349.648278</ele>
        <time>2021-07-07T02:43:41.956Z</time>
      </trkpt>
      <trkpt lat="47.22365" lon="7.38617">
        <ele>1349.099172</ele>
        <time>2021-07-07T02:43:43.772Z</time>
      </trkpt>
      <trkpt lat="47.22362" lon="7.38608">
        <ele>1348.473776</ele>
        <time>2021-07-07T02:43:45.630Z</time>
      </trkpt>
      <trkpt lat="47.22352" lon="7.38613">
        <ele>1347.515461</ele>
        <time>2021-07-07T02:43:48.897Z</time>
      </trkpt>
      <trkpt lat="47.22337" lon="7.38615">
        <ele>1346.144328</ele>
        <time>2021-07-07T02:43:53.752Z</time>
      </trkpt>
      <trkpt lat="47.22333" lon="7.38614">
        <ele>1345.771742</ele>
        <time>2021-07-07T02:43:54.977Z</time>
      </trkpt>
      <trkpt lat="47.22324" lon="7.38566">
        <ele>1342.681383</ele>
        <time>2021-07-07T02:44:05.191Z</time>
      </trkpt>
      <trkpt lat="47.22324" lon="7.38554">
        <ele>1341.916513</ele>
        <time>2021-07-07T02:44:07.717Z</time>
      </trkpt>
      <trkpt lat="47.22312" lon="7.38548">
        <ele>1340.459402</ele>
        <time>2021-07-07T02:44:11.452Z</time>
      </trkpt>
      <trkpt lat="47.22299" lon="7.38512">
        <ele>1336.910797</ele>
        <time>2021-07-07T02:44:19.726Z</time>
      </trkpt>
      <trkpt lat="47.22263" lon="7.38486">
        <ele>1331.711066</ele>
        <time>2021-07-07T02:44:31.723Z</time>
      </trkpt>
      <trkpt lat="47.22253" lon="7.38463">
        <ele>1329.266466</ele>
        <time>2021-07-07T02:44:37.419Z</time>
      </trkpt>
      <trkpt lat="47.2224" lon="7.38456">
        <ele>1327.523283</ele>
        <time>2021-07-07T02:44:41.468Z</time>
      </trkpt>
      <trkpt lat="47.22233" lon="7.38453">
        <ele>1326.625642</ele>
        <time>2021-07-07T02:44:43.530Z</time>
      </trkpt>
      <trkpt lat="47.22233" lon="7.38448">
        <ele>1326.184629</ele>
        <time>2021-07-07T02:44:44.615Z</time>
      </trkpt>
      <trkpt lat="47.22233" lon="7.38439">
        <ele>1325.320244</ele>
        <time>2021-07-07T02:44:46.746Z</time>
      </trkpt>
      <trkpt lat="47.22233" lon="7.38437">
        <ele>1325.170299</ele>
        <time>2021-07-07T02:44:47.113Z</time>
      </trkpt>
      <trkpt lat="47.22225" lon="7.38448">
        <ele>1323.702836</ele>
        <time>2021-07-07T02:44:50.016Z</time>
      </trkpt>
      <trkpt lat="47.22218" lon="7.38503">
        <ele>1318.810577</ele>
        <time>2021-07-07T02:44:59.776Z</time>
      </trkpt>
      <trkpt lat="47.22215" lon="7.38528">
        <ele>1316.853342</ele>
        <time>2021-07-07T02:45:04.145Z</time>
      </trkpt>
      <trkpt lat="47.22209" lon="7.38504">
        <ele>1314.94566</ele>
        <time>2021-07-07T02:45:09.657Z</time>
      </trkpt>
      <trkpt lat="47.22196" lon="7.38463">
        <ele>1311.642579</ele>
        <time>2021-07-07T02:45:18.906Z</time>
      </trkpt>
      <trkpt lat="47.22184" lon="7.38359">
        <ele>1303.802142</ele>
        <time>2021-07-07T02:45:41.487Z</time>
      </trkpt>
      <trkpt lat="47.22116" lon="7.38142">
        <ele>1282.986194</ele>
        <time>2021-07-07T02:46:30.557Z</time>
      </trkpt>
      <trkpt lat="47.22111" lon="7.3812">
        <ele>1280.792533</ele>
        <time>2021-07-07T02:46:35.364Z</time>
      </trkpt>
      <trkpt lat="47.22106" lon="7.38122">
        <ele>1280.029667</ele>
        <time>2021-07-07T02:46:36.757Z</time>
      </trkpt>
      <trkpt lat="47.22051" lon="7.38106">
        <ele>1272.189855</ele>
        <time>2021-07-07T02:46:51.132Z</time>
      </trkpt>
      <trkpt lat="47.22047" lon="7.38101">
        <ele>1271.445242</ele>
        <time>2021-07-07T02:46:53.039Z</time>
      </trkpt>
      <trkpt lat="47.2203" lon="7.38119">
        <ele>1268.363439</ele>
        <time>2021-07-07T02:47:00.314Z</time>
      </trkpt>
      <trkpt lat="47.22022" lon="7.38136">
        <ele>1266.23006</ele>
        <time>2021-07-07T02:47:05.295Z</time>
      </trkpt>
      <trkpt lat="47.22004" lon="7.38144">
        <ele>1263.336596</ele>
        <time>2021-07-07T02:47:12.096Z</time>
      </trkpt>
      <trkpt lat="47.21915" lon="7.38217">
        <ele>1248.062228</ele>
        <time>2021-07-07T02:47:48.172Z</time>
      </trkpt>
      <trkpt lat="47.21898" lon="7.38232">
        <ele>1245.611884</ele>
        <time>2021-07-07T02:47:55.192Z</time>
      </trkpt>
      <trkpt lat="47.21885" lon="7.38232">
        <ele>1244.167227</ele>
        <time>2021-07-07T02:48:00.041Z</time>
      </trkpt>
      <trkpt lat="47.21823" lon="7.38181">
        <ele>1236.268223</ele>
        <time>2021-07-07T02:48:26.143Z</time>
      </trkpt>
      <trkpt lat="47.21811" lon="7.38185">
        <ele>1234.887271</ele>
        <time>2021-07-07T02:48:30.556Z</time>
      </trkpt>
      <trkpt lat="47.21767" lon="7.38153">
        <ele>1229.491308</ele>
        <time>2021-07-07T02:48:48.056Z</time>
      </trkpt>
      <trkpt lat="47.21764" lon="7.3814">
        <ele>1228.418916</ele>
        <time>2021-07-07T02:48:51.767Z</time>
      </trkpt>
      <trkpt lat="47.21734" lon="7.38116">
        <ele>1224.117708</ele>
        <time>2021-07-07T02:49:04.127Z</time>
      </trkpt>
      <trkpt lat="47.21726" lon="7.38102">
        <ele>1222.462731</ele>
        <time>2021-07-07T02:49:08.437Z</time>
      </trkpt>
      <trkpt lat="47.21717" lon="7.38099">
        <ele>1221.131398</ele>
        <time>2021-07-07T02:49:11.883Z</time>
      </trkpt>
      <trkpt lat="47.21714" lon="7.38088">
        <ele>1220.005793</ele>
        <time>2021-07-07T02:49:14.855Z</time>
      </trkpt>
      <trkpt lat="47.21701" lon="7.38074">
        <ele>1217.820862</ele>
        <time>2021-07-07T02:49:20.566Z</time>
      </trkpt>
      <trkpt lat="47.21697" lon="7.3807">
        <ele>1217.1091</ele>
        <time>2021-07-07T02:49:22.413Z</time>
      </trkpt>
      <trkpt lat="47.21694" lon="7.38063">
        <ele>1216.407037</ele>
        <time>2021-07-07T02:49:23.725Z</time>
      </trkpt>
      <trkpt lat="47.21686" lon="7.38049">
        <ele>1214.677017</ele>
        <time>2021-07-07T02:49:26.989Z</time>
      </trkpt>
      <trkpt lat="47.21681" lon="7.38043">
        <ele>1213.797748</ele>
        <time>2021-07-07T02:49:28.645Z</time>
      </trkpt>
      <trkpt lat="47.2167" lon="7.38031">
        <ele>1211.882884</ele>
        <time>2021-07-07T02:49:32.189Z</time>
      </trkpt>
      <trkpt lat="47.21635" lon="7.37996">
        <ele>1206.17428</ele>
        <time>2021-07-07T02:49:42.846Z</time>
      </trkpt>
      <trkpt lat="47.21599" lon="7.37968">
        <ele>1200.000516</ele>
        <time>2021-07-07T02:49:57.432Z</time>
      </trkpt>
      <trkpt lat="47.21557" lon="7.37944">
        <ele>1192.138018</ele>
        <time>2021-07-07T02:50:13.266Z</time>
      </trkpt>
      <trkpt lat="47.21501" lon="7.37887">
        <ele>1180.317772</ele>
        <time>2021-07-07T02:50:37.065Z</time>
      </trkpt>
      <trkpt lat="47.21486" lon="7.37864">
        <ele>1176.367125</ele>
        <time>2021-07-07T02:50:45.007Z</time>
      </trkpt>
      <trkpt lat="47.21473" lon="7.37839">
        <ele>1172.678978</ele>
        <time>2021-07-07T02:50:52.453Z</time>
      </trkpt>
      <trkpt lat="47.21454" lon="7.37777">
        <ele>1164.66207</ele>
        <time>2021-07-07T02:51:08.679Z</time>
      </trkpt>
      <trkpt lat="47.21377" lon="7.37629">
        <ele>1142.503862</ele>
        <time>2021-07-07T02:51:53.475Z</time>
      </trkpt>
      <trkpt lat="47.21347" lon="7.37522">
        <ele>1129.366453</ele>
        <time>2021-07-07T02:52:21.248Z</time>
      </trkpt>
      <trkpt lat="47.2131" lon="7.37438">
        <ele>1118.117993</ele>
        <time>2021-07-07T02:52:45.363Z</time>
      </trkpt>
      <trkpt lat="47.21292" lon="7.37381">
        <ele>1111.01683</ele>
        <time>2021-07-07T02:53:00.545Z</time>
      </trkpt>
      <trkpt lat="47.2121" lon="7.37247">
        <ele>1093.255853</ele>
        <time>2021-07-07T02:53:43.865Z</time>
      </trkpt>
      <trkpt lat="47.21202" lon="7.3724">
        <ele>1091.870587</ele>
        <time>2021-07-07T02:53:47.279Z</time>
      </trkpt>
      <trkpt lat="47.21195" lon="7.37235">
        <ele>1090.757374</ele>
        <time>2021-07-07T02:53:49.998Z</time>
      </trkpt>
      <trkpt lat="47.21158" lon="7.3716">
        <ele>1082.553334</ele>
        <time>2021-07-07T02:54:06.328Z</time>
      </trkpt>
      <trkpt lat="47.21118" lon="7.37085">
        <ele>1076.988117</ele>
        <time>2021-07-07T02:54:23.184Z</time>
      </trkpt>
      <trkpt lat="47.21071" lon="7.37037">
        <ele>1071.975947</ele>
        <time>2021-07-07T02:54:38.965Z</time>
      </trkpt>
      <trkpt lat="47.21051" lon="7.36987">
        <ele>1068.644192</ele>
        <time>2021-07-07T02:54:49.978Z</time>
      </trkpt>
      <trkpt lat="47.21046" lon="7.36979">
        <ele>1068.312723</ele>
        <time>2021-07-07T02:54:52.146Z</time>
      </trkpt>
      <trkpt lat="47.21051" lon="7.36963">
        <ele>1068.1994</ele>
        <time>2021-07-07T02:54:55.911Z</time>
      </trkpt>
      <trkpt lat="47.21056" lon="7.36949">
        <ele>1068.108934</ele>
        <time>2021-07-07T02:54:58.912Z</time>
      </trkpt>
      <trkpt lat="47.21035" lon="7.36935">
        <ele>1067.90442</ele>
        <time>2021-07-07T02:55:05.843Z</time>
      </trkpt>
      <trkpt lat="47.21025" lon="7.36927">
        <ele>1067.80456</ele>
        <time>2021-07-07T02:55:09.321Z</time>
      </trkpt>
      <trkpt lat="47.21018" lon="7.36916">
        <ele>1067.710168</ele>
        <time>2021-07-07T02:55:12.630Z</time>
      </trkpt>
      <trkpt lat="47.21006" lon="7.3689">
        <ele>1067.517142</ele>
        <time>2021-07-07T02:55:19.397Z</time>
      </trkpt>
      <trkpt lat="47.20992" lon="7.36835">
        <ele>1067.160292</ele>
        <time>2021-07-07T02:55:32.441Z</time>
      </trkpt>
      <trkpt lat="47.20995" lon="7.3679">
        <ele>1066.88312</ele>
        <time>2021-07-07T02:55:43.252Z</time>
      </trkpt>
      <trkpt lat="47.20988" lon="7.36792">
        <ele>1066.822684</ele>
        <time>2021-07-07T02:55:45.581Z</time>
      </trkpt>
      <trkpt lat="47.20992" lon="7.36783">
        <ele>1066.76206</ele>
        <time>2021-07-07T02:55:48.391Z</time>
      </trkpt>
      <trkpt lat="47.21015" lon="7.36696">
        <ele>1071.606018</ele>
        <time>2021-07-07T02:56:13.126Z</time>
      </trkpt>
      <trkpt lat="47.21019" lon="7.36662">
        <ele>1073.449141</ele>
        <time>2021-07-07T02:56:24.799Z</time>
      </trkpt>
      <trkpt lat="47.21022" lon="7.36577">
        <ele>1078.076552</ele>
        <time>2021-07-07T02:56:55.375Z</time>
      </trkpt>
      <trkpt lat="47.21008" lon="7.3649">
        <ele>1083.68146</ele>
        <time>2021-07-07T02:57:28.304Z</time>
      </trkpt>
      <trkpt lat="47.21008" lon="7.36466">
        <ele>1085.581807</ele>
        <time>2021-07-07T02:57:38.061Z</time>
      </trkpt>
      <trkpt lat="47.21038" lon="7.36393">
        <ele>1092.187302</ele>
        <time>2021-07-07T02:58:11.055Z</time>
      </trkpt>
      <trkpt lat="47.21076" lon="7.36347">
        <ele>1097.859956</ele>
        <time>2021-07-07T02:58:38.984Z</time>
      </trkpt>
      <trkpt lat="47.21089" lon="7.36312">
        <ele>1100.930035</ele>
        <time>2021-07-07T02:58:54.112Z</time>
      </trkpt>
      <trkpt lat="47.21097" lon="7.36292">
        <ele>1102.51878</ele>
        <time>2021-07-07T02:59:03.782Z</time>
      </trkpt>
      <trkpt lat="47.21099" lon="7.36281">
        <ele>1103.243113</ele>
        <time>2021-07-07T02:59:07.903Z</time>
      </trkpt>
      <trkpt lat="47.21102" lon="7.36268">
        <ele>1104.065242</ele>
        <time>2021-07-07T02:59:12.353Z</time>
      </trkpt>
      <trkpt lat="47.21105" lon="7.36262">
        <ele>1104.513446</ele>
        <time>2021-07-07T02:59:14.723Z</time>
      </trkpt>
      <trkpt lat="47.21098" lon="7.36252">
        <ele>1105.436009</ele>
        <time>2021-07-07T02:59:20.791Z</time>
      </trkpt>
      <trkpt lat="47.21039" lon="7.36211">
        <ele>1111.369489</ele>
        <time>2021-07-07T02:59:53.075Z</time>
      </trkpt>
      <trkpt lat="47.21028" lon="7.36202">
        <ele>1112.456515</ele>
        <time>2021-07-07T02:59:59.708Z</time>
      </trkpt>
      <trkpt lat="47.21014" lon="7.36195">
        <ele>1113.834366</ele>
        <time>2021-07-07T03:00:06.484Z</time>
      </trkpt>
      <trkpt lat="47.2098" lon="7.36194">
        <ele>1116.94212</ele>
        <time>2021-07-07T03:00:22.564Z</time>
      </trkpt>
      <trkpt lat="47.20929" lon="7.36217">
        <ele>1120.666125</ele>
        <time>2021-07-07T03:00:44.369Z</time>
      </trkpt>
      <trkpt lat="47.20906" lon="7.36219">
        <ele>1122.201065</ele>
        <time>2021-07-07T03:00:54.364Z</time>
      </trkpt>
      <trkpt lat="47.20882" lon="7.36194">
        <ele>1124.094108</ele>
        <time>2021-07-07T03:01:07.197Z</time>
      </trkpt>
      <trkpt lat="47.20869" lon="7.36165">
        <ele>1125.635748</ele>
        <time>2021-07-07T03:01:17.316Z</time>
      </trkpt>
      <trkpt lat="47.20834" lon="7.36062">
        <ele>1131.037936</ele>
        <time>2021-07-07T03:01:50.522Z</time>
      </trkpt>
      <trkpt lat="47.2083" lon="7.36047">
        <ele>1131.944843</ele>
        <time>2021-07-07T03:01:55.486Z</time>
      </trkpt>
      <trkpt lat="47.20825" lon="7.35974">
        <ele>1135.947861</ele>
        <time>2021-07-07T03:02:26.825Z</time>
      </trkpt>
      <trkpt lat="47.20828" lon="7.3589">
        <ele>1140.547314</ele>
        <time>2021-07-07T03:03:04.229Z</time>
      </trkpt>
      <trkpt lat="47.20848" lon="7.35813">
        <ele>1145.201972</ele>
        <time>2021-07-07T03:03:44.175Z</time>
      </trkpt>
      <trkpt lat="47.20812" lon="7.35722">
        <ele>1151.7797</ele>
        <time>2021-07-07T03:04:33.632Z</time>
      </trkpt>
      <trkpt lat="47.20807" lon="7.35623">
        <ele>1157.904278</ele>
        <time>2021-07-07T03:05:19.754Z</time>
      </trkpt>
      <trkpt lat="47.20764" lon="7.35457">
        <ele>1168.409069</ele>
        <time>2021-07-07T03:06:41.580Z</time>
      </trkpt>
      <trkpt lat="47.20762" lon="7.35428">
        <ele>1170.150567</ele>
        <time>2021-07-07T03:06:55.092Z</time>
      </trkpt>
      <trkpt lat="47.20768" lon="7.35366">
        <ele>1173.766415</ele>
        <time>2021-07-07T03:07:22.904Z</time>
      </trkpt>
      <trkpt lat="47.20764" lon="7.35312">
        <ele>1176.766764</ele>
        <time>2021-07-07T03:07:46.859Z</time>
      </trkpt>
      <trkpt lat="47.20767" lon="7.35242">
        <ele>1180.121303</ele>
        <time>2021-07-07T03:08:17.289Z</time>
      </trkpt>
      <trkpt lat="47.20745" lon="7.35072">
        <ele>1188.429731</ele>
        <time>2021-07-07T03:09:28.988Z</time>
      </trkpt>
      <trkpt lat="47.20718" lon="7.34958">
        <ele>1192.575338</ele>
        <time>2021-07-07T03:10:16.380Z</time>
      </trkpt>
      <trkpt lat="47.20735" lon="7.3486">
        <ele>1195.975693</ele>
        <time>2021-07-07T03:10:54.903Z</time>
      </trkpt>
      <trkpt lat="47.20725" lon="7.34772">
        <ele>1197.377099</ele>
        <time>2021-07-07T03:11:26.183Z</time>
      </trkpt>
      <trkpt lat="47.20725" lon="7.34725">
        <ele>1197.111914</ele>
        <time>2021-07-07T03:11:41.789Z</time>
      </trkpt>
      <trkpt lat="47.20725" lon="7.34702">
        <ele>1196.978757</ele>
        <time>2021-07-07T03:11:48.788Z</time>
      </trkpt>
      <trkpt lat="47.20723" lon="7.34676">
        <ele>1196.830663</ele>
        <time>2021-07-07T03:11:57.186Z</time>
      </trkpt>
      <trkpt lat="47.20715" lon="7.34574">
        <ele>1196.251748</ele>
        <time>2021-07-07T03:12:27.127Z</time>
      </trkpt>
      <trkpt lat="47.20719" lon="7.34519">
        <ele>1194.705214</ele>
        <time>2021-07-07T03:12:42.421Z</time>
      </trkpt>
      <trkpt lat="47.20719" lon="7.34515">
        <ele>1194.505518</ele>
        <time>2021-07-07T03:12:43.495Z</time>
      </trkpt>
      <trkpt lat="47.20719" lon="7.34511">
        <ele>1194.316479</ele>
        <time>2021-07-07T03:12:44.294Z</time>
      </trkpt>
      <trkpt lat="47.20664" lon="7.34353">
        <ele>1185.884604</ele>
        <time>2021-07-07T03:13:23.563Z</time>
      </trkpt>
      <trkpt lat="47.20627" lon="7.34187">
        <ele>1177.749651</ele>
        <time>2021-07-07T03:14:01.847Z</time>
      </trkpt>
      <trkpt lat="47.20563" lon="7.34085">
        <ele>1171.309062</ele>
        <time>2021-07-07T03:14:33.392Z</time>
      </trkpt>
      <trkpt lat="47.20551" lon="7.34056">
        <ele>1170.308975</ele>
        <time>2021-07-07T03:14:41.322Z</time>
      </trkpt>
      <trkpt lat="47.20532" lon="7.33925">
        <ele>1166.467249</ele>
        <time>2021-07-07T03:15:13.163Z</time>
      </trkpt>
      <trkpt lat="47.2053" lon="7.33893">
        <ele>1165.543324</ele>
        <time>2021-07-07T03:15:21.015Z</time>
      </trkpt>
      <trkpt lat="47.20518" lon="7.33851">
        <ele>1164.243021</ele>
        <time>2021-07-07T03:15:32.023Z</time>
      </trkpt>
      <trkpt lat="47.20495" lon="7.33801">
        <ele>1162.853739</ele>
        <time>2021-07-07T03:15:46.681Z</time>
      </trkpt>
      <trkpt lat="47.20489" lon="7.33783">
        <ele>1162.442998</ele>
        <time>2021-07-07T03:15:51.526Z</time>
      </trkpt>
      <trkpt lat="47.20481" lon="7.33773">
        <ele>1162.138954</ele>
        <time>2021-07-07T03:15:55.126Z</time>
      </trkpt>
      <trkpt lat="47.20468" lon="7.33745">
        <ele>1161.415408</ele>
        <time>2021-07-07T03:16:03.730Z</time>
      </trkpt>
      <trkpt lat="47.20449" lon="7.33703">
        <ele>1160.385578</ele>
        <time>2021-07-07T03:16:15.932Z</time>
      </trkpt>
      <trkpt lat="47.20432" lon="7.33666">
        <ele>1159.464604</ele>
        <time>2021-07-07T03:16:26.879Z</time>
      </trkpt>
      <trkpt lat="47.20417" lon="7.33612">
        <ele>1158.270102</ele>
        <time>2021-07-07T03:16:41.046Z</time>
      </trkpt>
      <trkpt lat="47.20413" lon="7.33579">
        <ele>1157.241994</ele>
        <time>2021-07-07T03:16:49.373Z</time>
      </trkpt>
      <trkpt lat="47.20425" lon="7.33493">
        <ele>1154.576672</ele>
        <time>2021-07-07T03:17:10.337Z</time>
      </trkpt>
      <trkpt lat="47.20427" lon="7.33406">
        <ele>1151.935075</ele>
        <time>2021-07-07T03:17:30.468Z</time>
      </trkpt>
      <trkpt lat="47.20421" lon="7.33369">
        <ele>1150.769371</ele>
        <time>2021-07-07T03:17:39.440Z</time>
      </trkpt>
      <trkpt lat="47.20407" lon="7.33328">
        <ele>1148.850671</ele>
        <time>2021-07-07T03:17:49.988Z</time>
      </trkpt>
      <trkpt lat="47.204" lon="7.33319">
        <ele>1148.168059</ele>
        <time>2021-07-07T03:17:53.012Z</time>
      </trkpt>
      <trkpt lat="47.20395" lon="7.33313">
        <ele>1147.669917</ele>
        <time>2021-07-07T03:17:55.132Z</time>
      </trkpt>
      <trkpt lat="47.20379" lon="7.33289">
        <ele>1145.979428</ele>
        <time>2021-07-07T03:18:02.921Z</time>
      </trkpt>
      <trkpt lat="47.20368" lon="7.33228">
        <ele>1142.796864</ele>
        <time>2021-07-07T03:18:17.006Z</time>
      </trkpt>
      <trkpt lat="47.20356" lon="7.33195">
        <ele>1140.913079</ele>
        <time>2021-07-07T03:18:25.263Z</time>
      </trkpt>
      <trkpt lat="47.20291" lon="7.3307">
        <ele>1132.637274</ele>
        <time>2021-07-07T03:18:58.970Z</time>
      </trkpt>
      <trkpt lat="47.2027" lon="7.33006">
        <ele>1128.7238</ele>
        <time>2021-07-07T03:19:14.540Z</time>
      </trkpt>
      <trkpt lat="47.2027" lon="7.33005">
        <ele>1128.687074</ele>
        <time>2021-07-07T03:19:14.688Z</time>
      </trkpt>
      <trkpt lat="47.2027" lon="7.33004">
        <ele>1128.64023</ele>
        <time>2021-07-07T03:19:14.878Z</time>
      </trkpt>
      <trkpt lat="47.2026" lon="7.32976">
        <ele>1126.884459</ele>
        <time>2021-07-07T03:19:21.854Z</time>
      </trkpt>
      <trkpt lat="47.20221" lon="7.32823">
        <ele>1119.709457</ele>
        <time>2021-07-07T03:19:58.128Z</time>
      </trkpt>
      <trkpt lat="47.20215" lon="7.328">
        <ele>1118.90125</ele>
        <time>2021-07-07T03:20:03.892Z</time>
      </trkpt>
      <trkpt lat="47.20202" lon="7.32786">
        <ele>1118.144988</ele>
        <time>2021-07-07T03:20:08.457Z</time>
      </trkpt>
      <trkpt lat="47.20198" lon="7.32756">
        <ele>1117.148841</ele>
        <time>2021-07-07T03:20:14.704Z</time>
      </trkpt>
      <trkpt lat="47.20195" lon="7.32732">
        <ele>1116.333948</ele>
        <time>2021-07-07T03:20:19.810Z</time>
      </trkpt>
      <trkpt lat="47.20194" lon="7.32723">
        <ele>1116.054846</ele>
        <time>2021-07-07T03:20:21.556Z</time>
      </trkpt>
      <trkpt lat="47.20191" lon="7.32705">
        <ele>1115.442838</ele>
        <time>2021-07-07T03:20:25.463Z</time>
      </trkpt>
      <trkpt lat="47.20182" lon="7.32694">
        <ele>1114.878411</ele>
        <time>2021-07-07T03:20:29.044Z</time>
      </trkpt>
      <trkpt lat="47.20181" lon="7.32687">
        <ele>1114.667332</ele>
        <time>2021-07-07T03:20:30.379Z</time>
      </trkpt>
      <trkpt lat="47.20179" lon="7.32667">
        <ele>1113.98622</ele>
        <time>2021-07-07T03:20:34.702Z</time>
      </trkpt>
      <trkpt lat="47.20187" lon="7.32461">
        <ele>1110.056226</ele>
        <time>2021-07-07T03:21:17.768Z</time>
      </trkpt>
      <trkpt lat="47.20188" lon="7.32447">
        <ele>1109.783268</ele>
        <time>2021-07-07T03:21:20.819Z</time>
      </trkpt>
      <trkpt lat="47.2019" lon="7.32438">
        <ele>1109.60758</ele>
        <time>2021-07-07T03:21:22.862Z</time>
      </trkpt>
      <trkpt lat="47.20192" lon="7.32427">
        <ele>1109.409818</ele>
        <time>2021-07-07T03:21:25.168Z</time>
      </trkpt>
      <trkpt lat="47.20194" lon="7.32416">
        <ele>1109.19083</ele>
        <time>2021-07-07T03:21:27.705Z</time>
      </trkpt>
      <trkpt lat="47.20199" lon="7.32399">
        <ele>1108.853935</ele>
        <time>2021-07-07T03:21:31.495Z</time>
      </trkpt>
      <trkpt lat="47.20196" lon="7.32371">
        <ele>1108.104995</ele>
        <time>2021-07-07T03:21:37.588Z</time>
      </trkpt>
      <trkpt lat="47.20128" lon="7.32137">
        <ele>1100.926721</ele>
        <time>2021-07-07T03:22:29.111Z</time>
      </trkpt>
      <trkpt lat="47.20123" lon="7.32118">
        <ele>1100.081821</ele>
        <time>2021-07-07T03:22:33.006Z</time>
      </trkpt>
      <trkpt lat="47.20066" lon="7.31948">
        <ele>1092.097915</ele>
        <time>2021-07-07T03:23:09.482Z</time>
      </trkpt>
      <trkpt lat="47.20054" lon="7.31912">
        <ele>1090.426626</ele>
        <time>2021-07-07T03:23:16.922Z</time>
      </trkpt>
      <trkpt lat="47.2004" lon="7.31871">
        <ele>1088.614652</ele>
        <time>2021-07-07T03:23:25.565Z</time>
      </trkpt>
      <trkpt lat="47.20009" lon="7.31819">
        <ele>1085.894401</ele>
        <time>2021-07-07T03:23:38.810Z</time>
      </trkpt>
      <trkpt lat="47.19994" lon="7.31805">
        <ele>1084.870091</ele>
        <time>2021-07-07T03:23:43.737Z</time>
      </trkpt>
      <trkpt lat="47.19992" lon="7.31805">
        <ele>1084.711983</ele>
        <time>2021-07-07T03:23:44.675Z</time>
      </trkpt>
      <trkpt lat="47.1999" lon="7.318">
        <ele>1084.50873</ele>
        <time>2021-07-07T03:23:45.896Z</time>
      </trkpt>
      <trkpt lat="47.19979" lon="7.3178">
        <ele>1083.4812</ele>
        <time>2021-07-07T03:23:51.067Z</time>
      </trkpt>
      <trkpt lat="47.19972" lon="7.31769">
        <ele>1082.877854</ele>
        <time>2021-07-07T03:23:54.011Z</time>
      </trkpt>
      <trkpt lat="47.19961" lon="7.31732">
        <ele>1081.295414</ele>
        <time>2021-07-07T03:24:02.116Z</time>
      </trkpt>
      <trkpt lat="47.19949" lon="7.31672">
        <ele>1079.400429</ele>
        <time>2021-07-07T03:24:14.535Z</time>
      </trkpt>
      <trkpt lat="47.19944" lon="7.316">
        <ele>1077.934381</ele>
        <time>2021-07-07T03:24:29.303Z</time>
      </trkpt>
      <trkpt lat="47.1992" lon="7.31493">
        <ele>1075.673066</ele>
        <time>2021-07-07T03:24:52.979Z</time>
      </trkpt>
      <trkpt lat="47.1991" lon="7.31445">
        <ele>1074.671341</ele>
        <time>2021-07-07T03:25:03.591Z</time>
      </trkpt>
      <trkpt lat="47.19881" lon="7.31294">
        <ele>1073.740713</ele>
        <time>2021-07-07T03:25:37.407Z</time>
      </trkpt>
      <trkpt lat="47.19875" lon="7.31261">
        <ele>1073.538545</ele>
        <time>2021-07-07T03:25:45.030Z</time>
      </trkpt>
      <trkpt lat="47.19869" lon="7.31238">
        <ele>1073.3946</ele>
        <time>2021-07-07T03:25:50.431Z</time>
      </trkpt>
      <trkpt lat="47.19856" lon="7.31198">
        <ele>1073.136581</ele>
        <time>2021-07-07T03:26:00.332Z</time>
      </trkpt>
      <trkpt lat="47.1985" lon="7.31178">
        <ele>1073.120603</ele>
        <time>2021-07-07T03:26:05.514Z</time>
      </trkpt>
      <trkpt lat="47.19804" lon="7.3102">
        <ele>1073.290579</ele>
        <time>2021-07-07T03:26:44.003Z</time>
      </trkpt>
      <trkpt lat="47.19731" lon="7.3089">
        <ele>1072.329637</ele>
        <time>2021-07-07T03:27:21.425Z</time>
      </trkpt>
      <trkpt lat="47.1972" lon="7.3087">
        <ele>1072.036281</ele>
        <time>2021-07-07T03:27:27.107Z</time>
      </trkpt>
      <trkpt lat="47.19715" lon="7.30858">
        <ele>1071.873883</ele>
        <time>2021-07-07T03:27:30.241Z</time>
      </trkpt>
      <trkpt lat="47.19713" lon="7.3081">
        <ele>1071.340431</ele>
        <time>2021-07-07T03:27:40.335Z</time>
      </trkpt>
      <trkpt lat="47.19713" lon="7.30781">
        <ele>1071.006678</ele>
        <time>2021-07-07T03:27:46.429Z</time>
      </trkpt>
      <trkpt lat="47.19707" lon="7.30735">
        <ele>1070.482229</ele>
        <time>2021-07-07T03:27:55.837Z</time>
      </trkpt>
      <trkpt lat="47.19688" lon="7.3064">
        <ele>1068.417079</ele>
        <time>2021-07-07T03:28:15.978Z</time>
      </trkpt>
      <trkpt lat="47.19686" lon="7.30611">
        <ele>1067.778698</ele>
        <time>2021-07-07T03:28:22.200Z</time>
      </trkpt>
      <trkpt lat="47.19683" lon="7.30589">
        <ele>1067.28717</ele>
        <time>2021-07-07T03:28:26.719Z</time>
      </trkpt>
      <trkpt lat="47.19676" lon="7.30551">
        <ele>1066.424435</ele>
        <time>2021-07-07T03:28:34.950Z</time>
      </trkpt>
      <trkpt lat="47.19673" lon="7.30536">
        <ele>1066.081617</ele>
        <time>2021-07-07T03:28:38.096Z</time>
      </trkpt>
      <trkpt lat="47.19672" lon="7.30523">
        <ele>1065.792589</ele>
        <time>2021-07-07T03:28:40.957Z</time>
      </trkpt>
      <trkpt lat="47.19684" lon="7.30423">
        <ele>1063.859954</ele>
        <time>2021-07-07T03:29:02.028Z</time>
      </trkpt>
      <trkpt lat="47.19684" lon="7.30383">
        <ele>1063.229565</ele>
        <time>2021-07-07T03:29:10.234Z</time>
      </trkpt>
      <trkpt lat="47.19683" lon="7.30328">
        <ele>1062.355589</ele>
        <time>2021-07-07T03:29:21.901Z</time>
      </trkpt>
      <trkpt lat="47.1967" lon="7.30227">
        <ele>1060.725023</ele>
        <time>2021-07-07T03:29:44.193Z</time>
      </trkpt>
      <trkpt lat="47.19666" lon="7.30211">
        <ele>1060.458025</ele>
        <time>2021-07-07T03:29:47.791Z</time>
      </trkpt>
      <trkpt lat="47.19633" lon="7.30068">
        <ele>1055.930076</ele>
        <time>2021-07-07T03:30:19.048Z</time>
      </trkpt>
      <trkpt lat="47.19637" lon="7.3002">
        <ele>1054.475369</ele>
        <time>2021-07-07T03:30:28.545Z</time>
      </trkpt>
      <trkpt lat="47.19652" lon="7.29952">
        <ele>1052.042367</ele>
        <time>2021-07-07T03:30:42.879Z</time>
      </trkpt>
      <trkpt lat="47.19639" lon="7.29931">
        <ele>1049.189798</ele>
        <time>2021-07-07T03:30:48.731Z</time>
      </trkpt>
      <trkpt lat="47.19613" lon="7.29846">
        <ele>1039.878065</ele>
        <time>2021-07-07T03:31:08.240Z</time>
      </trkpt>
      <trkpt lat="47.19612" lon="7.29818">
        <ele>1037.065114</ele>
        <time>2021-07-07T03:31:14.003Z</time>
      </trkpt>
      <trkpt lat="47.19596" lon="7.29748">
        <ele>1029.609121</ele>
        <time>2021-07-07T03:31:29.167Z</time>
      </trkpt>
      <trkpt lat="47.19596" lon="7.29737">
        <ele>1028.518511</ele>
        <time>2021-07-07T03:31:31.516Z</time>
      </trkpt>
      <trkpt lat="47.19596" lon="7.29737">
        <ele>1028.518511</ele>
        <time>2021-07-07T03:31:31.516Z</time>
      </trkpt>
      <trkpt lat="47.19596" lon="7.29718">
        <ele>1026.65747</ele>
        <time>2021-07-07T03:31:35.321Z</time>
      </trkpt>
      <trkpt lat="47.19579" lon="7.29597">
        <ele>1005.316407</ele>
        <time>2021-07-07T03:32:00.526Z</time>
      </trkpt>
      <trkpt lat="47.19571" lon="7.29569">
        <ele>999.884118</ele>
        <time>2021-07-07T03:32:07.038Z</time>
      </trkpt>
      <trkpt lat="47.19571" lon="7.29569">
        <ele>999.884118</ele>
        <time>2021-07-07T03:32:07.038Z</time>
      </trkpt>
      <trkpt lat="47.19562" lon="7.29557">
        <ele>996.775764</ele>
        <time>2021-07-07T03:32:10.971Z</time>
      </trkpt>
      <trkpt lat="47.19537" lon="7.29525">
        <ele>988.049744</ele>
        <time>2021-07-07T03:32:21.748Z</time>
      </trkpt>
      <trkpt lat="47.19509" lon="7.29447">
        <ele>972.176582</ele>
        <time>2021-07-07T03:32:40.577Z</time>
      </trkpt>
      <trkpt lat="47.19419" lon="7.29313">
        <ele>937.759741</ele>
        <time>2021-07-07T03:33:20.975Z</time>
      </trkpt>
      <trkpt lat="47.19398" lon="7.29244">
        <ele>926.069247</ele>
        <time>2021-07-07T03:33:36.318Z</time>
      </trkpt>
      <trkpt lat="47.19351" lon="7.29177">
        <ele>914.16469</ele>
        <time>2021-07-07T03:33:55.828Z</time>
      </trkpt>
      <trkpt lat="47.19311" lon="7.29104">
        <ele>902.609787</ele>
        <time>2021-07-07T03:34:14.964Z</time>
      </trkpt>
      <trkpt lat="47.19294" lon="7.29077">
        <ele>898.110939</ele>
        <time>2021-07-07T03:34:22.477Z</time>
      </trkpt>
      <trkpt lat="47.19272" lon="7.29054">
        <ele>895.95267</ele>
        <time>2021-07-07T03:34:30.646Z</time>
      </trkpt>
      <trkpt lat="47.19248" lon="7.29032">
        <ele>893.866923</ele>
        <time>2021-07-07T03:34:39.777Z</time>
      </trkpt>
      <trkpt lat="47.19245" lon="7.29034">
        <ele>893.594111</ele>
        <time>2021-07-07T03:34:40.892Z</time>
      </trkpt>
      <trkpt lat="47.19243" lon="7.29026">
        <ele>893.156722</ele>
        <time>2021-07-07T03:34:42.903Z</time>
      </trkpt>
      <trkpt lat="47.19223" lon="7.28962">
        <ele>889.660413</ele>
        <time>2021-07-07T03:34:58.710Z</time>
      </trkpt>
      <trkpt lat="47.19202" lon="7.28938">
        <ele>887.657266</ele>
        <time>2021-07-07T03:35:07.763Z</time>
      </trkpt>
      <trkpt lat="47.19174" lon="7.28888">
        <ele>884.530442</ele>
        <time>2021-07-07T03:35:22.966Z</time>
      </trkpt>
      <trkpt lat="47.1914" lon="7.28861">
        <ele>883.010836</ele>
        <time>2021-07-07T03:35:36.897Z</time>
      </trkpt>
      <trkpt lat="47.19099" lon="7.28807">
        <ele>880.840447</ele>
        <time>2021-07-07T03:35:56.758Z</time>
      </trkpt>
      <trkpt lat="47.19071" lon="7.28787">
        <ele>879.621173</ele>
        <time>2021-07-07T03:36:07.654Z</time>
      </trkpt>
      <trkpt lat="47.18983" lon="7.28698">
        <ele>875.234957</ele>
        <time>2021-07-07T03:36:44.274Z</time>
      </trkpt>
      <trkpt lat="47.18966" lon="7.28678">
        <ele>874.267348</ele>
        <time>2021-07-07T03:36:51.817Z</time>
      </trkpt>
      <trkpt lat="47.18946" lon="7.28662">
        <ele>873.302815</ele>
        <time>2021-07-07T03:36:58.253Z</time>
      </trkpt>
      <trkpt lat="47.18931" lon="7.28651">
        <ele>872.544041</ele>
        <time>2021-07-07T03:37:03.320Z</time>
      </trkpt>
      <trkpt lat="47.18923" lon="7.28644">
        <ele>872.162908</ele>
        <time>2021-07-07T03:37:05.758Z</time>
      </trkpt>
      <trkpt lat="47.18917" lon="7.28637">
        <ele>871.808003</ele>
        <time>2021-07-07T03:37:08.217Z</time>
      </trkpt>
      <trkpt lat="47.18905" lon="7.28625">
        <ele>871.188355</ele>
        <time>2021-07-07T03:37:13.376Z</time>
      </trkpt>
      <trkpt lat="47.18857" lon="7.28597">
        <ele>869.850271</ele>
        <time>2021-07-07T03:37:31.479Z</time>
      </trkpt>
      <trkpt lat="47.18831" lon="7.28584">
        <ele>870.043188</ele>
        <time>2021-07-07T03:37:40.278Z</time>
      </trkpt>
      <trkpt lat="47.18816" lon="7.28578">
        <ele>870.152981</ele>
        <time>2021-07-07T03:37:45.320Z</time>
      </trkpt>
      <trkpt lat="47.188" lon="7.28589">
        <ele>870.279001</ele>
        <time>2021-07-07T03:37:51.474Z</time>
      </trkpt>
      <trkpt lat="47.18792" lon="7.28601">
        <ele>870.360658</ele>
        <time>2021-07-07T03:37:55.098Z</time>
      </trkpt>
      <trkpt lat="47.18784" lon="7.28581">
        <ele>870.472793</ele>
        <time>2021-07-07T03:38:01.080Z</time>
      </trkpt>
      <trkpt lat="47.1876" lon="7.28532">
        <ele>870.758937</ele>
        <time>2021-07-07T03:38:15.274Z</time>
      </trkpt>
      <trkpt lat="47.18747" lon="7.28499">
        <ele>870.941761</ele>
        <time>2021-07-07T03:38:25.097Z</time>
      </trkpt>
      <trkpt lat="47.18729" lon="7.28467">
        <ele>871.982648</ele>
        <time>2021-07-07T03:38:35.481Z</time>
      </trkpt>
      <trkpt lat="47.18712" lon="7.28418">
        <ele>873.757969</ele>
        <time>2021-07-07T03:38:50.858Z</time>
      </trkpt>
      <trkpt lat="47.18683" lon="7.2833">
        <ele>876.869556</ele>
        <time>2021-07-07T03:39:17.749Z</time>
      </trkpt>
      <trkpt lat="47.18676" lon="7.28314">
        <ele>877.464685</ele>
        <time>2021-07-07T03:39:23.149Z</time>
      </trkpt>
      <trkpt lat="47.18663" lon="7.28281">
        <ele>878.694723</ele>
        <time>2021-07-07T03:39:33.348Z</time>
      </trkpt>
      <trkpt lat="47.18657" lon="7.28265">
        <ele>879.259855</ele>
        <time>2021-07-07T03:39:38.355Z</time>
      </trkpt>
      <trkpt lat="47.18644" lon="7.28224">
        <ele>880.309044</ele>
        <time>2021-07-07T03:39:50.865Z</time>
      </trkpt>
      <trkpt lat="47.18619" lon="7.28131">
        <ele>882.472825</ele>
        <time>2021-07-07T03:40:17.212Z</time>
      </trkpt>
      <trkpt lat="47.18612" lon="7.2811">
        <ele>882.98361</ele>
        <time>2021-07-07T03:40:23.332Z</time>
      </trkpt>
      <trkpt lat="47.18602" lon="7.28089">
        <ele>883.543859</ele>
        <time>2021-07-07T03:40:29.821Z</time>
      </trkpt>
      <trkpt lat="47.18592" lon="7.28071">
        <ele>884.043683</ele>
        <time>2021-07-07T03:40:35.574Z</time>
      </trkpt>
      <trkpt lat="47.18585" lon="7.28058">
        <ele>884.389519</ele>
        <time>2021-07-07T03:40:39.516Z</time>
      </trkpt>
      <trkpt lat="47.18585" lon="7.28058">
        <ele>884.392712</ele>
        <time>2021-07-07T03:40:39.522Z</time>
      </trkpt>
      <trkpt lat="47.18581" lon="7.2805">
        <ele>884.622707</ele>
        <time>2021-07-07T03:40:41.890Z</time>
      </trkpt>
      <trkpt lat="47.1857" lon="7.28047">
        <ele>884.962037</ele>
        <time>2021-07-07T03:40:45.302Z</time>
      </trkpt>
      <trkpt lat="47.18535" lon="7.28062">
        <ele>884.373951</ele>
        <time>2021-07-07T03:40:57.220Z</time>
      </trkpt>
      <trkpt lat="47.1848" lon="7.28102">
        <ele>882.706157</ele>
        <time>2021-07-07T03:41:16.901Z</time>
      </trkpt>
      <trkpt lat="47.1846" lon="7.2811">
        <ele>882.163686</ele>
        <time>2021-07-07T03:41:23.012Z</time>
      </trkpt>
      <trkpt lat="47.18451" lon="7.2811">
        <ele>881.910109</ele>
        <time>2021-07-07T03:41:25.883Z</time>
      </trkpt>
      <trkpt lat="47.18432" lon="7.28117">
        <ele>881.36826</ele>
        <time>2021-07-07T03:41:32.654Z</time>
      </trkpt>
      <trkpt lat="47.18391" lon="7.28116">
        <ele>880.168859</ele>
        <time>2021-07-07T03:41:46.535Z</time>
      </trkpt>
      <trkpt lat="47.18155" lon="7.27906">
        <ele>858.434656</ele>
        <time>2021-07-07T03:43:16.984Z</time>
      </trkpt>
      <trkpt lat="47.18112" lon="7.27864">
        <ele>853.363199</ele>
        <time>2021-07-07T03:43:32.548Z</time>
      </trkpt>
      <trkpt lat="47.18086" lon="7.2782">
        <ele>848.529986</ele>
        <time>2021-07-07T03:43:44.555Z</time>
      </trkpt>
      <trkpt lat="47.18051" lon="7.2779">
        <ele>840.522395</ele>
        <time>2021-07-07T03:43:56.578Z</time>
      </trkpt>
      <trkpt lat="47.18043" lon="7.27787">
        <ele>838.829558</ele>
        <time>2021-07-07T03:43:59.103Z</time>
      </trkpt>
      <trkpt lat="47.18039" lon="7.27801">
        <ele>836.679704</ele>
        <time>2021-07-07T03:44:02.423Z</time>
      </trkpt>
      <trkpt lat="47.18004" lon="7.27832">
        <ele>828.699023</ele>
        <time>2021-07-07T03:44:14.334Z</time>
      </trkpt>
      <trkpt lat="47.17992" lon="7.27832">
        <ele>826.229237</ele>
        <time>2021-07-07T03:44:18.030Z</time>
      </trkpt>
      <trkpt lat="47.17981" lon="7.27815">
        <ele>823.140228</ele>
        <time>2021-07-07T03:44:22.797Z</time>
      </trkpt>
      <trkpt lat="47.17955" lon="7.27803">
        <ele>817.661074</ele>
        <time>2021-07-07T03:44:30.946Z</time>
      </trkpt>
      <trkpt lat="47.17939" lon="7.27791">
        <ele>813.978547</ele>
        <time>2021-07-07T03:44:36.491Z</time>
      </trkpt>
      <trkpt lat="47.17939" lon="7.27791">
        <ele>813.978547</ele>
        <time>2021-07-07T03:44:36.491Z</time>
      </trkpt>
      <trkpt lat="47.17923" lon="7.2778">
        <ele>809.933604</ele>
        <time>2021-07-07T03:44:41.647Z</time>
      </trkpt>
      <trkpt lat="47.17887" lon="7.27761">
        <ele>800.840555</ele>
        <time>2021-07-07T03:44:53.379Z</time>
      </trkpt>
      <trkpt lat="47.1784" lon="7.27722">
        <ele>788.38711</ele>
        <time>2021-07-07T03:45:09.734Z</time>
      </trkpt>
      <trkpt lat="47.1777" lon="7.2763">
        <ele>768.293578</ele>
        <time>2021-07-07T03:45:37.648Z</time>
      </trkpt>
      <trkpt lat="47.17751" lon="7.276">
        <ele>763.73157</ele>
        <time>2021-07-07T03:45:46.072Z</time>
      </trkpt>
      <trkpt lat="47.17745" lon="7.27598">
        <ele>762.788696</ele>
        <time>2021-07-07T03:45:47.839Z</time>
      </trkpt>
      <trkpt lat="47.17741" lon="7.27602">
        <ele>762.026097</ele>
        <time>2021-07-07T03:45:49.250Z</time>
      </trkpt>
      <trkpt lat="47.17739" lon="7.27602">
        <ele>761.634067</ele>
        <time>2021-07-07T03:45:50.065Z</time>
      </trkpt>
      <trkpt lat="47.17673" lon="7.27494">
        <ele>745.782079</ele>
        <time>2021-07-07T03:46:19.532Z</time>
      </trkpt>
      <trkpt lat="47.1763" lon="7.27397">
        <ele>738.088191</ele>
        <time>2021-07-07T03:46:44.170Z</time>
      </trkpt>
      <trkpt lat="47.17617" lon="7.27382">
        <ele>736.741776</ele>
        <time>2021-07-07T03:46:49.570Z</time>
      </trkpt>
      <trkpt lat="47.17604" lon="7.27372">
        <ele>735.563756</ele>
        <time>2021-07-07T03:46:55.081Z</time>
      </trkpt>
      <trkpt lat="47.17587" lon="7.27356">
        <ele>733.870262</ele>
        <time>2021-07-07T03:47:03.131Z</time>
      </trkpt>
      <trkpt lat="47.17538" lon="7.27282">
        <ele>728.278735</ele>
        <time>2021-07-07T03:47:30.822Z</time>
      </trkpt>
      <trkpt lat="47.17526" lon="7.27276">
        <ele>727.676013</ele>
        <time>2021-07-07T03:47:35.604Z</time>
      </trkpt>
      <trkpt lat="47.17516" lon="7.2728">
        <ele>727.129553</ele>
        <time>2021-07-07T03:47:39.869Z</time>
      </trkpt>
      <trkpt lat="47.17503" lon="7.27227">
        <ele>725.211078</ele>
        <time>2021-07-07T03:47:50.835Z</time>
      </trkpt>
      <trkpt lat="47.17472" lon="7.27135">
        <ele>721.704301</ele>
        <time>2021-07-07T03:48:11.801Z</time>
      </trkpt>
      <trkpt lat="47.17441" lon="7.27053">
        <ele>718.178236</ele>
        <time>2021-07-07T03:48:30.367Z</time>
      </trkpt>
      <trkpt lat="47.17428" lon="7.27021">
        <ele>716.459065</ele>
        <time>2021-07-07T03:48:37.962Z</time>
      </trkpt>
      <trkpt lat="47.1741" lon="7.26988">
        <ele>714.54431</ele>
        <time>2021-07-07T03:48:46.393Z</time>
      </trkpt>
      <trkpt lat="47.17383" lon="7.26951">
        <ele>712.033788</ele>
        <time>2021-07-07T03:48:56.801Z</time>
      </trkpt>
      <trkpt lat="47.17376" lon="7.26942">
        <ele>711.411772</ele>
        <time>2021-07-07T03:48:59.528Z</time>
      </trkpt>
      <trkpt lat="47.17368" lon="7.26912">
        <ele>709.931044</ele>
        <time>2021-07-07T03:49:06.649Z</time>
      </trkpt>
      <trkpt lat="47.17341" lon="7.26772">
        <ele>700.559644</ele>
        <time>2021-07-07T03:49:37.478Z</time>
      </trkpt>
      <trkpt lat="47.17341" lon="7.26761">
        <ele>699.739967</ele>
        <time>2021-07-07T03:49:39.703Z</time>
      </trkpt>
      <trkpt lat="47.17342" lon="7.26751">
        <ele>698.979729</ele>
        <time>2021-07-07T03:49:41.769Z</time>
      </trkpt>
      <trkpt lat="47.17342" lon="7.26713">
        <ele>696.171184</ele>
        <time>2021-07-07T03:49:49.695Z</time>
      </trkpt>
      <trkpt lat="47.1733" lon="7.26671">
        <ele>692.69393</ele>
        <time>2021-07-07T03:49:59.295Z</time>
      </trkpt>
      <trkpt lat="47.17321" lon="7.26645">
        <ele>690.539228</ele>
        <time>2021-07-07T03:50:05.183Z</time>
      </trkpt>
      <trkpt lat="47.17298" lon="7.2659">
        <ele>685.73518</ele>
        <time>2021-07-07T03:50:18.835Z</time>
      </trkpt>
      <trkpt lat="47.17277" lon="7.26551">
        <ele>682.136543</ele>
        <time>2021-07-07T03:50:29.056Z</time>
      </trkpt>
      <trkpt lat="47.1726" lon="7.2653">
        <ele>679.745217</ele>
        <time>2021-07-07T03:50:36.199Z</time>
      </trkpt>
      <trkpt lat="47.17226" lon="7.26492">
        <ele>675.183216</ele>
        <time>2021-07-07T03:50:49.203Z</time>
      </trkpt>
      <trkpt lat="47.17201" lon="7.26466">
        <ele>671.838662</ele>
        <time>2021-07-07T03:50:58.726Z</time>
      </trkpt>
      <trkpt lat="47.17168" lon="7.26413">
        <ele>665.999107</ele>
        <time>2021-07-07T03:51:13.725Z</time>
      </trkpt>
      <trkpt lat="47.17151" lon="7.26377">
        <ele>661.802278</ele>
        <time>2021-07-07T03:51:22.788Z</time>
      </trkpt>
      <trkpt lat="47.17154" lon="7.26359">
        <ele>660.050148</ele>
        <time>2021-07-07T03:51:26.514Z</time>
      </trkpt>
      <trkpt lat="47.17133" lon="7.26313">
        <ele>654.605765</ele>
        <time>2021-07-07T03:51:38.114Z</time>
      </trkpt>
      <trkpt lat="47.1712" lon="7.26263">
        <ele>649.480954</ele>
        <time>2021-07-07T03:51:48.990Z</time>
      </trkpt>
      <trkpt lat="47.17074" lon="7.26189">
        <ele>639.736531</ele>
        <time>2021-07-07T03:52:09.283Z</time>
      </trkpt>
      <trkpt lat="47.17026" lon="7.2612">
        <ele>629.642452</ele>
        <time>2021-07-07T03:52:29.774Z</time>
      </trkpt>
      <trkpt lat="47.17011" lon="7.26124">
        <ele>627.493493</ele>
        <time>2021-07-07T03:52:34.106Z</time>
      </trkpt>
      <trkpt lat="47.16972" lon="7.26107">
        <ele>621.327695</ele>
        <time>2021-07-07T03:52:46.567Z</time>
      </trkpt>
      <trkpt lat="47.16912" lon="7.2611">
        <ele>611.247396</ele>
        <time>2021-07-07T03:53:04.307Z</time>
      </trkpt>
      <trkpt lat="47.16887" lon="7.26094">
        <ele>605.650764</ele>
        <time>2021-07-07T03:53:12.650Z</time>
      </trkpt>
      <trkpt lat="47.16884" lon="7.26078">
        <ele>603.436157</ele>
        <time>2021-07-07T03:53:16.156Z</time>
      </trkpt>
      <trkpt lat="47.16886" lon="7.2607">
        <ele>602.299324</ele>
        <time>2021-07-07T03:53:18.317Z</time>
      </trkpt>
      <trkpt lat="47.16947" lon="7.26033">
        <ele>589.059287</ele>
        <time>2021-07-07T03:53:38.089Z</time>
      </trkpt>
      <trkpt lat="47.1695" lon="7.2602">
        <ele>587.202661</ele>
        <time>2021-07-07T03:53:41.757Z</time>
      </trkpt>
      <trkpt lat="47.16948" lon="7.26006">
        <ele>585.26636</ele>
        <time>2021-07-07T03:53:44.215Z</time>
      </trkpt>
      <trkpt lat="47.16947" lon="7.25988">
        <ele>582.857415</ele>
        <time>2021-07-07T03:53:47.320Z</time>
      </trkpt>
      <trkpt lat="47.16936" lon="7.25993">
        <ele>580.644703</ele>
        <time>2021-07-07T03:53:50.619Z</time>
      </trkpt>
      <trkpt lat="47.16917" lon="7.25978">
        <ele>576.35078</ele>
        <time>2021-07-07T03:53:56.054Z</time>
      </trkpt>
      <trkpt lat="47.16906" lon="7.25969">
        <ele>573.852871</ele>
        <time>2021-07-07T03:53:59.555Z</time>
      </trkpt>
      <trkpt lat="47.16908" lon="7.25966">
        <ele>573.210477</ele>
        <time>2021-07-07T03:54:00.535Z</time>
      </trkpt>
      <trkpt lat="47.16911" lon="7.25962">
        <ele>572.467814</ele>
        <time>2021-07-07T03:54:01.895Z</time>
      </trkpt>
      <trkpt lat="47.16914" lon="7.25931">
        <ele>568.19379</ele>
        <time>2021-07-07T03:54:07.401Z</time>
      </trkpt>
      <trkpt lat="47.16912" lon="7.25889">
        <ele>562.512129</ele>
        <time>2021-07-07T03:54:14.597Z</time>
      </trkpt>
      <trkpt lat="47.1691" lon="7.25856">
        <ele>558.04276</ele>
        <time>2021-07-07T03:54:20.599Z</time>
      </trkpt>
      <trkpt lat="47.16909" lon="7.25837">
        <ele>555.453637</ele>
        <time>2021-07-07T03:54:23.937Z</time>
      </trkpt>
      <trkpt lat="47.16909" lon="7.25828">
        <ele>554.219293</ele>
        <time>2021-07-07T03:54:25.517Z</time>
      </trkpt>
      <trkpt lat="47.1691" lon="7.25813">
        <ele>552.213499</ele>
        <time>2021-07-07T03:54:28.092Z</time>
      </trkpt>
      <trkpt lat="47.16933" lon="7.25698">
        <ele>541.088067</ele>
        <time>2021-07-07T03:54:49.062Z</time>
      </trkpt>
      <trkpt lat="47.16934" lon="7.25682">
        <ele>540.217894</ele>
        <time>2021-07-07T03:54:52.054Z</time>
      </trkpt>
      <trkpt lat="47.16935" lon="7.25669">
        <ele>539.513689</ele>
        <time>2021-07-07T03:54:54.307Z</time>
      </trkpt>
      <trkpt lat="47.16934" lon="7.25651">
        <ele>538.498014</ele>
        <time>2021-07-07T03:54:57.552Z</time>
      </trkpt>
      <trkpt lat="47.16931" lon="7.25609">
        <ele>536.167048</ele>
        <time>2021-07-07T03:55:05.658Z</time>
      </trkpt>
      <trkpt lat="47.16911" lon="7.25526">
        <ele>531.383563</ele>
        <time>2021-07-07T03:55:22.965Z</time>
      </trkpt>
      <trkpt lat="47.1691" lon="7.25512">
        <ele>530.589093</ele>
        <time>2021-07-07T03:55:25.824Z</time>
      </trkpt>
      <trkpt lat="47.16909" lon="7.25472">
        <ele>530.631947</ele>
        <time>2021-07-07T03:55:33.919Z</time>
      </trkpt>
      <trkpt lat="47.16907" lon="7.25445">
        <ele>531.150887</ele>
        <time>2021-07-07T03:55:39.969Z</time>
      </trkpt>
      <trkpt lat="47.16894" lon="7.25395">
        <ele>532.140345</ele>
        <time>2021-07-07T03:55:52.325Z</time>
      </trkpt>
      <trkpt lat="47.16878" lon="7.25355">
        <ele>532.995793</ele>
        <time>2021-07-07T03:56:03.482Z</time>
      </trkpt>
      <trkpt lat="47.16874" lon="7.25346">
        <ele>533.207286</ele>
        <time>2021-07-07T03:56:06.521Z</time>
      </trkpt>
      <trkpt lat="47.16846" lon="7.2528">
        <ele>534.662836</ele>
        <time>2021-07-07T03:56:28.079Z</time>
      </trkpt>
      <trkpt lat="47.16861" lon="7.25264">
        <ele>536.037907</ele>
        <time>2021-07-07T03:56:48.143Z</time>
      </trkpt>
      <trkpt lat="47.16866" lon="7.25246">
        <ele>538.158658</ele>
        <time>2021-07-07T03:57:00.780Z</time>
      </trkpt>
      <trkpt lat="47.16885" lon="7.25233">
        <ele>541.428072</ele>
        <time>2021-07-07T03:57:24.590Z</time>
      </trkpt>
      <trkpt lat="47.1687" lon="7.25223">
        <ele>543.881394</ele>
        <time>2021-07-07T03:57:41.847Z</time>
      </trkpt>
      <trkpt lat="47.16885" lon="7.25213">
        <ele>546.380819</ele>
        <time>2021-07-07T03:58:01.921Z</time>
      </trkpt>
      <trkpt lat="47.1687" lon="7.25203">
        <ele>548.908998</ele>
        <time>2021-07-07T03:58:22.275Z</time>
      </trkpt>
      <trkpt lat="47.16892" lon="7.25194">
        <ele>552.491418</ele>
        <time>2021-07-07T03:58:54.858Z</time>
      </trkpt>
      <trkpt lat="47.16868" lon="7.25161">
        <ele>557.664973</ele>
        <time>2021-07-07T03:59:44.038Z</time>
      </trkpt>
      <trkpt lat="47.16866" lon="7.2515">
        <ele>558.956649</ele>
        <time>2021-07-07T03:59:58.286Z</time>
      </trkpt>
      <trkpt lat="47.16887" lon="7.2515">
        <ele>562.32272</ele>
        <time>2021-07-07T04:00:30.070Z</time>
      </trkpt>
      <trkpt lat="47.16877" lon="7.25112">
        <ele>568.489226</ele>
        <time>2021-07-07T04:01:16.218Z</time>
      </trkpt>
      <trkpt lat="47.16879" lon="7.25088">
        <ele>572.601005</ele>
        <time>2021-07-07T04:01:45.927Z</time>
      </trkpt>
      <trkpt lat="47.16906" lon="7.2511">
        <ele>580.287965</ele>
        <time>2021-07-07T04:02:41.352Z</time>
      </trkpt>
      <trkpt lat="47.1695" lon="7.25078">
        <ele>592.667215</ele>
        <time>2021-07-07T04:04:17.010Z</time>
      </trkpt>
      <trkpt lat="47.16933" lon="7.25067">
        <ele>597.397021</ele>
        <time>2021-07-07T04:04:51.753Z</time>
      </trkpt>
      <trkpt lat="47.16944" lon="7.25053">
        <ele>601.035866</ele>
        <time>2021-07-07T04:05:22.147Z</time>
      </trkpt>
      <trkpt lat="47.16928" lon="7.25039">
        <ele>605.629619</ele>
        <time>2021-07-07T04:05:56.810Z</time>
      </trkpt>
      <trkpt lat="47.16926" lon="7.25012">
        <ele>610.269827</ele>
        <time>2021-07-07T04:06:34.605Z</time>
      </trkpt>
      <trkpt lat="47.16931" lon="7.24998">
        <ele>613.17572</ele>
        <time>2021-07-07T04:06:55.097Z</time>
      </trkpt>
      <trkpt lat="47.16948" lon="7.25015">
        <ele>618.909865</ele>
        <time>2021-07-07T04:07:38.084Z</time>
      </trkpt>
      <trkpt lat="47.16952" lon="7.24943">
        <ele>632.174343</ele>
        <time>2021-07-07T04:09:16.335Z</time>
      </trkpt>
      <trkpt lat="47.16963" lon="7.24959">
        <ele>636.307991</ele>
        <time>2021-07-07T04:09:46.202Z</time>
      </trkpt>
      <trkpt lat="47.16977" lon="7.24809">
        <ele>664.052688</ele>
        <time>2021-07-07T04:13:08.039Z</time>
      </trkpt>
      <trkpt lat="47.16982" lon="7.24791">
        <ele>667.525835</ele>
        <time>2021-07-07T04:13:33.716Z</time>
      </trkpt>
      <trkpt lat="47.16987" lon="7.24811">
        <ele>671.373357</ele>
        <time>2021-07-07T04:14:01.342Z</time>
      </trkpt>
      <trkpt lat="47.16997" lon="7.24788">
        <ele>676.310081</ele>
        <time>2021-07-07T04:14:37.416Z</time>
      </trkpt>
      <trkpt lat="47.16994" lon="7.24745">
        <ele>684.064359</ele>
        <time>2021-07-07T04:15:33.806Z</time>
      </trkpt>
      <trkpt lat="47.16998" lon="7.2475">
        <ele>685.452693</ele>
        <time>2021-07-07T04:15:44.215Z</time>
      </trkpt>
      <trkpt lat="47.16978" lon="7.24611">
        <ele>711.147535</ele>
        <time>2021-07-07T04:18:51.349Z</time>
      </trkpt>
      <trkpt lat="47.16984" lon="7.24616">
        <ele>712.858419</ele>
        <time>2021-07-07T04:19:03.942Z</time>
      </trkpt>
      <trkpt lat="47.16984" lon="7.24602">
        <ele>715.30556</ele>
        <time>2021-07-07T04:19:22.058Z</time>
      </trkpt>
      <trkpt lat="47.16979" lon="7.24555">
        <ele>723.916471</ele>
        <time>2021-07-07T04:20:25.681Z</time>
      </trkpt>
      <trkpt lat="47.16962" lon="7.2448">
        <ele>738.259711</ele>
        <time>2021-07-07T04:22:12.336Z</time>
      </trkpt>
      <trkpt lat="47.16981" lon="7.24493">
        <ele>743.635101</ele>
        <time>2021-07-07T04:22:51.831Z</time>
      </trkpt>
      <trkpt lat="47.16984" lon="7.24501">
        <ele>745.476044</ele>
        <time>2021-07-07T04:23:05.190Z</time>
      </trkpt>
      <trkpt lat="47.16972" lon="7.24376">
        <ele>768.204607</ele>
        <time>2021-07-07T04:25:49.253Z</time>
      </trkpt>
      <trkpt lat="47.16992" lon="7.24405">
        <ele>775.499189</ele>
        <time>2021-07-07T04:26:45.425Z</time>
      </trkpt>
      <trkpt lat="47.16987" lon="7.24281">
        <ele>797.765764</ele>
        <time>2021-07-07T04:29:32.417Z</time>
      </trkpt>
      <trkpt lat="47.17003" lon="7.24296">
        <ele>802.357797</ele>
        <time>2021-07-07T04:30:06.683Z</time>
      </trkpt>
      <trkpt lat="47.17" lon="7.24264">
        <ele>807.246171</ele>
        <time>2021-07-07T04:30:45.477Z</time>
      </trkpt>
      <trkpt lat="47.16994" lon="7.24243">
        <ele>810.81876</ele>
        <time>2021-07-07T04:31:14.202Z</time>
      </trkpt>
      <trkpt lat="47.16998" lon="7.2423">
        <ele>812.980375</ele>
        <time>2021-07-07T04:31:25.611Z</time>
      </trkpt>
      <trkpt lat="47.16999" lon="7.242">
        <ele>817.463918</ele>
        <time>2021-07-07T04:31:43.611Z</time>
      </trkpt>
      <trkpt lat="47.1698" lon="7.24175">
        <ele>823.266894</ele>
        <time>2021-07-07T04:32:09.407Z</time>
      </trkpt>
      <trkpt lat="47.16965" lon="7.24036">
        <ele>843.879096</ele>
        <time>2021-07-07T04:33:44.883Z</time>
      </trkpt>
      <trkpt lat="47.16943" lon="7.23943">
        <ele>855.759741</ele>
        <time>2021-07-07T04:34:38.116Z</time>
      </trkpt>
      <trkpt lat="47.16928" lon="7.23717">
        <ele>882.357824</ele>
        <time>2021-07-07T04:36:42.405Z</time>
      </trkpt>
      <trkpt lat="47.16943" lon="7.2362">
        <ele>893.386535</ele>
        <time>2021-07-07T04:37:36.648Z</time>
      </trkpt>
      <trkpt lat="47.16916" lon="7.23401">
        <ele>916.021002</ele>
        <time>2021-07-07T04:39:29.334Z</time>
      </trkpt>
      <trkpt lat="47.16925" lon="7.23318">
        <ele>924.195279</ele>
        <time>2021-07-07T04:40:10.218Z</time>
      </trkpt>
      <trkpt lat="47.16907" lon="7.23212">
        <ele>933.701341</ele>
        <time>2021-07-07T04:41:02.439Z</time>
      </trkpt>
      <trkpt lat="47.16895" lon="7.2317">
        <ele>937.454851</ele>
        <time>2021-07-07T04:41:23.318Z</time>
      </trkpt>
      <trkpt lat="47.16898" lon="7.23152">
        <ele>938.978153</ele>
        <time>2021-07-07T04:41:31.814Z</time>
      </trkpt>
      <trkpt lat="47.16901" lon="7.23115">
        <ele>942.102146</ele>
        <time>2021-07-07T04:41:49.153Z</time>
      </trkpt>
      <trkpt lat="47.16887" lon="7.23022">
        <ele>949.747658</ele>
        <time>2021-07-07T04:42:31.843Z</time>
      </trkpt>
      <trkpt lat="47.1687" lon="7.22961">
        <ele>953.908807</ele>
        <time>2021-07-07T04:43:01.145Z</time>
      </trkpt>
      <trkpt lat="47.16867" lon="7.22828">
        <ele>962.271177</ele>
        <time>2021-07-07T04:43:53.926Z</time>
      </trkpt>
      <trkpt lat="47.16856" lon="7.22748">
        <ele>966.926054</ele>
        <time>2021-07-07T04:44:23.632Z</time>
      </trkpt>
      <trkpt lat="47.16854" lon="7.22652">
        <ele>970.82955</ele>
        <time>2021-07-07T04:44:56.252Z</time>
      </trkpt>
      <trkpt lat="47.16838" lon="7.2252">
        <ele>976.264648</ele>
        <time>2021-07-07T04:45:39.137Z</time>
      </trkpt>
      <trkpt lat="47.16837" lon="7.22468">
        <ele>979.018218</ele>
        <time>2021-07-07T04:45:56.623Z</time>
      </trkpt>
      <trkpt lat="47.16846" lon="7.22418">
        <ele>981.88079</ele>
        <time>2021-07-07T04:46:14.380Z</time>
      </trkpt>
      <trkpt lat="47.16833" lon="7.22321">
        <ele>987.400344</ele>
        <time>2021-07-07T04:46:51.320Z</time>
      </trkpt>
      <trkpt lat="47.16825" lon="7.22191">
        <ele>996.759453</ele>
        <time>2021-07-07T04:47:48.115Z</time>
      </trkpt>
      <trkpt lat="47.16817" lon="7.22032">
        <ele>1011.430762</ele>
        <time>2021-07-07T04:49:07.138Z</time>
      </trkpt>
      <trkpt lat="47.16827" lon="7.21796">
        <ele>1035.078059</ele>
        <time>2021-07-07T04:51:08.886Z</time>
      </trkpt>
      <trkpt lat="47.16823" lon="7.21607">
        <ele>1055.251017</ele>
        <time>2021-07-07T04:52:42.951Z</time>
      </trkpt>
      <trkpt lat="47.16829" lon="7.21527">
        <ele>1064.091611</ele>
        <time>2021-07-07T04:53:25.194Z</time>
      </trkpt>
      <trkpt lat="47.16823" lon="7.21459">
        <ele>1071.592939</ele>
        <time>2021-07-07T04:54:03.168Z</time>
      </trkpt>
      <trkpt lat="47.16819" lon="7.21231">
        <ele>1104.66121</ele>
        <time>2021-07-07T04:56:31.991Z</time>
      </trkpt>
      <trkpt lat="47.16842" lon="7.21142">
        <ele>1119.154588</ele>
        <time>2021-07-07T04:57:42.610Z</time>
      </trkpt>
      <trkpt lat="47.16845" lon="7.21111">
        <ele>1124.042683</ele>
        <time>2021-07-07T04:58:05.547Z</time>
      </trkpt>
      <trkpt lat="47.1684" lon="7.21028">
        <ele>1136.960988</ele>
        <time>2021-07-07T04:59:04.037Z</time>
      </trkpt>
      <trkpt lat="47.16848" lon="7.20962">
        <ele>1147.358426</ele>
        <time>2021-07-07T04:59:49.908Z</time>
      </trkpt>
      <trkpt lat="47.16848" lon="7.209">
        <ele>1155.61842</ele>
        <time>2021-07-07T05:00:33.256Z</time>
      </trkpt>
      <trkpt lat="47.16868" lon="7.2082">
        <ele>1165.730727</ele>
        <time>2021-07-07T05:01:24.576Z</time>
      </trkpt>
      <trkpt lat="47.16868" lon="7.20771">
        <ele>1171.545374</ele>
        <time>2021-07-07T05:01:51.276Z</time>
      </trkpt>
      <trkpt lat="47.16872" lon="7.20744">
        <ele>1174.822534</ele>
        <time>2021-07-07T05:02:06.656Z</time>
      </trkpt>
      <trkpt lat="47.16881" lon="7.20698">
        <ele>1180.536259</ele>
        <time>2021-07-07T05:02:30.127Z</time>
      </trkpt>
      <trkpt lat="47.16883" lon="7.20554">
        <ele>1189.520227</ele>
        <time>2021-07-07T05:03:34.704Z</time>
      </trkpt>
      <trkpt lat="47.16892" lon="7.20516">
        <ele>1191.726636</ele>
        <time>2021-07-07T05:03:49.923Z</time>
      </trkpt>
      <trkpt lat="47.16885" lon="7.20408">
        <ele>1197.06525</ele>
        <time>2021-07-07T05:04:22.808Z</time>
      </trkpt>
      <trkpt lat="47.16882" lon="7.20389">
        <ele>1197.1128</ele>
        <time>2021-07-07T05:04:28.820Z</time>
      </trkpt>
      <trkpt lat="47.16886" lon="7.20386">
        <ele>1197.127463</ele>
        <time>2021-07-07T05:04:30.307Z</time>
      </trkpt>
      <trkpt lat="47.16908" lon="7.20103">
        <ele>1197.335937</ele>
        <time>2021-07-07T05:05:44.195Z</time>
      </trkpt>
      <trkpt lat="47.16907" lon="7.19997">
        <ele>1196.69674</ele>
        <time>2021-07-07T05:06:11.256Z</time>
      </trkpt>
      <trkpt lat="47.1691" lon="7.19985">
        <ele>1196.62024</ele>
        <time>2021-07-07T05:06:14.545Z</time>
      </trkpt>
      <trkpt lat="47.16916" lon="7.19984">
        <ele>1196.568709</ele>
        <time>2021-07-07T05:06:16.621Z</time>
      </trkpt>
      <trkpt lat="47.16915" lon="7.19909">
        <ele>1196.118731</ele>
        <time>2021-07-07T05:06:35.891Z</time>
      </trkpt>
      <trkpt lat="47.16891" lon="7.19715">
        <ele>1194.976962</ele>
        <time>2021-07-07T05:07:26.563Z</time>
      </trkpt>
      <trkpt lat="47.16864" lon="7.19611">
        <ele>1194.896223</ele>
        <time>2021-07-07T05:07:55.056Z</time>
      </trkpt>
      <trkpt lat="47.16855" lon="7.19505">
        <ele>1195.864136</ele>
        <time>2021-07-07T05:08:22.964Z</time>
      </trkpt>
      <trkpt lat="47.16859" lon="7.19436">
        <ele>1196.489356</ele>
        <time>2021-07-07T05:08:42.470Z</time>
      </trkpt>
      <trkpt lat="47.16871" lon="7.19375">
        <ele>1197.816404</ele>
        <time>2021-07-07T05:09:01.535Z</time>
      </trkpt>
      <trkpt lat="47.16873" lon="7.19329">
        <ele>1200.852031</ele>
        <time>2021-07-07T05:09:16.738Z</time>
      </trkpt>
      <trkpt lat="47.16859" lon="7.19168">
        <ele>1211.627204</ele>
        <time>2021-07-07T05:10:24.501Z</time>
      </trkpt>
      <trkpt lat="47.1685" lon="7.19116">
        <ele>1215.661624</ele>
        <time>2021-07-07T05:10:52.031Z</time>
      </trkpt>
      <trkpt lat="47.16834" lon="7.18972">
        <ele>1231.577165</ele>
        <time>2021-07-07T05:12:10.090Z</time>
      </trkpt>
      <trkpt lat="47.16818" lon="7.18786">
        <ele>1251.455281</ele>
        <time>2021-07-07T05:13:52.395Z</time>
      </trkpt>
      <trkpt lat="47.16817" lon="7.18698">
        <ele>1260.251905</ele>
        <time>2021-07-07T05:14:36.539Z</time>
      </trkpt>
      <trkpt lat="47.16804" lon="7.18585">
        <ele>1271.580081</ele>
        <time>2021-07-07T05:15:31.900Z</time>
      </trkpt>
      <trkpt lat="47.16809" lon="7.18508">
        <ele>1278.151082</ele>
        <time>2021-07-07T05:16:07.482Z</time>
      </trkpt>
      <trkpt lat="47.16784" lon="7.18396">
        <ele>1288.264322</ele>
        <time>2021-07-07T05:17:03.581Z</time>
      </trkpt>
      <trkpt lat="47.16776" lon="7.18328">
        <ele>1293.807613</ele>
        <time>2021-07-07T05:17:35.438Z</time>
      </trkpt>
      <trkpt lat="47.16717" lon="7.18227">
        <ele>1302.478982</ele>
        <time>2021-07-07T05:18:33.113Z</time>
      </trkpt>
      <trkpt lat="47.16712" lon="7.18218">
        <ele>1303.298219</ele>
        <time>2021-07-07T05:18:38.387Z</time>
      </trkpt>
      <trkpt lat="47.16684" lon="7.18091">
        <ele>1310.679922</ele>
        <time>2021-07-07T05:19:27.685Z</time>
      </trkpt>
      <trkpt lat="47.16644" lon="7.17997">
        <ele>1313.165146</ele>
        <time>2021-07-07T05:20:02.140Z</time>
      </trkpt>
      <trkpt lat="47.16612" lon="7.1796">
        <ele>1314.505862</ele>
        <time>2021-07-07T05:20:18.465Z</time>
      </trkpt>
      <trkpt lat="47.16583" lon="7.17916">
        <ele>1315.859141</ele>
        <time>2021-07-07T05:20:34.685Z</time>
      </trkpt>
      <trkpt lat="47.16565" lon="7.17853">
        <ele>1315.830893</ele>
        <time>2021-07-07T05:20:52.928Z</time>
      </trkpt>
      <trkpt lat="47.16528" lon="7.17823">
        <ele>1315.761165</ele>
        <time>2021-07-07T05:21:09.030Z</time>
      </trkpt>
      <trkpt lat="47.16523" lon="7.17818">
        <ele>1315.752035</ele>
        <time>2021-07-07T05:21:10.891Z</time>
      </trkpt>
      <trkpt lat="47.16523" lon="7.17814">
        <ele>1315.74752</ele>
        <time>2021-07-07T05:21:12.008Z</time>
      </trkpt>
      <trkpt lat="47.16493" lon="7.17666">
        <ele>1315.588219</ele>
        <time>2021-07-07T05:21:52.146Z</time>
      </trkpt>
      <trkpt lat="47.16486" lon="7.17647">
        <ele>1315.574387</ele>
        <time>2021-07-07T05:21:58.038Z</time>
      </trkpt>
      <trkpt lat="47.16477" lon="7.17553">
        <ele>1315.514168</ele>
        <time>2021-07-07T05:22:23.206Z</time>
      </trkpt>
      <trkpt lat="47.1643" lon="7.1737">
        <ele>1315.14399</ele>
        <time>2021-07-07T05:23:14.117Z</time>
      </trkpt>
      <trkpt lat="47.16423" lon="7.1731">
        <ele>1314.914024</ele>
        <time>2021-07-07T05:23:29.636Z</time>
      </trkpt>
      <trkpt lat="47.16413" lon="7.17271">
        <ele>1314.756582</ele>
        <time>2021-07-07T05:23:40.200Z</time>
      </trkpt>
      <trkpt lat="47.16408" lon="7.17237">
        <ele>1314.624658</ele>
        <time>2021-07-07T05:23:49.022Z</time>
      </trkpt>
      <trkpt lat="47.16405" lon="7.17217">
        <ele>1314.548396</ele>
        <time>2021-07-07T05:23:54.314Z</time>
      </trkpt>
      <trkpt lat="47.16371" lon="7.17102">
        <ele>1315.285271</ele>
        <time>2021-07-07T05:24:27.905Z</time>
      </trkpt>
      <trkpt lat="47.16358" lon="7.17043">
        <ele>1315.816808</ele>
        <time>2021-07-07T05:24:44.675Z</time>
      </trkpt>
      <trkpt lat="47.16352" lon="7.17029">
        <ele>1315.964357</ele>
        <time>2021-07-07T05:24:49.031Z</time>
      </trkpt>
      <trkpt lat="47.16347" lon="7.17019">
        <ele>1316.062724</ele>
        <time>2021-07-07T05:24:53.214Z</time>
      </trkpt>
      <trkpt lat="47.16344" lon="7.16976">
        <ele>1316.439719</ele>
        <time>2021-07-07T05:25:05.305Z</time>
      </trkpt>
      <trkpt lat="47.16348" lon="7.16955">
        <ele>1316.627567</ele>
        <time>2021-07-07T05:25:12.180Z</time>
      </trkpt>
      <trkpt lat="47.16371" lon="7.1694">
        <ele>1317.080767</ele>
        <time>2021-07-07T05:25:22.741Z</time>
      </trkpt>
      <trkpt lat="47.16377" lon="7.16895">
        <ele>1317.7297</ele>
        <time>2021-07-07T05:25:35.639Z</time>
      </trkpt>
      <trkpt lat="47.16374" lon="7.16841">
        <ele>1318.502599</ele>
        <time>2021-07-07T05:25:51.787Z</time>
      </trkpt>
      <trkpt lat="47.16344" lon="7.16736">
        <ele>1320.145671</ele>
        <time>2021-07-07T05:26:24.471Z</time>
      </trkpt>
      <trkpt lat="47.16323" lon="7.1662">
        <ele>1320.413625</ele>
        <time>2021-07-07T05:26:55.856Z</time>
      </trkpt>
      <trkpt lat="47.16292" lon="7.16528">
        <ele>1320.313148</ele>
        <time>2021-07-07T05:27:22.463Z</time>
      </trkpt>
      <trkpt lat="47.16272" lon="7.16421">
        <ele>1320.228094</ele>
        <time>2021-07-07T05:27:51.122Z</time>
      </trkpt>
      <trkpt lat="47.1624" lon="7.16291">
        <ele>1320.167377</ele>
        <time>2021-07-07T05:28:27.299Z</time>
      </trkpt>
      <trkpt lat="47.16211" lon="7.16252">
        <ele>1320.142101</ele>
        <time>2021-07-07T05:28:42.551Z</time>
      </trkpt>
      <trkpt lat="47.16203" lon="7.16222">
        <ele>1320.143813</ele>
        <time>2021-07-07T05:28:51.140Z</time>
      </trkpt>
      <trkpt lat="47.16188" lon="7.16082">
        <ele>1320.383205</ele>
        <time>2021-07-07T05:29:28.846Z</time>
      </trkpt>
      <trkpt lat="47.16135" lon="7.1594">
        <ele>1320.676433</ele>
        <time>2021-07-07T05:30:11.397Z</time>
      </trkpt>
      <trkpt lat="47.16111" lon="7.15821">
        <ele>1320.932944</ele>
        <time>2021-07-07T05:30:44.516Z</time>
      </trkpt>
      <trkpt lat="47.16106" lon="7.15775">
        <ele>1321.027563</ele>
        <time>2021-07-07T05:30:56.479Z</time>
      </trkpt>
      <trkpt lat="47.16109" lon="7.1577">
        <ele>1321.041069</ele>
        <time>2021-07-07T05:30:58.556Z</time>
      </trkpt>
      <trkpt lat="47.16114" lon="7.15724">
        <ele>1321.146757</ele>
        <time>2021-07-07T05:31:10.604Z</time>
      </trkpt>
      <trkpt lat="47.16085" lon="7.1565">
        <ele>1321.506592</ele>
        <time>2021-07-07T05:31:33.545Z</time>
      </trkpt>
      <trkpt lat="47.16025" lon="7.15457">
        <ele>1322.104238</ele>
        <time>2021-07-07T05:32:30.838Z</time>
      </trkpt>
      <trkpt lat="47.15994" lon="7.15266">
        <ele>1321.355087</ele>
        <time>2021-07-07T05:33:21.677Z</time>
      </trkpt>
      <trkpt lat="47.15952" lon="7.15123">
        <ele>1319.026213</ele>
        <time>2021-07-07T05:34:00.681Z</time>
      </trkpt>
      <trkpt lat="47.15913" lon="7.14958">
        <ele>1315.482299</ele>
        <time>2021-07-07T05:34:43.085Z</time>
      </trkpt>
      <trkpt lat="47.15886" lon="7.14864">
        <ele>1312.393362</ele>
        <time>2021-07-07T05:35:07.216Z</time>
      </trkpt>
      <trkpt lat="47.15886" lon="7.14813">
        <ele>1310.85465</ele>
        <time>2021-07-07T05:35:19.136Z</time>
      </trkpt>
      <trkpt lat="47.15853" lon="7.14658">
        <ele>1305.323638</ele>
        <time>2021-07-07T05:35:56.794Z</time>
      </trkpt>
      <trkpt lat="47.15822" lon="7.1456">
        <ele>1301.267708</ele>
        <time>2021-07-07T05:36:21.836Z</time>
      </trkpt>
      <trkpt lat="47.15791" lon="7.14487">
        <ele>1298.080228</ele>
        <time>2021-07-07T05:36:41.547Z</time>
      </trkpt>
      <trkpt lat="47.15775" lon="7.14421">
        <ele>1295.620332</ele>
        <time>2021-07-07T05:36:57.539Z</time>
      </trkpt>
      <trkpt lat="47.15764" lon="7.14377">
        <ele>1293.95285</ele>
        <time>2021-07-07T05:37:08.375Z</time>
      </trkpt>
      <trkpt lat="47.15734" lon="7.1428">
        <ele>1290.149806</ele>
        <time>2021-07-07T05:37:33.379Z</time>
      </trkpt>
      <trkpt lat="47.15694" lon="7.14192">
        <ele>1287.609377</ele>
        <time>2021-07-07T05:37:58.200Z</time>
      </trkpt>
      <trkpt lat="47.15687" lon="7.14124">
        <ele>1286.188972</ele>
        <time>2021-07-07T05:38:14.786Z</time>
      </trkpt>
      <trkpt lat="47.15658" lon="7.14032">
        <ele>1284.088317</ele>
        <time>2021-07-07T05:38:40.131Z</time>
      </trkpt>
      <trkpt lat="47.15631" lon="7.13966">
        <ele>1284.020327</ele>
        <time>2021-07-07T05:38:59.936Z</time>
      </trkpt>
      <trkpt lat="47.15617" lon="7.13937">
        <ele>1284.142776</ele>
        <time>2021-07-07T05:39:08.914Z</time>
      </trkpt>
      <trkpt lat="47.15618" lon="7.1393">
        <ele>1284.168284</ele>
        <time>2021-07-07T05:39:10.785Z</time>
      </trkpt>
      <trkpt lat="47.15606" lon="7.13893">
        <ele>1284.306762</ele>
        <time>2021-07-07T05:39:19.527Z</time>
      </trkpt>
      <trkpt lat="47.15602" lon="7.13873">
        <ele>1284.378421</ele>
        <time>2021-07-07T05:39:24.641Z</time>
      </trkpt>
      <trkpt lat="47.15581" lon="7.13761">
        <ele>1285.348412</ele>
        <time>2021-07-07T05:39:57.994Z</time>
      </trkpt>
      <trkpt lat="47.1557" lon="7.13726">
        <ele>1286.547819</ele>
        <time>2021-07-07T05:40:09.612Z</time>
      </trkpt>
      <trkpt lat="47.15561" lon="7.13712">
        <ele>1287.16603</ele>
        <time>2021-07-07T05:40:15.582Z</time>
      </trkpt>
      <trkpt lat="47.15555" lon="7.13708">
        <ele>1287.454211</ele>
        <time>2021-07-07T05:40:17.865Z</time>
      </trkpt>
      <trkpt lat="47.15557" lon="7.13697">
        <ele>1287.817562</ele>
        <time>2021-07-07T05:40:21.016Z</time>
      </trkpt>
      <trkpt lat="47.15541" lon="7.13619">
        <ele>1290.382071</ele>
        <time>2021-07-07T05:40:47.172Z</time>
      </trkpt>
      <trkpt lat="47.15532" lon="7.13565">
        <ele>1292.120266</ele>
        <time>2021-07-07T05:41:05.396Z</time>
      </trkpt>
      <trkpt lat="47.15516" lon="7.13519">
        <ele>1293.885229</ele>
        <time>2021-07-07T05:41:23.009Z</time>
      </trkpt>
      <trkpt lat="47.15504" lon="7.1346">
        <ele>1296.239946</ele>
        <time>2021-07-07T05:41:44.820Z</time>
      </trkpt>
      <trkpt lat="47.15481" lon="7.1342">
        <ele>1298.216214</ele>
        <time>2021-07-07T05:42:02.628Z</time>
      </trkpt>
      <trkpt lat="47.15453" lon="7.13346">
        <ele>1301.427025</ele>
        <time>2021-07-07T05:42:30.146Z</time>
      </trkpt>
      <trkpt lat="47.15447" lon="7.13292">
        <ele>1303.241925</ele>
        <time>2021-07-07T05:42:47.312Z</time>
      </trkpt>
      <trkpt lat="47.15426" lon="7.13243">
        <ele>1304.189566</ele>
        <time>2021-07-07T05:43:04.922Z</time>
      </trkpt>
      <trkpt lat="47.15418" lon="7.13211">
        <ele>1304.757855</ele>
        <time>2021-07-07T05:43:15.260Z</time>
      </trkpt>
      <trkpt lat="47.15372" lon="7.12972">
        <ele>1306.934553</ele>
        <time>2021-07-07T05:44:23.948Z</time>
      </trkpt>
      <trkpt lat="47.15354" lon="7.12938">
        <ele>1306.714328</ele>
        <time>2021-07-07T05:44:34.755Z</time>
      </trkpt>
      <trkpt lat="47.15332" lon="7.12825">
        <ele>1306.092306</ele>
        <time>2021-07-07T05:45:04.466Z</time>
      </trkpt>
      <trkpt lat="47.15307" lon="7.12735">
        <ele>1303.727827</ele>
        <time>2021-07-07T05:45:27.971Z</time>
      </trkpt>
      <trkpt lat="47.1522" lon="7.12517">
        <ele>1296.682834</ele>
        <time>2021-07-07T05:46:27.179Z</time>
      </trkpt>
      <trkpt lat="47.15187" lon="7.12395">
        <ele>1293.114289</ele>
        <time>2021-07-07T05:46:58.228Z</time>
      </trkpt>
      <trkpt lat="47.15178" lon="7.12312">
        <ele>1291.40184</ele>
        <time>2021-07-07T05:47:18.928Z</time>
      </trkpt>
      <trkpt lat="47.15165" lon="7.1226">
        <ele>1291.49216</ele>
        <time>2021-07-07T05:47:32.596Z</time>
      </trkpt>
      <trkpt lat="47.15151" lon="7.12232">
        <ele>1291.552098</ele>
        <time>2021-07-07T05:47:41.742Z</time>
      </trkpt>
      <trkpt lat="47.15144" lon="7.12228">
        <ele>1291.568662</ele>
        <time>2021-07-07T05:47:44.561Z</time>
      </trkpt>
      <trkpt lat="47.15139" lon="7.12222">
        <ele>1291.583937</ele>
        <time>2021-07-07T05:47:46.974Z</time>
      </trkpt>
      <trkpt lat="47.15126" lon="7.12166">
        <ele>1291.68219</ele>
        <time>2021-07-07T05:48:02.992Z</time>
      </trkpt>
      <trkpt lat="47.15123" lon="7.1213">
        <ele>1291.742884</ele>
        <time>2021-07-07T05:48:13.410Z</time>
      </trkpt>
      <trkpt lat="47.15108" lon="7.12106">
        <ele>1291.796438</ele>
        <time>2021-07-07T05:48:22.662Z</time>
      </trkpt>
      <trkpt lat="47.15107" lon="7.12067">
        <ele>1292.835468</ele>
        <time>2021-07-07T05:48:34.509Z</time>
      </trkpt>
      <trkpt lat="47.15098" lon="7.12049">
        <ele>1293.545637</ele>
        <time>2021-07-07T05:48:41.145Z</time>
      </trkpt>
      <trkpt lat="47.15029" lon="7.11987">
        <ele>1297.321628</ele>
        <time>2021-07-07T05:49:19.231Z</time>
      </trkpt>
      <trkpt lat="47.15015" lon="7.11938">
        <ele>1299.010061</ele>
        <time>2021-07-07T05:49:36.732Z</time>
      </trkpt>
      <trkpt lat="47.15011" lon="7.11889">
        <ele>1300.568402</ele>
        <time>2021-07-07T05:49:53.011Z</time>
      </trkpt>
      <trkpt lat="47.15017" lon="7.11857">
        <ele>1301.630331</ele>
        <time>2021-07-07T05:50:04.188Z</time>
      </trkpt>
      <trkpt lat="47.15028" lon="7.11832">
        <ele>1302.545337</ele>
        <time>2021-07-07T05:50:13.632Z</time>
      </trkpt>
      <trkpt lat="47.15029" lon="7.11804">
        <ele>1303.417842</ele>
        <time>2021-07-07T05:50:22.453Z</time>
      </trkpt>
      <trkpt lat="47.15012" lon="7.11759">
        <ele>1305.032494</ele>
        <time>2021-07-07T05:50:38.996Z</time>
      </trkpt>
      <trkpt lat="47.14987" lon="7.11724">
        <ele>1306.636559</ele>
        <time>2021-07-07T05:50:54.973Z</time>
      </trkpt>
      <trkpt lat="47.14951" lon="7.11655">
        <ele>1308.979719</ele>
        <time>2021-07-07T05:51:21.515Z</time>
      </trkpt>
      <trkpt lat="47.14934" lon="7.11628">
        <ele>1309.584933</ele>
        <time>2021-07-07T05:51:32.058Z</time>
      </trkpt>
      <trkpt lat="47.14935" lon="7.11618">
        <ele>1309.757483</ele>
        <time>2021-07-07T05:51:35.292Z</time>
      </trkpt>
      <trkpt lat="47.14935" lon="7.11607">
        <ele>1309.928116</ele>
        <time>2021-07-07T05:51:38.480Z</time>
      </trkpt>
      <trkpt lat="47.14921" lon="7.11576">
        <ele>1310.536875</ele>
        <time>2021-07-07T05:51:48.922Z</time>
      </trkpt>
      <trkpt lat="47.14867" lon="7.11547">
        <ele>1311.958202</ele>
        <time>2021-07-07T05:52:13.310Z</time>
      </trkpt>
      <trkpt lat="47.1482" lon="7.11431">
        <ele>1313.540293</ele>
        <time>2021-07-07T05:52:50.540Z</time>
      </trkpt>
      <trkpt lat="47.14816" lon="7.11383">
        <ele>1313.921855</ele>
        <time>2021-07-07T05:53:03.220Z</time>
      </trkpt>
      <trkpt lat="47.14824" lon="7.1134">
        <ele>1314.271169</ele>
        <time>2021-07-07T05:53:15.107Z</time>
      </trkpt>
      <trkpt lat="47.14823" lon="7.11319">
        <ele>1314.437394</ele>
        <time>2021-07-07T05:53:20.990Z</time>
      </trkpt>
      <trkpt lat="47.14813" lon="7.11313">
        <ele>1314.557932</ele>
        <time>2021-07-07T05:53:25.367Z</time>
      </trkpt>
      <trkpt lat="47.14804" lon="7.11307">
        <ele>1314.668419</ele>
        <time>2021-07-07T05:53:28.941Z</time>
      </trkpt>
      <trkpt lat="47.14783" lon="7.11278">
        <ele>1314.99896</ele>
        <time>2021-07-07T05:53:40.830Z</time>
      </trkpt>
      <trkpt lat="47.14772" lon="7.11247">
        <ele>1315.963337</ele>
        <time>2021-07-07T05:53:50.541Z</time>
      </trkpt>
      <trkpt lat="47.14763" lon="7.11213">
        <ele>1317.080425</ele>
        <time>2021-07-07T05:54:01.124Z</time>
      </trkpt>
      <trkpt lat="47.14756" lon="7.11189">
        <ele>1317.836338</ele>
        <time>2021-07-07T05:54:08.956Z</time>
      </trkpt>
      <trkpt lat="47.14742" lon="7.11148">
        <ele>1319.197169</ele>
        <time>2021-07-07T05:54:22.431Z</time>
      </trkpt>
      <trkpt lat="47.14715" lon="7.11096">
        <ele>1321.163317</ele>
        <time>2021-07-07T05:54:42.987Z</time>
      </trkpt>
      <trkpt lat="47.14701" lon="7.11061">
        <ele>1322.367847</ele>
        <time>2021-07-07T05:54:57.724Z</time>
      </trkpt>
      <trkpt lat="47.14692" lon="7.11015">
        <ele>1324.695962</ele>
        <time>2021-07-07T05:55:16.056Z</time>
      </trkpt>
      <trkpt lat="47.14678" lon="7.10993">
        <ele>1326.562619</ele>
        <time>2021-07-07T05:55:28.700Z</time>
      </trkpt>
      <trkpt lat="47.14661" lon="7.10946">
        <ele>1329.753465</ele>
        <time>2021-07-07T05:55:49.520Z</time>
      </trkpt>
      <trkpt lat="47.14656" lon="7.10911">
        <ele>1331.93911</ele>
        <time>2021-07-07T05:56:03.271Z</time>
      </trkpt>
      <trkpt lat="47.1465" lon="7.10893">
        <ele>1333.181205</ele>
        <time>2021-07-07T05:56:12.811Z</time>
      </trkpt>
      <trkpt lat="47.14634" lon="7.10836">
        <ele>1336.889162</ele>
        <time>2021-07-07T05:56:37.046Z</time>
      </trkpt>
      <trkpt lat="47.14617" lon="7.10761">
        <ele>1341.25513</ele>
        <time>2021-07-07T05:57:07.321Z</time>
      </trkpt>
      <trkpt lat="47.14602" lon="7.10719">
        <ele>1343.67197</ele>
        <time>2021-07-07T05:57:25.574Z</time>
      </trkpt>
      <trkpt lat="47.14602" lon="7.10715">
        <ele>1343.850167</ele>
        <time>2021-07-07T05:57:27.078Z</time>
      </trkpt>
      <trkpt lat="47.14587" lon="7.10684">
        <ele>1345.796927</ele>
        <time>2021-07-07T05:57:42.099Z</time>
      </trkpt>
      <trkpt lat="47.14578" lon="7.10643">
        <ele>1348.004062</ele>
        <time>2021-07-07T05:57:57.282Z</time>
      </trkpt>
      <trkpt lat="47.14543" lon="7.10541">
        <ele>1353.351994</ele>
        <time>2021-07-07T05:58:35.502Z</time>
      </trkpt>
      <trkpt lat="47.1454" lon="7.10508">
        <ele>1354.515412</ele>
        <time>2021-07-07T05:58:46.641Z</time>
      </trkpt>
      <trkpt lat="47.14532" lon="7.10489">
        <ele>1355.292625</ele>
        <time>2021-07-07T05:58:53.637Z</time>
      </trkpt>
      <trkpt lat="47.14512" lon="7.10408">
        <ele>1358.339261</ele>
        <time>2021-07-07T05:59:21.780Z</time>
      </trkpt>
      <trkpt lat="47.14495" lon="7.10374">
        <ele>1359.798168</ele>
        <time>2021-07-07T05:59:35.170Z</time>
      </trkpt>
      <trkpt lat="47.14446" lon="7.10211">
        <ele>1365.825007</ele>
        <time>2021-07-07T06:00:31.238Z</time>
      </trkpt>
      <trkpt lat="47.14417" lon="7.1014">
        <ele>1368.558156</ele>
        <time>2021-07-07T06:00:57.564Z</time>
      </trkpt>
      <trkpt lat="47.14383" lon="7.09997">
        <ele>1374.678408</ele>
        <time>2021-07-07T06:01:47.785Z</time>
      </trkpt>
      <trkpt lat="47.14376" lon="7.09972">
        <ele>1375.861226</ele>
        <time>2021-07-07T06:01:56.933Z</time>
      </trkpt>
      <trkpt lat="47.1437" lon="7.09947">
        <ele>1377.039893</ele>
        <time>2021-07-07T06:02:05.978Z</time>
      </trkpt>
      <trkpt lat="47.14363" lon="7.09902">
        <ele>1379.098977</ele>
        <time>2021-07-07T06:02:22.210Z</time>
      </trkpt>
      <trkpt lat="47.14352" lon="7.09876">
        <ele>1380.482646</ele>
        <time>2021-07-07T06:02:33.410Z</time>
      </trkpt>
      <trkpt lat="47.14322" lon="7.09771">
        <ele>1385.847766</ele>
        <time>2021-07-07T06:03:15.541Z</time>
      </trkpt>
      <trkpt lat="47.14306" lon="7.09731">
        <ele>1388.123635</ele>
        <time>2021-07-07T06:03:32.525Z</time>
      </trkpt>
      <trkpt lat="47.14284" lon="7.09626">
        <ele>1393.484406</ele>
        <time>2021-07-07T06:04:11.584Z</time>
      </trkpt>
      <trkpt lat="47.14259" lon="7.09575">
        <ele>1395.992776</ele>
        <time>2021-07-07T06:04:33.300Z</time>
      </trkpt>
      <trkpt lat="47.14247" lon="7.09508">
        <ele>1398.039981</ele>
        <time>2021-07-07T06:04:55.870Z</time>
      </trkpt>
      <trkpt lat="47.14221" lon="7.09426">
        <ele>1400.744436</ele>
        <time>2021-07-07T06:05:23.987Z</time>
      </trkpt>
      <trkpt lat="47.14201" lon="7.09327">
        <ele>1403.677952</ele>
        <time>2021-07-07T06:05:53.875Z</time>
      </trkpt>
      <trkpt lat="47.14167" lon="7.09225">
        <ele>1406.443802</ele>
        <time>2021-07-07T06:06:27.244Z</time>
      </trkpt>
      <trkpt lat="47.14162" lon="7.09193">
        <ele>1407.230062</ele>
        <time>2021-07-07T06:06:36.666Z</time>
      </trkpt>
      <trkpt lat="47.14149" lon="7.09167">
        <ele>1407.997538</ele>
        <time>2021-07-07T06:06:46.677Z</time>
      </trkpt>
      <trkpt lat="47.14139" lon="7.09142">
        <ele>1408.712647</ele>
        <time>2021-07-07T06:06:55.171Z</time>
      </trkpt>
      <trkpt lat="47.14137" lon="7.09116">
        <ele>1409.33684</ele>
        <time>2021-07-07T06:07:04.198Z</time>
      </trkpt>
      <trkpt lat="47.14144" lon="7.09097">
        <ele>1410.504031</ele>
        <time>2021-07-07T06:07:10.797Z</time>
      </trkpt>
      <trkpt lat="47.14124" lon="7.09005">
        <ele>1415.94529</ele>
        <time>2021-07-07T06:07:45.038Z</time>
      </trkpt>
      <trkpt lat="47.14112" lon="7.08983">
        <ele>1417.520993</ele>
        <time>2021-07-07T06:07:55.595Z</time>
      </trkpt>
      <trkpt lat="47.14076" lon="7.08962">
        <ele>1420.771908</ele>
        <time>2021-07-07T06:08:19.064Z</time>
      </trkpt>
      <trkpt lat="47.14069" lon="7.08941">
        <ele>1422.060996</ele>
        <time>2021-07-07T06:08:29.075Z</time>
      </trkpt>
      <trkpt lat="47.14021" lon="7.08711">
        <ele>1439.31696</ele>
        <time>2021-07-07T06:10:16.022Z</time>
      </trkpt>
      <trkpt lat="47.14013" lon="7.08647">
        <ele>1444.16423</ele>
        <time>2021-07-07T06:10:44.480Z</time>
      </trkpt>
      <trkpt lat="47.13986" lon="7.086">
        <ele>1448.626608</ele>
        <time>2021-07-07T06:11:11.148Z</time>
      </trkpt>
      <trkpt lat="47.13946" lon="7.08471">
        <ele>1458.95036</ele>
        <time>2021-07-07T06:12:12.593Z</time>
      </trkpt>
      <trkpt lat="47.13888" lon="7.08225">
        <ele>1476.74927</ele>
        <time>2021-07-07T06:14:04.889Z</time>
      </trkpt>
      <trkpt lat="47.13887" lon="7.08191">
        <ele>1479.003382</ele>
        <time>2021-07-07T06:14:19.206Z</time>
      </trkpt>
      <trkpt lat="47.13833" lon="7.07979">
        <ele>1488.170341</ele>
        <time>2021-07-07T06:15:37.935Z</time>
      </trkpt>
      <trkpt lat="47.13818" lon="7.07929">
        <ele>1490.139174</ele>
        <time>2021-07-07T06:15:53.411Z</time>
      </trkpt>
      <trkpt lat="47.13779" lon="7.0783">
        <ele>1491.109687</ele>
        <time>2021-07-07T06:16:23.688Z</time>
      </trkpt>
      <trkpt lat="47.13742" lon="7.07713">
        <ele>1491.721292</ele>
        <time>2021-07-07T06:16:57.113Z</time>
      </trkpt>
      <trkpt lat="47.13719" lon="7.07659">
        <ele>1492.903476</ele>
        <time>2021-07-07T06:17:15.162Z</time>
      </trkpt>
      <trkpt lat="47.13715" lon="7.07627">
        <ele>1494.045025</ele>
        <time>2021-07-07T06:17:24.727Z</time>
      </trkpt>
      <trkpt lat="47.13701" lon="7.07583">
        <ele>1495.7168</ele>
        <time>2021-07-07T06:17:39.476Z</time>
      </trkpt>
      <trkpt lat="47.13698" lon="7.07536">
        <ele>1497.350139</ele>
        <time>2021-07-07T06:17:54.791Z</time>
      </trkpt>
      <trkpt lat="47.13687" lon="7.07511">
        <ele>1498.381834</ele>
        <time>2021-07-07T06:18:04.899Z</time>
      </trkpt>
      <trkpt lat="47.13639" lon="7.07311">
        <ele>1508.375927</ele>
        <time>2021-07-07T06:19:25.138Z</time>
      </trkpt>
      <trkpt lat="47.13624" lon="7.0719">
        <ele>1515.034283</ele>
        <time>2021-07-07T06:20:10.477Z</time>
      </trkpt>
      <trkpt lat="47.13608" lon="7.07125">
        <ele>1518.489294</ele>
        <time>2021-07-07T06:20:35.734Z</time>
      </trkpt>
      <trkpt lat="47.13582" lon="7.07053">
        <ele>1522.489982</ele>
        <time>2021-07-07T06:21:04.835Z</time>
      </trkpt>
      <trkpt lat="47.13559" lon="7.07008">
        <ele>1525.268798</ele>
        <time>2021-07-07T06:21:24.839Z</time>
      </trkpt>
      <trkpt lat="47.13531" lon="7.0692">
        <ele>1529.975475</ele>
        <time>2021-07-07T06:21:58.979Z</time>
      </trkpt>
      <trkpt lat="47.13518" lon="7.06896">
        <ele>1531.419962</ele>
        <time>2021-07-07T06:22:09.771Z</time>
      </trkpt>
      <trkpt lat="47.13444" lon="7.0662">
        <ele>1545.515888</ele>
        <time>2021-07-07T06:23:54.053Z</time>
      </trkpt>
      <trkpt lat="47.13429" lon="7.06588">
        <ele>1547.422828</ele>
        <time>2021-07-07T06:24:07.786Z</time>
      </trkpt>
      <trkpt lat="47.13408" lon="7.06485">
        <ele>1552.663424</ele>
        <time>2021-07-07T06:24:45.784Z</time>
      </trkpt>
      <trkpt lat="47.13387" lon="7.06328">
        <ele>1562.510077</ele>
        <time>2021-07-07T06:25:46.492Z</time>
      </trkpt>
      <trkpt lat="47.1338" lon="7.063">
        <ele>1564.443812</ele>
        <time>2021-07-07T06:25:57.545Z</time>
      </trkpt>
      <trkpt lat="47.1336" lon="7.06284">
        <ele>1566.551757</ele>
        <time>2021-07-07T06:26:12.705Z</time>
      </trkpt>
      <trkpt lat="47.13346" lon="7.06201">
        <ele>1571.742338</ele>
        <time>2021-07-07T06:26:52.271Z</time>
      </trkpt>
      <trkpt lat="47.13339" lon="7.06183">
        <ele>1572.800438</ele>
        <time>2021-07-07T06:26:59.578Z</time>
      </trkpt>
      <trkpt lat="47.1334" lon="7.06164">
        <ele>1573.798209</ele>
        <time>2021-07-07T06:27:07.730Z</time>
      </trkpt>
      <trkpt lat="47.13341" lon="7.0616">
        <ele>1574.0272</ele>
        <time>2021-07-07T06:27:10.283Z</time>
      </trkpt>
      <trkpt lat="47.13343" lon="7.06158">
        <ele>1574.199436</ele>
        <time>2021-07-07T06:27:13.692Z</time>
      </trkpt>
      <trkpt lat="47.13323" lon="7.06054">
        <ele>1579.838778</ele>
        <time>2021-07-07T06:27:54.209Z</time>
      </trkpt>
      <trkpt lat="47.13322" lon="7.06027">
        <ele>1581.210054</ele>
        <time>2021-07-07T06:28:01.706Z</time>
      </trkpt>
      <trkpt lat="47.13314" lon="7.05999">
        <ele>1582.812993</ele>
        <time>2021-07-07T06:28:13.428Z</time>
      </trkpt>
      <trkpt lat="47.13313" lon="7.0599">
        <ele>1583.269003</ele>
        <time>2021-07-07T06:28:15.793Z</time>
      </trkpt>
      <trkpt lat="47.1331" lon="7.05981">
        <ele>1583.784798</ele>
        <time>2021-07-07T06:28:18.460Z</time>
      </trkpt>
      <trkpt lat="47.13302" lon="7.05968">
        <ele>1584.312135</ele>
        <time>2021-07-07T06:28:24.100Z</time>
      </trkpt>
      <trkpt lat="47.13303" lon="7.05948">
        <ele>1584.280148</ele>
        <time>2021-07-07T06:28:30.945Z</time>
      </trkpt>
      <trkpt lat="47.13302" lon="7.0593">
        <ele>1584.249726</ele>
        <time>2021-07-07T06:28:35.854Z</time>
      </trkpt>
      <trkpt lat="47.13302" lon="7.05928">
        <ele>1584.246916</ele>
        <time>2021-07-07T06:28:36.315Z</time>
      </trkpt>
      <trkpt lat="47.13279" lon="7.05803">
        <ele>1584.032766</ele>
        <time>2021-07-07T06:29:09.892Z</time>
      </trkpt>
      <trkpt lat="47.13259" lon="7.05738">
        <ele>1583.913312</ele>
        <time>2021-07-07T06:29:27.306Z</time>
      </trkpt>
      <trkpt lat="47.13254" lon="7.05689">
        <ele>1583.310905</ele>
        <time>2021-07-07T06:29:39.478Z</time>
      </trkpt>
      <trkpt lat="47.13231" lon="7.05598">
        <ele>1581.636278</ele>
        <time>2021-07-07T06:30:03.803Z</time>
      </trkpt>
      <trkpt lat="47.13234" lon="7.05558">
        <ele>1580.928222</ele>
        <time>2021-07-07T06:30:13.930Z</time>
      </trkpt>
      <trkpt lat="47.13229" lon="7.05511">
        <ele>1580.10696</ele>
        <time>2021-07-07T06:30:25.730Z</time>
      </trkpt>
      <trkpt lat="47.13225" lon="7.05496">
        <ele>1579.843785</ele>
        <time>2021-07-07T06:30:29.774Z</time>
      </trkpt>
      <trkpt lat="47.1322" lon="7.05485">
        <ele>1579.609617</ele>
        <time>2021-07-07T06:30:32.970Z</time>
      </trkpt>
      <trkpt lat="47.13094" lon="7.05171">
        <ele>1569.55531</ele>
        <time>2021-07-07T06:31:59.956Z</time>
      </trkpt>
      <trkpt lat="47.1309" lon="7.05164">
        <ele>1569.270878</ele>
        <time>2021-07-07T06:32:01.852Z</time>
      </trkpt>
      <trkpt lat="47.1309" lon="7.05152">
        <ele>1568.883533</ele>
        <time>2021-07-07T06:32:04.702Z</time>
      </trkpt>
      <trkpt lat="47.13013" lon="7.05017">
        <ele>1563.118276</ele>
        <time>2021-07-07T06:32:45.875Z</time>
      </trkpt>
      <trkpt lat="47.12975" lon="7.04941">
        <ele>1559.579112</ele>
        <time>2021-07-07T06:33:07.890Z</time>
      </trkpt>
      <trkpt lat="47.12871" lon="7.04772">
        <ele>1551.134511</ele>
        <time>2021-07-07T06:33:59.966Z</time>
      </trkpt>
      <trkpt lat="47.1283" lon="7.04685">
        <ele>1547.270469</ele>
        <time>2021-07-07T06:34:24.580Z</time>
      </trkpt>
      <trkpt lat="47.12826" lon="7.04684">
        <ele>1547.064894</ele>
        <time>2021-07-07T06:34:25.836Z</time>
      </trkpt>
      <trkpt lat="47.12803" lon="7.04671">
        <ele>1545.771472</ele>
        <time>2021-07-07T06:34:34.336Z</time>
      </trkpt>
      <trkpt lat="47.12794" lon="7.0467">
        <ele>1545.245227</ele>
        <time>2021-07-07T06:34:37.662Z</time>
      </trkpt>
      <trkpt lat="47.12798" lon="7.04664">
        <ele>1544.92351</ele>
        <time>2021-07-07T06:34:39.695Z</time>
      </trkpt>
      <trkpt lat="47.12799" lon="7.04656">
        <ele>1544.637892</ele>
        <time>2021-07-07T06:34:41.579Z</time>
      </trkpt>
      <trkpt lat="47.12785" lon="7.04632">
        <ele>1543.624303</ele>
        <time>2021-07-07T06:34:49.204Z</time>
      </trkpt>
      <trkpt lat="47.12769" lon="7.0459">
        <ele>1542.264978</ele>
        <time>2021-07-07T06:35:00.293Z</time>
      </trkpt>
      <trkpt lat="47.12723" lon="7.0454">
        <ele>1539.8685</ele>
        <time>2021-07-07T06:35:20.241Z</time>
      </trkpt>
      <trkpt lat="47.12713" lon="7.04513">
        <ele>1539.005845</ele>
        <time>2021-07-07T06:35:27.555Z</time>
      </trkpt>
      <trkpt lat="47.12707" lon="7.04488">
        <ele>1538.274031</ele>
        <time>2021-07-07T06:35:33.785Z</time>
      </trkpt>
      <trkpt lat="47.12706" lon="7.04483">
        <ele>1538.104944</ele>
        <time>2021-07-07T06:35:35.229Z</time>
      </trkpt>
      <trkpt lat="47.12701" lon="7.04475">
        <ele>1537.789226</ele>
        <time>2021-07-07T06:35:37.888Z</time>
      </trkpt>
      <trkpt lat="47.12692" lon="7.04455">
        <ele>1537.125908</ele>
        <time>2021-07-07T06:35:43.624Z</time>
      </trkpt>
      <trkpt lat="47.12686" lon="7.04446">
        <ele>1536.769857</ele>
        <time>2021-07-07T06:35:46.618Z</time>
      </trkpt>
      <trkpt lat="47.12682" lon="7.04431">
        <ele>1536.404043</ele>
        <time>2021-07-07T06:35:50.530Z</time>
      </trkpt>
      <trkpt lat="47.12677" lon="7.04419">
        <ele>1536.107752</ele>
        <time>2021-07-07T06:35:53.953Z</time>
      </trkpt>
      <trkpt lat="47.12654" lon="7.04398">
        <ele>1535.269284</ele>
        <time>2021-07-07T06:36:03.323Z</time>
      </trkpt>
      <trkpt lat="47.1262" lon="7.04337">
        <ele>1533.574195</ele>
        <time>2021-07-07T06:36:22.358Z</time>
      </trkpt>
      <trkpt lat="47.12537" lon="7.04157">
        <ele>1529.695263</ele>
        <time>2021-07-07T06:37:15.864Z</time>
      </trkpt>
      <trkpt lat="47.12482" lon="7.04052">
        <ele>1527.896612</ele>
        <time>2021-07-07T06:37:49.173Z</time>
      </trkpt>
      <trkpt lat="47.1244" lon="7.03956">
        <ele>1527.317234</ele>
        <time>2021-07-07T06:38:18.413Z</time>
      </trkpt>
      <trkpt lat="47.12321" lon="7.03744">
        <ele>1526.623225</ele>
        <time>2021-07-07T06:39:30.709Z</time>
      </trkpt>
      <trkpt lat="47.12263" lon="7.0365">
        <ele>1526.121499</ele>
        <time>2021-07-07T06:40:03.648Z</time>
      </trkpt>
      <trkpt lat="47.12191" lon="7.03581">
        <ele>1523.797482</ele>
        <time>2021-07-07T06:40:35.255Z</time>
      </trkpt>
      <trkpt lat="47.1217" lon="7.03541">
        <ele>1522.477863</ele>
        <time>2021-07-07T06:40:47.355Z</time>
      </trkpt>
      <trkpt lat="47.1215" lon="7.03534">
        <ele>1521.689436</ele>
        <time>2021-07-07T06:40:54.453Z</time>
      </trkpt>
      <trkpt lat="47.12131" lon="7.03493">
        <ele>1520.368466</ele>
        <time>2021-07-07T06:41:06.220Z</time>
      </trkpt>
      <trkpt lat="47.12091" lon="7.03457">
        <ele>1518.253762</ele>
        <time>2021-07-07T06:41:22.002Z</time>
      </trkpt>
      <trkpt lat="47.12048" lon="7.03357">
        <ele>1512.870493</ele>
        <time>2021-07-07T06:41:48.453Z</time>
      </trkpt>
      <trkpt lat="47.11958" lon="7.03252">
        <ele>1505.643066</ele>
        <time>2021-07-07T06:42:26.300Z</time>
      </trkpt>
      <trkpt lat="47.11955" lon="7.0323">
        <ele>1504.875548</ele>
        <time>2021-07-07T06:42:31.766Z</time>
      </trkpt>
      <trkpt lat="47.11954" lon="7.03217">
        <ele>1504.441406</ele>
        <time>2021-07-07T06:42:34.559Z</time>
      </trkpt>
      <trkpt lat="47.11945" lon="7.03197">
        <ele>1503.661076</ele>
        <time>2021-07-07T06:42:40.103Z</time>
      </trkpt>
      <trkpt lat="47.11944" lon="7.03177">
        <ele>1502.989101</ele>
        <time>2021-07-07T06:42:44.884Z</time>
      </trkpt>
      <trkpt lat="47.11917" lon="7.0312">
        <ele>1500.675354</ele>
        <time>2021-07-07T06:43:01.141Z</time>
      </trkpt>
      <trkpt lat="47.11836" lon="7.03045">
        <ele>1497.139467</ele>
        <time>2021-07-07T06:43:35.462Z</time>
      </trkpt>
      <trkpt lat="47.11787" lon="7.03009">
        <ele>1495.880757</ele>
        <time>2021-07-07T06:43:55.618Z</time>
      </trkpt>
      <trkpt lat="47.11768" lon="7.02973">
        <ele>1495.161213</ele>
        <time>2021-07-07T06:44:07.164Z</time>
      </trkpt>
      <trkpt lat="47.11731" lon="7.02932">
        <ele>1494.09708</ele>
        <time>2021-07-07T06:44:24.038Z</time>
      </trkpt>
      <trkpt lat="47.11673" lon="7.02892">
        <ele>1491.567673</ele>
        <time>2021-07-07T06:44:47.000Z</time>
      </trkpt>
      <trkpt lat="47.11633" lon="7.02839">
        <ele>1489.381103</ele>
        <time>2021-07-07T06:45:06.018Z</time>
      </trkpt>
      <trkpt lat="47.11588" lon="7.02807">
        <ele>1487.326731</ele>
        <time>2021-07-07T06:45:23.388Z</time>
      </trkpt>
      <trkpt lat="47.1155" lon="7.02732">
        <ele>1483.19816</ele>
        <time>2021-07-07T06:45:44.547Z</time>
      </trkpt>
      <trkpt lat="47.11503" lon="7.02707">
        <ele>1479.570103</ele>
        <time>2021-07-07T06:46:00.851Z</time>
      </trkpt>
      <trkpt lat="47.11373" lon="7.02542">
        <ele>1465.691125</ele>
        <time>2021-07-07T06:46:56.049Z</time>
      </trkpt>
      <trkpt lat="47.11334" lon="7.02508">
        <ele>1461.760654</ele>
        <time>2021-07-07T06:47:10.269Z</time>
      </trkpt>
      <trkpt lat="47.11293" lon="7.02455">
        <ele>1456.703416</ele>
        <time>2021-07-07T06:47:27.606Z</time>
      </trkpt>
      <trkpt lat="47.11265" lon="7.02437">
        <ele>1453.394792</ele>
        <time>2021-07-07T06:47:37.037Z</time>
      </trkpt>
      <trkpt lat="47.11156" lon="7.02271">
        <ele>1435.071272</ele>
        <time>2021-07-07T06:48:24.579Z</time>
      </trkpt>
      <trkpt lat="47.11119" lon="7.02232">
        <ele>1427.435315</ele>
        <time>2021-07-07T06:48:38.267Z</time>
      </trkpt>
      <trkpt lat="47.11111" lon="7.02192">
        <ele>1422.647158</ele>
        <time>2021-07-07T06:48:46.848Z</time>
      </trkpt>
      <trkpt lat="47.11067" lon="7.02173">
        <ele>1415.006407</ele>
        <time>2021-07-07T06:49:00.458Z</time>
      </trkpt>
      <trkpt lat="47.10959" lon="7.02094">
        <ele>1392.53218</ele>
        <time>2021-07-07T06:49:36.420Z</time>
      </trkpt>
      <trkpt lat="47.10926" lon="7.02108">
        <ele>1385.786355</ele>
        <time>2021-07-07T06:49:46.696Z</time>
      </trkpt>
      <trkpt lat="47.10918" lon="7.02109">
        <ele>1384.289536</ele>
        <time>2021-07-07T06:49:49.100Z</time>
      </trkpt>
      <trkpt lat="47.10908" lon="7.02106">
        <ele>1382.241892</ele>
        <time>2021-07-07T06:49:52.236Z</time>
      </trkpt>
      <trkpt lat="47.10875" lon="7.02056">
        <ele>1372.930198</ele>
        <time>2021-07-07T06:50:06.477Z</time>
      </trkpt>
      <trkpt lat="47.10869" lon="7.02035">
        <ele>1370.923028</ele>
        <time>2021-07-07T06:50:11.009Z</time>
      </trkpt>
      <trkpt lat="47.10867" lon="7.02001">
        <ele>1367.87158</ele>
        <time>2021-07-07T06:50:18.047Z</time>
      </trkpt>
      <trkpt lat="47.10861" lon="7.01984">
        <ele>1366.142874</ele>
        <time>2021-07-07T06:50:21.995Z</time>
      </trkpt>
      <trkpt lat="47.10742" lon="7.01872">
        <ele>1348.3899</ele>
        <time>2021-07-07T06:51:04.836Z</time>
      </trkpt>
      <trkpt lat="47.10725" lon="7.01855">
        <ele>1346.724472</ele>
        <time>2021-07-07T06:51:11.482Z</time>
      </trkpt>
      <trkpt lat="47.1069" lon="7.01827">
        <ele>1343.601534</ele>
        <time>2021-07-07T06:51:23.977Z</time>
      </trkpt>
      <trkpt lat="47.10666" lon="7.01825">
        <ele>1341.623101</ele>
        <time>2021-07-07T06:51:32.087Z</time>
      </trkpt>
      <trkpt lat="47.10652" lon="7.01804">
        <ele>1340.064228</ele>
        <time>2021-07-07T06:51:38.401Z</time>
      </trkpt>
      <trkpt lat="47.10644" lon="7.01781">
        <ele>1338.683373</ele>
        <time>2021-07-07T06:51:43.376Z</time>
      </trkpt>
      <trkpt lat="47.1061" lon="7.01757">
        <ele>1335.679744</ele>
        <time>2021-07-07T06:51:55.846Z</time>
      </trkpt>
      <trkpt lat="47.10584" lon="7.01715">
        <ele>1332.913648</ele>
        <time>2021-07-07T06:52:08.859Z</time>
      </trkpt>
      <trkpt lat="47.1051" lon="7.01664">
        <ele>1327.175855</ele>
        <time>2021-07-07T06:52:31.644Z</time>
      </trkpt>
      <trkpt lat="47.10491" lon="7.01647">
        <ele>1325.661932</ele>
        <time>2021-07-07T06:52:37.672Z</time>
      </trkpt>
      <trkpt lat="47.10453" lon="7.0163">
        <ele>1322.880235</ele>
        <time>2021-07-07T06:52:48.813Z</time>
      </trkpt>
      <trkpt lat="47.10415" lon="7.01629">
        <ele>1320.338761</ele>
        <time>2021-07-07T06:52:59.659Z</time>
      </trkpt>
      <trkpt lat="47.10412" lon="7.01628">
        <ele>1320.14774</ele>
        <time>2021-07-07T06:53:00.397Z</time>
      </trkpt>
      <trkpt lat="47.10401" lon="7.01619">
        <ele>1319.335435</ele>
        <time>2021-07-07T06:53:04.514Z</time>
      </trkpt>
      <trkpt lat="47.10383" lon="7.01599">
        <ele>1317.864425</ele>
        <time>2021-07-07T06:53:12.047Z</time>
      </trkpt>
      <trkpt lat="47.10356" lon="7.01533">
        <ele>1314.453676</ele>
        <time>2021-07-07T06:53:29.372Z</time>
      </trkpt>
      <trkpt lat="47.10333" lon="7.01494">
        <ele>1312.128574</ele>
        <time>2021-07-07T06:53:41.280Z</time>
      </trkpt>
      <trkpt lat="47.10313" lon="7.01295">
        <ele>1303.096857</ele>
        <time>2021-07-07T06:54:27.323Z</time>
      </trkpt>
      <trkpt lat="47.10274" lon="7.01185">
        <ele>1297.435576</ele>
        <time>2021-07-07T06:54:54.891Z</time>
      </trkpt>
      <trkpt lat="47.10249" lon="7.0116">
        <ele>1295.366377</ele>
        <time>2021-07-07T06:55:04.507Z</time>
      </trkpt>
      <trkpt lat="47.10215" lon="7.01098">
        <ele>1291.582948</ele>
        <time>2021-07-07T06:55:22.155Z</time>
      </trkpt>
      <trkpt lat="47.10189" lon="7.01072">
        <ele>1289.418721</ele>
        <time>2021-07-07T06:55:32.335Z</time>
      </trkpt>
      <trkpt lat="47.10161" lon="7.01021">
        <ele>1286.322391</ele>
        <time>2021-07-07T06:55:47.248Z</time>
      </trkpt>
      <trkpt lat="47.10072" lon="7.00905">
        <ele>1281.62519</ele>
        <time>2021-07-07T06:56:28.496Z</time>
      </trkpt>
      <trkpt lat="47.10034" lon="7.00834">
        <ele>1279.190997</ele>
        <time>2021-07-07T06:56:50.913Z</time>
      </trkpt>
      <trkpt lat="47.09987" lon="7.00768">
        <ele>1276.834146</ele>
        <time>2021-07-07T06:57:14.668Z</time>
      </trkpt>
      <trkpt lat="47.09945" lon="7.00719">
        <ele>1274.885995</ele>
        <time>2021-07-07T06:57:34.276Z</time>
      </trkpt>
      <trkpt lat="47.0993" lon="7.00696">
        <ele>1274.114779</ele>
        <time>2021-07-07T06:57:41.883Z</time>
      </trkpt>
      <trkpt lat="47.09908" lon="7.00644">
        <ele>1272.348638</ele>
        <time>2021-07-07T06:57:56.110Z</time>
      </trkpt>
      <trkpt lat="47.09834" lon="7.00556">
        <ele>1262.534491</ele>
        <time>2021-07-07T06:58:25.953Z</time>
      </trkpt>
      <trkpt lat="47.0982" lon="7.00543">
        <ele>1260.766076</ele>
        <time>2021-07-07T06:58:31.126Z</time>
      </trkpt>
      <trkpt lat="47.09751" lon="7.0051">
        <ele>1253.09784</ele>
        <time>2021-07-07T06:58:53.004Z</time>
      </trkpt>
      <trkpt lat="47.09738" lon="7.00512">
        <ele>1251.46829</ele>
        <time>2021-07-07T06:58:56.967Z</time>
      </trkpt>
      <trkpt lat="47.09724" lon="7.00532">
        <ele>1249.029684</ele>
        <time>2021-07-07T06:59:02.890Z</time>
      </trkpt>
      <trkpt lat="47.09717" lon="7.00533">
        <ele>1248.218579</ele>
        <time>2021-07-07T06:59:04.857Z</time>
      </trkpt>
      <trkpt lat="47.09678" lon="7.00502">
        <ele>1242.698523</ele>
        <time>2021-07-07T06:59:18.232Z</time>
      </trkpt>
      <trkpt lat="47.09659" lon="7.00508">
        <ele>1240.314396</ele>
        <time>2021-07-07T06:59:24.009Z</time>
      </trkpt>
      <trkpt lat="47.09642" lon="7.00546">
        <ele>1236.526366</ele>
        <time>2021-07-07T06:59:33.257Z</time>
      </trkpt>
      <trkpt lat="47.09628" lon="7.00622">
        <ele>1230.727134</ele>
        <time>2021-07-07T06:59:50.225Z</time>
      </trkpt>
      <trkpt lat="47.09613" lon="7.00663">
        <ele>1228.580847</ele>
        <time>2021-07-07T07:00:00.385Z</time>
      </trkpt>
      <trkpt lat="47.0959" lon="7.00641">
        <ele>1226.700327</ele>
        <time>2021-07-07T07:00:09.482Z</time>
      </trkpt>
      <trkpt lat="47.09547" lon="7.00565">
        <ele>1222.117883</ele>
        <time>2021-07-07T07:00:32.199Z</time>
      </trkpt>
      <trkpt lat="47.0952" lon="7.00508">
        <ele>1218.782212</ele>
        <time>2021-07-07T07:00:48.248Z</time>
      </trkpt>
      <trkpt lat="47.09518" lon="7.0049">
        <ele>1217.785256</ele>
        <time>2021-07-07T07:00:52.600Z</time>
      </trkpt>
      <trkpt lat="47.09529" lon="7.00425">
        <ele>1214.209637</ele>
        <time>2021-07-07T07:01:07.847Z</time>
      </trkpt>
      <trkpt lat="47.09528" lon="7.00377">
        <ele>1211.592166</ele>
        <time>2021-07-07T07:01:18.706Z</time>
      </trkpt>
      <trkpt lat="47.09505" lon="7.00288">
        <ele>1206.452947</ele>
        <time>2021-07-07T07:01:39.096Z</time>
      </trkpt>
      <trkpt lat="47.09504" lon="7.00186">
        <ele>1197.646734</ele>
        <time>2021-07-07T07:02:00.283Z</time>
      </trkpt>
      <trkpt lat="47.09501" lon="7.00172">
        <ele>1196.276903</ele>
        <time>2021-07-07T07:02:03.259Z</time>
      </trkpt>
      <trkpt lat="47.09405" lon="7.00048">
        <ele>1178.750793</ele>
        <time>2021-07-07T07:02:41.594Z</time>
      </trkpt>
      <trkpt lat="47.09369" lon="7.00046">
        <ele>1174.118723</ele>
        <time>2021-07-07T07:02:52.448Z</time>
      </trkpt>
      <trkpt lat="47.09359" lon="7.00038">
        <ele>1172.663555</ele>
        <time>2021-07-07T07:02:55.866Z</time>
      </trkpt>
      <trkpt lat="47.09327" lon="6.99976">
        <ele>1165.947749</ele>
        <time>2021-07-07T07:03:11.697Z</time>
      </trkpt>
      <trkpt lat="47.09312" lon="6.99965">
        <ele>1163.763708</ele>
        <time>2021-07-07T07:03:16.838Z</time>
      </trkpt>
      <trkpt lat="47.09299" lon="6.99944">
        <ele>1161.329465</ele>
        <time>2021-07-07T07:03:22.601Z</time>
      </trkpt>
      <trkpt lat="47.09289" lon="6.99914">
        <ele>1158.36013</ele>
        <time>2021-07-07T07:03:30.302Z</time>
      </trkpt>
      <trkpt lat="47.09278" lon="6.99909">
        <ele>1157.587889</ele>
        <time>2021-07-07T07:03:33.273Z</time>
      </trkpt>
      <trkpt lat="47.09208" lon="6.99835">
        <ele>1160.722767</ele>
        <time>2021-07-07T07:04:01.168Z</time>
      </trkpt>
      <trkpt lat="47.09194" lon="6.99815">
        <ele>1161.448252</ele>
        <time>2021-07-07T07:04:07.616Z</time>
      </trkpt>
      <trkpt lat="47.09186" lon="6.99842">
        <ele>1162.178548</ele>
        <time>2021-07-07T07:04:20.653Z</time>
      </trkpt>
      <trkpt lat="47.09168" lon="6.99857">
        <ele>1162.924438</ele>
        <time>2021-07-07T07:04:29.823Z</time>
      </trkpt>
      <trkpt lat="47.08942" lon="6.99895">
        <ele>1195.024712</ele>
        <time>2021-07-07T07:07:35.163Z</time>
      </trkpt>
      <trkpt lat="47.08884" lon="6.99878">
        <ele>1200.81323</ele>
        <time>2021-07-07T07:08:16.718Z</time>
      </trkpt>
      <trkpt lat="47.08775" lon="6.99799">
        <ele>1210.839357</ele>
        <time>2021-07-07T07:09:19.146Z</time>
      </trkpt>
      <trkpt lat="47.08664" lon="6.99674">
        <ele>1211.424407</ele>
        <time>2021-07-07T07:10:12.036Z</time>
      </trkpt>
      <trkpt lat="47.08494" lon="6.99556">
        <ele>1207.645964</ele>
        <time>2021-07-07T07:11:20.864Z</time>
      </trkpt>
      <trkpt lat="47.08327" lon="6.99475">
        <ele>1201.261402</ele>
        <time>2021-07-07T07:12:23.065Z</time>
      </trkpt>
      <trkpt lat="47.08235" lon="6.99413">
        <ele>1194.756648</ele>
        <time>2021-07-07T07:12:57.302Z</time>
      </trkpt>
      <trkpt lat="47.0809" lon="6.99344">
        <ele>1182.897212</ele>
        <time>2021-07-07T07:13:45.824Z</time>
      </trkpt>
      <trkpt lat="47.07912" lon="6.99204">
        <ele>1167.544988</ele>
        <time>2021-07-07T07:14:48.830Z</time>
      </trkpt>
      <trkpt lat="47.07899" lon="6.99194">
        <ele>1166.792662</ele>
        <time>2021-07-07T07:14:53.520Z</time>
      </trkpt>
      <trkpt lat="47.07831" lon="6.99232">
        <ele>1163.157984</ele>
        <time>2021-07-07T07:15:20.251Z</time>
      </trkpt>
      <trkpt lat="47.0779" lon="6.99231">
        <ele>1164.138525</ele>
        <time>2021-07-07T07:15:34.736Z</time>
      </trkpt>
      <trkpt lat="47.07758" lon="6.99231">
        <ele>1166.163215</ele>
        <time>2021-07-07T07:15:47.138Z</time>
      </trkpt>
      <trkpt lat="47.0774" lon="6.99228">
        <ele>1167.248985</ele>
        <time>2021-07-07T07:15:56.163Z</time>
      </trkpt>
      <trkpt lat="47.07712" lon="6.99214">
        <ele>1169.093123</ele>
        <time>2021-07-07T07:16:13.965Z</time>
      </trkpt>
      <trkpt lat="47.07679" lon="6.9919">
        <ele>1171.315163</ele>
        <time>2021-07-07T07:16:34.536Z</time>
      </trkpt>
      <trkpt lat="47.07633" lon="6.99168">
        <ele>1174.139209</ele>
        <time>2021-07-07T07:17:00.430Z</time>
      </trkpt>
      <trkpt lat="47.07588" lon="6.99148">
        <ele>1176.395117</ele>
        <time>2021-07-07T07:17:25.099Z</time>
      </trkpt>
      <trkpt lat="47.07562" lon="6.99123">
        <ele>1177.88651</ele>
        <time>2021-07-07T07:17:39.931Z</time>
      </trkpt>
      <trkpt lat="47.07535" lon="6.99077">
        <ele>1179.846327</ele>
        <time>2021-07-07T07:17:58.668Z</time>
      </trkpt>
      <trkpt lat="47.07509" lon="6.99046">
        <ele>1181.461186</ele>
        <time>2021-07-07T07:18:13.408Z</time>
      </trkpt>
      <trkpt lat="47.07449" lon="6.98981">
        <ele>1181.359622</ele>
        <time>2021-07-07T07:18:43.138Z</time>
      </trkpt>
      <trkpt lat="47.07342" lon="6.98924">
        <ele>1179.893661</ele>
        <time>2021-07-07T07:19:24.413Z</time>
      </trkpt>
      <trkpt lat="47.07301" lon="6.9886">
        <ele>1176.635267</ele>
        <time>2021-07-07T07:19:45.164Z</time>
      </trkpt>
      <trkpt lat="47.07189" lon="6.98748">
        <ele>1168.351293</ele>
        <time>2021-07-07T07:20:30.127Z</time>
      </trkpt>
      <trkpt lat="47.07057" lon="6.98681">
        <ele>1156.431166</ele>
        <time>2021-07-07T07:21:14.467Z</time>
      </trkpt>
      <trkpt lat="47.06985" lon="6.9863">
        <ele>1149.044715</ele>
        <time>2021-07-07T07:21:39.524Z</time>
      </trkpt>
      <trkpt lat="47.06975" lon="6.98624">
        <ele>1148.003111</ele>
        <time>2021-07-07T07:21:42.766Z</time>
      </trkpt>
      <trkpt lat="47.06949" lon="6.98609">
        <ele>1145.296875</ele>
        <time>2021-07-07T07:21:51.632Z</time>
      </trkpt>
      <trkpt lat="47.06892" lon="6.98595">
        <ele>1139.67474</ele>
        <time>2021-07-07T07:22:09.737Z</time>
      </trkpt>
      <trkpt lat="47.06774" lon="6.9855">
        <ele>1126.923591</ele>
        <time>2021-07-07T07:22:47.108Z</time>
      </trkpt>
      <trkpt lat="47.06745" lon="6.98512">
        <ele>1122.75583</ele>
        <time>2021-07-07T07:22:58.921Z</time>
      </trkpt>
      <trkpt lat="47.06679" lon="6.98471">
        <ele>1114.948634</ele>
        <time>2021-07-07T07:23:20.742Z</time>
      </trkpt>
      <trkpt lat="47.06643" lon="6.98429">
        <ele>1109.939755</ele>
        <time>2021-07-07T07:23:34.586Z</time>
      </trkpt>
      <trkpt lat="47.06555" lon="6.98342">
        <ele>1098.325426</ele>
        <time>2021-07-07T07:24:06.888Z</time>
      </trkpt>
      <trkpt lat="47.06499" lon="6.9831">
        <ele>1093.434444</ele>
        <time>2021-07-07T07:24:25.756Z</time>
      </trkpt>
      <trkpt lat="47.06478" lon="6.98275">
        <ele>1091.035648</ele>
        <time>2021-07-07T07:24:35.891Z</time>
      </trkpt>
      <trkpt lat="47.06433" lon="6.9826">
        <ele>1087.548561</ele>
        <time>2021-07-07T07:24:50.953Z</time>
      </trkpt>
      <trkpt lat="47.06395" lon="6.98248">
        <ele>1084.645207</ele>
        <time>2021-07-07T07:25:03.857Z</time>
      </trkpt>
      <trkpt lat="47.0637" lon="6.98225">
        <ele>1083.108181</ele>
        <time>2021-07-07T07:25:14.167Z</time>
      </trkpt>
      <trkpt lat="47.06349" lon="6.98184">
        <ele>1081.965481</ele>
        <time>2021-07-07T07:25:26.343Z</time>
      </trkpt>
      <trkpt lat="47.06115" lon="6.98109">
        <ele>1074.628557</ele>
        <time>2021-07-07T07:26:52.997Z</time>
      </trkpt>
      <trkpt lat="47.06085" lon="6.98075">
        <ele>1073.541038</ele>
        <time>2021-07-07T07:27:06.950Z</time>
      </trkpt>
      <trkpt lat="47.05942" lon="6.97993">
        <ele>1066.057734</ele>
        <time>2021-07-07T07:28:00.008Z</time>
      </trkpt>
      <trkpt lat="47.05913" lon="6.97954">
        <ele>1063.941317</ele>
        <time>2021-07-07T07:28:13.020Z</time>
      </trkpt>
      <trkpt lat="47.059" lon="6.97926">
        <ele>1062.584539</ele>
        <time>2021-07-07T07:28:20.199Z</time>
      </trkpt>
      <trkpt lat="47.05873" lon="6.9789">
        <ele>1059.474916</ele>
        <time>2021-07-07T07:28:30.413Z</time>
      </trkpt>
      <trkpt lat="47.05823" lon="6.97858">
        <ele>1054.891852</ele>
        <time>2021-07-07T07:28:45.309Z</time>
      </trkpt>
      <trkpt lat="47.05767" lon="6.9781">
        <ele>1049.481228</ele>
        <time>2021-07-07T07:29:02.447Z</time>
      </trkpt>
      <trkpt lat="47.05733" lon="6.97796">
        <ele>1046.521434</ele>
        <time>2021-07-07T07:29:12.009Z</time>
      </trkpt>
      <trkpt lat="47.05677" lon="6.97748">
        <ele>1041.037359</ele>
        <time>2021-07-07T07:29:29.740Z</time>
      </trkpt>
      <trkpt lat="47.05601" lon="6.97656">
        <ele>1032.710468</ele>
        <time>2021-07-07T07:29:56.497Z</time>
      </trkpt>
      <trkpt lat="47.05353" lon="6.97456">
        <ele>1009.986306</ele>
        <time>2021-07-07T07:31:13.925Z</time>
      </trkpt>
      <trkpt lat="47.05319" lon="6.97408">
        <ele>1006.254185</ele>
        <time>2021-07-07T07:31:26.865Z</time>
      </trkpt>
      <trkpt lat="47.05229" lon="6.97322">
        <ele>997.385505</ele>
        <time>2021-07-07T07:31:56.250Z</time>
      </trkpt>
      <trkpt lat="47.05164" lon="6.9724">
        <ele>990.131121</ele>
        <time>2021-07-07T07:32:19.558Z</time>
      </trkpt>
      <trkpt lat="47.05085" lon="6.97171">
        <ele>979.528283</ele>
        <time>2021-07-07T07:32:43.810Z</time>
      </trkpt>
      <trkpt lat="47.05014" lon="6.97077">
        <ele>968.000007</ele>
        <time>2021-07-07T07:33:08.178Z</time>
      </trkpt>
      <trkpt lat="47.04957" lon="6.96944">
        <ele>950.942358</ele>
        <time>2021-07-07T07:33:35.488Z</time>
      </trkpt>
      <trkpt lat="47.04846" lon="6.96721">
        <ele>920.893265</ele>
        <time>2021-07-07T07:34:23.431Z</time>
      </trkpt>
      <trkpt lat="47.0471" lon="6.96328">
        <ele>879.760168</ele>
        <time>2021-07-07T07:35:40.582Z</time>
      </trkpt>
      <trkpt lat="47.04672" lon="6.96247">
        <ele>872.268392</ele>
        <time>2021-07-07T07:35:57.983Z</time>
      </trkpt>
      <trkpt lat="47.04652" lon="6.96118">
        <ele>862.893845</ele>
        <time>2021-07-07T07:36:21.641Z</time>
      </trkpt>
      <trkpt lat="47.04604" lon="6.95984">
        <ele>854.321811</ele>
        <time>2021-07-07T07:36:49.842Z</time>
      </trkpt>
      <trkpt lat="47.046" lon="6.95969">
        <ele>853.401838</ele>
        <time>2021-07-07T07:36:52.706Z</time>
      </trkpt>
      <trkpt lat="47.04587" lon="6.95947">
        <ele>851.824471</ele>
        <time>2021-07-07T07:36:59.257Z</time>
      </trkpt>
      <trkpt lat="47.04567" lon="6.95913">
        <ele>849.664968</ele>
        <time>2021-07-07T07:37:09.469Z</time>
      </trkpt>
      <trkpt lat="47.04543" lon="6.95875">
        <ele>848.217572</ele>
        <time>2021-07-07T07:37:21.318Z</time>
      </trkpt>
      <trkpt lat="47.04532" lon="6.95866">
        <ele>847.678475</ele>
        <time>2021-07-07T07:37:25.228Z</time>
      </trkpt>
      <trkpt lat="47.04511" lon="6.95838">
        <ele>846.530907</ele>
        <time>2021-07-07T07:37:33.296Z</time>
      </trkpt>
      <trkpt lat="47.04443" lon="6.95706">
        <ele>842.529687</ele>
        <time>2021-07-07T07:38:07.909Z</time>
      </trkpt>
      <trkpt lat="47.04363" lon="6.95584">
        <ele>841.676609</ele>
        <time>2021-07-07T07:38:44.887Z</time>
      </trkpt>
      <trkpt lat="47.04335" lon="6.95544">
        <ele>841.386776</ele>
        <time>2021-07-07T07:38:58.099Z</time>
      </trkpt>
      <trkpt lat="47.04332" lon="6.95534">
        <ele>841.3464</ele>
        <time>2021-07-07T07:39:00.520Z</time>
      </trkpt>
      <trkpt lat="47.04321" lon="6.95498">
        <ele>841.501314</ele>
        <time>2021-07-07T07:39:09.633Z</time>
      </trkpt>
      <trkpt lat="47.04298" lon="6.95497">
        <ele>841.632932</ele>
        <time>2021-07-07T07:39:17.623Z</time>
      </trkpt>
      <trkpt lat="47.04269" lon="6.95467">
        <ele>841.833748</ele>
        <time>2021-07-07T07:39:29.506Z</time>
      </trkpt>
      <trkpt lat="47.0426" lon="6.95451">
        <ele>841.918064</ele>
        <time>2021-07-07T07:39:34.270Z</time>
      </trkpt>
      <trkpt lat="47.04217" lon="6.95356">
        <ele>842.363558</ele>
        <time>2021-07-07T07:40:00.650Z</time>
      </trkpt>
      <trkpt lat="47.04114" lon="6.9502">
        <ele>839.708438</ele>
        <time>2021-07-07T07:41:20.129Z</time>
      </trkpt>
      <trkpt lat="47.04035" lon="6.94907">
        <ele>838.425627</ele>
        <time>2021-07-07T07:41:55.200Z</time>
      </trkpt>
      <trkpt lat="47.04021" lon="6.94877">
        <ele>838.326287</ele>
        <time>2021-07-07T07:42:03.409Z</time>
      </trkpt>
      <trkpt lat="47.04007" lon="6.94825">
        <ele>838.185742</ele>
        <time>2021-07-07T07:42:15.700Z</time>
      </trkpt>
      <trkpt lat="47.03955" lon="6.94733">
        <ele>837.885742</ele>
        <time>2021-07-07T07:42:42.084Z</time>
      </trkpt>
      <trkpt lat="47.03943" lon="6.94702">
        <ele>837.795885</ele>
        <time>2021-07-07T07:42:50.057Z</time>
      </trkpt>
      <trkpt lat="47.03937" lon="6.94693">
        <ele>837.764706</ele>
        <time>2021-07-07T07:42:52.812Z</time>
      </trkpt>
      <trkpt lat="47.03897" lon="6.94603">
        <ele>837.848119</ele>
        <time>2021-07-07T07:43:16.884Z</time>
      </trkpt>
      <trkpt lat="47.03794" lon="6.94439">
        <ele>838.384237</ele>
        <time>2021-07-07T07:44:06.934Z</time>
      </trkpt>
      <trkpt lat="47.03736" lon="6.94332">
        <ele>839.231431</ele>
        <time>2021-07-07T07:44:38.393Z</time>
      </trkpt>
      <trkpt lat="47.03698" lon="6.9427">
        <ele>839.788552</ele>
        <time>2021-07-07T07:44:58.125Z</time>
      </trkpt>
      <trkpt lat="47.0369" lon="6.94251">
        <ele>839.977676</ele>
        <time>2021-07-07T07:45:03.377Z</time>
      </trkpt>
      <trkpt lat="47.03665" lon="6.94238">
        <ele>840.306356</ele>
        <time>2021-07-07T07:45:12.777Z</time>
      </trkpt>
      <trkpt lat="47.0365" lon="6.94217">
        <ele>840.55647</ele>
        <time>2021-07-07T07:45:19.848Z</time>
      </trkpt>
      <trkpt lat="47.03436" lon="6.93951">
        <ele>843.15165</ele>
        <time>2021-07-07T07:46:55.289Z</time>
      </trkpt>
      <trkpt lat="47.03359" lon="6.93848">
        <ele>841.953029</ele>
        <time>2021-07-07T07:47:28.533Z</time>
      </trkpt>
      <trkpt lat="47.03239" lon="6.93633">
        <ele>838.516551</ele>
        <time>2021-07-07T07:48:27.494Z</time>
      </trkpt>
      <trkpt lat="47.0305" lon="6.93312">
        <ele>831.536939</ele>
        <time>2021-07-07T07:49:57.026Z</time>
      </trkpt>
      <trkpt lat="47.0299" lon="6.93214">
        <ele>828.919858</ele>
        <time>2021-07-07T07:50:24.409Z</time>
      </trkpt>
      <trkpt lat="47.02969" lon="6.93176">
        <ele>827.953318</ele>
        <time>2021-07-07T07:50:34.454Z</time>
      </trkpt>
      <trkpt lat="47.02952" lon="6.93151">
        <ele>827.1833</ele>
        <time>2021-07-07T07:50:41.799Z</time>
      </trkpt>
      <trkpt lat="47.02794" lon="6.9292">
        <ele>818.432294</ele>
        <time>2021-07-07T07:51:48.270Z</time>
      </trkpt>
      <trkpt lat="47.02743" lon="6.92848">
        <ele>815.525433</ele>
        <time>2021-07-07T07:52:09.215Z</time>
      </trkpt>
      <trkpt lat="47.02671" lon="6.92746">
        <ele>811.694649</ele>
        <time>2021-07-07T07:52:39.059Z</time>
      </trkpt>
      <trkpt lat="47.02536" lon="6.92536">
        <ele>806.204375</ele>
        <time>2021-07-07T07:53:38.735Z</time>
      </trkpt>
      <trkpt lat="47.0249" lon="6.92423">
        <ele>804.987187</ele>
        <time>2021-07-07T07:54:07.691Z</time>
      </trkpt>
      <trkpt lat="47.02473" lon="6.92393">
        <ele>804.625715</ele>
        <time>2021-07-07T07:54:16.363Z</time>
      </trkpt>
      <trkpt lat="47.02433" lon="6.92346">
        <ele>804.365842</ele>
        <time>2021-07-07T07:54:33.121Z</time>
      </trkpt>
      <trkpt lat="47.02349" lon="6.92207">
        <ele>803.864577</ele>
        <time>2021-07-07T07:55:22.134Z</time>
      </trkpt>
      <trkpt lat="47.02266" lon="6.92085">
        <ele>799.118927</ele>
        <time>2021-07-07T07:56:04.183Z</time>
      </trkpt>
      <trkpt lat="47.02184" lon="6.91977">
        <ele>792.884273</ele>
        <time>2021-07-07T07:56:40.351Z</time>
      </trkpt>
      <trkpt lat="47.02208" lon="6.9199">
        <ele>790.833558</ele>
        <time>2021-07-07T07:56:48.378Z</time>
      </trkpt>
      <trkpt lat="47.02252" lon="6.92008">
        <ele>787.168302</ele>
        <time>2021-07-07T07:57:02.823Z</time>
      </trkpt>
      <trkpt lat="47.02279" lon="6.92009">
        <ele>785.00417</ele>
        <time>2021-07-07T07:57:11.415Z</time>
      </trkpt>
      <trkpt lat="47.02293" lon="6.92008">
        <ele>783.843834</ele>
        <time>2021-07-07T07:57:15.964Z</time>
      </trkpt>
      <trkpt lat="47.02303" lon="6.92">
        <ele>782.959097</ele>
        <time>2021-07-07T07:57:18.964Z</time>
      </trkpt>
      <trkpt lat="47.02302" lon="6.91981">
        <ele>781.916914</ele>
        <time>2021-07-07T07:57:23.187Z</time>
      </trkpt>
      <trkpt lat="47.02282" lon="6.91939">
        <ele>780.22187</ele>
        <time>2021-07-07T07:57:34.439Z</time>
      </trkpt>
      <trkpt lat="47.02247" lon="6.91899">
        <ele>778.211449</ele>
        <time>2021-07-07T07:57:49.608Z</time>
      </trkpt>
      <trkpt lat="47.02225" lon="6.91882">
        <ele>777.113263</ele>
        <time>2021-07-07T07:57:58.204Z</time>
      </trkpt>
      <trkpt lat="47.02213" lon="6.91852">
        <ele>776.056837</ele>
        <time>2021-07-07T07:58:06.287Z</time>
      </trkpt>
      <trkpt lat="47.0219" lon="6.91832">
        <ele>774.876891</ele>
        <time>2021-07-07T07:58:16.054Z</time>
      </trkpt>
      <trkpt lat="47.02166" lon="6.9183">
        <ele>773.812587</ele>
        <time>2021-07-07T07:58:25.220Z</time>
      </trkpt>
      <trkpt lat="47.02145" lon="6.91816">
        <ele>773.41368</ele>
        <time>2021-07-07T07:58:33.967Z</time>
      </trkpt>
      <trkpt lat="47.02108" lon="6.91776">
        <ele>772.965877</ele>
        <time>2021-07-07T07:58:51.671Z</time>
      </trkpt>
      <trkpt lat="47.02086" lon="6.91766">
        <ele>772.746816</ele>
        <time>2021-07-07T07:59:00.313Z</time>
      </trkpt>
      <trkpt lat="47.02069" lon="6.91743">
        <ele>772.5225</ele>
        <time>2021-07-07T07:59:09.092Z</time>
      </trkpt>
      <trkpt lat="47.02027" lon="6.91714">
        <ele>772.069272</ele>
        <time>2021-07-07T07:59:26.761Z</time>
      </trkpt>
      <trkpt lat="47.0201" lon="6.91688">
        <ele>771.79223</ele>
        <time>2021-07-07T07:59:35.736Z</time>
      </trkpt>
      <trkpt lat="47.01969" lon="6.91656">
        <ele>770.075478</ele>
        <time>2021-07-07T07:59:52.855Z</time>
      </trkpt>
      <trkpt lat="47.01934" lon="6.91605">
        <ele>768.282125</ele>
        <time>2021-07-07T08:00:10.377Z</time>
      </trkpt>
      <trkpt lat="47.01865" lon="6.91563">
        <ele>765.548348</ele>
        <time>2021-07-07T08:00:36.164Z</time>
      </trkpt>
      <trkpt lat="47.01847" lon="6.91543">
        <ele>763.930953</ele>
        <time>2021-07-07T08:00:43.935Z</time>
      </trkpt>
      <trkpt lat="47.01806" lon="6.91458">
        <ele>757.645663</ele>
        <time>2021-07-07T08:01:06.730Z</time>
      </trkpt>
      <trkpt lat="47.01815" lon="6.91427">
        <ele>755.58554</ele>
        <time>2021-07-07T08:01:13.977Z</time>
      </trkpt>
      <trkpt lat="47.01774" lon="6.91381">
        <ele>750.993783</ele>
        <time>2021-07-07T08:01:29.868Z</time>
      </trkpt>
      <trkpt lat="47.0175" lon="6.91323">
        <ele>745.462304</ele>
        <time>2021-07-07T08:01:43.895Z</time>
      </trkpt>
      <trkpt lat="47.01735" lon="6.9126">
        <ele>738.938677</ele>
        <time>2021-07-07T08:01:57.773Z</time>
      </trkpt>
      <trkpt lat="47.0174" lon="6.91228">
        <ele>735.759846</ele>
        <time>2021-07-07T08:02:04.520Z</time>
      </trkpt>
      <trkpt lat="47.0174" lon="6.91161">
        <ele>729.275323</ele>
        <time>2021-07-07T08:02:18.178Z</time>
      </trkpt>
      <trkpt lat="47.01724" lon="6.91132">
        <ele>725.636828</ele>
        <time>2021-07-07T08:02:25.844Z</time>
      </trkpt>
      <trkpt lat="47.01716" lon="6.91101">
        <ele>722.017376</ele>
        <time>2021-07-07T08:02:32.534Z</time>
      </trkpt>
      <trkpt lat="47.01699" lon="6.91073">
        <ele>717.000688</ele>
        <time>2021-07-07T08:02:40.248Z</time>
      </trkpt>
      <trkpt lat="47.01692" lon="6.91038">
        <ele>712.132142</ele>
        <time>2021-07-07T08:02:47.738Z</time>
      </trkpt>
      <trkpt lat="47.01686" lon="6.91023">
        <ele>709.737174</ele>
        <time>2021-07-07T08:02:51.394Z</time>
      </trkpt>
      <trkpt lat="47.01681" lon="6.9101">
        <ele>707.804994</ele>
        <time>2021-07-07T08:02:54.337Z</time>
      </trkpt>
      <trkpt lat="47.01647" lon="6.90955">
        <ele>697.940815</ele>
        <time>2021-07-07T08:03:09.273Z</time>
      </trkpt>
      <trkpt lat="47.01636" lon="6.90927">
        <ele>693.588013</ele>
        <time>2021-07-07T08:03:15.896Z</time>
      </trkpt>
      <trkpt lat="47.01635" lon="6.90891">
        <ele>688.888169</ele>
        <time>2021-07-07T08:03:23.108Z</time>
      </trkpt>
      <trkpt lat="47.01619" lon="6.90865">
        <ele>684.926452</ele>
        <time>2021-07-07T08:03:30.455Z</time>
      </trkpt>
      <trkpt lat="47.01612" lon="6.90833">
        <ele>681.386708</ele>
        <time>2021-07-07T08:03:37.212Z</time>
      </trkpt>
      <trkpt lat="47.01607" lon="6.9081">
        <ele>678.82223</ele>
        <time>2021-07-07T08:03:42.092Z</time>
      </trkpt>
      <trkpt lat="47.01613" lon="6.90797">
        <ele>677.247494</ele>
        <time>2021-07-07T08:03:45.133Z</time>
      </trkpt>
      <trkpt lat="47.01624" lon="6.90767">
        <ele>673.621444</ele>
        <time>2021-07-07T08:03:52.102Z</time>
      </trkpt>
      <trkpt lat="47.01649" lon="6.90723">
        <ele>667.397071</ele>
        <time>2021-07-07T08:04:04.116Z</time>
      </trkpt>
      <trkpt lat="47.01645" lon="6.90716">
        <ele>666.485603</ele>
        <time>2021-07-07T08:04:05.616Z</time>
      </trkpt>
      <trkpt lat="47.01636" lon="6.90703">
        <ele>664.457153</ele>
        <time>2021-07-07T08:04:09.169Z</time>
      </trkpt>
      <trkpt lat="47.0163" lon="6.90696">
        <ele>663.323939</ele>
        <time>2021-07-07T08:04:11.027Z</time>
      </trkpt>
      <trkpt lat="47.01621" lon="6.90688">
        <ele>661.578599</ele>
        <time>2021-07-07T08:04:13.880Z</time>
      </trkpt>
      <trkpt lat="47.01615" lon="6.90685">
        <ele>660.592705</ele>
        <time>2021-07-07T08:04:15.585Z</time>
      </trkpt>
      <trkpt lat="47.01609" lon="6.90682">
        <ele>660.367343</ele>
        <time>2021-07-07T08:04:17.366Z</time>
      </trkpt>
      <trkpt lat="47.01604" lon="6.90678">
        <ele>660.418645</ele>
        <time>2021-07-07T08:04:18.922Z</time>
      </trkpt>
      <trkpt lat="47.01603" lon="6.9067">
        <ele>660.467839</ele>
        <time>2021-07-07T08:04:20.282Z</time>
      </trkpt>
      <trkpt lat="47.01606" lon="6.90659">
        <ele>660.537953</ele>
        <time>2021-07-07T08:04:22.228Z</time>
      </trkpt>
      <trkpt lat="47.01608" lon="6.90659">
        <ele>660.558272</ele>
        <time>2021-07-07T08:04:22.772Z</time>
      </trkpt>
      <trkpt lat="47.01611" lon="6.90652">
        <ele>660.611862</ele>
        <time>2021-07-07T08:04:24.396Z</time>
      </trkpt>
      <trkpt lat="47.0161" lon="6.90649">
        <ele>660.630945</ele>
        <time>2021-07-07T08:04:24.982Z</time>
      </trkpt>
      <trkpt lat="47.01617" lon="6.90642">
        <ele>660.705802</ele>
        <time>2021-07-07T08:04:27.481Z</time>
      </trkpt>
      <trkpt lat="47.01641" lon="6.90597">
        <ele>661.068421</ele>
        <time>2021-07-07T08:04:40.416Z</time>
      </trkpt>
      <trkpt lat="47.01603" lon="6.90553">
        <ele>661.51178</ele>
        <time>2021-07-07T08:04:59.812Z</time>
      </trkpt>
      <trkpt lat="47.01643" lon="6.905">
        <ele>662.307534</ele>
        <time>2021-07-07T08:05:27.969Z</time>
      </trkpt>
      <trkpt lat="47.01656" lon="6.90479">
        <ele>664.548845</ele>
        <time>2021-07-07T08:05:39.515Z</time>
      </trkpt>
      <trkpt lat="47.0165" lon="6.90472">
        <ele>665.448427</ele>
        <time>2021-07-07T08:05:43.444Z</time>
      </trkpt>
      <trkpt lat="47.01634" lon="6.90452">
        <ele>667.915485</ele>
        <time>2021-07-07T08:05:54.207Z</time>
      </trkpt>
      <trkpt lat="47.01623" lon="6.90437">
        <ele>669.672517</ele>
        <time>2021-07-07T08:06:03.294Z</time>
      </trkpt>
      <trkpt lat="47.01608" lon="6.904">
        <ele>673.067698</ele>
        <time>2021-07-07T08:06:21.148Z</time>
      </trkpt>
      <trkpt lat="47.01577" lon="6.90359">
        <ele>677.913674</ele>
        <time>2021-07-07T08:06:52.094Z</time>
      </trkpt>
      <trkpt lat="47.01558" lon="6.90357">
        <ele>680.112646</ele>
        <time>2021-07-07T08:07:05.323Z</time>
      </trkpt>
      <trkpt lat="47.01546" lon="6.90356">
        <ele>681.54506</ele>
        <time>2021-07-07T08:07:16.043Z</time>
      </trkpt>
      <trkpt lat="47.01517" lon="6.90359">
        <ele>685.352567</ele>
        <time>2021-07-07T08:07:33.312Z</time>
      </trkpt>
      <trkpt lat="47.01507" lon="6.90342">
        <ele>687.510694</ele>
        <time>2021-07-07T08:07:44.155Z</time>
      </trkpt>
      <trkpt lat="47.01491" lon="6.90299">
        <ele>692.212214</ele>
        <time>2021-07-07T08:08:04.491Z</time>
      </trkpt>
      <trkpt lat="47.01487" lon="6.90277">
        <ele>694.435232</ele>
        <time>2021-07-07T08:08:13.348Z</time>
      </trkpt>
      <trkpt lat="47.01477" lon="6.90252">
        <ele>697.250896</ele>
        <time>2021-07-07T08:08:28.227Z</time>
      </trkpt>
      <trkpt lat="47.01421" lon="6.90176">
        <ele>708.172536</ele>
        <time>2021-07-07T08:09:24.278Z</time>
      </trkpt>
      <trkpt lat="47.01376" lon="6.90125">
        <ele>714.290651</ele>
        <time>2021-07-07T08:10:04.610Z</time>
      </trkpt>
      <trkpt lat="47.0134" lon="6.90055">
        <ele>720.601045</ele>
        <time>2021-07-07T08:10:40.641Z</time>
      </trkpt>
      <trkpt lat="47.01285" lon="6.89968">
        <ele>728.841314</ele>
        <time>2021-07-07T08:11:26.645Z</time>
      </trkpt>
      <trkpt lat="47.0124" lon="6.8984">
        <ele>736.993086</ele>
        <time>2021-07-07T08:12:19.508Z</time>
      </trkpt>
      <trkpt lat="47.01193" lon="6.89728">
        <ele>744.442166</ele>
        <time>2021-07-07T08:13:10.446Z</time>
      </trkpt>
      <trkpt lat="47.01181" lon="6.89682">
        <ele>747.249726</ele>
        <time>2021-07-07T08:13:30.923Z</time>
      </trkpt>
      <trkpt lat="47.01123" lon="6.89491">
        <ele>758.329423</ele>
        <time>2021-07-07T08:14:49.740Z</time>
      </trkpt>
      <trkpt lat="47.01086" lon="6.89371">
        <ele>762.186271</ele>
        <time>2021-07-07T08:15:32.716Z</time>
      </trkpt>
      <trkpt lat="47.00937" lon="6.88929">
        <ele>770.596713</ele>
        <time>2021-07-07T08:17:49.808Z</time>
      </trkpt>
      <trkpt lat="47.009" lon="6.88786">
        <ele>774.001318</ele>
        <time>2021-07-07T08:18:38.156Z</time>
      </trkpt>
      <trkpt lat="47.00883" lon="6.88723">
        <ele>776.086113</ele>
        <time>2021-07-07T08:19:00.097Z</time>
      </trkpt>
      <trkpt lat="47.00875" lon="6.88694">
        <ele>777.016014</ele>
        <time>2021-07-07T08:19:08.626Z</time>
      </trkpt>
      <trkpt lat="47.00815" lon="6.88478">
        <ele>782.828544</ele>
        <time>2021-07-07T08:20:10.560Z</time>
      </trkpt>
      <trkpt lat="47.0078" lon="6.88387">
        <ele>784.341832</ele>
        <time>2021-07-07T08:20:35.104Z</time>
      </trkpt>
      <trkpt lat="47.00708" lon="6.88245">
        <ele>787.065655</ele>
        <time>2021-07-07T08:21:15.633Z</time>
      </trkpt>
      <trkpt lat="47.00692" lon="6.88183">
        <ele>788.140677</ele>
        <time>2021-07-07T08:21:31.920Z</time>
      </trkpt>
      <trkpt lat="47.00674" lon="6.88149">
        <ele>788.829714</ele>
        <time>2021-07-07T08:21:42.590Z</time>
      </trkpt>
      <trkpt lat="47.00555" lon="6.88081">
        <ele>794.714909</ele>
        <time>2021-07-07T08:22:42.451Z</time>
      </trkpt>
      <trkpt lat="47.00513" lon="6.88115">
        <ele>797.283335</ele>
        <time>2021-07-07T08:23:02.810Z</time>
      </trkpt>
      <trkpt lat="47.00489" lon="6.88135">
        <ele>798.797436</ele>
        <time>2021-07-07T08:23:14.780Z</time>
      </trkpt>
      <trkpt lat="47.00473" lon="6.88147">
        <ele>799.741423</ele>
        <time>2021-07-07T08:23:24.337Z</time>
      </trkpt>
      <trkpt lat="47.00399" lon="6.88189">
        <ele>803.461245</ele>
        <time>2021-07-07T08:24:02.998Z</time>
      </trkpt>
      <trkpt lat="47.00317" lon="6.88222">
        <ele>807.389318</ele>
        <time>2021-07-07T08:24:41.386Z</time>
      </trkpt>
      <trkpt lat="47.00284" lon="6.88109">
        <ele>808.345255</ele>
        <time>2021-07-07T08:25:10.850Z</time>
      </trkpt>
      <trkpt lat="47.00261" lon="6.88021">
        <ele>808.762563</ele>
        <time>2021-07-07T08:25:32.004Z</time>
      </trkpt>
      <trkpt lat="47.00269" lon="6.87984">
        <ele>808.93316</ele>
        <time>2021-07-07T08:25:40.361Z</time>
      </trkpt>
      <trkpt lat="47.00219" lon="6.8801">
        <ele>808.190141</ele>
        <time>2021-07-07T08:26:00.014Z</time>
      </trkpt>
      <trkpt lat="47.00194" lon="6.88028">
        <ele>807.559997</ele>
        <time>2021-07-07T08:26:10.092Z</time>
      </trkpt>
      <trkpt lat="47.00166" lon="6.88025">
        <ele>806.920007</ele>
        <time>2021-07-07T08:26:20.232Z</time>
      </trkpt>
      <trkpt lat="47.00109" lon="6.88003">
        <ele>805.551986</ele>
        <time>2021-07-07T08:26:41.760Z</time>
      </trkpt>
      <trkpt lat="47.00023" lon="6.8801">
        <ele>803.232454</ele>
        <time>2021-07-07T08:27:12.323Z</time>
      </trkpt>
      <trkpt lat="46.99985" lon="6.87987">
        <ele>802.03795</ele>
        <time>2021-07-07T08:27:27.005Z</time>
      </trkpt>
      <trkpt lat="46.99978" lon="6.87963">
        <ele>801.521095</ele>
        <time>2021-07-07T08:27:32.516Z</time>
      </trkpt>
      <trkpt lat="46.99976" lon="6.87959">
        <ele>801.422804</ele>
        <time>2021-07-07T08:27:33.565Z</time>
      </trkpt>
      <trkpt lat="46.9997" lon="6.87942">
        <ele>801.04296</ele>
        <time>2021-07-07T08:27:38.151Z</time>
      </trkpt>
      <trkpt lat="46.99918" lon="6.87847">
        <ele>798.662085</ele>
        <time>2021-07-07T08:28:08.256Z</time>
      </trkpt>
      <trkpt lat="46.99854" lon="6.87759">
        <ele>796.229224</ele>
        <time>2021-07-07T08:28:39.626Z</time>
      </trkpt>
      <trkpt lat="46.99822" lon="6.87685">
        <ele>794.525899</ele>
        <time>2021-07-07T08:29:01.532Z</time>
      </trkpt>
      <trkpt lat="46.99805" lon="6.87649">
        <ele>793.53244</ele>
        <time>2021-07-07T08:29:12.075Z</time>
      </trkpt>
      <trkpt lat="46.99801" lon="6.8764">
        <ele>793.294874</ele>
        <time>2021-07-07T08:29:14.584Z</time>
      </trkpt>
      <trkpt lat="46.99788" lon="6.87638">
        <ele>792.870851</ele>
        <time>2021-07-07T08:29:19.108Z</time>
      </trkpt>
      <trkpt lat="46.99714" lon="6.87657">
        <ele>790.386727</ele>
        <time>2021-07-07T08:29:45.333Z</time>
      </trkpt>
      <trkpt lat="46.99687" lon="6.87647">
        <ele>789.444253</ele>
        <time>2021-07-07T08:29:55.503Z</time>
      </trkpt>
      <trkpt lat="46.99667" lon="6.87623">
        <ele>788.657971</ele>
        <time>2021-07-07T08:30:04.603Z</time>
      </trkpt>
      <trkpt lat="46.99651" lon="6.8757">
        <ele>788.286475</ele>
        <time>2021-07-07T08:30:18.962Z</time>
      </trkpt>
      <trkpt lat="46.99648" lon="6.87535">
        <ele>788.056076</ele>
        <time>2021-07-07T08:30:27.863Z</time>
      </trkpt>
      <trkpt lat="46.99644" lon="6.87493">
        <ele>787.782441</ele>
        <time>2021-07-07T08:30:38.701Z</time>
      </trkpt>
      <trkpt lat="46.9961" lon="6.87306">
        <ele>787.438818</ele>
        <time>2021-07-07T08:31:29.993Z</time>
      </trkpt>
      <trkpt lat="46.9959" lon="6.8725">
        <ele>787.868588</ele>
        <time>2021-07-07T08:31:47.995Z</time>
      </trkpt>
      <trkpt lat="46.99567" lon="6.87159">
        <ele>788.521228</ele>
        <time>2021-07-07T08:32:14.779Z</time>
      </trkpt>
      <trkpt lat="46.99565" lon="6.87109">
        <ele>788.58864</ele>
        <time>2021-07-07T08:32:28.250Z</time>
      </trkpt>
      <trkpt lat="46.99559" lon="6.87081">
        <ele>788.274591</ele>
        <time>2021-07-07T08:32:36.540Z</time>
      </trkpt>
      <trkpt lat="46.9956" lon="6.87041">
        <ele>787.855037</ele>
        <time>2021-07-07T08:32:47.306Z</time>
      </trkpt>
      <trkpt lat="46.99544" lon="6.86912">
        <ele>786.487988</ele>
        <time>2021-07-07T08:33:20.065Z</time>
      </trkpt>
      <trkpt lat="46.9953" lon="6.8689">
        <ele>786.175707</ele>
        <time>2021-07-07T08:33:27.278Z</time>
      </trkpt>
      <trkpt lat="46.99526" lon="6.86825">
        <ele>784.39934</ele>
        <time>2021-07-07T08:33:42.792Z</time>
      </trkpt>
      <trkpt lat="46.99505" lon="6.86777">
        <ele>782.489507</ele>
        <time>2021-07-07T08:33:56.143Z</time>
      </trkpt>
      <trkpt lat="46.99495" lon="6.86736">
        <ele>781.044833</ele>
        <time>2021-07-07T08:34:06.113Z</time>
      </trkpt>
      <trkpt lat="46.99495" lon="6.86671">
        <ele>778.864117</ele>
        <time>2021-07-07T08:34:18.962Z</time>
      </trkpt>
      <trkpt lat="46.99482" lon="6.86604">
        <ele>777.104359</ele>
        <time>2021-07-07T08:34:34.838Z</time>
      </trkpt>
      <trkpt lat="46.99475" lon="6.86519">
        <ele>776.730294</ele>
        <time>2021-07-07T08:34:55.811Z</time>
      </trkpt>
      <trkpt lat="46.99457" lon="6.86479">
        <ele>776.52305</ele>
        <time>2021-07-07T08:35:08.304Z</time>
      </trkpt>
      <trkpt lat="46.99452" lon="6.86445">
        <ele>776.371888</ele>
        <time>2021-07-07T08:35:17.626Z</time>
      </trkpt>
      <trkpt lat="46.99448" lon="6.86413">
        <ele>776.230594</ele>
        <time>2021-07-07T08:35:26.938Z</time>
      </trkpt>
      <trkpt lat="46.99453" lon="6.86385">
        <ele>776.102984</ele>
        <time>2021-07-07T08:35:36.270Z</time>
      </trkpt>
      <trkpt lat="46.99473" lon="6.8624">
        <ele>777.123497</ele>
        <time>2021-07-07T08:36:19.720Z</time>
      </trkpt>
      <trkpt lat="46.99477" lon="6.8622">
        <ele>777.291293</ele>
        <time>2021-07-07T08:36:25.452Z</time>
      </trkpt>
      <trkpt lat="46.9948" lon="6.86219">
        <ele>777.327043</ele>
        <time>2021-07-07T08:36:26.484Z</time>
      </trkpt>
      <trkpt lat="46.99485" lon="6.86207">
        <ele>777.445376</ele>
        <time>2021-07-07T08:36:29.732Z</time>
      </trkpt>
      <trkpt lat="46.99492" lon="6.86197">
        <ele>777.564673</ele>
        <time>2021-07-07T08:36:33.200Z</time>
      </trkpt>
      <trkpt lat="46.99497" lon="6.86181">
        <ele>777.701026</ele>
        <time>2021-07-07T08:36:37.015Z</time>
      </trkpt>
      <trkpt lat="46.99503" lon="6.86168">
        <ele>777.839647</ele>
        <time>2021-07-07T08:36:40.885Z</time>
      </trkpt>
      <trkpt lat="46.99476" lon="6.86129">
        <ele>777.700244</ele>
        <time>2021-07-07T08:36:55.070Z</time>
      </trkpt>
      <trkpt lat="46.99436" lon="6.86102">
        <ele>775.214389</ele>
        <time>2021-07-07T08:37:10.695Z</time>
      </trkpt>
      <trkpt lat="46.99397" lon="6.86052">
        <ele>772.252569</ele>
        <time>2021-07-07T08:37:28.469Z</time>
      </trkpt>
      <trkpt lat="46.99378" lon="6.86023">
        <ele>770.658211</ele>
        <time>2021-07-07T08:37:37.573Z</time>
      </trkpt>
      <trkpt lat="46.9931" lon="6.85877">
        <ele>759.664549</ele>
        <time>2021-07-07T08:38:14.985Z</time>
      </trkpt>
      <trkpt lat="46.99267" lon="6.85753">
        <ele>748.777401</ele>
        <time>2021-07-07T08:38:43.733Z</time>
      </trkpt>
      <trkpt lat="46.99255" lon="6.85737">
        <ele>746.938461</ele>
        <time>2021-07-07T08:38:48.736Z</time>
      </trkpt>
      <trkpt lat="46.99233" lon="6.85731">
        <ele>744.808708</ele>
        <time>2021-07-07T08:38:55.317Z</time>
      </trkpt>
      <trkpt lat="46.99184" lon="6.8576">
        <ele>739.665109</ele>
        <time>2021-07-07T08:39:11.202Z</time>
      </trkpt>
      <trkpt lat="46.99159" lon="6.85783">
        <ele>736.702776</ele>
        <time>2021-07-07T08:39:20.448Z</time>
      </trkpt>
      <trkpt lat="46.9916" lon="6.85775">
        <ele>736.165154</ele>
        <time>2021-07-07T08:39:21.883Z</time>
      </trkpt>
      <trkpt lat="46.99171" lon="6.85677">
        <ele>729.64844</ele>
        <time>2021-07-07T08:39:40.351Z</time>
      </trkpt>
      <trkpt lat="46.99215" lon="6.85522">
        <ele>726.150118</ele>
        <time>2021-07-07T08:40:16.017Z</time>
      </trkpt>
      <trkpt lat="46.99212" lon="6.85424">
        <ele>724.086369</ele>
        <time>2021-07-07T08:40:36.845Z</time>
      </trkpt>
      <trkpt lat="46.99211" lon="6.85404">
        <ele>723.584429</ele>
        <time>2021-07-07T08:40:41.149Z</time>
      </trkpt>
      <trkpt lat="46.99214" lon="6.8538">
        <ele>722.989287</ele>
        <time>2021-07-07T08:40:46.180Z</time>
      </trkpt>
      <trkpt lat="46.99214" lon="6.8536">
        <ele>722.497811</ele>
        <time>2021-07-07T08:40:50.461Z</time>
      </trkpt>
      <trkpt lat="46.99209" lon="6.85366">
        <ele>722.263465</ele>
        <time>2021-07-07T08:40:52.403Z</time>
      </trkpt>
      <trkpt lat="46.99205" lon="6.85369">
        <ele>722.098107</ele>
        <time>2021-07-07T08:40:53.746Z</time>
      </trkpt>
      <trkpt lat="46.992" lon="6.85341">
        <ele>721.378229</ele>
        <time>2021-07-07T08:41:01.039Z</time>
      </trkpt>
      <trkpt lat="46.99198" lon="6.85323">
        <ele>720.919176</ele>
        <time>2021-07-07T08:41:05.566Z</time>
      </trkpt>
      <trkpt lat="46.9919" lon="6.85333">
        <ele>720.53265</ele>
        <time>2021-07-07T08:41:08.765Z</time>
      </trkpt>
      <trkpt lat="46.99119" lon="6.85411">
        <ele>717.191332</ele>
        <time>2021-07-07T08:41:34.981Z</time>
      </trkpt>
      <trkpt lat="46.99069" lon="6.85445">
        <ele>714.55726</ele>
        <time>2021-07-07T08:41:50.769Z</time>
      </trkpt>
      <trkpt lat="46.99044" lon="6.85461">
        <ele>713.223738</ele>
        <time>2021-07-07T08:41:59.045Z</time>
      </trkpt>
      <trkpt lat="46.9903" lon="6.85463">
        <ele>712.584802</ele>
        <time>2021-07-07T08:42:02.874Z</time>
      </trkpt>
      <trkpt lat="46.99018" lon="6.85455">
        <ele>711.950274</ele>
        <time>2021-07-07T08:42:06.837Z</time>
      </trkpt>
      <trkpt lat="46.98973" lon="6.85389">
        <ele>708.976846</ele>
        <time>2021-07-07T08:42:25.581Z</time>
      </trkpt>
      <trkpt lat="46.98943" lon="6.85356">
        <ele>707.962869</ele>
        <time>2021-07-07T08:42:36.381Z</time>
      </trkpt>
      <trkpt lat="46.98931" lon="6.85329">
        <ele>707.362948</ele>
        <time>2021-07-07T08:42:42.881Z</time>
      </trkpt>
      <trkpt lat="46.98902" lon="6.85202">
        <ele>704.88835</ele>
        <time>2021-07-07T08:43:11.269Z</time>
      </trkpt>
      <trkpt lat="46.98887" lon="6.85186">
        <ele>704.387873</ele>
        <time>2021-07-07T08:43:17.126Z</time>
      </trkpt>
      <trkpt lat="46.98881" lon="6.85174">
        <ele>704.302396</ele>
        <time>2021-07-07T08:43:20.700Z</time>
      </trkpt>
      <trkpt lat="46.98878" lon="6.85159">
        <ele>704.496815</ele>
        <time>2021-07-07T08:43:24.290Z</time>
      </trkpt>
      <trkpt lat="46.98875" lon="6.85143">
        <ele>704.687283</ele>
        <time>2021-07-07T08:43:27.722Z</time>
      </trkpt>
      <trkpt lat="46.98874" lon="6.85125">
        <ele>704.907965</ele>
        <time>2021-07-07T08:43:32.010Z</time>
      </trkpt>
      <trkpt lat="46.98873" lon="6.8511">
        <ele>705.099418</ele>
        <time>2021-07-07T08:43:35.652Z</time>
      </trkpt>
      <trkpt lat="46.98884" lon="6.85064">
        <ele>705.692035</ele>
        <time>2021-07-07T08:43:47.079Z</time>
      </trkpt>
      <trkpt lat="46.9887" lon="6.85027">
        <ele>706.207934</ele>
        <time>2021-07-07T08:43:57.257Z</time>
      </trkpt>
      <trkpt lat="46.98859" lon="6.85015">
        <ele>706.45639</ele>
        <time>2021-07-07T08:44:02.296Z</time>
      </trkpt>
      <trkpt lat="46.98847" lon="6.85003">
        <ele>706.70772</ele>
        <time>2021-07-07T08:44:07.344Z</time>
      </trkpt>
      <trkpt lat="46.98835" lon="6.84986">
        <ele>707.011048</ele>
        <time>2021-07-07T08:44:13.844Z</time>
      </trkpt>
      <trkpt lat="46.98795" lon="6.84958">
        <ele>708.016592</ele>
        <time>2021-07-07T08:44:30.805Z</time>
      </trkpt>
      <trkpt lat="46.98783" lon="6.84921">
        <ele>708.810671</ele>
        <time>2021-07-07T08:44:41.274Z</time>
      </trkpt>
      <trkpt lat="46.9878" lon="6.84857">
        <ele>710.052759</ele>
        <time>2021-07-07T08:44:57.961Z</time>
      </trkpt>
      <trkpt lat="46.98769" lon="6.84805">
        <ele>711.114836</ele>
        <time>2021-07-07T08:45:11.968Z</time>
      </trkpt>
      <trkpt lat="46.98761" lon="6.84719">
        <ele>712.106933</ele>
        <time>2021-07-07T08:45:33.171Z</time>
      </trkpt>
      <trkpt lat="46.98763" lon="6.84673">
        <ele>710.455997</ele>
        <time>2021-07-07T08:45:43.383Z</time>
      </trkpt>
      <trkpt lat="46.98759" lon="6.84589">
        <ele>707.426202</ele>
        <time>2021-07-07T08:46:00.867Z</time>
      </trkpt>
      <trkpt lat="46.98758" lon="6.84584">
        <ele>707.273162</ele>
        <time>2021-07-07T08:46:02.026Z</time>
      </trkpt>
      <trkpt lat="46.98591" lon="6.84591">
        <ele>691.615911</ele>
        <time>2021-07-07T08:46:45.338Z</time>
      </trkpt>
      <trkpt lat="46.98505" lon="6.84607">
        <ele>680.136485</ele>
        <time>2021-07-07T08:47:07.581Z</time>
      </trkpt>
      <trkpt lat="46.98477" lon="6.84611">
        <ele>676.718567</ele>
        <time>2021-07-07T08:47:14.607Z</time>
      </trkpt>
      <trkpt lat="46.98455" lon="6.84575">
        <ele>672.676414</ele>
        <time>2021-07-07T08:47:24.542Z</time>
      </trkpt>
      <trkpt lat="46.98421" lon="6.84578">
        <ele>668.503321</ele>
        <time>2021-07-07T08:47:34.814Z</time>
      </trkpt>
      <trkpt lat="46.98408" lon="6.84621">
        <ele>664.604816</ele>
        <time>2021-07-07T08:47:44.436Z</time>
      </trkpt>
      <trkpt lat="46.98404" lon="6.84632">
        <ele>663.572122</ele>
        <time>2021-07-07T08:47:46.987Z</time>
      </trkpt>
      <trkpt lat="46.98398" lon="6.8464">
        <ele>662.604894</ele>
        <time>2021-07-07T08:47:49.419Z</time>
      </trkpt>
      <trkpt lat="46.98379" lon="6.84654">
        <ele>659.962243</ele>
        <time>2021-07-07T08:47:55.954Z</time>
      </trkpt>
      <trkpt lat="46.98307" lon="6.84691">
        <ele>653.971733</ele>
        <time>2021-07-07T08:48:20.931Z</time>
      </trkpt>
      <trkpt lat="46.98305" lon="6.84692">
        <ele>653.832475</ele>
        <time>2021-07-07T08:48:21.613Z</time>
      </trkpt>
      <trkpt lat="46.98279" lon="6.84706">
        <ele>652.123317</ele>
        <time>2021-07-07T08:48:30.738Z</time>
      </trkpt>
      <trkpt lat="46.98249" lon="6.8472">
        <ele>650.136006</ele>
        <time>2021-07-07T08:48:41.516Z</time>
      </trkpt>
      <trkpt lat="46.9819" lon="6.84732">
        <ele>646.421985</ele>
        <time>2021-07-07T08:49:02.057Z</time>
      </trkpt>
      <trkpt lat="46.98122" lon="6.8478">
        <ele>641.999297</ele>
        <time>2021-07-07T08:49:27.959Z</time>
      </trkpt>
      <trkpt lat="46.98087" lon="6.84819">
        <ele>639.38732</ele>
        <time>2021-07-07T08:49:43.349Z</time>
      </trkpt>
      <trkpt lat="46.98042" lon="6.84842">
        <ele>636.595321</ele>
        <time>2021-07-07T08:49:58.828Z</time>
      </trkpt>
      <trkpt lat="46.97964" lon="6.84845">
        <ele>630.912028</ele>
        <time>2021-07-07T08:50:23.586Z</time>
      </trkpt>
      <trkpt lat="46.9792" lon="6.84835">
        <ele>627.439588</ele>
        <time>2021-07-07T08:50:38.073Z</time>
      </trkpt>
      <trkpt lat="46.97908" lon="6.8483">
        <ele>626.53444</ele>
        <time>2021-07-07T08:50:41.637Z</time>
      </trkpt>
      <trkpt lat="46.97903" lon="6.8483">
        <ele>626.110323</ele>
        <time>2021-07-07T08:50:43.272Z</time>
      </trkpt>
      <trkpt lat="46.97865" lon="6.84818">
        <ele>623.151418</ele>
        <time>2021-07-07T08:50:55.992Z</time>
      </trkpt>
      <trkpt lat="46.97843" lon="6.84791">
        <ele>621.541175</ele>
        <time>2021-07-07T08:51:05.949Z</time>
      </trkpt>
      <trkpt lat="46.97837" lon="6.84775">
        <ele>621.229337</ele>
        <time>2021-07-07T08:51:10.337Z</time>
      </trkpt>
      <trkpt lat="46.97819" lon="6.84759">
        <ele>620.724242</ele>
        <time>2021-07-07T08:51:17.801Z</time>
      </trkpt>
      <trkpt lat="46.97814" lon="6.84758">
        <ele>620.604162</ele>
        <time>2021-07-07T08:51:19.273Z</time>
      </trkpt>
      <trkpt lat="46.97821" lon="6.84753">
        <ele>620.422586</ele>
        <time>2021-07-07T08:51:22.249Z</time>
      </trkpt>
      <trkpt lat="46.97833" lon="6.84717">
        <ele>619.764656</ele>
        <time>2021-07-07T08:51:31.622Z</time>
      </trkpt>
      <trkpt lat="46.97832" lon="6.84652">
        <ele>618.686777</ele>
        <time>2021-07-07T08:51:48.538Z</time>
      </trkpt>
      <trkpt lat="46.97832" lon="6.84634">
        <ele>618.390016</ele>
        <time>2021-07-07T08:51:53.789Z</time>
      </trkpt>
      <trkpt lat="46.97817" lon="6.84604">
        <ele>617.774014</ele>
        <time>2021-07-07T08:52:01.966Z</time>
      </trkpt>
      <trkpt lat="46.97799" lon="6.84562">
        <ele>617.818474</ele>
        <time>2021-07-07T08:52:13.077Z</time>
      </trkpt>
      <trkpt lat="46.97796" lon="6.84547">
        <ele>618.008252</ele>
        <time>2021-07-07T08:52:17.249Z</time>
      </trkpt>
      <trkpt lat="46.97795" lon="6.84541">
        <ele>618.091886</ele>
        <time>2021-07-07T08:52:19.029Z</time>
      </trkpt>
      <trkpt lat="46.97773" lon="6.84413">
        <ele>619.670808</ele>
        <time>2021-07-07T08:52:50.359Z</time>
      </trkpt>
      <trkpt lat="46.97756" lon="6.8417">
        <ele>624.015135</ele>
        <time>2021-07-07T08:53:50.388Z</time>
      </trkpt>
      <trkpt lat="46.9776" lon="6.84136">
        <ele>624.712504</ele>
        <time>2021-07-07T08:53:59.285Z</time>
      </trkpt>
      <trkpt lat="46.97798" lon="6.84061">
        <ele>626.594903</ele>
        <time>2021-07-07T08:54:23.659Z</time>
      </trkpt>
      <trkpt lat="46.978" lon="6.84045">
        <ele>626.901135</ele>
        <time>2021-07-07T08:54:28.351Z</time>
      </trkpt>
      <trkpt lat="46.97794" lon="6.84053">
        <ele>627.135306</ele>
        <time>2021-07-07T08:54:32.100Z</time>
      </trkpt>
      <trkpt lat="46.97778" lon="6.84058">
        <ele>627.597993</ele>
        <time>2021-07-07T08:54:39.200Z</time>
      </trkpt>
      <trkpt lat="46.97763" lon="6.84052">
        <ele>628.042104</ele>
        <time>2021-07-07T08:54:46.931Z</time>
      </trkpt>
      <trkpt lat="46.97692" lon="6.83908">
        <ele>630.612141</ele>
        <time>2021-07-07T08:55:38.993Z</time>
      </trkpt>
      <trkpt lat="46.97655" lon="6.83885">
        <ele>628.975164</ele>
        <time>2021-07-07T08:55:53.011Z</time>
      </trkpt>
      <trkpt lat="46.97636" lon="6.83869">
        <ele>628.077204</ele>
        <time>2021-07-07T08:56:00.930Z</time>
      </trkpt>
      <trkpt lat="46.97634" lon="6.83876">
        <ele>627.855444</ele>
        <time>2021-07-07T08:56:02.512Z</time>
      </trkpt>
      <trkpt lat="46.97626" lon="6.83885">
        <ele>627.45873</ele>
        <time>2021-07-07T08:56:05.195Z</time>
      </trkpt>
      <trkpt lat="46.97622" lon="6.83888">
        <ele>627.276742</ele>
        <time>2021-07-07T08:56:06.556Z</time>
      </trkpt>
      <trkpt lat="46.97613" lon="6.83888">
        <ele>626.913787</ele>
        <time>2021-07-07T08:56:09.225Z</time>
      </trkpt>
      <trkpt lat="46.97614" lon="6.83908">
        <ele>626.344396</ele>
        <time>2021-07-07T08:56:14.133Z</time>
      </trkpt>
      <trkpt lat="46.9761" lon="6.83919">
        <ele>625.995114</ele>
        <time>2021-07-07T08:56:16.849Z</time>
      </trkpt>
      <trkpt lat="46.97604" lon="6.83934">
        <ele>625.512098</ele>
        <time>2021-07-07T08:56:20.996Z</time>
      </trkpt>
      <trkpt lat="46.9758" lon="6.83943">
        <ele>624.485347</ele>
        <time>2021-07-07T08:56:29.431Z</time>
      </trkpt>
      <trkpt lat="46.97559" lon="6.83934">
        <ele>623.387131</ele>
        <time>2021-07-07T08:56:36.813Z</time>
      </trkpt>
      <trkpt lat="46.97551" lon="6.83929">
        <ele>622.560524</ele>
        <time>2021-07-07T08:56:39.458Z</time>
      </trkpt>
      <trkpt lat="46.97529" lon="6.83905">
        <ele>619.889853</ele>
        <time>2021-07-07T08:56:48.056Z</time>
      </trkpt>
      <trkpt lat="46.97471" lon="6.83793">
        <ele>610.494874</ele>
        <time>2021-07-07T08:57:17.436Z</time>
      </trkpt>
      <trkpt lat="46.97461" lon="6.83767">
        <ele>608.536818</ele>
        <time>2021-07-07T08:57:23.619Z</time>
      </trkpt>
      <trkpt lat="46.97436" lon="6.83774">
        <ele>606.080506</ele>
        <time>2021-07-07T08:57:31.457Z</time>
      </trkpt>
      <trkpt lat="46.97342" lon="6.83698">
        <ele>594.487919</ele>
        <time>2021-07-07T08:58:04.633Z</time>
      </trkpt>
      <trkpt lat="46.97302" lon="6.83634">
        <ele>588.148277</ele>
        <time>2021-07-07T08:58:22.517Z</time>
      </trkpt>
      <trkpt lat="46.9726" lon="6.83616">
        <ele>584.03802</ele>
        <time>2021-07-07T08:58:36.152Z</time>
      </trkpt>
      <trkpt lat="46.97212" lon="6.83597">
        <ele>579.714209</ele>
        <time>2021-07-07T08:58:51.453Z</time>
      </trkpt>
      <trkpt lat="46.97197" lon="6.83591">
        <ele>578.331391</ele>
        <time>2021-07-07T08:58:56.422Z</time>
      </trkpt>
      <trkpt lat="46.97161" lon="6.83583">
        <ele>575.11277</ele>
        <time>2021-07-07T08:59:08.151Z</time>
      </trkpt>
      <trkpt lat="46.97157" lon="6.83584">
        <ele>574.804737</ele>
        <time>2021-07-07T08:59:09.287Z</time>
      </trkpt>
      <trkpt lat="46.9715" lon="6.83574">
        <ele>573.940745</ele>
        <time>2021-07-07T08:59:12.450Z</time>
      </trkpt>
      <trkpt lat="46.9712" lon="6.83518">
        <ele>570.414876</ele>
        <time>2021-07-07T08:59:28.548Z</time>
      </trkpt>
      <trkpt lat="46.97107" lon="6.83481">
        <ele>569.258048</ele>
        <time>2021-07-07T08:59:38.016Z</time>
      </trkpt>
      <trkpt lat="46.97038" lon="6.83343">
        <ele>564.455813</ele>
        <time>2021-07-07T09:00:19.665Z</time>
      </trkpt>
      <trkpt lat="46.97013" lon="6.83311">
        <ele>563.466548</ele>
        <time>2021-07-07T09:00:31.805Z</time>
      </trkpt>
      <trkpt lat="46.96999" lon="6.83304">
        <ele>563.22713</ele>
        <time>2021-07-07T09:00:37.019Z</time>
      </trkpt>
      <trkpt lat="46.96999" lon="6.83302">
        <ele>563.206563</ele>
        <time>2021-07-07T09:00:37.409Z</time>
      </trkpt>
      <trkpt lat="46.97" lon="6.83288">
        <ele>563.049455</ele>
        <time>2021-07-07T09:00:40.449Z</time>
      </trkpt>
      <trkpt lat="46.97001" lon="6.83273">
        <ele>562.879034</ele>
        <time>2021-07-07T09:00:43.718Z</time>
      </trkpt>
      <trkpt lat="46.96944" lon="6.8314">
        <ele>561.112018</ele>
        <time>2021-07-07T09:01:23.311Z</time>
      </trkpt>
      <trkpt lat="46.96906" lon="6.83019">
        <ele>561.290992</ele>
        <time>2021-07-07T09:01:57.690Z</time>
      </trkpt>
      <trkpt lat="46.96898" lon="6.83009">
        <ele>561.376335</ele>
        <time>2021-07-07T09:02:01.819Z</time>
      </trkpt>
      <trkpt lat="46.96868" lon="6.82975">
        <ele>561.676284</ele>
        <time>2021-07-07T09:02:17.052Z</time>
      </trkpt>
      <trkpt lat="46.96871" lon="6.82845">
        <ele>562.595846</ele>
        <time>2021-07-07T09:02:54.962Z</time>
      </trkpt>
      <trkpt lat="46.96872" lon="6.8278">
        <ele>563.317385</ele>
        <time>2021-07-07T09:03:13.767Z</time>
      </trkpt>
      <trkpt lat="46.96873" lon="6.82753">
        <ele>563.615278</ele>
        <time>2021-07-07T09:03:21.406Z</time>
      </trkpt>
      <trkpt lat="46.96884" lon="6.82716">
        <ele>564.064429</ele>
        <time>2021-07-07T09:03:33.243Z</time>
      </trkpt>
      <trkpt lat="46.96883" lon="6.82702">
        <ele>564.217069</ele>
        <time>2021-07-07T09:03:36.784Z</time>
      </trkpt>
      <trkpt lat="46.96877" lon="6.82678">
        <ele>564.501635</ele>
        <time>2021-07-07T09:03:43.983Z</time>
      </trkpt>
      <trkpt lat="46.96875" lon="6.82673">
        <ele>564.565459</ele>
        <time>2021-07-07T09:03:45.863Z</time>
      </trkpt>
      <trkpt lat="46.96875" lon="6.82673">
        <ele>564.573616</ele>
        <time>2021-07-07T09:03:46.070Z</time>
      </trkpt>
      <trkpt lat="46.96873" lon="6.82672">
        <ele>564.606615</ele>
        <time>2021-07-07T09:03:46.925Z</time>
      </trkpt>
      <trkpt lat="46.96872" lon="6.82672">
        <ele>564.619734</ele>
        <time>2021-07-07T09:03:47.264Z</time>
      </trkpt>
      <trkpt lat="46.96871" lon="6.82673">
        <ele>564.642974</ele>
        <time>2021-07-07T09:03:47.838Z</time>
      </trkpt>
      <trkpt lat="46.96869" lon="6.82672">
        <ele>564.671542</ele>
        <time>2021-07-07T09:03:48.576Z</time>
      </trkpt>
      <trkpt lat="46.96866" lon="6.82672">
        <ele>564.712088</ele>
        <time>2021-07-07T09:03:49.335Z</time>
      </trkpt>
      <trkpt lat="46.96862" lon="6.82683">
        <ele>564.860786</ele>
        <time>2021-07-07T09:03:53.056Z</time>
      </trkpt>
      <trkpt lat="46.9685" lon="6.82693">
        <ele>565.071426</ele>
        <time>2021-07-07T09:03:58.558Z</time>
      </trkpt>
      <trkpt lat="46.96827" lon="6.82777">
        <ele>563.692779</ele>
        <time>2021-07-07T09:04:22.054Z</time>
      </trkpt>
      <trkpt lat="46.968" lon="6.82843">
        <ele>562.51908</ele>
        <time>2021-07-07T09:04:41.055Z</time>
      </trkpt>
      <trkpt lat="46.96785" lon="6.82863">
        <ele>562.070082</ele>
        <time>2021-07-07T09:04:47.932Z</time>
      </trkpt>
      <trkpt lat="46.96783" lon="6.82911">
        <ele>561.336778</ele>
        <time>2021-07-07T09:04:59.624Z</time>
      </trkpt>
      <trkpt lat="46.96739" lon="6.82971">
        <ele>559.396647</ele>
        <time>2021-07-07T09:05:20.460Z</time>
      </trkpt>
      <trkpt lat="46.96726" lon="6.82999">
        <ele>558.575573</ele>
        <time>2021-07-07T09:05:28.832Z</time>
      </trkpt>
      <trkpt lat="46.9671" lon="6.83068">
        <ele>556.824707</ele>
        <time>2021-07-07T09:05:46.304Z</time>
      </trkpt>
      <trkpt lat="46.96688" lon="6.83092">
        <ele>555.848373</ele>
        <time>2021-07-07T09:05:56.417Z</time>
      </trkpt>
      <trkpt lat="46.96679" lon="6.83097">
        <ele>555.521297</ele>
        <time>2021-07-07T09:05:59.550Z</time>
      </trkpt>
      <trkpt lat="46.96675" lon="6.83097">
        <ele>555.390918</ele>
        <time>2021-07-07T09:06:00.851Z</time>
      </trkpt>
      <trkpt lat="46.96667" lon="6.83085">
        <ele>554.969777</ele>
        <time>2021-07-07T09:06:05.309Z</time>
      </trkpt>
      <trkpt lat="46.96617" lon="6.82979">
        <ele>553.188721</ele>
        <time>2021-07-07T09:06:36.588Z</time>
      </trkpt>
      <trkpt lat="46.96576" lon="6.82909">
        <ele>551.982591</ele>
        <time>2021-07-07T09:06:59.556Z</time>
      </trkpt>
      <trkpt lat="46.96556" lon="6.82881">
        <ele>551.45465</ele>
        <time>2021-07-07T09:07:10.227Z</time>
      </trkpt>
      <trkpt lat="46.96533" lon="6.82856">
        <ele>551.146182</ele>
        <time>2021-07-07T09:07:21.604Z</time>
      </trkpt>
      <trkpt lat="46.96519" lon="6.82836">
        <ele>551.003834</ele>
        <time>2021-07-07T09:07:29.972Z</time>
      </trkpt>
      <trkpt lat="46.96491" lon="6.8277">
        <ele>550.623838</ele>
        <time>2021-07-07T09:07:50.941Z</time>
      </trkpt>
      <trkpt lat="46.96482" lon="6.82747">
        <ele>550.496068</ele>
        <time>2021-07-07T09:07:57.506Z</time>
      </trkpt>
      <trkpt lat="46.96465" lon="6.82706">
        <ele>550.259804</ele>
        <time>2021-07-07T09:08:07.591Z</time>
      </trkpt>
      <trkpt lat="46.96458" lon="6.82659">
        <ele>550.019881</ele>
        <time>2021-07-07T09:08:17.935Z</time>
      </trkpt>
      <trkpt lat="46.96456" lon="6.82636">
        <ele>549.07308</ele>
        <time>2021-07-07T09:08:23.684Z</time>
      </trkpt>
      <trkpt lat="46.96447" lon="6.82645">
        <ele>548.305865</ele>
        <time>2021-07-07T09:08:26.772Z</time>
      </trkpt>
      <trkpt lat="46.96439" lon="6.82653">
        <ele>547.607318</ele>
        <time>2021-07-07T09:08:29.599Z</time>
      </trkpt>
      <trkpt lat="46.9642" lon="6.82669">
        <ele>546.05194</ele>
        <time>2021-07-07T09:08:36.673Z</time>
      </trkpt>
      <trkpt lat="46.96401" lon="6.82697">
        <ele>544.093653</ele>
        <time>2021-07-07T09:08:44.650Z</time>
      </trkpt>
      <trkpt lat="46.96392" lon="6.82704">
        <ele>543.367869</ele>
        <time>2021-07-07T09:08:47.453Z</time>
      </trkpt>
      <trkpt lat="46.96378" lon="6.8271">
        <ele>542.355416</ele>
        <time>2021-07-07T09:08:51.081Z</time>
      </trkpt>
      <trkpt lat="46.96362" lon="6.82718">
        <ele>541.096931</ele>
        <time>2021-07-07T09:08:56.433Z</time>
      </trkpt>
      <trkpt lat="46.9635" lon="6.82711">
        <ele>540.177001</ele>
        <time>2021-07-07T09:09:00.303Z</time>
      </trkpt>
      <trkpt lat="46.96311" lon="6.82696">
        <ele>537.330918</ele>
        <time>2021-07-07T09:09:12.293Z</time>
      </trkpt>
      <trkpt lat="46.96303" lon="6.82681">
        <ele>535.878799</ele>
        <time>2021-07-07T09:09:16.740Z</time>
      </trkpt>
      <trkpt lat="46.96293" lon="6.82669">
        <ele>534.273646</ele>
        <time>2021-07-07T09:09:20.720Z</time>
      </trkpt>
      <trkpt lat="46.9629" lon="6.82665">
        <ele>533.780083</ele>
        <time>2021-07-07T09:09:22.396Z</time>
      </trkpt>
      <trkpt lat="46.96281" lon="6.82632">
        <ele>530.797165</ele>
        <time>2021-07-07T09:09:30.423Z</time>
      </trkpt>
      <trkpt lat="46.96279" lon="6.82529">
        <ele>522.207587</ele>
        <time>2021-07-07T09:09:51.757Z</time>
      </trkpt>
      <trkpt lat="46.96274" lon="6.82521">
        <ele>521.392576</ele>
        <time>2021-07-07T09:09:53.939Z</time>
      </trkpt>
      <trkpt lat="46.96267" lon="6.8252">
        <ele>520.469299</ele>
        <time>2021-07-07T09:09:56.614Z</time>
      </trkpt>
      <trkpt lat="46.9627" lon="6.82512">
        <ele>519.771406</ele>
        <time>2021-07-07T09:09:58.558Z</time>
      </trkpt>
      <trkpt lat="46.96271" lon="6.82509">
        <ele>519.446605</ele>
        <time>2021-07-07T09:09:59.477Z</time>
      </trkpt>
      <trkpt lat="46.96295" lon="6.82463">
        <ele>514.784156</ele>
        <time>2021-07-07T09:10:11.505Z</time>
      </trkpt>
      <trkpt lat="46.96301" lon="6.82422">
        <ele>512.421128</ele>
        <time>2021-07-07T09:10:20.156Z</time>
      </trkpt>
      <trkpt lat="46.963" lon="6.82407">
        <ele>511.575983</ele>
        <time>2021-07-07T09:10:23.639Z</time>
      </trkpt>
      <trkpt lat="46.96296" lon="6.82382">
        <ele>510.142413</ele>
        <time>2021-07-07T09:10:28.116Z</time>
      </trkpt>
      <trkpt lat="46.96292" lon="6.82351">
        <ele>508.367438</ele>
        <time>2021-07-07T09:10:33.974Z</time>
      </trkpt>
      <trkpt lat="46.96288" lon="6.82322">
        <ele>506.691801</ele>
        <time>2021-07-07T09:10:40.092Z</time>
      </trkpt>
      <trkpt lat="46.96265" lon="6.82245">
        <ele>501.94926</ele>
        <time>2021-07-07T09:11:00.085Z</time>
      </trkpt>
      <trkpt lat="46.96259" lon="6.82233">
        <ele>501.070432</ele>
        <time>2021-07-07T09:11:03.536Z</time>
      </trkpt>
      <trkpt lat="46.96254" lon="6.82222">
        <ele>500.319926</ele>
        <time>2021-07-07T09:11:07.000Z</time>
      </trkpt>
      <trkpt lat="46.96251" lon="6.82196">
        <ele>501.096365</ele>
        <time>2021-07-07T09:11:13.437Z</time>
      </trkpt>
      <trkpt lat="46.96257" lon="6.82172">
        <ele>501.849646</ele>
        <time>2021-07-07T09:11:19.483Z</time>
      </trkpt>
      <trkpt lat="46.96277" lon="6.82133">
        <ele>503.301912</ele>
        <time>2021-07-07T09:11:31.664Z</time>
      </trkpt>
      <trkpt lat="46.96281" lon="6.82117">
        <ele>503.823352</ele>
        <time>2021-07-07T09:11:37.541Z</time>
      </trkpt>
      <trkpt lat="46.96281" lon="6.82098">
        <ele>504.385851</ele>
        <time>2021-07-07T09:11:43.328Z</time>
      </trkpt>
      <trkpt lat="46.96279" lon="6.8209">
        <ele>504.638087</ele>
        <time>2021-07-07T09:11:45.452Z</time>
      </trkpt>
      <trkpt lat="46.96276" lon="6.82085">
        <ele>504.840636</ele>
        <time>2021-07-07T09:11:47.399Z</time>
      </trkpt>
      <trkpt lat="46.96279" lon="6.82074">
        <ele>505.198787</ele>
        <time>2021-07-07T09:11:51.562Z</time>
      </trkpt>
      <trkpt lat="46.96285" lon="6.8204">
        <ele>506.224806</ele>
        <time>2021-07-07T09:12:02.115Z</time>
      </trkpt>
      <trkpt lat="46.96287" lon="6.82026">
        <ele>506.651936</ele>
        <time>2021-07-07T09:12:09.075Z</time>
      </trkpt>
      <trkpt lat="46.96283" lon="6.82018">
        <ele>506.938056</ele>
        <time>2021-07-07T09:12:13.837Z</time>
      </trkpt>
      <trkpt lat="46.9628" lon="6.82036">
        <ele>507.489531</ele>
        <time>2021-07-07T09:12:22.170Z</time>
      </trkpt>
      <trkpt lat="46.96275" lon="6.82024">
        <ele>507.893186</ele>
        <time>2021-07-07T09:12:27.243Z</time>
      </trkpt>
      <trkpt lat="46.96268" lon="6.82054">
        <ele>510.645873</ele>
        <time>2021-07-07T09:12:48.750Z</time>
      </trkpt>
      <trkpt lat="46.96261" lon="6.82051">
        <ele>511.945642</ele>
        <time>2021-07-07T09:12:52.049Z</time>
      </trkpt>
      <trkpt lat="46.96256" lon="6.8204">
        <ele>513.486357</ele>
        <time>2021-07-07T09:12:58.752Z</time>
      </trkpt>
      <trkpt lat="46.96253" lon="6.82023">
        <ele>515.415659</ele>
        <time>2021-07-07T09:13:13.215Z</time>
      </trkpt>
      <trkpt lat="46.96249" lon="6.82023">
        <ele>516.106098</ele>
        <time>2021-07-07T09:13:18.299Z</time>
      </trkpt>
      <trkpt lat="46.96205" lon="6.8197">
        <ele>525.581157</ele>
        <time>2021-07-07T09:14:00.710Z</time>
      </trkpt>
      <trkpt lat="46.962" lon="6.81966">
        <ele>526.570647</ele>
        <time>2021-07-07T09:14:09.610Z</time>
      </trkpt>
      <trkpt lat="46.9619" lon="6.81955">
        <ele>528.666484</ele>
        <time>2021-07-07T09:14:20.866Z</time>
      </trkpt>
      <trkpt lat="46.9618" lon="6.81946">
        <ele>530.656404</ele>
        <time>2021-07-07T09:14:25.975Z</time>
      </trkpt>
      <trkpt lat="46.96176" lon="6.8194">
        <ele>531.602073</ele>
        <time>2021-07-07T09:14:31.413Z</time>
      </trkpt>
      <trkpt lat="46.96168" lon="6.81946">
        <ele>533.143062</ele>
        <time>2021-07-07T09:14:42.402Z</time>
      </trkpt>
      <trkpt lat="46.96145" lon="6.81955">
        <ele>537.205795</ele>
        <time>2021-07-07T09:14:59.635Z</time>
      </trkpt>
      <trkpt lat="46.96132" lon="6.81958">
        <ele>539.081534</ele>
        <time>2021-07-07T09:15:14.074Z</time>
      </trkpt>
      <trkpt lat="46.96123" lon="6.81968">
        <ele>540.624827</ele>
        <time>2021-07-07T09:15:24.867Z</time>
      </trkpt>
      <trkpt lat="46.96118" lon="6.81977">
        <ele>541.646687</ele>
        <time>2021-07-07T09:15:28.367Z</time>
      </trkpt>
      <trkpt lat="46.9612" lon="6.81966">
        <ele>542.698128</ele>
        <time>2021-07-07T09:15:36.905Z</time>
      </trkpt>
      <trkpt lat="46.96135" lon="6.81934">
        <ele>546.097706</ele>
        <time>2021-07-07T09:15:56.714Z</time>
      </trkpt>
      <trkpt lat="46.96139" lon="6.81922">
        <ele>547.275666</ele>
        <time>2021-07-07T09:16:05.176Z</time>
      </trkpt>
      <trkpt lat="46.96148" lon="6.81907">
        <ele>549.109069</ele>
        <time>2021-07-07T09:16:18.806Z</time>
      </trkpt>
      <trkpt lat="46.96165" lon="6.81881">
        <ele>552.251573</ele>
        <time>2021-07-07T09:16:35.301Z</time>
      </trkpt>
      <trkpt lat="46.96168" lon="6.8187">
        <ele>553.307027</ele>
        <time>2021-07-07T09:16:40.583Z</time>
      </trkpt>
      <trkpt lat="46.96163" lon="6.81864">
        <ele>554.145202</ele>
        <time>2021-07-07T09:16:45.377Z</time>
      </trkpt>
      <trkpt lat="46.96142" lon="6.81853">
        <ele>557.083506</ele>
        <time>2021-07-07T09:16:57.084Z</time>
      </trkpt>
      <trkpt lat="46.96109" lon="6.81821">
        <ele>561.825613</ele>
        <time>2021-07-07T09:17:16.553Z</time>
      </trkpt>
      <trkpt lat="46.96088" lon="6.81817">
        <ele>562.855566</ele>
        <time>2021-07-07T09:17:27.983Z</time>
      </trkpt>
      <trkpt lat="46.96087" lon="6.81811">
        <ele>563.071437</ele>
        <time>2021-07-07T09:17:30.224Z</time>
      </trkpt>
      <trkpt lat="46.96076" lon="6.81779">
        <ele>564.225195</ele>
        <time>2021-07-07T09:17:42.027Z</time>
      </trkpt>
      <trkpt lat="46.96075" lon="6.81754">
        <ele>565.058239</ele>
        <time>2021-07-07T09:17:49.758Z</time>
      </trkpt>
      <trkpt lat="46.9607" lon="6.8173">
        <ele>565.841517</ele>
        <time>2021-07-07T09:17:58.518Z</time>
      </trkpt>
      <trkpt lat="46.96062" lon="6.81711">
        <ele>566.581948</ele>
        <time>2021-07-07T09:18:05.489Z</time>
      </trkpt>
      <trkpt lat="46.96042" lon="6.81662">
        <ele>568.42781</ele>
        <time>2021-07-07T09:18:22.719Z</time>
      </trkpt>
      <trkpt lat="46.95987" lon="6.81622">
        <ele>570.944195</ele>
        <time>2021-07-07T09:18:49.670Z</time>
      </trkpt>
      <trkpt lat="46.95953" lon="6.81605">
        <ele>572.025227</ele>
        <time>2021-07-07T09:19:04.755Z</time>
      </trkpt>
      <trkpt lat="46.95936" lon="6.81588">
        <ele>572.648265</ele>
        <time>2021-07-07T09:19:13.209Z</time>
      </trkpt>
      <trkpt lat="46.95913" lon="6.81575">
        <ele>573.391969</ele>
        <time>2021-07-07T09:19:23.768Z</time>
      </trkpt>
      <trkpt lat="46.95874" lon="6.81487">
        <ele>575.572498</ele>
        <time>2021-07-07T09:19:54.020Z</time>
      </trkpt>
      <trkpt lat="46.95846" lon="6.81389">
        <ele>580.814438</ele>
        <time>2021-07-07T09:20:29.630Z</time>
      </trkpt>
      <trkpt lat="46.95845" lon="6.81376">
        <ele>581.468827</ele>
        <time>2021-07-07T09:20:35.936Z</time>
      </trkpt>
      <trkpt lat="46.95835" lon="6.81382">
        <ele>582.225766</ele>
        <time>2021-07-07T09:20:39.613Z</time>
      </trkpt>
      <trkpt lat="46.95816" lon="6.81413">
        <ele>584.315279</ele>
        <time>2021-07-07T09:20:53.315Z</time>
      </trkpt>
      <trkpt lat="46.95801" lon="6.8143">
        <ele>585.759882</ele>
        <time>2021-07-07T09:21:00.926Z</time>
      </trkpt>
      <trkpt lat="46.95798" lon="6.81394">
        <ele>587.592485</ele>
        <time>2021-07-07T09:21:15.306Z</time>
      </trkpt>
      <trkpt lat="46.95796" lon="6.81347">
        <ele>590.66298</ele>
        <time>2021-07-07T09:21:32.835Z</time>
      </trkpt>
      <trkpt lat="46.95796" lon="6.81315">
        <ele>593.322332</ele>
        <time>2021-07-07T09:21:43.854Z</time>
      </trkpt>
      <trkpt lat="46.9579" lon="6.8126">
        <ele>598.028187</ele>
        <time>2021-07-07T09:22:06.350Z</time>
      </trkpt>
      <trkpt lat="46.95777" lon="6.81222">
        <ele>601.536725</ele>
        <time>2021-07-07T09:22:22.642Z</time>
      </trkpt>
      <trkpt lat="46.95772" lon="6.81214">
        <ele>602.473768</ele>
        <time>2021-07-07T09:22:27.843Z</time>
      </trkpt>
      <trkpt lat="46.95768" lon="6.81191">
        <ele>604.433173</ele>
        <time>2021-07-07T09:22:40.348Z</time>
      </trkpt>
      <trkpt lat="46.95754" lon="6.81111">
        <ele>611.338635</ele>
        <time>2021-07-07T09:23:20.367Z</time>
      </trkpt>
      <trkpt lat="46.95751" lon="6.81081">
        <ele>613.326131</ele>
        <time>2021-07-07T09:23:33.629Z</time>
      </trkpt>
      <trkpt lat="46.95748" lon="6.81074">
        <ele>613.91874</ele>
        <time>2021-07-07T09:23:37.673Z</time>
      </trkpt>
      <trkpt lat="46.95736" lon="6.81048">
        <ele>615.990496</ele>
        <time>2021-07-07T09:23:51.840Z</time>
      </trkpt>
      <trkpt lat="46.9573" lon="6.81004">
        <ele>618.976987</ele>
        <time>2021-07-07T09:24:10.084Z</time>
      </trkpt>
      <trkpt lat="46.9573" lon="6.80999">
        <ele>619.334474</ele>
        <time>2021-07-07T09:24:13.449Z</time>
      </trkpt>
      <trkpt lat="46.95728" lon="6.80964">
        <ele>621.706091</ele>
        <time>2021-07-07T09:24:26.278Z</time>
      </trkpt>
      <trkpt lat="46.95742" lon="6.80917">
        <ele>625.135503</ele>
        <time>2021-07-07T09:24:44.901Z</time>
      </trkpt>
      <trkpt lat="46.95738" lon="6.80899">
        <ele>626.405866</ele>
        <time>2021-07-07T09:24:52.161Z</time>
      </trkpt>
      <trkpt lat="46.95744" lon="6.80895">
        <ele>627.059018</ele>
        <time>2021-07-07T09:24:54.959Z</time>
      </trkpt>
      <trkpt lat="46.95749" lon="6.80891">
        <ele>627.587887</ele>
        <time>2021-07-07T09:24:57.372Z</time>
      </trkpt>
      <trkpt lat="46.95753" lon="6.80887">
        <ele>628.101435</ele>
        <time>2021-07-07T09:25:00.153Z</time>
      </trkpt>
      <trkpt lat="46.95768" lon="6.80849">
        <ele>631.305996</ele>
        <time>2021-07-07T09:25:13.975Z</time>
      </trkpt>
      <trkpt lat="46.95774" lon="6.80785">
        <ele>636.225812</ele>
        <time>2021-07-07T09:25:36.004Z</time>
      </trkpt>
      <trkpt lat="46.95783" lon="6.80745">
        <ele>639.451876</ele>
        <time>2021-07-07T09:25:51.546Z</time>
      </trkpt>
      <trkpt lat="46.95808" lon="6.80695">
        <ele>644.144096</ele>
        <time>2021-07-07T09:26:16.029Z</time>
      </trkpt>
      <trkpt lat="46.9581" lon="6.80688">
        <ele>644.695383</ele>
        <time>2021-07-07T09:26:19.451Z</time>
      </trkpt>
      <trkpt lat="46.95809" lon="6.80675">
        <ele>645.71587</ele>
        <time>2021-07-07T09:26:24.644Z</time>
      </trkpt>
      <trkpt lat="46.95807" lon="6.80664">
        <ele>646.585507</ele>
        <time>2021-07-07T09:26:28.498Z</time>
      </trkpt>
      <trkpt lat="46.95806" lon="6.80658">
        <ele>647.064967</ele>
        <time>2021-07-07T09:26:31.283Z</time>
      </trkpt>
      <trkpt lat="46.95806" lon="6.8064">
        <ele>648.432876</ele>
        <time>2021-07-07T09:26:39.334Z</time>
      </trkpt>
      <trkpt lat="46.95809" lon="6.80606">
        <ele>652.192987</ele>
        <time>2021-07-07T09:26:52.971Z</time>
      </trkpt>
      <trkpt lat="46.95817" lon="6.80584">
        <ele>655.119641</ele>
        <time>2021-07-07T09:27:04.558Z</time>
      </trkpt>
      <trkpt lat="46.95825" lon="6.80569">
        <ele>657.274586</ele>
        <time>2021-07-07T09:27:12.395Z</time>
      </trkpt>
      <trkpt lat="46.95807" lon="6.80559">
        <ele>660.512696</ele>
        <time>2021-07-07T09:27:28.552Z</time>
      </trkpt>
      <trkpt lat="46.95784" lon="6.8055">
        <ele>664.565463</ele>
        <time>2021-07-07T09:27:47.522Z</time>
      </trkpt>
      <trkpt lat="46.95717" lon="6.80566">
        <ele>676.041825</ele>
        <time>2021-07-07T09:28:46.076Z</time>
      </trkpt>
      <trkpt lat="46.95695" lon="6.80535">
        <ele>681.325582</ele>
        <time>2021-07-07T09:29:11.357Z</time>
      </trkpt>
      <trkpt lat="46.95664" lon="6.80456">
        <ele>692.343106</ele>
        <time>2021-07-07T09:30:06.000Z</time>
      </trkpt>
      <trkpt lat="46.95662" lon="6.80425">
        <ele>696.172902</ele>
        <time>2021-07-07T09:30:26.600Z</time>
      </trkpt>
      <trkpt lat="46.95664" lon="6.80396">
        <ele>699.731178</ele>
        <time>2021-07-07T09:30:41.507Z</time>
      </trkpt>
      <trkpt lat="46.95646" lon="6.80371">
        <ele>704.133705</ele>
        <time>2021-07-07T09:31:03.607Z</time>
      </trkpt>
      <trkpt lat="46.95637" lon="6.80313">
        <ele>711.280798</ele>
        <time>2021-07-07T09:31:34.820Z</time>
      </trkpt>
      <trkpt lat="46.95639" lon="6.80299">
        <ele>712.392713</ele>
        <time>2021-07-07T09:31:41.187Z</time>
      </trkpt>
      <trkpt lat="46.95638" lon="6.80288">
        <ele>713.21604</ele>
        <time>2021-07-07T09:31:49.474Z</time>
      </trkpt>
      <trkpt lat="46.95631" lon="6.80283">
        <ele>714.152752</ele>
        <time>2021-07-07T09:31:54.558Z</time>
      </trkpt>
      <trkpt lat="46.95609" lon="6.8025">
        <ele>717.665233</ele>
        <time>2021-07-07T09:32:13.180Z</time>
      </trkpt>
      <trkpt lat="46.95597" lon="6.80243">
        <ele>719.107368</ele>
        <time>2021-07-07T09:32:19.539Z</time>
      </trkpt>
      <trkpt lat="46.95528" lon="6.80226">
        <ele>726.984908</ele>
        <time>2021-07-07T09:32:58.990Z</time>
      </trkpt>
      <trkpt lat="46.95506" lon="6.8024">
        <ele>729.657605</ele>
        <time>2021-07-07T09:33:10.908Z</time>
      </trkpt>
      <trkpt lat="46.95492" lon="6.80241">
        <ele>731.299773</ele>
        <time>2021-07-07T09:33:17.298Z</time>
      </trkpt>
      <trkpt lat="46.95466" lon="6.8023">
        <ele>732.450645</ele>
        <time>2021-07-07T09:33:27.740Z</time>
      </trkpt>
      <trkpt lat="46.95446" lon="6.80212">
        <ele>733.407046</ele>
        <time>2021-07-07T09:33:36.105Z</time>
      </trkpt>
      <trkpt lat="46.95441" lon="6.80206">
        <ele>733.671814</ele>
        <time>2021-07-07T09:33:38.608Z</time>
      </trkpt>
      <trkpt lat="46.95436" lon="6.80201">
        <ele>733.893814</ele>
        <time>2021-07-07T09:33:41.439Z</time>
      </trkpt>
      <trkpt lat="46.95401" lon="6.80172">
        <ele>735.563806</ele>
        <time>2021-07-07T09:33:56.792Z</time>
      </trkpt>
      <trkpt lat="46.95378" lon="6.80163">
        <ele>736.499702</ele>
        <time>2021-07-07T09:34:04.956Z</time>
      </trkpt>
      <trkpt lat="46.95347" lon="6.80171">
        <ele>737.820086</ele>
        <time>2021-07-07T09:34:16.962Z</time>
      </trkpt>
      <trkpt lat="46.95273" lon="6.8015">
        <ele>740.451268</ele>
        <time>2021-07-07T09:34:44.653Z</time>
      </trkpt>
      <trkpt lat="46.95244" lon="6.80157">
        <ele>741.441335</ele>
        <time>2021-07-07T09:34:55.292Z</time>
      </trkpt>
      <trkpt lat="46.95229" lon="6.80125">
        <ele>742.317975</ele>
        <time>2021-07-07T09:35:04.916Z</time>
      </trkpt>
      <trkpt lat="46.95127" lon="6.80072">
        <ele>747.553025</ele>
        <time>2021-07-07T09:35:46.023Z</time>
      </trkpt>
      <trkpt lat="46.95074" lon="6.8003">
        <ele>752.21555</ele>
        <time>2021-07-07T09:36:12.517Z</time>
      </trkpt>
      <trkpt lat="46.94976" lon="6.79933">
        <ele>763.624097</ele>
        <time>2021-07-07T09:37:14.474Z</time>
      </trkpt>
      <trkpt lat="46.94967" lon="6.79931">
        <ele>764.816362</ele>
        <time>2021-07-07T09:37:20.228Z</time>
      </trkpt>
      <trkpt lat="46.9496" lon="6.79923">
        <ele>766.121788</ele>
        <time>2021-07-07T09:37:26.909Z</time>
      </trkpt>
      <trkpt lat="46.94953" lon="6.7992">
        <ele>767.149453</ele>
        <time>2021-07-07T09:37:31.438Z</time>
      </trkpt>
      <trkpt lat="46.94932" lon="6.79935">
        <ele>770.300931</ele>
        <time>2021-07-07T09:37:47.424Z</time>
      </trkpt>
      <trkpt lat="46.94918" lon="6.79933">
        <ele>772.313442</ele>
        <time>2021-07-07T09:37:57.302Z</time>
      </trkpt>
      <trkpt lat="46.94881" lon="6.79893">
        <ele>778.823664</ele>
        <time>2021-07-07T09:38:30.563Z</time>
      </trkpt>
      <trkpt lat="46.94802" lon="6.79825">
        <ele>794.314864</ele>
        <time>2021-07-07T09:39:50.361Z</time>
      </trkpt>
      <trkpt lat="46.94753" lon="6.79766">
        <ele>806.351132</ele>
        <time>2021-07-07T09:40:44.458Z</time>
      </trkpt>
      <trkpt lat="46.94739" lon="6.79755">
        <ele>809.438378</ele>
        <time>2021-07-07T09:40:59.836Z</time>
      </trkpt>
      <trkpt lat="46.9475" lon="6.79753">
        <ele>811.596056</ele>
        <time>2021-07-07T09:41:08.247Z</time>
      </trkpt>
      <trkpt lat="46.94742" lon="6.79748">
        <ele>813.247435</ele>
        <time>2021-07-07T09:41:17.408Z</time>
      </trkpt>
      <trkpt lat="46.94685" lon="6.79679">
        <ele>826.941321</ele>
        <time>2021-07-07T09:42:25.495Z</time>
      </trkpt>
      <trkpt lat="46.94642" lon="6.79612">
        <ele>838.47327</ele>
        <time>2021-07-07T09:43:23.250Z</time>
      </trkpt>
      <trkpt lat="46.94625" lon="6.7958">
        <ele>843.60305</ele>
        <time>2021-07-07T09:43:49.211Z</time>
      </trkpt>
      <trkpt lat="46.94616" lon="6.79542">
        <ele>848.554121</ele>
        <time>2021-07-07T09:44:08.801Z</time>
      </trkpt>
      <trkpt lat="46.94592" lon="6.79478">
        <ele>854.069257</ele>
        <time>2021-07-07T09:44:43.866Z</time>
      </trkpt>
      <trkpt lat="46.94553" lon="6.79419">
        <ele>858.981359</ele>
        <time>2021-07-07T09:45:18.257Z</time>
      </trkpt>
      <trkpt lat="46.9455" lon="6.79412">
        <ele>859.50859</ele>
        <time>2021-07-07T09:45:24.961Z</time>
      </trkpt>
      <trkpt lat="46.94541" lon="6.79412">
        <ele>860.285756</ele>
        <time>2021-07-07T09:45:27.755Z</time>
      </trkpt>
      <trkpt lat="46.94508" lon="6.79427">
        <ele>863.284239</ele>
        <time>2021-07-07T09:45:42.457Z</time>
      </trkpt>
      <trkpt lat="46.94452" lon="6.79434">
        <ele>866.711107</ele>
        <time>2021-07-07T09:46:03.577Z</time>
      </trkpt>
      <trkpt lat="46.94426" lon="6.79427">
        <ele>866.999454</ele>
        <time>2021-07-07T09:46:12.343Z</time>
      </trkpt>
      <trkpt lat="46.94393" lon="6.79399">
        <ele>867.433886</ele>
        <time>2021-07-07T09:46:25.135Z</time>
      </trkpt>
      <trkpt lat="46.94382" lon="6.79395">
        <ele>867.558484</ele>
        <time>2021-07-07T09:46:28.879Z</time>
      </trkpt>
      <trkpt lat="46.94379" lon="6.79388">
        <ele>867.623382</ele>
        <time>2021-07-07T09:46:30.834Z</time>
      </trkpt>
      <trkpt lat="46.94364" lon="6.79389">
        <ele>867.800707</ele>
        <time>2021-07-07T09:46:36.807Z</time>
      </trkpt>
      <trkpt lat="46.94342" lon="6.7941">
        <ele>868.092907</ele>
        <time>2021-07-07T09:46:46.720Z</time>
      </trkpt>
      <trkpt lat="46.94299" lon="6.7939">
        <ele>868.68063</ele>
        <time>2021-07-07T09:47:04.363Z</time>
      </trkpt>
      <trkpt lat="46.94232" lon="6.7933">
        <ele>870.465508</ele>
        <time>2021-07-07T09:47:37.519Z</time>
      </trkpt>
      <trkpt lat="46.94205" lon="6.79294">
        <ele>871.296055</ele>
        <time>2021-07-07T09:47:53.532Z</time>
      </trkpt>
      <trkpt lat="46.94164" lon="6.79272">
        <ele>872.285564</ele>
        <time>2021-07-07T09:48:12.428Z</time>
      </trkpt>
      <trkpt lat="46.94132" lon="6.79245">
        <ele>872.51388</ele>
        <time>2021-07-07T09:48:27.828Z</time>
      </trkpt>
      <trkpt lat="46.94106" lon="6.79201">
        <ele>872.38323</ele>
        <time>2021-07-07T09:48:44.234Z</time>
      </trkpt>
      <trkpt lat="46.94057" lon="6.79151">
        <ele>872.190314</ele>
        <time>2021-07-07T09:49:07.294Z</time>
      </trkpt>
      <trkpt lat="46.93936" lon="6.79081">
        <ele>868.412529</ele>
        <time>2021-07-07T09:49:53.404Z</time>
      </trkpt>
      <trkpt lat="46.93913" lon="6.79051">
        <ele>866.915434</ele>
        <time>2021-07-07T09:50:03.698Z</time>
      </trkpt>
      <trkpt lat="46.93892" lon="6.79059">
        <ele>865.849714</ele>
        <time>2021-07-07T09:50:10.975Z</time>
      </trkpt>
      <trkpt lat="46.93869" lon="6.79056">
        <ele>864.713043</ele>
        <time>2021-07-07T09:50:18.726Z</time>
      </trkpt>
      <trkpt lat="46.93798" lon="6.79009">
        <ele>861.120373</ele>
        <time>2021-07-07T09:50:44.785Z</time>
      </trkpt>
      <trkpt lat="46.93769" lon="6.78997">
        <ele>859.801742</ele>
        <time>2021-07-07T09:50:54.790Z</time>
      </trkpt>
      <trkpt lat="46.93659" lon="6.78908">
        <ele>857.012952</ele>
        <time>2021-07-07T09:51:39.113Z</time>
      </trkpt>
      <trkpt lat="46.93624" lon="6.78864">
        <ele>860.469863</ele>
        <time>2021-07-07T09:51:58.526Z</time>
      </trkpt>
      <trkpt lat="46.93565" lon="6.78822">
        <ele>865.369606</ele>
        <time>2021-07-07T09:52:38.837Z</time>
      </trkpt>
      <trkpt lat="46.93558" lon="6.78822">
        <ele>865.849153</ele>
        <time>2021-07-07T09:52:41.445Z</time>
      </trkpt>
      <trkpt lat="46.93555" lon="6.78812">
        <ele>866.409046</ele>
        <time>2021-07-07T09:52:45.311Z</time>
      </trkpt>
      <trkpt lat="46.93563" lon="6.78805">
        <ele>867.124783</ele>
        <time>2021-07-07T09:52:57.117Z</time>
      </trkpt>
      <trkpt lat="46.93584" lon="6.78781">
        <ele>869.669809</ele>
        <time>2021-07-07T09:53:13.499Z</time>
      </trkpt>
      <trkpt lat="46.93668" lon="6.78714">
        <ele>887.912158</ele>
        <time>2021-07-07T09:54:43.734Z</time>
      </trkpt>
      <trkpt lat="46.93675" lon="6.78702">
        <ele>889.961963</ele>
        <time>2021-07-07T09:54:53.926Z</time>
      </trkpt>
      <trkpt lat="46.93684" lon="6.78699">
        <ele>891.752915</ele>
        <time>2021-07-07T09:55:09.898Z</time>
      </trkpt>
      <trkpt lat="46.93705" lon="6.78705">
        <ele>895.754482</ele>
        <time>2021-07-07T09:55:28.871Z</time>
      </trkpt>
      <trkpt lat="46.93772" lon="6.78752">
        <ele>907.205365</ele>
        <time>2021-07-07T09:56:27.025Z</time>
      </trkpt>
      <trkpt lat="46.93801" lon="6.78756">
        <ele>910.477778</ele>
        <time>2021-07-07T09:56:47.312Z</time>
      </trkpt>
      <trkpt lat="46.93821" lon="6.78754">
        <ele>912.716897</ele>
        <time>2021-07-07T09:57:00.892Z</time>
      </trkpt>
      <trkpt lat="46.93775" lon="6.7873">
        <ele>918.178782</ele>
        <time>2021-07-07T09:57:25.104Z</time>
      </trkpt>
      <trkpt lat="46.9374" lon="6.78701">
        <ele>922.809197</ele>
        <time>2021-07-07T09:57:43.552Z</time>
      </trkpt>
      <trkpt lat="46.93728" lon="6.78691">
        <ele>923.957936</ele>
        <time>2021-07-07T09:57:49.118Z</time>
      </trkpt>
      <trkpt lat="46.93722" lon="6.78662">
        <ele>925.071376</ele>
        <time>2021-07-07T09:57:58.067Z</time>
      </trkpt>
      <trkpt lat="46.93703" lon="6.78639">
        <ele>926.394557</ele>
        <time>2021-07-07T09:58:08.132Z</time>
      </trkpt>
      <trkpt lat="46.93693" lon="6.78564">
        <ele>929.219196</ele>
        <time>2021-07-07T09:58:27.509Z</time>
      </trkpt>
      <trkpt lat="46.93686" lon="6.78545">
        <ele>930.009007</ele>
        <time>2021-07-07T09:58:32.896Z</time>
      </trkpt>
      <trkpt lat="46.93659" lon="6.78514">
        <ele>931.855989</ele>
        <time>2021-07-07T09:58:46.981Z</time>
      </trkpt>
      <trkpt lat="46.93628" lon="6.78486">
        <ele>933.942939</ele>
        <time>2021-07-07T09:59:03.568Z</time>
      </trkpt>
      <trkpt lat="46.93584" lon="6.78458">
        <ele>937.244322</ele>
        <time>2021-07-07T09:59:24.340Z</time>
      </trkpt>
      <trkpt lat="46.93553" lon="6.78424">
        <ele>939.886322</ele>
        <time>2021-07-07T09:59:40.946Z</time>
      </trkpt>
      <trkpt lat="46.93474" lon="6.78318">
        <ele>947.17892</ele>
        <time>2021-07-07T10:00:29.042Z</time>
      </trkpt>
      <trkpt lat="46.93434" lon="6.78234">
        <ele>951.74581</ele>
        <time>2021-07-07T10:00:59.548Z</time>
      </trkpt>
      <trkpt lat="46.93421" lon="6.78199">
        <ele>953.532784</ele>
        <time>2021-07-07T10:01:11.677Z</time>
      </trkpt>
      <trkpt lat="46.93382" lon="6.78153">
        <ele>956.788513</ele>
        <time>2021-07-07T10:01:32.896Z</time>
      </trkpt>
      <trkpt lat="46.93335" lon="6.78075">
        <ele>960.427079</ele>
        <time>2021-07-07T10:02:01.332Z</time>
      </trkpt>
      <trkpt lat="46.93299" lon="6.78025">
        <ele>962.857506</ele>
        <time>2021-07-07T10:02:20.807Z</time>
      </trkpt>
      <trkpt lat="46.93275" lon="6.77998">
        <ele>964.345988</ele>
        <time>2021-07-07T10:02:32.446Z</time>
      </trkpt>
      <trkpt lat="46.93243" lon="6.77974">
        <ele>966.105308</ele>
        <time>2021-07-07T10:02:46.490Z</time>
      </trkpt>
      <trkpt lat="46.93199" lon="6.77907">
        <ele>971.02267</ele>
        <time>2021-07-07T10:03:17.635Z</time>
      </trkpt>
      <trkpt lat="46.93132" lon="6.778">
        <ele>978.695875</ele>
        <time>2021-07-07T10:04:10.990Z</time>
      </trkpt>
      <trkpt lat="46.93117" lon="6.77765">
        <ele>981.330971</ele>
        <time>2021-07-07T10:04:30.496Z</time>
      </trkpt>
      <trkpt lat="46.93093" lon="6.77633">
        <ele>992.866655</ele>
        <time>2021-07-07T10:05:35.261Z</time>
      </trkpt>
      <trkpt lat="46.93088" lon="6.7758">
        <ele>997.342963</ele>
        <time>2021-07-07T10:06:00.226Z</time>
      </trkpt>
      <trkpt lat="46.93077" lon="6.77539">
        <ele>1001.045731</ele>
        <time>2021-07-07T10:06:20.791Z</time>
      </trkpt>
      <trkpt lat="46.93049" lon="6.77445">
        <ele>1009.021128</ele>
        <time>2021-07-07T10:07:10.011Z</time>
      </trkpt>
      <trkpt lat="46.93031" lon="6.7736">
        <ele>1015.761681</ele>
        <time>2021-07-07T10:07:50.390Z</time>
      </trkpt>
      <trkpt lat="46.93029" lon="6.77322">
        <ele>1018.669634</ele>
        <time>2021-07-07T10:08:05.742Z</time>
      </trkpt>
      <trkpt lat="46.9302" lon="6.77288">
        <ele>1021.452263</ele>
        <time>2021-07-07T10:08:19.757Z</time>
      </trkpt>
      <trkpt lat="46.93021" lon="6.77271">
        <ele>1022.707099</ele>
        <time>2021-07-07T10:08:26.505Z</time>
      </trkpt>
      <trkpt lat="46.92999" lon="6.77162">
        <ele>1030.021826</ele>
        <time>2021-07-07T10:09:10.957Z</time>
      </trkpt>
      <trkpt lat="46.92996" lon="6.77031">
        <ele>1038.41731</ele>
        <time>2021-07-07T10:10:05.326Z</time>
      </trkpt>
      <trkpt lat="46.9299" lon="6.76988">
        <ele>1040.700712</ele>
        <time>2021-07-07T10:10:23.637Z</time>
      </trkpt>
      <trkpt lat="46.92994" lon="6.76939">
        <ele>1043.00129</ele>
        <time>2021-07-07T10:10:43.407Z</time>
      </trkpt>
      <trkpt lat="46.92991" lon="6.76888">
        <ele>1045.368111</ele>
        <time>2021-07-07T10:11:02.476Z</time>
      </trkpt>
      <trkpt lat="46.92996" lon="6.76847">
        <ele>1047.288151</ele>
        <time>2021-07-07T10:11:17.229Z</time>
      </trkpt>
      <trkpt lat="46.92983" lon="6.76807">
        <ele>1049.354276</ele>
        <time>2021-07-07T10:11:31.908Z</time>
      </trkpt>
      <trkpt lat="46.92979" lon="6.76795">
        <ele>1049.948845</ele>
        <time>2021-07-07T10:11:35.737Z</time>
      </trkpt>
      <trkpt lat="46.92981" lon="6.76772">
        <ele>1051.04485</ele>
        <time>2021-07-07T10:11:43.204Z</time>
      </trkpt>
      <trkpt lat="46.92979" lon="6.76762">
        <ele>1051.510747</ele>
        <time>2021-07-07T10:11:47.933Z</time>
      </trkpt>
      <trkpt lat="46.92977" lon="6.76759">
        <ele>1051.533722</ele>
        <time>2021-07-07T10:11:48.748Z</time>
      </trkpt>
      <trkpt lat="46.92937" lon="6.76758">
        <ele>1051.471531</ele>
        <time>2021-07-07T10:12:05.061Z</time>
      </trkpt>
      <trkpt lat="46.92926" lon="6.76752">
        <ele>1051.452427</ele>
        <time>2021-07-07T10:12:09.840Z</time>
      </trkpt>
      <trkpt lat="46.92897" lon="6.76724">
        <ele>1051.398742</ele>
        <time>2021-07-07T10:12:23.790Z</time>
      </trkpt>
      <trkpt lat="46.9287" lon="6.76713">
        <ele>1051.35531</ele>
        <time>2021-07-07T10:12:34.221Z</time>
      </trkpt>
      <trkpt lat="46.92847" lon="6.76684">
        <ele>1051.308424</ele>
        <time>2021-07-07T10:12:45.087Z</time>
      </trkpt>
      <trkpt lat="46.92835" lon="6.7665">
        <ele>1051.26755</ele>
        <time>2021-07-07T10:12:54.451Z</time>
      </trkpt>
      <trkpt lat="46.92821" lon="6.76586">
        <ele>1048.975286</ele>
        <time>2021-07-07T10:13:11.298Z</time>
      </trkpt>
      <trkpt lat="46.92807" lon="6.76523">
        <ele>1046.28429</ele>
        <time>2021-07-07T10:13:26.676Z</time>
      </trkpt>
      <trkpt lat="46.92757" lon="6.76421">
        <ele>1041.279515</ele>
        <time>2021-07-07T10:13:55.096Z</time>
      </trkpt>
      <trkpt lat="46.92741" lon="6.76408">
        <ele>1039.632638</ele>
        <time>2021-07-07T10:14:01.113Z</time>
      </trkpt>
      <trkpt lat="46.92734" lon="6.76405">
        <ele>1038.685181</ele>
        <time>2021-07-07T10:14:03.278Z</time>
      </trkpt>
      <trkpt lat="46.92682" lon="6.76343">
        <ele>1029.958122</ele>
        <time>2021-07-07T10:14:23.752Z</time>
      </trkpt>
      <trkpt lat="46.92613" lon="6.76213">
        <ele>1015.002593</ele>
        <time>2021-07-07T10:14:57.595Z</time>
      </trkpt>
      <trkpt lat="46.92586" lon="6.76172">
        <ele>1009.285213</ele>
        <time>2021-07-07T10:15:09.148Z</time>
      </trkpt>
      <trkpt lat="46.92566" lon="6.7615">
        <ele>1005.530126</ele>
        <time>2021-07-07T10:15:16.751Z</time>
      </trkpt>
      <trkpt lat="46.92505" lon="6.76101">
        <ele>995.211585</ele>
        <time>2021-07-07T10:15:37.597Z</time>
      </trkpt>
      <trkpt lat="46.92398" lon="6.75987">
        <ele>982.026505</ele>
        <time>2021-07-07T10:16:17.742Z</time>
      </trkpt>
      <trkpt lat="46.92351" lon="6.75909">
        <ele>976.049537</ele>
        <time>2021-07-07T10:16:42.071Z</time>
      </trkpt>
      <trkpt lat="46.92335" lon="6.75892">
        <ele>976.05312</ele>
        <time>2021-07-07T10:16:49.172Z</time>
      </trkpt>
      <trkpt lat="46.92341" lon="6.75893">
        <ele>976.375688</ele>
        <time>2021-07-07T10:16:52.156Z</time>
      </trkpt>
      <trkpt lat="46.92348" lon="6.75884">
        <ele>976.798808</ele>
        <time>2021-07-07T10:16:55.083Z</time>
      </trkpt>
      <trkpt lat="46.92366" lon="6.7579">
        <ele>979.952011</ele>
        <time>2021-07-07T10:17:20.222Z</time>
      </trkpt>
      <trkpt lat="46.92362" lon="6.75719">
        <ele>982.255327</ele>
        <time>2021-07-07T10:17:42.093Z</time>
      </trkpt>
      <trkpt lat="46.92364" lon="6.7561">
        <ele>988.143421</ele>
        <time>2021-07-07T10:18:22.283Z</time>
      </trkpt>
      <trkpt lat="46.92327" lon="6.7555">
        <ele>994.123273</ele>
        <time>2021-07-07T10:18:51.742Z</time>
      </trkpt>
      <trkpt lat="46.92302" lon="6.75541">
        <ele>996.986526</ele>
        <time>2021-07-07T10:19:05.271Z</time>
      </trkpt>
      <trkpt lat="46.92278" lon="6.75514">
        <ele>1000.228059</ele>
        <time>2021-07-07T10:19:22.681Z</time>
      </trkpt>
      <trkpt lat="46.92237" lon="6.75451">
        <ele>1007.112172</ele>
        <time>2021-07-07T10:19:57.066Z</time>
      </trkpt>
      <trkpt lat="46.92192" lon="6.75408">
        <ele>1013.701754</ele>
        <time>2021-07-07T10:20:26.437Z</time>
      </trkpt>
      <trkpt lat="46.92183" lon="6.75393">
        <ele>1015.34534</ele>
        <time>2021-07-07T10:20:33.913Z</time>
      </trkpt>
      <trkpt lat="46.92179" lon="6.75388">
        <ele>1015.97074</ele>
        <time>2021-07-07T10:20:38.224Z</time>
      </trkpt>
      <trkpt lat="46.92165" lon="6.75353">
        <ele>1019.347258</ele>
        <time>2021-07-07T10:20:52.902Z</time>
      </trkpt>
      <trkpt lat="46.92134" lon="6.75235">
        <ele>1030.462304</ele>
        <time>2021-07-07T10:21:45.014Z</time>
      </trkpt>
      <trkpt lat="46.92125" lon="6.75167">
        <ele>1037.047773</ele>
        <time>2021-07-07T10:22:14.987Z</time>
      </trkpt>
      <trkpt lat="46.92096" lon="6.75098">
        <ele>1044.63847</ele>
        <time>2021-07-07T10:22:48.252Z</time>
      </trkpt>
      <trkpt lat="46.92069" lon="6.74971">
        <ele>1056.864255</ele>
        <time>2021-07-07T10:23:43.819Z</time>
      </trkpt>
      <trkpt lat="46.92024" lon="6.7486">
        <ele>1068.516616</ele>
        <time>2021-07-07T10:24:36.790Z</time>
      </trkpt>
      <trkpt lat="46.91999" lon="6.74779">
        <ele>1075.764834</ele>
        <time>2021-07-07T10:25:12.348Z</time>
      </trkpt>
      <trkpt lat="46.91975" lon="6.74728">
        <ele>1079.809977</ele>
        <time>2021-07-07T10:25:35.537Z</time>
      </trkpt>
      <trkpt lat="46.91963" lon="6.74701">
        <ele>1081.83886</ele>
        <time>2021-07-07T10:25:47.470Z</time>
      </trkpt>
      <trkpt lat="46.91943" lon="6.74659">
        <ele>1085.156388</ele>
        <time>2021-07-07T10:26:04.929Z</time>
      </trkpt>
      <trkpt lat="46.91921" lon="6.7461">
        <ele>1088.950513</ele>
        <time>2021-07-07T10:26:23.873Z</time>
      </trkpt>
      <trkpt lat="46.9183" lon="6.74349">
        <ele>1100.330309</ele>
        <time>2021-07-07T10:27:45.214Z</time>
      </trkpt>
      <trkpt lat="46.91814" lon="6.74293">
        <ele>1102.141848</ele>
        <time>2021-07-07T10:28:00.763Z</time>
      </trkpt>
      <trkpt lat="46.91786" lon="6.7425">
        <ele>1103.920964</ele>
        <time>2021-07-07T10:28:16.221Z</time>
      </trkpt>
      <trkpt lat="46.91764" lon="6.74187">
        <ele>1106.016656</ele>
        <time>2021-07-07T10:28:34.647Z</time>
      </trkpt>
      <trkpt lat="46.91734" lon="6.74125">
        <ele>1108.311153</ele>
        <time>2021-07-07T10:28:54.899Z</time>
      </trkpt>
      <trkpt lat="46.91694" lon="6.73976">
        <ele>1115.32574</ele>
        <time>2021-07-07T10:29:41.434Z</time>
      </trkpt>
      <trkpt lat="46.91658" lon="6.73936">
        <ele>1118.186817</ele>
        <time>2021-07-07T10:30:01.592Z</time>
      </trkpt>
      <trkpt lat="46.91634" lon="6.7389">
        <ele>1120.821367</ele>
        <time>2021-07-07T10:30:19.372Z</time>
      </trkpt>
      <trkpt lat="46.91607" lon="6.73821">
        <ele>1124.72862</ele>
        <time>2021-07-07T10:30:43.748Z</time>
      </trkpt>
      <trkpt lat="46.91606" lon="6.73814">
        <ele>1125.088183</ele>
        <time>2021-07-07T10:30:46.539Z</time>
      </trkpt>
      <trkpt lat="46.91583" lon="6.73786">
        <ele>1127.250678</ele>
        <time>2021-07-07T10:30:59.695Z</time>
      </trkpt>
      <trkpt lat="46.91568" lon="6.73756">
        <ele>1129.096362</ele>
        <time>2021-07-07T10:31:11.338Z</time>
      </trkpt>
      <trkpt lat="46.91537" lon="6.73668">
        <ele>1133.590296</ele>
        <time>2021-07-07T10:31:41.295Z</time>
      </trkpt>
      <trkpt lat="46.91526" lon="6.73607">
        <ele>1135.905717</ele>
        <time>2021-07-07T10:31:59.363Z</time>
      </trkpt>
      <trkpt lat="46.915" lon="6.73581">
        <ele>1137.617402</ele>
        <time>2021-07-07T10:32:12.041Z</time>
      </trkpt>
      <trkpt lat="46.9149" lon="6.7356">
        <ele>1138.581603</ele>
        <time>2021-07-07T10:32:19.161Z</time>
      </trkpt>
      <trkpt lat="46.9146" lon="6.73482">
        <ele>1141.848502</ele>
        <time>2021-07-07T10:32:43.256Z</time>
      </trkpt>
      <trkpt lat="46.91451" lon="6.73419">
        <ele>1143.743467</ele>
        <time>2021-07-07T10:33:00.552Z</time>
      </trkpt>
      <trkpt lat="46.91412" lon="6.7336">
        <ele>1146.00531</ele>
        <time>2021-07-07T10:33:22.053Z</time>
      </trkpt>
      <trkpt lat="46.91354" lon="6.7322">
        <ele>1150.670207</ele>
        <time>2021-07-07T10:34:04.530Z</time>
      </trkpt>
      <trkpt lat="46.91339" lon="6.73152">
        <ele>1152.913613</ele>
        <time>2021-07-07T10:34:23.322Z</time>
      </trkpt>
      <trkpt lat="46.91322" lon="6.731">
        <ele>1154.71514</ele>
        <time>2021-07-07T10:34:38.746Z</time>
      </trkpt>
      <trkpt lat="46.91265" lon="6.7298">
        <ele>1159.897498</ele>
        <time>2021-07-07T10:35:19.601Z</time>
      </trkpt>
      <trkpt lat="46.91165" lon="6.72816">
        <ele>1169.448197</ele>
        <time>2021-07-07T10:36:24.571Z</time>
      </trkpt>
      <trkpt lat="46.91112" lon="6.72751">
        <ele>1173.889739</ele>
        <time>2021-07-07T10:36:54.953Z</time>
      </trkpt>
      <trkpt lat="46.9107" lon="6.72725">
        <ele>1176.83214</ele>
        <time>2021-07-07T10:37:14.519Z</time>
      </trkpt>
      <trkpt lat="46.91051" lon="6.72702">
        <ele>1178.413748</ele>
        <time>2021-07-07T10:37:24.962Z</time>
      </trkpt>
      <trkpt lat="46.90995" lon="6.7266">
        <ele>1182.16739</ele>
        <time>2021-07-07T10:37:51.541Z</time>
      </trkpt>
      <trkpt lat="46.90977" lon="6.72639">
        <ele>1183.352556</ele>
        <time>2021-07-07T10:38:01.137Z</time>
      </trkpt>
      <trkpt lat="46.90936" lon="6.72574">
        <ele>1186.488207</ele>
        <time>2021-07-07T10:38:26.178Z</time>
      </trkpt>
      <trkpt lat="46.90849" lon="6.72478">
        <ele>1190.701651</ele>
        <time>2021-07-07T10:39:09.177Z</time>
      </trkpt>
      <trkpt lat="46.90781" lon="6.72342">
        <ele>1192.232413</ele>
        <time>2021-07-07T10:39:49.591Z</time>
      </trkpt>
      <trkpt lat="46.9065" lon="6.72247">
        <ele>1187.137839</ele>
        <time>2021-07-07T10:40:33.383Z</time>
      </trkpt>
      <trkpt lat="46.90611" lon="6.72233">
        <ele>1185.300891</ele>
        <time>2021-07-07T10:40:44.510Z</time>
      </trkpt>
      <trkpt lat="46.90597" lon="6.72221">
        <ele>1184.586665</ele>
        <time>2021-07-07T10:40:48.852Z</time>
      </trkpt>
      <trkpt lat="46.90533" lon="6.72218">
        <ele>1180.738811</ele>
        <time>2021-07-07T10:41:06.616Z</time>
      </trkpt>
      <trkpt lat="46.90475" lon="6.72165">
        <ele>1176.495938</ele>
        <time>2021-07-07T10:41:25.934Z</time>
      </trkpt>
      <trkpt lat="46.90375" lon="6.72015">
        <ele>1169.995433</ele>
        <time>2021-07-07T10:42:07.984Z</time>
      </trkpt>
      <trkpt lat="46.90328" lon="6.71933">
        <ele>1167.312822</ele>
        <time>2021-07-07T10:42:30.498Z</time>
      </trkpt>
      <trkpt lat="46.90234" lon="6.71793">
        <ele>1163.191607</ele>
        <time>2021-07-07T10:43:11.455Z</time>
      </trkpt>
      <trkpt lat="46.90105" lon="6.71584">
        <ele>1156.673383</ele>
        <time>2021-07-07T10:44:09.845Z</time>
      </trkpt>
      <trkpt lat="46.9007" lon="6.71497">
        <ele>1153.823188</ele>
        <time>2021-07-07T10:44:30.375Z</time>
      </trkpt>
      <trkpt lat="46.90001" lon="6.71447">
        <ele>1149.489595</ele>
        <time>2021-07-07T10:44:52.953Z</time>
      </trkpt>
      <trkpt lat="46.89879" lon="6.71283">
        <ele>1137.932977</ele>
        <time>2021-07-07T10:45:39.325Z</time>
      </trkpt>
      <trkpt lat="46.89802" lon="6.71217">
        <ele>1130.49068</ele>
        <time>2021-07-07T10:46:03.477Z</time>
      </trkpt>
      <trkpt lat="46.89758" lon="6.71169">
        <ele>1124.046603</ele>
        <time>2021-07-07T10:46:17.542Z</time>
      </trkpt>
      <trkpt lat="46.89738" lon="6.71139">
        <ele>1120.492712</ele>
        <time>2021-07-07T10:46:24.917Z</time>
      </trkpt>
      <trkpt lat="46.89701" lon="6.71056">
        <ele>1112.100176</ele>
        <time>2021-07-07T10:46:42.340Z</time>
      </trkpt>
      <trkpt lat="46.89696" lon="6.71046">
        <ele>1111.072209</ele>
        <time>2021-07-07T10:46:44.476Z</time>
      </trkpt>
      <trkpt lat="46.89687" lon="6.71032">
        <ele>1109.492519</ele>
        <time>2021-07-07T10:46:47.716Z</time>
      </trkpt>
      <trkpt lat="46.89663" lon="6.71006">
        <ele>1106.525626</ele>
        <time>2021-07-07T10:46:55.402Z</time>
      </trkpt>
      <trkpt lat="46.89603" lon="6.70982">
        <ele>1102.007776</ele>
        <time>2021-07-07T10:47:11.756Z</time>
      </trkpt>
      <trkpt lat="46.89543" lon="6.70936">
        <ele>1097.174495</ele>
        <time>2021-07-07T10:47:30.652Z</time>
      </trkpt>
      <trkpt lat="46.89538" lon="6.70929">
        <ele>1096.654406</ele>
        <time>2021-07-07T10:47:32.510Z</time>
      </trkpt>
      <trkpt lat="46.89524" lon="6.70896">
        <ele>1094.774413</ele>
        <time>2021-07-07T10:47:43.493Z</time>
      </trkpt>
      <trkpt lat="46.89515" lon="6.70857">
        <ele>1096.162773</ele>
        <time>2021-07-07T10:47:54.796Z</time>
      </trkpt>
      <trkpt lat="46.89506" lon="6.70748">
        <ele>1100.464044</ele>
        <time>2021-07-07T10:48:30.143Z</time>
      </trkpt>
      <trkpt lat="46.89504" lon="6.70551">
        <ele>1109.646474</ele>
        <time>2021-07-07T10:49:51.460Z</time>
      </trkpt>
      <trkpt lat="46.89505" lon="6.70501">
        <ele>1112.46335</ele>
        <time>2021-07-07T10:50:11.083Z</time>
      </trkpt>
      <trkpt lat="46.89502" lon="6.70494">
        <ele>1112.895814</ele>
        <time>2021-07-07T10:50:13.671Z</time>
      </trkpt>
      <trkpt lat="46.89453" lon="6.70377">
        <ele>1120.303781</ele>
        <time>2021-07-07T10:51:04.010Z</time>
      </trkpt>
      <trkpt lat="46.89468" lon="6.70263">
        <ele>1123.748976</ele>
        <time>2021-07-07T10:51:42.262Z</time>
      </trkpt>
      <trkpt lat="46.89449" lon="6.70177">
        <ele>1126.434778</ele>
        <time>2021-07-07T10:52:09.617Z</time>
      </trkpt>
      <trkpt lat="46.89423" lon="6.70111">
        <ele>1127.51776</ele>
        <time>2021-07-07T10:52:31.332Z</time>
      </trkpt>
      <trkpt lat="46.89407" lon="6.70041">
        <ele>1127.131068</ele>
        <time>2021-07-07T10:52:51.257Z</time>
      </trkpt>
      <trkpt lat="46.89377" lon="6.69761">
        <ele>1123.437359</ele>
        <time>2021-07-07T10:54:01.707Z</time>
      </trkpt>
      <trkpt lat="46.89378" lon="6.6962">
        <ele>1120.284387</ele>
        <time>2021-07-07T10:54:35.495Z</time>
      </trkpt>
      <trkpt lat="46.89342" lon="6.6949">
        <ele>1117.896999</ele>
        <time>2021-07-07T10:55:08.917Z</time>
      </trkpt>
      <trkpt lat="46.89341" lon="6.69422">
        <ele>1116.73699</ele>
        <time>2021-07-07T10:55:25.769Z</time>
      </trkpt>
      <trkpt lat="46.89311" lon="6.69383">
        <ele>1116.293494</ele>
        <time>2021-07-07T10:55:41.582Z</time>
      </trkpt>
      <trkpt lat="46.89295" lon="6.69338">
        <ele>1118.453187</ele>
        <time>2021-07-07T10:55:56.140Z</time>
      </trkpt>
      <trkpt lat="46.89281" lon="6.69287">
        <ele>1120.875872</ele>
        <time>2021-07-07T10:56:13.636Z</time>
      </trkpt>
      <trkpt lat="46.8933" lon="6.69285">
        <ele>1124.000997</ele>
        <time>2021-07-07T10:56:39.814Z</time>
      </trkpt>
      <trkpt lat="46.89424" lon="6.69308">
        <ele>1132.462514</ele>
        <time>2021-07-07T10:57:40.496Z</time>
      </trkpt>
      <trkpt lat="46.89456" lon="6.693">
        <ele>1136.370044</ele>
        <time>2021-07-07T10:58:04.426Z</time>
      </trkpt>
      <trkpt lat="46.89497" lon="6.69326">
        <ele>1141.754122</ele>
        <time>2021-07-07T10:58:35.581Z</time>
      </trkpt>
      <trkpt lat="46.89524" lon="6.69363">
        <ele>1146.213711</ele>
        <time>2021-07-07T10:59:00.768Z</time>
      </trkpt>
      <trkpt lat="46.89596" lon="6.69324">
        <ele>1153.739983</ele>
        <time>2021-07-07T10:59:51.103Z</time>
      </trkpt>
      <trkpt lat="46.89669" lon="6.69271">
        <ele>1160.952065</ele>
        <time>2021-07-07T11:00:36.908Z</time>
      </trkpt>
      <trkpt lat="46.89673" lon="6.6927">
        <ele>1161.317682</ele>
        <time>2021-07-07T11:00:38.710Z</time>
      </trkpt>
      <trkpt lat="46.89681" lon="6.69269">
        <ele>1162.061338</ele>
        <time>2021-07-07T11:00:42.328Z</time>
      </trkpt>
      <trkpt lat="46.89699" lon="6.69248">
        <ele>1164.050352</ele>
        <time>2021-07-07T11:00:54.113Z</time>
      </trkpt>
      <trkpt lat="46.89729" lon="6.69118">
        <ele>1169.167434</ele>
        <time>2021-07-07T11:01:40.226Z</time>
      </trkpt>
      <trkpt lat="46.89745" lon="6.69069">
        <ele>1171.039475</ele>
        <time>2021-07-07T11:01:57.413Z</time>
      </trkpt>
      <trkpt lat="46.89727" lon="6.68983">
        <ele>1174.081409</ele>
        <time>2021-07-07T11:02:24.993Z</time>
      </trkpt>
      <trkpt lat="46.89728" lon="6.68948">
        <ele>1174.85369</ele>
        <time>2021-07-07T11:02:35.864Z</time>
      </trkpt>
      <trkpt lat="46.89723" lon="6.68936">
        <ele>1175.143974</ele>
        <time>2021-07-07T11:02:39.957Z</time>
      </trkpt>
      <trkpt lat="46.89715" lon="6.68852">
        <ele>1176.979023</ele>
        <time>2021-07-07T11:03:05.653Z</time>
      </trkpt>
      <trkpt lat="46.89708" lon="6.68809">
        <ele>1177.930481</ele>
        <time>2021-07-07T11:03:18.962Z</time>
      </trkpt>
      <trkpt lat="46.89699" lon="6.68812">
        <ele>1178.242506</ele>
        <time>2021-07-07T11:03:23.143Z</time>
      </trkpt>
      <trkpt lat="46.89674" lon="6.68782">
        <ele>1179.269284</ele>
        <time>2021-07-07T11:03:37.054Z</time>
      </trkpt>
      <trkpt lat="46.89632" lon="6.68751">
        <ele>1179.817094</ele>
        <time>2021-07-07T11:03:56.724Z</time>
      </trkpt>
      <trkpt lat="46.89624" lon="6.68737">
        <ele>1179.864291</ele>
        <time>2021-07-07T11:04:01.811Z</time>
      </trkpt>
      <trkpt lat="46.89612" lon="6.68716">
        <ele>1179.936348</ele>
        <time>2021-07-07T11:04:09.310Z</time>
      </trkpt>
      <trkpt lat="46.8961" lon="6.68701">
        <ele>1179.97572</ele>
        <time>2021-07-07T11:04:13.532Z</time>
      </trkpt>
      <trkpt lat="46.89519" lon="6.68587">
        <ele>1179.952423</ele>
        <time>2021-07-07T11:04:59.154Z</time>
      </trkpt>
      <trkpt lat="46.89504" lon="6.68544">
        <ele>1179.064708</ele>
        <time>2021-07-07T11:05:11.091Z</time>
      </trkpt>
      <trkpt lat="46.89441" lon="6.68474">
        <ele>1176.903841</ele>
        <time>2021-07-07T11:05:39.438Z</time>
      </trkpt>
      <trkpt lat="46.89414" lon="6.68375">
        <ele>1174.811476</ele>
        <time>2021-07-07T11:06:05.061Z</time>
      </trkpt>
      <trkpt lat="46.89381" lon="6.68316">
        <ele>1173.080494</ele>
        <time>2021-07-07T11:06:23.538Z</time>
      </trkpt>
      <trkpt lat="46.89372" lon="6.68273">
        <ele>1172.062819</ele>
        <time>2021-07-07T11:06:34.471Z</time>
      </trkpt>
      <trkpt lat="46.89343" lon="6.68208">
        <ele>1170.31855</ele>
        <time>2021-07-07T11:06:53.318Z</time>
      </trkpt>
      <trkpt lat="46.8934" lon="6.68182">
        <ele>1169.70783</ele>
        <time>2021-07-07T11:06:59.981Z</time>
      </trkpt>
      <trkpt lat="46.89343" lon="6.6814">
        <ele>1168.936571</ele>
        <time>2021-07-07T11:07:10.271Z</time>
      </trkpt>
      <trkpt lat="46.89336" lon="6.68111">
        <ele>1168.395386</ele>
        <time>2021-07-07T11:07:17.905Z</time>
      </trkpt>
      <trkpt lat="46.89314" lon="6.68067">
        <ele>1167.433911</ele>
        <time>2021-07-07T11:07:31.478Z</time>
      </trkpt>
      <trkpt lat="46.89301" lon="6.68023">
        <ele>1166.601212</ele>
        <time>2021-07-07T11:07:43.242Z</time>
      </trkpt>
      <trkpt lat="46.89231" lon="6.67906">
        <ele>1164.059878</ele>
        <time>2021-07-07T11:08:21.945Z</time>
      </trkpt>
      <trkpt lat="46.89187" lon="6.67856">
        <ele>1162.898421</ele>
        <time>2021-07-07T11:08:42.195Z</time>
      </trkpt>
      <trkpt lat="46.89137" lon="6.67741">
        <ele>1160.980598</ele>
        <time>2021-07-07T11:09:16.666Z</time>
      </trkpt>
      <trkpt lat="46.89132" lon="6.67696">
        <ele>1160.464215</ele>
        <time>2021-07-07T11:09:28.252Z</time>
      </trkpt>
      <trkpt lat="46.89124" lon="6.67676">
        <ele>1160.208004</ele>
        <time>2021-07-07T11:09:34.049Z</time>
      </trkpt>
      <trkpt lat="46.89115" lon="6.67661">
        <ele>1159.977048</ele>
        <time>2021-07-07T11:09:39.114Z</time>
      </trkpt>
      <trkpt lat="46.89097" lon="6.67623">
        <ele>1159.454433</ele>
        <time>2021-07-07T11:09:50.804Z</time>
      </trkpt>
      <trkpt lat="46.89085" lon="6.67578">
        <ele>1158.915229</ele>
        <time>2021-07-07T11:10:02.866Z</time>
      </trkpt>
      <trkpt lat="46.89039" lon="6.67494">
        <ele>1158.250724</ele>
        <time>2021-07-07T11:10:30.192Z</time>
      </trkpt>
      <trkpt lat="46.89027" lon="6.67487">
        <ele>1158.28663</ele>
        <time>2021-07-07T11:10:34.845Z</time>
      </trkpt>
      <trkpt lat="46.89012" lon="6.6745">
        <ele>1158.370704</ele>
        <time>2021-07-07T11:10:44.404Z</time>
      </trkpt>
      <trkpt lat="46.88979" lon="6.67364">
        <ele>1158.560857</ele>
        <time>2021-07-07T11:11:06.500Z</time>
      </trkpt>
      <trkpt lat="46.88967" lon="6.67333">
        <ele>1158.628567</ele>
        <time>2021-07-07T11:11:14.779Z</time>
      </trkpt>
      <trkpt lat="46.88959" lon="6.67313">
        <ele>1158.674104</ele>
        <time>2021-07-07T11:11:20.521Z</time>
      </trkpt>
      <trkpt lat="46.88951" lon="6.67315">
        <ele>1159.090382</ele>
        <time>2021-07-07T11:11:23.737Z</time>
      </trkpt>
      <trkpt lat="46.88942" lon="6.67306">
        <ele>1159.74798</ele>
        <time>2021-07-07T11:11:27.898Z</time>
      </trkpt>
      <trkpt lat="46.8891" lon="6.67231">
        <ele>1163.339042</ele>
        <time>2021-07-07T11:11:51.593Z</time>
      </trkpt>
      <trkpt lat="46.88916" lon="6.67228">
        <ele>1163.736335</ele>
        <time>2021-07-07T11:11:54.420Z</time>
      </trkpt>
      <trkpt lat="46.88918" lon="6.67208">
        <ele>1164.542731</ele>
        <time>2021-07-07T11:11:59.523Z</time>
      </trkpt>
      <trkpt lat="46.88944" lon="6.67175">
        <ele>1166.582565</ele>
        <time>2021-07-07T11:12:14.285Z</time>
      </trkpt>
      <trkpt lat="46.88946" lon="6.67152">
        <ele>1167.553137</ele>
        <time>2021-07-07T11:12:22.138Z</time>
      </trkpt>
      <trkpt lat="46.88949" lon="6.66997">
        <ele>1176.739784</ele>
        <time>2021-07-07T11:13:18.344Z</time>
      </trkpt>
      <trkpt lat="46.88964" lon="6.66934">
        <ele>1181.203737</ele>
        <time>2021-07-07T11:13:42.318Z</time>
      </trkpt>
      <trkpt lat="46.88968" lon="6.66903">
        <ele>1183.301127</ele>
        <time>2021-07-07T11:13:54.313Z</time>
      </trkpt>
      <trkpt lat="46.88956" lon="6.66809">
        <ele>1188.437847</ele>
        <time>2021-07-07T11:14:26.489Z</time>
      </trkpt>
      <trkpt lat="46.88956" lon="6.66754">
        <ele>1190.360378</ele>
        <time>2021-07-07T11:14:43.645Z</time>
      </trkpt>
      <trkpt lat="46.88937" lon="6.66707">
        <ele>1192.277135</ele>
        <time>2021-07-07T11:14:59.200Z</time>
      </trkpt>
      <trkpt lat="46.88939" lon="6.66695">
        <ele>1192.735465</ele>
        <time>2021-07-07T11:15:03.356Z</time>
      </trkpt>
      <trkpt lat="46.88906" lon="6.66646">
        <ele>1195.16623</ele>
        <time>2021-07-07T11:15:22.718Z</time>
      </trkpt>
      <trkpt lat="46.8884" lon="6.66508">
        <ele>1196.214611</ele>
        <time>2021-07-07T11:16:07.416Z</time>
      </trkpt>
      <trkpt lat="46.88664" lon="6.66276">
        <ele>1195.655764</ele>
        <time>2021-07-07T11:17:37.018Z</time>
      </trkpt>
      <trkpt lat="46.88641" lon="6.66214">
        <ele>1195.755374</ele>
        <time>2021-07-07T11:17:56.538Z</time>
      </trkpt>
      <trkpt lat="46.88621" lon="6.66135">
        <ele>1196.329576</ele>
        <time>2021-07-07T11:18:19.764Z</time>
      </trkpt>
      <trkpt lat="46.88562" lon="6.66112">
        <ele>1196.944266</ele>
        <time>2021-07-07T11:18:44.794Z</time>
      </trkpt>
      <trkpt lat="46.88526" lon="6.66072">
        <ele>1197.303567</ele>
        <time>2021-07-07T11:19:03.104Z</time>
      </trkpt>
      <trkpt lat="46.88495" lon="6.65983">
        <ele>1195.730606</ele>
        <time>2021-07-07T11:19:28.702Z</time>
      </trkpt>
      <trkpt lat="46.88475" lon="6.65972">
        <ele>1195.252849</ele>
        <time>2021-07-07T11:19:36.231Z</time>
      </trkpt>
      <trkpt lat="46.88443" lon="6.65969">
        <ele>1194.515482</ele>
        <time>2021-07-07T11:19:47.616Z</time>
      </trkpt>
      <trkpt lat="46.88411" lon="6.65973">
        <ele>1193.770201</ele>
        <time>2021-07-07T11:19:58.971Z</time>
      </trkpt>
      <trkpt lat="46.88365" lon="6.65974">
        <ele>1192.531919</ele>
        <time>2021-07-07T11:20:15.007Z</time>
      </trkpt>
      <trkpt lat="46.88314" lon="6.65994">
        <ele>1190.911248</ele>
        <time>2021-07-07T11:20:33.249Z</time>
      </trkpt>
      <trkpt lat="46.8822" lon="6.66096">
        <ele>1188.139939</ele>
        <time>2021-07-07T11:21:15.122Z</time>
      </trkpt>
      <trkpt lat="46.88188" lon="6.66098">
        <ele>1189.244115</ele>
        <time>2021-07-07T11:21:27.784Z</time>
      </trkpt>
      <trkpt lat="46.88116" lon="6.65964">
        <ele>1193.236311</ele>
        <time>2021-07-07T11:22:21.418Z</time>
      </trkpt>
      <trkpt lat="46.88111" lon="6.65918">
        <ele>1194.852854</ele>
        <time>2021-07-07T11:22:38.477Z</time>
      </trkpt>
      <trkpt lat="46.88094" lon="6.65889">
        <ele>1196.742282</ele>
        <time>2021-07-07T11:22:52.084Z</time>
      </trkpt>
      <trkpt lat="46.88096" lon="6.65824">
        <ele>1200.04812</ele>
        <time>2021-07-07T11:23:16.687Z</time>
      </trkpt>
      <trkpt lat="46.88086" lon="6.65811">
        <ele>1201.025127</ele>
        <time>2021-07-07T11:23:23.713Z</time>
      </trkpt>
      <trkpt lat="46.88079" lon="6.65792">
        <ele>1202.107239</ele>
        <time>2021-07-07T11:23:31.612Z</time>
      </trkpt>
      <trkpt lat="46.88044" lon="6.65683">
        <ele>1208.076822</ele>
        <time>2021-07-07T11:24:16.789Z</time>
      </trkpt>
      <trkpt lat="46.87987" lon="6.65462">
        <ele>1218.159273</ele>
        <time>2021-07-07T11:25:36.813Z</time>
      </trkpt>
      <trkpt lat="46.87972" lon="6.65437">
        <ele>1219.429198</ele>
        <time>2021-07-07T11:25:47.878Z</time>
      </trkpt>
      <trkpt lat="46.87943" lon="6.65322">
        <ele>1223.914419</ele>
        <time>2021-07-07T11:26:28.285Z</time>
      </trkpt>
      <trkpt lat="46.87936" lon="6.6528">
        <ele>1225.496655</ele>
        <time>2021-07-07T11:26:42.463Z</time>
      </trkpt>
      <trkpt lat="46.87944" lon="6.6522">
        <ele>1227.737602</ele>
        <time>2021-07-07T11:27:02.446Z</time>
      </trkpt>
      <trkpt lat="46.87912" lon="6.65079">
        <ele>1232.24862</ele>
        <time>2021-07-07T11:27:50.191Z</time>
      </trkpt>
      <trkpt lat="46.87909" lon="6.65035">
        <ele>1233.573574</ele>
        <time>2021-07-07T11:28:03.929Z</time>
      </trkpt>
      <trkpt lat="46.8791" lon="6.64986">
        <ele>1235.026616</ele>
        <time>2021-07-07T11:28:18.844Z</time>
      </trkpt>
      <trkpt lat="46.87914" lon="6.64956">
        <ele>1235.931689</ele>
        <time>2021-07-07T11:28:28.154Z</time>
      </trkpt>
      <trkpt lat="46.87934" lon="6.64906">
        <ele>1236.856639</ele>
        <time>2021-07-07T11:28:45.787Z</time>
      </trkpt>
      <trkpt lat="46.87938" lon="6.64874">
        <ele>1237.354697</ele>
        <time>2021-07-07T11:28:55.218Z</time>
      </trkpt>
      <trkpt lat="46.87961" lon="6.64696">
        <ele>1240.077583</ele>
        <time>2021-07-07T11:29:46.749Z</time>
      </trkpt>
      <trkpt lat="46.87999" lon="6.64444">
        <ele>1240.818107</ele>
        <time>2021-07-07T11:30:45.050Z</time>
      </trkpt>
      <trkpt lat="46.88002" lon="6.64392">
        <ele>1240.873642</ele>
        <time>2021-07-07T11:30:56.782Z</time>
      </trkpt>
      <trkpt lat="46.87998" lon="6.64237">
        <ele>1241.037012</ele>
        <time>2021-07-07T11:31:31.579Z</time>
      </trkpt>
      <trkpt lat="46.87999" lon="6.64227">
        <ele>1241.047282</ele>
        <time>2021-07-07T11:31:33.952Z</time>
      </trkpt>
      <trkpt lat="46.88092" lon="6.64108">
        <ele>1240.784668</ele>
        <time>2021-07-07T11:32:14.717Z</time>
      </trkpt>
      <trkpt lat="46.88101" lon="6.64086">
        <ele>1240.725885</ele>
        <time>2021-07-07T11:32:20.504Z</time>
      </trkpt>
      <trkpt lat="46.88104" lon="6.64073">
        <ele>1240.695944</ele>
        <time>2021-07-07T11:32:23.698Z</time>
      </trkpt>
      <trkpt lat="46.87993" lon="6.64135">
        <ele>1239.051872</ele>
        <time>2021-07-07T11:33:01.312Z</time>
      </trkpt>
      <trkpt lat="46.87963" lon="6.64146">
        <ele>1238.305351</ele>
        <time>2021-07-07T11:33:11.008Z</time>
      </trkpt>
      <trkpt lat="46.87875" lon="6.6413">
        <ele>1236.145667</ele>
        <time>2021-07-07T11:33:37.977Z</time>
      </trkpt>
      <trkpt lat="46.87849" lon="6.64117">
        <ele>1235.137103</ele>
        <time>2021-07-07T11:33:46.017Z</time>
      </trkpt>
      <trkpt lat="46.87839" lon="6.64108">
        <ele>1234.680349</ele>
        <time>2021-07-07T11:33:49.724Z</time>
      </trkpt>
      <trkpt lat="46.87813" lon="6.64081">
        <ele>1233.479155</ele>
        <time>2021-07-07T11:33:59.367Z</time>
      </trkpt>
      <trkpt lat="46.87794" lon="6.64056">
        <ele>1232.540962</ele>
        <time>2021-07-07T11:34:06.799Z</time>
      </trkpt>
      <trkpt lat="46.87658" lon="6.63873">
        <ele>1226.925768</ele>
        <time>2021-07-07T11:35:01.887Z</time>
      </trkpt>
      <trkpt lat="46.87589" lon="6.63728">
        <ele>1227.000401</ele>
        <time>2021-07-07T11:35:40.662Z</time>
      </trkpt>
      <trkpt lat="46.87582" lon="6.63718">
        <ele>1227.462292</ele>
        <time>2021-07-07T11:35:43.937Z</time>
      </trkpt>
      <trkpt lat="46.87585" lon="6.63716">
        <ele>1227.61501</ele>
        <time>2021-07-07T11:35:45.799Z</time>
      </trkpt>
      <trkpt lat="46.8761" lon="6.63702">
        <ele>1228.865052</ele>
        <time>2021-07-07T11:35:57.442Z</time>
      </trkpt>
      <trkpt lat="46.87607" lon="6.63681">
        <ele>1229.554231</ele>
        <time>2021-07-07T11:36:04.487Z</time>
      </trkpt>
      <trkpt lat="46.87611" lon="6.63655">
        <ele>1230.393526</ele>
        <time>2021-07-07T11:36:13.094Z</time>
      </trkpt>
      <trkpt lat="46.87632" lon="6.63561">
        <ele>1233.889481</ele>
        <time>2021-07-07T11:36:50.412Z</time>
      </trkpt>
      <trkpt lat="46.87652" lon="6.63537">
        <ele>1237.548546</ele>
        <time>2021-07-07T11:37:07.481Z</time>
      </trkpt>
      <trkpt lat="46.87659" lon="6.63501">
        <ele>1241.193732</ele>
        <time>2021-07-07T11:37:25.374Z</time>
      </trkpt>
      <trkpt lat="46.87676" lon="6.63476">
        <ele>1244.654445</ele>
        <time>2021-07-07T11:37:43.045Z</time>
      </trkpt>
      <trkpt lat="46.87683" lon="6.6345">
        <ele>1247.298664</ele>
        <time>2021-07-07T11:37:56.975Z</time>
      </trkpt>
      <trkpt lat="46.87685" lon="6.63412">
        <ele>1251.051753</ele>
        <time>2021-07-07T11:38:17.192Z</time>
      </trkpt>
      <trkpt lat="46.87698" lon="6.63323">
        <ele>1260.005628</ele>
        <time>2021-07-07T11:39:07.154Z</time>
      </trkpt>
      <trkpt lat="46.87701" lon="6.63262">
        <ele>1266.650746</ele>
        <time>2021-07-07T11:39:41.748Z</time>
      </trkpt>
      <trkpt lat="46.87698" lon="6.63253">
        <ele>1267.656531</ele>
        <time>2021-07-07T11:39:46.928Z</time>
      </trkpt>
      <trkpt lat="46.87708" lon="6.63236">
        <ele>1270.068158</ele>
        <time>2021-07-07T11:39:59.440Z</time>
      </trkpt>
      <trkpt lat="46.87711" lon="6.6322">
        <ele>1271.938153</ele>
        <time>2021-07-07T11:40:09.124Z</time>
      </trkpt>
      <trkpt lat="46.87705" lon="6.63202">
        <ele>1274.03838</ele>
        <time>2021-07-07T11:40:19.750Z</time>
      </trkpt>
      <trkpt lat="46.87715" lon="6.63174">
        <ele>1277.393869</ele>
        <time>2021-07-07T11:40:36.614Z</time>
      </trkpt>
      <trkpt lat="46.87718" lon="6.63148">
        <ele>1280.261626</ele>
        <time>2021-07-07T11:40:50.429Z</time>
      </trkpt>
      <trkpt lat="46.8771" lon="6.63127">
        <ele>1282.90452</ele>
        <time>2021-07-07T11:41:02.966Z</time>
      </trkpt>
      <trkpt lat="46.87718" lon="6.63063">
        <ele>1288.743066</ele>
        <time>2021-07-07T11:41:34.315Z</time>
      </trkpt>
      <trkpt lat="46.87714" lon="6.63057">
        <ele>1289.222677</ele>
        <time>2021-07-07T11:41:38.087Z</time>
      </trkpt>
      <trkpt lat="46.87713" lon="6.63009">
        <ele>1291.972399</ele>
        <time>2021-07-07T11:41:59.359Z</time>
      </trkpt>
      <trkpt lat="46.87725" lon="6.62975">
        <ele>1294.252648</ele>
        <time>2021-07-07T11:42:15.222Z</time>
      </trkpt>
      <trkpt lat="46.87727" lon="6.62935">
        <ele>1296.531119</ele>
        <time>2021-07-07T11:42:29.708Z</time>
      </trkpt>
      <trkpt lat="46.87714" lon="6.62917">
        <ele>1298.0749</ele>
        <time>2021-07-07T11:42:38.938Z</time>
      </trkpt>
      <trkpt lat="46.87712" lon="6.629">
        <ele>1299.035132</ele>
        <time>2021-07-07T11:42:44.349Z</time>
      </trkpt>
      <trkpt lat="46.87705" lon="6.62885">
        <ele>1300.118689</ele>
        <time>2021-07-07T11:42:50.367Z</time>
      </trkpt>
      <trkpt lat="46.87708" lon="6.6288">
        <ele>1300.509162</ele>
        <time>2021-07-07T11:42:52.523Z</time>
      </trkpt>
      <trkpt lat="46.87703" lon="6.62822">
        <ele>1303.405337</ele>
        <time>2021-07-07T11:43:10.817Z</time>
      </trkpt>
      <trkpt lat="46.87696" lon="6.62797">
        <ele>1304.352023</ele>
        <time>2021-07-07T11:43:19.363Z</time>
      </trkpt>
      <trkpt lat="46.8768" lon="6.62748">
        <ele>1306.274971</ele>
        <time>2021-07-07T11:43:36.513Z</time>
      </trkpt>
      <trkpt lat="46.8765" lon="6.6269">
        <ele>1308.82888</ele>
        <time>2021-07-07T11:43:59.641Z</time>
      </trkpt>
      <trkpt lat="46.87647" lon="6.62684">
        <ele>1309.096564</ele>
        <time>2021-07-07T11:44:01.801Z</time>
      </trkpt>
      <trkpt lat="46.87616" lon="6.62641">
        <ele>1311.300865</ele>
        <time>2021-07-07T11:44:22.868Z</time>
      </trkpt>
      <trkpt lat="46.87573" lon="6.62592">
        <ele>1314.975325</ele>
        <time>2021-07-07T11:44:50.994Z</time>
      </trkpt>
      <trkpt lat="46.8751" lon="6.62459">
        <ele>1322.83847</ele>
        <time>2021-07-07T11:45:51.999Z</time>
      </trkpt>
      <trkpt lat="46.87438" lon="6.62276">
        <ele>1330.492577</ele>
        <time>2021-07-07T11:47:02.306Z</time>
      </trkpt>
      <trkpt lat="46.87362" lon="6.62128">
        <ele>1335.664511</ele>
        <time>2021-07-07T11:47:57.482Z</time>
      </trkpt>
      <trkpt lat="46.87342" lon="6.62089">
        <ele>1336.740082</ele>
        <time>2021-07-07T11:48:11.152Z</time>
      </trkpt>
      <trkpt lat="46.87345" lon="6.62085">
        <ele>1336.87234</ele>
        <time>2021-07-07T11:48:13.302Z</time>
      </trkpt>
      <trkpt lat="46.8735" lon="6.62052">
        <ele>1337.63695</ele>
        <time>2021-07-07T11:48:23.105Z</time>
      </trkpt>
      <trkpt lat="46.87338" lon="6.61965">
        <ele>1339.80799</ele>
        <time>2021-07-07T11:48:49.939Z</time>
      </trkpt>
      <trkpt lat="46.87355" lon="6.61882">
        <ele>1344.1296</ele>
        <time>2021-07-07T11:49:17.493Z</time>
      </trkpt>
      <trkpt lat="46.87344" lon="6.61832">
        <ele>1346.754708</ele>
        <time>2021-07-07T11:49:35.153Z</time>
      </trkpt>
      <trkpt lat="46.87344" lon="6.61785">
        <ele>1349.09529</ele>
        <time>2021-07-07T11:49:53.466Z</time>
      </trkpt>
      <trkpt lat="46.87357" lon="6.61667">
        <ele>1357.23739</ele>
        <time>2021-07-07T11:50:46.939Z</time>
      </trkpt>
      <trkpt lat="46.87361" lon="6.61651">
        <ele>1358.793044</ele>
        <time>2021-07-07T11:50:54.835Z</time>
      </trkpt>
      <trkpt lat="46.87373" lon="6.61638">
        <ele>1360.78575</ele>
        <time>2021-07-07T11:51:03.485Z</time>
      </trkpt>
      <trkpt lat="46.87379" lon="6.61633">
        <ele>1361.821428</ele>
        <time>2021-07-07T11:51:09.354Z</time>
      </trkpt>
      <trkpt lat="46.87385" lon="6.61628">
        <ele>1362.714404</ele>
        <time>2021-07-07T11:51:15.418Z</time>
      </trkpt>
      <trkpt lat="46.87436" lon="6.61527">
        <ele>1374.378347</ele>
        <time>2021-07-07T11:52:17.684Z</time>
      </trkpt>
      <trkpt lat="46.87473" lon="6.61501">
        <ele>1379.862574</ele>
        <time>2021-07-07T11:52:50.064Z</time>
      </trkpt>
      <trkpt lat="46.87489" lon="6.61421">
        <ele>1387.083796</ele>
        <time>2021-07-07T11:53:33.861Z</time>
      </trkpt>
      <trkpt lat="46.87509" lon="6.61379">
        <ele>1391.570541</ele>
        <time>2021-07-07T11:53:58.401Z</time>
      </trkpt>
      <trkpt lat="46.87521" lon="6.61338">
        <ele>1395.382477</ele>
        <time>2021-07-07T11:54:18.420Z</time>
      </trkpt>
      <trkpt lat="46.87538" lon="6.61307">
        <ele>1398.830614</ele>
        <time>2021-07-07T11:54:35.202Z</time>
      </trkpt>
      <trkpt lat="46.87545" lon="6.61279">
        <ele>1400.189842</ele>
        <time>2021-07-07T11:54:46.980Z</time>
      </trkpt>
      <trkpt lat="46.87524" lon="6.6118">
        <ele>1401.789435</ele>
        <time>2021-07-07T11:55:20.950Z</time>
      </trkpt>
      <trkpt lat="46.875" lon="6.61109">
        <ele>1403.001291</ele>
        <time>2021-07-07T11:55:42.067Z</time>
      </trkpt>
      <trkpt lat="46.87484" lon="6.61036">
        <ele>1403.344233</ele>
        <time>2021-07-07T11:56:01.031Z</time>
      </trkpt>
      <trkpt lat="46.87436" lon="6.60921">
        <ele>1397.533852</ele>
        <time>2021-07-07T11:56:31.944Z</time>
      </trkpt>
      <trkpt lat="46.87424" lon="6.60861">
        <ele>1394.854418</ele>
        <time>2021-07-07T11:56:45.673Z</time>
      </trkpt>
      <trkpt lat="46.87402" lon="6.60805">
        <ele>1391.881438</ele>
        <time>2021-07-07T11:57:00.046Z</time>
      </trkpt>
      <trkpt lat="46.8739" lon="6.60759">
        <ele>1389.209914</ele>
        <time>2021-07-07T11:57:10.840Z</time>
      </trkpt>
      <trkpt lat="46.87364" lon="6.60707">
        <ele>1385.722011</ele>
        <time>2021-07-07T11:57:24.947Z</time>
      </trkpt>
      <trkpt lat="46.87342" lon="6.60614">
        <ele>1380.387979</ele>
        <time>2021-07-07T11:57:46.618Z</time>
      </trkpt>
      <trkpt lat="46.873" lon="6.60492">
        <ele>1374.347092</ele>
        <time>2021-07-07T11:58:17.391Z</time>
      </trkpt>
      <trkpt lat="46.8729" lon="6.6043">
        <ele>1371.806682</ele>
        <time>2021-07-07T11:58:31.924Z</time>
      </trkpt>
      <trkpt lat="46.87265" lon="6.60363">
        <ele>1368.744466</ele>
        <time>2021-07-07T11:58:49.809Z</time>
      </trkpt>
      <trkpt lat="46.87233" lon="6.6024">
        <ele>1366.819702</ele>
        <time>2021-07-07T11:59:21.859Z</time>
      </trkpt>
      <trkpt lat="46.87234" lon="6.60211">
        <ele>1366.561008</ele>
        <time>2021-07-07T11:59:29.182Z</time>
      </trkpt>
      <trkpt lat="46.87205" lon="6.60089">
        <ele>1365.467904</ele>
        <time>2021-07-07T12:00:03.588Z</time>
      </trkpt>
      <trkpt lat="46.87184" lon="6.59944">
        <ele>1368.634803</ele>
        <time>2021-07-07T12:00:46.111Z</time>
      </trkpt>
      <trkpt lat="46.8717" lon="6.5989">
        <ele>1369.854957</ele>
        <time>2021-07-07T12:01:04.422Z</time>
      </trkpt>
      <trkpt lat="46.87095" lon="6.59749">
        <ele>1375.462996</ele>
        <time>2021-07-07T12:02:02.576Z</time>
      </trkpt>
      <trkpt lat="46.87086" lon="6.59731">
        <ele>1376.25139</ele>
        <time>2021-07-07T12:02:09.552Z</time>
      </trkpt>
      <trkpt lat="46.8709" lon="6.5973">
        <ele>1376.445074</ele>
        <time>2021-07-07T12:02:12.776Z</time>
      </trkpt>
      <trkpt lat="46.87105" lon="6.59711">
        <ele>1377.503198</ele>
        <time>2021-07-07T12:02:21.821Z</time>
      </trkpt>
      <trkpt lat="46.87108" lon="6.5965">
        <ele>1379.681477</ele>
        <time>2021-07-07T12:02:41.829Z</time>
      </trkpt>
      <trkpt lat="46.87128" lon="6.59593">
        <ele>1381.399948</ele>
        <time>2021-07-07T12:03:03.446Z</time>
      </trkpt>
      <trkpt lat="46.87147" lon="6.59504">
        <ele>1383.494379</ele>
        <time>2021-07-07T12:03:32.886Z</time>
      </trkpt>
      <trkpt lat="46.87173" lon="6.59321">
        <ele>1385.616687</ele>
        <time>2021-07-07T12:04:25.330Z</time>
      </trkpt>
      <trkpt lat="46.87195" lon="6.59228">
        <ele>1384.471169</ele>
        <time>2021-07-07T12:04:50.532Z</time>
      </trkpt>
      <trkpt lat="46.87213" lon="6.59106">
        <ele>1382.203411</ele>
        <time>2021-07-07T12:05:20.558Z</time>
      </trkpt>
      <trkpt lat="46.87218" lon="6.59023">
        <ele>1377.928868</ele>
        <time>2021-07-07T12:05:39.760Z</time>
      </trkpt>
      <trkpt lat="46.87244" lon="6.58832">
        <ele>1369.297821</ele>
        <time>2021-07-07T12:06:21.857Z</time>
      </trkpt>
      <trkpt lat="46.8727" lon="6.58761">
        <ele>1367.955969</ele>
        <time>2021-07-07T12:06:39.398Z</time>
      </trkpt>
      <trkpt lat="46.87279" lon="6.58692">
        <ele>1366.799636</ele>
        <time>2021-07-07T12:06:57.317Z</time>
      </trkpt>
      <trkpt lat="46.87302" lon="6.58625">
        <ele>1365.557541</ele>
        <time>2021-07-07T12:07:20.145Z</time>
      </trkpt>
      <trkpt lat="46.87308" lon="6.58621">
        <ele>1366.288642</ele>
        <time>2021-07-07T12:07:22.255Z</time>
      </trkpt>
      <trkpt lat="46.87278" lon="6.5854">
        <ele>1375.180286</ele>
        <time>2021-07-07T12:08:03.328Z</time>
      </trkpt>
      <trkpt lat="46.87252" lon="6.58502">
        <ele>1380.363216</ele>
        <time>2021-07-07T12:08:30.929Z</time>
      </trkpt>
      <trkpt lat="46.87247" lon="6.58479">
        <ele>1382.681346</ele>
        <time>2021-07-07T12:08:43.311Z</time>
      </trkpt>
      <trkpt lat="46.87227" lon="6.58435">
        <ele>1387.82759</ele>
        <time>2021-07-07T12:09:16.121Z</time>
      </trkpt>
      <trkpt lat="46.87211" lon="6.58418">
        <ele>1390.552478</ele>
        <time>2021-07-07T12:09:36.420Z</time>
      </trkpt>
      <trkpt lat="46.87153" lon="6.58386">
        <ele>1400.05407</ele>
        <time>2021-07-07T12:10:34.023Z</time>
      </trkpt>
      <trkpt lat="46.87135" lon="6.58361">
        <ele>1403.840602</ele>
        <time>2021-07-07T12:10:54.289Z</time>
      </trkpt>
      <trkpt lat="46.87118" lon="6.58297">
        <ele>1411.118962</ele>
        <time>2021-07-07T12:11:29.939Z</time>
      </trkpt>
      <trkpt lat="46.87061" lon="6.58213">
        <ele>1419.178034</ele>
        <time>2021-07-07T12:12:19.100Z</time>
      </trkpt>
      <trkpt lat="46.87017" lon="6.58119">
        <ele>1420.636239</ele>
        <time>2021-07-07T12:12:52.366Z</time>
      </trkpt>
      <trkpt lat="46.87002" lon="6.58067">
        <ele>1421.358728</ele>
        <time>2021-07-07T12:13:06.324Z</time>
      </trkpt>
      <trkpt lat="46.86999" lon="6.57928">
        <ele>1419.412522</ele>
        <time>2021-07-07T12:13:39.033Z</time>
      </trkpt>
      <trkpt lat="46.87007" lon="6.57886">
        <ele>1418.233978</ele>
        <time>2021-07-07T12:13:49.168Z</time>
      </trkpt>
      <trkpt lat="46.8699" lon="6.57851">
        <ele>1417.077223</ele>
        <time>2021-07-07T12:13:59.336Z</time>
      </trkpt>
      <trkpt lat="46.86977" lon="6.57817">
        <ele>1416.042642</ele>
        <time>2021-07-07T12:14:08.583Z</time>
      </trkpt>
      <trkpt lat="46.86961" lon="6.57758">
        <ele>1414.856505</ele>
        <time>2021-07-07T12:14:24.191Z</time>
      </trkpt>
      <trkpt lat="46.86951" lon="6.57727">
        <ele>1414.873852</ele>
        <time>2021-07-07T12:14:33.024Z</time>
      </trkpt>
      <trkpt lat="46.86856" lon="6.57526">
        <ele>1414.854742</ele>
        <time>2021-07-07T12:15:40.416Z</time>
      </trkpt>
      <trkpt lat="46.86673" lon="6.57095">
        <ele>1411.832382</ele>
        <time>2021-07-07T12:17:50.916Z</time>
      </trkpt>
      <trkpt lat="46.86648" lon="6.57059">
        <ele>1410.960725</ele>
        <time>2021-07-07T12:18:03.755Z</time>
      </trkpt>
      <trkpt lat="46.86637" lon="6.57028">
        <ele>1410.391824</ele>
        <time>2021-07-07T12:18:12.142Z</time>
      </trkpt>
      <trkpt lat="46.86622" lon="6.56985">
        <ele>1409.570702</ele>
        <time>2021-07-07T12:18:24.186Z</time>
      </trkpt>
      <trkpt lat="46.86621" lon="6.56979">
        <ele>1409.47944</ele>
        <time>2021-07-07T12:18:25.551Z</time>
      </trkpt>
      <trkpt lat="46.86611" lon="6.56941">
        <ele>1408.784351</ele>
        <time>2021-07-07T12:18:35.767Z</time>
      </trkpt>
      <trkpt lat="46.86595" lon="6.56889">
        <ele>1407.833191</ele>
        <time>2021-07-07T12:18:49.698Z</time>
      </trkpt>
      <trkpt lat="46.86524" lon="6.56713">
        <ele>1405.776208</ele>
        <time>2021-07-07T12:19:40.774Z</time>
      </trkpt>
      <trkpt lat="46.86485" lon="6.56649">
        <ele>1405.540969</ele>
        <time>2021-07-07T12:20:03.631Z</time>
      </trkpt>
      <trkpt lat="46.86479" lon="6.56637">
        <ele>1405.864127</ele>
        <time>2021-07-07T12:20:07.752Z</time>
      </trkpt>
      <trkpt lat="46.86468" lon="6.56611">
        <ele>1406.526991</ele>
        <time>2021-07-07T12:20:16.311Z</time>
      </trkpt>
      <trkpt lat="46.86373" lon="6.56526">
        <ele>1410.069035</ele>
        <time>2021-07-07T12:21:05.732Z</time>
      </trkpt>
      <trkpt lat="46.86319" lon="6.56501">
        <ele>1412.529922</ele>
        <time>2021-07-07T12:21:33.320Z</time>
      </trkpt>
      <trkpt lat="46.86297" lon="6.56474">
        <ele>1413.9971</ele>
        <time>2021-07-07T12:21:47.284Z</time>
      </trkpt>
      <trkpt lat="46.86276" lon="6.5646">
        <ele>1415.231848</ele>
        <time>2021-07-07T12:21:58.724Z</time>
      </trkpt>
      <trkpt lat="46.86237" lon="6.56454">
        <ele>1417.249492</ele>
        <time>2021-07-07T12:22:17.224Z</time>
      </trkpt>
      <trkpt lat="46.86197" lon="6.5643">
        <ele>1419.518779</ele>
        <time>2021-07-07T12:22:37.965Z</time>
      </trkpt>
      <trkpt lat="46.86134" lon="6.56409">
        <ele>1422.997745</ele>
        <time>2021-07-07T12:23:07.956Z</time>
      </trkpt>
      <trkpt lat="46.86108" lon="6.56409">
        <ele>1424.39787</ele>
        <time>2021-07-07T12:23:19.726Z</time>
      </trkpt>
      <trkpt lat="46.861" lon="6.56356">
        <ele>1426.3716</ele>
        <time>2021-07-07T12:23:37.673Z</time>
      </trkpt>
      <trkpt lat="46.86093" lon="6.56281">
        <ele>1429.178205</ele>
        <time>2021-07-07T12:24:03.089Z</time>
      </trkpt>
      <trkpt lat="46.86077" lon="6.56245">
        <ele>1431.068002</ele>
        <time>2021-07-07T12:24:17.895Z</time>
      </trkpt>
      <trkpt lat="46.86075" lon="6.56208">
        <ele>1432.888815</ele>
        <time>2021-07-07T12:24:30.606Z</time>
      </trkpt>
      <trkpt lat="46.8607" lon="6.5618">
        <ele>1434.373747</ele>
        <time>2021-07-07T12:24:40.938Z</time>
      </trkpt>
      <trkpt lat="46.86067" lon="6.56168">
        <ele>1434.986942</ele>
        <time>2021-07-07T12:24:45.239Z</time>
      </trkpt>
      <trkpt lat="46.8604" lon="6.56004">
        <ele>1443.498106</ele>
        <time>2021-07-07T12:25:37.703Z</time>
      </trkpt>
      <trkpt lat="46.86033" lon="6.55917">
        <ele>1448.804341</ele>
        <time>2021-07-07T12:26:06.509Z</time>
      </trkpt>
      <trkpt lat="46.86005" lon="6.55774">
        <ele>1457.807145</ele>
        <time>2021-07-07T12:26:56.079Z</time>
      </trkpt>
      <trkpt lat="46.85987" lon="6.55625">
        <ele>1468.082245</ele>
        <time>2021-07-07T12:27:50.758Z</time>
      </trkpt>
      <trkpt lat="46.85943" lon="6.55478">
        <ele>1479.150074</ele>
        <time>2021-07-07T12:28:47.750Z</time>
      </trkpt>
      <trkpt lat="46.85923" lon="6.5537">
        <ele>1486.997153</ele>
        <time>2021-07-07T12:29:29.339Z</time>
      </trkpt>
      <trkpt lat="46.85884" lon="6.55284">
        <ele>1494.222455</ele>
        <time>2021-07-07T12:30:05.931Z</time>
      </trkpt>
      <trkpt lat="46.85886" lon="6.55271">
        <ele>1495.181393</ele>
        <time>2021-07-07T12:30:11.467Z</time>
      </trkpt>
      <trkpt lat="46.85882" lon="6.55262">
        <ele>1495.900117</ele>
        <time>2021-07-07T12:30:14.965Z</time>
      </trkpt>
      <trkpt lat="46.85853" lon="6.55222">
        <ele>1499.619745</ele>
        <time>2021-07-07T12:30:38.676Z</time>
      </trkpt>
      <trkpt lat="46.85822" lon="6.55204">
        <ele>1502.636217</ele>
        <time>2021-07-07T12:30:57.791Z</time>
      </trkpt>
      <trkpt lat="46.85807" lon="6.55187">
        <ele>1504.384729</ele>
        <time>2021-07-07T12:31:08.237Z</time>
      </trkpt>
      <trkpt lat="46.85782" lon="6.55144">
        <ele>1508.017025</ele>
        <time>2021-07-07T12:31:31.986Z</time>
      </trkpt>
      <trkpt lat="46.85779" lon="6.55125">
        <ele>1509.242522</ele>
        <time>2021-07-07T12:31:40.402Z</time>
      </trkpt>
      <trkpt lat="46.8577" lon="6.55126">
        <ele>1510.031021</ele>
        <time>2021-07-07T12:31:45.352Z</time>
      </trkpt>
      <trkpt lat="46.85766" lon="6.55111">
        <ele>1511.067368</ele>
        <time>2021-07-07T12:31:51.834Z</time>
      </trkpt>
      <trkpt lat="46.85692" lon="6.55028">
        <ele>1518.241229</ele>
        <time>2021-07-07T12:32:42.460Z</time>
      </trkpt>
      <trkpt lat="46.85653" lon="6.54962">
        <ele>1522.715593</ele>
        <time>2021-07-07T12:33:13.986Z</time>
      </trkpt>
      <trkpt lat="46.85617" lon="6.54824">
        <ele>1528.874858</ele>
        <time>2021-07-07T12:34:04.877Z</time>
      </trkpt>
      <trkpt lat="46.85623" lon="6.54785">
        <ele>1530.286501</ele>
        <time>2021-07-07T12:34:18.106Z</time>
      </trkpt>
      <trkpt lat="46.85621" lon="6.54773">
        <ele>1530.699461</ele>
        <time>2021-07-07T12:34:21.945Z</time>
      </trkpt>
      <trkpt lat="46.85581" lon="6.54704">
        <ele>1533.876319</ele>
        <time>2021-07-07T12:34:50.357Z</time>
      </trkpt>
      <trkpt lat="46.85455" lon="6.54542">
        <ele>1540.582489</ele>
        <time>2021-07-07T12:36:05.557Z</time>
      </trkpt>
      <trkpt lat="46.85429" lon="6.545">
        <ele>1542.146289</ele>
        <time>2021-07-07T12:36:22.944Z</time>
      </trkpt>
      <trkpt lat="46.85387" lon="6.54389">
        <ele>1546.297874</ele>
        <time>2021-07-07T12:37:01.512Z</time>
      </trkpt>
      <trkpt lat="46.85353" lon="6.54238">
        <ele>1552.050578</ele>
        <time>2021-07-07T12:37:54.910Z</time>
      </trkpt>
      <trkpt lat="46.85344" lon="6.5416">
        <ele>1556.014091</ele>
        <time>2021-07-07T12:38:22.851Z</time>
      </trkpt>
      <trkpt lat="46.85344" lon="6.5416">
        <ele>1556.014091</ele>
        <time>2021-07-07T12:38:22.851Z</time>
      </trkpt>
      <trkpt lat="46.85344" lon="6.54157">
        <ele>1556.161465</ele>
        <time>2021-07-07T12:38:23.910Z</time>
      </trkpt>
      <trkpt lat="46.85313" lon="6.54119">
        <ele>1559.152182</ele>
        <time>2021-07-07T12:38:51.073Z</time>
      </trkpt>
      <trkpt lat="46.85285" lon="6.54073">
        <ele>1562.251239</ele>
        <time>2021-07-07T12:39:18.475Z</time>
      </trkpt>
      <trkpt lat="46.85251" lon="6.53973">
        <ele>1565.691928</ele>
        <time>2021-07-07T12:40:06.176Z</time>
      </trkpt>
      <trkpt lat="46.85237" lon="6.53951">
        <ele>1566.406064</ele>
        <time>2021-07-07T12:40:18.673Z</time>
      </trkpt>
      <trkpt lat="46.85224" lon="6.53947">
        <ele>1566.88722</ele>
        <time>2021-07-07T12:40:24.536Z</time>
      </trkpt>
      <trkpt lat="46.8519" lon="6.53949">
        <ele>1568.082053</ele>
        <time>2021-07-07T12:40:38.895Z</time>
      </trkpt>
      <trkpt lat="46.85154" lon="6.5391">
        <ele>1569.638857</ele>
        <time>2021-07-07T12:40:56.288Z</time>
      </trkpt>
      <trkpt lat="46.85135" lon="6.53898">
        <ele>1569.453667</ele>
        <time>2021-07-07T12:41:04.239Z</time>
      </trkpt>
      <trkpt lat="46.851" lon="6.539">
        <ele>1567.592789</ele>
        <time>2021-07-07T12:41:16.674Z</time>
      </trkpt>
      <trkpt lat="46.85084" lon="6.539">
        <ele>1566.730083</ele>
        <time>2021-07-07T12:41:22.167Z</time>
      </trkpt>
      <trkpt lat="46.85064" lon="6.5391">
        <ele>1565.581458</ele>
        <time>2021-07-07T12:41:30.867Z</time>
      </trkpt>
      <trkpt lat="46.85063" lon="6.53903">
        <ele>1565.309433</ele>
        <time>2021-07-07T12:41:32.437Z</time>
      </trkpt>
      <trkpt lat="46.85063" lon="6.53895">
        <ele>1565.032051</ele>
        <time>2021-07-07T12:41:33.914Z</time>
      </trkpt>
      <trkpt lat="46.85056" lon="6.53884">
        <ele>1564.450804</ele>
        <time>2021-07-07T12:41:37.881Z</time>
      </trkpt>
      <trkpt lat="46.85043" lon="6.53877">
        <ele>1563.693771</ele>
        <time>2021-07-07T12:41:43.640Z</time>
      </trkpt>
      <trkpt lat="46.85029" lon="6.53889">
        <ele>1562.840062</ele>
        <time>2021-07-07T12:41:49.721Z</time>
      </trkpt>
      <trkpt lat="46.85021" lon="6.53889">
        <ele>1562.408681</ele>
        <time>2021-07-07T12:41:52.711Z</time>
      </trkpt>
      <trkpt lat="46.85008" lon="6.53876">
        <ele>1561.546153</ele>
        <time>2021-07-07T12:41:59.158Z</time>
      </trkpt>
      <trkpt lat="46.85003" lon="6.53866">
        <ele>1561.099786</ele>
        <time>2021-07-07T12:42:02.267Z</time>
      </trkpt>
      <trkpt lat="46.84999" lon="6.53861">
        <ele>1560.853659</ele>
        <time>2021-07-07T12:42:03.874Z</time>
      </trkpt>
      <trkpt lat="46.84964" lon="6.53791">
        <ele>1555.199318</ele>
        <time>2021-07-07T12:42:25.809Z</time>
      </trkpt>
      <trkpt lat="46.84952" lon="6.53761">
        <ele>1552.836468</ele>
        <time>2021-07-07T12:42:34.177Z</time>
      </trkpt>
      <trkpt lat="46.84942" lon="6.53737">
        <ele>1550.838262</ele>
        <time>2021-07-07T12:42:41.182Z</time>
      </trkpt>
      <trkpt lat="46.84935" lon="6.53727">
        <ele>1549.793742</ele>
        <time>2021-07-07T12:42:44.903Z</time>
      </trkpt>
      <trkpt lat="46.84904" lon="6.53689">
        <ele>1545.726251</ele>
        <time>2021-07-07T12:42:59.285Z</time>
      </trkpt>
      <trkpt lat="46.84883" lon="6.53676">
        <ele>1543.36238</ele>
        <time>2021-07-07T12:43:07.611Z</time>
      </trkpt>
      <trkpt lat="46.84869" lon="6.53668">
        <ele>1541.872622</ele>
        <time>2021-07-07T12:43:13.137Z</time>
      </trkpt>
      <trkpt lat="46.84866" lon="6.53665">
        <ele>1541.58817</ele>
        <time>2021-07-07T12:43:14.336Z</time>
      </trkpt>
      <trkpt lat="46.84693" lon="6.53472">
        <ele>1526.041544</ele>
        <time>2021-07-07T12:44:37.063Z</time>
      </trkpt>
      <trkpt lat="46.84584" lon="6.53307">
        <ele>1523.479348</ele>
        <time>2021-07-07T12:45:46.834Z</time>
      </trkpt>
      <trkpt lat="46.84498" lon="6.53209">
        <ele>1527.968811</ele>
        <time>2021-07-07T12:46:45.312Z</time>
      </trkpt>
      <trkpt lat="46.84465" lon="6.53152">
        <ele>1530.063041</ele>
        <time>2021-07-07T12:47:15.987Z</time>
      </trkpt>
      <trkpt lat="46.84443" lon="6.53139">
        <ele>1531.779076</ele>
        <time>2021-07-07T12:47:31.401Z</time>
      </trkpt>
      <trkpt lat="46.84436" lon="6.53147">
        <ele>1532.397488</ele>
        <time>2021-07-07T12:47:36.859Z</time>
      </trkpt>
      <trkpt lat="46.8443" lon="6.53146">
        <ele>1532.854611</ele>
        <time>2021-07-07T12:47:40.938Z</time>
      </trkpt>
      <trkpt lat="46.84387" lon="6.53031">
        <ele>1539.216013</ele>
        <time>2021-07-07T12:48:38.417Z</time>
      </trkpt>
      <trkpt lat="46.84345" lon="6.52939">
        <ele>1543.298533</ele>
        <time>2021-07-07T12:49:24.060Z</time>
      </trkpt>
      <trkpt lat="46.84315" lon="6.5286">
        <ele>1544.21399</ele>
        <time>2021-07-07T12:49:58.023Z</time>
      </trkpt>
      <trkpt lat="46.84221" lon="6.52659">
        <ele>1538.988361</ele>
        <time>2021-07-07T12:51:10.031Z</time>
      </trkpt>
      <trkpt lat="46.84021" lon="6.52509">
        <ele>1510.704282</ele>
        <time>2021-07-07T12:52:29.885Z</time>
      </trkpt>
      <trkpt lat="46.84005" lon="6.52504">
        <ele>1508.139818</ele>
        <time>2021-07-07T12:52:35.623Z</time>
      </trkpt>
      <trkpt lat="46.83995" lon="6.52492">
        <ele>1506.156878</ele>
        <time>2021-07-07T12:52:40.062Z</time>
      </trkpt>
      <trkpt lat="46.83927" lon="6.52463">
        <ele>1494.187471</ele>
        <time>2021-07-07T12:53:05.023Z</time>
      </trkpt>
      <trkpt lat="46.83877" lon="6.52449">
        <ele>1485.01382</ele>
        <time>2021-07-07T12:53:23.090Z</time>
      </trkpt>
      <trkpt lat="46.83832" lon="6.52462">
        <ele>1476.794817</ele>
        <time>2021-07-07T12:53:39.300Z</time>
      </trkpt>
      <trkpt lat="46.83816" lon="6.52444">
        <ele>1473.271467</ele>
        <time>2021-07-07T12:53:46.262Z</time>
      </trkpt>
      <trkpt lat="46.83803" lon="6.52447">
        <ele>1470.850879</ele>
        <time>2021-07-07T12:53:51.045Z</time>
      </trkpt>
      <trkpt lat="46.83753" lon="6.52423">
        <ele>1462.369403</ele>
        <time>2021-07-07T12:54:09.517Z</time>
      </trkpt>
      <trkpt lat="46.83682" lon="6.5237">
        <ele>1449.848133</ele>
        <time>2021-07-07T12:54:37.729Z</time>
      </trkpt>
      <trkpt lat="46.83665" lon="6.52362">
        <ele>1447.056151</ele>
        <time>2021-07-07T12:54:44.019Z</time>
      </trkpt>
      <trkpt lat="46.83657" lon="6.52368">
        <ele>1445.629327</ele>
        <time>2021-07-07T12:54:47.255Z</time>
      </trkpt>
      <trkpt lat="46.83648" lon="6.52377">
        <ele>1443.885858</ele>
        <time>2021-07-07T12:54:51.204Z</time>
      </trkpt>
      <trkpt lat="46.83645" lon="6.52381">
        <ele>1443.23347</ele>
        <time>2021-07-07T12:54:52.697Z</time>
      </trkpt>
      <trkpt lat="46.83627" lon="6.5235">
        <ele>1439.389366</ele>
        <time>2021-07-07T12:55:01.273Z</time>
      </trkpt>
      <trkpt lat="46.83615" lon="6.52349">
        <ele>1438.222646</ele>
        <time>2021-07-07T12:55:04.771Z</time>
      </trkpt>
      <trkpt lat="46.83574" lon="6.52307">
        <ele>1433.199543</ele>
        <time>2021-07-07T12:55:19.907Z</time>
      </trkpt>
      <trkpt lat="46.8357" lon="6.52293">
        <ele>1432.195801</ele>
        <time>2021-07-07T12:55:22.936Z</time>
      </trkpt>
      <trkpt lat="46.8356" lon="6.52287">
        <ele>1431.071893</ele>
        <time>2021-07-07T12:55:26.432Z</time>
      </trkpt>
      <trkpt lat="46.83559" lon="6.52271">
        <ele>1429.974172</ele>
        <time>2021-07-07T12:55:29.753Z</time>
      </trkpt>
      <trkpt lat="46.83541" lon="6.52251">
        <ele>1427.800464</ele>
        <time>2021-07-07T12:55:36.684Z</time>
      </trkpt>
      <trkpt lat="46.83503" lon="6.52169">
        <ele>1423.199496</ele>
        <time>2021-07-07T12:56:00.065Z</time>
      </trkpt>
      <trkpt lat="46.83495" lon="6.52164">
        <ele>1423.593632</ele>
        <time>2021-07-07T12:56:03.964Z</time>
      </trkpt>
      <trkpt lat="46.83501" lon="6.52148">
        <ele>1424.127233</ele>
        <time>2021-07-07T12:56:08.630Z</time>
      </trkpt>
      <trkpt lat="46.83499" lon="6.52129">
        <ele>1424.694711</ele>
        <time>2021-07-07T12:56:13.586Z</time>
      </trkpt>
      <trkpt lat="46.835" lon="6.52115">
        <ele>1425.108597</ele>
        <time>2021-07-07T12:56:18.381Z</time>
      </trkpt>
      <trkpt lat="46.83517" lon="6.51979">
        <ele>1429.212687</ele>
        <time>2021-07-07T12:57:04.563Z</time>
      </trkpt>
      <trkpt lat="46.83511" lon="6.51899">
        <ele>1432.280252</ele>
        <time>2021-07-07T12:57:42.498Z</time>
      </trkpt>
      <trkpt lat="46.83499" lon="6.51855">
        <ele>1434.412006</ele>
        <time>2021-07-07T12:58:03.434Z</time>
      </trkpt>
      <trkpt lat="46.83426" lon="6.5172">
        <ele>1442.130282</ele>
        <time>2021-07-07T12:59:01.173Z</time>
      </trkpt>
      <trkpt lat="46.8339" lon="6.51692">
        <ele>1437.890213</ele>
        <time>2021-07-07T12:59:16.466Z</time>
      </trkpt>
      <trkpt lat="46.83374" lon="6.51672">
        <ele>1435.612511</ele>
        <time>2021-07-07T12:59:23.941Z</time>
      </trkpt>
      <trkpt lat="46.83365" lon="6.51649">
        <ele>1433.675533</ele>
        <time>2021-07-07T12:59:30.135Z</time>
      </trkpt>
      <trkpt lat="46.83358" lon="6.51645">
        <ele>1432.798687</ele>
        <time>2021-07-07T12:59:32.686Z</time>
      </trkpt>
      <trkpt lat="46.83341" lon="6.51616">
        <ele>1430.002224</ele>
        <time>2021-07-07T12:59:40.497Z</time>
      </trkpt>
      <trkpt lat="46.83334" lon="6.51583">
        <ele>1427.494301</ele>
        <time>2021-07-07T12:59:47.445Z</time>
      </trkpt>
      <trkpt lat="46.8332" lon="6.51577">
        <ele>1425.850157</ele>
        <time>2021-07-07T12:59:52.109Z</time>
      </trkpt>
      <trkpt lat="46.83285" lon="6.51538">
        <ele>1418.435042</ele>
        <time>2021-07-07T13:00:05.111Z</time>
      </trkpt>
      <trkpt lat="46.83267" lon="6.51517">
        <ele>1412.193965</ele>
        <time>2021-07-07T13:00:12.070Z</time>
      </trkpt>
      <trkpt lat="46.83262" lon="6.51502">
        <ele>1408.991774</ele>
        <time>2021-07-07T13:00:15.558Z</time>
      </trkpt>
      <trkpt lat="46.83261" lon="6.51499">
        <ele>1408.436297</ele>
        <time>2021-07-07T13:00:16.673Z</time>
      </trkpt>
      <trkpt lat="46.83256" lon="6.51489">
        <ele>1406.138294</ele>
        <time>2021-07-07T13:00:19.609Z</time>
      </trkpt>
      <trkpt lat="46.83249" lon="6.51463">
        <ele>1400.956203</ele>
        <time>2021-07-07T13:00:25.265Z</time>
      </trkpt>
      <trkpt lat="46.83223" lon="6.51438">
        <ele>1392.399925</ele>
        <time>2021-07-07T13:00:35.295Z</time>
      </trkpt>
      <trkpt lat="46.83209" lon="6.51431">
        <ele>1388.214564</ele>
        <time>2021-07-07T13:00:40.389Z</time>
      </trkpt>
      <trkpt lat="46.83196" lon="6.51404">
        <ele>1382.076315</ele>
        <time>2021-07-07T13:00:47.467Z</time>
      </trkpt>
      <trkpt lat="46.83167" lon="6.51374">
        <ele>1372.327126</ele>
        <time>2021-07-07T13:00:59.435Z</time>
      </trkpt>
      <trkpt lat="46.83143" lon="6.51333">
        <ele>1361.914336</ele>
        <time>2021-07-07T13:01:12.211Z</time>
      </trkpt>
      <trkpt lat="46.83119" lon="6.51251">
        <ele>1344.632489</ele>
        <time>2021-07-07T13:01:31.202Z</time>
      </trkpt>
      <trkpt lat="46.83053" lon="6.51254">
        <ele>1325.977518</ele>
        <time>2021-07-07T13:01:51.800Z</time>
      </trkpt>
      <trkpt lat="46.83048" lon="6.51215">
        <ele>1319.083362</ele>
        <time>2021-07-07T13:02:00.123Z</time>
      </trkpt>
      <trkpt lat="46.83047" lon="6.51179">
        <ele>1313.248965</ele>
        <time>2021-07-07T13:02:07.794Z</time>
      </trkpt>
      <trkpt lat="46.83055" lon="6.5112">
        <ele>1303.585018</ele>
        <time>2021-07-07T13:02:20.183Z</time>
      </trkpt>
      <trkpt lat="46.83059" lon="6.51105">
        <ele>1300.961975</ele>
        <time>2021-07-07T13:02:23.496Z</time>
      </trkpt>
      <trkpt lat="46.83049" lon="6.511">
        <ele>1298.473842</ele>
        <time>2021-07-07T13:02:26.942Z</time>
      </trkpt>
      <trkpt lat="46.83039" lon="6.51091">
        <ele>1295.803003</ele>
        <time>2021-07-07T13:02:30.316Z</time>
      </trkpt>
      <trkpt lat="46.83034" lon="6.51077">
        <ele>1293.234138</ele>
        <time>2021-07-07T13:02:33.567Z</time>
      </trkpt>
      <trkpt lat="46.83022" lon="6.51018">
        <ele>1283.249659</ele>
        <time>2021-07-07T13:02:46.200Z</time>
      </trkpt>
      <trkpt lat="46.83014" lon="6.51">
        <ele>1279.916821</ele>
        <time>2021-07-07T13:02:50.459Z</time>
      </trkpt>
      <trkpt lat="46.83013" lon="6.50982">
        <ele>1277.096241</ele>
        <time>2021-07-07T13:02:54.247Z</time>
      </trkpt>
      <trkpt lat="46.83018" lon="6.50933">
        <ele>1269.484423</ele>
        <time>2021-07-07T13:03:04.449Z</time>
      </trkpt>
      <trkpt lat="46.83015" lon="6.50902">
        <ele>1264.770489</ele>
        <time>2021-07-07T13:03:11.370Z</time>
      </trkpt>
      <trkpt lat="46.82999" lon="6.50855">
        <ele>1256.706411</ele>
        <time>2021-07-07T13:03:22.104Z</time>
      </trkpt>
      <trkpt lat="46.82983" lon="6.50784">
        <ele>1245.405417</ele>
        <time>2021-07-07T13:03:37.218Z</time>
      </trkpt>
      <trkpt lat="46.82973" lon="6.50741">
        <ele>1238.278894</ele>
        <time>2021-07-07T13:03:46.719Z</time>
      </trkpt>
      <trkpt lat="46.82956" lon="6.50747">
        <ele>1234.325362</ele>
        <time>2021-07-07T13:03:51.978Z</time>
      </trkpt>
      <trkpt lat="46.82953" lon="6.50747">
        <ele>1233.690326</ele>
        <time>2021-07-07T13:03:53.122Z</time>
      </trkpt>
      <trkpt lat="46.82834" lon="6.50723">
        <ele>1206.74537</ele>
        <time>2021-07-07T13:04:28.932Z</time>
      </trkpt>
      <trkpt lat="46.82794" lon="6.50706">
        <ele>1197.711232</ele>
        <time>2021-07-07T13:04:41.108Z</time>
      </trkpt>
      <trkpt lat="46.82779" lon="6.507">
        <ele>1194.305819</ele>
        <time>2021-07-07T13:04:45.902Z</time>
      </trkpt>
      <trkpt lat="46.82774" lon="6.50698">
        <ele>1193.295891</ele>
        <time>2021-07-07T13:04:47.590Z</time>
      </trkpt>
      <trkpt lat="46.82549" lon="6.50565">
        <ele>1143.985382</ele>
        <time>2021-07-07T13:05:59.593Z</time>
      </trkpt>
      <trkpt lat="46.82391" lon="6.50429">
        <ele>1111.294117</ele>
        <time>2021-07-07T13:06:54.368Z</time>
      </trkpt>
      <trkpt lat="46.82388" lon="6.50425">
        <ele>1110.579345</ele>
        <time>2021-07-07T13:06:55.822Z</time>
      </trkpt>
      <trkpt lat="46.82348" lon="6.50398">
        <ele>1103.411049</ele>
        <time>2021-07-07T13:07:06.908Z</time>
      </trkpt>
      <trkpt lat="46.82344" lon="6.50395">
        <ele>1102.598037</ele>
        <time>2021-07-07T13:07:08.146Z</time>
      </trkpt>
      <trkpt lat="46.8233" lon="6.50386">
        <ele>1100.036094</ele>
        <time>2021-07-07T13:07:12.134Z</time>
      </trkpt>
      <trkpt lat="46.82305" lon="6.50361">
        <ele>1096.263498</ele>
        <time>2021-07-07T13:07:19.875Z</time>
      </trkpt>
      <trkpt lat="46.82299" lon="6.50339">
        <ele>1094.69984</ele>
        <time>2021-07-07T13:07:23.974Z</time>
      </trkpt>
      <trkpt lat="46.82292" lon="6.50313">
        <ele>1092.809442</ele>
        <time>2021-07-07T13:07:29.062Z</time>
      </trkpt>
      <trkpt lat="46.82284" lon="6.50323">
        <ele>1091.801866</ele>
        <time>2021-07-07T13:07:31.775Z</time>
      </trkpt>
      <trkpt lat="46.82276" lon="6.50315">
        <ele>1090.878476</ele>
        <time>2021-07-07T13:07:34.184Z</time>
      </trkpt>
      <trkpt lat="46.82257" lon="6.50298">
        <ele>1088.652171</ele>
        <time>2021-07-07T13:07:40.263Z</time>
      </trkpt>
      <trkpt lat="46.8226" lon="6.50289">
        <ele>1087.963433</ele>
        <time>2021-07-07T13:07:42.269Z</time>
      </trkpt>
      <trkpt lat="46.82247" lon="6.50276">
        <ele>1086.455013</ele>
        <time>2021-07-07T13:07:46.371Z</time>
      </trkpt>
      <trkpt lat="46.82226" lon="6.5026">
        <ele>1084.163934</ele>
        <time>2021-07-07T13:07:52.909Z</time>
      </trkpt>
      <trkpt lat="46.82216" lon="6.50251">
        <ele>1083.033828</ele>
        <time>2021-07-07T13:07:56.180Z</time>
      </trkpt>
      <trkpt lat="46.82202" lon="6.5024">
        <ele>1081.482533</ele>
        <time>2021-07-07T13:08:00.722Z</time>
      </trkpt>
      <trkpt lat="46.822" lon="6.50241">
        <ele>1081.216176</ele>
        <time>2021-07-07T13:08:01.504Z</time>
      </trkpt>
      <trkpt lat="46.82197" lon="6.50241">
        <ele>1080.974521</ele>
        <time>2021-07-07T13:08:02.212Z</time>
      </trkpt>
      <trkpt lat="46.82195" lon="6.50236">
        <ele>1080.549357</ele>
        <time>2021-07-07T13:08:03.423Z</time>
      </trkpt>
      <trkpt lat="46.8219" lon="6.50225">
        <ele>1080.013987</ele>
        <time>2021-07-07T13:08:05.916Z</time>
      </trkpt>
      <trkpt lat="46.82186" lon="6.50221">
        <ele>1079.73721</ele>
        <time>2021-07-07T13:08:07.325Z</time>
      </trkpt>
      <trkpt lat="46.82182" lon="6.50218">
        <ele>1079.44222</ele>
        <time>2021-07-07T13:08:08.829Z</time>
      </trkpt>
      <trkpt lat="46.8218" lon="6.50222">
        <ele>1079.258441</ele>
        <time>2021-07-07T13:08:09.766Z</time>
      </trkpt>
      <trkpt lat="46.82166" lon="6.50216">
        <ele>1078.390539</ele>
        <time>2021-07-07T13:08:14.138Z</time>
      </trkpt>
      <trkpt lat="46.8212" lon="6.50209">
        <ele>1075.793723</ele>
        <time>2021-07-07T13:08:27.223Z</time>
      </trkpt>
      <trkpt lat="46.82065" lon="6.50201">
        <ele>1072.616497</ele>
        <time>2021-07-07T13:08:43.288Z</time>
      </trkpt>
      <trkpt lat="46.82038" lon="6.50196">
        <ele>1071.072438</ele>
        <time>2021-07-07T13:08:51.045Z</time>
      </trkpt>
      <trkpt lat="46.82013" lon="6.50191">
        <ele>1069.547832</ele>
        <time>2021-07-07T13:08:58.293Z</time>
      </trkpt>
      <trkpt lat="46.82" lon="6.5019">
        <ele>1068.710725</ele>
        <time>2021-07-07T13:09:02.086Z</time>
      </trkpt>
      <trkpt lat="46.81993" lon="6.50192">
        <ele>1068.259833</ele>
        <time>2021-07-07T13:09:04.118Z</time>
      </trkpt>
      <trkpt lat="46.81987" lon="6.50196">
        <ele>1067.854624</ele>
        <time>2021-07-07T13:09:05.885Z</time>
      </trkpt>
      <trkpt lat="46.81983" lon="6.5019">
        <ele>1067.448453</ele>
        <time>2021-07-07T13:09:07.652Z</time>
      </trkpt>
      <trkpt lat="46.81977" lon="6.50185">
        <ele>1067.032601</ele>
        <time>2021-07-07T13:09:09.515Z</time>
      </trkpt>
      <trkpt lat="46.81972" lon="6.5018">
        <ele>1066.61951</ele>
        <time>2021-07-07T13:09:11.384Z</time>
      </trkpt>
      <trkpt lat="46.8197" lon="6.50179">
        <ele>1066.471084</ele>
        <time>2021-07-07T13:09:12.049Z</time>
      </trkpt>
      <trkpt lat="46.81957" lon="6.50173">
        <ele>1065.64265</ele>
        <time>2021-07-07T13:09:15.709Z</time>
      </trkpt>
      <trkpt lat="46.81948" lon="6.5017">
        <ele>1065.056192</ele>
        <time>2021-07-07T13:09:18.244Z</time>
      </trkpt>
      <trkpt lat="46.81932" lon="6.50164">
        <ele>1063.956343</ele>
        <time>2021-07-07T13:09:23.119Z</time>
      </trkpt>
      <trkpt lat="46.81923" lon="6.5016">
        <ele>1063.3527</ele>
        <time>2021-07-07T13:09:25.754Z</time>
      </trkpt>
      <trkpt lat="46.81915" lon="6.50156">
        <ele>1062.806078</ele>
        <time>2021-07-07T13:09:28.105Z</time>
      </trkpt>
      <trkpt lat="46.8187" lon="6.50138">
        <ele>1059.809418</ele>
        <time>2021-07-07T13:09:41.184Z</time>
      </trkpt>
      <trkpt lat="46.81865" lon="6.50137">
        <ele>1059.506345</ele>
        <time>2021-07-07T13:09:42.503Z</time>
      </trkpt>
      <trkpt lat="46.81819" lon="6.50118">
        <ele>1056.278769</ele>
        <time>2021-07-07T13:09:55.681Z</time>
      </trkpt>
      <trkpt lat="46.81785" lon="6.50101">
        <ele>1053.782837</ele>
        <time>2021-07-07T13:10:05.713Z</time>
      </trkpt>
      <trkpt lat="46.81751" lon="6.50081">
        <ele>1051.243755</ele>
        <time>2021-07-07T13:10:15.941Z</time>
      </trkpt>
      <trkpt lat="46.81728" lon="6.50067">
        <ele>1049.521294</ele>
        <time>2021-07-07T13:10:22.834Z</time>
      </trkpt>
      <trkpt lat="46.81711" lon="6.50055">
        <ele>1048.217016</ele>
        <time>2021-07-07T13:10:28.105Z</time>
      </trkpt>
      <trkpt lat="46.81703" lon="6.5005">
        <ele>1047.604429</ele>
        <time>2021-07-07T13:10:31.066Z</time>
      </trkpt>
      <trkpt lat="46.81677" lon="6.50031">
        <ele>1045.916422</ele>
        <time>2021-07-07T13:10:40.540Z</time>
      </trkpt>
      <trkpt lat="46.81625" lon="6.49989">
        <ele>1043.764126</ele>
        <time>2021-07-07T13:11:00.927Z</time>
      </trkpt>
      <trkpt lat="46.81618" lon="6.49984">
        <ele>1043.469537</ele>
        <time>2021-07-07T13:11:03.663Z</time>
      </trkpt>
      <trkpt lat="46.81606" lon="6.49978">
        <ele>1043.02565</ele>
        <time>2021-07-07T13:11:08.010Z</time>
      </trkpt>
      <trkpt lat="46.81601" lon="6.49977">
        <ele>1042.857406</ele>
        <time>2021-07-07T13:11:09.604Z</time>
      </trkpt>
      <trkpt lat="46.81599" lon="6.49961">
        <ele>1042.466569</ele>
        <time>2021-07-07T13:11:13.564Z</time>
      </trkpt>
      <trkpt lat="46.81595" lon="6.49949">
        <ele>1042.132403</ele>
        <time>2021-07-07T13:11:16.753Z</time>
      </trkpt>
      <trkpt lat="46.81578" lon="6.49897">
        <ele>1040.715295</ele>
        <time>2021-07-07T13:11:31.220Z</time>
      </trkpt>
      <trkpt lat="46.81577" lon="6.49894">
        <ele>1040.641806</ele>
        <time>2021-07-07T13:11:32.010Z</time>
      </trkpt>
      <trkpt lat="46.81569" lon="6.49868">
        <ele>1039.936397</ele>
        <time>2021-07-07T13:11:39.305Z</time>
      </trkpt>
      <trkpt lat="46.81566" lon="6.49861">
        <ele>1039.758213</ele>
        <time>2021-07-07T13:11:41.525Z</time>
      </trkpt>
      <trkpt lat="46.81562" lon="6.49854">
        <ele>1039.952516</ele>
        <time>2021-07-07T13:11:43.640Z</time>
      </trkpt>
      <trkpt lat="46.81533" lon="6.49807">
        <ele>1041.446794</ele>
        <time>2021-07-07T13:12:00.722Z</time>
      </trkpt>
      <trkpt lat="46.81524" lon="6.4979">
        <ele>1041.970442</ele>
        <time>2021-07-07T13:12:06.768Z</time>
      </trkpt>
      <trkpt lat="46.81523" lon="6.49785">
        <ele>1042.08615</ele>
        <time>2021-07-07T13:12:08.197Z</time>
      </trkpt>
      <trkpt lat="46.81522" lon="6.49778">
        <ele>1042.2538</ele>
        <time>2021-07-07T13:12:09.907Z</time>
      </trkpt>
      <trkpt lat="46.81518" lon="6.49737">
        <ele>1043.235618</ele>
        <time>2021-07-07T13:12:20.556Z</time>
      </trkpt>
      <trkpt lat="46.81516" lon="6.49724">
        <ele>1043.537781</ele>
        <time>2021-07-07T13:12:24.504Z</time>
      </trkpt>
      <trkpt lat="46.81514" lon="6.49713">
        <ele>1043.80641</ele>
        <time>2021-07-07T13:12:27.536Z</time>
      </trkpt>
      <trkpt lat="46.81513" lon="6.49638">
        <ele>1045.574351</ele>
        <time>2021-07-07T13:12:48.333Z</time>
      </trkpt>
      <trkpt lat="46.81512" lon="6.49633">
        <ele>1045.707179</ele>
        <time>2021-07-07T13:12:50.334Z</time>
      </trkpt>
      <trkpt lat="46.8151" lon="6.49628">
        <ele>1045.850946</ele>
        <time>2021-07-07T13:12:53.037Z</time>
      </trkpt>
      <trkpt lat="46.81503" lon="6.4962">
        <ele>1046.526808</ele>
        <time>2021-07-07T13:12:56.345Z</time>
      </trkpt>
      <trkpt lat="46.81468" lon="6.49577">
        <ele>1051.438398</ele>
        <time>2021-07-07T13:13:18.053Z</time>
      </trkpt>
      <trkpt lat="46.81462" lon="6.49571">
        <ele>1052.216098</ele>
        <time>2021-07-07T13:13:21.578Z</time>
      </trkpt>
      <trkpt lat="46.81456" lon="6.49564">
        <ele>1053.019515</ele>
        <time>2021-07-07T13:13:25.404Z</time>
      </trkpt>
      <trkpt lat="46.81456" lon="6.49562">
        <ele>1053.1978</ele>
        <time>2021-07-07T13:13:27.465Z</time>
      </trkpt>
      <trkpt lat="46.81426" lon="6.49519">
        <ele>1057.653355</ele>
        <time>2021-07-07T13:13:53.012Z</time>
      </trkpt>
      <trkpt lat="46.81307" lon="6.49449">
        <ele>1074.735155</ele>
        <time>2021-07-07T13:15:22.993Z</time>
      </trkpt>
      <trkpt lat="46.81276" lon="6.49423">
        <ele>1080.758849</ele>
        <time>2021-07-07T13:15:51.270Z</time>
      </trkpt>
      <trkpt lat="46.81252" lon="6.49389">
        <ele>1086.375955</ele>
        <time>2021-07-07T13:16:19.311Z</time>
      </trkpt>
      <trkpt lat="46.81222" lon="6.49304">
        <ele>1097.924096</ele>
        <time>2021-07-07T13:17:17.879Z</time>
      </trkpt>
      <trkpt lat="46.81091" lon="6.49037">
        <ele>1143.943575</ele>
        <time>2021-07-07T13:20:56.880Z</time>
      </trkpt>
      <trkpt lat="46.8108" lon="6.48998">
        <ele>1149.424202</ele>
        <time>2021-07-07T13:21:23.065Z</time>
      </trkpt>
      <trkpt lat="46.81056" lon="6.48941">
        <ele>1157.873626</ele>
        <time>2021-07-07T13:22:01.385Z</time>
      </trkpt>
      <trkpt lat="46.81014" lon="6.48803">
        <ele>1173.678174</ele>
        <time>2021-07-07T13:23:19.979Z</time>
      </trkpt>
      <trkpt lat="46.80959" lon="6.48567">
        <ele>1191.645551</ele>
        <time>2021-07-07T13:25:11.129Z</time>
      </trkpt>
      <trkpt lat="46.80956" lon="6.4856">
        <ele>1191.948251</ele>
        <time>2021-07-07T13:25:15.857Z</time>
      </trkpt>
      <trkpt lat="46.8095" lon="6.48587">
        <ele>1192.989398</ele>
        <time>2021-07-07T13:25:24.165Z</time>
      </trkpt>
      <trkpt lat="46.80943" lon="6.4861">
        <ele>1193.946358</ele>
        <time>2021-07-07T13:25:33.493Z</time>
      </trkpt>
      <trkpt lat="46.80908" lon="6.48677">
        <ele>1197.114039</ele>
        <time>2021-07-07T13:25:58.161Z</time>
      </trkpt>
      <trkpt lat="46.80882" lon="6.48698">
        <ele>1198.72369</ele>
        <time>2021-07-07T13:26:10.357Z</time>
      </trkpt>
      <trkpt lat="46.80878" lon="6.48733">
        <ele>1198.603459</ele>
        <time>2021-07-07T13:26:20.424Z</time>
      </trkpt>
      <trkpt lat="46.80872" lon="6.48742">
        <ele>1198.508931</ele>
        <time>2021-07-07T13:26:23.290Z</time>
      </trkpt>
      <trkpt lat="46.80867" lon="6.48743">
        <ele>1198.444312</ele>
        <time>2021-07-07T13:26:25.232Z</time>
      </trkpt>
      <trkpt lat="46.8086" lon="6.48743">
        <ele>1198.365199</ele>
        <time>2021-07-07T13:26:27.633Z</time>
      </trkpt>
      <trkpt lat="46.80849" lon="6.48738">
        <ele>1198.228969</ele>
        <time>2021-07-07T13:26:31.840Z</time>
      </trkpt>
      <trkpt lat="46.80837" lon="6.48732">
        <ele>1198.078355</ele>
        <time>2021-07-07T13:26:36.439Z</time>
      </trkpt>
      <trkpt lat="46.80804" lon="6.48715">
        <ele>1197.672152</ele>
        <time>2021-07-07T13:26:48.900Z</time>
      </trkpt>
      <trkpt lat="46.8079" lon="6.48708">
        <ele>1197.488572</ele>
        <time>2021-07-07T13:26:54.515Z</time>
      </trkpt>
      <trkpt lat="46.80759" lon="6.48689">
        <ele>1197.098169</ele>
        <time>2021-07-07T13:27:06.420Z</time>
      </trkpt>
      <trkpt lat="46.8074" lon="6.48675">
        <ele>1196.847639</ele>
        <time>2021-07-07T13:27:14.387Z</time>
      </trkpt>
      <trkpt lat="46.80711" lon="6.48661">
        <ele>1197.127199</ele>
        <time>2021-07-07T13:27:26.108Z</time>
      </trkpt>
      <trkpt lat="46.80657" lon="6.48629">
        <ele>1198.167956</ele>
        <time>2021-07-07T13:27:49.346Z</time>
      </trkpt>
      <trkpt lat="46.80646" lon="6.48625">
        <ele>1198.369196</ele>
        <time>2021-07-07T13:27:53.931Z</time>
      </trkpt>
      <trkpt lat="46.80633" lon="6.48624">
        <ele>1198.617534</ele>
        <time>2021-07-07T13:27:59.470Z</time>
      </trkpt>
      <trkpt lat="46.80616" lon="6.48586">
        <ele>1199.161568</ele>
        <time>2021-07-07T13:28:12.722Z</time>
      </trkpt>
      <trkpt lat="46.8059" lon="6.48553">
        <ele>1199.777103</ele>
        <time>2021-07-07T13:28:27.908Z</time>
      </trkpt>
      <trkpt lat="46.80537" lon="6.48501">
        <ele>1202.320525</ele>
        <time>2021-07-07T13:28:57.754Z</time>
      </trkpt>
      <trkpt lat="46.80527" lon="6.48496">
        <ele>1202.774981</ele>
        <time>2021-07-07T13:29:02.493Z</time>
      </trkpt>
      <trkpt lat="46.80517" lon="6.48501">
        <ele>1203.235003</ele>
        <time>2021-07-07T13:29:07.455Z</time>
      </trkpt>
      <trkpt lat="46.80501" lon="6.48499">
        <ele>1203.8984</ele>
        <time>2021-07-07T13:29:14.900Z</time>
      </trkpt>
      <trkpt lat="46.80487" lon="6.4849">
        <ele>1204.577484</ele>
        <time>2021-07-07T13:29:22.355Z</time>
      </trkpt>
      <trkpt lat="46.80403" lon="6.4837">
        <ele>1210.492972</ele>
        <time>2021-07-07T13:30:15.320Z</time>
      </trkpt>
      <trkpt lat="46.80378" lon="6.48352">
        <ele>1212.2108</ele>
        <time>2021-07-07T13:30:28.806Z</time>
      </trkpt>
      <trkpt lat="46.80354" lon="6.48348">
        <ele>1213.728565</ele>
        <time>2021-07-07T13:30:40.713Z</time>
      </trkpt>
      <trkpt lat="46.80328" lon="6.48352">
        <ele>1215.313526</ele>
        <time>2021-07-07T13:30:53.007Z</time>
      </trkpt>
      <trkpt lat="46.80317" lon="6.48352">
        <ele>1216.024824</ele>
        <time>2021-07-07T13:30:59.439Z</time>
      </trkpt>
      <trkpt lat="46.80303" lon="6.48341">
        <ele>1216.964623</ele>
        <time>2021-07-07T13:31:08.050Z</time>
      </trkpt>
      <trkpt lat="46.80272" lon="6.48286">
        <ele>1221.018929</ele>
        <time>2021-07-07T13:31:35.050Z</time>
      </trkpt>
      <trkpt lat="46.80253" lon="6.48255">
        <ele>1224.313082</ele>
        <time>2021-07-07T13:31:53.008Z</time>
      </trkpt>
      <trkpt lat="46.80235" lon="6.48228">
        <ele>1227.419478</ele>
        <time>2021-07-07T13:32:09.805Z</time>
      </trkpt>
      <trkpt lat="46.80218" lon="6.48214">
        <ele>1229.72674</ele>
        <time>2021-07-07T13:32:20.424Z</time>
      </trkpt>
      <trkpt lat="46.80206" lon="6.48198">
        <ele>1231.617706</ele>
        <time>2021-07-07T13:32:32.575Z</time>
      </trkpt>
      <trkpt lat="46.80183" lon="6.48176">
        <ele>1234.789296</ele>
        <time>2021-07-07T13:32:51.326Z</time>
      </trkpt>
      <trkpt lat="46.80177" lon="6.48164">
        <ele>1236.005002</ele>
        <time>2021-07-07T13:32:59.645Z</time>
      </trkpt>
      <trkpt lat="46.80179" lon="6.48161">
        <ele>1236.344395</ele>
        <time>2021-07-07T13:33:01.311Z</time>
      </trkpt>
      <trkpt lat="46.80144" lon="6.4812">
        <ele>1241.960332</ele>
        <time>2021-07-07T13:33:34.396Z</time>
      </trkpt>
      <trkpt lat="46.80109" lon="6.48071">
        <ele>1249.209215</ele>
        <time>2021-07-07T13:34:09.886Z</time>
      </trkpt>
      <trkpt lat="46.80098" lon="6.48057">
        <ele>1251.360931</ele>
        <time>2021-07-07T13:34:21.323Z</time>
      </trkpt>
      <trkpt lat="46.8008" lon="6.48051">
        <ele>1254.114553</ele>
        <time>2021-07-07T13:34:35.123Z</time>
      </trkpt>
      <trkpt lat="46.80065" lon="6.48037">
        <ele>1256.817579</ele>
        <time>2021-07-07T13:34:48.221Z</time>
      </trkpt>
      <trkpt lat="46.80028" lon="6.47975">
        <ele>1265.262898</ele>
        <time>2021-07-07T13:35:30.925Z</time>
      </trkpt>
      <trkpt lat="46.799" lon="6.47728">
        <ele>1296.208883</ele>
        <time>2021-07-07T13:38:09.272Z</time>
      </trkpt>
      <trkpt lat="46.79875" lon="6.47694">
        <ele>1300.43463</ele>
        <time>2021-07-07T13:38:33.069Z</time>
      </trkpt>
      <trkpt lat="46.79802" lon="6.47629">
        <ele>1311.114537</ele>
        <time>2021-07-07T13:39:31.365Z</time>
      </trkpt>
      <trkpt lat="46.79737" lon="6.47524">
        <ele>1320.331216</ele>
        <time>2021-07-07T13:40:32.361Z</time>
      </trkpt>
      <trkpt lat="46.7972" lon="6.47464">
        <ele>1323.683126</ele>
        <time>2021-07-07T13:40:59.536Z</time>
      </trkpt>
      <trkpt lat="46.79699" lon="6.47416">
        <ele>1326.589115</ele>
        <time>2021-07-07T13:41:18.252Z</time>
      </trkpt>
      <trkpt lat="46.79677" lon="6.47376">
        <ele>1329.237705</ele>
        <time>2021-07-07T13:41:33.622Z</time>
      </trkpt>
      <trkpt lat="46.79656" lon="6.47354">
        <ele>1331.018544</ele>
        <time>2021-07-07T13:41:43.433Z</time>
      </trkpt>
      <trkpt lat="46.79646" lon="6.47351">
        <ele>1331.673302</ele>
        <time>2021-07-07T13:41:48.859Z</time>
      </trkpt>
      <trkpt lat="46.79657" lon="6.47309">
        <ele>1333.731844</ele>
        <time>2021-07-07T13:42:01.937Z</time>
      </trkpt>
      <trkpt lat="46.79658" lon="6.47301">
        <ele>1334.072353</ele>
        <time>2021-07-07T13:42:07.182Z</time>
      </trkpt>
      <trkpt lat="46.79653" lon="6.47278">
        <ele>1335.188265</ele>
        <time>2021-07-07T13:42:13.187Z</time>
      </trkpt>
      <trkpt lat="46.79612" lon="6.47121">
        <ele>1345.263537</ele>
        <time>2021-07-07T13:43:19.522Z</time>
      </trkpt>
      <trkpt lat="46.79604" lon="6.47131">
        <ele>1347.270483</ele>
        <time>2021-07-07T13:43:31.734Z</time>
      </trkpt>
      <trkpt lat="46.79577" lon="6.47149">
        <ele>1352.879438</ele>
        <time>2021-07-07T13:43:51.971Z</time>
      </trkpt>
      <trkpt lat="46.79539" lon="6.47147">
        <ele>1359.898395</ele>
        <time>2021-07-07T13:44:25.648Z</time>
      </trkpt>
      <trkpt lat="46.7949" lon="6.47119">
        <ele>1369.791707</ele>
        <time>2021-07-07T13:45:24.331Z</time>
      </trkpt>
      <trkpt lat="46.79453" lon="6.47086">
        <ele>1377.160377</ele>
        <time>2021-07-07T13:46:11.884Z</time>
      </trkpt>
      <trkpt lat="46.79378" lon="6.47052">
        <ele>1387.109409</ele>
        <time>2021-07-07T13:47:13.407Z</time>
      </trkpt>
      <trkpt lat="46.79357" lon="6.47038">
        <ele>1389.970678</ele>
        <time>2021-07-07T13:47:29.947Z</time>
      </trkpt>
      <trkpt lat="46.79345" lon="6.47011">
        <ele>1392.767597</ele>
        <time>2021-07-07T13:47:39.300Z</time>
      </trkpt>
      <trkpt lat="46.79302" lon="6.46924">
        <ele>1394.705984</ele>
        <time>2021-07-07T13:48:07.069Z</time>
      </trkpt>
      <trkpt lat="46.79266" lon="6.46868">
        <ele>1388.823596</ele>
        <time>2021-07-07T13:48:22.647Z</time>
      </trkpt>
      <trkpt lat="46.7924" lon="6.46808">
        <ele>1383.452706</ele>
        <time>2021-07-07T13:48:34.965Z</time>
      </trkpt>
      <trkpt lat="46.79188" lon="6.46738">
        <ele>1373.113766</ele>
        <time>2021-07-07T13:48:52.814Z</time>
      </trkpt>
      <trkpt lat="46.79187" lon="6.46727">
        <ele>1371.540715</ele>
        <time>2021-07-07T13:48:54.663Z</time>
      </trkpt>
      <trkpt lat="46.79188" lon="6.46725">
        <ele>1371.074797</ele>
        <time>2021-07-07T13:48:55.460Z</time>
      </trkpt>
      <trkpt lat="46.79179" lon="6.46688">
        <ele>1365.247226</ele>
        <time>2021-07-07T13:49:03.447Z</time>
      </trkpt>
      <trkpt lat="46.79184" lon="6.46658">
        <ele>1360.711872</ele>
        <time>2021-07-07T13:49:09.709Z</time>
      </trkpt>
      <trkpt lat="46.79185" lon="6.46644">
        <ele>1358.590954</ele>
        <time>2021-07-07T13:49:12.968Z</time>
      </trkpt>
      <trkpt lat="46.79179" lon="6.46633">
        <ele>1356.466919</ele>
        <time>2021-07-07T13:49:15.459Z</time>
      </trkpt>
      <trkpt lat="46.79175" lon="6.46625">
        <ele>1354.946961</ele>
        <time>2021-07-07T13:49:17.365Z</time>
      </trkpt>
      <trkpt lat="46.79164" lon="6.46606">
        <ele>1351.279949</ele>
        <time>2021-07-07T13:49:21.654Z</time>
      </trkpt>
      <trkpt lat="46.79163" lon="6.46604">
        <ele>1350.973219</ele>
        <time>2021-07-07T13:49:22.181Z</time>
      </trkpt>
      <trkpt lat="46.7916" lon="6.466">
        <ele>1350.076556</ele>
        <time>2021-07-07T13:49:23.233Z</time>
      </trkpt>
      <trkpt lat="46.79155" lon="6.46596">
        <ele>1348.743322</ele>
        <time>2021-07-07T13:49:24.798Z</time>
      </trkpt>
      <trkpt lat="46.79158" lon="6.46594">
        <ele>1347.851659</ele>
        <time>2021-07-07T13:49:26.207Z</time>
      </trkpt>
      <trkpt lat="46.79177" lon="6.46601">
        <ele>1343.653235</ele>
        <time>2021-07-07T13:49:31.962Z</time>
      </trkpt>
      <trkpt lat="46.79198" lon="6.46565">
        <ele>1337.679981</ele>
        <time>2021-07-07T13:49:41.301Z</time>
      </trkpt>
      <trkpt lat="46.79202" lon="6.465">
        <ele>1331.400521</ele>
        <time>2021-07-07T13:49:54.702Z</time>
      </trkpt>
      <trkpt lat="46.79199" lon="6.46455">
        <ele>1327.07632</ele>
        <time>2021-07-07T13:50:04.105Z</time>
      </trkpt>
      <trkpt lat="46.79158" lon="6.46417">
        <ele>1320.329247</ele>
        <time>2021-07-07T13:50:18.785Z</time>
      </trkpt>
      <trkpt lat="46.79137" lon="6.46385">
        <ele>1316.147793</ele>
        <time>2021-07-07T13:50:28.111Z</time>
      </trkpt>
      <trkpt lat="46.79126" lon="6.46349">
        <ele>1313.148436</ele>
        <time>2021-07-07T13:50:36.809Z</time>
      </trkpt>
      <trkpt lat="46.79091" lon="6.46304">
        <ele>1309.642545</ele>
        <time>2021-07-07T13:50:51.690Z</time>
      </trkpt>
      <trkpt lat="46.79063" lon="6.46233">
        <ele>1305.391668</ele>
        <time>2021-07-07T13:51:10.011Z</time>
      </trkpt>
      <trkpt lat="46.79045" lon="6.46173">
        <ele>1302.001473</ele>
        <time>2021-07-07T13:51:25.144Z</time>
      </trkpt>
      <trkpt lat="46.79033" lon="6.46116">
        <ele>1298.644798</ele>
        <time>2021-07-07T13:51:38.565Z</time>
      </trkpt>
      <trkpt lat="46.78999" lon="6.46034">
        <ele>1292.691451</ele>
        <time>2021-07-07T13:51:59.857Z</time>
      </trkpt>
      <trkpt lat="46.78959" lon="6.4596">
        <ele>1286.907977</ele>
        <time>2021-07-07T13:52:20.688Z</time>
      </trkpt>
      <trkpt lat="46.7894" lon="6.45945">
        <ele>1284.955495</ele>
        <time>2021-07-07T13:52:27.263Z</time>
      </trkpt>
      <trkpt lat="46.78936" lon="6.45954">
        <ele>1284.169001</ele>
        <time>2021-07-07T13:52:29.233Z</time>
      </trkpt>
      <trkpt lat="46.78933" lon="6.45963">
        <ele>1282.863277</ele>
        <time>2021-07-07T13:52:30.917Z</time>
      </trkpt>
      <trkpt lat="46.78927" lon="6.45954">
        <ele>1281.246444</ele>
        <time>2021-07-07T13:52:33.364Z</time>
      </trkpt>
      <trkpt lat="46.78896" lon="6.45886">
        <ele>1269.990106</ele>
        <time>2021-07-07T13:52:50.289Z</time>
      </trkpt>
      <trkpt lat="46.7888" lon="6.45852">
        <ele>1264.390688</ele>
        <time>2021-07-07T13:52:58.643Z</time>
      </trkpt>
      <trkpt lat="46.78865" lon="6.45859">
        <ele>1261.239514</ele>
        <time>2021-07-07T13:53:03.306Z</time>
      </trkpt>
      <trkpt lat="46.78759" lon="6.4576">
        <ele>1231.255935</ele>
        <time>2021-07-07T13:53:41.842Z</time>
      </trkpt>
      <trkpt lat="46.78597" lon="6.45666">
        <ele>1184.543649</ele>
        <time>2021-07-07T13:54:37.759Z</time>
      </trkpt>
      <trkpt lat="46.78414" lon="6.45533">
        <ele>1139.790646</ele>
        <time>2021-07-07T13:55:38.359Z</time>
      </trkpt>
      <trkpt lat="46.7831" lon="6.45461">
        <ele>1121.003324</ele>
        <time>2021-07-07T13:56:12.863Z</time>
      </trkpt>
      <trkpt lat="46.78188" lon="6.45199">
        <ele>1101.425999</ele>
        <time>2021-07-07T13:57:11.551Z</time>
      </trkpt>
      <trkpt lat="46.78124" lon="6.45055">
        <ele>1093.362445</ele>
        <time>2021-07-07T13:57:44.729Z</time>
      </trkpt>
      <trkpt lat="46.77994" lon="6.44806">
        <ele>1083.022622</ele>
        <time>2021-07-07T13:58:47.920Z</time>
      </trkpt>
      <trkpt lat="46.77927" lon="6.44641">
        <ele>1076.683123</ele>
        <time>2021-07-07T13:59:26.626Z</time>
      </trkpt>
      <trkpt lat="46.7791" lon="6.44625">
        <ele>1075.709358</ele>
        <time>2021-07-07T13:59:32.502Z</time>
      </trkpt>
      <trkpt lat="46.7783" lon="6.4447">
        <ele>1067.643743</ele>
        <time>2021-07-07T14:00:10.187Z</time>
      </trkpt>
      <trkpt lat="46.77814" lon="6.44452">
        <ele>1066.36805</ele>
        <time>2021-07-07T14:00:16.017Z</time>
      </trkpt>
      <trkpt lat="46.77797" lon="6.44408">
        <ele>1064.403115</ele>
        <time>2021-07-07T14:00:25.761Z</time>
      </trkpt>
      <trkpt lat="46.77779" lon="6.44388">
        <ele>1063.764436</ele>
        <time>2021-07-07T14:00:32.041Z</time>
      </trkpt>
      <trkpt lat="46.77702" lon="6.44262">
        <ele>1060.491295</ele>
        <time>2021-07-07T14:01:05.901Z</time>
      </trkpt>
      <trkpt lat="46.77676" lon="6.44198">
        <ele>1060.933113</ele>
        <time>2021-07-07T14:01:24.712Z</time>
      </trkpt>
      <trkpt lat="46.7766" lon="6.44167">
        <ele>1063.836441</ele>
        <time>2021-07-07T14:01:35.862Z</time>
      </trkpt>
      <trkpt lat="46.77647" lon="6.44191">
        <ele>1066.083738</ele>
        <time>2021-07-07T14:01:47.701Z</time>
      </trkpt>
      <trkpt lat="46.77621" lon="6.44237">
        <ele>1070.431111</ele>
        <time>2021-07-07T14:02:13.850Z</time>
      </trkpt>
      <trkpt lat="46.77592" lon="6.44268">
        <ele>1074.348911</ele>
        <time>2021-07-07T14:02:40.047Z</time>
      </trkpt>
      <trkpt lat="46.77585" lon="6.44286">
        <ele>1075.776198</ele>
        <time>2021-07-07T14:02:49.973Z</time>
      </trkpt>
      <trkpt lat="46.77598" lon="6.44329">
        <ele>1079.609409</ele>
        <time>2021-07-07T14:03:15.610Z</time>
      </trkpt>
      <trkpt lat="46.77611" lon="6.4442">
        <ele>1090.689566</ele>
        <time>2021-07-07T14:04:12.573Z</time>
      </trkpt>
      <trkpt lat="46.77608" lon="6.44438">
        <ele>1092.93601</ele>
        <time>2021-07-07T14:04:22.951Z</time>
      </trkpt>
      <trkpt lat="46.77596" lon="6.44456">
        <ele>1095.83853</ele>
        <time>2021-07-07T14:04:36.376Z</time>
      </trkpt>
      <trkpt lat="46.77594" lon="6.4454">
        <ele>1105.925965</ele>
        <time>2021-07-07T14:05:23.120Z</time>
      </trkpt>
      <trkpt lat="46.77601" lon="6.44597">
        <ele>1112.838773</ele>
        <time>2021-07-07T14:05:54.646Z</time>
      </trkpt>
      <trkpt lat="46.77621" lon="6.4464">
        <ele>1119.381133</ele>
        <time>2021-07-07T14:06:23.904Z</time>
      </trkpt>
      <trkpt lat="46.77636" lon="6.44653">
        <ele>1122.480093</ele>
        <time>2021-07-07T14:06:37.802Z</time>
      </trkpt>
      <trkpt lat="46.77664" lon="6.44731">
        <ele>1133.372124</ele>
        <time>2021-07-07T14:07:28.316Z</time>
      </trkpt>
      <trkpt lat="46.77668" lon="6.44782">
        <ele>1139.600907</ele>
        <time>2021-07-07T14:07:58.526Z</time>
      </trkpt>
      <trkpt lat="46.77649" lon="6.44824">
        <ele>1145.988899</ele>
        <time>2021-07-07T14:08:29.244Z</time>
      </trkpt>
      <trkpt lat="46.7764" lon="6.44861">
        <ele>1151.181375</ele>
        <time>2021-07-07T14:08:53.733Z</time>
      </trkpt>
      <trkpt lat="46.77642" lon="6.44892">
        <ele>1155.281894</ele>
        <time>2021-07-07T14:09:12.947Z</time>
      </trkpt>
      <trkpt lat="46.7763" lon="6.44957">
        <ele>1164.087473</ele>
        <time>2021-07-07T14:09:56.259Z</time>
      </trkpt>
      <trkpt lat="46.77618" lon="6.44959">
        <ele>1166.307398</ele>
        <time>2021-07-07T14:10:07.145Z</time>
      </trkpt>
      <trkpt lat="46.77601" lon="6.44951">
        <ele>1169.785289</ele>
        <time>2021-07-07T14:10:23.449Z</time>
      </trkpt>
      <trkpt lat="46.77587" lon="6.44932">
        <ele>1173.452836</ele>
        <time>2021-07-07T14:10:40.011Z</time>
      </trkpt>
      <trkpt lat="46.7758" lon="6.44949">
        <ele>1176.033147</ele>
        <time>2021-07-07T14:10:51.076Z</time>
      </trkpt>
      <trkpt lat="46.7758" lon="6.44972">
        <ele>1178.007801</ele>
        <time>2021-07-07T14:11:02.769Z</time>
      </trkpt>
      <trkpt lat="46.77562" lon="6.45021">
        <ele>1182.201042</ele>
        <time>2021-07-07T14:11:31.807Z</time>
      </trkpt>
      <trkpt lat="46.77555" lon="6.45011">
        <ele>1183.274651</ele>
        <time>2021-07-07T14:11:41.087Z</time>
      </trkpt>
      <trkpt lat="46.77555" lon="6.44999">
        <ele>1184.132076</ele>
        <time>2021-07-07T14:11:44.855Z</time>
      </trkpt>
      <trkpt lat="46.77554" lon="6.44977">
        <ele>1185.809146</ele>
        <time>2021-07-07T14:11:54.616Z</time>
      </trkpt>
      <trkpt lat="46.77525" lon="6.44883">
        <ele>1193.612007</ele>
        <time>2021-07-07T14:12:35.531Z</time>
      </trkpt>
      <trkpt lat="46.77506" lon="6.44852">
        <ele>1196.551806</ele>
        <time>2021-07-07T14:12:49.781Z</time>
      </trkpt>
      <trkpt lat="46.77488" lon="6.44842">
        <ele>1196.759849</ele>
        <time>2021-07-07T14:13:00.309Z</time>
      </trkpt>
      <trkpt lat="46.77481" lon="6.44826">
        <ele>1196.910842</ele>
        <time>2021-07-07T14:13:05.605Z</time>
      </trkpt>
      <trkpt lat="46.77462" lon="6.44748">
        <ele>1197.529873</ele>
        <time>2021-07-07T14:13:28.929Z</time>
      </trkpt>
      <trkpt lat="46.77457" lon="6.44741">
        <ele>1197.607257</ele>
        <time>2021-07-07T14:13:31.269Z</time>
      </trkpt>
      <trkpt lat="46.77444" lon="6.44736">
        <ele>1197.749376</ele>
        <time>2021-07-07T14:13:36.684Z</time>
      </trkpt>
      <trkpt lat="46.77431" lon="6.44722">
        <ele>1197.927303</ele>
        <time>2021-07-07T14:13:43.293Z</time>
      </trkpt>
      <trkpt lat="46.77338" lon="6.44497">
        <ele>1194.112772</ele>
        <time>2021-07-07T14:14:48.192Z</time>
      </trkpt>
      <trkpt lat="46.77323" lon="6.44479">
        <ele>1193.450084</ele>
        <time>2021-07-07T14:14:54.697Z</time>
      </trkpt>
      <trkpt lat="46.77303" lon="6.44436">
        <ele>1192.263611</ele>
        <time>2021-07-07T14:15:06.560Z</time>
      </trkpt>
      <trkpt lat="46.77236" lon="6.44252">
        <ele>1189.27677</ele>
        <time>2021-07-07T14:15:57.502Z</time>
      </trkpt>
      <trkpt lat="46.7722" lon="6.44232">
        <ele>1188.83824</ele>
        <time>2021-07-07T14:16:05.015Z</time>
      </trkpt>
      <trkpt lat="46.77212" lon="6.44221">
        <ele>1188.596467</ele>
        <time>2021-07-07T14:16:12.218Z</time>
      </trkpt>
      <trkpt lat="46.77185" lon="6.44221">
        <ele>1190.046149</ele>
        <time>2021-07-07T14:16:22.622Z</time>
      </trkpt>
      <trkpt lat="46.7706" lon="6.44147">
        <ele>1198.152091</ele>
        <time>2021-07-07T14:17:35.830Z</time>
      </trkpt>
      <trkpt lat="46.77008" lon="6.44061">
        <ele>1201.358533</ele>
        <time>2021-07-07T14:18:15.388Z</time>
      </trkpt>
      <trkpt lat="46.76917" lon="6.43885">
        <ele>1206.060759</ele>
        <time>2021-07-07T14:19:17.754Z</time>
      </trkpt>
      <trkpt lat="46.76851" lon="6.43768">
        <ele>1207.933199</ele>
        <time>2021-07-07T14:19:59.074Z</time>
      </trkpt>
      <trkpt lat="46.76787" lon="6.43593">
        <ele>1212.902004</ele>
        <time>2021-07-07T14:20:59.445Z</time>
      </trkpt>
      <trkpt lat="46.76771" lon="6.43565">
        <ele>1214.044458</ele>
        <time>2021-07-07T14:21:11.584Z</time>
      </trkpt>
      <trkpt lat="46.76737" lon="6.4348">
        <ele>1217.152208</ele>
        <time>2021-07-07T14:21:45.201Z</time>
      </trkpt>
      <trkpt lat="46.76703" lon="6.43419">
        <ele>1218.864204</ele>
        <time>2021-07-07T14:22:10.773Z</time>
      </trkpt>
      <trkpt lat="46.76692" lon="6.43383">
        <ele>1219.745115</ele>
        <time>2021-07-07T14:22:23.530Z</time>
      </trkpt>
      <trkpt lat="46.76645" lon="6.43299">
        <ele>1222.108726</ele>
        <time>2021-07-07T14:22:55.446Z</time>
      </trkpt>
      <trkpt lat="46.76451" lon="6.42839">
        <ele>1218.807765</ele>
        <time>2021-07-07T14:25:13.417Z</time>
      </trkpt>
      <trkpt lat="46.7635" lon="6.42644">
        <ele>1217.672054</ele>
        <time>2021-07-07T14:26:16.501Z</time>
      </trkpt>
      <trkpt lat="46.76318" lon="6.42588">
        <ele>1217.787678</ele>
        <time>2021-07-07T14:26:36.092Z</time>
      </trkpt>
      <trkpt lat="46.76271" lon="6.42531">
        <ele>1218.454254</ele>
        <time>2021-07-07T14:27:00.875Z</time>
      </trkpt>
      <trkpt lat="46.76183" lon="6.4231">
        <ele>1218.193865</ele>
        <time>2021-07-07T14:28:12.094Z</time>
      </trkpt>
      <trkpt lat="46.76151" lon="6.42273">
        <ele>1217.554393</ele>
        <time>2021-07-07T14:28:26.959Z</time>
      </trkpt>
      <trkpt lat="46.7614" lon="6.42257">
        <ele>1217.311105</ele>
        <time>2021-07-07T14:28:32.614Z</time>
      </trkpt>
      <trkpt lat="46.76104" lon="6.4218">
        <ele>1214.862478</ele>
        <time>2021-07-07T14:28:54.420Z</time>
      </trkpt>
      <trkpt lat="46.7605" lon="6.42033">
        <ele>1205.358157</ele>
        <time>2021-07-07T14:29:30.921Z</time>
      </trkpt>
      <trkpt lat="46.76009" lon="6.41876">
        <ele>1194.451862</ele>
        <time>2021-07-07T14:30:06.363Z</time>
      </trkpt>
      <trkpt lat="46.7599" lon="6.41836">
        <ele>1191.005327</ele>
        <time>2021-07-07T14:30:16.776Z</time>
      </trkpt>
      <trkpt lat="46.7595" lon="6.41787">
        <ele>1185.721431</ele>
        <time>2021-07-07T14:30:32.738Z</time>
      </trkpt>
      <trkpt lat="46.75941" lon="6.41768">
        <ele>1184.102202</ele>
        <time>2021-07-07T14:30:37.641Z</time>
      </trkpt>
      <trkpt lat="46.75914" lon="6.41541">
        <ele>1169.642948</ele>
        <time>2021-07-07T14:31:27.398Z</time>
      </trkpt>
      <trkpt lat="46.75846" lon="6.41302">
        <ele>1154.704217</ele>
        <time>2021-07-07T14:32:24.407Z</time>
      </trkpt>
      <trkpt lat="46.75844" lon="6.41292">
        <ele>1154.149464</ele>
        <time>2021-07-07T14:32:26.585Z</time>
      </trkpt>
      <trkpt lat="46.75846" lon="6.4127">
        <ele>1152.898874</ele>
        <time>2021-07-07T14:32:31.356Z</time>
      </trkpt>
      <trkpt lat="46.75829" lon="6.41102">
        <ele>1145.854999</ele>
        <time>2021-07-07T14:33:09.419Z</time>
      </trkpt>
      <trkpt lat="46.75829" lon="6.40992">
        <ele>1141.614852</ele>
        <time>2021-07-07T14:33:35.863Z</time>
      </trkpt>
      <trkpt lat="46.75831" lon="6.40985">
        <ele>1141.613399</ele>
        <time>2021-07-07T14:33:37.432Z</time>
      </trkpt>
      <trkpt lat="46.75746" lon="6.40826">
        <ele>1141.57428</ele>
        <time>2021-07-07T14:34:30.856Z</time>
      </trkpt>
      <trkpt lat="46.75629" lon="6.40557">
        <ele>1144.829337</ele>
        <time>2021-07-07T14:36:02.838Z</time>
      </trkpt>
      <trkpt lat="46.75557" lon="6.40431">
        <ele>1142.886053</ele>
        <time>2021-07-07T14:36:45.494Z</time>
      </trkpt>
      <trkpt lat="46.75541" lon="6.40336">
        <ele>1141.439443</ele>
        <time>2021-07-07T14:37:09.048Z</time>
      </trkpt>
      <trkpt lat="46.75517" lon="6.4024">
        <ele>1134.973364</ele>
        <time>2021-07-07T14:37:32.176Z</time>
      </trkpt>
      <trkpt lat="46.75467" lon="6.40146">
        <ele>1127.41567</ele>
        <time>2021-07-07T14:37:57.232Z</time>
      </trkpt>
      <trkpt lat="46.75451" lon="6.40078">
        <ele>1120.996453</ele>
        <time>2021-07-07T14:38:12.247Z</time>
      </trkpt>
      <trkpt lat="46.75434" lon="6.40031">
        <ele>1115.034554</ele>
        <time>2021-07-07T14:38:23.118Z</time>
      </trkpt>
      <trkpt lat="46.75382" lon="6.39856">
        <ele>1093.205724</ele>
        <time>2021-07-07T14:39:02.225Z</time>
      </trkpt>
      <trkpt lat="46.75343" lon="6.39773">
        <ele>1080.334547</ele>
        <time>2021-07-07T14:39:22.728Z</time>
      </trkpt>
      <trkpt lat="46.75318" lon="6.39757">
        <ele>1075.109898</ele>
        <time>2021-07-07T14:39:31.013Z</time>
      </trkpt>
      <trkpt lat="46.75238" lon="6.39531">
        <ele>1040.616881</ele>
        <time>2021-07-07T14:40:23.000Z</time>
      </trkpt>
      <trkpt lat="46.75143" lon="6.39309">
        <ele>1000.813418</ele>
        <time>2021-07-07T14:41:16.139Z</time>
      </trkpt>
      <trkpt lat="46.7507" lon="6.3908">
        <ele>959.412311</ele>
        <time>2021-07-07T14:42:09.119Z</time>
      </trkpt>
      <trkpt lat="46.75036" lon="6.38888">
        <ele>931.00758</ele>
        <time>2021-07-07T14:42:49.583Z</time>
      </trkpt>
      <trkpt lat="46.75042" lon="6.38872">
        <ele>929.041555</ele>
        <time>2021-07-07T14:42:53.525Z</time>
      </trkpt>
      <trkpt lat="46.75024" lon="6.38851">
        <ele>925.317155</ele>
        <time>2021-07-07T14:42:59.683Z</time>
      </trkpt>
      <trkpt lat="46.74972" lon="6.38784">
        <ele>914.634245</ele>
        <time>2021-07-07T14:43:17.263Z</time>
      </trkpt>
      <trkpt lat="46.74909" lon="6.38722">
        <ele>909.470371</ele>
        <time>2021-07-07T14:43:38.471Z</time>
      </trkpt>
      <trkpt lat="46.7482" lon="6.38615">
        <ele>906.093491</ele>
        <time>2021-07-07T14:44:16.026Z</time>
      </trkpt>
      <trkpt lat="46.74598" lon="6.3841">
        <ele>903.478333</ele>
        <time>2021-07-07T14:45:40.649Z</time>
      </trkpt>
      <trkpt lat="46.74497" lon="6.38302">
        <ele>900.931464</ele>
        <time>2021-07-07T14:46:19.099Z</time>
      </trkpt>
      <trkpt lat="46.74452" lon="6.38273">
        <ele>899.255662</ele>
        <time>2021-07-07T14:46:34.003Z</time>
      </trkpt>
      <trkpt lat="46.74283" lon="6.38207">
        <ele>893.13939</ele>
        <time>2021-07-07T14:47:26.603Z</time>
      </trkpt>
      <trkpt lat="46.74186" lon="6.38194">
        <ele>889.57961</ele>
        <time>2021-07-07T14:47:55.449Z</time>
      </trkpt>
      <trkpt lat="46.74137" lon="6.38197">
        <ele>887.936448</ele>
        <time>2021-07-07T14:48:10.376Z</time>
      </trkpt>
      <trkpt lat="46.74086" lon="6.38215">
        <ele>886.367944</ele>
        <time>2021-07-07T14:48:26.197Z</time>
      </trkpt>
      <trkpt lat="46.74057" lon="6.38246">
        <ele>885.27838</ele>
        <time>2021-07-07T14:48:37.117Z</time>
      </trkpt>
      <trkpt lat="46.74" lon="6.38322">
        <ele>883.113244</ele>
        <time>2021-07-07T14:49:00.884Z</time>
      </trkpt>
      <trkpt lat="46.73964" lon="6.38379">
        <ele>882.117542</ele>
        <time>2021-07-07T14:49:17.787Z</time>
      </trkpt>
      <trkpt lat="46.73958" lon="6.38389">
        <ele>881.953016</ele>
        <time>2021-07-07T14:49:20.547Z</time>
      </trkpt>
      <trkpt lat="46.73944" lon="6.38412">
        <ele>881.571776</ele>
        <time>2021-07-07T14:49:27.059Z</time>
      </trkpt>
      <trkpt lat="46.7388" lon="6.38507">
        <ele>879.802358</ele>
        <time>2021-07-07T14:49:55.849Z</time>
      </trkpt>
      <trkpt lat="46.73872" lon="6.38518">
        <ele>879.554795</ele>
        <time>2021-07-07T14:49:59.087Z</time>
      </trkpt>
      <trkpt lat="46.73848" lon="6.3855">
        <ele>878.772504</ele>
        <time>2021-07-07T14:50:09.199Z</time>
      </trkpt>
      <trkpt lat="46.73841" lon="6.38558">
        <ele>878.563174</ele>
        <time>2021-07-07T14:50:11.936Z</time>
      </trkpt>
      <trkpt lat="46.73807" lon="6.38586">
        <ele>877.612442</ele>
        <time>2021-07-07T14:50:24.160Z</time>
      </trkpt>
      <trkpt lat="46.73789" lon="6.386">
        <ele>877.124396</ele>
        <time>2021-07-07T14:50:30.394Z</time>
      </trkpt>
      <trkpt lat="46.73735" lon="6.38643">
        <ele>875.649958</ele>
        <time>2021-07-07T14:50:49.288Z</time>
      </trkpt>
      <trkpt lat="46.73705" lon="6.38675">
        <ele>875.011219</ele>
        <time>2021-07-07T14:51:00.530Z</time>
      </trkpt>
      <trkpt lat="46.73696" lon="6.38685">
        <ele>874.816191</ele>
        <time>2021-07-07T14:51:03.935Z</time>
      </trkpt>
      <trkpt lat="46.73669" lon="6.38716">
        <ele>874.225217</ele>
        <time>2021-07-07T14:51:14.444Z</time>
      </trkpt>
      <trkpt lat="46.73653" lon="6.38734">
        <ele>873.881646</ele>
        <time>2021-07-07T14:51:20.707Z</time>
      </trkpt>
      <trkpt lat="46.73642" lon="6.38746">
        <ele>873.645478</ele>
        <time>2021-07-07T14:51:25.685Z</time>
      </trkpt>
      <trkpt lat="46.7363" lon="6.3876">
        <ele>873.371721</ele>
        <time>2021-07-07T14:51:31.593Z</time>
      </trkpt>
      <trkpt lat="46.73594" lon="6.38815">
        <ele>872.753904</ele>
        <time>2021-07-07T14:51:51.385Z</time>
      </trkpt>
      <trkpt lat="46.73531" lon="6.38913">
        <ele>875.210799</ele>
        <time>2021-07-07T14:52:29.373Z</time>
      </trkpt>
      <trkpt lat="46.7352" lon="6.38934">
        <ele>875.699646</ele>
        <time>2021-07-07T14:52:37.718Z</time>
      </trkpt>
      <trkpt lat="46.73509" lon="6.38955">
        <ele>876.189558</ele>
        <time>2021-07-07T14:52:45.914Z</time>
      </trkpt>
      <trkpt lat="46.73491" lon="6.38977">
        <ele>876.799637</ele>
        <time>2021-07-07T14:52:55.277Z</time>
      </trkpt>
      <trkpt lat="46.73416" lon="6.39112">
        <ele>878.873384</ele>
        <time>2021-07-07T14:53:41.987Z</time>
      </trkpt>
      <trkpt lat="46.73394" lon="6.3914">
        <ele>879.317821</ele>
        <time>2021-07-07T14:53:51.956Z</time>
      </trkpt>
      <trkpt lat="46.73365" lon="6.39159">
        <ele>879.798269</ele>
        <time>2021-07-07T14:54:01.861Z</time>
      </trkpt>
      <trkpt lat="46.73356" lon="6.3916">
        <ele>879.932299</ele>
        <time>2021-07-07T14:54:05.430Z</time>
      </trkpt>
      <trkpt lat="46.73357" lon="6.39147">
        <ele>880.074914</ele>
        <time>2021-07-07T14:54:07.879Z</time>
      </trkpt>
      <trkpt lat="46.73328" lon="6.39095">
        <ele>877.37982</ele>
        <time>2021-07-07T14:54:21.689Z</time>
      </trkpt>
      <trkpt lat="46.73301" lon="6.39079">
        <ele>875.535441</ele>
        <time>2021-07-07T14:54:29.738Z</time>
      </trkpt>
      <trkpt lat="46.73266" lon="6.39086">
        <ele>873.287622</ele>
        <time>2021-07-07T14:54:39.398Z</time>
      </trkpt>
      <trkpt lat="46.73185" lon="6.3914">
        <ele>867.591036</ele>
        <time>2021-07-07T14:55:03.688Z</time>
      </trkpt>
      <trkpt lat="46.73174" lon="6.39158">
        <ele>866.578355</ele>
        <time>2021-07-07T14:55:08.094Z</time>
      </trkpt>
      <trkpt lat="46.7314" lon="6.39191">
        <ele>864.004103</ele>
        <time>2021-07-07T14:55:19.636Z</time>
      </trkpt>
      <trkpt lat="46.73113" lon="6.39208">
        <ele>862.162662</ele>
        <time>2021-07-07T14:55:27.981Z</time>
      </trkpt>
      <trkpt lat="46.73052" lon="6.39229">
        <ele>858.285997</ele>
        <time>2021-07-07T14:55:45.972Z</time>
      </trkpt>
      <trkpt lat="46.72964" lon="6.39278">
        <ele>853.36117</ele>
        <time>2021-07-07T14:56:14.460Z</time>
      </trkpt>
      <trkpt lat="46.72885" lon="6.39339">
        <ele>848.913713</ele>
        <time>2021-07-07T14:56:40.218Z</time>
      </trkpt>
      <trkpt lat="46.72862" lon="6.39366">
        <ele>846.698395</ele>
        <time>2021-07-07T14:56:48.578Z</time>
      </trkpt>
      <trkpt lat="46.72848" lon="6.39387">
        <ele>844.984002</ele>
        <time>2021-07-07T14:56:54.013Z</time>
      </trkpt>
      <trkpt lat="46.7284" lon="6.3939">
        <ele>844.29091</ele>
        <time>2021-07-07T14:56:56.147Z</time>
      </trkpt>
      <trkpt lat="46.72802" lon="6.39414">
        <ele>840.712156</ele>
        <time>2021-07-07T14:57:07.578Z</time>
      </trkpt>
      <trkpt lat="46.72797" lon="6.39417">
        <ele>840.222016</ele>
        <time>2021-07-07T14:57:09.096Z</time>
      </trkpt>
      <trkpt lat="46.72782" lon="6.39396">
        <ele>838.355918</ele>
        <time>2021-07-07T14:57:14.896Z</time>
      </trkpt>
      <trkpt lat="46.72763" lon="6.39424">
        <ele>835.98601</ele>
        <time>2021-07-07T14:57:22.210Z</time>
      </trkpt>
      <trkpt lat="46.72759" lon="6.39418">
        <ele>835.495558</ele>
        <time>2021-07-07T14:57:23.705Z</time>
      </trkpt>
      <trkpt lat="46.72783" lon="6.39381">
        <ele>832.386851</ele>
        <time>2021-07-07T14:57:32.836Z</time>
      </trkpt>
      <trkpt lat="46.7278" lon="6.39373">
        <ele>831.775339</ele>
        <time>2021-07-07T14:57:34.361Z</time>
      </trkpt>
      <trkpt lat="46.72716" lon="6.39407">
        <ele>824.671912</ele>
        <time>2021-07-07T14:57:51.882Z</time>
      </trkpt>
      <trkpt lat="46.72677" lon="6.39424">
        <ele>820.457496</ele>
        <time>2021-07-07T14:58:02.558Z</time>
      </trkpt>
      <trkpt lat="46.72702" lon="6.39357">
        <ele>815.019083</ele>
        <time>2021-07-07T14:58:16.883Z</time>
      </trkpt>
      <trkpt lat="46.72701" lon="6.39347">
        <ele>814.310031</ele>
        <time>2021-07-07T14:58:18.847Z</time>
      </trkpt>
      <trkpt lat="46.72697" lon="6.39348">
        <ele>813.829008</ele>
        <time>2021-07-07T14:58:20.102Z</time>
      </trkpt>
      <trkpt lat="46.72672" lon="6.39373">
        <ele>811.13147</ele>
        <time>2021-07-07T14:58:28.485Z</time>
      </trkpt>
      <trkpt lat="46.72659" lon="6.39384">
        <ele>809.759583</ele>
        <time>2021-07-07T14:58:33.161Z</time>
      </trkpt>
      <trkpt lat="46.72648" lon="6.39386">
        <ele>808.78776</ele>
        <time>2021-07-07T14:58:36.407Z</time>
      </trkpt>
      <trkpt lat="46.72616" lon="6.39425">
        <ele>804.972732</ele>
        <time>2021-07-07T14:58:49.469Z</time>
      </trkpt>
      <trkpt lat="46.7259" lon="6.39451">
        <ele>802.119524</ele>
        <time>2021-07-07T14:58:59.377Z</time>
      </trkpt>
      <trkpt lat="46.72564" lon="6.39461">
        <ele>799.687557</ele>
        <time>2021-07-07T14:59:08.065Z</time>
      </trkpt>
      <trkpt lat="46.7253" lon="6.39479">
        <ele>796.502896</ele>
        <time>2021-07-07T14:59:19.698Z</time>
      </trkpt>
      <trkpt lat="46.72519" lon="6.39488">
        <ele>795.448835</ele>
        <time>2021-07-07T14:59:23.388Z</time>
      </trkpt>
      <trkpt lat="46.72508" lon="6.39485">
        <ele>794.458918</ele>
        <time>2021-07-07T14:59:27.240Z</time>
      </trkpt>
      <trkpt lat="46.72437" lon="6.39502">
        <ele>788.243325</ele>
        <time>2021-07-07T14:59:50.054Z</time>
      </trkpt>
      <trkpt lat="46.72403" lon="6.39624">
        <ele>780.977625</ele>
        <time>2021-07-07T15:00:18.519Z</time>
      </trkpt>
      <trkpt lat="46.72342" lon="6.39718">
        <ele>775.717661</ele>
        <time>2021-07-07T15:00:47.666Z</time>
      </trkpt>
      <trkpt lat="46.72311" lon="6.39718">
        <ele>773.875508</ele>
        <time>2021-07-07T15:00:58.448Z</time>
      </trkpt>
      <trkpt lat="46.72306" lon="6.39716">
        <ele>773.529712</ele>
        <time>2021-07-07T15:01:00.234Z</time>
      </trkpt>
      <trkpt lat="46.72312" lon="6.39698">
        <ele>772.69691</ele>
        <time>2021-07-07T15:01:04.541Z</time>
      </trkpt>
      <trkpt lat="46.72315" lon="6.39681">
        <ele>771.970894</ele>
        <time>2021-07-07T15:01:08.215Z</time>
      </trkpt>
      <trkpt lat="46.72315" lon="6.39669">
        <ele>771.49472</ele>
        <time>2021-07-07T15:01:10.434Z</time>
      </trkpt>
      <trkpt lat="46.72302" lon="6.39654">
        <ele>771.443359</ele>
        <time>2021-07-07T15:01:15.575Z</time>
      </trkpt>
      <trkpt lat="46.72288" lon="6.39643">
        <ele>771.403921</ele>
        <time>2021-07-07T15:01:20.367Z</time>
      </trkpt>
      <trkpt lat="46.7226" lon="6.39575">
        <ele>771.263715</ele>
        <time>2021-07-07T15:01:37.141Z</time>
      </trkpt>
      <trkpt lat="46.72223" lon="6.39519">
        <ele>771.126954</ele>
        <time>2021-07-07T15:01:55.232Z</time>
      </trkpt>
      <trkpt lat="46.72222" lon="6.39509">
        <ele>771.107915</ele>
        <time>2021-07-07T15:01:57.689Z</time>
      </trkpt>
      <trkpt lat="46.72225" lon="6.39513">
        <ele>771.096382</ele>
        <time>2021-07-07T15:01:59.836Z</time>
      </trkpt>
      <trkpt lat="46.72233" lon="6.3952">
        <ele>771.072342</ele>
        <time>2021-07-07T15:02:04.129Z</time>
      </trkpt>
      <trkpt lat="46.72234" lon="6.3952">
        <ele>771.069775</ele>
        <time>2021-07-07T15:02:04.783Z</time>
      </trkpt>
      <trkpt lat="46.72245" lon="6.39525">
        <ele>771.041285</ele>
        <time>2021-07-07T15:02:09.827Z</time>
      </trkpt>
      <trkpt lat="46.72258" lon="6.39523">
        <ele>771.142053</ele>
        <time>2021-07-07T15:02:15.781Z</time>
      </trkpt>
      <trkpt lat="46.72264" lon="6.39526">
        <ele>771.253404</ele>
        <time>2021-07-07T15:02:18.884Z</time>
      </trkpt>
      <trkpt lat="46.72277" lon="6.39536">
        <ele>771.507233</ele>
        <time>2021-07-07T15:02:26.222Z</time>
      </trkpt>
      <trkpt lat="46.72284" lon="6.39528">
        <ele>771.664457</ele>
        <time>2021-07-07T15:02:30.149Z</time>
      </trkpt>
      <trkpt lat="46.72284" lon="6.39522">
        <ele>771.736236</ele>
        <time>2021-07-07T15:02:31.865Z</time>
      </trkpt>
      <trkpt lat="46.72279" lon="6.39523">
        <ele>771.827013</ele>
        <time>2021-07-07T15:02:34.105Z</time>
      </trkpt>
      <trkpt lat="46.72249" lon="6.39586">
        <ele>772.749611</ele>
        <time>2021-07-07T15:02:56.289Z</time>
      </trkpt>
      <trkpt lat="46.72206" lon="6.39678">
        <ele>774.080799</ele>
        <time>2021-07-07T15:03:26.568Z</time>
      </trkpt>
      <trkpt lat="46.722" lon="6.39665">
        <ele>773.915081</ele>
        <time>2021-07-07T15:03:30.298Z</time>
      </trkpt>
      <trkpt lat="46.72194" lon="6.39641">
        <ele>773.270208</ele>
        <time>2021-07-07T15:03:36.741Z</time>
      </trkpt>
      <trkpt lat="46.7218" lon="6.39616">
        <ele>772.452322</ele>
        <time>2021-07-07T15:03:45.203Z</time>
      </trkpt>
      <trkpt lat="46.72156" lon="6.39596">
        <ele>771.418939</ele>
        <time>2021-07-07T15:03:55.252Z</time>
      </trkpt>
      <trkpt lat="46.72159" lon="6.39572">
        <ele>770.793161</ele>
        <time>2021-07-07T15:04:01.035Z</time>
      </trkpt>
      <trkpt lat="46.72156" lon="6.3956">
        <ele>770.460444</ele>
        <time>2021-07-07T15:04:04.143Z</time>
      </trkpt>
      <trkpt lat="46.7217" lon="6.39555">
        <ele>769.920872</ele>
        <time>2021-07-07T15:04:09.211Z</time>
      </trkpt>
      <trkpt lat="46.72144" lon="6.39509">
        <ele>768.414901</ele>
        <time>2021-07-07T15:04:22.542Z</time>
      </trkpt>
      <trkpt lat="46.72131" lon="6.39495">
        <ele>767.807112</ele>
        <time>2021-07-07T15:04:27.727Z</time>
      </trkpt>
      <trkpt lat="46.72074" lon="6.39472">
        <ele>765.414921</ele>
        <time>2021-07-07T15:04:47.833Z</time>
      </trkpt>
      <trkpt lat="46.72031" lon="6.39474">
        <ele>763.640088</ele>
        <time>2021-07-07T15:05:02.929Z</time>
      </trkpt>
      <trkpt lat="46.72017" lon="6.39469">
        <ele>763.049628</ele>
        <time>2021-07-07T15:05:08.000Z</time>
      </trkpt>
      <trkpt lat="46.71991" lon="6.39439">
        <ele>761.673365</ele>
        <time>2021-07-07T15:05:19.960Z</time>
      </trkpt>
      <trkpt lat="46.71976" lon="6.39414">
        <ele>760.758592</ele>
        <time>2021-07-07T15:05:27.964Z</time>
      </trkpt>
      <trkpt lat="46.71977" lon="6.39402">
        <ele>760.403557</ele>
        <time>2021-07-07T15:05:31.097Z</time>
      </trkpt>
      <trkpt lat="46.71957" lon="6.39375">
        <ele>759.745499</ele>
        <time>2021-07-07T15:05:40.899Z</time>
      </trkpt>
      <trkpt lat="46.7193" lon="6.39354">
        <ele>759.200578</ele>
        <time>2021-07-07T15:05:52.069Z</time>
      </trkpt>
      <trkpt lat="46.71907" lon="6.39307">
        <ele>758.496704</ele>
        <time>2021-07-07T15:06:06.580Z</time>
      </trkpt>
      <trkpt lat="46.71857" lon="6.39229">
        <ele>757.180639</ele>
        <time>2021-07-07T15:06:33.763Z</time>
      </trkpt>
      <trkpt lat="46.7182" lon="6.39187">
        <ele>756.600479</ele>
        <time>2021-07-07T15:06:51.242Z</time>
      </trkpt>
      <trkpt lat="46.71807" lon="6.39156">
        <ele>756.372372</ele>
        <time>2021-07-07T15:07:00.594Z</time>
      </trkpt>
      <trkpt lat="46.7178" lon="6.39114">
        <ele>756.006552</ele>
        <time>2021-07-07T15:07:15.459Z</time>
      </trkpt>
      <trkpt lat="46.7177" lon="6.39112">
        <ele>755.915242</ele>
        <time>2021-07-07T15:07:19.105Z</time>
      </trkpt>
      <trkpt lat="46.71742" lon="6.39132">
        <ele>755.632285</ele>
        <time>2021-07-07T15:07:30.766Z</time>
      </trkpt>
      <trkpt lat="46.71737" lon="6.39139">
        <ele>755.561245</ele>
        <time>2021-07-07T15:07:33.645Z</time>
      </trkpt>
      <trkpt lat="46.71737" lon="6.39152">
        <ele>755.479251</ele>
        <time>2021-07-07T15:07:36.999Z</time>
      </trkpt>
      <trkpt lat="46.71733" lon="6.39165">
        <ele>755.393393</ele>
        <time>2021-07-07T15:07:40.799Z</time>
      </trkpt>
      <trkpt lat="46.71712" lon="6.39164">
        <ele>755.225444</ele>
        <time>2021-07-07T15:07:48.491Z</time>
      </trkpt>
      <trkpt lat="46.71689" lon="6.39161">
        <ele>755.333248</ele>
        <time>2021-07-07T15:07:57.225Z</time>
      </trkpt>
      <trkpt lat="46.71655" lon="6.3914">
        <ele>755.509998</ele>
        <time>2021-07-07T15:08:11.396Z</time>
      </trkpt>
      <trkpt lat="46.71632" lon="6.39139">
        <ele>755.621296</ele>
        <time>2021-07-07T15:08:20.397Z</time>
      </trkpt>
      <trkpt lat="46.71591" lon="6.39081">
        <ele>755.893418</ele>
        <time>2021-07-07T15:08:42.566Z</time>
      </trkpt>
      <trkpt lat="46.71475" lon="6.3899">
        <ele>758.216891</ele>
        <time>2021-07-07T15:09:37.177Z</time>
      </trkpt>
      <trkpt lat="46.71458" lon="6.38988">
        <ele>758.605691</ele>
        <time>2021-07-07T15:09:44.363Z</time>
      </trkpt>
      <trkpt lat="46.71435" lon="6.39005">
        <ele>759.185114</ele>
        <time>2021-07-07T15:09:55.253Z</time>
      </trkpt>
      <trkpt lat="46.71416" lon="6.39">
        <ele>759.636984</ele>
        <time>2021-07-07T15:10:03.800Z</time>
      </trkpt>
      <trkpt lat="46.71409" lon="6.39007">
        <ele>759.828759</ele>
        <time>2021-07-07T15:10:06.963Z</time>
      </trkpt>
      <trkpt lat="46.71398" lon="6.3901">
        <ele>760.086511</ele>
        <time>2021-07-07T15:10:10.915Z</time>
      </trkpt>
      <trkpt lat="46.71386" lon="6.38988">
        <ele>760.471111</ele>
        <time>2021-07-07T15:10:17.876Z</time>
      </trkpt>
      <trkpt lat="46.71385" lon="6.38984">
        <ele>760.53489</ele>
        <time>2021-07-07T15:10:19.252Z</time>
      </trkpt>
      <trkpt lat="46.71365" lon="6.38927">
        <ele>761.377537</ele>
        <time>2021-07-07T15:10:35.004Z</time>
      </trkpt>
      <trkpt lat="46.71354" lon="6.38891">
        <ele>761.901559</ele>
        <time>2021-07-07T15:10:44.864Z</time>
      </trkpt>
      <trkpt lat="46.71336" lon="6.38793">
        <ele>763.23996</ele>
        <time>2021-07-07T15:11:08.945Z</time>
      </trkpt>
      <trkpt lat="46.71322" lon="6.38736">
        <ele>763.850914</ele>
        <time>2021-07-07T15:11:22.954Z</time>
      </trkpt>
      <trkpt lat="46.71306" lon="6.38692">
        <ele>764.17611</ele>
        <time>2021-07-07T15:11:34.383Z</time>
      </trkpt>
      <trkpt lat="46.71293" lon="6.38666">
        <ele>764.382842</ele>
        <time>2021-07-07T15:11:41.650Z</time>
      </trkpt>
      <trkpt lat="46.71282" lon="6.38651">
        <ele>764.522573</ele>
        <time>2021-07-07T15:11:46.553Z</time>
      </trkpt>
      <trkpt lat="46.71262" lon="6.38621">
        <ele>764.798643</ele>
        <time>2021-07-07T15:11:56.380Z</time>
      </trkpt>
      <trkpt lat="46.71213" lon="6.38563">
        <ele>765.466137</ele>
        <time>2021-07-07T15:12:17.743Z</time>
      </trkpt>
      <trkpt lat="46.7118" lon="6.38514">
        <ele>767.20239</ele>
        <time>2021-07-07T15:12:34.303Z</time>
      </trkpt>
      <trkpt lat="46.71152" lon="6.38479">
        <ele>768.572717</ele>
        <time>2021-07-07T15:12:48.046Z</time>
      </trkpt>
      <trkpt lat="46.7115" lon="6.38474">
        <ele>768.715789</ele>
        <time>2021-07-07T15:12:49.506Z</time>
      </trkpt>
      <trkpt lat="46.71148" lon="6.38468">
        <ele>768.868634</ele>
        <time>2021-07-07T15:12:51.037Z</time>
      </trkpt>
      <trkpt lat="46.71123" lon="6.38388">
        <ele>771.115199</ele>
        <time>2021-07-07T15:13:15.158Z</time>
      </trkpt>
      <trkpt lat="46.71114" lon="6.38402">
        <ele>771.626972</ele>
        <time>2021-07-07T15:13:20.780Z</time>
      </trkpt>
      <trkpt lat="46.71108" lon="6.3841">
        <ele>771.906247</ele>
        <time>2021-07-07T15:13:23.911Z</time>
      </trkpt>
      <trkpt lat="46.71103" lon="6.38419">
        <ele>772.466288</ele>
        <time>2021-07-07T15:13:27.654Z</time>
      </trkpt>
      <trkpt lat="46.71086" lon="6.3845">
        <ele>774.618944</ele>
        <time>2021-07-07T15:13:39.052Z</time>
      </trkpt>
      <trkpt lat="46.71074" lon="6.38482">
        <ele>776.616848</ele>
        <time>2021-07-07T15:13:49.443Z</time>
      </trkpt>
      <trkpt lat="46.71047" lon="6.38558">
        <ele>781.40411</ele>
        <time>2021-07-07T15:14:16.359Z</time>
      </trkpt>
      <trkpt lat="46.71042" lon="6.38573">
        <ele>782.314306</ele>
        <time>2021-07-07T15:14:22.320Z</time>
      </trkpt>
      <trkpt lat="46.71028" lon="6.38617">
        <ele>785.027784</ele>
        <time>2021-07-07T15:14:39.190Z</time>
      </trkpt>
      <trkpt lat="46.71025" lon="6.38631">
        <ele>785.820743</ele>
        <time>2021-07-07T15:14:45.122Z</time>
      </trkpt>
      <trkpt lat="46.71027" lon="6.38645">
        <ele>786.625714</ele>
        <time>2021-07-07T15:14:49.371Z</time>
      </trkpt>
      <trkpt lat="46.71052" lon="6.38701">
        <ele>793.248626</ele>
        <time>2021-07-07T15:15:14.340Z</time>
      </trkpt>
      <trkpt lat="46.7104" lon="6.3872">
        <ele>795.755262</ele>
        <time>2021-07-07T15:15:27.115Z</time>
      </trkpt>
      <trkpt lat="46.71015" lon="6.38743">
        <ele>799.901768</ele>
        <time>2021-07-07T15:15:45.048Z</time>
      </trkpt>
      <trkpt lat="46.70952" lon="6.38782">
        <ele>809.696519</ele>
        <time>2021-07-07T15:16:28.735Z</time>
      </trkpt>
      <trkpt lat="46.7094" lon="6.38794">
        <ele>811.77503</ele>
        <time>2021-07-07T15:16:39.403Z</time>
      </trkpt>
      <trkpt lat="46.70937" lon="6.38777">
        <ele>813.662826</ele>
        <time>2021-07-07T15:16:47.139Z</time>
      </trkpt>
      <trkpt lat="46.70924" lon="6.3877">
        <ele>816.055508</ele>
        <time>2021-07-07T15:16:57.525Z</time>
      </trkpt>
      <trkpt lat="46.70918" lon="6.38779">
        <ele>817.405663</ele>
        <time>2021-07-07T15:17:04.527Z</time>
      </trkpt>
      <trkpt lat="46.7091" lon="6.38786">
        <ele>819.041549</ele>
        <time>2021-07-07T15:17:11.158Z</time>
      </trkpt>
      <trkpt lat="46.70907" lon="6.38788">
        <ele>819.472941</ele>
        <time>2021-07-07T15:17:14.867Z</time>
      </trkpt>
      <trkpt lat="46.70881" lon="6.38777">
        <ele>824.028903</ele>
        <time>2021-07-07T15:17:32.956Z</time>
      </trkpt>
      <trkpt lat="46.70821" lon="6.38723">
        <ele>835.406682</ele>
        <time>2021-07-07T15:18:20.945Z</time>
      </trkpt>
      <trkpt lat="46.70796" lon="6.38695">
        <ele>840.668563</ele>
        <time>2021-07-07T15:18:41.191Z</time>
      </trkpt>
      <trkpt lat="46.70786" lon="6.38684">
        <ele>842.375864</ele>
        <time>2021-07-07T15:18:49.567Z</time>
      </trkpt>
      <trkpt lat="46.70726" lon="6.38598">
        <ele>853.22903</ele>
        <time>2021-07-07T15:19:37.645Z</time>
      </trkpt>
      <trkpt lat="46.70658" lon="6.38469">
        <ele>868.023593</ele>
        <time>2021-07-07T15:20:43.087Z</time>
      </trkpt>
      <trkpt lat="46.70627" lon="6.38443">
        <ele>873.336259</ele>
        <time>2021-07-07T15:21:04.123Z</time>
      </trkpt>
      <trkpt lat="46.70584" lon="6.38439">
        <ele>879.610167</ele>
        <time>2021-07-07T15:21:28.647Z</time>
      </trkpt>
      <trkpt lat="46.7058" lon="6.38442">
        <ele>880.260575</ele>
        <time>2021-07-07T15:21:33.200Z</time>
      </trkpt>
      <trkpt lat="46.70575" lon="6.38446">
        <ele>881.181104</ele>
        <time>2021-07-07T15:21:38.487Z</time>
      </trkpt>
      <trkpt lat="46.70554" lon="6.3847">
        <ele>885.052597</ele>
        <time>2021-07-07T15:21:53.078Z</time>
      </trkpt>
      <trkpt lat="46.70539" lon="6.38462">
        <ele>887.450148</ele>
        <time>2021-07-07T15:22:04.507Z</time>
      </trkpt>
      <trkpt lat="46.70527" lon="6.38391">
        <ele>896.83053</ele>
        <time>2021-07-07T15:22:39.970Z</time>
      </trkpt>
      <trkpt lat="46.70509" lon="6.38347">
        <ele>904.820272</ele>
        <time>2021-07-07T15:23:09.767Z</time>
      </trkpt>
      <trkpt lat="46.70487" lon="6.38317">
        <ele>911.771807</ele>
        <time>2021-07-07T15:23:38.470Z</time>
      </trkpt>
      <trkpt lat="46.70487" lon="6.38311">
        <ele>912.782734</ele>
        <time>2021-07-07T15:23:40.959Z</time>
      </trkpt>
      <trkpt lat="46.70485" lon="6.38302">
        <ele>914.256482</ele>
        <time>2021-07-07T15:23:46.560Z</time>
      </trkpt>
      <trkpt lat="46.70474" lon="6.38276">
        <ele>919.046013</ele>
        <time>2021-07-07T15:24:04.618Z</time>
      </trkpt>
      <trkpt lat="46.70462" lon="6.38263">
        <ele>922.360082</ele>
        <time>2021-07-07T15:24:15.138Z</time>
      </trkpt>
      <trkpt lat="46.70452" lon="6.38257">
        <ele>924.987727</ele>
        <time>2021-07-07T15:24:30.009Z</time>
      </trkpt>
      <trkpt lat="46.70424" lon="6.3824">
        <ele>931.80126</ele>
        <time>2021-07-07T15:25:02.634Z</time>
      </trkpt>
      <trkpt lat="46.70404" lon="6.38209">
        <ele>940.778862</ele>
        <time>2021-07-07T15:25:37.103Z</time>
      </trkpt>
      <trkpt lat="46.70372" lon="6.38177">
        <ele>952.686096</ele>
        <time>2021-07-07T15:26:30.750Z</time>
      </trkpt>
      <trkpt lat="46.7031" lon="6.38127">
        <ele>974.624542</ele>
        <time>2021-07-07T15:28:05.350Z</time>
      </trkpt>
      <trkpt lat="46.70304" lon="6.38124">
        <ele>976.670145</ele>
        <time>2021-07-07T15:28:17.078Z</time>
      </trkpt>
      <trkpt lat="46.70301" lon="6.38122">
        <ele>977.715444</ele>
        <time>2021-07-07T15:28:25.220Z</time>
      </trkpt>
      <trkpt lat="46.70291" lon="6.38111">
        <ele>981.661165</ele>
        <time>2021-07-07T15:28:36.694Z</time>
      </trkpt>
      <trkpt lat="46.70278" lon="6.38106">
        <ele>985.789303</ele>
        <time>2021-07-07T15:28:48.508Z</time>
      </trkpt>
      <trkpt lat="46.7025" lon="6.38106">
        <ele>994.705785</ele>
        <time>2021-07-07T15:29:34.746Z</time>
      </trkpt>
      <trkpt lat="46.70231" lon="6.38093">
        <ele>1001.593389</ele>
        <time>2021-07-07T15:30:04.617Z</time>
      </trkpt>
      <trkpt lat="46.70177" lon="6.38079">
        <ele>1019.183655</ele>
        <time>2021-07-07T15:31:24.003Z</time>
      </trkpt>
      <trkpt lat="46.70123" lon="6.3808">
        <ele>1036.470895</ele>
        <time>2021-07-07T15:32:31.935Z</time>
      </trkpt>
      <trkpt lat="46.7012" lon="6.3808">
        <ele>1037.499975</ele>
        <time>2021-07-07T15:32:39.777Z</time>
      </trkpt>
      <trkpt lat="46.70109" lon="6.3808">
        <ele>1041.197204</ele>
        <time>2021-07-07T15:32:55.001Z</time>
      </trkpt>
      <trkpt lat="46.70084" lon="6.38079">
        <ele>1048.695311</ele>
        <time>2021-07-07T15:33:23.055Z</time>
      </trkpt>
      <trkpt lat="46.7005" lon="6.38095">
        <ele>1058.895701</ele>
        <time>2021-07-07T15:34:06.860Z</time>
      </trkpt>
      <trkpt lat="46.69963" lon="6.38101">
        <ele>1083.675691</ele>
        <time>2021-07-07T15:35:58.878Z</time>
      </trkpt>
      <trkpt lat="46.69925" lon="6.38112">
        <ele>1094.859207</ele>
        <time>2021-07-07T15:36:40.044Z</time>
      </trkpt>
      <trkpt lat="46.69891" lon="6.38104">
        <ele>1102.566235</ele>
        <time>2021-07-07T15:37:20.387Z</time>
      </trkpt>
      <trkpt lat="46.69861" lon="6.38113">
        <ele>1108.734872</ele>
        <time>2021-07-07T15:37:50.011Z</time>
      </trkpt>
      <trkpt lat="46.6984" lon="6.3811">
        <ele>1112.981759</ele>
        <time>2021-07-07T15:38:12.742Z</time>
      </trkpt>
      <trkpt lat="46.6978" lon="6.38132">
        <ele>1125.640388</ele>
        <time>2021-07-07T15:39:09.809Z</time>
      </trkpt>
      <trkpt lat="46.6976" lon="6.38152">
        <ele>1130.634401</ele>
        <time>2021-07-07T15:39:26.789Z</time>
      </trkpt>
      <trkpt lat="46.69756" lon="6.38158">
        <ele>1131.737445</ele>
        <time>2021-07-07T15:39:35.245Z</time>
      </trkpt>
      <trkpt lat="46.6975" lon="6.38166">
        <ele>1133.470924</ele>
        <time>2021-07-07T15:39:40.026Z</time>
      </trkpt>
      <trkpt lat="46.69745" lon="6.38192">
        <ele>1135.690941</ele>
        <time>2021-07-07T15:39:51.557Z</time>
      </trkpt>
      <trkpt lat="46.69709" lon="6.3819">
        <ele>1139.62909</ele>
        <time>2021-07-07T15:40:16.022Z</time>
      </trkpt>
      <trkpt lat="46.69693" lon="6.38183">
        <ele>1141.520956</ele>
        <time>2021-07-07T15:40:28.898Z</time>
      </trkpt>
      <trkpt lat="46.69691" lon="6.38202">
        <ele>1142.991335</ele>
        <time>2021-07-07T15:40:35.769Z</time>
      </trkpt>
      <trkpt lat="46.69684" lon="6.38207">
        <ele>1143.897224</ele>
        <time>2021-07-07T15:40:40.452Z</time>
      </trkpt>
      <trkpt lat="46.69664" lon="6.382">
        <ele>1146.18344</ele>
        <time>2021-07-07T15:40:54.290Z</time>
      </trkpt>
      <trkpt lat="46.6966" lon="6.38175">
        <ele>1148.179161</ele>
        <time>2021-07-07T15:41:03.539Z</time>
      </trkpt>
      <trkpt lat="46.69652" lon="6.38137">
        <ele>1151.174472</ele>
        <time>2021-07-07T15:41:16.718Z</time>
      </trkpt>
      <trkpt lat="46.69597" lon="6.38063">
        <ele>1159.826324</ele>
        <time>2021-07-07T15:41:51.007Z</time>
      </trkpt>
      <trkpt lat="46.69585" lon="6.37999">
        <ele>1165.22485</ele>
        <time>2021-07-07T15:42:15.857Z</time>
      </trkpt>
      <trkpt lat="46.69583" lon="6.37954">
        <ele>1168.943349</ele>
        <time>2021-07-07T15:42:34.419Z</time>
      </trkpt>
      <trkpt lat="46.69593" lon="6.37847">
        <ele>1178.315418</ele>
        <time>2021-07-07T15:43:23.367Z</time>
      </trkpt>
      <trkpt lat="46.69588" lon="6.37767">
        <ele>1186.240102</ele>
        <time>2021-07-07T15:43:58.293Z</time>
      </trkpt>
      <trkpt lat="46.69589" lon="6.37715">
        <ele>1191.366294</ele>
        <time>2021-07-07T15:44:20.701Z</time>
      </trkpt>
      <trkpt lat="46.6959" lon="6.37691">
        <ele>1193.722159</ele>
        <time>2021-07-07T15:44:33.250Z</time>
      </trkpt>
      <trkpt lat="46.69553" lon="6.37606">
        <ele>1203.108303</ele>
        <time>2021-07-07T15:45:21.872Z</time>
      </trkpt>
      <trkpt lat="46.69469" lon="6.37476">
        <ele>1216.874945</ele>
        <time>2021-07-07T15:46:40.592Z</time>
      </trkpt>
      <trkpt lat="46.69429" lon="6.37387">
        <ele>1225.534554</ele>
        <time>2021-07-07T15:47:25.559Z</time>
      </trkpt>
      <trkpt lat="46.69385" lon="6.37308">
        <ele>1234.631827</ele>
        <time>2021-07-07T15:48:12.068Z</time>
      </trkpt>
      <trkpt lat="46.69339" lon="6.37206">
        <ele>1245.320539</ele>
        <time>2021-07-07T15:49:16.134Z</time>
      </trkpt>
      <trkpt lat="46.69323" lon="6.37153">
        <ele>1250.403649</ele>
        <time>2021-07-07T15:49:45.845Z</time>
      </trkpt>
      <trkpt lat="46.69329" lon="6.37124">
        <ele>1253.002571</ele>
        <time>2021-07-07T15:50:00.063Z</time>
      </trkpt>
      <trkpt lat="46.69345" lon="6.37107">
        <ele>1255.533264</ele>
        <time>2021-07-07T15:50:14.855Z</time>
      </trkpt>
      <trkpt lat="46.69345" lon="6.3709">
        <ele>1257.058302</ele>
        <time>2021-07-07T15:50:22.991Z</time>
      </trkpt>
      <trkpt lat="46.69337" lon="6.37053">
        <ele>1260.400885</ele>
        <time>2021-07-07T15:50:41.093Z</time>
      </trkpt>
      <trkpt lat="46.69282" lon="6.36936">
        <ele>1270.085434</ele>
        <time>2021-07-07T15:51:41.922Z</time>
      </trkpt>
      <trkpt lat="46.69138" lon="6.36646">
        <ele>1285.107198</ele>
        <time>2021-07-07T15:53:37.262Z</time>
      </trkpt>
      <trkpt lat="46.69076" lon="6.36507">
        <ele>1293.004078</ele>
        <time>2021-07-07T15:54:36.217Z</time>
      </trkpt>
      <trkpt lat="46.69032" lon="6.36425">
        <ele>1299.460638</ele>
        <time>2021-07-07T15:55:18.156Z</time>
      </trkpt>
      <trkpt lat="46.69029" lon="6.36407">
        <ele>1300.580162</ele>
        <time>2021-07-07T15:55:25.694Z</time>
      </trkpt>
      <trkpt lat="46.69039" lon="6.3639">
        <ele>1301.936877</ele>
        <time>2021-07-07T15:55:34.965Z</time>
      </trkpt>
      <trkpt lat="46.69039" lon="6.36358">
        <ele>1303.905492</ele>
        <time>2021-07-07T15:55:48.442Z</time>
      </trkpt>
      <trkpt lat="46.68977" lon="6.3624">
        <ele>1313.782056</ele>
        <time>2021-07-07T15:56:52.246Z</time>
      </trkpt>
      <trkpt lat="46.68954" lon="6.3612">
        <ele>1322.225103</ele>
        <time>2021-07-07T15:57:43.882Z</time>
      </trkpt>
      <trkpt lat="46.68908" lon="6.36059">
        <ele>1327.633003</ele>
        <time>2021-07-07T15:58:18.540Z</time>
      </trkpt>
      <trkpt lat="46.68814" lon="6.35876">
        <ele>1341.399012</ele>
        <time>2021-07-07T15:59:46.221Z</time>
      </trkpt>
      <trkpt lat="46.68809" lon="6.35851">
        <ele>1343.187019</ele>
        <time>2021-07-07T15:59:56.528Z</time>
      </trkpt>
      <trkpt lat="46.68805" lon="6.35834">
        <ele>1344.303237</ele>
        <time>2021-07-07T16:00:03.406Z</time>
      </trkpt>
      <trkpt lat="46.68735" lon="6.3571">
        <ele>1354.971716</ele>
        <time>2021-07-07T16:01:09.893Z</time>
      </trkpt>
      <trkpt lat="46.68689" lon="6.35615">
        <ele>1365.467951</ele>
        <time>2021-07-07T16:02:02.863Z</time>
      </trkpt>
      <trkpt lat="46.68676" lon="6.35572">
        <ele>1369.980921</ele>
        <time>2021-07-07T16:02:25.938Z</time>
      </trkpt>
      <trkpt lat="46.68607" lon="6.35516">
        <ele>1380.90252</ele>
        <time>2021-07-07T16:03:25.261Z</time>
      </trkpt>
      <trkpt lat="46.6849" lon="6.35363">
        <ele>1410.375367</ele>
        <time>2021-07-07T16:05:43.148Z</time>
      </trkpt>
      <trkpt lat="46.68472" lon="6.35361">
        <ele>1413.644225</ele>
        <time>2021-07-07T16:05:59.247Z</time>
      </trkpt>
      <trkpt lat="46.68467" lon="6.35351">
        <ele>1414.993719</ele>
        <time>2021-07-07T16:06:07.052Z</time>
      </trkpt>
      <trkpt lat="46.68479" lon="6.3533">
        <ele>1417.787144</ele>
        <time>2021-07-07T16:06:24.676Z</time>
      </trkpt>
      <trkpt lat="46.6848" lon="6.35229">
        <ele>1427.709393</ele>
        <time>2021-07-07T16:07:25.334Z</time>
      </trkpt>
      <trkpt lat="46.68446" lon="6.35165">
        <ele>1435.78735</ele>
        <time>2021-07-07T16:08:03.962Z</time>
      </trkpt>
      <trkpt lat="46.68417" lon="6.35138">
        <ele>1440.083124</ele>
        <time>2021-07-07T16:08:22.286Z</time>
      </trkpt>
      <trkpt lat="46.68388" lon="6.35122">
        <ele>1439.146382</ele>
        <time>2021-07-07T16:08:36.535Z</time>
      </trkpt>
      <trkpt lat="46.68331" lon="6.35088">
        <ele>1437.266865</ele>
        <time>2021-07-07T16:08:59.668Z</time>
      </trkpt>
      <trkpt lat="46.6827" lon="6.3508">
        <ele>1435.426792</ele>
        <time>2021-07-07T16:09:19.662Z</time>
      </trkpt>
      <trkpt lat="46.68213" lon="6.35064">
        <ele>1430.457962</ele>
        <time>2021-07-07T16:09:37.298Z</time>
      </trkpt>
      <trkpt lat="46.68144" lon="6.35066">
        <ele>1422.240451</ele>
        <time>2021-07-07T16:09:58.084Z</time>
      </trkpt>
      <trkpt lat="46.681" lon="6.35062">
        <ele>1417.056542</ele>
        <time>2021-07-07T16:10:11.225Z</time>
      </trkpt>
      <trkpt lat="46.6808" lon="6.35061">
        <ele>1414.583862</ele>
        <time>2021-07-07T16:10:17.506Z</time>
      </trkpt>
      <trkpt lat="46.68023" lon="6.35062">
        <ele>1408.268483</ele>
        <time>2021-07-07T16:10:34.495Z</time>
      </trkpt>
      <trkpt lat="46.68" lon="6.35083">
        <ele>1405.259471</ele>
        <time>2021-07-07T16:10:42.694Z</time>
      </trkpt>
      <trkpt lat="46.67984" lon="6.35079">
        <ele>1403.430068</ele>
        <time>2021-07-07T16:10:47.696Z</time>
      </trkpt>
      <trkpt lat="46.67976" lon="6.35067">
        <ele>1402.132736</ele>
        <time>2021-07-07T16:10:51.244Z</time>
      </trkpt>
      <trkpt lat="46.67975" lon="6.35066">
        <ele>1401.997384</ele>
        <time>2021-07-07T16:10:51.637Z</time>
      </trkpt>
      <trkpt lat="46.67965" lon="6.3507">
        <ele>1400.870106</ele>
        <time>2021-07-07T16:10:54.333Z</time>
      </trkpt>
      <trkpt lat="46.67915" lon="6.3509">
        <ele>1395.086525</ele>
        <time>2021-07-07T16:11:08.156Z</time>
      </trkpt>
      <trkpt lat="46.67813" lon="6.35041">
        <ele>1382.026179</ele>
        <time>2021-07-07T16:11:40.666Z</time>
      </trkpt>
      <trkpt lat="46.6776" lon="6.35043">
        <ele>1375.508912</ele>
        <time>2021-07-07T16:11:56.613Z</time>
      </trkpt>
      <trkpt lat="46.6772" lon="6.35027">
        <ele>1370.214837</ele>
        <time>2021-07-07T16:12:09.043Z</time>
      </trkpt>
      <trkpt lat="46.67677" lon="6.35021">
        <ele>1363.334117</ele>
        <time>2021-07-07T16:12:22.090Z</time>
      </trkpt>
      <trkpt lat="46.67657" lon="6.35015">
        <ele>1360.173701</ele>
        <time>2021-07-07T16:12:28.073Z</time>
      </trkpt>
      <trkpt lat="46.6764" lon="6.35023">
        <ele>1357.25775</ele>
        <time>2021-07-07T16:12:33.598Z</time>
      </trkpt>
      <trkpt lat="46.67615" lon="6.35018">
        <ele>1353.257938</ele>
        <time>2021-07-07T16:12:41.158Z</time>
      </trkpt>
      <trkpt lat="46.67553" lon="6.35028">
        <ele>1343.35302</ele>
        <time>2021-07-07T16:12:59.824Z</time>
      </trkpt>
      <trkpt lat="46.67438" lon="6.35">
        <ele>1322.938511</ele>
        <time>2021-07-07T16:13:34.511Z</time>
      </trkpt>
      <trkpt lat="46.67367" lon="6.34997">
        <ele>1310.346365</ele>
        <time>2021-07-07T16:13:55.735Z</time>
      </trkpt>
      <trkpt lat="46.67329" lon="6.35038">
        <ele>1302.177675</ele>
        <time>2021-07-07T16:14:09.651Z</time>
      </trkpt>
      <trkpt lat="46.67301" lon="6.35044">
        <ele>1297.248769</ele>
        <time>2021-07-07T16:14:18.139Z</time>
      </trkpt>
      <trkpt lat="46.67297" lon="6.35042">
        <ele>1296.416647</ele>
        <time>2021-07-07T16:14:19.723Z</time>
      </trkpt>
      <trkpt lat="46.67293" lon="6.35041">
        <ele>1295.731871</ele>
        <time>2021-07-07T16:14:20.861Z</time>
      </trkpt>
      <trkpt lat="46.67319" lon="6.34988">
        <ele>1287.961379</ele>
        <time>2021-07-07T16:14:34.193Z</time>
      </trkpt>
      <trkpt lat="46.67317" lon="6.3497">
        <ele>1285.721457</ele>
        <time>2021-07-07T16:14:38.063Z</time>
      </trkpt>
      <trkpt lat="46.6727" lon="6.34988">
        <ele>1277.375559</ele>
        <time>2021-07-07T16:14:52.570Z</time>
      </trkpt>
      <trkpt lat="46.67241" lon="6.34964">
        <ele>1271.852919</ele>
        <time>2021-07-07T16:15:02.683Z</time>
      </trkpt>
      <trkpt lat="46.67206" lon="6.3495">
        <ele>1266.023408</ele>
        <time>2021-07-07T16:15:13.353Z</time>
      </trkpt>
      <trkpt lat="46.6718" lon="6.34948">
        <ele>1261.776432</ele>
        <time>2021-07-07T16:15:21.151Z</time>
      </trkpt>
      <trkpt lat="46.67106" lon="6.34959">
        <ele>1249.826215</ele>
        <time>2021-07-07T16:15:43.560Z</time>
      </trkpt>
      <trkpt lat="46.67077" lon="6.34952">
        <ele>1247.053255</ele>
        <time>2021-07-07T16:15:52.530Z</time>
      </trkpt>
      <trkpt lat="46.67068" lon="6.34958">
        <ele>1246.132274</ele>
        <time>2021-07-07T16:15:55.414Z</time>
      </trkpt>
      <trkpt lat="46.67054" lon="6.34951">
        <ele>1244.728643</ele>
        <time>2021-07-07T16:16:00.203Z</time>
      </trkpt>
      <trkpt lat="46.67033" lon="6.34923">
        <ele>1242.06961</ele>
        <time>2021-07-07T16:16:08.803Z</time>
      </trkpt>
      <trkpt lat="46.67021" lon="6.34879">
        <ele>1238.989719</ele>
        <time>2021-07-07T16:16:19.128Z</time>
      </trkpt>
      <trkpt lat="46.67021" lon="6.34852">
        <ele>1237.273445</ele>
        <time>2021-07-07T16:16:25.475Z</time>
      </trkpt>
      <trkpt lat="46.6703" lon="6.34831">
        <ele>1235.661909</ele>
        <time>2021-07-07T16:16:30.766Z</time>
      </trkpt>
      <trkpt lat="46.67043" lon="6.34818">
        <ele>1234.162063</ele>
        <time>2021-07-07T16:16:36.472Z</time>
      </trkpt>
      <trkpt lat="46.67048" lon="6.34808">
        <ele>1233.375873</ele>
        <time>2021-07-07T16:16:39.383Z</time>
      </trkpt>
      <trkpt lat="46.67048" lon="6.34788">
        <ele>1232.57074</ele>
        <time>2021-07-07T16:16:43.578Z</time>
      </trkpt>
      <trkpt lat="46.67035" lon="6.34772">
        <ele>1231.647871</ele>
        <time>2021-07-07T16:16:49.842Z</time>
      </trkpt>
      <trkpt lat="46.67017" lon="6.34757">
        <ele>1230.493516</ele>
        <time>2021-07-07T16:16:57.707Z</time>
      </trkpt>
      <trkpt lat="46.66967" lon="6.34744">
        <ele>1227.753971</ele>
        <time>2021-07-07T16:17:15.781Z</time>
      </trkpt>
      <trkpt lat="46.66942" lon="6.34723">
        <ele>1226.178085</ele>
        <time>2021-07-07T16:17:25.876Z</time>
      </trkpt>
      <trkpt lat="46.6689" lon="6.3473">
        <ele>1223.230487</ele>
        <time>2021-07-07T16:17:43.003Z</time>
      </trkpt>
      <trkpt lat="46.66736" lon="6.3471">
        <ele>1205.747768</ele>
        <time>2021-07-07T16:18:29.737Z</time>
      </trkpt>
      <trkpt lat="46.66696" lon="6.34695">
        <ele>1200.611235</ele>
        <time>2021-07-07T16:18:42.278Z</time>
      </trkpt>
      <trkpt lat="46.66617" lon="6.34641">
        <ele>1188.847152</ele>
        <time>2021-07-07T16:19:08.385Z</time>
      </trkpt>
      <trkpt lat="46.66568" lon="6.34622">
        <ele>1181.973611</ele>
        <time>2021-07-07T16:19:23.628Z</time>
      </trkpt>
      <trkpt lat="46.66445" lon="6.34624">
        <ele>1167.821249</ele>
        <time>2021-07-07T16:20:00.746Z</time>
      </trkpt>
      <trkpt lat="46.66432" lon="6.34602">
        <ele>1165.681805</ele>
        <time>2021-07-07T16:20:06.703Z</time>
      </trkpt>
      <trkpt lat="46.66403" lon="6.34594">
        <ele>1162.409244</ele>
        <time>2021-07-07T16:20:15.939Z</time>
      </trkpt>
      <trkpt lat="46.66368" lon="6.34601">
        <ele>1158.640755</ele>
        <time>2021-07-07T16:20:27.156Z</time>
      </trkpt>
      <trkpt lat="46.66348" lon="6.34614">
        <ele>1157.162614</ele>
        <time>2021-07-07T16:20:34.107Z</time>
      </trkpt>
      <trkpt lat="46.66326" lon="6.34614">
        <ele>1155.641858</ele>
        <time>2021-07-07T16:20:41.321Z</time>
      </trkpt>
      <trkpt lat="46.66291" lon="6.34596">
        <ele>1153.190651</ele>
        <time>2021-07-07T16:20:53.133Z</time>
      </trkpt>
      <trkpt lat="46.66216" lon="6.34583">
        <ele>1148.02961</ele>
        <time>2021-07-07T16:21:18.722Z</time>
      </trkpt>
      <trkpt lat="46.6618" lon="6.34623">
        <ele>1145.960301</ele>
        <time>2021-07-07T16:21:34.172Z</time>
      </trkpt>
      <trkpt lat="46.66139" lon="6.34622">
        <ele>1144.808827</ele>
        <time>2021-07-07T16:21:48.009Z</time>
      </trkpt>
      <trkpt lat="46.66069" lon="6.34632">
        <ele>1142.799187</ele>
        <time>2021-07-07T16:22:13.163Z</time>
      </trkpt>
      <trkpt lat="46.66077" lon="6.34618">
        <ele>1142.444046</ele>
        <time>2021-07-07T16:22:17.688Z</time>
      </trkpt>
      <trkpt lat="46.661" lon="6.34571">
        <ele>1141.919111</ele>
        <time>2021-07-07T16:22:33.195Z</time>
      </trkpt>
      <trkpt lat="46.66106" lon="6.34553">
        <ele>1142.523007</ele>
        <time>2021-07-07T16:22:38.969Z</time>
      </trkpt>
      <trkpt lat="46.66096" lon="6.34556">
        <ele>1142.966339</ele>
        <time>2021-07-07T16:22:43.946Z</time>
      </trkpt>
      <trkpt lat="46.66065" lon="6.3457">
        <ele>1144.32789</ele>
        <time>2021-07-07T16:22:57.494Z</time>
      </trkpt>
      <trkpt lat="46.66042" lon="6.34557">
        <ele>1145.363888</ele>
        <time>2021-07-07T16:23:07.939Z</time>
      </trkpt>
      <trkpt lat="46.6601" lon="6.34549">
        <ele>1146.770608</ele>
        <time>2021-07-07T16:23:22.438Z</time>
      </trkpt>
      <trkpt lat="46.66008" lon="6.34547">
        <ele>1146.861386</ele>
        <time>2021-07-07T16:23:24.607Z</time>
      </trkpt>
      <trkpt lat="46.66008" lon="6.34547">
        <ele>1146.861386</ele>
        <time>2021-07-07T16:23:24.607Z</time>
      </trkpt>
      <trkpt lat="46.66006" lon="6.34545">
        <ele>1146.972696</ele>
        <time>2021-07-07T16:23:25.727Z</time>
      </trkpt>
      <trkpt lat="46.65998" lon="6.34529">
        <ele>1147.526556</ele>
        <time>2021-07-07T16:23:31.929Z</time>
      </trkpt>
      <trkpt lat="46.65987" lon="6.34485">
        <ele>1148.907576</ele>
        <time>2021-07-07T16:23:46.254Z</time>
      </trkpt>
      <trkpt lat="46.65977" lon="6.34468">
        <ele>1150.056169</ele>
        <time>2021-07-07T16:23:53.266Z</time>
      </trkpt>
      <trkpt lat="46.65888" lon="6.3441">
        <ele>1159.61379</ele>
        <time>2021-07-07T16:24:44.106Z</time>
      </trkpt>
      <trkpt lat="46.65863" lon="6.34399">
        <ele>1162.191641</ele>
        <time>2021-07-07T16:24:57.302Z</time>
      </trkpt>
      <trkpt lat="46.6568" lon="6.34361">
        <ele>1181.305738</ele>
        <time>2021-07-07T16:26:39.132Z</time>
      </trkpt>
      <trkpt lat="46.6563" lon="6.34344">
        <ele>1186.42771</ele>
        <time>2021-07-07T16:27:04.389Z</time>
      </trkpt>
      <trkpt lat="46.65623" lon="6.34337">
        <ele>1187.169277</ele>
        <time>2021-07-07T16:27:09.841Z</time>
      </trkpt>
      <trkpt lat="46.65577" lon="6.34284">
        <ele>1192.103115</ele>
        <time>2021-07-07T16:27:37.117Z</time>
      </trkpt>
      <trkpt lat="46.65542" lon="6.34261">
        <ele>1195.40008</ele>
        <time>2021-07-07T16:27:55.068Z</time>
      </trkpt>
      <trkpt lat="46.65428" lon="6.34247">
        <ele>1205.447529</ele>
        <time>2021-07-07T16:28:48.479Z</time>
      </trkpt>
      <trkpt lat="46.65371" lon="6.3423">
        <ele>1210.785623</ele>
        <time>2021-07-07T16:29:16.116Z</time>
      </trkpt>
      <trkpt lat="46.65357" lon="6.34231">
        <ele>1212.085545</ele>
        <time>2021-07-07T16:29:24.109Z</time>
      </trkpt>
      <trkpt lat="46.65329" lon="6.3422">
        <ele>1214.716255</ele>
        <time>2021-07-07T16:29:40.826Z</time>
      </trkpt>
      <trkpt lat="46.65317" lon="6.342">
        <ele>1216.432159</ele>
        <time>2021-07-07T16:29:52.578Z</time>
      </trkpt>
      <trkpt lat="46.6531" lon="6.34172">
        <ele>1218.527615</ele>
        <time>2021-07-07T16:30:05.552Z</time>
      </trkpt>
      <trkpt lat="46.65298" lon="6.34161">
        <ele>1220.219478</ele>
        <time>2021-07-07T16:30:14.588Z</time>
      </trkpt>
      <trkpt lat="46.65282" lon="6.34162">
        <ele>1222.036957</ele>
        <time>2021-07-07T16:30:24.139Z</time>
      </trkpt>
      <trkpt lat="46.65258" lon="6.34159">
        <ele>1224.986935</ele>
        <time>2021-07-07T16:30:41.017Z</time>
      </trkpt>
      <trkpt lat="46.65213" lon="6.34159">
        <ele>1230.293996</ele>
        <time>2021-07-07T16:31:10.471Z</time>
      </trkpt>
      <trkpt lat="46.65146" lon="6.34159">
        <ele>1238.410091</ele>
        <time>2021-07-07T16:31:56.870Z</time>
      </trkpt>
      <trkpt lat="46.65118" lon="6.34165">
        <ele>1242.21969</ele>
        <time>2021-07-07T16:32:17.220Z</time>
      </trkpt>
      <trkpt lat="46.65067" lon="6.34163">
        <ele>1249.463878</ele>
        <time>2021-07-07T16:32:53.549Z</time>
      </trkpt>
      <trkpt lat="46.64877" lon="6.34132">
        <ele>1275.780183</ele>
        <time>2021-07-07T16:35:15.138Z</time>
      </trkpt>
      <trkpt lat="46.64819" lon="6.34109">
        <ele>1283.687384</ele>
        <time>2021-07-07T16:35:57.361Z</time>
      </trkpt>
      <trkpt lat="46.64779" lon="6.34064">
        <ele>1289.48738</ele>
        <time>2021-07-07T16:36:28.424Z</time>
      </trkpt>
      <trkpt lat="46.64771" lon="6.34054">
        <ele>1290.323599</ele>
        <time>2021-07-07T16:36:35.666Z</time>
      </trkpt>
      <trkpt lat="46.64767" lon="6.3405">
        <ele>1290.741732</ele>
        <time>2021-07-07T16:36:38.402Z</time>
      </trkpt>
      <trkpt lat="46.64762" lon="6.34046">
        <ele>1291.196304</ele>
        <time>2021-07-07T16:36:42.367Z</time>
      </trkpt>
      <trkpt lat="46.64711" lon="6.34029">
        <ele>1295.452795</ele>
        <time>2021-07-07T16:37:09.697Z</time>
      </trkpt>
      <trkpt lat="46.64648" lon="6.33971">
        <ele>1301.457841</ele>
        <time>2021-07-07T16:37:49.283Z</time>
      </trkpt>
      <trkpt lat="46.64643" lon="6.33964">
        <ele>1302.0619</ele>
        <time>2021-07-07T16:37:54.744Z</time>
      </trkpt>
      <trkpt lat="46.64627" lon="6.33943">
        <ele>1303.232036</ele>
        <time>2021-07-07T16:38:05.073Z</time>
      </trkpt>
      <trkpt lat="46.64601" lon="6.33936">
        <ele>1304.158583</ele>
        <time>2021-07-07T16:38:17.248Z</time>
      </trkpt>
      <trkpt lat="46.64592" lon="6.33933">
        <ele>1304.4787</ele>
        <time>2021-07-07T16:38:21.240Z</time>
      </trkpt>
      <trkpt lat="46.64585" lon="6.33939">
        <ele>1304.784495</ele>
        <time>2021-07-07T16:38:24.518Z</time>
      </trkpt>
      <trkpt lat="46.64578" lon="6.33942">
        <ele>1305.032314</ele>
        <time>2021-07-07T16:38:28.199Z</time>
      </trkpt>
      <trkpt lat="46.64568" lon="6.33945">
        <ele>1305.429249</ele>
        <time>2021-07-07T16:38:31.926Z</time>
      </trkpt>
      <trkpt lat="46.64559" lon="6.33951">
        <ele>1305.770061</ele>
        <time>2021-07-07T16:38:36.058Z</time>
      </trkpt>
      <trkpt lat="46.64522" lon="6.3398">
        <ele>1307.270176</ele>
        <time>2021-07-07T16:38:54.154Z</time>
      </trkpt>
      <trkpt lat="46.64518" lon="6.33996">
        <ele>1307.677198</ele>
        <time>2021-07-07T16:39:00.244Z</time>
      </trkpt>
      <trkpt lat="46.64504" lon="6.33988">
        <ele>1308.202927</ele>
        <time>2021-07-07T16:39:05.815Z</time>
      </trkpt>
      <trkpt lat="46.64489" lon="6.33975">
        <ele>1308.831678</ele>
        <time>2021-07-07T16:39:13.142Z</time>
      </trkpt>
      <trkpt lat="46.64396" lon="6.33937">
        <ele>1309.087184</ele>
        <time>2021-07-07T16:39:50.804Z</time>
      </trkpt>
      <trkpt lat="46.64344" lon="6.33934">
        <ele>1309.031728</ele>
        <time>2021-07-07T16:40:10.173Z</time>
      </trkpt>
      <trkpt lat="46.64277" lon="6.33952">
        <ele>1309.197169</ele>
        <time>2021-07-07T16:40:35.856Z</time>
      </trkpt>
      <trkpt lat="46.64247" lon="6.33949">
        <ele>1309.429162</ele>
        <time>2021-07-07T16:40:47.521Z</time>
      </trkpt>
      <trkpt lat="46.64202" lon="6.33961">
        <ele>1309.778101</ele>
        <time>2021-07-07T16:41:05.297Z</time>
      </trkpt>
      <trkpt lat="46.64187" lon="6.33965">
        <ele>1309.889954</ele>
        <time>2021-07-07T16:41:10.891Z</time>
      </trkpt>
      <trkpt lat="46.64182" lon="6.33971">
        <ele>1309.938875</ele>
        <time>2021-07-07T16:41:13.476Z</time>
      </trkpt>
      <trkpt lat="46.64164" lon="6.33981">
        <ele>1310.086982</ele>
        <time>2021-07-07T16:41:19.974Z</time>
      </trkpt>
      <trkpt lat="46.64119" lon="6.33983">
        <ele>1310.66576</ele>
        <time>2021-07-07T16:41:36.050Z</time>
      </trkpt>
      <trkpt lat="46.64064" lon="6.34002">
        <ele>1312.497544</ele>
        <time>2021-07-07T16:41:57.032Z</time>
      </trkpt>
      <trkpt lat="46.6402" lon="6.34004">
        <ele>1313.945949</ele>
        <time>2021-07-07T16:42:14.063Z</time>
      </trkpt>
      <trkpt lat="46.64013" lon="6.34002">
        <ele>1314.162592</ele>
        <time>2021-07-07T16:42:16.826Z</time>
      </trkpt>
      <trkpt lat="46.64008" lon="6.34">
        <ele>1314.345346</ele>
        <time>2021-07-07T16:42:18.865Z</time>
      </trkpt>
      <trkpt lat="46.64003" lon="6.33997">
        <ele>1314.509142</ele>
        <time>2021-07-07T16:42:20.612Z</time>
      </trkpt>
      <trkpt lat="46.63976" lon="6.33997">
        <ele>1315.394721</ele>
        <time>2021-07-07T16:42:32.829Z</time>
      </trkpt>
      <trkpt lat="46.63959" lon="6.33997">
        <ele>1315.960212</ele>
        <time>2021-07-07T16:42:40.270Z</time>
      </trkpt>
      <trkpt lat="46.6394" lon="6.34007">
        <ele>1316.418611</ele>
        <time>2021-07-07T16:42:49.409Z</time>
      </trkpt>
      <trkpt lat="46.63899" lon="6.34021">
        <ele>1317.039788</ele>
        <time>2021-07-07T16:43:07.198Z</time>
      </trkpt>
      <trkpt lat="46.63834" lon="6.34024">
        <ele>1317.997402</ele>
        <time>2021-07-07T16:43:33.775Z</time>
      </trkpt>
      <trkpt lat="46.6382" lon="6.34025">
        <ele>1318.196192</ele>
        <time>2021-07-07T16:43:39.223Z</time>
      </trkpt>
      <trkpt lat="46.63814" lon="6.34022">
        <ele>1318.291971</ele>
        <time>2021-07-07T16:43:41.599Z</time>
      </trkpt>
      <trkpt lat="46.63794" lon="6.34011">
        <ele>1318.610906</ele>
        <time>2021-07-07T16:43:50.477Z</time>
      </trkpt>
      <trkpt lat="46.63782" lon="6.34004">
        <ele>1318.80874</ele>
        <time>2021-07-07T16:43:55.449Z</time>
      </trkpt>
      <trkpt lat="46.63774" lon="6.34005">
        <ele>1318.871462</ele>
        <time>2021-07-07T16:43:58.883Z</time>
      </trkpt>
      <trkpt lat="46.63739" lon="6.33998">
        <ele>1318.119632</ele>
        <time>2021-07-07T16:44:14.335Z</time>
      </trkpt>
      <trkpt lat="46.63689" lon="6.34033">
        <ele>1316.915916</ele>
        <time>2021-07-07T16:44:38.709Z</time>
      </trkpt>
      <trkpt lat="46.63652" lon="6.34029">
        <ele>1316.110013</ele>
        <time>2021-07-07T16:44:54.462Z</time>
      </trkpt>
      <trkpt lat="46.63606" lon="6.33997">
        <ele>1315.022001</ele>
        <time>2021-07-07T16:45:15.701Z</time>
      </trkpt>
      <trkpt lat="46.63539" lon="6.34004">
        <ele>1312.41536</ele>
        <time>2021-07-07T16:45:43.584Z</time>
      </trkpt>
      <trkpt lat="46.63518" lon="6.34017">
        <ele>1311.524752</ele>
        <time>2021-07-07T16:45:53.187Z</time>
      </trkpt>
      <trkpt lat="46.63482" lon="6.34062">
        <ele>1309.71881</ele>
        <time>2021-07-07T16:46:12.356Z</time>
      </trkpt>
      <trkpt lat="46.6344" lon="6.34094">
        <ele>1307.890946</ele>
        <time>2021-07-07T16:46:32.266Z</time>
      </trkpt>
      <trkpt lat="46.63424" lon="6.34117">
        <ele>1307.180916</ele>
        <time>2021-07-07T16:46:41.692Z</time>
      </trkpt>
      <trkpt lat="46.63422" lon="6.3412">
        <ele>1307.085671</ele>
        <time>2021-07-07T16:46:42.744Z</time>
      </trkpt>
      <trkpt lat="46.63412" lon="6.34136">
        <ele>1306.627846</ele>
        <time>2021-07-07T16:46:47.899Z</time>
      </trkpt>
      <trkpt lat="46.63365" lon="6.34264">
        <ele>1303.41752</ele>
        <time>2021-07-07T16:47:23.861Z</time>
      </trkpt>
      <trkpt lat="46.6335" lon="6.34294">
        <ele>1302.593196</ele>
        <time>2021-07-07T16:47:33.294Z</time>
      </trkpt>
      <trkpt lat="46.63317" lon="6.34329">
        <ele>1301.069686</ele>
        <time>2021-07-07T16:47:47.714Z</time>
      </trkpt>
      <trkpt lat="46.63297" lon="6.34371">
        <ele>1299.729084</ele>
        <time>2021-07-07T16:48:00.073Z</time>
      </trkpt>
      <trkpt lat="46.63272" lon="6.34404">
        <ele>1298.41365</ele>
        <time>2021-07-07T16:48:12.046Z</time>
      </trkpt>
      <trkpt lat="46.63249" lon="6.34416">
        <ele>1297.426999</ele>
        <time>2021-07-07T16:48:20.956Z</time>
      </trkpt>
      <trkpt lat="46.6324" lon="6.34422">
        <ele>1297.06065</ele>
        <time>2021-07-07T16:48:24.193Z</time>
      </trkpt>
      <trkpt lat="46.63225" lon="6.34427">
        <ele>1296.457244</ele>
        <time>2021-07-07T16:48:29.490Z</time>
      </trkpt>
      <trkpt lat="46.63207" lon="6.34437">
        <ele>1295.707219</ele>
        <time>2021-07-07T16:48:36.196Z</time>
      </trkpt>
      <trkpt lat="46.63186" lon="6.34437">
        <ele>1294.768328</ele>
        <time>2021-07-07T16:48:43.297Z</time>
      </trkpt>
      <trkpt lat="46.63167" lon="6.34512">
        <ele>1291.997341</ele>
        <time>2021-07-07T16:49:01.914Z</time>
      </trkpt>
      <trkpt lat="46.63149" lon="6.34527">
        <ele>1290.944234</ele>
        <time>2021-07-07T16:49:08.934Z</time>
      </trkpt>
      <trkpt lat="46.63104" lon="6.34529">
        <ele>1288.636057</ele>
        <time>2021-07-07T16:49:24.316Z</time>
      </trkpt>
      <trkpt lat="46.63027" lon="6.3451">
        <ele>1285.571977</ele>
        <time>2021-07-07T16:49:51.414Z</time>
      </trkpt>
      <trkpt lat="46.62951" lon="6.34527">
        <ele>1283.968768</ele>
        <time>2021-07-07T16:50:18.897Z</time>
      </trkpt>
      <trkpt lat="46.62933" lon="6.34539">
        <ele>1283.541601</ele>
        <time>2021-07-07T16:50:26.464Z</time>
      </trkpt>
      <trkpt lat="46.6289" lon="6.34601">
        <ele>1282.515531</ele>
        <time>2021-07-07T16:50:49.403Z</time>
      </trkpt>
      <trkpt lat="46.62877" lon="6.34624">
        <ele>1282.774411</ele>
        <time>2021-07-07T16:50:57.737Z</time>
      </trkpt>
      <trkpt lat="46.62844" lon="6.34662">
        <ele>1283.290112</ele>
        <time>2021-07-07T16:51:11.889Z</time>
      </trkpt>
      <trkpt lat="46.62805" lon="6.34705">
        <ele>1283.894383</ele>
        <time>2021-07-07T16:51:28.707Z</time>
      </trkpt>
      <trkpt lat="46.62801" lon="6.34716">
        <ele>1284.002446</ele>
        <time>2021-07-07T16:51:31.935Z</time>
      </trkpt>
      <trkpt lat="46.62798" lon="6.34724">
        <ele>1284.080482</ele>
        <time>2021-07-07T16:51:34.137Z</time>
      </trkpt>
      <trkpt lat="46.62795" lon="6.34737">
        <ele>1284.199822</ele>
        <time>2021-07-07T16:51:37.530Z</time>
      </trkpt>
      <trkpt lat="46.62793" lon="6.34725">
        <ele>1284.305681</ele>
        <time>2021-07-07T16:51:40.443Z</time>
      </trkpt>
      <trkpt lat="46.62787" lon="6.34706">
        <ele>1284.488414</ele>
        <time>2021-07-07T16:51:45.831Z</time>
      </trkpt>
      <trkpt lat="46.62784" lon="6.347">
        <ele>1284.546587</ele>
        <time>2021-07-07T16:51:47.462Z</time>
      </trkpt>
      <trkpt lat="46.6278" lon="6.34694">
        <ele>1284.614356</ele>
        <time>2021-07-07T16:51:49.425Z</time>
      </trkpt>
      <trkpt lat="46.62611" lon="6.3451">
        <ele>1288.866768</ele>
        <time>2021-07-07T16:53:03.907Z</time>
      </trkpt>
      <trkpt lat="46.62601" lon="6.34504">
        <ele>1289.128238</ele>
        <time>2021-07-07T16:53:07.878Z</time>
      </trkpt>
      <trkpt lat="46.62585" lon="6.34497">
        <ele>1289.532056</ele>
        <time>2021-07-07T16:53:13.706Z</time>
      </trkpt>
      <trkpt lat="46.6256" lon="6.34484">
        <ele>1290.168846</ele>
        <time>2021-07-07T16:53:23.116Z</time>
      </trkpt>
      <trkpt lat="46.62553" lon="6.34465">
        <ele>1290.52628</ele>
        <time>2021-07-07T16:53:28.276Z</time>
      </trkpt>
      <trkpt lat="46.62537" lon="6.34359">
        <ele>1292.325868</ele>
        <time>2021-07-07T16:53:55.345Z</time>
      </trkpt>
      <trkpt lat="46.62522" lon="6.34299">
        <ele>1294.163398</ele>
        <time>2021-07-07T16:54:11.661Z</time>
      </trkpt>
      <trkpt lat="46.62491" lon="6.34207">
        <ele>1297.412229</ele>
        <time>2021-07-07T16:54:38.404Z</time>
      </trkpt>
      <trkpt lat="46.62484" lon="6.34192">
        <ele>1297.957017</ele>
        <time>2021-07-07T16:54:43.109Z</time>
      </trkpt>
      <trkpt lat="46.62454" lon="6.3416">
        <ele>1299.676666</ele>
        <time>2021-07-07T16:54:58.452Z</time>
      </trkpt>
      <trkpt lat="46.62438" lon="6.34111">
        <ele>1301.994994</ele>
        <time>2021-07-07T16:55:14.823Z</time>
      </trkpt>
      <trkpt lat="46.62371" lon="6.3406">
        <ele>1308.820076</ele>
        <time>2021-07-07T16:55:50.107Z</time>
      </trkpt>
      <trkpt lat="46.623" lon="6.34044">
        <ele>1315.321155</ele>
        <time>2021-07-07T16:56:27.305Z</time>
      </trkpt>
      <trkpt lat="46.62271" lon="6.34018">
        <ele>1318.907287</ele>
        <time>2021-07-07T16:56:46.376Z</time>
      </trkpt>
      <trkpt lat="46.62235" lon="6.33913">
        <ele>1328.98796</ele>
        <time>2021-07-07T16:57:33.038Z</time>
      </trkpt>
      <trkpt lat="46.62176" lon="6.33818">
        <ele>1340.026079</ele>
        <time>2021-07-07T16:58:25.646Z</time>
      </trkpt>
      <trkpt lat="46.62091" lon="6.33721">
        <ele>1353.862037</ele>
        <time>2021-07-07T16:59:30.815Z</time>
      </trkpt>
      <trkpt lat="46.6208" lon="6.33698">
        <ele>1356.286946</ele>
        <time>2021-07-07T16:59:41.979Z</time>
      </trkpt>
      <trkpt lat="46.6206" lon="6.33628">
        <ele>1362.821324</ele>
        <time>2021-07-07T17:00:11.723Z</time>
      </trkpt>
      <trkpt lat="46.62018" lon="6.33568">
        <ele>1368.285856</ele>
        <time>2021-07-07T17:00:43.865Z</time>
      </trkpt>
      <trkpt lat="46.61994" lon="6.33519">
        <ele>1372.132906</ele>
        <time>2021-07-07T17:01:04.894Z</time>
      </trkpt>
      <trkpt lat="46.61955" lon="6.33474">
        <ele>1376.705165</ele>
        <time>2021-07-07T17:01:28.027Z</time>
      </trkpt>
      <trkpt lat="46.61935" lon="6.33432">
        <ele>1379.752386</ele>
        <time>2021-07-07T17:01:43.238Z</time>
      </trkpt>
      <trkpt lat="46.61882" lon="6.33375">
        <ele>1384.297808</ele>
        <time>2021-07-07T17:02:11.721Z</time>
      </trkpt>
      <trkpt lat="46.61867" lon="6.33302">
        <ele>1387.871597</ele>
        <time>2021-07-07T17:02:33.995Z</time>
      </trkpt>
      <trkpt lat="46.61842" lon="6.33271">
        <ele>1390.11378</ele>
        <time>2021-07-07T17:02:48.502Z</time>
      </trkpt>
      <trkpt lat="46.61824" lon="6.33231">
        <ele>1392.644571</ele>
        <time>2021-07-07T17:03:03.251Z</time>
      </trkpt>
      <trkpt lat="46.61812" lon="6.33219">
        <ele>1393.916966</ele>
        <time>2021-07-07T17:03:09.063Z</time>
      </trkpt>
      <trkpt lat="46.61806" lon="6.33215">
        <ele>1394.527889</ele>
        <time>2021-07-07T17:03:13.391Z</time>
      </trkpt>
      <trkpt lat="46.61787" lon="6.3321">
        <ele>1396.23158</ele>
        <time>2021-07-07T17:03:22.284Z</time>
      </trkpt>
      <trkpt lat="46.61761" lon="6.33215">
        <ele>1398.588264</ele>
        <time>2021-07-07T17:03:35.417Z</time>
      </trkpt>
      <trkpt lat="46.61724" lon="6.33236">
        <ele>1402.158842</ele>
        <time>2021-07-07T17:03:55.551Z</time>
      </trkpt>
      <trkpt lat="46.61705" lon="6.33239">
        <ele>1403.860728</ele>
        <time>2021-07-07T17:04:05.193Z</time>
      </trkpt>
      <trkpt lat="46.61679" lon="6.33233">
        <ele>1406.226161</ele>
        <time>2021-07-07T17:04:19.077Z</time>
      </trkpt>
      <trkpt lat="46.61662" lon="6.33221">
        <ele>1407.921625</ele>
        <time>2021-07-07T17:04:29.178Z</time>
      </trkpt>
      <trkpt lat="46.61647" lon="6.33208">
        <ele>1409.290412</ele>
        <time>2021-07-07T17:04:38.330Z</time>
      </trkpt>
      <trkpt lat="46.61622" lon="6.33186">
        <ele>1411.682708</ele>
        <time>2021-07-07T17:04:52.180Z</time>
      </trkpt>
      <trkpt lat="46.61591" lon="6.33156">
        <ele>1414.635225</ele>
        <time>2021-07-07T17:05:09.434Z</time>
      </trkpt>
      <trkpt lat="46.61545" lon="6.33087">
        <ele>1419.952555</ele>
        <time>2021-07-07T17:05:39.413Z</time>
      </trkpt>
      <trkpt lat="46.61524" lon="6.3303">
        <ele>1423.798672</ele>
        <time>2021-07-07T17:05:58.452Z</time>
      </trkpt>
      <trkpt lat="46.61476" lon="6.32974">
        <ele>1429.551382</ele>
        <time>2021-07-07T17:06:25.880Z</time>
      </trkpt>
      <trkpt lat="46.61445" lon="6.32904">
        <ele>1434.975495</ele>
        <time>2021-07-07T17:06:55.688Z</time>
      </trkpt>
      <trkpt lat="46.61417" lon="6.32867">
        <ele>1438.527199</ele>
        <time>2021-07-07T17:07:16.680Z</time>
      </trkpt>
      <trkpt lat="46.61407" lon="6.32858">
        <ele>1439.948194</ele>
        <time>2021-07-07T17:07:23.233Z</time>
      </trkpt>
      <trkpt lat="46.61386" lon="6.32873">
        <ele>1443.573855</ele>
        <time>2021-07-07T17:07:42.758Z</time>
      </trkpt>
      <trkpt lat="46.61256" lon="6.32934">
        <ele>1464.435571</ele>
        <time>2021-07-07T17:09:47.954Z</time>
      </trkpt>
      <trkpt lat="46.6125" lon="6.32957">
        <ele>1467.056883</ele>
        <time>2021-07-07T17:10:04.834Z</time>
      </trkpt>
      <trkpt lat="46.61212" lon="6.32989">
        <ele>1473.76992</ele>
        <time>2021-07-07T17:10:45.683Z</time>
      </trkpt>
      <trkpt lat="46.6116" lon="6.33009">
        <ele>1482.190114</ele>
        <time>2021-07-07T17:11:36.204Z</time>
      </trkpt>
      <trkpt lat="46.61136" lon="6.33011">
        <ele>1485.789245</ele>
        <time>2021-07-07T17:11:57.207Z</time>
      </trkpt>
      <trkpt lat="46.61069" lon="6.32939">
        <ele>1497.278308</ele>
        <time>2021-07-07T17:13:08.630Z</time>
      </trkpt>
      <trkpt lat="46.61031" lon="6.32896">
        <ele>1502.228577</ele>
        <time>2021-07-07T17:13:46.726Z</time>
      </trkpt>
      <trkpt lat="46.60962" lon="6.32775">
        <ele>1513.074361</ele>
        <time>2021-07-07T17:14:58.983Z</time>
      </trkpt>
      <trkpt lat="46.60864" lon="6.32622">
        <ele>1522.451863</ele>
        <time>2021-07-07T17:16:23.034Z</time>
      </trkpt>
      <trkpt lat="46.60824" lon="6.32577">
        <ele>1525.961249</ele>
        <time>2021-07-07T17:16:53.117Z</time>
      </trkpt>
      <trkpt lat="46.60803" lon="6.32523">
        <ele>1529.270471</ele>
        <time>2021-07-07T17:17:19.556Z</time>
      </trkpt>
      <trkpt lat="46.60779" lon="6.32498">
        <ele>1531.522291</ele>
        <time>2021-07-07T17:17:37.992Z</time>
      </trkpt>
      <trkpt lat="46.60765" lon="6.32462">
        <ele>1533.702124</ele>
        <time>2021-07-07T17:17:56.089Z</time>
      </trkpt>
      <trkpt lat="46.6076" lon="6.32429">
        <ele>1535.468675</ele>
        <time>2021-07-07T17:18:11.023Z</time>
      </trkpt>
      <trkpt lat="46.60747" lon="6.32407">
        <ele>1537.008266</ele>
        <time>2021-07-07T17:18:24.322Z</time>
      </trkpt>
      <trkpt lat="46.60664" lon="6.32312">
        <ele>1546.209193</ele>
        <time>2021-07-07T17:19:36.955Z</time>
      </trkpt>
      <trkpt lat="46.60568" lon="6.32085">
        <ele>1560.881869</ele>
        <time>2021-07-07T17:21:41.002Z</time>
      </trkpt>
      <trkpt lat="46.60521" lon="6.3202">
        <ele>1565.497894</ele>
        <time>2021-07-07T17:22:19.608Z</time>
      </trkpt>
      <trkpt lat="46.60468" lon="6.31974">
        <ele>1567.867067</ele>
        <time>2021-07-07T17:22:52.665Z</time>
      </trkpt>
      <trkpt lat="46.60363" lon="6.31824">
        <ele>1570.698241</ele>
        <time>2021-07-07T17:24:02.550Z</time>
      </trkpt>
      <trkpt lat="46.60317" lon="6.31717">
        <ele>1572.973197</ele>
        <time>2021-07-07T17:24:41.626Z</time>
      </trkpt>
      <trkpt lat="46.60288" lon="6.31608">
        <ele>1575.069722</ele>
        <time>2021-07-07T17:25:25.474Z</time>
      </trkpt>
      <trkpt lat="46.60268" lon="6.31587">
        <ele>1576.714575</ele>
        <time>2021-07-07T17:25:40.288Z</time>
      </trkpt>
      <trkpt lat="46.60227" lon="6.3156">
        <ele>1580.581743</ele>
        <time>2021-07-07T17:26:07.338Z</time>
      </trkpt>
      <trkpt lat="46.60224" lon="6.31558">
        <ele>1580.919068</ele>
        <time>2021-07-07T17:26:11.311Z</time>
      </trkpt>
      <trkpt lat="46.60221" lon="6.31569">
        <ele>1581.578879</ele>
        <time>2021-07-07T17:26:17.088Z</time>
      </trkpt>
      <trkpt lat="46.60218" lon="6.31608">
        <ele>1583.90971</ele>
        <time>2021-07-07T17:26:30.910Z</time>
      </trkpt>
      <trkpt lat="46.60254" lon="6.31789">
        <ele>1594.544253</ele>
        <time>2021-07-07T17:27:52.930Z</time>
      </trkpt>
      <trkpt lat="46.60305" lon="6.31904">
        <ele>1601.64525</ele>
        <time>2021-07-07T17:28:41.744Z</time>
      </trkpt>
      <trkpt lat="46.60363" lon="6.31991">
        <ele>1605.767234</ele>
        <time>2021-07-07T17:29:20.696Z</time>
      </trkpt>
      <trkpt lat="46.60357" lon="6.31996">
        <ele>1605.982557</ele>
        <time>2021-07-07T17:29:23.852Z</time>
      </trkpt>
      <trkpt lat="46.60337" lon="6.31975">
        <ele>1606.741724</ele>
        <time>2021-07-07T17:29:34.730Z</time>
      </trkpt>
      <trkpt lat="46.60275" lon="6.31941">
        <ele>1608.773783</ele>
        <time>2021-07-07T17:30:02.492Z</time>
      </trkpt>
      <trkpt lat="46.602" lon="6.31955">
        <ele>1610.053127</ele>
        <time>2021-07-07T17:30:32.866Z</time>
      </trkpt>
      <trkpt lat="46.60178" lon="6.31949">
        <ele>1610.162551</ele>
        <time>2021-07-07T17:30:41.861Z</time>
      </trkpt>
      <trkpt lat="46.60173" lon="6.31947">
        <ele>1610.186761</ele>
        <time>2021-07-07T17:30:43.704Z</time>
      </trkpt>
      <trkpt lat="46.60169" lon="6.31943">
        <ele>1610.207632</ele>
        <time>2021-07-07T17:30:45.565Z</time>
      </trkpt>
      <trkpt lat="46.60157" lon="6.31936">
        <ele>1610.271152</ele>
        <time>2021-07-07T17:30:50.744Z</time>
      </trkpt>
      <trkpt lat="46.60116" lon="6.31937">
        <ele>1610.464244</ele>
        <time>2021-07-07T17:31:06.358Z</time>
      </trkpt>
      <trkpt lat="46.60095" lon="6.3191">
        <ele>1610.597924</ele>
        <time>2021-07-07T17:31:17.128Z</time>
      </trkpt>
      <trkpt lat="46.60087" lon="6.31906">
        <ele>1610.641541</ele>
        <time>2021-07-07T17:31:20.651Z</time>
      </trkpt>
      <trkpt lat="46.60041" lon="6.31922">
        <ele>1610.773695</ele>
        <time>2021-07-07T17:31:38.435Z</time>
      </trkpt>
      <trkpt lat="46.60005" lon="6.31913">
        <ele>1610.836959</ele>
        <time>2021-07-07T17:31:52.346Z</time>
      </trkpt>
      <trkpt lat="46.59951" lon="6.31842">
        <ele>1610.963835</ele>
        <time>2021-07-07T17:32:20.438Z</time>
      </trkpt>
      <trkpt lat="46.59945" lon="6.3184">
        <ele>1610.974613</ele>
        <time>2021-07-07T17:32:22.770Z</time>
      </trkpt>
      <trkpt lat="46.59914" lon="6.31794">
        <ele>1611.301476</ele>
        <time>2021-07-07T17:32:40.244Z</time>
      </trkpt>
      <trkpt lat="46.599" lon="6.31775">
        <ele>1611.815306</ele>
        <time>2021-07-07T17:32:48.032Z</time>
      </trkpt>
      <trkpt lat="46.59864" lon="6.31678">
        <ele>1613.830178</ele>
        <time>2021-07-07T17:33:19.331Z</time>
      </trkpt>
      <trkpt lat="46.59863" lon="6.3165">
        <ele>1614.342742</ele>
        <time>2021-07-07T17:33:27.601Z</time>
      </trkpt>
      <trkpt lat="46.59847" lon="6.31611">
        <ele>1615.181944</ele>
        <time>2021-07-07T17:33:41.687Z</time>
      </trkpt>
      <trkpt lat="46.59843" lon="6.31548">
        <ele>1617.100992</ele>
        <time>2021-07-07T17:34:02.064Z</time>
      </trkpt>
      <trkpt lat="46.59803" lon="6.31486">
        <ele>1621.087929</ele>
        <time>2021-07-07T17:34:31.281Z</time>
      </trkpt>
      <trkpt lat="46.59797" lon="6.31411">
        <ele>1624.557518</ele>
        <time>2021-07-07T17:34:58.359Z</time>
      </trkpt>
      <trkpt lat="46.59736" lon="6.31322">
        <ele>1631.027398</ele>
        <time>2021-07-07T17:35:46.598Z</time>
      </trkpt>
      <trkpt lat="46.59671" lon="6.31296">
        <ele>1636.721929</ele>
        <time>2021-07-07T17:36:24.631Z</time>
      </trkpt>
      <trkpt lat="46.59644" lon="6.31254">
        <ele>1640.026421</ele>
        <time>2021-07-07T17:36:48.456Z</time>
      </trkpt>
      <trkpt lat="46.5962" lon="6.31237">
        <ele>1642.260447</ele>
        <time>2021-07-07T17:37:02.395Z</time>
      </trkpt>
      <trkpt lat="46.5959" lon="6.31184">
        <ele>1644.735705</ele>
        <time>2021-07-07T17:37:29.091Z</time>
      </trkpt>
      <trkpt lat="46.59543" lon="6.31125">
        <ele>1647.401314</ele>
        <time>2021-07-07T17:37:58.374Z</time>
      </trkpt>
      <trkpt lat="46.59539" lon="6.31119">
        <ele>1647.60003</ele>
        <time>2021-07-07T17:38:01.859Z</time>
      </trkpt>
      <trkpt lat="46.59517" lon="6.31082">
        <ele>1649.036356</ele>
        <time>2021-07-07T17:38:16.017Z</time>
      </trkpt>
      <trkpt lat="46.59477" lon="6.31005">
        <ele>1650.304412</ele>
        <time>2021-07-07T17:38:42.195Z</time>
      </trkpt>
      <trkpt lat="46.59457" lon="6.30967">
        <ele>1649.592417</ele>
        <time>2021-07-07T17:38:54.592Z</time>
      </trkpt>
      <trkpt lat="46.59421" lon="6.30921">
        <ele>1648.551079</ele>
        <time>2021-07-07T17:39:11.970Z</time>
      </trkpt>
      <trkpt lat="46.59415" lon="6.30882">
        <ele>1647.961219</ele>
        <time>2021-07-07T17:39:21.552Z</time>
      </trkpt>
      <trkpt lat="46.5939" lon="6.30831">
        <ele>1647.035294</ele>
        <time>2021-07-07T17:39:36.595Z</time>
      </trkpt>
      <trkpt lat="46.59396" lon="6.30799">
        <ele>1646.16</ele>
        <time>2021-07-07T17:39:44.526Z</time>
      </trkpt>
      <trkpt lat="46.59383" lon="6.3071">
        <ele>1643.471283</ele>
        <time>2021-07-07T17:40:06.525Z</time>
      </trkpt>
      <trkpt lat="46.59374" lon="6.30692">
        <ele>1642.824578</ele>
        <time>2021-07-07T17:40:11.791Z</time>
      </trkpt>
      <trkpt lat="46.5936" lon="6.30679">
        <ele>1642.097424</ele>
        <time>2021-07-07T17:40:17.709Z</time>
      </trkpt>
      <trkpt lat="46.59359" lon="6.30657">
        <ele>1641.428951</ele>
        <time>2021-07-07T17:40:23.099Z</time>
      </trkpt>
      <trkpt lat="46.59339" lon="6.3062">
        <ele>1640.042855</ele>
        <time>2021-07-07T17:40:34.204Z</time>
      </trkpt>
      <trkpt lat="46.59337" lon="6.30572">
        <ele>1637.924701</ele>
        <time>2021-07-07T17:40:45.526Z</time>
      </trkpt>
      <trkpt lat="46.59328" lon="6.30524">
        <ele>1634.672287</ele>
        <time>2021-07-07T17:40:56.826Z</time>
      </trkpt>
      <trkpt lat="46.59328" lon="6.30488">
        <ele>1632.276153</ele>
        <time>2021-07-07T17:41:05.004Z</time>
      </trkpt>
      <trkpt lat="46.59311" lon="6.304">
        <ele>1626.277949</ele>
        <time>2021-07-07T17:41:24.385Z</time>
      </trkpt>
      <trkpt lat="46.59311" lon="6.30378">
        <ele>1624.819026</ele>
        <time>2021-07-07T17:41:28.934Z</time>
      </trkpt>
      <trkpt lat="46.59296" lon="6.30305">
        <ele>1618.88615</ele>
        <time>2021-07-07T17:41:44.891Z</time>
      </trkpt>
      <trkpt lat="46.59296" lon="6.30275">
        <ele>1616.100129</ele>
        <time>2021-07-07T17:41:51.123Z</time>
      </trkpt>
      <trkpt lat="46.5929" lon="6.3025">
        <ele>1613.706651</ele>
        <time>2021-07-07T17:41:56.509Z</time>
      </trkpt>
      <trkpt lat="46.59285" lon="6.30195">
        <ele>1608.508832</ele>
        <time>2021-07-07T17:42:08.153Z</time>
      </trkpt>
      <trkpt lat="46.59285" lon="6.30177">
        <ele>1606.852455</ele>
        <time>2021-07-07T17:42:11.855Z</time>
      </trkpt>
      <trkpt lat="46.59271" lon="6.30123">
        <ele>1601.530703</ele>
        <time>2021-07-07T17:42:23.768Z</time>
      </trkpt>
      <trkpt lat="46.59212" lon="6.3003">
        <ele>1592.721964</ele>
        <time>2021-07-07T17:42:50.213Z</time>
      </trkpt>
      <trkpt lat="46.59189" lon="6.30011">
        <ele>1590.537579</ele>
        <time>2021-07-07T17:42:58.287Z</time>
      </trkpt>
      <trkpt lat="46.59172" lon="6.29996">
        <ele>1588.833915</ele>
        <time>2021-07-07T17:43:05.112Z</time>
      </trkpt>
      <trkpt lat="46.59168" lon="6.29979">
        <ele>1587.79827</ele>
        <time>2021-07-07T17:43:09.144Z</time>
      </trkpt>
      <trkpt lat="46.59142" lon="6.29913">
        <ele>1583.376766</ele>
        <time>2021-07-07T17:43:26.935Z</time>
      </trkpt>
      <trkpt lat="46.59013" lon="6.29778">
        <ele>1575.414847</ele>
        <time>2021-07-07T17:44:21.933Z</time>
      </trkpt>
      <trkpt lat="46.58863" lon="6.29623">
        <ele>1566.38489</ele>
        <time>2021-07-07T17:45:25.125Z</time>
      </trkpt>
      <trkpt lat="46.58843" lon="6.29585">
        <ele>1564.70504</ele>
        <time>2021-07-07T17:45:36.379Z</time>
      </trkpt>
      <trkpt lat="46.58784" lon="6.29508">
        <ele>1560.542318</ele>
        <time>2021-07-07T17:46:02.823Z</time>
      </trkpt>
      <trkpt lat="46.58762" lon="6.29491">
        <ele>1559.209535</ele>
        <time>2021-07-07T17:46:11.316Z</time>
      </trkpt>
      <trkpt lat="46.58726" lon="6.29464">
        <ele>1557.065453</ele>
        <time>2021-07-07T17:46:25.122Z</time>
      </trkpt>
      <trkpt lat="46.58716" lon="6.29456">
        <ele>1556.474376</ele>
        <time>2021-07-07T17:46:28.925Z</time>
      </trkpt>
      <trkpt lat="46.58653" lon="6.29417">
        <ele>1554.86995</ele>
        <time>2021-07-07T17:46:53.262Z</time>
      </trkpt>
      <trkpt lat="46.58601" lon="6.29307">
        <ele>1553.717136</ele>
        <time>2021-07-07T17:47:27.225Z</time>
      </trkpt>
      <trkpt lat="46.58511" lon="6.2921">
        <ele>1556.875141</ele>
        <time>2021-07-07T17:48:14.997Z</time>
      </trkpt>
      <trkpt lat="46.58483" lon="6.29216">
        <ele>1558.250515</ele>
        <time>2021-07-07T17:48:28.356Z</time>
      </trkpt>
      <trkpt lat="46.58424" lon="6.29156">
        <ele>1561.767702</ele>
        <time>2021-07-07T17:49:05.450Z</time>
      </trkpt>
      <trkpt lat="46.5839" lon="6.2909">
        <ele>1566.397257</ele>
        <time>2021-07-07T17:49:36.978Z</time>
      </trkpt>
      <trkpt lat="46.58356" lon="6.29069">
        <ele>1569.590812</ele>
        <time>2021-07-07T17:49:58.678Z</time>
      </trkpt>
      <trkpt lat="46.58347" lon="6.29045">
        <ele>1571.253179</ele>
        <time>2021-07-07T17:50:10.100Z</time>
      </trkpt>
      <trkpt lat="46.58314" lon="6.29013">
        <ele>1574.644007</ele>
        <time>2021-07-07T17:50:33.177Z</time>
      </trkpt>
      <trkpt lat="46.58303" lon="6.28975">
        <ele>1577.02176</ele>
        <time>2021-07-07T17:50:49.096Z</time>
      </trkpt>
      <trkpt lat="46.5827" lon="6.28948">
        <ele>1579.230721</ele>
        <time>2021-07-07T17:51:10.172Z</time>
      </trkpt>
      <trkpt lat="46.58218" lon="6.28922">
        <ele>1582.230297</ele>
        <time>2021-07-07T17:51:39.128Z</time>
      </trkpt>
      <trkpt lat="46.58162" lon="6.28872">
        <ele>1585.823905</ele>
        <time>2021-07-07T17:52:10.583Z</time>
      </trkpt>
      <trkpt lat="46.58114" lon="6.28851">
        <ele>1586.260227</ele>
        <time>2021-07-07T17:52:31.188Z</time>
      </trkpt>
      <trkpt lat="46.58073" lon="6.2881">
        <ele>1584.330224</ele>
        <time>2021-07-07T17:52:48.548Z</time>
      </trkpt>
      <trkpt lat="46.58034" lon="6.28771">
        <ele>1582.501349</ele>
        <time>2021-07-07T17:53:05.113Z</time>
      </trkpt>
      <trkpt lat="46.58012" lon="6.28746">
        <ele>1581.416866</ele>
        <time>2021-07-07T17:53:14.043Z</time>
      </trkpt>
      <trkpt lat="46.57999" lon="6.28726">
        <ele>1580.667384</ele>
        <time>2021-07-07T17:53:20.586Z</time>
      </trkpt>
      <trkpt lat="46.57998" lon="6.28723">
        <ele>1580.588275</ele>
        <time>2021-07-07T17:53:21.197Z</time>
      </trkpt>
      <trkpt lat="46.57996" lon="6.2872">
        <ele>1580.498207</ele>
        <time>2021-07-07T17:53:21.949Z</time>
      </trkpt>
      <trkpt lat="46.57987" lon="6.28701">
        <ele>1579.529314</ele>
        <time>2021-07-07T17:53:27.815Z</time>
      </trkpt>
      <trkpt lat="46.5795" lon="6.28661">
        <ele>1576.125172</ele>
        <time>2021-07-07T17:53:42.576Z</time>
      </trkpt>
      <trkpt lat="46.57928" lon="6.2863">
        <ele>1573.864898</ele>
        <time>2021-07-07T17:53:52.621Z</time>
      </trkpt>
      <trkpt lat="46.57923" lon="6.28628">
        <ele>1573.488864</ele>
        <time>2021-07-07T17:53:54.141Z</time>
      </trkpt>
      <trkpt lat="46.57923" lon="6.2862">
        <ele>1573.065925</ele>
        <time>2021-07-07T17:53:55.801Z</time>
      </trkpt>
      <trkpt lat="46.57911" lon="6.28539">
        <ele>1568.85047</ele>
        <time>2021-07-07T17:54:11.484Z</time>
      </trkpt>
      <trkpt lat="46.5793" lon="6.28451">
        <ele>1564.305405</ele>
        <time>2021-07-07T17:54:29.990Z</time>
      </trkpt>
      <trkpt lat="46.57947" lon="6.28405">
        <ele>1561.830932</ele>
        <time>2021-07-07T17:54:39.789Z</time>
      </trkpt>
      <trkpt lat="46.57984" lon="6.28375">
        <ele>1558.884656</ele>
        <time>2021-07-07T17:54:51.928Z</time>
      </trkpt>
      <trkpt lat="46.58032" lon="6.28286">
        <ele>1553.353465</ele>
        <time>2021-07-07T17:55:13.281Z</time>
      </trkpt>
      <trkpt lat="46.58034" lon="6.28279">
        <ele>1552.967345</ele>
        <time>2021-07-07T17:55:14.555Z</time>
      </trkpt>
      <trkpt lat="46.58032" lon="6.28271">
        <ele>1552.520975</ele>
        <time>2021-07-07T17:55:16.065Z</time>
      </trkpt>
      <trkpt lat="46.58007" lon="6.28252">
        <ele>1550.360053</ele>
        <time>2021-07-07T17:55:23.888Z</time>
      </trkpt>
      <trkpt lat="46.57986" lon="6.28221">
        <ele>1548.067395</ele>
        <time>2021-07-07T17:55:32.244Z</time>
      </trkpt>
      <trkpt lat="46.57982" lon="6.28216">
        <ele>1547.645671</ele>
        <time>2021-07-07T17:55:33.670Z</time>
      </trkpt>
      <trkpt lat="46.57976" lon="6.2821">
        <ele>1547.129609</ele>
        <time>2021-07-07T17:55:35.392Z</time>
      </trkpt>
      <trkpt lat="46.57952" lon="6.2815">
        <ele>1543.497845</ele>
        <time>2021-07-07T17:55:48.675Z</time>
      </trkpt>
      <trkpt lat="46.5795" lon="6.28107">
        <ele>1541.210705</ele>
        <time>2021-07-07T17:55:56.975Z</time>
      </trkpt>
      <trkpt lat="46.57948" lon="6.28094">
        <ele>1540.656022</ele>
        <time>2021-07-07T17:55:59.618Z</time>
      </trkpt>
      <trkpt lat="46.57918" lon="6.28043">
        <ele>1540.983025</ele>
        <time>2021-07-07T17:56:16.032Z</time>
      </trkpt>
      <trkpt lat="46.57795" lon="6.27918">
        <ele>1542.84053</ele>
        <time>2021-07-07T17:57:20.266Z</time>
      </trkpt>
      <trkpt lat="46.57777" lon="6.27906">
        <ele>1543.896365</ele>
        <time>2021-07-07T17:57:29.205Z</time>
      </trkpt>
      <trkpt lat="46.57773" lon="6.27906">
        <ele>1544.137587</ele>
        <time>2021-07-07T17:57:33.875Z</time>
      </trkpt>
      <trkpt lat="46.57751" lon="6.27899">
        <ele>1545.283213</ele>
        <time>2021-07-07T17:57:43.631Z</time>
      </trkpt>
      <trkpt lat="46.57718" lon="6.27876">
        <ele>1547.216337</ele>
        <time>2021-07-07T17:58:02.133Z</time>
      </trkpt>
      <trkpt lat="46.57674" lon="6.27829">
        <ele>1550.0696</ele>
        <time>2021-07-07T17:58:31.059Z</time>
      </trkpt>
      <trkpt lat="46.57538" lon="6.27705">
        <ele>1555.467474</ele>
        <time>2021-07-07T17:59:42.352Z</time>
      </trkpt>
      <trkpt lat="46.57511" lon="6.27699">
        <ele>1556.270986</ele>
        <time>2021-07-07T17:59:53.002Z</time>
      </trkpt>
      <trkpt lat="46.57464" lon="6.27705">
        <ele>1556.397818</ele>
        <time>2021-07-07T18:00:12.165Z</time>
      </trkpt>
      <trkpt lat="46.57333" lon="6.27583">
        <ele>1554.14861</ele>
        <time>2021-07-07T18:01:09.751Z</time>
      </trkpt>
      <trkpt lat="46.57321" lon="6.2758">
        <ele>1553.270983</ele>
        <time>2021-07-07T18:01:13.894Z</time>
      </trkpt>
      <trkpt lat="46.57291" lon="6.27599">
        <ele>1550.804159</ele>
        <time>2021-07-07T18:01:25.316Z</time>
      </trkpt>
      <trkpt lat="46.57257" lon="6.27603">
        <ele>1548.304287</ele>
        <time>2021-07-07T18:01:36.504Z</time>
      </trkpt>
      <trkpt lat="46.57236" lon="6.27615">
        <ele>1546.643985</ele>
        <time>2021-07-07T18:01:43.701Z</time>
      </trkpt>
      <trkpt lat="46.57223" lon="6.27614">
        <ele>1545.678142</ele>
        <time>2021-07-07T18:01:47.862Z</time>
      </trkpt>
      <trkpt lat="46.57161" lon="6.27557">
        <ele>1540.031849</ele>
        <time>2021-07-07T18:02:10.256Z</time>
      </trkpt>
      <trkpt lat="46.57105" lon="6.27479">
        <ele>1532.740616</ele>
        <time>2021-07-07T18:02:34.013Z</time>
      </trkpt>
      <trkpt lat="46.57072" lon="6.27424">
        <ele>1528.083392</ele>
        <time>2021-07-07T18:02:49.615Z</time>
      </trkpt>
      <trkpt lat="46.57033" lon="6.27374">
        <ele>1524.207685</ele>
        <time>2021-07-07T18:03:06.623Z</time>
      </trkpt>
      <trkpt lat="46.56996" lon="6.27338">
        <ele>1522.916343</ele>
        <time>2021-07-07T18:03:22.231Z</time>
      </trkpt>
      <trkpt lat="46.56956" lon="6.27311">
        <ele>1521.666341</ele>
        <time>2021-07-07T18:03:38.101Z</time>
      </trkpt>
      <trkpt lat="46.56845" lon="6.27275">
        <ele>1518.357288</ele>
        <time>2021-07-07T18:04:21.246Z</time>
      </trkpt>
      <trkpt lat="46.56752" lon="6.27222">
        <ele>1515.380739</ele>
        <time>2021-07-07T18:04:57.630Z</time>
      </trkpt>
      <trkpt lat="46.56686" lon="6.27169">
        <ele>1511.428582</ele>
        <time>2021-07-07T18:05:23.081Z</time>
      </trkpt>
      <trkpt lat="46.56587" lon="6.27067">
        <ele>1501.509625</ele>
        <time>2021-07-07T18:06:01.411Z</time>
      </trkpt>
      <trkpt lat="46.56491" lon="6.26977">
        <ele>1492.891994</ele>
        <time>2021-07-07T18:06:37.361Z</time>
      </trkpt>
      <trkpt lat="46.56474" lon="6.26963">
        <ele>1491.427903</ele>
        <time>2021-07-07T18:06:43.765Z</time>
      </trkpt>
      <trkpt lat="46.56468" lon="6.26946">
        <ele>1490.460354</ele>
        <time>2021-07-07T18:06:48.180Z</time>
      </trkpt>
      <trkpt lat="46.56463" lon="6.26929">
        <ele>1489.548717</ele>
        <time>2021-07-07T18:06:52.305Z</time>
      </trkpt>
      <trkpt lat="46.56427" lon="6.26876">
        <ele>1486.081673</ele>
        <time>2021-07-07T18:07:09.769Z</time>
      </trkpt>
      <trkpt lat="46.56427" lon="6.26853">
        <ele>1485.84886</ele>
        <time>2021-07-07T18:07:15.396Z</time>
      </trkpt>
      <trkpt lat="46.56439" lon="6.26807">
        <ele>1485.364817</ele>
        <time>2021-07-07T18:07:27.194Z</time>
      </trkpt>
      <trkpt lat="46.56416" lon="6.26721">
        <ele>1484.436983</ele>
        <time>2021-07-07T18:07:51.021Z</time>
      </trkpt>
      <trkpt lat="46.56354" lon="6.26658">
        <ele>1483.676464</ele>
        <time>2021-07-07T18:08:21.001Z</time>
      </trkpt>
      <trkpt lat="46.56291" lon="6.26565">
        <ele>1484.583766</ele>
        <time>2021-07-07T18:08:57.589Z</time>
      </trkpt>
      <trkpt lat="46.56243" lon="6.26532">
        <ele>1485.117019</ele>
        <time>2021-07-07T18:09:18.967Z</time>
      </trkpt>
      <trkpt lat="46.56216" lon="6.26426">
        <ele>1484.707039</ele>
        <time>2021-07-07T18:09:49.319Z</time>
      </trkpt>
      <trkpt lat="46.56169" lon="6.26363">
        <ele>1483.955717</ele>
        <time>2021-07-07T18:10:13.383Z</time>
      </trkpt>
      <trkpt lat="46.56112" lon="6.26299">
        <ele>1482.82587</ele>
        <time>2021-07-07T18:10:39.532Z</time>
      </trkpt>
      <trkpt lat="46.56109" lon="6.26289">
        <ele>1482.554395</ele>
        <time>2021-07-07T18:10:42.166Z</time>
      </trkpt>
      <trkpt lat="46.56111" lon="6.26261">
        <ele>1481.846943</ele>
        <time>2021-07-07T18:10:48.967Z</time>
      </trkpt>
      <trkpt lat="46.56101" lon="6.26242">
        <ele>1481.233543</ele>
        <time>2021-07-07T18:10:54.841Z</time>
      </trkpt>
      <trkpt lat="46.55939" lon="6.2599">
        <ele>1473.668837</ele>
        <time>2021-07-07T18:12:18.086Z</time>
      </trkpt>
      <trkpt lat="46.55936" lon="6.25979">
        <ele>1473.435074</ele>
        <time>2021-07-07T18:12:21.155Z</time>
      </trkpt>
      <trkpt lat="46.55931" lon="6.25966">
        <ele>1473.173895</ele>
        <time>2021-07-07T18:12:24.958Z</time>
      </trkpt>
      <trkpt lat="46.5593" lon="6.25949">
        <ele>1472.862564</ele>
        <time>2021-07-07T18:12:29.435Z</time>
      </trkpt>
      <trkpt lat="46.55945" lon="6.25918">
        <ele>1472.171138</ele>
        <time>2021-07-07T18:12:39.211Z</time>
      </trkpt>
      <trkpt lat="46.55944" lon="6.25897">
        <ele>1471.850932</ele>
        <time>2021-07-07T18:12:44.754Z</time>
      </trkpt>
      <trkpt lat="46.55939" lon="6.25887">
        <ele>1471.820406</ele>
        <time>2021-07-07T18:12:47.941Z</time>
      </trkpt>
      <trkpt lat="46.55886" lon="6.25833">
        <ele>1471.598589</ele>
        <time>2021-07-07T18:13:13.047Z</time>
      </trkpt>
      <trkpt lat="46.55849" lon="6.25805">
        <ele>1471.453321</ele>
        <time>2021-07-07T18:13:29.442Z</time>
      </trkpt>
      <trkpt lat="46.55823" lon="6.25777">
        <ele>1471.341441</ele>
        <time>2021-07-07T18:13:41.867Z</time>
      </trkpt>
      <trkpt lat="46.55788" lon="6.25726">
        <ele>1470.500565</ele>
        <time>2021-07-07T18:14:00.572Z</time>
      </trkpt>
      <trkpt lat="46.55748" lon="6.25686">
        <ele>1468.69343</ele>
        <time>2021-07-07T18:14:17.900Z</time>
      </trkpt>
      <trkpt lat="46.55724" lon="6.25653">
        <ele>1467.446656</ele>
        <time>2021-07-07T18:14:29.557Z</time>
      </trkpt>
      <trkpt lat="46.55697" lon="6.256">
        <ele>1465.761737</ele>
        <time>2021-07-07T18:14:45.098Z</time>
      </trkpt>
      <trkpt lat="46.55661" lon="6.25554">
        <ele>1463.812479</ele>
        <time>2021-07-07T18:15:01.353Z</time>
      </trkpt>
      <trkpt lat="46.55618" lon="6.25514">
        <ele>1461.332269</ele>
        <time>2021-07-07T18:15:18.692Z</time>
      </trkpt>
      <trkpt lat="46.55515" lon="6.25379">
        <ele>1455.087273</ele>
        <time>2021-07-07T18:16:06.586Z</time>
      </trkpt>
      <trkpt lat="46.55467" lon="6.25306">
        <ele>1453.053818</ele>
        <time>2021-07-07T18:16:31.377Z</time>
      </trkpt>
      <trkpt lat="46.55427" lon="6.25268">
        <ele>1451.6567</ele>
        <time>2021-07-07T18:16:48.643Z</time>
      </trkpt>
      <trkpt lat="46.55387" lon="6.25211">
        <ele>1450.752828</ele>
        <time>2021-07-07T18:17:09.031Z</time>
      </trkpt>
      <trkpt lat="46.55345" lon="6.25171">
        <ele>1451.360136</ele>
        <time>2021-07-07T18:17:28.011Z</time>
      </trkpt>
      <trkpt lat="46.55277" lon="6.2506">
        <ele>1452.606694</ele>
        <time>2021-07-07T18:18:11.243Z</time>
      </trkpt>
      <trkpt lat="46.55263" lon="6.2504">
        <ele>1453.183587</ele>
        <time>2021-07-07T18:18:19.732Z</time>
      </trkpt>
      <trkpt lat="46.55247" lon="6.2501">
        <ele>1454.376731</ele>
        <time>2021-07-07T18:18:32.127Z</time>
      </trkpt>
      <trkpt lat="46.55223" lon="6.24972">
        <ele>1456.006629</ele>
        <time>2021-07-07T18:18:48.893Z</time>
      </trkpt>
      <trkpt lat="46.55222" lon="6.24949">
        <ele>1456.751543</ele>
        <time>2021-07-07T18:18:56.428Z</time>
      </trkpt>
      <trkpt lat="46.55201" lon="6.24902">
        <ele>1458.527581</ele>
        <time>2021-07-07T18:19:15.479Z</time>
      </trkpt>
      <trkpt lat="46.55196" lon="6.24875">
        <ele>1459.415208</ele>
        <time>2021-07-07T18:19:25.282Z</time>
      </trkpt>
      <trkpt lat="46.55188" lon="6.24859">
        <ele>1460.035932</ele>
        <time>2021-07-07T18:19:31.677Z</time>
      </trkpt>
      <trkpt lat="46.55094" lon="6.24738">
        <ele>1461.928708</ele>
        <time>2021-07-07T18:20:26.554Z</time>
      </trkpt>
      <trkpt lat="46.55085" lon="6.24716">
        <ele>1462.09123</ele>
        <time>2021-07-07T18:20:33.365Z</time>
      </trkpt>
      <trkpt lat="46.55047" lon="6.24678">
        <ele>1462.50008</ele>
        <time>2021-07-07T18:20:50.317Z</time>
      </trkpt>
      <trkpt lat="46.55017" lon="6.24621">
        <ele>1460.404676</ele>
        <time>2021-07-07T18:21:07.520Z</time>
      </trkpt>
      <trkpt lat="46.55002" lon="6.24607">
        <ele>1459.354925</ele>
        <time>2021-07-07T18:21:13.529Z</time>
      </trkpt>
      <trkpt lat="46.5498" lon="6.24577">
        <ele>1457.63191</ele>
        <time>2021-07-07T18:21:23.410Z</time>
      </trkpt>
      <trkpt lat="46.54963" lon="6.24537">
        <ele>1455.769171</ele>
        <time>2021-07-07T18:21:34.090Z</time>
      </trkpt>
      <trkpt lat="46.54954" lon="6.24506">
        <ele>1454.434975</ele>
        <time>2021-07-07T18:21:42.067Z</time>
      </trkpt>
      <trkpt lat="46.54955" lon="6.24499">
        <ele>1454.148406</ele>
        <time>2021-07-07T18:21:43.700Z</time>
      </trkpt>
      <trkpt lat="46.54959" lon="6.24496">
        <ele>1453.908923</ele>
        <time>2021-07-07T18:21:44.906Z</time>
      </trkpt>
      <trkpt lat="46.54975" lon="6.24487">
        <ele>1452.910799</ele>
        <time>2021-07-07T18:21:50.873Z</time>
      </trkpt>
      <trkpt lat="46.54987" lon="6.24471">
        <ele>1451.970292</ele>
        <time>2021-07-07T18:21:56.120Z</time>
      </trkpt>
      <trkpt lat="46.54989" lon="6.2444">
        <ele>1450.717937</ele>
        <time>2021-07-07T18:22:03.163Z</time>
      </trkpt>
      <trkpt lat="46.54998" lon="6.24424">
        <ele>1449.869055</ele>
        <time>2021-07-07T18:22:07.806Z</time>
      </trkpt>
      <trkpt lat="46.55015" lon="6.24412">
        <ele>1448.749362</ele>
        <time>2021-07-07T18:22:14.094Z</time>
      </trkpt>
      <trkpt lat="46.55018" lon="6.24391">
        <ele>1447.881887</ele>
        <time>2021-07-07T18:22:19.176Z</time>
      </trkpt>
      <trkpt lat="46.54951" lon="6.24301">
        <ele>1442.513427</ele>
        <time>2021-07-07T18:22:49.925Z</time>
      </trkpt>
      <trkpt lat="46.54867" lon="6.24157">
        <ele>1437.028003</ele>
        <time>2021-07-07T18:23:34.631Z</time>
      </trkpt>
      <trkpt lat="46.54823" lon="6.24105">
        <ele>1434.737404</ele>
        <time>2021-07-07T18:23:54.956Z</time>
      </trkpt>
      <trkpt lat="46.54778" lon="6.24035">
        <ele>1434.056473</ele>
        <time>2021-07-07T18:24:19.625Z</time>
      </trkpt>
      <trkpt lat="46.54772" lon="6.2402">
        <ele>1433.990533</ele>
        <time>2021-07-07T18:24:23.507Z</time>
      </trkpt>
      <trkpt lat="46.54765" lon="6.24008">
        <ele>1433.924406</ele>
        <time>2021-07-07T18:24:28.259Z</time>
      </trkpt>
      <trkpt lat="46.54727" lon="6.23969">
        <ele>1433.645833</ele>
        <time>2021-07-07T18:24:46.205Z</time>
      </trkpt>
      <trkpt lat="46.54686" lon="6.23952">
        <ele>1433.392324</ele>
        <time>2021-07-07T18:25:02.720Z</time>
      </trkpt>
      <trkpt lat="46.54631" lon="6.23894">
        <ele>1432.770561</ele>
        <time>2021-07-07T18:25:30.019Z</time>
      </trkpt>
      <trkpt lat="46.54539" lon="6.23771">
        <ele>1431.475467</ele>
        <time>2021-07-07T18:26:16.311Z</time>
      </trkpt>
      <trkpt lat="46.54488" lon="6.23723">
        <ele>1428.411742</ele>
        <time>2021-07-07T18:26:37.490Z</time>
      </trkpt>
      <trkpt lat="46.54453" lon="6.23671">
        <ele>1425.85989</ele>
        <time>2021-07-07T18:26:54.729Z</time>
      </trkpt>
      <trkpt lat="46.54269" lon="6.23471">
        <ele>1412.043385</ele>
        <time>2021-07-07T18:28:10.762Z</time>
      </trkpt>
      <trkpt lat="46.54171" lon="6.23383">
        <ele>1405.671581</ele>
        <time>2021-07-07T18:28:49.641Z</time>
      </trkpt>
      <trkpt lat="46.54144" lon="6.23372">
        <ele>1404.151237</ele>
        <time>2021-07-07T18:28:59.363Z</time>
      </trkpt>
      <trkpt lat="46.54101" lon="6.23341">
        <ele>1401.566855</ele>
        <time>2021-07-07T18:29:15.625Z</time>
      </trkpt>
      <trkpt lat="46.54053" lon="6.23283">
        <ele>1399.69294</ele>
        <time>2021-07-07T18:29:37.696Z</time>
      </trkpt>
      <trkpt lat="46.54051" lon="6.23278">
        <ele>1399.596993</ele>
        <time>2021-07-07T18:29:38.734Z</time>
      </trkpt>
      <trkpt lat="46.54045" lon="6.23267">
        <ele>1399.318743</ele>
        <time>2021-07-07T18:29:42.259Z</time>
      </trkpt>
      <trkpt lat="46.54018" lon="6.23219">
        <ele>1398.115063</ele>
        <time>2021-07-07T18:29:57.879Z</time>
      </trkpt>
      <trkpt lat="46.53945" lon="6.23168">
        <ele>1396.324334</ele>
        <time>2021-07-07T18:30:27.744Z</time>
      </trkpt>
      <trkpt lat="46.53803" lon="6.23005">
        <ele>1396.95933</ele>
        <time>2021-07-07T18:31:39.324Z</time>
      </trkpt>
      <trkpt lat="46.53634" lon="6.22875">
        <ele>1396.324336</ele>
        <time>2021-07-07T18:32:54.364Z</time>
      </trkpt>
      <trkpt lat="46.53613" lon="6.22865">
        <ele>1395.460238</ele>
        <time>2021-07-07T18:33:02.247Z</time>
      </trkpt>
      <trkpt lat="46.53492" lon="6.22698">
        <ele>1388.483772</ele>
        <time>2021-07-07T18:33:58.847Z</time>
      </trkpt>
      <trkpt lat="46.53416" lon="6.22596">
        <ele>1383.504781</ele>
        <time>2021-07-07T18:34:33.320Z</time>
      </trkpt>
      <trkpt lat="46.53391" lon="6.22533">
        <ele>1381.855465</ele>
        <time>2021-07-07T18:34:51.566Z</time>
      </trkpt>
      <trkpt lat="46.53377" lon="6.22499">
        <ele>1382.693624</ele>
        <time>2021-07-07T18:35:01.811Z</time>
      </trkpt>
      <trkpt lat="46.53327" lon="6.22434">
        <ele>1384.810876</ele>
        <time>2021-07-07T18:35:30.010Z</time>
      </trkpt>
      <trkpt lat="46.53295" lon="6.22384">
        <ele>1386.269716</ele>
        <time>2021-07-07T18:35:52.268Z</time>
      </trkpt>
      <trkpt lat="46.53227" lon="6.22323">
        <ele>1391.757602</ele>
        <time>2021-07-07T18:36:38.222Z</time>
      </trkpt>
      <trkpt lat="46.53162" lon="6.22284">
        <ele>1397.986785</ele>
        <time>2021-07-07T18:37:19.953Z</time>
      </trkpt>
      <trkpt lat="46.53093" lon="6.22209">
        <ele>1405.312601</ele>
        <time>2021-07-07T18:38:10.089Z</time>
      </trkpt>
      <trkpt lat="46.52784" lon="6.21902">
        <ele>1433.986382</ele>
        <time>2021-07-07T18:41:28.829Z</time>
      </trkpt>
      <trkpt lat="46.52563" lon="6.21767">
        <ele>1454.176751</ele>
        <time>2021-07-07T18:43:40.959Z</time>
      </trkpt>
      <trkpt lat="46.52557" lon="6.21761">
        <ele>1454.842894</ele>
        <time>2021-07-07T18:43:45.906Z</time>
      </trkpt>
      <trkpt lat="46.52552" lon="6.21763">
        <ele>1455.312799</ele>
        <time>2021-07-07T18:43:49.037Z</time>
      </trkpt>
      <trkpt lat="46.5254" lon="6.21776">
        <ele>1456.685525</ele>
        <time>2021-07-07T18:43:56.573Z</time>
      </trkpt>
      <trkpt lat="46.52542" lon="6.21854">
        <ele>1461.449631</ele>
        <time>2021-07-07T18:44:24.828Z</time>
      </trkpt>
      <trkpt lat="46.52524" lon="6.21901">
        <ele>1464.09094</ele>
        <time>2021-07-07T18:44:43.868Z</time>
      </trkpt>
      <trkpt lat="46.52524" lon="6.21914">
        <ele>1464.701188</ele>
        <time>2021-07-07T18:44:47.474Z</time>
      </trkpt>
      <trkpt lat="46.52526" lon="6.21922">
        <ele>1465.121293</ele>
        <time>2021-07-07T18:44:50.899Z</time>
      </trkpt>
      <trkpt lat="46.52519" lon="6.21938">
        <ele>1466.074461</ele>
        <time>2021-07-07T18:44:58.818Z</time>
      </trkpt>
      <trkpt lat="46.52479" lon="6.2205">
        <ele>1472.22061</ele>
        <time>2021-07-07T18:45:42.790Z</time>
      </trkpt>
      <trkpt lat="46.52413" lon="6.22163">
        <ele>1475.358182</ele>
        <time>2021-07-07T18:46:27.805Z</time>
      </trkpt>
      <trkpt lat="46.52394" lon="6.22188">
        <ele>1475.821811</ele>
        <time>2021-07-07T18:46:37.998Z</time>
      </trkpt>
      <trkpt lat="46.52384" lon="6.22192">
        <ele>1476.002047</ele>
        <time>2021-07-07T18:46:41.947Z</time>
      </trkpt>
      <trkpt lat="46.52347" lon="6.22189">
        <ele>1476.671079</ele>
        <time>2021-07-07T18:46:56.441Z</time>
      </trkpt>
      <trkpt lat="46.5231" lon="6.22159">
        <ele>1477.191017</ele>
        <time>2021-07-07T18:47:12.741Z</time>
      </trkpt>
      <trkpt lat="46.52199" lon="6.22019">
        <ele>1477.226399</ele>
        <time>2021-07-07T18:48:09.319Z</time>
      </trkpt>
      <trkpt lat="46.52173" lon="6.21996">
        <ele>1477.01222</ele>
        <time>2021-07-07T18:48:21.145Z</time>
      </trkpt>
      <trkpt lat="46.5211" lon="6.21942">
        <ele>1475.533421</ele>
        <time>2021-07-07T18:48:49.044Z</time>
      </trkpt>
      <trkpt lat="46.5203" lon="6.21908">
        <ele>1473.848528</ele>
        <time>2021-07-07T18:49:19.055Z</time>
      </trkpt>
      <trkpt lat="46.52008" lon="6.21885">
        <ele>1472.394644</ele>
        <time>2021-07-07T18:49:28.395Z</time>
      </trkpt>
      <trkpt lat="46.51997" lon="6.2186">
        <ele>1470.741652</ele>
        <time>2021-07-07T18:49:35.131Z</time>
      </trkpt>
      <trkpt lat="46.51997" lon="6.21788">
        <ele>1466.621967</ele>
        <time>2021-07-07T18:49:51.468Z</time>
      </trkpt>
      <trkpt lat="46.51992" lon="6.21745">
        <ele>1464.202407</ele>
        <time>2021-07-07T18:50:00.762Z</time>
      </trkpt>
      <trkpt lat="46.51983" lon="6.21712">
        <ele>1462.152298</ele>
        <time>2021-07-07T18:50:08.481Z</time>
      </trkpt>
      <trkpt lat="46.51931" lon="6.21625">
        <ele>1454.825678</ele>
        <time>2021-07-07T18:50:32.635Z</time>
      </trkpt>
      <trkpt lat="46.51888" lon="6.21533">
        <ele>1446.988451</ele>
        <time>2021-07-07T18:50:55.700Z</time>
      </trkpt>
      <trkpt lat="46.51827" lon="6.21456">
        <ele>1439.328485</ele>
        <time>2021-07-07T18:51:21.476Z</time>
      </trkpt>
      <trkpt lat="46.51809" lon="6.21443">
        <ele>1438.236055</ele>
        <time>2021-07-07T18:51:27.556Z</time>
      </trkpt>
      <trkpt lat="46.51796" lon="6.21423">
        <ele>1437.115602</ele>
        <time>2021-07-07T18:51:34.179Z</time>
      </trkpt>
      <trkpt lat="46.5174" lon="6.21384">
        <ele>1433.58243</ele>
        <time>2021-07-07T18:51:55.115Z</time>
      </trkpt>
      <trkpt lat="46.51551" lon="6.21305">
        <ele>1425.199874</ele>
        <time>2021-07-07T18:53:04.766Z</time>
      </trkpt>
      <trkpt lat="46.51529" lon="6.2128">
        <ele>1424.199465</ele>
        <time>2021-07-07T18:53:14.576Z</time>
      </trkpt>
      <trkpt lat="46.51473" lon="6.21147">
        <ele>1419.82949</ele>
        <time>2021-07-07T18:53:52.187Z</time>
      </trkpt>
      <trkpt lat="46.51114" lon="6.20898">
        <ele>1403.681303</ele>
        <time>2021-07-07T18:56:10.681Z</time>
      </trkpt>
      <trkpt lat="46.51109" lon="6.20808">
        <ele>1401.325529</ele>
        <time>2021-07-07T18:56:32.923Z</time>
      </trkpt>
      <trkpt lat="46.5104" lon="6.20531">
        <ele>1394.55502</ele>
        <time>2021-07-07T18:57:45.411Z</time>
      </trkpt>
      <trkpt lat="46.50996" lon="6.20492">
        <ele>1392.706478</ele>
        <time>2021-07-07T18:58:03.468Z</time>
      </trkpt>
      <trkpt lat="46.50985" lon="6.20455">
        <ele>1391.701422</ele>
        <time>2021-07-07T18:58:13.224Z</time>
      </trkpt>
      <trkpt lat="46.50969" lon="6.2045">
        <ele>1391.093555</ele>
        <time>2021-07-07T18:58:19.177Z</time>
      </trkpt>
      <trkpt lat="46.50899" lon="6.20464">
        <ele>1388.525154</ele>
        <time>2021-07-07T18:58:44.069Z</time>
      </trkpt>
      <trkpt lat="46.50849" lon="6.20466">
        <ele>1386.720257</ele>
        <time>2021-07-07T18:59:01.409Z</time>
      </trkpt>
      <trkpt lat="46.50825" lon="6.20445">
        <ele>1385.681182</ele>
        <time>2021-07-07T18:59:11.525Z</time>
      </trkpt>
      <trkpt lat="46.50804" lon="6.20437">
        <ele>1384.915074</ele>
        <time>2021-07-07T18:59:18.921Z</time>
      </trkpt>
      <trkpt lat="46.50766" lon="6.20436">
        <ele>1383.508506</ele>
        <time>2021-07-07T18:59:32.516Z</time>
      </trkpt>
      <trkpt lat="46.50721" lon="6.20416">
        <ele>1381.95997</ele>
        <time>2021-07-07T18:59:48.985Z</time>
      </trkpt>
      <trkpt lat="46.50686" lon="6.20381">
        <ele>1380.693062</ele>
        <time>2021-07-07T19:00:04.118Z</time>
      </trkpt>
      <trkpt lat="46.50676" lon="6.20359">
        <ele>1380.142898</ele>
        <time>2021-07-07T19:00:10.701Z</time>
      </trkpt>
      <trkpt lat="46.50642" lon="6.20305">
        <ele>1378.664015</ele>
        <time>2021-07-07T19:00:28.484Z</time>
      </trkpt>
      <trkpt lat="46.50629" lon="6.2028">
        <ele>1378.027484</ele>
        <time>2021-07-07T19:00:36.246Z</time>
      </trkpt>
      <trkpt lat="46.5062" lon="6.20269">
        <ele>1377.68524</ele>
        <time>2021-07-07T19:00:40.339Z</time>
      </trkpt>
      <trkpt lat="46.50603" lon="6.20274">
        <ele>1377.292431</ele>
        <time>2021-07-07T19:00:45.603Z</time>
      </trkpt>
      <trkpt lat="46.5043" lon="6.20307">
        <ele>1376.748019</ele>
        <time>2021-07-07T19:01:42.193Z</time>
      </trkpt>
      <trkpt lat="46.50419" lon="6.20303">
        <ele>1376.994026</ele>
        <time>2021-07-07T19:01:45.993Z</time>
      </trkpt>
      <trkpt lat="46.50411" lon="6.203">
        <ele>1377.172296</ele>
        <time>2021-07-07T19:01:49.231Z</time>
      </trkpt>
      <trkpt lat="46.50303" lon="6.20228">
        <ele>1379.93282</ele>
        <time>2021-07-07T19:02:32.089Z</time>
      </trkpt>
      <trkpt lat="46.50257" lon="6.20254">
        <ele>1381.168807</ele>
        <time>2021-07-07T19:02:50.381Z</time>
      </trkpt>
      <trkpt lat="46.50223" lon="6.20295">
        <ele>1382.647459</ele>
        <time>2021-07-07T19:03:06.743Z</time>
      </trkpt>
      <trkpt lat="46.50212" lon="6.203">
        <ele>1383.014617</ele>
        <time>2021-07-07T19:03:10.772Z</time>
      </trkpt>
      <trkpt lat="46.50157" lon="6.2029">
        <ele>1384.877353</ele>
        <time>2021-07-07T19:03:31.815Z</time>
      </trkpt>
      <trkpt lat="46.50141" lon="6.20297">
        <ele>1385.455583</ele>
        <time>2021-07-07T19:03:38.096Z</time>
      </trkpt>
      <trkpt lat="46.50124" lon="6.20315">
        <ele>1386.172064</ele>
        <time>2021-07-07T19:03:46.247Z</time>
      </trkpt>
      <trkpt lat="46.50115" lon="6.20328">
        <ele>1386.583325</ele>
        <time>2021-07-07T19:03:50.706Z</time>
      </trkpt>
      <trkpt lat="46.50104" lon="6.20324">
        <ele>1386.984763</ele>
        <time>2021-07-07T19:03:56.772Z</time>
      </trkpt>
      <trkpt lat="46.50078" lon="6.20293">
        <ele>1387.064797</ele>
        <time>2021-07-07T19:04:11.462Z</time>
      </trkpt>
      <trkpt lat="46.50048" lon="6.20234">
        <ele>1387.184816</ele>
        <time>2021-07-07T19:04:31.719Z</time>
      </trkpt>
      <trkpt lat="46.50015" lon="6.20203">
        <ele>1387.277125</ele>
        <time>2021-07-07T19:04:46.772Z</time>
      </trkpt>
      <trkpt lat="46.49976" lon="6.20176">
        <ele>1387.379888</ele>
        <time>2021-07-07T19:05:03.128Z</time>
      </trkpt>
      <trkpt lat="46.49976" lon="6.20176">
        <ele>1387.379888</ele>
        <time>2021-07-07T19:05:03.128Z</time>
      </trkpt>
      <trkpt lat="46.49953" lon="6.20155">
        <ele>1386.601662</ele>
        <time>2021-07-07T19:05:12.919Z</time>
      </trkpt>
      <trkpt lat="46.49849" lon="6.2003">
        <ele>1378.915357</ele>
        <time>2021-07-07T19:05:57.925Z</time>
      </trkpt>
      <trkpt lat="46.49779" lon="6.1997">
        <ele>1373.866137</ele>
        <time>2021-07-07T19:06:24.390Z</time>
      </trkpt>
      <trkpt lat="46.49671" lon="6.19927">
        <ele>1366.545671</ele>
        <time>2021-07-07T19:07:01.807Z</time>
      </trkpt>
      <trkpt lat="46.49615" lon="6.19889">
        <ele>1362.283523</ele>
        <time>2021-07-07T19:07:22.537Z</time>
      </trkpt>
      <trkpt lat="46.49565" lon="6.19865">
        <ele>1358.497704</ele>
        <time>2021-07-07T19:07:40.236Z</time>
      </trkpt>
      <trkpt lat="46.49503" lon="6.19804">
        <ele>1353.104452</ele>
        <time>2021-07-07T19:08:04.346Z</time>
      </trkpt>
      <trkpt lat="46.49463" lon="6.19787">
        <ele>1347.505534</ele>
        <time>2021-07-07T19:08:17.450Z</time>
      </trkpt>
      <trkpt lat="46.49451" lon="6.19777">
        <ele>1345.479091</ele>
        <time>2021-07-07T19:08:21.566Z</time>
      </trkpt>
      <trkpt lat="46.49406" lon="6.19753">
        <ele>1338.229647</ele>
        <time>2021-07-07T19:08:36.134Z</time>
      </trkpt>
      <trkpt lat="46.49369" lon="6.1975">
        <ele>1332.633943</ele>
        <time>2021-07-07T19:08:47.255Z</time>
      </trkpt>
      <trkpt lat="46.49331" lon="6.19763">
        <ele>1326.871982</ele>
        <time>2021-07-07T19:08:58.692Z</time>
      </trkpt>
      <trkpt lat="46.49318" lon="6.1977">
        <ele>1324.522874</ele>
        <time>2021-07-07T19:09:02.890Z</time>
      </trkpt>
      <trkpt lat="46.4929" lon="6.19804">
        <ele>1317.330197</ele>
        <time>2021-07-07T19:09:13.746Z</time>
      </trkpt>
      <trkpt lat="46.49276" lon="6.19816">
        <ele>1314.08049</ele>
        <time>2021-07-07T19:09:18.746Z</time>
      </trkpt>
      <trkpt lat="46.49241" lon="6.19821">
        <ele>1307.222715</ele>
        <time>2021-07-07T19:09:29.123Z</time>
      </trkpt>
      <trkpt lat="46.49219" lon="6.19814">
        <ele>1302.871336</ele>
        <time>2021-07-07T19:09:35.735Z</time>
      </trkpt>
      <trkpt lat="46.49178" lon="6.19775">
        <ele>1293.14716</ele>
        <time>2021-07-07T19:09:50.400Z</time>
      </trkpt>
      <trkpt lat="46.49154" lon="6.19732">
        <ele>1286.165482</ele>
        <time>2021-07-07T19:10:01.748Z</time>
      </trkpt>
      <trkpt lat="46.49115" lon="6.19625">
        <ele>1271.72334</ele>
        <time>2021-07-07T19:10:26.715Z</time>
      </trkpt>
      <trkpt lat="46.49108" lon="6.19582">
        <ele>1266.468173</ele>
        <time>2021-07-07T19:10:35.857Z</time>
      </trkpt>
      <trkpt lat="46.49107" lon="6.19575">
        <ele>1265.634315</ele>
        <time>2021-07-07T19:10:37.307Z</time>
      </trkpt>
      <trkpt lat="46.49113" lon="6.1952">
        <ele>1258.986773</ele>
        <time>2021-07-07T19:10:48.811Z</time>
      </trkpt>
      <trkpt lat="46.49106" lon="6.19501">
        <ele>1256.31067</ele>
        <time>2021-07-07T19:10:53.341Z</time>
      </trkpt>
      <trkpt lat="46.49056" lon="6.1943">
        <ele>1243.933175</ele>
        <time>2021-07-07T19:11:14.135Z</time>
      </trkpt>
      <trkpt lat="46.49042" lon="6.19399">
        <ele>1239.358726</ele>
        <time>2021-07-07T19:11:21.816Z</time>
      </trkpt>
      <trkpt lat="46.49035" lon="6.19318">
        <ele>1229.39925</ele>
        <time>2021-07-07T19:11:38.582Z</time>
      </trkpt>
      <trkpt lat="46.49031" lon="6.19311">
        <ele>1228.295814</ele>
        <time>2021-07-07T19:11:40.438Z</time>
      </trkpt>
      <trkpt lat="46.48998" lon="6.19302">
        <ele>1222.837066</ele>
        <time>2021-07-07T19:11:50.727Z</time>
      </trkpt>
      <trkpt lat="46.48975" lon="6.1928">
        <ele>1218.660354</ele>
        <time>2021-07-07T19:11:58.916Z</time>
      </trkpt>
      <trkpt lat="46.48941" lon="6.19267">
        <ele>1213.261105</ele>
        <time>2021-07-07T19:12:09.472Z</time>
      </trkpt>
      <trkpt lat="46.48933" lon="6.19256">
        <ele>1211.594642</ele>
        <time>2021-07-07T19:12:12.706Z</time>
      </trkpt>
      <trkpt lat="46.4892" lon="6.19259">
        <ele>1209.51556</ele>
        <time>2021-07-07T19:12:16.180Z</time>
      </trkpt>
      <trkpt lat="46.48909" lon="6.19215">
        <ele>1204.553065</ele>
        <time>2021-07-07T19:12:25.935Z</time>
      </trkpt>
      <trkpt lat="46.48898" lon="6.19189">
        <ele>1201.386687</ele>
        <time>2021-07-07T19:12:32.172Z</time>
      </trkpt>
      <trkpt lat="46.48887" lon="6.19142">
        <ele>1197.035949</ele>
        <time>2021-07-07T19:12:42.624Z</time>
      </trkpt>
      <trkpt lat="46.48854" lon="6.19123">
        <ele>1193.127094</ele>
        <time>2021-07-07T19:12:53.301Z</time>
      </trkpt>
      <trkpt lat="46.48825" lon="6.19076">
        <ele>1188.298025</ele>
        <time>2021-07-07T19:13:06.530Z</time>
      </trkpt>
      <trkpt lat="46.48804" lon="6.19028">
        <ele>1183.981163</ele>
        <time>2021-07-07T19:13:18.734Z</time>
      </trkpt>
      <trkpt lat="46.4878" lon="6.18997">
        <ele>1180.494044</ele>
        <time>2021-07-07T19:13:28.698Z</time>
      </trkpt>
      <trkpt lat="46.48753" lon="6.18968">
        <ele>1177.827696</ele>
        <time>2021-07-07T19:13:39.415Z</time>
      </trkpt>
      <trkpt lat="46.48753" lon="6.18968">
        <ele>1177.827696</ele>
        <time>2021-07-07T19:13:39.421Z</time>
      </trkpt>
      <trkpt lat="46.48704" lon="6.18948">
        <ele>1174.310828</ele>
        <time>2021-07-07T19:13:56.033Z</time>
      </trkpt>
      <trkpt lat="46.48682" lon="6.18939">
        <ele>1172.748075</ele>
        <time>2021-07-07T19:14:03.477Z</time>
      </trkpt>
      <trkpt lat="46.48667" lon="6.18915">
        <ele>1171.236264</ele>
        <time>2021-07-07T19:14:10.797Z</time>
      </trkpt>
      <trkpt lat="46.48662" lon="6.18888">
        <ele>1169.916462</ele>
        <time>2021-07-07T19:14:17.215Z</time>
      </trkpt>
      <trkpt lat="46.48662" lon="6.18866">
        <ele>1168.891398</ele>
        <time>2021-07-07T19:14:22.227Z</time>
      </trkpt>
      <trkpt lat="46.48689" lon="6.1882">
        <ele>1166.533666</ele>
        <time>2021-07-07T19:14:36.761Z</time>
      </trkpt>
      <trkpt lat="46.48692" lon="6.1879">
        <ele>1165.72918</ele>
        <time>2021-07-07T19:14:43.978Z</time>
      </trkpt>
      <trkpt lat="46.4869" lon="6.18769">
        <ele>1165.140363</ele>
        <time>2021-07-07T19:14:49.235Z</time>
      </trkpt>
      <trkpt lat="46.48651" lon="6.1875">
        <ele>1163.53364</ele>
        <time>2021-07-07T19:15:03.477Z</time>
      </trkpt>
      <trkpt lat="46.48631" lon="6.18723">
        <ele>1162.447132</ele>
        <time>2021-07-07T19:15:13.131Z</time>
      </trkpt>
      <trkpt lat="46.48593" lon="6.18686">
        <ele>1160.64394</ele>
        <time>2021-07-07T19:15:29.216Z</time>
      </trkpt>
      <trkpt lat="46.48548" lon="6.18657">
        <ele>1159.061611</ele>
        <time>2021-07-07T19:15:46.706Z</time>
      </trkpt>
      <trkpt lat="46.48525" lon="6.18643">
        <ele>1158.296414</ele>
        <time>2021-07-07T19:15:55.930Z</time>
      </trkpt>
      <trkpt lat="46.48525" lon="6.18643">
        <ele>1158.296414</ele>
        <time>2021-07-07T19:15:55.930Z</time>
      </trkpt>
      <trkpt lat="46.48505" lon="6.18619">
        <ele>1157.527355</ele>
        <time>2021-07-07T19:16:03.930Z</time>
      </trkpt>
      <trkpt lat="46.48496" lon="6.18608">
        <ele>1157.193823</ele>
        <time>2021-07-07T19:16:07.256Z</time>
      </trkpt>
      <trkpt lat="46.48469" lon="6.18591">
        <ele>1156.292778</ele>
        <time>2021-07-07T19:16:16.438Z</time>
      </trkpt>
      <trkpt lat="46.48418" lon="6.18534">
        <ele>1154.523954</ele>
        <time>2021-07-07T19:16:36.098Z</time>
      </trkpt>
      <trkpt lat="46.48402" lon="6.18526">
        <ele>1154.203413</ele>
        <time>2021-07-07T19:16:41.249Z</time>
      </trkpt>
      <trkpt lat="46.48386" lon="6.18526">
        <ele>1153.907881</ele>
        <time>2021-07-07T19:16:46.127Z</time>
      </trkpt>
      <trkpt lat="46.48379" lon="6.18529">
        <ele>1153.776879</ele>
        <time>2021-07-07T19:16:48.345Z</time>
      </trkpt>
      <trkpt lat="46.48383" lon="6.18494">
        <ele>1153.315314</ele>
        <time>2021-07-07T19:16:57.223Z</time>
      </trkpt>
      <trkpt lat="46.48376" lon="6.18444">
        <ele>1152.649999</ele>
        <time>2021-07-07T19:17:10.210Z</time>
      </trkpt>
      <trkpt lat="46.48367" lon="6.18417">
        <ele>1152.269874</ele>
        <time>2021-07-07T19:17:17.717Z</time>
      </trkpt>
      <trkpt lat="46.48335" lon="6.18387">
        <ele>1151.5406</ele>
        <time>2021-07-07T19:17:31.997Z</time>
      </trkpt>
      <trkpt lat="46.48282" lon="6.18355">
        <ele>1151.047155</ele>
        <time>2021-07-07T19:17:53.330Z</time>
      </trkpt>
      <trkpt lat="46.48263" lon="6.18353">
        <ele>1150.92111</ele>
        <time>2021-07-07T19:18:00.529Z</time>
      </trkpt>
      <trkpt lat="46.48244" lon="6.18358">
        <ele>1150.789526</ele>
        <time>2021-07-07T19:18:08.054Z</time>
      </trkpt>
      <trkpt lat="46.48216" lon="6.18391">
        <ele>1150.550123</ele>
        <time>2021-07-07T19:18:21.741Z</time>
      </trkpt>
      <trkpt lat="46.48186" lon="6.18398">
        <ele>1150.346027</ele>
        <time>2021-07-07T19:18:33.352Z</time>
      </trkpt>
      <trkpt lat="46.4816" lon="6.18385">
        <ele>1150.148855</ele>
        <time>2021-07-07T19:18:43.902Z</time>
      </trkpt>
      <trkpt lat="46.48124" lon="6.18335">
        <ele>1149.298654</ele>
        <time>2021-07-07T19:19:02.613Z</time>
      </trkpt>
      <trkpt lat="46.48096" lon="6.18315">
        <ele>1148.759665</ele>
        <time>2021-07-07T19:19:14.302Z</time>
      </trkpt>
      <trkpt lat="46.48034" lon="6.18302">
        <ele>1147.695375</ele>
        <time>2021-07-07T19:19:37.093Z</time>
      </trkpt>
      <trkpt lat="46.47955" lon="6.18252">
        <ele>1145.759437</ele>
        <time>2021-07-07T19:20:08.257Z</time>
      </trkpt>
      <trkpt lat="46.47921" lon="6.18241">
        <ele>1144.833834</ele>
        <time>2021-07-07T19:20:20.918Z</time>
      </trkpt>
      <trkpt lat="46.47842" lon="6.18278">
        <ele>1142.649362</ele>
        <time>2021-07-07T19:20:50.821Z</time>
      </trkpt>
      <trkpt lat="46.47827" lon="6.18278">
        <ele>1142.275725</ele>
        <time>2021-07-07T19:20:56.177Z</time>
      </trkpt>
      <trkpt lat="46.47827" lon="6.18278">
        <ele>1142.275725</ele>
        <time>2021-07-07T19:20:56.177Z</time>
      </trkpt>
      <trkpt lat="46.47806" lon="6.18279">
        <ele>1141.778823</ele>
        <time>2021-07-07T19:21:02.707Z</time>
      </trkpt>
      <trkpt lat="46.47759" lon="6.18297">
        <ele>1140.659516</ele>
        <time>2021-07-07T19:21:17.597Z</time>
      </trkpt>
      <trkpt lat="46.47709" lon="6.18327">
        <ele>1139.400137</ele>
        <time>2021-07-07T19:21:34.321Z</time>
      </trkpt>
      <trkpt lat="46.47659" lon="6.18337">
        <ele>1138.226253</ele>
        <time>2021-07-07T19:21:49.943Z</time>
      </trkpt>
      <trkpt lat="46.47531" lon="6.18423">
        <ele>1137.379427</ele>
        <time>2021-07-07T19:22:34.859Z</time>
      </trkpt>
      <trkpt lat="46.47511" lon="6.1845">
        <ele>1137.220097</ele>
        <time>2021-07-07T19:22:43.959Z</time>
      </trkpt>
      <trkpt lat="46.47435" lon="6.18474">
        <ele>1137.973318</ele>
        <time>2021-07-07T19:23:11.098Z</time>
      </trkpt>
      <trkpt lat="46.47382" lon="6.18513">
        <ele>1138.732222</ele>
        <time>2021-07-07T19:23:32.796Z</time>
      </trkpt>
      <trkpt lat="46.47322" lon="6.18544">
        <ele>1139.091639</ele>
        <time>2021-07-07T19:23:53.747Z</time>
      </trkpt>
      <trkpt lat="46.47294" lon="6.18545">
        <ele>1137.761779</ele>
        <time>2021-07-07T19:24:02.885Z</time>
      </trkpt>
      <trkpt lat="46.47274" lon="6.18528">
        <ele>1136.706451</ele>
        <time>2021-07-07T19:24:10.126Z</time>
      </trkpt>
      <trkpt lat="46.47243" lon="6.18555">
        <ele>1135.034346</ele>
        <time>2021-07-07T19:24:21.011Z</time>
      </trkpt>
      <trkpt lat="46.4716" lon="6.18629">
        <ele>1129.69378</ele>
        <time>2021-07-07T19:24:47.987Z</time>
      </trkpt>
      <trkpt lat="46.47057" lon="6.18776">
        <ele>1112.476322</ele>
        <time>2021-07-07T19:25:25.052Z</time>
      </trkpt>
      <trkpt lat="46.47047" lon="6.18785">
        <ele>1111.043456</ele>
        <time>2021-07-07T19:25:28.150Z</time>
      </trkpt>
      <trkpt lat="46.47033" lon="6.18787">
        <ele>1109.380164</ele>
        <time>2021-07-07T19:25:31.832Z</time>
      </trkpt>
      <trkpt lat="46.47022" lon="6.18785">
        <ele>1108.144345</ele>
        <time>2021-07-07T19:25:34.601Z</time>
      </trkpt>
      <trkpt lat="46.46977" lon="6.18781">
        <ele>1103.007969</ele>
        <time>2021-07-07T19:25:46.276Z</time>
      </trkpt>
      <trkpt lat="46.46917" lon="6.18778">
        <ele>1096.221432</ele>
        <time>2021-07-07T19:26:01.690Z</time>
      </trkpt>
      <trkpt lat="46.46833" lon="6.18683">
        <ele>1085.621615</ele>
        <time>2021-07-07T19:26:29.400Z</time>
      </trkpt>
      <trkpt lat="46.46805" lon="6.18668">
        <ele>1083.232918</ele>
        <time>2021-07-07T19:26:37.560Z</time>
      </trkpt>
      <trkpt lat="46.46785" lon="6.18706">
        <ele>1080.570511</ele>
        <time>2021-07-07T19:26:46.608Z</time>
      </trkpt>
      <trkpt lat="46.46773" lon="6.18699">
        <ele>1079.52122</ele>
        <time>2021-07-07T19:26:49.976Z</time>
      </trkpt>
      <trkpt lat="46.46745" lon="6.1868">
        <ele>1077.066001</ele>
        <time>2021-07-07T19:26:58.475Z</time>
      </trkpt>
      <trkpt lat="46.46662" lon="6.18556">
        <ele>1070.34359</ele>
        <time>2021-07-07T19:27:32.549Z</time>
      </trkpt>
      <trkpt lat="46.46599" lon="6.18427">
        <ele>1065.119236</ele>
        <time>2021-07-07T19:28:05.764Z</time>
      </trkpt>
      <trkpt lat="46.46569" lon="6.18386">
        <ele>1063.330537</ele>
        <time>2021-07-07T19:28:17.641Z</time>
      </trkpt>
      <trkpt lat="46.46535" lon="6.1835">
        <ele>1061.472396</ele>
        <time>2021-07-07T19:28:30.002Z</time>
      </trkpt>
      <trkpt lat="46.46486" lon="6.18297">
        <ele>1058.745812</ele>
        <time>2021-07-07T19:28:51.286Z</time>
      </trkpt>
      <trkpt lat="46.46439" lon="6.18285">
        <ele>1057.231164</ele>
        <time>2021-07-07T19:29:07.520Z</time>
      </trkpt>
      <trkpt lat="46.46412" lon="6.1827">
        <ele>1056.505318</ele>
        <time>2021-07-07T19:29:17.283Z</time>
      </trkpt>
      <trkpt lat="46.46404" lon="6.18267">
        <ele>1056.280388</ele>
        <time>2021-07-07T19:29:20.314Z</time>
      </trkpt>
      <trkpt lat="46.46397" lon="6.18269">
        <ele>1056.098007</ele>
        <time>2021-07-07T19:29:22.925Z</time>
      </trkpt>
      <trkpt lat="46.46395" lon="6.1827">
        <ele>1056.040459</ele>
        <time>2021-07-07T19:29:23.713Z</time>
      </trkpt>
      <trkpt lat="46.46383" lon="6.1828">
        <ele>1055.679537</ele>
        <time>2021-07-07T19:29:28.662Z</time>
      </trkpt>
      <trkpt lat="46.46364" lon="6.18307">
        <ele>1055.011497</ele>
        <time>2021-07-07T19:29:38.211Z</time>
      </trkpt>
      <trkpt lat="46.46359" lon="6.18327">
        <ele>1054.638533</ele>
        <time>2021-07-07T19:29:43.509Z</time>
      </trkpt>
      <trkpt lat="46.4635" lon="6.18343">
        <ele>1054.268115</ele>
        <time>2021-07-07T19:29:49.017Z</time>
      </trkpt>
      <trkpt lat="46.46329" lon="6.18357">
        <ele>1053.671627</ele>
        <time>2021-07-07T19:29:58.009Z</time>
      </trkpt>
      <trkpt lat="46.46309" lon="6.18356">
        <ele>1053.70155</ele>
        <time>2021-07-07T19:30:06.206Z</time>
      </trkpt>
      <trkpt lat="46.4628" lon="6.18337">
        <ele>1054.414742</ele>
        <time>2021-07-07T19:30:19.445Z</time>
      </trkpt>
      <trkpt lat="46.46268" lon="6.18339">
        <ele>1054.693198</ele>
        <time>2021-07-07T19:30:23.814Z</time>
      </trkpt>
      <trkpt lat="46.46229" lon="6.18345">
        <ele>1055.564479</ele>
        <time>2021-07-07T19:30:37.662Z</time>
      </trkpt>
      <trkpt lat="46.4621" lon="6.18355">
        <ele>1056.030565</ele>
        <time>2021-07-07T19:30:45.116Z</time>
      </trkpt>
      <trkpt lat="46.46195" lon="6.18368">
        <ele>1056.424494</ele>
        <time>2021-07-07T19:30:51.894Z</time>
      </trkpt>
      <trkpt lat="46.46155" lon="6.18417">
        <ele>1057.454543</ele>
        <time>2021-07-07T19:31:11.031Z</time>
      </trkpt>
      <trkpt lat="46.46136" lon="6.18471">
        <ele>1057.078695</ele>
        <time>2021-07-07T19:31:26.601Z</time>
      </trkpt>
      <trkpt lat="46.46104" lon="6.18512">
        <ele>1056.699823</ele>
        <time>2021-07-07T19:31:40.506Z</time>
      </trkpt>
      <trkpt lat="46.46085" lon="6.18511">
        <ele>1056.527808</ele>
        <time>2021-07-07T19:31:46.821Z</time>
      </trkpt>
      <trkpt lat="46.45992" lon="6.18448">
        <ele>1053.608273</ele>
        <time>2021-07-07T19:32:17.521Z</time>
      </trkpt>
      <trkpt lat="46.45986" lon="6.18443">
        <ele>1053.108341</ele>
        <time>2021-07-07T19:32:19.296Z</time>
      </trkpt>
      <trkpt lat="46.45981" lon="6.18437">
        <ele>1052.645004</ele>
        <time>2021-07-07T19:32:20.965Z</time>
      </trkpt>
      <trkpt lat="46.4594" lon="6.18407">
        <ele>1049.239274</ele>
        <time>2021-07-07T19:32:33.845Z</time>
      </trkpt>
      <trkpt lat="46.45877" lon="6.18406">
        <ele>1044.598229</ele>
        <time>2021-07-07T19:32:50.536Z</time>
      </trkpt>
      <trkpt lat="46.45862" lon="6.18407">
        <ele>1043.536758</ele>
        <time>2021-07-07T19:32:54.606Z</time>
      </trkpt>
      <trkpt lat="46.4585" lon="6.18411">
        <ele>1042.636114</ele>
        <time>2021-07-07T19:32:57.798Z</time>
      </trkpt>
      <trkpt lat="46.45784" lon="6.18424">
        <ele>1039.832855</ele>
        <time>2021-07-07T19:33:16.546Z</time>
      </trkpt>
      <trkpt lat="46.4574" lon="6.18444">
        <ele>1037.883366</ele>
        <time>2021-07-07T19:33:30.013Z</time>
      </trkpt>
      <trkpt lat="46.4574" lon="6.18433">
        <ele>1037.585547</ele>
        <time>2021-07-07T19:33:32.323Z</time>
      </trkpt>
      <trkpt lat="46.45739" lon="6.18183">
        <ele>1035.631787</ele>
        <time>2021-07-07T19:34:28.633Z</time>
      </trkpt>
      <trkpt lat="46.45731" lon="6.18149">
        <ele>1035.746152</ele>
        <time>2021-07-07T19:34:37.458Z</time>
      </trkpt>
      <trkpt lat="46.4572" lon="6.18123">
        <ele>1035.845729</ele>
        <time>2021-07-07T19:34:45.026Z</time>
      </trkpt>
      <trkpt lat="46.457" lon="6.18099">
        <ele>1035.902941</ele>
        <time>2021-07-07T19:34:53.765Z</time>
      </trkpt>
      <trkpt lat="46.45684" lon="6.18094">
        <ele>1035.779189</ele>
        <time>2021-07-07T19:34:59.489Z</time>
      </trkpt>
      <trkpt lat="46.45668" lon="6.181">
        <ele>1035.659141</ele>
        <time>2021-07-07T19:35:05.008Z</time>
      </trkpt>
      <trkpt lat="46.45653" lon="6.18118">
        <ele>1035.5176</ele>
        <time>2021-07-07T19:35:11.459Z</time>
      </trkpt>
      <trkpt lat="46.45531" lon="6.18409">
        <ele>1030.251477</ele>
        <time>2021-07-07T19:36:25.288Z</time>
      </trkpt>
      <trkpt lat="46.45503" lon="6.18445">
        <ele>1028.78032</ele>
        <time>2021-07-07T19:36:36.014Z</time>
      </trkpt>
      <trkpt lat="46.45489" lon="6.18453">
        <ele>1028.223311</ele>
        <time>2021-07-07T19:36:39.732Z</time>
      </trkpt>
      <trkpt lat="46.45507" lon="6.18488">
        <ele>1026.483064</ele>
        <time>2021-07-07T19:36:48.260Z</time>
      </trkpt>
      <trkpt lat="46.45504" lon="6.18496">
        <ele>1026.012714</ele>
        <time>2021-07-07T19:36:49.822Z</time>
      </trkpt>
      <trkpt lat="46.45481" lon="6.18567">
        <ele>1021.812385</ele>
        <time>2021-07-07T19:37:04.927Z</time>
      </trkpt>
      <trkpt lat="46.45474" lon="6.18597">
        <ele>1020.097506</ele>
        <time>2021-07-07T19:37:10.757Z</time>
      </trkpt>
      <trkpt lat="46.45462" lon="6.18635">
        <ele>1017.885613</ele>
        <time>2021-07-07T19:37:18.504Z</time>
      </trkpt>
      <trkpt lat="46.45446" lon="6.1867">
        <ele>1015.646746</ele>
        <time>2021-07-07T19:37:26.517Z</time>
      </trkpt>
      <trkpt lat="46.45418" lon="6.18716">
        <ele>1012.852452</ele>
        <time>2021-07-07T19:37:38.227Z</time>
      </trkpt>
      <trkpt lat="46.45332" lon="6.18811">
        <ele>1007.583699</ele>
        <time>2021-07-07T19:38:09.564Z</time>
      </trkpt>
      <trkpt lat="46.45288" lon="6.18844">
        <ele>1005.122284</ele>
        <time>2021-07-07T19:38:24.812Z</time>
      </trkpt>
      <trkpt lat="46.45229" lon="6.18859">
        <ele>1003.104006</ele>
        <time>2021-07-07T19:38:43.050Z</time>
      </trkpt>
      <trkpt lat="46.45189" lon="6.18844">
        <ele>1001.793306</ele>
        <time>2021-07-07T19:38:55.358Z</time>
      </trkpt>
      <trkpt lat="46.45117" lon="6.18782">
        <ele>999.064101</ele>
        <time>2021-07-07T19:39:20.856Z</time>
      </trkpt>
      <trkpt lat="46.45059" lon="6.18785">
        <ele>996.467622</ele>
        <time>2021-07-07T19:39:38.122Z</time>
      </trkpt>
      <trkpt lat="46.45027" lon="6.1877">
        <ele>994.926897</ele>
        <time>2021-07-07T19:39:48.373Z</time>
      </trkpt>
      <trkpt lat="46.44998" lon="6.18722">
        <ele>992.991299</ele>
        <time>2021-07-07T19:40:01.244Z</time>
      </trkpt>
      <trkpt lat="46.44981" lon="6.18632">
        <ele>988.636818</ele>
        <time>2021-07-07T19:40:19.876Z</time>
      </trkpt>
      <trkpt lat="46.4498" lon="6.18629">
        <ele>988.356383</ele>
        <time>2021-07-07T19:40:20.519Z</time>
      </trkpt>
      <trkpt lat="46.4498" lon="6.18577">
        <ele>984.171834</ele>
        <time>2021-07-07T19:40:30.444Z</time>
      </trkpt>
      <trkpt lat="46.44973" lon="6.18526">
        <ele>980.064738</ele>
        <time>2021-07-07T19:40:40.061Z</time>
      </trkpt>
      <trkpt lat="46.4497" lon="6.18493">
        <ele>977.408674</ele>
        <time>2021-07-07T19:40:45.958Z</time>
      </trkpt>
      <trkpt lat="46.44964" lon="6.18507">
        <ele>976.112619</ele>
        <time>2021-07-07T19:40:48.838Z</time>
      </trkpt>
      <trkpt lat="46.44961" lon="6.18509">
        <ele>975.726668</ele>
        <time>2021-07-07T19:40:49.703Z</time>
      </trkpt>
      <trkpt lat="46.44957" lon="6.1851">
        <ele>975.283737</ele>
        <time>2021-07-07T19:40:50.687Z</time>
      </trkpt>
      <trkpt lat="46.44951" lon="6.18532">
        <ele>973.369788</ele>
        <time>2021-07-07T19:40:54.876Z</time>
      </trkpt>
      <trkpt lat="46.44928" lon="6.1858">
        <ele>967.099167</ele>
        <time>2021-07-07T19:41:05.159Z</time>
      </trkpt>
      <trkpt lat="46.44877" lon="6.18607">
        <ele>954.14672</ele>
        <time>2021-07-07T19:41:18.853Z</time>
      </trkpt>
      <trkpt lat="46.44854" lon="6.18604">
        <ele>948.684913</ele>
        <time>2021-07-07T19:41:25.021Z</time>
      </trkpt>
      <trkpt lat="46.44848" lon="6.18605">
        <ele>947.084957</ele>
        <time>2021-07-07T19:41:26.697Z</time>
      </trkpt>
      <trkpt lat="46.44814" lon="6.18625">
        <ele>938.420244</ele>
        <time>2021-07-07T19:41:36.299Z</time>
      </trkpt>
      <trkpt lat="46.44767" lon="6.18649">
        <ele>926.439527</ele>
        <time>2021-07-07T19:41:49.384Z</time>
      </trkpt>
      <trkpt lat="46.4477" lon="6.18633">
        <ele>923.817136</ele>
        <time>2021-07-07T19:41:52.381Z</time>
      </trkpt>
      <trkpt lat="46.4477" lon="6.1861">
        <ele>920.214642</ele>
        <time>2021-07-07T19:41:56.810Z</time>
      </trkpt>
      <trkpt lat="46.44743" lon="6.18591">
        <ele>913.182554</ele>
        <time>2021-07-07T19:42:07.157Z</time>
      </trkpt>
      <trkpt lat="46.44724" lon="6.18584">
        <ele>908.763642</ele>
        <time>2021-07-07T19:42:13.066Z</time>
      </trkpt>
      <trkpt lat="46.44705" lon="6.1859">
        <ele>904.132815</ele>
        <time>2021-07-07T19:42:19.322Z</time>
      </trkpt>
      <trkpt lat="46.44651" lon="6.18631">
        <ele>890.069301</ele>
        <time>2021-07-07T19:42:37.468Z</time>
      </trkpt>
      <trkpt lat="46.44634" lon="6.18623">
        <ele>886.020385</ele>
        <time>2021-07-07T19:42:42.627Z</time>
      </trkpt>
      <trkpt lat="46.44629" lon="6.1865">
        <ele>884.983836</ele>
        <time>2021-07-07T19:42:48.634Z</time>
      </trkpt>
      <trkpt lat="46.44619" lon="6.18671">
        <ele>884.390646</ele>
        <time>2021-07-07T19:42:53.945Z</time>
      </trkpt>
      <trkpt lat="46.44617" lon="6.18658">
        <ele>884.096386</ele>
        <time>2021-07-07T19:42:57.549Z</time>
      </trkpt>
      <trkpt lat="46.44611" lon="6.18617">
        <ele>883.138734</ele>
        <time>2021-07-07T19:43:05.292Z</time>
      </trkpt>
      <trkpt lat="46.44621" lon="6.18559">
        <ele>881.771821</ele>
        <time>2021-07-07T19:43:18.417Z</time>
      </trkpt>
      <trkpt lat="46.44617" lon="6.18516">
        <ele>880.78046</ele>
        <time>2021-07-07T19:43:27.651Z</time>
      </trkpt>
      <trkpt lat="46.44635" lon="6.18456">
        <ele>879.902544</ele>
        <time>2021-07-07T19:43:50.913Z</time>
      </trkpt>
      <trkpt lat="46.44582" lon="6.18397">
        <ele>882.469045</ele>
        <time>2021-07-07T19:44:24.292Z</time>
      </trkpt>
      <trkpt lat="46.44571" lon="6.18338">
        <ele>884.069948</ele>
        <time>2021-07-07T19:44:40.700Z</time>
      </trkpt>
      <trkpt lat="46.44545" lon="6.18296">
        <ele>885.536136</ele>
        <time>2021-07-07T19:44:53.873Z</time>
      </trkpt>
      <trkpt lat="46.4454" lon="6.18264">
        <ele>886.41081</ele>
        <time>2021-07-07T19:45:01.218Z</time>
      </trkpt>
      <trkpt lat="46.44531" lon="6.18219">
        <ele>883.267954</ele>
        <time>2021-07-07T19:45:10.896Z</time>
      </trkpt>
      <trkpt lat="46.44506" lon="6.18195">
        <ele>880.30641</ele>
        <time>2021-07-07T19:45:20.613Z</time>
      </trkpt>
      <trkpt lat="46.44435" lon="6.18143">
        <ele>872.400968</ele>
        <time>2021-07-07T19:45:44.805Z</time>
      </trkpt>
      <trkpt lat="46.44375" lon="6.18089">
        <ele>863.071978</ele>
        <time>2021-07-07T19:46:05.875Z</time>
      </trkpt>
      <trkpt lat="46.44367" lon="6.18075">
        <ele>860.988526</ele>
        <time>2021-07-07T19:46:09.510Z</time>
      </trkpt>
      <trkpt lat="46.44303" lon="6.18046">
        <ele>849.360354</ele>
        <time>2021-07-07T19:46:29.764Z</time>
      </trkpt>
      <trkpt lat="46.44265" lon="6.18014">
        <ele>841.803468</ele>
        <time>2021-07-07T19:46:42.866Z</time>
      </trkpt>
      <trkpt lat="46.44252" lon="6.17988">
        <ele>838.03593</ele>
        <time>2021-07-07T19:46:49.369Z</time>
      </trkpt>
      <trkpt lat="46.44244" lon="6.17949">
        <ele>832.39434</ele>
        <time>2021-07-07T19:46:57.697Z</time>
      </trkpt>
      <trkpt lat="46.44237" lon="6.1794">
        <ele>830.469428</ele>
        <time>2021-07-07T19:47:00.485Z</time>
      </trkpt>
      <trkpt lat="46.44215" lon="6.17935">
        <ele>825.811382</ele>
        <time>2021-07-07T19:47:07.259Z</time>
      </trkpt>
      <trkpt lat="46.44204" lon="6.17942">
        <ele>823.480756</ele>
        <time>2021-07-07T19:47:10.669Z</time>
      </trkpt>
      <trkpt lat="46.44196" lon="6.17949">
        <ele>821.545159</ele>
        <time>2021-07-07T19:47:13.490Z</time>
      </trkpt>
      <trkpt lat="46.44196" lon="6.17958">
        <ele>820.315694</ele>
        <time>2021-07-07T19:47:15.277Z</time>
      </trkpt>
      <trkpt lat="46.44166" lon="6.17985">
        <ele>813.092066</ele>
        <time>2021-07-07T19:47:25.742Z</time>
      </trkpt>
      <trkpt lat="46.4415" lon="6.18009">
        <ele>808.386336</ele>
        <time>2021-07-07T19:47:32.575Z</time>
      </trkpt>
      <trkpt lat="46.44116" lon="6.18036">
        <ele>800.430129</ele>
        <time>2021-07-07T19:47:44.069Z</time>
      </trkpt>
      <trkpt lat="46.44088" lon="6.18033">
        <ele>794.334318</ele>
        <time>2021-07-07T19:47:52.392Z</time>
      </trkpt>
      <trkpt lat="46.44038" lon="6.18001">
        <ele>782.498054</ele>
        <time>2021-07-07T19:48:08.845Z</time>
      </trkpt>
      <trkpt lat="46.44029" lon="6.18018">
        <ele>779.337269</ele>
        <time>2021-07-07T19:48:13.198Z</time>
      </trkpt>
      <trkpt lat="46.44025" lon="6.18043">
        <ele>775.527903</ele>
        <time>2021-07-07T19:48:18.412Z</time>
      </trkpt>
      <trkpt lat="46.44034" lon="6.1808">
        <ele>769.567751</ele>
        <time>2021-07-07T19:48:26.573Z</time>
      </trkpt>
      <trkpt lat="46.44027" lon="6.18118">
        <ele>763.750181</ele>
        <time>2021-07-07T19:48:34.539Z</time>
      </trkpt>
      <trkpt lat="46.44011" lon="6.18129">
        <ele>760.330811</ele>
        <time>2021-07-07T19:48:39.848Z</time>
      </trkpt>
      <trkpt lat="46.43996" lon="6.18154">
        <ele>756.58774</ele>
        <time>2021-07-07T19:48:46.644Z</time>
      </trkpt>
      <trkpt lat="46.4396" lon="6.18175">
        <ele>750.236023</ele>
        <time>2021-07-07T19:48:58.212Z</time>
      </trkpt>
      <trkpt lat="46.4393" lon="6.18196">
        <ele>744.771876</ele>
        <time>2021-07-07T19:49:08.182Z</time>
      </trkpt>
      <trkpt lat="46.43909" lon="6.18193">
        <ele>741.348998</ele>
        <time>2021-07-07T19:49:14.440Z</time>
      </trkpt>
      <trkpt lat="46.43867" lon="6.18185">
        <ele>734.325552</ele>
        <time>2021-07-07T19:49:27.308Z</time>
      </trkpt>
      <trkpt lat="46.43837" lon="6.18174">
        <ele>729.95935</ele>
        <time>2021-07-07T19:49:36.628Z</time>
      </trkpt>
      <trkpt lat="46.43839" lon="6.18162">
        <ele>728.933761</ele>
        <time>2021-07-07T19:49:38.901Z</time>
      </trkpt>
      <trkpt lat="46.43848" lon="6.18155">
        <ele>727.660357</ele>
        <time>2021-07-07T19:49:41.483Z</time>
      </trkpt>
      <trkpt lat="46.43886" lon="6.18151">
        <ele>722.839049</ele>
        <time>2021-07-07T19:49:51.276Z</time>
      </trkpt>
      <trkpt lat="46.43884" lon="6.18137">
        <ele>721.58107</ele>
        <time>2021-07-07T19:49:54.297Z</time>
      </trkpt>
      <trkpt lat="46.4388" lon="6.18126">
        <ele>720.474215</ele>
        <time>2021-07-07T19:49:57.143Z</time>
      </trkpt>
      <trkpt lat="46.43871" lon="6.18099">
        <ele>717.889961</ele>
        <time>2021-07-07T19:50:03.351Z</time>
      </trkpt>
      <trkpt lat="46.43852" lon="6.18078">
        <ele>714.916551</ele>
        <time>2021-07-07T19:50:10.640Z</time>
      </trkpt>
      <trkpt lat="46.43815" lon="6.18016">
        <ele>707.859449</ele>
        <time>2021-07-07T19:50:27.673Z</time>
      </trkpt>
      <trkpt lat="46.43775" lon="6.17907">
        <ele>697.646786</ele>
        <time>2021-07-07T19:50:53.570Z</time>
      </trkpt>
      <trkpt lat="46.43762" lon="6.17886">
        <ele>695.400069</ele>
        <time>2021-07-07T19:50:59.207Z</time>
      </trkpt>
      <trkpt lat="46.43783" lon="6.17836">
        <ele>690.525485</ele>
        <time>2021-07-07T19:51:09.955Z</time>
      </trkpt>
      <trkpt lat="46.43798" lon="6.17814">
        <ele>688.085722</ele>
        <time>2021-07-07T19:51:15.551Z</time>
      </trkpt>
      <trkpt lat="46.43805" lon="6.17787">
        <ele>686.771921</ele>
        <time>2021-07-07T19:51:20.934Z</time>
      </trkpt>
      <trkpt lat="46.43802" lon="6.17771">
        <ele>686.042816</ele>
        <time>2021-07-07T19:51:24.013Z</time>
      </trkpt>
      <trkpt lat="46.43806" lon="6.17738">
        <ele>684.489204</ele>
        <time>2021-07-07T19:51:30.341Z</time>
      </trkpt>
      <trkpt lat="46.43801" lon="6.17726">
        <ele>683.883131</ele>
        <time>2021-07-07T19:51:33.106Z</time>
      </trkpt>
      <trkpt lat="46.4377" lon="6.17783">
        <ele>680.601077</ele>
        <time>2021-07-07T19:51:47.253Z</time>
      </trkpt>
      <trkpt lat="46.43744" lon="6.17805">
        <ele>678.629829</ele>
        <time>2021-07-07T19:51:56.285Z</time>
      </trkpt>
      <trkpt lat="46.43719" lon="6.17815">
        <ele>676.913573</ele>
        <time>2021-07-07T19:52:04.073Z</time>
      </trkpt>
      <trkpt lat="46.4362" lon="6.17906">
        <ele>669.11288</ele>
        <time>2021-07-07T19:52:37.010Z</time>
      </trkpt>
      <trkpt lat="46.43566" lon="6.17981">
        <ele>664.065817</ele>
        <time>2021-07-07T19:52:57.840Z</time>
      </trkpt>
      <trkpt lat="46.43541" lon="6.18016">
        <ele>660.772343</ele>
        <time>2021-07-07T19:53:07.663Z</time>
      </trkpt>
      <trkpt lat="46.43538" lon="6.1804">
        <ele>659.239035</ele>
        <time>2021-07-07T19:53:11.945Z</time>
      </trkpt>
      <trkpt lat="46.43522" lon="6.18081">
        <ele>656.214665</ele>
        <time>2021-07-07T19:53:20.524Z</time>
      </trkpt>
      <trkpt lat="46.43515" lon="6.18157">
        <ele>651.307148</ele>
        <time>2021-07-07T19:53:34.556Z</time>
      </trkpt>
      <trkpt lat="46.43491" lon="6.182">
        <ele>647.746237</ele>
        <time>2021-07-07T19:53:44.583Z</time>
      </trkpt>
      <trkpt lat="46.43478" lon="6.18222">
        <ele>645.839061</ele>
        <time>2021-07-07T19:53:49.631Z</time>
      </trkpt>
      <trkpt lat="46.43456" lon="6.18259">
        <ele>642.487802</ele>
        <time>2021-07-07T19:53:58.737Z</time>
      </trkpt>
      <trkpt lat="46.43371" lon="6.18343">
        <ele>632.516885</ele>
        <time>2021-07-07T19:54:25.791Z</time>
      </trkpt>
      <trkpt lat="46.43343" lon="6.18388">
        <ele>628.77092</ele>
        <time>2021-07-07T19:54:36.736Z</time>
      </trkpt>
      <trkpt lat="46.433" lon="6.1843">
        <ele>624.863509</ele>
        <time>2021-07-07T19:54:51.030Z</time>
      </trkpt>
      <trkpt lat="46.43269" lon="6.18476">
        <ele>621.451306</ele>
        <time>2021-07-07T19:55:03.519Z</time>
      </trkpt>
      <trkpt lat="46.43263" lon="6.18491">
        <ele>620.531453</ele>
        <time>2021-07-07T19:55:06.670Z</time>
      </trkpt>
      <trkpt lat="46.43221" lon="6.18547">
        <ele>616.259725</ele>
        <time>2021-07-07T19:55:22.713Z</time>
      </trkpt>
      <trkpt lat="46.43184" lon="6.18562">
        <ele>614.410944</ele>
        <time>2021-07-07T19:55:33.799Z</time>
      </trkpt>
      <trkpt lat="46.43139" lon="6.18591">
        <ele>612.059973</ele>
        <time>2021-07-07T19:55:47.785Z</time>
      </trkpt>
      <trkpt lat="46.43087" lon="6.18638">
        <ele>609.141706</ele>
        <time>2021-07-07T19:56:06.148Z</time>
      </trkpt>
      <trkpt lat="46.43071" lon="6.1866">
        <ele>608.093279</ele>
        <time>2021-07-07T19:56:12.797Z</time>
      </trkpt>
      <trkpt lat="46.43016" lon="6.18759">
        <ele>605.474779</ele>
        <time>2021-07-07T19:56:39.422Z</time>
      </trkpt>
      <trkpt lat="46.42983" lon="6.18808">
        <ele>604.135274</ele>
        <time>2021-07-07T19:56:54.061Z</time>
      </trkpt>
      <trkpt lat="46.4295" lon="6.18907">
        <ele>602.247527</ele>
        <time>2021-07-07T19:57:17.382Z</time>
      </trkpt>
      <trkpt lat="46.42945" lon="6.18938">
        <ele>601.882157</ele>
        <time>2021-07-07T19:57:24.090Z</time>
      </trkpt>
      <trkpt lat="46.42906" lon="6.19007">
        <ele>600.842053</ele>
        <time>2021-07-07T19:57:43.276Z</time>
      </trkpt>
      <trkpt lat="46.42892" lon="6.19035">
        <ele>600.437547</ele>
        <time>2021-07-07T19:57:50.792Z</time>
      </trkpt>
      <trkpt lat="46.4288" lon="6.19057">
        <ele>600.11269</ele>
        <time>2021-07-07T19:57:56.997Z</time>
      </trkpt>
      <trkpt lat="46.42855" lon="6.1908">
        <ele>599.606776</ele>
        <time>2021-07-07T19:58:06.629Z</time>
      </trkpt>
      <trkpt lat="46.42826" lon="6.19088">
        <ele>599.493601</ele>
        <time>2021-07-07T19:58:15.942Z</time>
      </trkpt>
      <trkpt lat="46.42783" lon="6.19092">
        <ele>599.335076</ele>
        <time>2021-07-07T19:58:30.004Z</time>
      </trkpt>
      <trkpt lat="46.42762" lon="6.19087">
        <ele>599.256274</ele>
        <time>2021-07-07T19:58:38.198Z</time>
      </trkpt>
      <trkpt lat="46.42731" lon="6.1908">
        <ele>599.141576</ele>
        <time>2021-07-07T19:58:50.455Z</time>
      </trkpt>
      <trkpt lat="46.42701" lon="6.19065">
        <ele>599.026785</ele>
        <time>2021-07-07T19:59:02.560Z</time>
      </trkpt>
      <trkpt lat="46.42692" lon="6.19055">
        <ele>598.985615</ele>
        <time>2021-07-07T19:59:06.864Z</time>
      </trkpt>
      <trkpt lat="46.42668" lon="6.19048">
        <ele>598.733854</ele>
        <time>2021-07-07T19:59:16.144Z</time>
      </trkpt>
      <trkpt lat="46.42617" lon="6.19054">
        <ele>597.85763</ele>
        <time>2021-07-07T19:59:35.187Z</time>
      </trkpt>
      <trkpt lat="46.42568" lon="6.19037">
        <ele>596.989995</ele>
        <time>2021-07-07T19:59:53.725Z</time>
      </trkpt>
      <trkpt lat="46.42486" lon="6.19039">
        <ele>595.407423</ele>
        <time>2021-07-07T20:00:23.620Z</time>
      </trkpt>
      <trkpt lat="46.4245" lon="6.19018">
        <ele>594.363344</ele>
        <time>2021-07-07T20:00:37.370Z</time>
      </trkpt>
      <trkpt lat="46.42434" lon="6.19013">
        <ele>593.912637</ele>
        <time>2021-07-07T20:00:43.314Z</time>
      </trkpt>
      <trkpt lat="46.4241" lon="6.19">
        <ele>593.215064</ele>
        <time>2021-07-07T20:00:52.521Z</time>
      </trkpt>
      <trkpt lat="46.42385" lon="6.19005">
        <ele>592.525313</ele>
        <time>2021-07-07T20:01:01.591Z</time>
      </trkpt>
      <trkpt lat="46.42363" lon="6.19031">
        <ele>591.762082</ele>
        <time>2021-07-07T20:01:11.704Z</time>
      </trkpt>
      <trkpt lat="46.42352" lon="6.19051">
        <ele>591.276541</ele>
        <time>2021-07-07T20:01:18.238Z</time>
      </trkpt>
      <trkpt lat="46.42346" lon="6.19054">
        <ele>591.109875</ele>
        <time>2021-07-07T20:01:20.460Z</time>
      </trkpt>
      <trkpt lat="46.42337" lon="6.19061">
        <ele>590.791711</ele>
        <time>2021-07-07T20:01:24.110Z</time>
      </trkpt>
      <trkpt lat="46.4231" lon="6.19061">
        <ele>589.835522</ele>
        <time>2021-07-07T20:01:33.782Z</time>
      </trkpt>
      <trkpt lat="46.42298" lon="6.19015">
        <ele>588.602012</ele>
        <time>2021-07-07T20:01:45.973Z</time>
      </trkpt>
      <trkpt lat="46.4228" lon="6.18986">
        <ele>587.634079</ele>
        <time>2021-07-07T20:01:55.536Z</time>
      </trkpt>
      <trkpt lat="46.42242" lon="6.18949">
        <ele>585.972951</ele>
        <time>2021-07-07T20:02:11.898Z</time>
      </trkpt>
      <trkpt lat="46.42225" lon="6.18948">
        <ele>585.352751</ele>
        <time>2021-07-07T20:02:17.803Z</time>
      </trkpt>
      <trkpt lat="46.42209" lon="6.18947">
        <ele>584.783911</ele>
        <time>2021-07-07T20:02:23.176Z</time>
      </trkpt>
      <trkpt lat="46.42201" lon="6.18955">
        <ele>584.440263</ele>
        <time>2021-07-07T20:02:26.420Z</time>
      </trkpt>
      <trkpt lat="46.42189" lon="6.1896">
        <ele>583.377159</ele>
        <time>2021-07-07T20:02:30.834Z</time>
      </trkpt>
      <trkpt lat="46.42181" lon="6.18969">
        <ele>582.569045</ele>
        <time>2021-07-07T20:02:34.092Z</time>
      </trkpt>
      <trkpt lat="46.42168" lon="6.1897">
        <ele>581.450006</ele>
        <time>2021-07-07T20:02:38.632Z</time>
      </trkpt>
      <trkpt lat="46.42136" lon="6.18995">
        <ele>578.439014</ele>
        <time>2021-07-07T20:02:50.400Z</time>
      </trkpt>
      <trkpt lat="46.42111" lon="6.18995">
        <ele>576.4033</ele>
        <time>2021-07-07T20:02:58.111Z</time>
      </trkpt>
      <trkpt lat="46.42096" lon="6.18997">
        <ele>575.13526</ele>
        <time>2021-07-07T20:03:02.992Z</time>
      </trkpt>
      <trkpt lat="46.4206" lon="6.19027">
        <ele>571.711591</ele>
        <time>2021-07-07T20:03:15.823Z</time>
      </trkpt>
      <trkpt lat="46.42053" lon="6.19034">
        <ele>570.985813</ele>
        <time>2021-07-07T20:03:18.484Z</time>
      </trkpt>
      <trkpt lat="46.42041" lon="6.19031">
        <ele>570.02196</ele>
        <time>2021-07-07T20:03:22.170Z</time>
      </trkpt>
      <trkpt lat="46.42021" lon="6.1904">
        <ele>568.170537</ele>
        <time>2021-07-07T20:03:28.563Z</time>
      </trkpt>
      <trkpt lat="46.42016" lon="6.1905">
        <ele>567.378691</ele>
        <time>2021-07-07T20:03:31.388Z</time>
      </trkpt>
      <trkpt lat="46.42007" lon="6.19066">
        <ele>566.155194</ele>
        <time>2021-07-07T20:03:35.677Z</time>
      </trkpt>
      <trkpt lat="46.41995" lon="6.19075">
        <ele>564.920718</ele>
        <time>2021-07-07T20:03:39.867Z</time>
      </trkpt>
      <trkpt lat="46.41993" lon="6.19066">
        <ele>564.334086</ele>
        <time>2021-07-07T20:03:41.980Z</time>
      </trkpt>
      <trkpt lat="46.41934" lon="6.19115">
        <ele>558.241814</ele>
        <time>2021-07-07T20:04:03.214Z</time>
      </trkpt>
      <trkpt lat="46.41949" lon="6.19161">
        <ele>555.13179</ele>
        <time>2021-07-07T20:04:12.709Z</time>
      </trkpt>
      <trkpt lat="46.41947" lon="6.19169">
        <ele>554.613114</ele>
        <time>2021-07-07T20:04:14.298Z</time>
      </trkpt>
      <trkpt lat="46.41838" lon="6.19259">
        <ele>546.931403</ele>
        <time>2021-07-07T20:04:50.443Z</time>
      </trkpt>
      <trkpt lat="46.418" lon="6.1929">
        <ele>544.457227</ele>
        <time>2021-07-07T20:05:03.120Z</time>
      </trkpt>
      <trkpt lat="46.41771" lon="6.19252">
        <ele>542.182531</ele>
        <time>2021-07-07T20:05:14.431Z</time>
      </trkpt>
      <trkpt lat="46.41768" lon="6.19254">
        <ele>541.966419</ele>
        <time>2021-07-07T20:05:15.509Z</time>
      </trkpt>
      <trkpt lat="46.41683" lon="6.19349">
        <ele>535.519322</ele>
        <time>2021-07-07T20:05:51.439Z</time>
      </trkpt>
      <trkpt lat="46.41678" lon="6.19351">
        <ele>535.151244</ele>
        <time>2021-07-07T20:05:53.337Z</time>
      </trkpt>
      <trkpt lat="46.41675" lon="6.19347">
        <ele>534.915043</ele>
        <time>2021-07-07T20:05:54.427Z</time>
      </trkpt>
      <trkpt lat="46.41627" lon="6.19412">
        <ele>530.859914</ele>
        <time>2021-07-07T20:06:13.151Z</time>
      </trkpt>
      <trkpt lat="46.41624" lon="6.19416">
        <ele>530.609909</ele>
        <time>2021-07-07T20:06:14.240Z</time>
      </trkpt>
      <trkpt lat="46.41621" lon="6.19418">
        <ele>530.45003</ele>
        <time>2021-07-07T20:06:14.863Z</time>
      </trkpt>
      <trkpt lat="46.41589" lon="6.19449">
        <ele>527.998659</ele>
        <time>2021-07-07T20:06:25.628Z</time>
      </trkpt>
      <trkpt lat="46.41587" lon="6.19451">
        <ele>527.814805</ele>
        <time>2021-07-07T20:06:26.414Z</time>
      </trkpt>
      <trkpt lat="46.41584" lon="6.19454">
        <ele>527.607823</ele>
        <time>2021-07-07T20:06:27.313Z</time>
      </trkpt>
      <trkpt lat="46.41563" lon="6.19473">
        <ele>525.997886</ele>
        <time>2021-07-07T20:06:34.518Z</time>
      </trkpt>
      <trkpt lat="46.41533" lon="6.19484">
        <ele>524.028142</ele>
        <time>2021-07-07T20:06:43.278Z</time>
      </trkpt>
      <trkpt lat="46.4152" lon="6.19493">
        <ele>523.139842</ele>
        <time>2021-07-07T20:06:47.066Z</time>
      </trkpt>
      <trkpt lat="46.41516" lon="6.19511">
        <ele>522.303102</ele>
        <time>2021-07-07T20:06:50.945Z</time>
      </trkpt>
      <trkpt lat="46.4151" lon="6.19532">
        <ele>521.308144</ele>
        <time>2021-07-07T20:06:55.305Z</time>
      </trkpt>
      <trkpt lat="46.41507" lon="6.19543">
        <ele>520.772958</ele>
        <time>2021-07-07T20:06:57.718Z</time>
      </trkpt>
      <trkpt lat="46.41453" lon="6.19645">
        <ele>517.541358</ele>
        <time>2021-07-07T20:07:24.068Z</time>
      </trkpt>
      <trkpt lat="46.41447" lon="6.19649">
        <ele>517.326873</ele>
        <time>2021-07-07T20:07:25.736Z</time>
      </trkpt>
      <trkpt lat="46.41445" lon="6.1966">
        <ele>517.026834</ele>
        <time>2021-07-07T20:07:28.168Z</time>
      </trkpt>
      <trkpt lat="46.41447" lon="6.19693">
        <ele>516.192102</ele>
        <time>2021-07-07T20:07:35.291Z</time>
      </trkpt>
      <trkpt lat="46.41447" lon="6.197">
        <ele>516.025536</ele>
        <time>2021-07-07T20:07:36.630Z</time>
      </trkpt>
      <trkpt lat="46.41451" lon="6.1977">
        <ele>514.266884</ele>
        <time>2021-07-07T20:07:51.700Z</time>
      </trkpt>
      <trkpt lat="46.41459" lon="6.19889">
        <ele>513.036303</ele>
        <time>2021-07-07T20:08:17.584Z</time>
      </trkpt>
      <trkpt lat="46.41466" lon="6.19943">
        <ele>512.477227</ele>
        <time>2021-07-07T20:08:29.663Z</time>
      </trkpt>
      <trkpt lat="46.41474" lon="6.19962">
        <ele>512.249756</ele>
        <time>2021-07-07T20:08:34.586Z</time>
      </trkpt>
      <trkpt lat="46.41475" lon="6.19973">
        <ele>512.138498</ele>
        <time>2021-07-07T20:08:36.961Z</time>
      </trkpt>
      <trkpt lat="46.41476" lon="6.19981">
        <ele>512.052937</ele>
        <time>2021-07-07T20:08:38.770Z</time>
      </trkpt>
      <trkpt lat="46.41473" lon="6.19988">
        <ele>511.979597</ele>
        <time>2021-07-07T20:08:40.368Z</time>
      </trkpt>
      <trkpt lat="46.41499" lon="6.20153">
        <ele>510.119171</ele>
        <time>2021-07-07T20:09:17.713Z</time>
      </trkpt>
      <trkpt lat="46.41496" lon="6.20158">
        <ele>510.044135</ele>
        <time>2021-07-07T20:09:19.145Z</time>
      </trkpt>
      <trkpt lat="46.41496" lon="6.20185">
        <ele>509.737989</ele>
        <time>2021-07-07T20:09:25.068Z</time>
      </trkpt>
      <trkpt lat="46.41496" lon="6.20199">
        <ele>509.583819</ele>
        <time>2021-07-07T20:09:28.057Z</time>
      </trkpt>
      <trkpt lat="46.41495" lon="6.20231">
        <ele>509.231926</ele>
        <time>2021-07-07T20:09:34.884Z</time>
      </trkpt>
      <trkpt lat="46.41496" lon="6.20264">
        <ele>508.8544</ele>
        <time>2021-07-07T20:09:42.158Z</time>
      </trkpt>
      <trkpt lat="46.41496" lon="6.20285">
        <ele>508.582626</ele>
        <time>2021-07-07T20:09:46.610Z</time>
      </trkpt>
      <trkpt lat="46.4149" lon="6.20289">
        <ele>508.365445</ele>
        <time>2021-07-07T20:09:48.741Z</time>
      </trkpt>
      <trkpt lat="46.41485" lon="6.20297">
        <ele>508.125538</ele>
        <time>2021-07-07T20:09:51.090Z</time>
      </trkpt>
      <trkpt lat="46.41452" lon="6.20357">
        <ele>506.428955</ele>
        <time>2021-07-07T20:10:07.231Z</time>
      </trkpt>
      <trkpt lat="46.41425" lon="6.20389">
        <ele>505.322432</ele>
        <time>2021-07-07T20:10:17.770Z</time>
      </trkpt>
      <trkpt lat="46.41444" lon="6.20428">
        <ele>504.259576</ele>
        <time>2021-07-07T20:10:27.813Z</time>
      </trkpt>
      <trkpt lat="46.41458" lon="6.20454">
        <ele>503.554014</ele>
        <time>2021-07-07T20:10:34.386Z</time>
      </trkpt>
      <trkpt lat="46.41459" lon="6.20462">
        <ele>503.373356</ele>
        <time>2021-07-07T20:10:36.079Z</time>
      </trkpt>
      <trkpt lat="46.41454" lon="6.20462">
        <ele>503.226063</ele>
        <time>2021-07-07T20:10:37.415Z</time>
      </trkpt>
      <trkpt lat="46.4145" lon="6.20464">
        <ele>503.087616</ele>
        <time>2021-07-07T20:10:38.691Z</time>
      </trkpt>
      <trkpt lat="46.41445" lon="6.20469">
        <ele>502.884845</ele>
        <time>2021-07-07T20:10:40.407Z</time>
      </trkpt>
      <trkpt lat="46.41434" lon="6.20489">
        <ele>502.064609</ele>
        <time>2021-07-07T20:10:45.867Z</time>
      </trkpt>
      <trkpt lat="46.41421" lon="6.2051">
        <ele>501.21093</ele>
        <time>2021-07-07T20:10:51.457Z</time>
      </trkpt>
      <trkpt lat="46.41427" lon="6.20518">
        <ele>500.841793</ele>
        <time>2021-07-07T20:10:54.004Z</time>
      </trkpt>
      <trkpt lat="46.41453" lon="6.2056">
        <ele>499.09494</ele>
        <time>2021-07-07T20:11:05.475Z</time>
      </trkpt>
      <trkpt lat="46.41457" lon="6.20571">
        <ele>498.703262</ele>
        <time>2021-07-07T20:11:08.073Z</time>
      </trkpt>
      <trkpt lat="46.41454" lon="6.20577">
        <ele>498.455724</ele>
        <time>2021-07-07T20:11:09.677Z</time>
      </trkpt>
      <trkpt lat="46.41444" lon="6.206">
        <ele>497.613779</ele>
        <time>2021-07-07T20:11:15.303Z</time>
      </trkpt>
      <trkpt lat="46.41439" lon="6.206">
        <ele>497.398508</ele>
        <time>2021-07-07T20:11:16.621Z</time>
      </trkpt>
      <trkpt lat="46.4142" lon="6.20636">
        <ele>495.97827</ele>
        <time>2021-07-07T20:11:26.038Z</time>
      </trkpt>
      <trkpt lat="46.41416" lon="6.20635">
        <ele>495.78804</ele>
        <time>2021-07-07T20:11:27.186Z</time>
      </trkpt>
      <trkpt lat="46.41416" lon="6.20643">
        <ele>495.558742</ele>
        <time>2021-07-07T20:11:28.723Z</time>
      </trkpt>
      <trkpt lat="46.41412" lon="6.20653">
        <ele>495.183743</ele>
        <time>2021-07-07T20:11:31.066Z</time>
      </trkpt>
      <trkpt lat="46.41416" lon="6.20657">
        <ele>494.963564</ele>
        <time>2021-07-07T20:11:32.522Z</time>
      </trkpt>
      <trkpt lat="46.41413" lon="6.20664">
        <ele>494.682608</ele>
        <time>2021-07-07T20:11:34.332Z</time>
      </trkpt>
      <trkpt lat="46.41412" lon="6.20668">
        <ele>494.562098</ele>
        <time>2021-07-07T20:11:35.100Z</time>
      </trkpt>
      <trkpt lat="46.41411" lon="6.20672">
        <ele>494.421893</ele>
        <time>2021-07-07T20:11:35.978Z</time>
      </trkpt>
      <trkpt lat="46.41408" lon="6.20674">
        <ele>494.234769</ele>
        <time>2021-07-07T20:11:37.060Z</time>
      </trkpt>
      <trkpt lat="46.41401" lon="6.20689">
        <ele>493.641252</ele>
        <time>2021-07-07T20:11:40.644Z</time>
      </trkpt>
      <trkpt lat="46.41373" lon="6.20745">
        <ele>491.348356</ele>
        <time>2021-07-07T20:11:54.735Z</time>
      </trkpt>
      <trkpt lat="46.41339" lon="6.20804">
        <ele>488.809485</ele>
        <time>2021-07-07T20:12:10.284Z</time>
      </trkpt>
      <trkpt lat="46.41329" lon="6.20815">
        <ele>488.203195</ele>
        <time>2021-07-07T20:12:13.946Z</time>
      </trkpt>
      <trkpt lat="46.41224" lon="6.20884">
        <ele>482.993682</ele>
        <time>2021-07-07T20:12:47.363Z</time>
      </trkpt>
      <trkpt lat="46.41221" lon="6.20886">
        <ele>482.845093</ele>
        <time>2021-07-07T20:12:48.262Z</time>
      </trkpt>
      <trkpt lat="46.41205" lon="6.20918">
        <ele>481.644696</ele>
        <time>2021-07-07T20:12:56.275Z</time>
      </trkpt>
      <trkpt lat="46.4119" lon="6.2095">
        <ele>480.464638</ele>
        <time>2021-07-07T20:13:04.248Z</time>
      </trkpt>
      <trkpt lat="46.41015" lon="6.21311">
        <ele>470.416396</ele>
        <time>2021-07-07T20:14:36.110Z</time>
      </trkpt>
      <trkpt lat="46.40842" lon="6.21666">
        <ele>464.797307</ele>
        <time>2021-07-07T20:16:10.288Z</time>
      </trkpt>
      <trkpt lat="46.40835" lon="6.21676">
        <ele>464.726249</ele>
        <time>2021-07-07T20:16:13.439Z</time>
      </trkpt>
      <trkpt lat="46.40828" lon="6.21667">
        <ele>464.6647</ele>
        <time>2021-07-07T20:16:16.239Z</time>
      </trkpt>
      <trkpt lat="46.40734" lon="6.21781">
        <ele>463.791978</ele>
        <time>2021-07-07T20:16:55.817Z</time>
      </trkpt>
      <trkpt lat="46.4061" lon="6.21932">
        <ele>463.359799</ele>
        <time>2021-07-07T20:17:48.664Z</time>
      </trkpt>
      <trkpt lat="46.4057" lon="6.21982">
        <ele>463.151892</ele>
        <time>2021-07-07T20:18:06.032Z</time>
      </trkpt>
      <trkpt lat="46.40541" lon="6.22017">
        <ele>462.756552</ele>
        <time>2021-07-07T20:18:18.226Z</time>
      </trkpt>
      <trkpt lat="46.40484" lon="6.22085">
        <ele>461.980488</ele>
        <time>2021-07-07T20:18:41.732Z</time>
      </trkpt>
      <trkpt lat="46.40429" lon="6.22155">
        <ele>460.823911</ele>
        <time>2021-07-07T20:19:04.650Z</time>
      </trkpt>
      <trkpt lat="46.40375" lon="6.2222">
        <ele>458.40396</ele>
        <time>2021-07-07T20:19:26.237Z</time>
      </trkpt>
      <trkpt lat="46.40326" lon="6.22276">
        <ele>456.280326</ele>
        <time>2021-07-07T20:19:44.639Z</time>
      </trkpt>
      <trkpt lat="46.40279" lon="6.22338">
        <ele>453.846265</ele>
        <time>2021-07-07T20:20:03.470Z</time>
      </trkpt>
      <trkpt lat="46.40216" lon="6.22368">
        <ele>451.089525</ele>
        <time>2021-07-07T20:20:22.894Z</time>
      </trkpt>
      <trkpt lat="46.40208" lon="6.22371">
        <ele>450.720327</ele>
        <time>2021-07-07T20:20:25.360Z</time>
      </trkpt>
      <trkpt lat="46.40198" lon="6.22358">
        <ele>450.18728</ele>
        <time>2021-07-07T20:20:29.165Z</time>
      </trkpt>
      <trkpt lat="46.40173" lon="6.22316">
        <ele>448.57859</ele>
        <time>2021-07-07T20:20:40.564Z</time>
      </trkpt>
      <trkpt lat="46.40167" lon="6.22305">
        <ele>448.161791</ele>
        <time>2021-07-07T20:20:43.598Z</time>
      </trkpt>
      <trkpt lat="46.40157" lon="6.22315">
        <ele>447.666608</ele>
        <time>2021-07-07T20:20:47.294Z</time>
      </trkpt>
      <trkpt lat="46.40149" lon="6.22324">
        <ele>447.465083</ele>
        <time>2021-07-07T20:20:50.197Z</time>
      </trkpt>
      <trkpt lat="46.40118" lon="6.22363">
        <ele>446.58525</ele>
        <time>2021-07-07T20:21:02.867Z</time>
      </trkpt>
      <trkpt lat="46.40075" lon="6.22415">
        <ele>445.395906</ele>
        <time>2021-07-07T20:21:20.327Z</time>
      </trkpt>
      <trkpt lat="46.40048" lon="6.22449">
        <ele>444.634409</ele>
        <time>2021-07-07T20:21:31.591Z</time>
      </trkpt>
      <trkpt lat="46.40035" lon="6.22463">
        <ele>444.296716</ele>
        <time>2021-07-07T20:21:36.531Z</time>
      </trkpt>
      <trkpt lat="46.40027" lon="6.22473">
        <ele>444.067527</ele>
        <time>2021-07-07T20:21:39.968Z</time>
      </trkpt>
      <trkpt lat="46.40015" lon="6.22488">
        <ele>443.808629</ele>
        <time>2021-07-07T20:21:45.006Z</time>
      </trkpt>
      <trkpt lat="46.40008" lon="6.22496">
        <ele>443.720197</ele>
        <time>2021-07-07T20:21:47.833Z</time>
      </trkpt>
      <trkpt lat="46.39918" lon="6.22602">
        <ele>442.578285</ele>
        <time>2021-07-07T20:22:25.266Z</time>
      </trkpt>
      <trkpt lat="46.39912" lon="6.22609">
        <ele>442.50155</ele>
        <time>2021-07-07T20:22:27.755Z</time>
      </trkpt>
      <trkpt lat="46.39908" lon="6.22616">
        <ele>442.438985</ele>
        <time>2021-07-07T20:22:29.846Z</time>
      </trkpt>
      <trkpt lat="46.39893" lon="6.22642">
        <ele>442.210389</ele>
        <time>2021-07-07T20:22:37.316Z</time>
      </trkpt>
      <trkpt lat="46.3984" lon="6.2278">
        <ele>439.451565</ele>
        <time>2021-07-07T20:23:11.106Z</time>
      </trkpt>
      <trkpt lat="46.39824" lon="6.22811">
        <ele>438.724847</ele>
        <time>2021-07-07T20:23:19.285Z</time>
      </trkpt>
      <trkpt lat="46.39817" lon="6.22821">
        <ele>438.466212</ele>
        <time>2021-07-07T20:23:22.173Z</time>
      </trkpt>
      <trkpt lat="46.39809" lon="6.22824">
        <ele>438.241674</ele>
        <time>2021-07-07T20:23:24.718Z</time>
      </trkpt>
      <trkpt lat="46.39776" lon="6.22864">
        <ele>436.96896</ele>
        <time>2021-07-07T20:23:37.737Z</time>
      </trkpt>
      <trkpt lat="46.3977" lon="6.2287">
        <ele>436.701606</ele>
        <time>2021-07-07T20:23:39.662Z</time>
      </trkpt>
      <trkpt lat="46.39765" lon="6.22874">
        <ele>436.435666</ele>
        <time>2021-07-07T20:23:41.312Z</time>
      </trkpt>
      <trkpt lat="46.39714" lon="6.22913">
        <ele>433.984414</ele>
        <time>2021-07-07T20:23:58.470Z</time>
      </trkpt>
      <trkpt lat="46.39681" lon="6.22957">
        <ele>432.083586</ele>
        <time>2021-07-07T20:24:11.716Z</time>
      </trkpt>
      <trkpt lat="46.39674" lon="6.22967">
        <ele>431.679216</ele>
        <time>2021-07-07T20:24:14.360Z</time>
      </trkpt>
      <trkpt lat="46.39665" lon="6.22976">
        <ele>431.221271</ele>
        <time>2021-07-07T20:24:17.634Z</time>
      </trkpt>
      <trkpt lat="46.39649" lon="6.23001">
        <ele>430.238345</ele>
        <time>2021-07-07T20:24:24.438Z</time>
      </trkpt>
      <trkpt lat="46.39644" lon="6.23013">
        <ele>429.814611</ele>
        <time>2021-07-07T20:24:27.413Z</time>
      </trkpt>
      <trkpt lat="46.39631" lon="6.23045">
        <ele>429.066137</ele>
        <time>2021-07-07T20:24:35.147Z</time>
      </trkpt>
      <trkpt lat="46.39628" lon="6.23054">
        <ele>428.868539</ele>
        <time>2021-07-07T20:24:37.331Z</time>
      </trkpt>
      <trkpt lat="46.39626" lon="6.23062">
        <ele>428.723938</ele>
        <time>2021-07-07T20:24:38.970Z</time>
      </trkpt>
      <trkpt lat="46.39624" lon="6.23071">
        <ele>428.555084</ele>
        <time>2021-07-07T20:24:40.934Z</time>
      </trkpt>
      <trkpt lat="46.39625" lon="6.23145">
        <ele>427.180601</ele>
        <time>2021-07-07T20:24:56.598Z</time>
      </trkpt>
      <trkpt lat="46.39626" lon="6.23153">
        <ele>427.019554</ele>
        <time>2021-07-07T20:24:58.388Z</time>
      </trkpt>
      <trkpt lat="46.39606" lon="6.23178">
        <ele>426.322956</ele>
        <time>2021-07-07T20:25:06.460Z</time>
      </trkpt>
      <trkpt lat="46.39571" lon="6.23227">
        <ele>425.000704</ele>
        <time>2021-07-07T20:25:24.643Z</time>
      </trkpt>
      <trkpt lat="46.39458" lon="6.23399">
        <ele>422.164761</ele>
        <time>2021-07-07T20:26:25.030Z</time>
      </trkpt>
      <trkpt lat="46.39434" lon="6.23439">
        <ele>421.64527</ele>
        <time>2021-07-07T20:26:38.631Z</time>
      </trkpt>
      <trkpt lat="46.39417" lon="6.23466">
        <ele>421.415121</ele>
        <time>2021-07-07T20:26:46.585Z</time>
      </trkpt>
      <trkpt lat="46.39411" lon="6.23482">
        <ele>421.301134</ele>
        <time>2021-07-07T20:26:50.540Z</time>
      </trkpt>
      <trkpt lat="46.39397" lon="6.23503">
        <ele>421.112501</ele>
        <time>2021-07-07T20:26:57.105Z</time>
      </trkpt>
      <trkpt lat="46.39383" lon="6.2352">
        <ele>420.946731</ele>
        <time>2021-07-07T20:27:02.890Z</time>
      </trkpt>
      <trkpt lat="46.39365" lon="6.23535">
        <ele>420.760065</ele>
        <time>2021-07-07T20:27:09.445Z</time>
      </trkpt>
      <trkpt lat="46.39358" lon="6.23539">
        <ele>420.690903</ele>
        <time>2021-07-07T20:27:11.919Z</time>
      </trkpt>
      <trkpt lat="46.39351" lon="6.23543">
        <ele>420.625496</ele>
        <time>2021-07-07T20:27:14.207Z</time>
      </trkpt>
      <trkpt lat="46.39336" lon="6.23565">
        <ele>420.42965</ele>
        <time>2021-07-07T20:27:21.175Z</time>
      </trkpt>
      <trkpt lat="46.39334" lon="6.23581">
        <ele>420.324344</ele>
        <time>2021-07-07T20:27:24.918Z</time>
      </trkpt>
      <trkpt lat="46.39339" lon="6.23594">
        <ele>420.22961</ele>
        <time>2021-07-07T20:27:28.348Z</time>
      </trkpt>
      <trkpt lat="46.3935" lon="6.23613">
        <ele>420.12917</ele>
        <time>2021-07-07T20:27:33.837Z</time>
      </trkpt>
      <trkpt lat="46.39331" lon="6.2364">
        <ele>420.156179</ele>
        <time>2021-07-07T20:27:51.414Z</time>
      </trkpt>
      <trkpt lat="46.39305" lon="6.23681">
        <ele>420.194991</ele>
        <time>2021-07-07T20:28:16.741Z</time>
      </trkpt>
      <trkpt lat="46.39303" lon="6.23683">
        <ele>420.197285</ele>
        <time>2021-07-07T20:28:18.267Z</time>
      </trkpt>
      <trkpt lat="46.393" lon="6.23684">
        <ele>420.200236</ele>
        <time>2021-07-07T20:28:20.157Z</time>
      </trkpt>
      <trkpt lat="46.39294" lon="6.23687">
        <ele>420.206251</ele>
        <time>2021-07-07T20:28:24.087Z</time>
      </trkpt>
      <trkpt lat="46.39289" lon="6.23691">
        <ele>420.212513</ele>
        <time>2021-07-07T20:28:28.077Z</time>
      </trkpt>
      <trkpt lat="46.39285" lon="6.23694">
        <ele>420.217007</ele>
        <time>2021-07-07T20:28:29.930Z</time>
      </trkpt>
      <trkpt lat="46.3929" lon="6.23708">
        <ele>420.228675</ele>
        <time>2021-07-07T20:28:34.441Z</time>
      </trkpt>
      <trkpt lat="46.39284" lon="6.23709">
        <ele>420.235003</ele>
        <time>2021-07-07T20:28:36.846Z</time>
      </trkpt>
      <trkpt lat="46.39272" lon="6.23694">
        <ele>420.25097</ele>
        <time>2021-07-07T20:28:43.080Z</time>
      </trkpt>
      <trkpt lat="46.39265" lon="6.23697">
        <ele>420.258492</ele>
        <time>2021-07-07T20:28:46.011Z</time>
      </trkpt>
      <trkpt lat="46.39182" lon="6.23807">
        <ele>419.209887</ele>
        <time>2021-07-07T20:29:29.257Z</time>
      </trkpt>
      <trkpt lat="46.39171" lon="6.23806">
        <ele>419.037868</ele>
        <time>2021-07-07T20:29:33.063Z</time>
      </trkpt>
      <trkpt lat="46.3917" lon="6.23815">
        <ele>418.924096</ele>
        <time>2021-07-07T20:29:35.602Z</time>
      </trkpt>
      <trkpt lat="46.39162" lon="6.23814">
        <ele>418.792788</ele>
        <time>2021-07-07T20:29:38.071Z</time>
      </trkpt>
      <trkpt lat="46.39154" lon="6.23813">
        <ele>418.671096</ele>
        <time>2021-07-07T20:29:40.369Z</time>
      </trkpt>
      <trkpt lat="46.39143" lon="6.23812">
        <ele>418.484796</ele>
        <time>2021-07-07T20:29:43.818Z</time>
      </trkpt>
      <trkpt lat="46.39102" lon="6.23806">
        <ele>417.800102</ele>
        <time>2021-07-07T20:29:56.559Z</time>
      </trkpt>
      <trkpt lat="46.39081" lon="6.23804">
        <ele>417.451296</ele>
        <time>2021-07-07T20:30:02.981Z</time>
      </trkpt>
      <trkpt lat="46.3907" lon="6.23805">
        <ele>417.188424</ele>
        <time>2021-07-07T20:30:06.287Z</time>
      </trkpt>
      <trkpt lat="46.39042" lon="6.23809">
        <ele>415.934873</ele>
        <time>2021-07-07T20:30:14.837Z</time>
      </trkpt>
      <trkpt lat="46.39026" lon="6.23814">
        <ele>415.247354</ele>
        <time>2021-07-07T20:30:19.582Z</time>
      </trkpt>
      <trkpt lat="46.39011" lon="6.23819">
        <ele>414.559519</ele>
        <time>2021-07-07T20:30:24.167Z</time>
      </trkpt>
      <trkpt lat="46.38989" lon="6.23829">
        <ele>413.532889</ele>
        <time>2021-07-07T20:30:31.204Z</time>
      </trkpt>
      <trkpt lat="46.38975" lon="6.23836">
        <ele>412.908019</ele>
        <time>2021-07-07T20:30:35.194Z</time>
      </trkpt>
      <trkpt lat="46.38973" lon="6.23853">
        <ele>412.398518</ele>
        <time>2021-07-07T20:30:38.809Z</time>
      </trkpt>
      <trkpt lat="46.38941" lon="6.23875">
        <ele>410.84075</ele>
        <time>2021-07-07T20:30:49.179Z</time>
      </trkpt>
      <trkpt lat="46.38942" lon="6.23879">
        <ele>410.706743</ele>
        <time>2021-07-07T20:30:50.127Z</time>
      </trkpt>
      <trkpt lat="46.38929" lon="6.23877">
        <ele>410.145488</ele>
        <time>2021-07-07T20:30:54.395Z</time>
      </trkpt>
      <trkpt lat="46.38894" lon="6.23885">
        <ele>408.660835</ele>
        <time>2021-07-07T20:31:06.481Z</time>
      </trkpt>
      <trkpt lat="46.38857" lon="6.23902">
        <ele>407.105155</ele>
        <time>2021-07-07T20:31:19.852Z</time>
      </trkpt>
      <trkpt lat="46.38853" lon="6.23904">
        <ele>406.932023</ele>
        <time>2021-07-07T20:31:21.161Z</time>
      </trkpt>
      <trkpt lat="46.38847" lon="6.23889">
        <ele>406.464478</ele>
        <time>2021-07-07T20:31:24.788Z</time>
      </trkpt>
      <trkpt lat="46.38845" lon="6.23882">
        <ele>406.267385</ele>
        <time>2021-07-07T20:31:26.317Z</time>
      </trkpt>
      <trkpt lat="46.3883" lon="6.23893">
        <ele>405.607882</ele>
        <time>2021-07-07T20:31:31.106Z</time>
      </trkpt>
      <trkpt lat="46.38818" lon="6.23904">
        <ele>405.030305</ele>
        <time>2021-07-07T20:31:35.483Z</time>
      </trkpt>
      <trkpt lat="46.38809" lon="6.23912">
        <ele>404.608982</ele>
        <time>2021-07-07T20:31:38.633Z</time>
      </trkpt>
      <trkpt lat="46.38799" lon="6.23923">
        <ele>404.106658</ele>
        <time>2021-07-07T20:31:42.273Z</time>
      </trkpt>
      <trkpt lat="46.38793" lon="6.23933">
        <ele>403.741555</ele>
        <time>2021-07-07T20:31:45.063Z</time>
      </trkpt>
      <trkpt lat="46.38776" lon="6.23963">
        <ele>402.658937</ele>
        <time>2021-07-07T20:31:53.345Z</time>
      </trkpt>
      <trkpt lat="46.38767" lon="6.23976">
        <ele>402.220867</ele>
        <time>2021-07-07T20:31:57.158Z</time>
      </trkpt>
      <trkpt lat="46.38762" lon="6.23971">
        <ele>402.116238</ele>
        <time>2021-07-07T20:31:59.092Z</time>
      </trkpt>
      <trkpt lat="46.3872" lon="6.23935">
        <ele>401.27026</ele>
        <time>2021-07-07T20:32:14.344Z</time>
      </trkpt>
      <trkpt lat="46.38704" lon="6.23925">
        <ele>400.981056</ele>
        <time>2021-07-07T20:32:19.687Z</time>
      </trkpt>
      <trkpt lat="46.38684" lon="6.23921">
        <ele>400.637382</ele>
        <time>2021-07-07T20:32:25.992Z</time>
      </trkpt>
      <trkpt lat="46.38657" lon="6.23926">
        <ele>400.170276</ele>
        <time>2021-07-07T20:32:34.674Z</time>
      </trkpt>
      <trkpt lat="46.38605" lon="6.23962">
        <ele>399.180643</ele>
        <time>2021-07-07T20:32:53.229Z</time>
      </trkpt>
      <trkpt lat="46.38595" lon="6.23981">
        <ele>398.559248</ele>
        <time>2021-07-07T20:32:58.433Z</time>
      </trkpt>
      <trkpt lat="46.38592" lon="6.23989">
        <ele>398.319026</ele>
        <time>2021-07-07T20:33:00.470Z</time>
      </trkpt>
      <trkpt lat="46.38574" lon="6.24004">
        <ele>397.565653</ele>
        <time>2021-07-07T20:33:06.843Z</time>
      </trkpt>
      <trkpt lat="46.38561" lon="6.23994">
        <ele>396.983963</ele>
        <time>2021-07-07T20:33:11.608Z</time>
      </trkpt>
      <trkpt lat="46.38554" lon="6.23987">
        <ele>396.676593</ele>
        <time>2021-07-07T20:33:14.147Z</time>
      </trkpt>
      <trkpt lat="46.3852" lon="6.24101">
        <ele>393.485765</ele>
        <time>2021-07-07T20:33:39.353Z</time>
      </trkpt>
      <trkpt lat="46.38517" lon="6.24113">
        <ele>393.15009</ele>
        <time>2021-07-07T20:33:41.924Z</time>
      </trkpt>
      <trkpt lat="46.38491" lon="6.24164">
        <ele>390.765896</ele>
        <time>2021-07-07T20:33:54.398Z</time>
      </trkpt>
      <trkpt lat="46.38467" lon="6.24216">
        <ele>387.897388</ele>
        <time>2021-07-07T20:34:06.436Z</time>
      </trkpt>
      <trkpt lat="46.38458" lon="6.24236">
        <ele>386.794481</ele>
        <time>2021-07-07T20:34:11.065Z</time>
      </trkpt>
      <trkpt lat="46.38453" lon="6.24235">
        <ele>386.480874</ele>
        <time>2021-07-07T20:34:12.403Z</time>
      </trkpt>
      <trkpt lat="46.38439" lon="6.24266">
        <ele>384.771855</ele>
        <time>2021-07-07T20:34:19.475Z</time>
      </trkpt>
      <trkpt lat="46.38401" lon="6.24313">
        <ele>381.422001</ele>
        <time>2021-07-07T20:34:33.529Z</time>
      </trkpt>
      <trkpt lat="46.38404" lon="6.24318">
        <ele>381.159638</ele>
        <time>2021-07-07T20:34:34.540Z</time>
      </trkpt>
      <trkpt lat="46.38393" lon="6.24333">
        <ele>380.265335</ele>
        <time>2021-07-07T20:34:38.743Z</time>
      </trkpt>
      <trkpt lat="46.38388" lon="6.24339">
        <ele>379.983136</ele>
        <time>2021-07-07T20:34:40.590Z</time>
      </trkpt>
      <trkpt lat="46.38369" lon="6.24368">
        <ele>378.80119</ele>
        <time>2021-07-07T20:34:48.384Z</time>
      </trkpt>
      <trkpt lat="46.38362" lon="6.24378">
        <ele>378.383148</ele>
        <time>2021-07-07T20:34:51.186Z</time>
      </trkpt>
      <trkpt lat="46.38345" lon="6.24402">
        <ele>377.346858</ele>
        <time>2021-07-07T20:34:58.175Z</time>
      </trkpt>
      <trkpt lat="46.38338" lon="6.24394">
        <ele>376.942109</ele>
        <time>2021-07-07T20:35:00.960Z</time>
      </trkpt>
      <trkpt lat="46.38311" lon="6.24437">
        <ele>375.197405</ele>
        <time>2021-07-07T20:35:13.009Z</time>
      </trkpt>
      <trkpt lat="46.383" lon="6.24421">
        <ele>374.533374</ele>
        <time>2021-07-07T20:35:17.552Z</time>
      </trkpt>
      <trkpt lat="46.38238" lon="6.24354">
        <ele>372.240467</ele>
        <time>2021-07-07T20:35:41.571Z</time>
      </trkpt>
      <trkpt lat="46.38234" lon="6.2435">
        <ele>372.178504</ele>
        <time>2021-07-07T20:35:43.139Z</time>
      </trkpt>
      <trkpt lat="46.38233" lon="6.24352">
        <ele>372.157867</ele>
        <time>2021-07-07T20:35:43.662Z</time>
      </trkpt>
      <trkpt lat="46.3823" lon="6.24357">
        <ele>372.102915</ele>
        <time>2021-07-07T20:35:45.020Z</time>
      </trkpt>
      <trkpt lat="46.38229" lon="6.24357">
        <ele>372.100056</ele>
        <time>2021-07-07T20:35:45.105Z</time>
      </trkpt>
      <trkpt lat="46.38204" lon="6.24395">
        <ele>371.641623</ele>
        <time>2021-07-07T20:35:56.738Z</time>
      </trkpt>
      <trkpt lat="46.38105" lon="6.24409">
        <ele>370.429093</ele>
        <time>2021-07-07T20:36:28.492Z</time>
      </trkpt>
      <trkpt lat="46.37905" lon="6.24412">
        <ele>370.045811</ele>
        <time>2021-07-07T20:37:33.711Z</time>
      </trkpt>
      <trkpt lat="46.37676" lon="6.24399">
        <ele>370.000006</ele>
        <time>2021-07-07T20:38:48.529Z</time>
      </trkpt>
      <trkpt lat="46.3111" lon="6.23547">
        <ele>370.000006</ele>
        <time>2021-07-07T21:14:41.951Z</time>
      </trkpt>
      <trkpt lat="46.30681" lon="6.23607">
        <ele>370.016337</ele>
        <time>2021-07-07T21:17:02.784Z</time>
      </trkpt>
      <trkpt lat="46.30422" lon="6.23729">
        <ele>370.217504</ele>
        <time>2021-07-07T21:18:32.073Z</time>
      </trkpt>
      <trkpt lat="46.30248" lon="6.23922">
        <ele>371.793877</ele>
        <time>2021-07-07T21:19:45.160Z</time>
      </trkpt>
      <trkpt lat="46.30152" lon="6.24116">
        <ele>375.52182</ele>
        <time>2021-07-07T21:20:43.748Z</time>
      </trkpt>
      <trkpt lat="46.30151" lon="6.24126">
        <ele>375.927352</ele>
        <time>2021-07-07T21:20:46.356Z</time>
      </trkpt>
      <trkpt lat="46.3015" lon="6.24129">
        <ele>376.046426</ele>
        <time>2021-07-07T21:20:47.098Z</time>
      </trkpt>
      <trkpt lat="46.30155" lon="6.24139">
        <ele>376.522535</ele>
        <time>2021-07-07T21:20:50.091Z</time>
      </trkpt>
      <trkpt lat="46.30172" lon="6.24176">
        <ele>378.271021</ele>
        <time>2021-07-07T21:21:01.635Z</time>
      </trkpt>
      <trkpt lat="46.30177" lon="6.24179">
        <ele>378.604306</ele>
        <time>2021-07-07T21:21:03.762Z</time>
      </trkpt>
      <trkpt lat="46.30186" lon="6.24185">
        <ele>379.129007</ele>
        <time>2021-07-07T21:21:07.126Z</time>
      </trkpt>
      <trkpt lat="46.30184" lon="6.24188">
        <ele>379.295623</ele>
        <time>2021-07-07T21:21:09.032Z</time>
      </trkpt>
      <trkpt lat="46.30167" lon="6.24256">
        <ele>382.134186</ele>
        <time>2021-07-07T21:21:31.706Z</time>
      </trkpt>
      <trkpt lat="46.3013" lon="6.24376">
        <ele>388.034478</ele>
        <time>2021-07-07T21:22:14.120Z</time>
      </trkpt>
      <trkpt lat="46.30126" lon="6.24385">
        <ele>388.550181</ele>
        <time>2021-07-07T21:22:18.723Z</time>
      </trkpt>
      <trkpt lat="46.30123" lon="6.24393">
        <ele>388.979935</ele>
        <time>2021-07-07T21:22:22.237Z</time>
      </trkpt>
      <trkpt lat="46.30103" lon="6.24471">
        <ele>393.176086</ele>
        <time>2021-07-07T21:22:47.744Z</time>
      </trkpt>
      <trkpt lat="46.30084" lon="6.24482">
        <ele>394.614287</ele>
        <time>2021-07-07T21:22:57.554Z</time>
      </trkpt>
      <trkpt lat="46.30073" lon="6.24491">
        <ele>395.561621</ele>
        <time>2021-07-07T21:23:02.121Z</time>
      </trkpt>
      <trkpt lat="46.3007" lon="6.24495">
        <ele>395.84446</ele>
        <time>2021-07-07T21:23:03.978Z</time>
      </trkpt>
      <trkpt lat="46.30069" lon="6.24496">
        <ele>395.915845</ele>
        <time>2021-07-07T21:23:04.480Z</time>
      </trkpt>
      <trkpt lat="46.30065" lon="6.24503">
        <ele>396.394599</ele>
        <time>2021-07-07T21:23:08.321Z</time>
      </trkpt>
      <trkpt lat="46.30035" lon="6.24577">
        <ele>398.369495</ele>
        <time>2021-07-07T21:23:31.822Z</time>
      </trkpt>
      <trkpt lat="46.30025" lon="6.24587">
        <ele>398.532284</ele>
        <time>2021-07-07T21:23:36.769Z</time>
      </trkpt>
      <trkpt lat="46.30012" lon="6.24596">
        <ele>398.733548</ele>
        <time>2021-07-07T21:23:41.752Z</time>
      </trkpt>
      <trkpt lat="46.3" lon="6.24606">
        <ele>398.925595</ele>
        <time>2021-07-07T21:23:46.622Z</time>
      </trkpt>
      <trkpt lat="46.29995" lon="6.2461">
        <ele>399.000254</ele>
        <time>2021-07-07T21:23:48.734Z</time>
      </trkpt>
      <trkpt lat="46.2999" lon="6.24622">
        <ele>399.136425</ele>
        <time>2021-07-07T21:23:52.097Z</time>
      </trkpt>
      <trkpt lat="46.2998" lon="6.24642">
        <ele>399.361007</ele>
        <time>2021-07-07T21:23:58.218Z</time>
      </trkpt>
      <trkpt lat="46.29939" lon="6.24752">
        <ele>400.125054</ele>
        <time>2021-07-07T21:24:30.772Z</time>
      </trkpt>
      <trkpt lat="46.2991" lon="6.24791">
        <ele>399.82832</ele>
        <time>2021-07-07T21:24:45.274Z</time>
      </trkpt>
      <trkpt lat="46.29869" lon="6.24811">
        <ele>399.507118</ele>
        <time>2021-07-07T21:25:01.374Z</time>
      </trkpt>
      <trkpt lat="46.29831" lon="6.24825">
        <ele>399.220441</ele>
        <time>2021-07-07T21:25:16.120Z</time>
      </trkpt>
      <trkpt lat="46.29831" lon="6.24815">
        <ele>399.169719</ele>
        <time>2021-07-07T21:25:18.551Z</time>
      </trkpt>
      <trkpt lat="46.29825" lon="6.24801">
        <ele>399.083527</ele>
        <time>2021-07-07T21:25:23.336Z</time>
      </trkpt>
      <trkpt lat="46.29812" lon="6.24793">
        <ele>398.982364</ele>
        <time>2021-07-07T21:25:28.755Z</time>
      </trkpt>
      <trkpt lat="46.29802" lon="6.24785">
        <ele>398.973713</ele>
        <time>2021-07-07T21:25:33.127Z</time>
      </trkpt>
      <trkpt lat="46.29786" lon="6.2479">
        <ele>399.120894</ele>
        <time>2021-07-07T21:25:39.946Z</time>
      </trkpt>
      <trkpt lat="46.29772" lon="6.24819">
        <ele>399.350425</ele>
        <time>2021-07-07T21:25:49.430Z</time>
      </trkpt>
      <trkpt lat="46.29769" lon="6.24825">
        <ele>399.395414</ele>
        <time>2021-07-07T21:25:51.652Z</time>
      </trkpt>
      <trkpt lat="46.29767" lon="6.2483">
        <ele>399.431566</ele>
        <time>2021-07-07T21:25:53.439Z</time>
      </trkpt>
      <trkpt lat="46.29745" lon="6.24879">
        <ele>399.803914</ele>
        <time>2021-07-07T21:26:09.607Z</time>
      </trkpt>
      <trkpt lat="46.29727" lon="6.24848">
        <ele>400.063521</ele>
        <time>2021-07-07T21:26:20.732Z</time>
      </trkpt>
      <trkpt lat="46.29721" lon="6.24818">
        <ele>400.260552</ele>
        <time>2021-07-07T21:26:29.251Z</time>
      </trkpt>
      <trkpt lat="46.29712" lon="6.248">
        <ele>400.404895</ele>
        <time>2021-07-07T21:26:35.908Z</time>
      </trkpt>
      <trkpt lat="46.29695" lon="6.24796">
        <ele>400.559513</ele>
        <time>2021-07-07T21:26:42.679Z</time>
      </trkpt>
      <trkpt lat="46.29679" lon="6.24815">
        <ele>400.721914</ele>
        <time>2021-07-07T21:26:51.134Z</time>
      </trkpt>
      <trkpt lat="46.29651" lon="6.24814">
        <ele>400.946882</ele>
        <time>2021-07-07T21:27:02.473Z</time>
      </trkpt>
      <trkpt lat="46.29644" lon="6.24824">
        <ele>401.019233</ele>
        <time>2021-07-07T21:27:06.106Z</time>
      </trkpt>
      <trkpt lat="46.29639" lon="6.249">
        <ele>401.435323</ele>
        <time>2021-07-07T21:27:26.935Z</time>
      </trkpt>
      <trkpt lat="46.29632" lon="6.24923">
        <ele>401.571237</ele>
        <time>2021-07-07T21:27:33.761Z</time>
      </trkpt>
      <trkpt lat="46.29634" lon="6.24943">
        <ele>401.679708</ele>
        <time>2021-07-07T21:27:39.189Z</time>
      </trkpt>
      <trkpt lat="46.29613" lon="6.24967">
        <ele>401.892793</ele>
        <time>2021-07-07T21:27:49.929Z</time>
      </trkpt>
      <trkpt lat="46.29568" lon="6.24945">
        <ele>402.250887</ele>
        <time>2021-07-07T21:28:08.626Z</time>
      </trkpt>
      <trkpt lat="46.29537" lon="6.2492">
        <ele>402.513677</ele>
        <time>2021-07-07T21:28:22.636Z</time>
      </trkpt>
      <trkpt lat="46.29514" lon="6.24859">
        <ele>402.873444</ele>
        <time>2021-07-07T21:28:41.899Z</time>
      </trkpt>
      <trkpt lat="46.29485" lon="6.24838">
        <ele>403.114051</ele>
        <time>2021-07-07T21:28:54.719Z</time>
      </trkpt>
      <trkpt lat="46.29395" lon="6.2485">
        <ele>403.439676</ele>
        <time>2021-07-07T21:29:30.068Z</time>
      </trkpt>
      <trkpt lat="46.29375" lon="6.24873">
        <ele>403.484282</ele>
        <time>2021-07-07T21:29:40.016Z</time>
      </trkpt>
      <trkpt lat="46.29354" lon="6.24886">
        <ele>403.522986</ele>
        <time>2021-07-07T21:29:48.662Z</time>
      </trkpt>
      <trkpt lat="46.29333" lon="6.24918">
        <ele>403.57587</ele>
        <time>2021-07-07T21:30:00.619Z</time>
      </trkpt>
      <trkpt lat="46.29332" lon="6.24922">
        <ele>403.580246</ele>
        <time>2021-07-07T21:30:01.535Z</time>
      </trkpt>
      <trkpt lat="46.29326" lon="6.24921">
        <ele>403.591705</ele>
        <time>2021-07-07T21:30:03.977Z</time>
      </trkpt>
      <trkpt lat="46.29312" lon="6.24925">
        <ele>403.615989</ele>
        <time>2021-07-07T21:30:09.466Z</time>
      </trkpt>
      <trkpt lat="46.293" lon="6.24961">
        <ele>403.663192</ele>
        <time>2021-07-07T21:30:19.928Z</time>
      </trkpt>
      <trkpt lat="46.29283" lon="6.24994">
        <ele>403.712521</ele>
        <time>2021-07-07T21:30:30.882Z</time>
      </trkpt>
      <trkpt lat="46.29232" lon="6.24992">
        <ele>403.799167</ele>
        <time>2021-07-07T21:30:50.122Z</time>
      </trkpt>
      <trkpt lat="46.29223" lon="6.24999">
        <ele>403.817473</ele>
        <time>2021-07-07T21:30:54.325Z</time>
      </trkpt>
      <trkpt lat="46.29214" lon="6.25004">
        <ele>403.833367</ele>
        <time>2021-07-07T21:30:57.768Z</time>
      </trkpt>
      <trkpt lat="46.29182" lon="6.25018">
        <ele>403.890557</ele>
        <time>2021-07-07T21:31:10.709Z</time>
      </trkpt>
      <trkpt lat="46.29169" lon="6.25039">
        <ele>403.924401</ele>
        <time>2021-07-07T21:31:18.400Z</time>
      </trkpt>
      <trkpt lat="46.29173" lon="6.25052">
        <ele>403.940959</ele>
        <time>2021-07-07T21:31:22.286Z</time>
      </trkpt>
      <trkpt lat="46.29171" lon="6.25125">
        <ele>404.620672</ele>
        <time>2021-07-07T21:31:42.420Z</time>
      </trkpt>
      <trkpt lat="46.29163" lon="6.25156">
        <ele>404.977711</ele>
        <time>2021-07-07T21:31:51.677Z</time>
      </trkpt>
      <trkpt lat="46.29167" lon="6.25187">
        <ele>405.318031</ele>
        <time>2021-07-07T21:32:00.397Z</time>
      </trkpt>
      <trkpt lat="46.29134" lon="6.25223">
        <ele>405.978653</ele>
        <time>2021-07-07T21:32:17.623Z</time>
      </trkpt>
      <trkpt lat="46.29114" lon="6.25235">
        <ele>406.307954</ele>
        <time>2021-07-07T21:32:26.251Z</time>
      </trkpt>
      <trkpt lat="46.29072" lon="6.25228">
        <ele>407.167599</ele>
        <time>2021-07-07T21:32:44.421Z</time>
      </trkpt>
      <trkpt lat="46.29063" lon="6.25244">
        <ele>407.593588</ele>
        <time>2021-07-07T21:32:50.330Z</time>
      </trkpt>
      <trkpt lat="46.29046" lon="6.25261">
        <ele>408.228948</ele>
        <time>2021-07-07T21:32:59.282Z</time>
      </trkpt>
      <trkpt lat="46.2901" lon="6.25239">
        <ele>409.431995</ele>
        <time>2021-07-07T21:33:16.510Z</time>
      </trkpt>
      <trkpt lat="46.29004" lon="6.25214">
        <ele>409.983824</ele>
        <time>2021-07-07T21:33:24.829Z</time>
      </trkpt>
      <trkpt lat="46.28984" lon="6.25186">
        <ele>410.82169</ele>
        <time>2021-07-07T21:33:36.751Z</time>
      </trkpt>
      <trkpt lat="46.28978" lon="6.25182">
        <ele>411.019157</ele>
        <time>2021-07-07T21:33:39.817Z</time>
      </trkpt>
      <trkpt lat="46.28976" lon="6.25179">
        <ele>411.115101</ele>
        <time>2021-07-07T21:33:41.117Z</time>
      </trkpt>
      <trkpt lat="46.28971" lon="6.25153">
        <ele>411.670442</ele>
        <time>2021-07-07T21:33:48.808Z</time>
      </trkpt>
      <trkpt lat="46.28974" lon="6.25139">
        <ele>411.975444</ele>
        <time>2021-07-07T21:33:53.488Z</time>
      </trkpt>
      <trkpt lat="46.2898" lon="6.25135">
        <ele>412.181121</ele>
        <time>2021-07-07T21:33:56.498Z</time>
      </trkpt>
      <trkpt lat="46.28981" lon="6.25131">
        <ele>412.26663</ele>
        <time>2021-07-07T21:33:57.669Z</time>
      </trkpt>
      <trkpt lat="46.28978" lon="6.25133">
        <ele>412.336926</ele>
        <time>2021-07-07T21:33:58.772Z</time>
      </trkpt>
      <trkpt lat="46.28968" lon="6.25132">
        <ele>412.592228</ele>
        <time>2021-07-07T21:34:02.494Z</time>
      </trkpt>
      <trkpt lat="46.28964" lon="6.25131">
        <ele>412.678107</ele>
        <time>2021-07-07T21:34:03.807Z</time>
      </trkpt>
      <trkpt lat="46.2896" lon="6.25129">
        <ele>412.787896</ele>
        <time>2021-07-07T21:34:06.066Z</time>
      </trkpt>
      <trkpt lat="46.28908" lon="6.25075">
        <ele>414.316917</ele>
        <time>2021-07-07T21:34:33.527Z</time>
      </trkpt>
      <trkpt lat="46.28866" lon="6.25042">
        <ele>415.468955</ele>
        <time>2021-07-07T21:34:53.786Z</time>
      </trkpt>
      <trkpt lat="46.28854" lon="6.25022">
        <ele>415.918062</ele>
        <time>2021-07-07T21:35:01.467Z</time>
      </trkpt>
      <trkpt lat="46.28847" lon="6.24992">
        <ele>416.433987</ele>
        <time>2021-07-07T21:35:10.218Z</time>
      </trkpt>
      <trkpt lat="46.28845" lon="6.24978">
        <ele>416.609275</ele>
        <time>2021-07-07T21:35:14.604Z</time>
      </trkpt>
      <trkpt lat="46.28841" lon="6.24966">
        <ele>416.648776</ele>
        <time>2021-07-07T21:35:18.134Z</time>
      </trkpt>
      <trkpt lat="46.28821" lon="6.24929">
        <ele>416.79164</ele>
        <time>2021-07-07T21:35:30.974Z</time>
      </trkpt>
      <trkpt lat="46.28814" lon="6.24914">
        <ele>416.844598</ele>
        <time>2021-07-07T21:35:35.630Z</time>
      </trkpt>
      <trkpt lat="46.28812" lon="6.24908">
        <ele>416.866585</ele>
        <time>2021-07-07T21:35:37.508Z</time>
      </trkpt>
      <trkpt lat="46.28775" lon="6.24853">
        <ele>417.098736</ele>
        <time>2021-07-07T21:35:58.322Z</time>
      </trkpt>
      <trkpt lat="46.28757" lon="6.24847">
        <ele>417.18027</ele>
        <time>2021-07-07T21:36:05.405Z</time>
      </trkpt>
      <trkpt lat="46.28734" lon="6.24847">
        <ele>417.278106</ele>
        <time>2021-07-07T21:36:14.136Z</time>
      </trkpt>
      <trkpt lat="46.28732" lon="6.24847">
        <ele>417.28864</ele>
        <time>2021-07-07T21:36:15.027Z</time>
      </trkpt>
      <trkpt lat="46.28707" lon="6.24838">
        <ele>417.385904</ele>
        <time>2021-07-07T21:36:24.797Z</time>
      </trkpt>
      <trkpt lat="46.28693" lon="6.24825">
        <ele>417.404146</ele>
        <time>2021-07-07T21:36:31.383Z</time>
      </trkpt>
      <trkpt lat="46.28686" lon="6.24819">
        <ele>417.412043</ele>
        <time>2021-07-07T21:36:34.177Z</time>
      </trkpt>
      <trkpt lat="46.28673" lon="6.24818">
        <ele>417.426074</ele>
        <time>2021-07-07T21:36:39.270Z</time>
      </trkpt>
      <trkpt lat="46.2867" lon="6.2481">
        <ele>417.433031</ele>
        <time>2021-07-07T21:36:41.812Z</time>
      </trkpt>
      <trkpt lat="46.28627" lon="6.24724">
        <ele>417.511033</ele>
        <time>2021-07-07T21:37:10.114Z</time>
      </trkpt>
      <trkpt lat="46.28628" lon="6.24717">
        <ele>417.516099</ele>
        <time>2021-07-07T21:37:11.954Z</time>
      </trkpt>
      <trkpt lat="46.28616" lon="6.24692">
        <ele>417.538657</ele>
        <time>2021-07-07T21:37:20.228Z</time>
      </trkpt>
      <trkpt lat="46.28572" lon="6.24685">
        <ele>417.687086</ele>
        <time>2021-07-07T21:37:37.850Z</time>
      </trkpt>
      <trkpt lat="46.28545" lon="6.24642">
        <ele>418.028165</ele>
        <time>2021-07-07T21:37:53.741Z</time>
      </trkpt>
      <trkpt lat="46.28533" lon="6.24605">
        <ele>418.265849</ele>
        <time>2021-07-07T21:38:04.843Z</time>
      </trkpt>
      <trkpt lat="46.28525" lon="6.24486">
        <ele>418.963057</ele>
        <time>2021-07-07T21:38:37.974Z</time>
      </trkpt>
      <trkpt lat="46.28536" lon="6.24467">
        <ele>419.114904</ele>
        <time>2021-07-07T21:38:44.909Z</time>
      </trkpt>
      <trkpt lat="46.28532" lon="6.24456">
        <ele>419.200818</ele>
        <time>2021-07-07T21:38:48.280Z</time>
      </trkpt>
      <trkpt lat="46.28534" lon="6.24387">
        <ele>419.680606</ele>
        <time>2021-07-07T21:39:07.953Z</time>
      </trkpt>
      <trkpt lat="46.28549" lon="6.2436">
        <ele>419.916284</ele>
        <time>2021-07-07T21:39:17.225Z</time>
      </trkpt>
      <trkpt lat="46.28551" lon="6.24354">
        <ele>419.967331</ele>
        <time>2021-07-07T21:39:19.608Z</time>
      </trkpt>
      <trkpt lat="46.28581" lon="6.2434">
        <ele>420.279529</ele>
        <time>2021-07-07T21:39:30.001Z</time>
      </trkpt>
      <trkpt lat="46.2858" lon="6.24335">
        <ele>420.319071</ele>
        <time>2021-07-07T21:39:31.872Z</time>
      </trkpt>
      <trkpt lat="46.28571" lon="6.24324">
        <ele>420.429245</ele>
        <time>2021-07-07T21:39:36.218Z</time>
      </trkpt>
      <trkpt lat="46.28558" lon="6.24272">
        <ele>420.812436</ele>
        <time>2021-07-07T21:39:51.411Z</time>
      </trkpt>
      <trkpt lat="46.28539" lon="6.24236">
        <ele>420.908494</ele>
        <time>2021-07-07T21:40:03.714Z</time>
      </trkpt>
      <trkpt lat="46.28538" lon="6.24231">
        <ele>420.911527</ele>
        <time>2021-07-07T21:40:05.322Z</time>
      </trkpt>
      <trkpt lat="46.28533" lon="6.24233">
        <ele>420.915584</ele>
        <time>2021-07-07T21:40:07.325Z</time>
      </trkpt>
      <trkpt lat="46.28523" lon="6.24218">
        <ele>420.926011</ele>
        <time>2021-07-07T21:40:12.626Z</time>
      </trkpt>
      <trkpt lat="46.28516" lon="6.24191">
        <ele>420.941155</ele>
        <time>2021-07-07T21:40:20.585Z</time>
      </trkpt>
      <trkpt lat="46.28523" lon="6.24165">
        <ele>420.955458</ele>
        <time>2021-07-07T21:40:27.844Z</time>
      </trkpt>
      <trkpt lat="46.28498" lon="6.24139">
        <ele>420.979038</ele>
        <time>2021-07-07T21:40:39.753Z</time>
      </trkpt>
      <trkpt lat="46.28477" lon="6.24126">
        <ele>420.996591</ele>
        <time>2021-07-07T21:40:48.592Z</time>
      </trkpt>
      <trkpt lat="46.28433" lon="6.2416">
        <ele>421.024361</ele>
        <time>2021-07-07T21:41:07.385Z</time>
      </trkpt>
      <trkpt lat="46.28403" lon="6.24173">
        <ele>421.014485</ele>
        <time>2021-07-07T21:41:19.346Z</time>
      </trkpt>
      <trkpt lat="46.2839" lon="6.24161">
        <ele>421.009577</ele>
        <time>2021-07-07T21:41:25.314Z</time>
      </trkpt>
      <trkpt lat="46.28355" lon="6.24087">
        <ele>420.989932</ele>
        <time>2021-07-07T21:41:49.189Z</time>
      </trkpt>
      <trkpt lat="46.28354" lon="6.24085">
        <ele>420.989411</ele>
        <time>2021-07-07T21:41:49.874Z</time>
      </trkpt>
      <trkpt lat="46.28347" lon="6.24078">
        <ele>420.986637</ele>
        <time>2021-07-07T21:41:52.792Z</time>
      </trkpt>
      <trkpt lat="46.28328" lon="6.2407">
        <ele>420.980598</ele>
        <time>2021-07-07T21:41:59.016Z</time>
      </trkpt>
      <trkpt lat="46.28314" lon="6.24055">
        <ele>420.974999</ele>
        <time>2021-07-07T21:42:04.911Z</time>
      </trkpt>
      <trkpt lat="46.28294" lon="6.24023">
        <ele>421.006261</ele>
        <time>2021-07-07T21:42:14.694Z</time>
      </trkpt>
      <trkpt lat="46.28274" lon="6.23974">
        <ele>421.09846</ele>
        <time>2021-07-07T21:42:27.593Z</time>
      </trkpt>
      <trkpt lat="46.28259" lon="6.23966">
        <ele>421.137964</ele>
        <time>2021-07-07T21:42:33.070Z</time>
      </trkpt>
      <trkpt lat="46.28251" lon="6.23969">
        <ele>421.157065</ele>
        <time>2021-07-07T21:42:35.700Z</time>
      </trkpt>
      <trkpt lat="46.28237" lon="6.23974">
        <ele>421.190814</ele>
        <time>2021-07-07T21:42:40.499Z</time>
      </trkpt>
      <trkpt lat="46.28212" lon="6.23982">
        <ele>421.25124</ele>
        <time>2021-07-07T21:42:48.884Z</time>
      </trkpt>
      <trkpt lat="46.28204" lon="6.23973">
        <ele>421.274379</ele>
        <time>2021-07-07T21:42:52.128Z</time>
      </trkpt>
      <trkpt lat="46.28184" lon="6.23913">
        <ele>421.383234</ele>
        <time>2021-07-07T21:43:07.294Z</time>
      </trkpt>
      <trkpt lat="46.28222" lon="6.23815">
        <ele>421.403512</ele>
        <time>2021-07-07T21:43:32.721Z</time>
      </trkpt>
      <trkpt lat="46.2822" lon="6.23803">
        <ele>421.404366</ele>
        <time>2021-07-07T21:43:35.464Z</time>
      </trkpt>
      <trkpt lat="46.2821" lon="6.23788">
        <ele>421.405897</ele>
        <time>2021-07-07T21:43:40.320Z</time>
      </trkpt>
      <trkpt lat="46.28194" lon="6.23779">
        <ele>421.407602</ele>
        <time>2021-07-07T21:43:45.676Z</time>
      </trkpt>
      <trkpt lat="46.28171" lon="6.23779">
        <ele>421.410029</ele>
        <time>2021-07-07T21:43:53.338Z</time>
      </trkpt>
      <trkpt lat="46.28167" lon="6.23815">
        <ele>421.412623</ele>
        <time>2021-07-07T21:44:01.546Z</time>
      </trkpt>
      <trkpt lat="46.28159" lon="6.23829">
        <ele>421.413899</ele>
        <time>2021-07-07T21:44:05.527Z</time>
      </trkpt>
      <trkpt lat="46.28138" lon="6.23819">
        <ele>421.43531</ele>
        <time>2021-07-07T21:44:12.798Z</time>
      </trkpt>
      <trkpt lat="46.28118" lon="6.23828">
        <ele>421.464783</ele>
        <time>2021-07-07T21:44:19.747Z</time>
      </trkpt>
      <trkpt lat="46.28107" lon="6.2381">
        <ele>421.487875</ele>
        <time>2021-07-07T21:44:25.179Z</time>
      </trkpt>
      <trkpt lat="46.2808" lon="6.23797">
        <ele>421.52731</ele>
        <time>2021-07-07T21:44:34.486Z</time>
      </trkpt>
      <trkpt lat="46.28073" lon="6.23802">
        <ele>421.53808</ele>
        <time>2021-07-07T21:44:37.012Z</time>
      </trkpt>
      <trkpt lat="46.28069" lon="6.23828">
        <ele>421.563585</ele>
        <time>2021-07-07T21:44:43.108Z</time>
      </trkpt>
      <trkpt lat="46.28065" lon="6.23831">
        <ele>421.57026</ele>
        <time>2021-07-07T21:44:44.689Z</time>
      </trkpt>
      <trkpt lat="46.28051" lon="6.23812">
        <ele>421.596837</ele>
        <time>2021-07-07T21:44:50.941Z</time>
      </trkpt>
      <trkpt lat="46.28028" lon="6.23851">
        <ele>421.645801</ele>
        <time>2021-07-07T21:45:02.609Z</time>
      </trkpt>
      <trkpt lat="46.28024" lon="6.23858">
        <ele>421.654676</ele>
        <time>2021-07-07T21:45:04.826Z</time>
      </trkpt>
      <trkpt lat="46.28002" lon="6.23839">
        <ele>421.771888</ele>
        <time>2021-07-07T21:45:13.099Z</time>
      </trkpt>
      <trkpt lat="46.2799" lon="6.23846">
        <ele>421.853547</ele>
        <time>2021-07-07T21:45:17.731Z</time>
      </trkpt>
      <trkpt lat="46.27978" lon="6.23873">
        <ele>421.983718</ele>
        <time>2021-07-07T21:45:24.918Z</time>
      </trkpt>
      <trkpt lat="46.27967" lon="6.23881">
        <ele>422.057237</ele>
        <time>2021-07-07T21:45:29.110Z</time>
      </trkpt>
      <trkpt lat="46.27962" lon="6.23866">
        <ele>422.123759</ele>
        <time>2021-07-07T21:45:32.812Z</time>
      </trkpt>
      <trkpt lat="46.27946" lon="6.23888">
        <ele>422.253922</ele>
        <time>2021-07-07T21:45:40.126Z</time>
      </trkpt>
      <trkpt lat="46.27925" lon="6.23847">
        <ele>422.465761</ele>
        <time>2021-07-07T21:45:52.077Z</time>
      </trkpt>
      <trkpt lat="46.27916" lon="6.2384">
        <ele>422.529414</ele>
        <time>2021-07-07T21:45:55.681Z</time>
      </trkpt>
      <trkpt lat="46.27892" lon="6.23836">
        <ele>422.674998</ele>
        <time>2021-07-07T21:46:03.799Z</time>
      </trkpt>
      <trkpt lat="46.27884" lon="6.23853">
        <ele>422.735689</ele>
        <time>2021-07-07T21:46:08.511Z</time>
      </trkpt>
      <trkpt lat="46.27813" lon="6.23822">
        <ele>422.592862</ele>
        <time>2021-07-07T21:46:32.945Z</time>
      </trkpt>
      <trkpt lat="46.27786" lon="6.23766">
        <ele>422.502425</ele>
        <time>2021-07-07T21:46:48.323Z</time>
      </trkpt>
      <trkpt lat="46.27775" lon="6.23753">
        <ele>422.475425</ele>
        <time>2021-07-07T21:46:52.806Z</time>
      </trkpt>
      <trkpt lat="46.27776" lon="6.2375">
        <ele>422.470899</ele>
        <time>2021-07-07T21:46:53.555Z</time>
      </trkpt>
      <trkpt lat="46.27781" lon="6.23727">
        <ele>422.440311</ele>
        <time>2021-07-07T21:46:58.748Z</time>
      </trkpt>
      <trkpt lat="46.27781" lon="6.23725">
        <ele>422.437084</ele>
        <time>2021-07-07T21:46:59.315Z</time>
      </trkpt>
      <trkpt lat="46.27784" lon="6.23707">
        <ele>422.412959</ele>
        <time>2021-07-07T21:47:03.328Z</time>
      </trkpt>
      <trkpt lat="46.27789" lon="6.2366">
        <ele>422.337115</ele>
        <time>2021-07-07T21:47:14.047Z</time>
      </trkpt>
      <trkpt lat="46.2779" lon="6.23645">
        <ele>422.311426</ele>
        <time>2021-07-07T21:47:17.445Z</time>
      </trkpt>
      <trkpt lat="46.27789" lon="6.23597">
        <ele>422.231667</ele>
        <time>2021-07-07T21:47:28.135Z</time>
      </trkpt>
      <trkpt lat="46.27797" lon="6.23553">
        <ele>422.157287</ele>
        <time>2021-07-07T21:47:38.152Z</time>
      </trkpt>
      <trkpt lat="46.27802" lon="6.23541">
        <ele>422.133893</ele>
        <time>2021-07-07T21:47:41.268Z</time>
      </trkpt>
      <trkpt lat="46.27802" lon="6.2354">
        <ele>422.132378</ele>
        <time>2021-07-07T21:47:41.501Z</time>
      </trkpt>
      <trkpt lat="46.2781" lon="6.23518">
        <ele>422.090593</ele>
        <time>2021-07-07T21:47:47.181Z</time>
      </trkpt>
      <trkpt lat="46.27811" lon="6.23512">
        <ele>422.079293</ele>
        <time>2021-07-07T21:47:48.699Z</time>
      </trkpt>
      <trkpt lat="46.27806" lon="6.23504">
        <ele>422.062401</ele>
        <time>2021-07-07T21:47:50.931Z</time>
      </trkpt>
      <trkpt lat="46.27759" lon="6.23458">
        <ele>422.097419</ele>
        <time>2021-07-07T21:48:09.865Z</time>
      </trkpt>
      <trkpt lat="46.2766" lon="6.23375">
        <ele>423.04448</ele>
        <time>2021-07-07T21:48:48.716Z</time>
      </trkpt>
      <trkpt lat="46.27641" lon="6.2337">
        <ele>423.205309</ele>
        <time>2021-07-07T21:48:55.241Z</time>
      </trkpt>
      <trkpt lat="46.27637" lon="6.23373">
        <ele>423.245458</ele>
        <time>2021-07-07T21:48:57.172Z</time>
      </trkpt>
      <trkpt lat="46.27643" lon="6.23351">
        <ele>423.381438</ele>
        <time>2021-07-07T21:49:02.578Z</time>
      </trkpt>
      <trkpt lat="46.27649" lon="6.23334">
        <ele>423.460568</ele>
        <time>2021-07-07T21:49:06.960Z</time>
      </trkpt>
      <trkpt lat="46.27645" lon="6.23328">
        <ele>423.468702</ele>
        <time>2021-07-07T21:49:09.456Z</time>
      </trkpt>
      <trkpt lat="46.27603" lon="6.23269">
        <ele>423.553919</ele>
        <time>2021-07-07T21:49:32.029Z</time>
      </trkpt>
      <trkpt lat="46.27597" lon="6.23259">
        <ele>423.567271</ele>
        <time>2021-07-07T21:49:35.608Z</time>
      </trkpt>
      <trkpt lat="46.27578" lon="6.23233">
        <ele>423.60561</ele>
        <time>2021-07-07T21:49:45.737Z</time>
      </trkpt>
      <trkpt lat="46.27529" lon="6.23183">
        <ele>423.693462</ele>
        <time>2021-07-07T21:50:08.834Z</time>
      </trkpt>
      <trkpt lat="46.27526" lon="6.2318">
        <ele>423.698784</ele>
        <time>2021-07-07T21:50:10.155Z</time>
      </trkpt>
      <trkpt lat="46.27499" lon="6.23153">
        <ele>423.772703</ele>
        <time>2021-07-07T21:50:22.605Z</time>
      </trkpt>
      <trkpt lat="46.2741" lon="6.2306">
        <ele>424.076166</ele>
        <time>2021-07-07T21:51:04.871Z</time>
      </trkpt>
      <trkpt lat="46.27409" lon="6.23059">
        <ele>424.077844</ele>
        <time>2021-07-07T21:51:05.064Z</time>
      </trkpt>
      <trkpt lat="46.27407" lon="6.23057">
        <ele>424.085228</ele>
        <time>2021-07-07T21:51:05.927Z</time>
      </trkpt>
      <trkpt lat="46.27394" lon="6.23044">
        <ele>424.128862</ele>
        <time>2021-07-07T21:51:11.301Z</time>
      </trkpt>
      <trkpt lat="46.27389" lon="6.23039">
        <ele>424.145528</ele>
        <time>2021-07-07T21:51:13.349Z</time>
      </trkpt>
      <trkpt lat="46.27404" lon="6.23013">
        <ele>424.211248</ele>
        <time>2021-07-07T21:51:21.449Z</time>
      </trkpt>
      <trkpt lat="46.2742" lon="6.22969">
        <ele>424.573919</ele>
        <time>2021-07-07T21:51:33.096Z</time>
      </trkpt>
      <trkpt lat="46.27421" lon="6.22962">
        <ele>424.628645</ele>
        <time>2021-07-07T21:51:34.878Z</time>
      </trkpt>
      <trkpt lat="46.27423" lon="6.22954">
        <ele>424.691083</ele>
        <time>2021-07-07T21:51:36.971Z</time>
      </trkpt>
      <trkpt lat="46.27432" lon="6.22872">
        <ele>425.322253</ele>
        <time>2021-07-07T21:51:56.730Z</time>
      </trkpt>
      <trkpt lat="46.27442" lon="6.22829">
        <ele>425.669789</ele>
        <time>2021-07-07T21:52:07.639Z</time>
      </trkpt>
      <trkpt lat="46.27446" lon="6.22816">
        <ele>425.775626</ele>
        <time>2021-07-07T21:52:10.968Z</time>
      </trkpt>
      <trkpt lat="46.2745" lon="6.22806">
        <ele>425.865146</ele>
        <time>2021-07-07T21:52:13.884Z</time>
      </trkpt>
      <trkpt lat="46.27456" lon="6.22792">
        <ele>425.98908</ele>
        <time>2021-07-07T21:52:17.661Z</time>
      </trkpt>
      <trkpt lat="46.27448" lon="6.22786">
        <ele>426.091327</ele>
        <time>2021-07-07T21:52:20.715Z</time>
      </trkpt>
      <trkpt lat="46.2744" lon="6.22781">
        <ele>426.181941</ele>
        <time>2021-07-07T21:52:23.572Z</time>
      </trkpt>
      <trkpt lat="46.27432" lon="6.22778">
        <ele>426.155368</ele>
        <time>2021-07-07T21:52:26.764Z</time>
      </trkpt>
      <trkpt lat="46.27424" lon="6.22776">
        <ele>426.131845</ele>
        <time>2021-07-07T21:52:29.408Z</time>
      </trkpt>
      <trkpt lat="46.27408" lon="6.22774">
        <ele>426.085981</ele>
        <time>2021-07-07T21:52:34.520Z</time>
      </trkpt>
      <trkpt lat="46.27396" lon="6.22772">
        <ele>426.051875</ele>
        <time>2021-07-07T21:52:38.368Z</time>
      </trkpt>
      <trkpt lat="46.27384" lon="6.2277">
        <ele>426.015761</ele>
        <time>2021-07-07T21:52:43.101Z</time>
      </trkpt>
      <trkpt lat="46.27373" lon="6.22766">
        <ele>425.982688</ele>
        <time>2021-07-07T21:52:47.439Z</time>
      </trkpt>
      <trkpt lat="46.27275" lon="6.22714">
        <ele>425.676652</ele>
        <time>2021-07-07T21:53:26.866Z</time>
      </trkpt>
      <trkpt lat="46.27223" lon="6.22649">
        <ele>425.435152</ele>
        <time>2021-07-07T21:53:52.826Z</time>
      </trkpt>
      <trkpt lat="46.27222" lon="6.22646">
        <ele>425.426453</ele>
        <time>2021-07-07T21:53:53.695Z</time>
      </trkpt>
      <trkpt lat="46.27219" lon="6.22644">
        <ele>425.413904</ele>
        <time>2021-07-07T21:53:54.991Z</time>
      </trkpt>
      <trkpt lat="46.27214" lon="6.2264">
        <ele>425.394644</ele>
        <time>2021-07-07T21:53:57.034Z</time>
      </trkpt>
      <trkpt lat="46.27201" lon="6.22629">
        <ele>425.339325</ele>
        <time>2021-07-07T21:54:02.052Z</time>
      </trkpt>
      <trkpt lat="46.27185" lon="6.22617">
        <ele>425.275835</ele>
        <time>2021-07-07T21:54:07.709Z</time>
      </trkpt>
      <trkpt lat="46.26902" lon="6.22506">
        <ele>425.342151</ele>
        <time>2021-07-07T21:55:43.983Z</time>
      </trkpt>
      <trkpt lat="46.26822" lon="6.22468">
        <ele>425.531923</ele>
        <time>2021-07-07T21:56:11.707Z</time>
      </trkpt>
      <trkpt lat="46.2682" lon="6.22467">
        <ele>425.536911</ele>
        <time>2021-07-07T21:56:12.479Z</time>
      </trkpt>
      <trkpt lat="46.26815" lon="6.22484">
        <ele>425.565762</ele>
        <time>2021-07-07T21:56:16.668Z</time>
      </trkpt>
      <trkpt lat="46.26798" lon="6.22519">
        <ele>425.633006</ele>
        <time>2021-07-07T21:56:26.481Z</time>
      </trkpt>
      <trkpt lat="46.26748" lon="6.22579">
        <ele>425.893341</ele>
        <time>2021-07-07T21:56:47.875Z</time>
      </trkpt>
      <trkpt lat="46.26744" lon="6.22584">
        <ele>425.919633</ele>
        <time>2021-07-07T21:56:49.816Z</time>
      </trkpt>
      <trkpt lat="46.26738" lon="6.22584">
        <ele>425.945691</ele>
        <time>2021-07-07T21:56:52.136Z</time>
      </trkpt>
      <trkpt lat="46.26699" lon="6.22575">
        <ele>426.118782</ele>
        <time>2021-07-07T21:57:07.443Z</time>
      </trkpt>
      <trkpt lat="46.2662" lon="6.22601">
        <ele>426.486046</ele>
        <time>2021-07-07T21:57:39.397Z</time>
      </trkpt>
      <trkpt lat="46.26615" lon="6.22601">
        <ele>426.511547</ele>
        <time>2021-07-07T21:57:41.230Z</time>
      </trkpt>
      <trkpt lat="46.26605" lon="6.22583">
        <ele>426.603959</ele>
        <time>2021-07-07T21:57:46.748Z</time>
      </trkpt>
      <trkpt lat="46.26599" lon="6.22573">
        <ele>426.654659</ele>
        <time>2021-07-07T21:57:49.809Z</time>
      </trkpt>
      <trkpt lat="46.26545" lon="6.22514">
        <ele>427.033779</ele>
        <time>2021-07-07T21:58:12.508Z</time>
      </trkpt>
      <trkpt lat="46.26532" lon="6.22503">
        <ele>427.117714</ele>
        <time>2021-07-07T21:58:17.461Z</time>
      </trkpt>
      <trkpt lat="46.2653" lon="6.22515">
        <ele>427.166783</ele>
        <time>2021-07-07T21:58:20.346Z</time>
      </trkpt>
      <trkpt lat="46.26529" lon="6.22521">
        <ele>427.188144</ele>
        <time>2021-07-07T21:58:21.656Z</time>
      </trkpt>
      <trkpt lat="46.26512" lon="6.22576">
        <ele>427.424664</ele>
        <time>2021-07-07T21:58:35.648Z</time>
      </trkpt>
      <trkpt lat="46.26502" lon="6.22593">
        <ele>427.494383</ele>
        <time>2021-07-07T21:58:40.691Z</time>
      </trkpt>
      <trkpt lat="46.265" lon="6.22599">
        <ele>427.510084</ele>
        <time>2021-07-07T21:58:42.133Z</time>
      </trkpt>
      <trkpt lat="46.26466" lon="6.22655">
        <ele>427.695167</ele>
        <time>2021-07-07T21:58:59.265Z</time>
      </trkpt>
      <trkpt lat="46.26462" lon="6.22663">
        <ele>427.718324</ele>
        <time>2021-07-07T21:59:01.417Z</time>
      </trkpt>
      <trkpt lat="46.26461" lon="6.22664">
        <ele>427.722794</ele>
        <time>2021-07-07T21:59:01.793Z</time>
      </trkpt>
      <trkpt lat="46.26438" lon="6.22712">
        <ele>427.867429</ele>
        <time>2021-07-07T21:59:15.123Z</time>
      </trkpt>
      <trkpt lat="46.26338" lon="6.22876">
        <ele>429.07808</ele>
        <time>2021-07-07T22:00:05.620Z</time>
      </trkpt>
      <trkpt lat="46.26305" lon="6.22929">
        <ele>429.652787</ele>
        <time>2021-07-07T22:00:22.756Z</time>
      </trkpt>
      <trkpt lat="46.26284" lon="6.22962">
        <ele>430.011741</ele>
        <time>2021-07-07T22:00:33.469Z</time>
      </trkpt>
      <trkpt lat="46.26258" lon="6.23004">
        <ele>430.55658</ele>
        <time>2021-07-07T22:00:47.079Z</time>
      </trkpt>
      <trkpt lat="46.26257" lon="6.23006">
        <ele>430.590318</ele>
        <time>2021-07-07T22:00:47.866Z</time>
      </trkpt>
      <trkpt lat="46.26204" lon="6.23092">
        <ele>431.844522</ele>
        <time>2021-07-07T22:01:16.002Z</time>
      </trkpt>
      <trkpt lat="46.262" lon="6.23099">
        <ele>431.949238</ele>
        <time>2021-07-07T22:01:18.421Z</time>
      </trkpt>
      <trkpt lat="46.26197" lon="6.23096">
        <ele>431.997935</ele>
        <time>2021-07-07T22:01:19.509Z</time>
      </trkpt>
      <trkpt lat="46.26194" lon="6.23094">
        <ele>432.055116</ele>
        <time>2021-07-07T22:01:20.756Z</time>
      </trkpt>
      <trkpt lat="46.26191" lon="6.23092">
        <ele>432.111711</ele>
        <time>2021-07-07T22:01:21.991Z</time>
      </trkpt>
      <trkpt lat="46.26186" lon="6.23086">
        <ele>432.205276</ele>
        <time>2021-07-07T22:01:24.009Z</time>
      </trkpt>
      <trkpt lat="46.26182" lon="6.2308">
        <ele>432.297075</ele>
        <time>2021-07-07T22:01:26.103Z</time>
      </trkpt>
      <trkpt lat="46.26179" lon="6.23073">
        <ele>432.391462</ele>
        <time>2021-07-07T22:01:28.132Z</time>
      </trkpt>
      <trkpt lat="46.26176" lon="6.23076">
        <ele>432.437543</ele>
        <time>2021-07-07T22:01:29.160Z</time>
      </trkpt>
      <trkpt lat="46.26175" lon="6.23075">
        <ele>432.458891</ele>
        <time>2021-07-07T22:01:29.660Z</time>
      </trkpt>
      <trkpt lat="46.26172" lon="6.23074">
        <ele>432.501674</ele>
        <time>2021-07-07T22:01:30.638Z</time>
      </trkpt>
      <trkpt lat="46.26168" lon="6.23074">
        <ele>432.563307</ele>
        <time>2021-07-07T22:01:31.978Z</time>
      </trkpt>
      <trkpt lat="46.26179" lon="6.23088">
        <ele>432.788413</ele>
        <time>2021-07-07T22:01:36.769Z</time>
      </trkpt>
      <trkpt lat="46.26187" lon="6.23107">
        <ele>433.03876</ele>
        <time>2021-07-07T22:01:42.079Z</time>
      </trkpt>
      <trkpt lat="46.26183" lon="6.23122">
        <ele>433.028159</ele>
        <time>2021-07-07T22:01:45.857Z</time>
      </trkpt>
      <trkpt lat="46.26175" lon="6.23143">
        <ele>433.012564</ele>
        <time>2021-07-07T22:01:51.307Z</time>
      </trkpt>
      <trkpt lat="46.26165" lon="6.23165">
        <ele>432.995474</ele>
        <time>2021-07-07T22:01:57.324Z</time>
      </trkpt>
      <trkpt lat="46.26145" lon="6.23202">
        <ele>432.964809</ele>
        <time>2021-07-07T22:02:08.001Z</time>
      </trkpt>
      <trkpt lat="46.26137" lon="6.23216">
        <ele>432.952978</ele>
        <time>2021-07-07T22:02:12.106Z</time>
      </trkpt>
      <trkpt lat="46.26122" lon="6.23244">
        <ele>432.929493</ele>
        <time>2021-07-07T22:02:20.191Z</time>
      </trkpt>
      <trkpt lat="46.26107" lon="6.23269">
        <ele>432.908697</ele>
        <time>2021-07-07T22:02:27.387Z</time>
      </trkpt>
      <trkpt lat="46.26104" lon="6.23274">
        <ele>432.904083</ele>
        <time>2021-07-07T22:02:28.910Z</time>
      </trkpt>
      <trkpt lat="46.26063" lon="6.23358">
        <ele>432.729965</ele>
        <time>2021-07-07T22:02:51.702Z</time>
      </trkpt>
      <trkpt lat="46.26053" lon="6.23389">
        <ele>432.631713</ele>
        <time>2021-07-07T22:02:59.396Z</time>
      </trkpt>
      <trkpt lat="46.26046" lon="6.2345">
        <ele>432.456512</ele>
        <time>2021-07-07T22:03:13.224Z</time>
      </trkpt>
      <trkpt lat="46.26044" lon="6.23514">
        <ele>432.275354</ele>
        <time>2021-07-07T22:03:27.677Z</time>
      </trkpt>
      <trkpt lat="46.26047" lon="6.23551">
        <ele>432.171516</ele>
        <time>2021-07-07T22:03:35.908Z</time>
      </trkpt>
      <trkpt lat="46.26048" lon="6.23567">
        <ele>432.139378</ele>
        <time>2021-07-07T22:03:39.702Z</time>
      </trkpt>
      <trkpt lat="46.26051" lon="6.23612">
        <ele>432.235892</ele>
        <time>2021-07-07T22:03:49.928Z</time>
      </trkpt>
      <trkpt lat="46.26051" lon="6.23614">
        <ele>432.241052</ele>
        <time>2021-07-07T22:03:50.580Z</time>
      </trkpt>
      <trkpt lat="46.26052" lon="6.23633">
        <ele>432.281487</ele>
        <time>2021-07-07T22:03:54.859Z</time>
      </trkpt>
      <trkpt lat="46.26053" lon="6.23649">
        <ele>432.314719</ele>
        <time>2021-07-07T22:03:58.388Z</time>
      </trkpt>
      <trkpt lat="46.26054" lon="6.23662">
        <ele>432.342477</ele>
        <time>2021-07-07T22:04:01.432Z</time>
      </trkpt>
      <trkpt lat="46.26054" lon="6.23681">
        <ele>432.383733</ele>
        <time>2021-07-07T22:04:05.975Z</time>
      </trkpt>
      <trkpt lat="46.26054" lon="6.2369">
        <ele>432.404127</ele>
        <time>2021-07-07T22:04:08.114Z</time>
      </trkpt>
      <trkpt lat="46.26052" lon="6.23716">
        <ele>432.459184</ele>
        <time>2021-07-07T22:04:15.193Z</time>
      </trkpt>
      <trkpt lat="46.26047" lon="6.23779">
        <ele>432.594518</ele>
        <time>2021-07-07T22:04:32.507Z</time>
      </trkpt>
      <trkpt lat="46.26034" lon="6.23853">
        <ele>432.611434</ele>
        <time>2021-07-07T22:04:52.992Z</time>
      </trkpt>
      <trkpt lat="46.2603" lon="6.23868">
        <ele>432.573845</ele>
        <time>2021-07-07T22:04:57.197Z</time>
      </trkpt>
      <trkpt lat="46.26024" lon="6.23884">
        <ele>432.531704</ele>
        <time>2021-07-07T22:05:01.891Z</time>
      </trkpt>
      <trkpt lat="46.25992" lon="6.23985">
        <ele>432.264182</ele>
        <time>2021-07-07T22:05:31.503Z</time>
      </trkpt>
      <trkpt lat="46.25963" lon="6.2413">
        <ele>431.713658</ele>
        <time>2021-07-07T22:06:10.680Z</time>
      </trkpt>
      <trkpt lat="46.25962" lon="6.24186">
        <ele>431.417584</ele>
        <time>2021-07-07T22:06:25.439Z</time>
      </trkpt>
      <trkpt lat="46.25973" lon="6.24279">
        <ele>430.927633</ele>
        <time>2021-07-07T22:06:50.026Z</time>
      </trkpt>
      <trkpt lat="46.25978" lon="6.24307">
        <ele>430.775165</ele>
        <time>2021-07-07T22:06:57.674Z</time>
      </trkpt>
      <trkpt lat="46.25971" lon="6.24308">
        <ele>430.721533</ele>
        <time>2021-07-07T22:07:00.413Z</time>
      </trkpt>
      <trkpt lat="46.25967" lon="6.24308">
        <ele>430.726109</ele>
        <time>2021-07-07T22:07:01.883Z</time>
      </trkpt>
      <trkpt lat="46.25966" lon="6.24308">
        <ele>430.734197</ele>
        <time>2021-07-07T22:07:02.550Z</time>
      </trkpt>
      <trkpt lat="46.25957" lon="6.2434">
        <ele>430.872925</ele>
        <time>2021-07-07T22:07:11.672Z</time>
      </trkpt>
      <trkpt lat="46.25919" lon="6.24402">
        <ele>431.20256</ele>
        <time>2021-07-07T22:07:33.913Z</time>
      </trkpt>
      <trkpt lat="46.25906" lon="6.24418">
        <ele>431.301235</ele>
        <time>2021-07-07T22:07:40.526Z</time>
      </trkpt>
      <trkpt lat="46.25881" lon="6.24434">
        <ele>431.46039</ele>
        <time>2021-07-07T22:07:51.462Z</time>
      </trkpt>
      <trkpt lat="46.25862" lon="6.24427">
        <ele>431.572443</ele>
        <time>2021-07-07T22:07:59.327Z</time>
      </trkpt>
      <trkpt lat="46.25704" lon="6.2431">
        <ele>434.132374</ele>
        <time>2021-07-07T22:09:11.989Z</time>
      </trkpt>
      <trkpt lat="46.25696" lon="6.24311">
        <ele>434.262298</ele>
        <time>2021-07-07T22:09:15.312Z</time>
      </trkpt>
      <trkpt lat="46.25692" lon="6.24321">
        <ele>434.391761</ele>
        <time>2021-07-07T22:09:18.643Z</time>
      </trkpt>
      <trkpt lat="46.2561" lon="6.24516">
        <ele>437.07658</ele>
        <time>2021-07-07T22:10:23.095Z</time>
      </trkpt>
      <trkpt lat="46.25597" lon="6.24548">
        <ele>437.527259</ele>
        <time>2021-07-07T22:10:32.290Z</time>
      </trkpt>
      <trkpt lat="46.2559" lon="6.24565">
        <ele>437.755154</ele>
        <time>2021-07-07T22:10:36.980Z</time>
      </trkpt>
      <trkpt lat="46.25587" lon="6.24575">
        <ele>437.916815</ele>
        <time>2021-07-07T22:10:39.703Z</time>
      </trkpt>
      <trkpt lat="46.25574" lon="6.24604">
        <ele>438.4172</ele>
        <time>2021-07-07T22:10:48.169Z</time>
      </trkpt>
      <trkpt lat="46.25536" lon="6.24692">
        <ele>439.90531</ele>
        <time>2021-07-07T22:11:18.258Z</time>
      </trkpt>
      <trkpt lat="46.25498" lon="6.24782">
        <ele>441.424285</ele>
        <time>2021-07-07T22:11:48.778Z</time>
      </trkpt>
      <trkpt lat="46.25478" lon="6.24827">
        <ele>442.074699</ele>
        <time>2021-07-07T22:12:04.289Z</time>
      </trkpt>
      <trkpt lat="46.25459" lon="6.24871">
        <ele>442.694658</ele>
        <time>2021-07-07T22:12:16.951Z</time>
      </trkpt>
      <trkpt lat="46.25407" lon="6.24991">
        <ele>444.394169</ele>
        <time>2021-07-07T22:12:51.078Z</time>
      </trkpt>
      <trkpt lat="46.25395" lon="6.25018">
        <ele>444.7557</ele>
        <time>2021-07-07T22:12:58.541Z</time>
      </trkpt>
      <trkpt lat="46.25355" lon="6.25112">
        <ele>445.957365</ele>
        <time>2021-07-07T22:13:24.739Z</time>
      </trkpt>
      <trkpt lat="46.2524" lon="6.25379">
        <ele>449.832611</ele>
        <time>2021-07-07T22:14:41.160Z</time>
      </trkpt>
      <trkpt lat="46.25209" lon="6.2545">
        <ele>450.969674</ele>
        <time>2021-07-07T22:15:01.916Z</time>
      </trkpt>
      <trkpt lat="46.25203" lon="6.25462">
        <ele>451.15497</ele>
        <time>2021-07-07T22:15:05.435Z</time>
      </trkpt>
      <trkpt lat="46.25187" lon="6.25494">
        <ele>451.675519</ele>
        <time>2021-07-07T22:15:15.241Z</time>
      </trkpt>
      <trkpt lat="46.25178" lon="6.25513">
        <ele>451.970055</ele>
        <time>2021-07-07T22:15:20.765Z</time>
      </trkpt>
      <trkpt lat="46.25173" lon="6.25526">
        <ele>452.174646</ele>
        <time>2021-07-07T22:15:24.564Z</time>
      </trkpt>
      <trkpt lat="46.25165" lon="6.25544">
        <ele>452.438479</ele>
        <time>2021-07-07T22:15:29.506Z</time>
      </trkpt>
      <trkpt lat="46.25155" lon="6.25569">
        <ele>452.813721</ele>
        <time>2021-07-07T22:15:36.468Z</time>
      </trkpt>
      <trkpt lat="46.25151" lon="6.25582">
        <ele>453.005308</ele>
        <time>2021-07-07T22:15:40.045Z</time>
      </trkpt>
      <trkpt lat="46.25165" lon="6.25597">
        <ele>453.331882</ele>
        <time>2021-07-07T22:15:46.125Z</time>
      </trkpt>
      <trkpt lat="46.25157" lon="6.25637">
        <ele>453.87468</ele>
        <time>2021-07-07T22:15:56.252Z</time>
      </trkpt>
      <trkpt lat="46.25156" lon="6.25641">
        <ele>453.928878</ele>
        <time>2021-07-07T22:15:57.276Z</time>
      </trkpt>
      <trkpt lat="46.25155" lon="6.25654">
        <ele>454.100153</ele>
        <time>2021-07-07T22:16:00.434Z</time>
      </trkpt>
      <trkpt lat="46.25154" lon="6.25664">
        <ele>454.224739</ele>
        <time>2021-07-07T22:16:02.771Z</time>
      </trkpt>
      <trkpt lat="46.25155" lon="6.25668">
        <ele>454.274212</ele>
        <time>2021-07-07T22:16:03.702Z</time>
      </trkpt>
      <trkpt lat="46.25157" lon="6.25672">
        <ele>454.337754</ele>
        <time>2021-07-07T22:16:04.975Z</time>
      </trkpt>
      <trkpt lat="46.25159" lon="6.25675">
        <ele>454.387053</ele>
        <time>2021-07-07T22:16:06.037Z</time>
      </trkpt>
      <trkpt lat="46.2516" lon="6.25677">
        <ele>454.420074</ele>
        <time>2021-07-07T22:16:06.740Z</time>
      </trkpt>
      <trkpt lat="46.2517" lon="6.25691">
        <ele>454.640867</ele>
        <time>2021-07-07T22:16:11.520Z</time>
      </trkpt>
      <trkpt lat="46.25182" lon="6.25707">
        <ele>454.892067</ele>
        <time>2021-07-07T22:16:17.048Z</time>
      </trkpt>
      <trkpt lat="46.25179" lon="6.25727">
        <ele>455.122849</ele>
        <time>2021-07-07T22:16:22.056Z</time>
      </trkpt>
      <trkpt lat="46.25171" lon="6.25783">
        <ele>455.752477</ele>
        <time>2021-07-07T22:16:35.772Z</time>
      </trkpt>
      <trkpt lat="46.25166" lon="6.25817">
        <ele>456.131754</ele>
        <time>2021-07-07T22:16:44.043Z</time>
      </trkpt>
      <trkpt lat="46.25159" lon="6.25844">
        <ele>456.455337</ele>
        <time>2021-07-07T22:16:51.109Z</time>
      </trkpt>
      <trkpt lat="46.25145" lon="6.2588">
        <ele>456.912645</ele>
        <time>2021-07-07T22:17:01.056Z</time>
      </trkpt>
      <trkpt lat="46.25132" lon="6.25914">
        <ele>457.321107</ele>
        <time>2021-07-07T22:17:10.372Z</time>
      </trkpt>
      <trkpt lat="46.25116" lon="6.25957">
        <ele>457.779311</ele>
        <time>2021-07-07T22:17:22.026Z</time>
      </trkpt>
      <trkpt lat="46.25109" lon="6.25977">
        <ele>457.992059</ele>
        <time>2021-07-07T22:17:27.393Z</time>
      </trkpt>
      <trkpt lat="46.25084" lon="6.25959">
        <ele>458.381273</ele>
        <time>2021-07-07T22:17:37.251Z</time>
      </trkpt>
      <trkpt lat="46.25044" lon="6.2593">
        <ele>458.981424</ele>
        <time>2021-07-07T22:17:52.386Z</time>
      </trkpt>
      <trkpt lat="46.25003" lon="6.259">
        <ele>459.6142</ele>
        <time>2021-07-07T22:18:08.267Z</time>
      </trkpt>
      <trkpt lat="46.24976" lon="6.25882">
        <ele>459.900875</ele>
        <time>2021-07-07T22:18:18.251Z</time>
      </trkpt>
      <trkpt lat="46.24879" lon="6.26287">
        <ele>462.150457</ele>
        <time>2021-07-07T22:19:58.489Z</time>
      </trkpt>
      <trkpt lat="46.24869" lon="6.26297">
        <ele>462.219846</ele>
        <time>2021-07-07T22:20:02.518Z</time>
      </trkpt>
      <trkpt lat="46.24864" lon="6.26295">
        <ele>462.244946</ele>
        <time>2021-07-07T22:20:04.002Z</time>
      </trkpt>
      <trkpt lat="46.24829" lon="6.26271">
        <ele>462.227847</ele>
        <time>2021-07-07T22:20:16.796Z</time>
      </trkpt>
      <trkpt lat="46.24743" lon="6.26422">
        <ele>461.308347</ele>
        <time>2021-07-07T22:21:07.960Z</time>
      </trkpt>
      <trkpt lat="46.2468" lon="6.26531">
        <ele>460.989631</ele>
        <time>2021-07-07T22:21:44.831Z</time>
      </trkpt>
      <trkpt lat="46.24676" lon="6.2654">
        <ele>460.973213</ele>
        <time>2021-07-07T22:21:47.876Z</time>
      </trkpt>
      <trkpt lat="46.24669" lon="6.26553">
        <ele>460.950466</ele>
        <time>2021-07-07T22:21:52.097Z</time>
      </trkpt>
      <trkpt lat="46.24666" lon="6.26559">
        <ele>460.939682</ele>
        <time>2021-07-07T22:21:54.102Z</time>
      </trkpt>
      <trkpt lat="46.24687" lon="6.2659">
        <ele>460.878207</ele>
        <time>2021-07-07T22:22:03.855Z</time>
      </trkpt>
      <trkpt lat="46.24718" lon="6.2664">
        <ele>460.781183</ele>
        <time>2021-07-07T22:22:19.447Z</time>
      </trkpt>
      <trkpt lat="46.24752" lon="6.26709">
        <ele>461.362767</ele>
        <time>2021-07-07T22:22:38.857Z</time>
      </trkpt>
      <trkpt lat="46.24792" lon="6.26839">
        <ele>462.496167</ele>
        <time>2021-07-07T22:23:12.852Z</time>
      </trkpt>
      <trkpt lat="46.24829" lon="6.26984">
        <ele>464.099947</ele>
        <time>2021-07-07T22:23:50.120Z</time>
      </trkpt>
      <trkpt lat="46.24894" lon="6.27125">
        <ele>465.943839</ele>
        <time>2021-07-07T22:24:31.004Z</time>
      </trkpt>
      <trkpt lat="46.24935" lon="6.27276">
        <ele>467.226447</ele>
        <time>2021-07-07T22:25:09.564Z</time>
      </trkpt>
      <trkpt lat="46.24955" lon="6.27325">
        <ele>467.674811</ele>
        <time>2021-07-07T22:25:22.835Z</time>
      </trkpt>
      <trkpt lat="46.24984" lon="6.27374">
        <ele>468.003439</ele>
        <time>2021-07-07T22:25:37.886Z</time>
      </trkpt>
      <trkpt lat="46.25006" lon="6.27441">
        <ele>468.286141</ele>
        <time>2021-07-07T22:25:54.936Z</time>
      </trkpt>
      <trkpt lat="46.25017" lon="6.27461">
        <ele>468.383321</ele>
        <time>2021-07-07T22:26:00.739Z</time>
      </trkpt>
      <trkpt lat="46.25025" lon="6.27476">
        <ele>468.453273</ele>
        <time>2021-07-07T22:26:04.960Z</time>
      </trkpt>
      <trkpt lat="46.25036" lon="6.27482">
        <ele>468.520902</ele>
        <time>2021-07-07T22:26:09.776Z</time>
      </trkpt>
      <trkpt lat="46.25047" lon="6.27494">
        <ele>468.59602</ele>
        <time>2021-07-07T22:26:15.084Z</time>
      </trkpt>
      <trkpt lat="46.25087" lon="6.27642">
        <ele>469.357654</ele>
        <time>2021-07-07T22:26:58.463Z</time>
      </trkpt>
      <trkpt lat="46.25068" lon="6.27664">
        <ele>469.552137</ele>
        <time>2021-07-07T22:27:06.907Z</time>
      </trkpt>
      <trkpt lat="46.25018" lon="6.27727">
        <ele>470.064015</ele>
        <time>2021-07-07T22:27:29.098Z</time>
      </trkpt>
      <trkpt lat="46.25012" lon="6.27735">
        <ele>470.129383</ele>
        <time>2021-07-07T22:27:31.979Z</time>
      </trkpt>
      <trkpt lat="46.25007" lon="6.27726">
        <ele>470.193138</ele>
        <time>2021-07-07T22:27:34.751Z</time>
      </trkpt>
      <trkpt lat="46.24998" lon="6.2772">
        <ele>470.269871</ele>
        <time>2021-07-07T22:27:38.028Z</time>
      </trkpt>
      <trkpt lat="46.24987" lon="6.27728">
        <ele>470.369677</ele>
        <time>2021-07-07T22:27:42.271Z</time>
      </trkpt>
      <trkpt lat="46.2488" lon="6.27865">
        <ele>471.50949</ele>
        <time>2021-07-07T22:28:30.675Z</time>
      </trkpt>
      <trkpt lat="46.24872" lon="6.27875">
        <ele>471.592017</ele>
        <time>2021-07-07T22:28:34.152Z</time>
      </trkpt>
      <trkpt lat="46.24878" lon="6.27883">
        <ele>471.655431</ele>
        <time>2021-07-07T22:28:36.798Z</time>
      </trkpt>
      <trkpt lat="46.24888" lon="6.27893">
        <ele>471.755895</ele>
        <time>2021-07-07T22:28:40.847Z</time>
      </trkpt>
      <trkpt lat="46.2489" lon="6.27894">
        <ele>471.774023</ele>
        <time>2021-07-07T22:28:41.564Z</time>
      </trkpt>
      <trkpt lat="46.2489" lon="6.27898">
        <ele>471.799762</ele>
        <time>2021-07-07T22:28:42.615Z</time>
      </trkpt>
      <trkpt lat="46.24895" lon="6.27901">
        <ele>471.839915</ele>
        <time>2021-07-07T22:28:44.241Z</time>
      </trkpt>
      <trkpt lat="46.24904" lon="6.27924">
        <ele>471.990506</ele>
        <time>2021-07-07T22:28:50.357Z</time>
      </trkpt>
      <trkpt lat="46.24899" lon="6.27926">
        <ele>472.038586</ele>
        <time>2021-07-07T22:28:52.631Z</time>
      </trkpt>
      <trkpt lat="46.24846" lon="6.27972">
        <ele>472.543581</ele>
        <time>2021-07-07T22:29:16.982Z</time>
      </trkpt>
      <trkpt lat="46.24825" lon="6.27997">
        <ele>472.76113</ele>
        <time>2021-07-07T22:29:27.453Z</time>
      </trkpt>
      <trkpt lat="46.24817" lon="6.28016">
        <ele>472.893229</ele>
        <time>2021-07-07T22:29:34.013Z</time>
      </trkpt>
      <trkpt lat="46.24775" lon="6.28053">
        <ele>473.433599</ele>
        <time>2021-07-07T22:29:53.450Z</time>
      </trkpt>
      <trkpt lat="46.24757" lon="6.28095">
        <ele>473.954205</ele>
        <time>2021-07-07T22:30:07.250Z</time>
      </trkpt>
      <trkpt lat="46.2475" lon="6.281">
        <ele>474.073532</ele>
        <time>2021-07-07T22:30:10.348Z</time>
      </trkpt>
      <trkpt lat="46.24745" lon="6.28101">
        <ele>474.140832</ele>
        <time>2021-07-07T22:30:12.226Z</time>
      </trkpt>
      <trkpt lat="46.2474" lon="6.28102">
        <ele>474.228824</ele>
        <time>2021-07-07T22:30:14.699Z</time>
      </trkpt>
      <trkpt lat="46.24729" lon="6.28112">
        <ele>474.418686</ele>
        <time>2021-07-07T22:30:19.664Z</time>
      </trkpt>
      <trkpt lat="46.24644" lon="6.28252">
        <ele>476.404046</ele>
        <time>2021-07-07T22:31:12.724Z</time>
      </trkpt>
      <trkpt lat="46.24642" lon="6.2827">
        <ele>476.60191</ele>
        <time>2021-07-07T22:31:18.052Z</time>
      </trkpt>
      <trkpt lat="46.24654" lon="6.283">
        <ele>476.990304</ele>
        <time>2021-07-07T22:31:27.859Z</time>
      </trkpt>
      <trkpt lat="46.24658" lon="6.28306">
        <ele>477.076924</ele>
        <time>2021-07-07T22:31:30.188Z</time>
      </trkpt>
      <trkpt lat="46.24659" lon="6.28309">
        <ele>477.119724</ele>
        <time>2021-07-07T22:31:31.339Z</time>
      </trkpt>
      <trkpt lat="46.24666" lon="6.28356">
        <ele>477.649935</ele>
        <time>2021-07-07T22:31:44.870Z</time>
      </trkpt>
      <trkpt lat="46.24658" lon="6.28366">
        <ele>477.818934</ele>
        <time>2021-07-07T22:31:49.215Z</time>
      </trkpt>
      <trkpt lat="46.24654" lon="6.28358">
        <ele>477.937487</ele>
        <time>2021-07-07T22:31:51.765Z</time>
      </trkpt>
      <trkpt lat="46.24652" lon="6.28356">
        <ele>477.967548</ele>
        <time>2021-07-07T22:31:52.407Z</time>
      </trkpt>
      <trkpt lat="46.24595" lon="6.28414">
        <ele>479.058617</ele>
        <time>2021-07-07T22:32:20.841Z</time>
      </trkpt>
      <trkpt lat="46.24591" lon="6.28429">
        <ele>479.217987</ele>
        <time>2021-07-07T22:32:25.131Z</time>
      </trkpt>
      <trkpt lat="46.24602" lon="6.28492">
        <ele>479.886504</ele>
        <time>2021-07-07T22:32:43.414Z</time>
      </trkpt>
      <trkpt lat="46.24597" lon="6.28512">
        <ele>480.101348</ele>
        <time>2021-07-07T22:32:49.318Z</time>
      </trkpt>
      <trkpt lat="46.24491" lon="6.28637">
        <ele>482.358254</ele>
        <time>2021-07-07T22:33:45.411Z</time>
      </trkpt>
      <trkpt lat="46.24482" lon="6.28635">
        <ele>482.536142</ele>
        <time>2021-07-07T22:33:49.144Z</time>
      </trkpt>
      <trkpt lat="46.2448" lon="6.28641">
        <ele>482.623647</ele>
        <time>2021-07-07T22:33:51.179Z</time>
      </trkpt>
      <trkpt lat="46.24346" lon="6.28822">
        <ele>486.256919</ele>
        <time>2021-07-07T22:35:07.824Z</time>
      </trkpt>
      <trkpt lat="46.24258" lon="6.29029">
        <ele>489.478692</ele>
        <time>2021-07-07T22:36:17.423Z</time>
      </trkpt>
      <trkpt lat="46.24254" lon="6.2904">
        <ele>489.626048</ele>
        <time>2021-07-07T22:36:20.966Z</time>
      </trkpt>
      <trkpt lat="46.24245" lon="6.29073">
        <ele>490.056309</ele>
        <time>2021-07-07T22:36:31.072Z</time>
      </trkpt>
      <trkpt lat="46.24197" lon="6.29228">
        <ele>492.006317</ele>
        <time>2021-07-07T22:37:19.252Z</time>
      </trkpt>
      <trkpt lat="46.24153" lon="6.29336">
        <ele>493.182604</ele>
        <time>2021-07-07T22:37:54.361Z</time>
      </trkpt>
      <trkpt lat="46.24217" lon="6.29397">
        <ele>494.225647</ele>
        <time>2021-07-07T22:38:25.465Z</time>
      </trkpt>
      <trkpt lat="46.24248" lon="6.29442">
        <ele>494.81007</ele>
        <time>2021-07-07T22:38:43.147Z</time>
      </trkpt>
      <trkpt lat="46.24249" lon="6.29444">
        <ele>494.834311</ele>
        <time>2021-07-07T22:38:43.945Z</time>
      </trkpt>
      <trkpt lat="46.24246" lon="6.29446">
        <ele>494.878927</ele>
        <time>2021-07-07T22:38:45.295Z</time>
      </trkpt>
      <trkpt lat="46.24243" lon="6.2945">
        <ele>494.939709</ele>
        <time>2021-07-07T22:38:46.910Z</time>
      </trkpt>
      <trkpt lat="46.24195" lon="6.29564">
        <ele>496.155176</ele>
        <time>2021-07-07T22:39:18.454Z</time>
      </trkpt>
      <trkpt lat="46.24175" lon="6.29582">
        <ele>496.473806</ele>
        <time>2021-07-07T22:39:26.801Z</time>
      </trkpt>
      <trkpt lat="46.24155" lon="6.29613">
        <ele>496.847323</ele>
        <time>2021-07-07T22:39:36.868Z</time>
      </trkpt>
      <trkpt lat="46.24148" lon="6.29624">
        <ele>496.981319</ele>
        <time>2021-07-07T22:39:40.465Z</time>
      </trkpt>
      <trkpt lat="46.24143" lon="6.29633">
        <ele>497.082254</ele>
        <time>2021-07-07T22:39:43.208Z</time>
      </trkpt>
      <trkpt lat="46.24115" lon="6.29692">
        <ele>497.711296</ele>
        <time>2021-07-07T22:40:00.081Z</time>
      </trkpt>
      <trkpt lat="46.24113" lon="6.29697">
        <ele>497.764257</ele>
        <time>2021-07-07T22:40:01.537Z</time>
      </trkpt>
      <trkpt lat="46.24068" lon="6.29796">
        <ele>498.801765</ele>
        <time>2021-07-07T22:40:29.593Z</time>
      </trkpt>
      <trkpt lat="46.24064" lon="6.29801">
        <ele>498.853872</ele>
        <time>2021-07-07T22:40:31.401Z</time>
      </trkpt>
      <trkpt lat="46.24037" lon="6.2986">
        <ele>499.348032</ele>
        <time>2021-07-07T22:40:48.107Z</time>
      </trkpt>
      <trkpt lat="46.23973" lon="6.30031">
        <ele>500.669904</ele>
        <time>2021-07-07T22:41:33.868Z</time>
      </trkpt>
      <trkpt lat="46.23969" lon="6.30037">
        <ele>500.701902</ele>
        <time>2021-07-07T22:41:35.669Z</time>
      </trkpt>
      <trkpt lat="46.23968" lon="6.30043">
        <ele>500.728348</ele>
        <time>2021-07-07T22:41:37.127Z</time>
      </trkpt>
      <trkpt lat="46.23903" lon="6.30208">
        <ele>501.53926</ele>
        <time>2021-07-07T22:42:21.097Z</time>
      </trkpt>
      <trkpt lat="46.23899" lon="6.30209">
        <ele>501.563133</ele>
        <time>2021-07-07T22:42:22.444Z</time>
      </trkpt>
      <trkpt lat="46.23862" lon="6.30187">
        <ele>501.779405</ele>
        <time>2021-07-07T22:42:35.669Z</time>
      </trkpt>
      <trkpt lat="46.23822" lon="6.30163">
        <ele>501.96917</ele>
        <time>2021-07-07T22:42:50.199Z</time>
      </trkpt>
      <trkpt lat="46.23801" lon="6.30226">
        <ele>502.177283</ele>
        <time>2021-07-07T22:43:06.157Z</time>
      </trkpt>
      <trkpt lat="46.23794" lon="6.30242">
        <ele>502.234553</ele>
        <time>2021-07-07T22:43:10.600Z</time>
      </trkpt>
      <trkpt lat="46.23804" lon="6.30251">
        <ele>502.285835</ele>
        <time>2021-07-07T22:43:14.532Z</time>
      </trkpt>
      <trkpt lat="46.23949" lon="6.30417">
        <ele>503.156663</ele>
        <time>2021-07-07T22:44:16.091Z</time>
      </trkpt>
      <trkpt lat="46.24062" lon="6.30522">
        <ele>503.359643</ele>
        <time>2021-07-07T22:45:01.146Z</time>
      </trkpt>
      <trkpt lat="46.24072" lon="6.30531">
        <ele>503.359643</ele>
        <time>2021-07-07T22:45:04.852Z</time>
      </trkpt>
      <trkpt lat="46.24077" lon="6.30535">
        <ele>503.359643</ele>
        <time>2021-07-07T22:45:06.936Z</time>
      </trkpt>
      <trkpt lat="46.24103" lon="6.30558">
        <ele>503.359643</ele>
        <time>2021-07-07T22:45:17.032Z</time>
      </trkpt>
      <trkpt lat="46.24114" lon="6.30567">
        <ele>503.359643</ele>
        <time>2021-07-07T22:45:21.313Z</time>
      </trkpt>
      <trkpt lat="46.24118" lon="6.3057">
        <ele>503.359643</ele>
        <time>2021-07-07T22:45:22.690Z</time>
      </trkpt>
      <trkpt lat="46.24136" lon="6.30587">
        <ele>503.359643</ele>
        <time>2021-07-07T22:45:29.734Z</time>
      </trkpt>
      <trkpt lat="46.24139" lon="6.3059">
        <ele>503.359643</ele>
        <time>2021-07-07T22:45:31.131Z</time>
      </trkpt>
      <trkpt lat="46.24139" lon="6.30593">
        <ele>503.359643</ele>
        <time>2021-07-07T22:45:31.788Z</time>
      </trkpt>
      <trkpt lat="46.2414" lon="6.30596">
        <ele>503.359643</ele>
        <time>2021-07-07T22:45:32.563Z</time>
      </trkpt>
      <trkpt lat="46.24142" lon="6.30599">
        <ele>503.359643</ele>
        <time>2021-07-07T22:45:33.476Z</time>
      </trkpt>
      <trkpt lat="46.24145" lon="6.30601">
        <ele>503.359643</ele>
        <time>2021-07-07T22:45:34.603Z</time>
      </trkpt>
      <trkpt lat="46.24152" lon="6.30605">
        <ele>503.359643</ele>
        <time>2021-07-07T22:45:36.932Z</time>
      </trkpt>
      <trkpt lat="46.24155" lon="6.30606">
        <ele>503.359643</ele>
        <time>2021-07-07T22:45:38.127Z</time>
      </trkpt>
      <trkpt lat="46.24155" lon="6.30611">
        <ele>503.359643</ele>
        <time>2021-07-07T22:45:39.378Z</time>
      </trkpt>
    </trkseg>
  </trk>
</gpx>